<?xml version='1.0' encoding='UTF-8'?><gpx version="1.1" creator="JPX - https://github.com/jenetics/jpx" xmlns="http://www.topografix.com/GPX/1/1"><trk><trkseg><trkpt lat="43.2136433" lon="2.3414717"><ele>114.0</ele><time>2026-05-01T14:37:49.654Z</time></trkpt><trkpt lat="43.2136183" lon="2.341375"><ele>114.0</ele><time>2026-05-01T14:37:50.997Z</time></trkpt><trkpt lat="43.2136917" lon="2.3413683"><ele>114.0</ele><time>2026-05-01T14:38:07.998Z</time></trkpt><trkpt lat="43.213775" lon="2.3413917"><ele>114.0</ele><time>2026-05-01T14:38:09.999Z</time></trkpt><trkpt lat="43.2138633" lon="2.341405"><ele>114.0</ele><time>2026-05-01T14:38:11.997Z</time></trkpt><trkpt lat="43.213955" lon="2.341425"><ele>114.0</ele><time>2026-05-01T14:38:13.998Z</time></trkpt><trkpt lat="43.2140417" lon="2.3414533"><ele>113.66666666666667</ele><time>2026-05-01T14:38:15.997Z</time></trkpt><trkpt lat="43.21411" lon="2.34147"><ele>113.33333333333334</ele><time>2026-05-01T14:38:17.998Z</time></trkpt><trkpt lat="43.21418" lon="2.3414883"><ele>113.0</ele><time>2026-05-01T14:38:19.997Z</time></trkpt><trkpt lat="43.2142567" lon="2.34152"><ele>112.66666666666667</ele><time>2026-05-01T14:38:22.998Z</time></trkpt><trkpt lat="43.2143317" lon="2.3414683"><ele>112.33333333333334</ele><time>2026-05-01T14:38:26.998Z</time></trkpt><trkpt lat="43.2143817" lon="2.34133"><ele>112.0</ele><time>2026-05-01T14:38:28.999Z</time></trkpt><trkpt lat="43.2144117" lon="2.34125"><ele>111.83333333333334</ele><time>2026-05-01T14:38:29.998Z</time></trkpt><trkpt lat="43.2144467" lon="2.3411567"><ele>111.66666666666667</ele><time>2026-05-01T14:38:30.998Z</time></trkpt><trkpt lat="43.2144833" lon="2.3410517"><ele>111.5</ele><time>2026-05-01T14:38:31.999Z</time></trkpt><trkpt lat="43.21452" lon="2.3409483"><ele>111.33333333333334</ele><time>2026-05-01T14:38:32.998Z</time></trkpt><trkpt lat="43.2145517" lon="2.3408533"><ele>111.16666666666667</ele><time>2026-05-01T14:38:33.999Z</time></trkpt><trkpt lat="43.21459" lon="2.3407483"><ele>111.0</ele><time>2026-05-01T14:38:34.999Z</time></trkpt><trkpt lat="43.21463" lon="2.3406367"><ele>111.0</ele><time>2026-05-01T14:38:35.997Z</time></trkpt><trkpt lat="43.21467" lon="2.3405233"><ele>111.0</ele><time>2026-05-01T14:38:36.997Z</time></trkpt><trkpt lat="43.2147117" lon="2.34041"><ele>111.0</ele><time>2026-05-01T14:38:38.003Z</time></trkpt><trkpt lat="43.21475" lon="2.3402983"><ele>111.0</ele><time>2026-05-01T14:38:38.998Z</time></trkpt><trkpt lat="43.2147917" lon="2.3401817"><ele>111.0</ele><time>2026-05-01T14:38:39.997Z</time></trkpt><trkpt lat="43.2148383" lon="2.3400583"><ele>111.0</ele><time>2026-05-01T14:38:40.998Z</time></trkpt><trkpt lat="43.2148883" lon="2.3399267"><ele>111.0</ele><time>2026-05-01T14:38:42Z</time></trkpt><trkpt lat="43.214935" lon="2.3397933"><ele>111.0</ele><time>2026-05-01T14:38:43.002Z</time></trkpt><trkpt lat="43.2149817" lon="2.33966"><ele>111.0</ele><time>2026-05-01T14:38:43.998Z</time></trkpt><trkpt lat="43.2150283" lon="2.3395217"><ele>111.0</ele><time>2026-05-01T14:38:45.003Z</time></trkpt><trkpt lat="43.215075" lon="2.3393817"><ele>111.0</ele><time>2026-05-01T14:38:46Z</time></trkpt><trkpt lat="43.2151217" lon="2.3392433"><ele>111.0</ele><time>2026-05-01T14:38:47.001Z</time></trkpt><trkpt lat="43.215165" lon="2.3391083"><ele>111.0</ele><time>2026-05-01T14:38:47.997Z</time></trkpt><trkpt lat="43.21521" lon="2.338975"><ele>111.0</ele><time>2026-05-01T14:38:48.997Z</time></trkpt><trkpt lat="43.2152567" lon="2.3388417"><ele>111.0</ele><time>2026-05-01T14:38:49.998Z</time></trkpt><trkpt lat="43.2153067" lon="2.338705"><ele>111.0</ele><time>2026-05-01T14:38:50.998Z</time></trkpt><trkpt lat="43.2153567" lon="2.33857"><ele>111.0</ele><time>2026-05-01T14:38:51.998Z</time></trkpt><trkpt lat="43.2154067" lon="2.3384317"><ele>111.0</ele><time>2026-05-01T14:38:52.997Z</time></trkpt><trkpt lat="43.2154567" lon="2.33829"><ele>111.0</ele><time>2026-05-01T14:38:53.998Z</time></trkpt><trkpt lat="43.2155067" lon="2.338145"><ele>111.0</ele><time>2026-05-01T14:38:55.004Z</time></trkpt><trkpt lat="43.2155617" lon="2.338005"><ele>111.0</ele><time>2026-05-01T14:38:55.999Z</time></trkpt><trkpt lat="43.2156133" lon="2.3378683"><ele>111.0</ele><time>2026-05-01T14:38:56.998Z</time></trkpt><trkpt lat="43.215665" lon="2.3377367"><ele>111.0</ele><time>2026-05-01T14:38:57.999Z</time></trkpt><trkpt lat="43.2157133" lon="2.3376067"><ele>111.0</ele><time>2026-05-01T14:38:58.998Z</time></trkpt><trkpt lat="43.215755" lon="2.337475"><ele>110.8</ele><time>2026-05-01T14:39:00.001Z</time></trkpt><trkpt lat="43.2158" lon="2.3373467"><ele>110.6</ele><time>2026-05-01T14:39:00.998Z</time></trkpt><trkpt lat="43.215845" lon="2.3372167"><ele>110.4</ele><time>2026-05-01T14:39:02.001Z</time></trkpt><trkpt lat="43.2158833" lon="2.3370983"><ele>110.2</ele><time>2026-05-01T14:39:02.999Z</time></trkpt><trkpt lat="43.215925" lon="2.3369733"><ele>110.0</ele><time>2026-05-01T14:39:03.999Z</time></trkpt><trkpt lat="43.2159667" lon="2.3368367"><ele>109.75</ele><time>2026-05-01T14:39:04.999Z</time></trkpt><trkpt lat="43.216015" lon="2.336685"><ele>109.5</ele><time>2026-05-01T14:39:05.999Z</time></trkpt><trkpt lat="43.2160583" lon="2.33654"><ele>109.25</ele><time>2026-05-01T14:39:07.003Z</time></trkpt><trkpt lat="43.2161083" lon="2.3364017"><ele>109.0</ele><time>2026-05-01T14:39:07.999Z</time></trkpt><trkpt lat="43.2161567" lon="2.3362633"><ele>109.0</ele><time>2026-05-01T14:39:09Z</time></trkpt><trkpt lat="43.2162067" lon="2.3361217"><ele>109.0</ele><time>2026-05-01T14:39:10.002Z</time></trkpt><trkpt lat="43.2162533" lon="2.335975"><ele>109.0</ele><time>2026-05-01T14:39:11.003Z</time></trkpt><trkpt lat="43.216305" lon="2.3358217"><ele>109.0</ele><time>2026-05-01T14:39:11.998Z</time></trkpt><trkpt lat="43.2163583" lon="2.3356667"><ele>108.75</ele><time>2026-05-01T14:39:13Z</time></trkpt><trkpt lat="43.216415" lon="2.3355"><ele>108.5</ele><time>2026-05-01T14:39:13.998Z</time></trkpt><trkpt lat="43.2164767" lon="2.3353217"><ele>108.25</ele><time>2026-05-01T14:39:14.999Z</time></trkpt><trkpt lat="43.2165383" lon="2.3351417"><ele>108.0</ele><time>2026-05-01T14:39:15.999Z</time></trkpt><trkpt lat="43.2166" lon="2.334965"><ele>108.33333333333334</ele><time>2026-05-01T14:39:16.998Z</time></trkpt><trkpt lat="43.2166617" lon="2.3347817"><ele>108.66666666666667</ele><time>2026-05-01T14:39:17.999Z</time></trkpt><trkpt lat="43.216725" lon="2.3345917"><ele>109.0</ele><time>2026-05-01T14:39:18.999Z</time></trkpt><trkpt lat="43.21679" lon="2.3344017"><ele>109.0</ele><time>2026-05-01T14:39:19.999Z</time></trkpt><trkpt lat="43.2168533" lon="2.3342117"><ele>109.0</ele><time>2026-05-01T14:39:20.999Z</time></trkpt><trkpt lat="43.2169183" lon="2.3340183"><ele>109.0</ele><time>2026-05-01T14:39:21.997Z</time></trkpt><trkpt lat="43.2169817" lon="2.333825"><ele>108.33333333333334</ele><time>2026-05-01T14:39:22.999Z</time></trkpt><trkpt lat="43.2170517" lon="2.33363"><ele>107.66666666666666</ele><time>2026-05-01T14:39:23.999Z</time></trkpt><trkpt lat="43.2171233" lon="2.333435"><ele>107.0</ele><time>2026-05-01T14:39:24.999Z</time></trkpt><trkpt lat="43.217185" lon="2.333235"><ele>107.0</ele><time>2026-05-01T14:39:25.999Z</time></trkpt><trkpt lat="43.2172517" lon="2.3330333"><ele>107.0</ele><time>2026-05-01T14:39:26.999Z</time></trkpt><trkpt lat="43.2173217" lon="2.3328333"><ele>107.0</ele><time>2026-05-01T14:39:27.998Z</time></trkpt><trkpt lat="43.2173883" lon="2.332635"><ele>107.25</ele><time>2026-05-01T14:39:28.998Z</time></trkpt><trkpt lat="43.2174517" lon="2.3324483"><ele>107.5</ele><time>2026-05-01T14:39:29.999Z</time></trkpt><trkpt lat="43.2175117" lon="2.3322733"><ele>107.75</ele><time>2026-05-01T14:39:31Z</time></trkpt><trkpt lat="43.21757" lon="2.3321033"><ele>108.0</ele><time>2026-05-01T14:39:31.998Z</time></trkpt><trkpt lat="43.2176267" lon="2.3319317"><ele>108.0</ele><time>2026-05-01T14:39:33Z</time></trkpt><trkpt lat="43.2176867" lon="2.3317633"><ele>108.0</ele><time>2026-05-01T14:39:33.998Z</time></trkpt><trkpt lat="43.217755" lon="2.3315967"><ele>108.0</ele><time>2026-05-01T14:39:34.999Z</time></trkpt><trkpt lat="43.21783" lon="2.3314383"><ele>108.0</ele><time>2026-05-01T14:39:36.002Z</time></trkpt><trkpt lat="43.2179083" lon="2.3312767"><ele>107.75</ele><time>2026-05-01T14:39:37.003Z</time></trkpt><trkpt lat="43.2179933" lon="2.3311267"><ele>107.5</ele><time>2026-05-01T14:39:37.999Z</time></trkpt><trkpt lat="43.2180833" lon="2.33099"><ele>107.25</ele><time>2026-05-01T14:39:39.002Z</time></trkpt><trkpt lat="43.218175" lon="2.33085"><ele>107.0</ele><time>2026-05-01T14:39:39.999Z</time></trkpt><trkpt lat="43.218275" lon="2.3307167"><ele>107.25</ele><time>2026-05-01T14:39:40.997Z</time></trkpt><trkpt lat="43.21838" lon="2.3305833"><ele>107.5</ele><time>2026-05-01T14:39:41.998Z</time></trkpt><trkpt lat="43.2184933" lon="2.330455"><ele>107.75</ele><time>2026-05-01T14:39:42.998Z</time></trkpt><trkpt lat="43.2186083" lon="2.3303333"><ele>108.0</ele><time>2026-05-01T14:39:43.998Z</time></trkpt><trkpt lat="43.21873" lon="2.3302167"><ele>108.0</ele><time>2026-05-01T14:39:45.005Z</time></trkpt><trkpt lat="43.2188567" lon="2.3301083"><ele>108.0</ele><time>2026-05-01T14:39:45.999Z</time></trkpt><trkpt lat="43.2189917" lon="2.3300033"><ele>108.0</ele><time>2026-05-01T14:39:46.999Z</time></trkpt><trkpt lat="43.2191233" lon="2.3298983"><ele>108.0</ele><time>2026-05-01T14:39:47.997Z</time></trkpt><trkpt lat="43.219255" lon="2.32979"><ele>108.0</ele><time>2026-05-01T14:39:48.998Z</time></trkpt><trkpt lat="43.219385" lon="2.3296767"><ele>108.0</ele><time>2026-05-01T14:39:49.997Z</time></trkpt><trkpt lat="43.2195133" lon="2.3295633"><ele>108.0</ele><time>2026-05-01T14:39:51.002Z</time></trkpt><trkpt lat="43.2196383" lon="2.329445"><ele>108.0</ele><time>2026-05-01T14:39:51.998Z</time></trkpt><trkpt lat="43.2197633" lon="2.32932"><ele>108.0</ele><time>2026-05-01T14:39:52.997Z</time></trkpt><trkpt lat="43.2198917" lon="2.32919"><ele>108.33333333333334</ele><time>2026-05-01T14:39:53.997Z</time></trkpt><trkpt lat="43.2200183" lon="2.329055"><ele>108.66666666666667</ele><time>2026-05-01T14:39:54.999Z</time></trkpt><trkpt lat="43.2201417" lon="2.3289167"><ele>109.0</ele><time>2026-05-01T14:39:55.998Z</time></trkpt><trkpt lat="43.2202617" lon="2.3287717"><ele>109.0</ele><time>2026-05-01T14:39:57Z</time></trkpt><trkpt lat="43.2203783" lon="2.3286217"><ele>109.0</ele><time>2026-05-01T14:39:57.998Z</time></trkpt><trkpt lat="43.2204917" lon="2.328475"><ele>109.0</ele><time>2026-05-01T14:39:58.998Z</time></trkpt><trkpt lat="43.2206067" lon="2.32833"><ele>109.66666666666667</ele><time>2026-05-01T14:39:59.998Z</time></trkpt><trkpt lat="43.2207167" lon="2.3281717"><ele>110.33333333333334</ele><time>2026-05-01T14:40:00.998Z</time></trkpt><trkpt lat="43.2208283" lon="2.3280233"><ele>111.0</ele><time>2026-05-01T14:40:02Z</time></trkpt><trkpt lat="43.2209367" lon="2.327865"><ele>111.0</ele><time>2026-05-01T14:40:02.999Z</time></trkpt><trkpt lat="43.221045" lon="2.3277033"><ele>111.0</ele><time>2026-05-01T14:40:03.998Z</time></trkpt><trkpt lat="43.2211567" lon="2.327545"><ele>111.0</ele><time>2026-05-01T14:40:04.999Z</time></trkpt><trkpt lat="43.22127" lon="2.327385"><ele>111.0</ele><time>2026-05-01T14:40:05.998Z</time></trkpt><trkpt lat="43.2213833" lon="2.3272283"><ele>111.0</ele><time>2026-05-01T14:40:07.002Z</time></trkpt><trkpt lat="43.2214983" lon="2.3270717"><ele>111.0</ele><time>2026-05-01T14:40:08Z</time></trkpt><trkpt lat="43.2216083" lon="2.3269167"><ele>110.33333333333334</ele><time>2026-05-01T14:40:09.001Z</time></trkpt><trkpt lat="43.221715" lon="2.32676"><ele>109.66666666666667</ele><time>2026-05-01T14:40:10.001Z</time></trkpt><trkpt lat="43.2218217" lon="2.3266033"><ele>109.0</ele><time>2026-05-01T14:40:10.997Z</time></trkpt><trkpt lat="43.2219333" lon="2.3264483"><ele>109.0</ele><time>2026-05-01T14:40:12.001Z</time></trkpt><trkpt lat="43.2220433" lon="2.3263"><ele>109.0</ele><time>2026-05-01T14:40:12.998Z</time></trkpt><trkpt lat="43.2221533" lon="2.3261533"><ele>109.0</ele><time>2026-05-01T14:40:14Z</time></trkpt><trkpt lat="43.22226" lon="2.3260033"><ele>109.0</ele><time>2026-05-01T14:40:15.001Z</time></trkpt><trkpt lat="43.2223533" lon="2.3258817"><ele>109.0</ele><time>2026-05-01T14:40:15.998Z</time></trkpt><trkpt lat="43.222445" lon="2.32576"><ele>109.0</ele><time>2026-05-01T14:40:17.002Z</time></trkpt><trkpt lat="43.2225317" lon="2.325645"><ele>109.0</ele><time>2026-05-01T14:40:18.004Z</time></trkpt><trkpt lat="43.2226267" lon="2.3255383"><ele>108.80000000000001</ele><time>2026-05-01T14:40:19.001Z</time></trkpt><trkpt lat="43.2227133" lon="2.325445"><ele>108.60000000000001</ele><time>2026-05-01T14:40:20.001Z</time></trkpt><trkpt lat="43.2228033" lon="2.3253683"><ele>108.4</ele><time>2026-05-01T14:40:21Z</time></trkpt><trkpt lat="43.222885" lon="2.325295"><ele>108.2</ele><time>2026-05-01T14:40:21.999Z</time></trkpt><trkpt lat="43.2229667" lon="2.3252267"><ele>108.0</ele><time>2026-05-01T14:40:22.999Z</time></trkpt><trkpt lat="43.2230467" lon="2.3251683"><ele>108.0</ele><time>2026-05-01T14:40:23.999Z</time></trkpt><trkpt lat="43.223125" lon="2.325125"><ele>108.0</ele><time>2026-05-01T14:40:24.999Z</time></trkpt><trkpt lat="43.22319" lon="2.32507"><ele>108.0</ele><time>2026-05-01T14:40:25.999Z</time></trkpt><trkpt lat="43.22324" lon="2.3250033"><ele>108.0</ele><time>2026-05-01T14:40:27.001Z</time></trkpt><trkpt lat="43.223245" lon="2.324845"><ele>108.0</ele><time>2026-05-01T14:40:28.999Z</time></trkpt><trkpt lat="43.2232067" lon="2.3247733"><ele>108.0</ele><time>2026-05-01T14:40:30Z</time></trkpt><trkpt lat="43.2231233" lon="2.3247533"><ele>108.0</ele><time>2026-05-01T14:40:30.999Z</time></trkpt><trkpt lat="43.223045" lon="2.324765"><ele>108.00000000000001</ele><time>2026-05-01T14:40:31.999Z</time></trkpt><trkpt lat="43.2229517" lon="2.3247867"><ele>108.00000000000001</ele><time>2026-05-01T14:40:33Z</time></trkpt><trkpt lat="43.222835" lon="2.3248033"><ele>108.0</ele><time>2026-05-01T14:40:34.001Z</time></trkpt><trkpt lat="43.2227233" lon="2.3247417"><ele>108.0</ele><time>2026-05-01T14:40:34.998Z</time></trkpt><trkpt lat="43.222615" lon="2.3246567"><ele>107.25</ele><time>2026-05-01T14:40:35.999Z</time></trkpt><trkpt lat="43.2225083" lon="2.324565"><ele>106.5</ele><time>2026-05-01T14:40:37.001Z</time></trkpt><trkpt lat="43.222405" lon="2.3244733"><ele>105.75</ele><time>2026-05-01T14:40:37.998Z</time></trkpt><trkpt lat="43.2223" lon="2.324385"><ele>105.0</ele><time>2026-05-01T14:40:39Z</time></trkpt><trkpt lat="43.2221867" lon="2.3242983"><ele>105.0</ele><time>2026-05-01T14:40:40.001Z</time></trkpt><trkpt lat="43.2220617" lon="2.32422"><ele>105.0</ele><time>2026-05-01T14:40:40.999Z</time></trkpt><trkpt lat="43.2219333" lon="2.3241667"><ele>105.0</ele><time>2026-05-01T14:40:42Z</time></trkpt><trkpt lat="43.2217983" lon="2.3241167"><ele>105.0</ele><time>2026-05-01T14:40:42.998Z</time></trkpt><trkpt lat="43.2216617" lon="2.32406"><ele>105.0</ele><time>2026-05-01T14:40:43.998Z</time></trkpt><trkpt lat="43.2215217" lon="2.3239983"><ele>105.0</ele><time>2026-05-01T14:40:44.998Z</time></trkpt><trkpt lat="43.2213783" lon="2.3239433"><ele>105.0</ele><time>2026-05-01T14:40:45.999Z</time></trkpt><trkpt lat="43.2212333" lon="2.323895"><ele>105.0</ele><time>2026-05-01T14:40:46.999Z</time></trkpt><trkpt lat="43.221085" lon="2.3238517"><ele>105.0</ele><time>2026-05-01T14:40:47.998Z</time></trkpt><trkpt lat="43.220935" lon="2.32381"><ele>105.0</ele><time>2026-05-01T14:40:48.998Z</time></trkpt><trkpt lat="43.22078" lon="2.3237717"><ele>105.0</ele><time>2026-05-01T14:40:49.998Z</time></trkpt><trkpt lat="43.2206233" lon="2.32374"><ele>105.33333333333334</ele><time>2026-05-01T14:40:50.998Z</time></trkpt><trkpt lat="43.2204667" lon="2.3237067"><ele>105.66666666666667</ele><time>2026-05-01T14:40:51.999Z</time></trkpt><trkpt lat="43.22031" lon="2.323675"><ele>106.0</ele><time>2026-05-01T14:40:52.998Z</time></trkpt><trkpt lat="43.2201533" lon="2.3236417"><ele>106.0</ele><time>2026-05-01T14:40:53.999Z</time></trkpt><trkpt lat="43.2199967" lon="2.3236067"><ele>106.0</ele><time>2026-05-01T14:40:54.998Z</time></trkpt><trkpt lat="43.21984" lon="2.3235733"><ele>106.0</ele><time>2026-05-01T14:40:56Z</time></trkpt><trkpt lat="43.219685" lon="2.32354"><ele>106.0</ele><time>2026-05-01T14:40:57Z</time></trkpt><trkpt lat="43.2195317" lon="2.3235083"><ele>106.0</ele><time>2026-05-01T14:40:57.999Z</time></trkpt><trkpt lat="43.2193783" lon="2.3234783"><ele>106.0</ele><time>2026-05-01T14:40:58.999Z</time></trkpt><trkpt lat="43.219225" lon="2.323445"><ele>106.0</ele><time>2026-05-01T14:40:59.999Z</time></trkpt><trkpt lat="43.2190733" lon="2.3234083"><ele>106.0</ele><time>2026-05-01T14:41:00.999Z</time></trkpt><trkpt lat="43.2189267" lon="2.3233717"><ele>106.0</ele><time>2026-05-01T14:41:02Z</time></trkpt><trkpt lat="43.218785" lon="2.3233367"><ele>106.0</ele><time>2026-05-01T14:41:02.998Z</time></trkpt><trkpt lat="43.21865" lon="2.3233033"><ele>105.5</ele><time>2026-05-01T14:41:03.998Z</time></trkpt><trkpt lat="43.2185133" lon="2.3232717"><ele>105.0</ele><time>2026-05-01T14:41:05.001Z</time></trkpt><trkpt lat="43.218375" lon="2.32324"><ele>104.5</ele><time>2026-05-01T14:41:05.998Z</time></trkpt><trkpt lat="43.21823" lon="2.3232067"><ele>104.0</ele><time>2026-05-01T14:41:06.998Z</time></trkpt><trkpt lat="43.2180833" lon="2.3231683"><ele>105.33333333333333</ele><time>2026-05-01T14:41:07.998Z</time></trkpt><trkpt lat="43.2179367" lon="2.3231317"><ele>106.66666666666666</ele><time>2026-05-01T14:41:09Z</time></trkpt><trkpt lat="43.2177867" lon="2.3230983"><ele>108.0</ele><time>2026-05-01T14:41:09.998Z</time></trkpt><trkpt lat="43.217635" lon="2.3230683"><ele>108.33333333333334</ele><time>2026-05-01T14:41:10.998Z</time></trkpt><trkpt lat="43.217485" lon="2.3230333"><ele>108.66666666666667</ele><time>2026-05-01T14:41:11.998Z</time></trkpt><trkpt lat="43.2173333" lon="2.3229933"><ele>109.0</ele><time>2026-05-01T14:41:12.999Z</time></trkpt><trkpt lat="43.2171783" lon="2.32296"><ele>110.66666666666667</ele><time>2026-05-01T14:41:13.998Z</time></trkpt><trkpt lat="43.2170217" lon="2.32293"><ele>112.33333333333334</ele><time>2026-05-01T14:41:15Z</time></trkpt><trkpt lat="43.216865" lon="2.3228933"><ele>114.0</ele><time>2026-05-01T14:41:15.997Z</time></trkpt><trkpt lat="43.21671" lon="2.3228583"><ele>114.0</ele><time>2026-05-01T14:41:16.999Z</time></trkpt><trkpt lat="43.216555" lon="2.32282"><ele>114.0</ele><time>2026-05-01T14:41:17.998Z</time></trkpt><trkpt lat="43.2164067" lon="2.3227867"><ele>114.0</ele><time>2026-05-01T14:41:19Z</time></trkpt><trkpt lat="43.21626" lon="2.3227533"><ele>113.5</ele><time>2026-05-01T14:41:19.997Z</time></trkpt><trkpt lat="43.2161133" lon="2.32272"><ele>113.0</ele><time>2026-05-01T14:41:21.001Z</time></trkpt><trkpt lat="43.2159733" lon="2.322685"><ele>112.5</ele><time>2026-05-01T14:41:21.998Z</time></trkpt><trkpt lat="43.2158433" lon="2.3226467"><ele>112.0</ele><time>2026-05-01T14:41:22.999Z</time></trkpt><trkpt lat="43.2157217" lon="2.3226017"><ele>111.8</ele><time>2026-05-01T14:41:23.998Z</time></trkpt><trkpt lat="43.21561" lon="2.3225533"><ele>111.6</ele><time>2026-05-01T14:41:24.998Z</time></trkpt><trkpt lat="43.2155067" lon="2.3224883"><ele>111.39999999999999</ele><time>2026-05-01T14:41:26Z</time></trkpt><trkpt lat="43.2154117" lon="2.3224217"><ele>111.19999999999999</ele><time>2026-05-01T14:41:27.001Z</time></trkpt><trkpt lat="43.21532" lon="2.32236"><ele>111.0</ele><time>2026-05-01T14:41:28Z</time></trkpt><trkpt lat="43.2152317" lon="2.322305"><ele>111.0</ele><time>2026-05-01T14:41:28.998Z</time></trkpt><trkpt lat="43.2151467" lon="2.3222733"><ele>111.0</ele><time>2026-05-01T14:41:30Z</time></trkpt><trkpt lat="43.2150617" lon="2.3222567"><ele>111.0</ele><time>2026-05-01T14:41:30.997Z</time></trkpt><trkpt lat="43.214985" lon="2.32224"><ele>111.0</ele><time>2026-05-01T14:41:32Z</time></trkpt><trkpt lat="43.21492" lon="2.3222083"><ele>111.0</ele><time>2026-05-01T14:41:33.004Z</time></trkpt><trkpt lat="43.2148567" lon="2.3221167"><ele>111.0</ele><time>2026-05-01T14:41:34.997Z</time></trkpt><trkpt lat="43.2148367" lon="2.3220333"><ele>111.33333333333333</ele><time>2026-05-01T14:41:36.999Z</time></trkpt><trkpt lat="43.214865" lon="2.3219517"><ele>111.66666666666666</ele><time>2026-05-01T14:41:42.998Z</time></trkpt><trkpt lat="43.2149" lon="2.3218783"><ele>112.0</ele><time>2026-05-01T14:41:43.998Z</time></trkpt><trkpt lat="43.21494" lon="2.3217983"><ele>112.33333333333333</ele><time>2026-05-01T14:41:44.998Z</time></trkpt><trkpt lat="43.2149867" lon="2.3217083"><ele>112.66666666666666</ele><time>2026-05-01T14:41:45.997Z</time></trkpt><trkpt lat="43.2150367" lon="2.3216133"><ele>113.0</ele><time>2026-05-01T14:41:46.997Z</time></trkpt><trkpt lat="43.2150867" lon="2.3215067"><ele>113.4</ele><time>2026-05-01T14:41:47.999Z</time></trkpt><trkpt lat="43.21514" lon="2.32139"><ele>113.80000000000001</ele><time>2026-05-01T14:41:48.998Z</time></trkpt><trkpt lat="43.215195" lon="2.3212717"><ele>114.2</ele><time>2026-05-01T14:41:49.997Z</time></trkpt><trkpt lat="43.215255" lon="2.32114"><ele>114.6</ele><time>2026-05-01T14:41:50.999Z</time></trkpt><trkpt lat="43.2153167" lon="2.3209983"><ele>115.0</ele><time>2026-05-01T14:41:51.997Z</time></trkpt><trkpt lat="43.21538" lon="2.3208583"><ele>115.0</ele><time>2026-05-01T14:41:52.999Z</time></trkpt><trkpt lat="43.215445" lon="2.32072"><ele>115.0</ele><time>2026-05-01T14:41:54Z</time></trkpt><trkpt lat="43.2155117" lon="2.32058"><ele>115.0</ele><time>2026-05-01T14:41:54.998Z</time></trkpt><trkpt lat="43.2155817" lon="2.3204317"><ele>115.0</ele><time>2026-05-01T14:41:55.999Z</time></trkpt><trkpt lat="43.2156517" lon="2.3202767"><ele>115.5</ele><time>2026-05-01T14:41:57.002Z</time></trkpt><trkpt lat="43.2157267" lon="2.320115"><ele>116.0</ele><time>2026-05-01T14:41:57.998Z</time></trkpt><trkpt lat="43.2158033" lon="2.3199417"><ele>116.5</ele><time>2026-05-01T14:41:58.998Z</time></trkpt><trkpt lat="43.2158833" lon="2.3197583"><ele>117.0</ele><time>2026-05-01T14:41:59.999Z</time></trkpt><trkpt lat="43.2159633" lon="2.3195733"><ele>117.66666666666666</ele><time>2026-05-01T14:42:00.998Z</time></trkpt><trkpt lat="43.21604" lon="2.3193917"><ele>118.33333333333333</ele><time>2026-05-01T14:42:01.999Z</time></trkpt><trkpt lat="43.2161167" lon="2.3192"><ele>119.0</ele><time>2026-05-01T14:42:03.004Z</time></trkpt><trkpt lat="43.2161917" lon="2.319"><ele>119.66666666666666</ele><time>2026-05-01T14:42:03.998Z</time></trkpt><trkpt lat="43.216265" lon="2.3187917"><ele>120.33333333333334</ele><time>2026-05-01T14:42:04.997Z</time></trkpt><trkpt lat="43.2163317" lon="2.3185833"><ele>121.0</ele><time>2026-05-01T14:42:06.001Z</time></trkpt><trkpt lat="43.2163933" lon="2.31837"><ele>121.0</ele><time>2026-05-01T14:42:06.997Z</time></trkpt><trkpt lat="43.2164483" lon="2.3181517"><ele>121.0</ele><time>2026-05-01T14:42:07.997Z</time></trkpt><trkpt lat="43.216505" lon="2.31792"><ele>121.0</ele><time>2026-05-01T14:42:08.997Z</time></trkpt><trkpt lat="43.2165567" lon="2.31769"><ele>121.33333333333334</ele><time>2026-05-01T14:42:09.997Z</time></trkpt><trkpt lat="43.2166083" lon="2.3174567"><ele>121.66666666666666</ele><time>2026-05-01T14:42:10.997Z</time></trkpt><trkpt lat="43.2166533" lon="2.3172183"><ele>122.0</ele><time>2026-05-01T14:42:11.996Z</time></trkpt><trkpt lat="43.21669" lon="2.3169783"><ele>122.0</ele><time>2026-05-01T14:42:12.998Z</time></trkpt><trkpt lat="43.2167233" lon="2.3167367"><ele>122.0</ele><time>2026-05-01T14:42:13.996Z</time></trkpt><trkpt lat="43.216755" lon="2.31649"><ele>122.0</ele><time>2026-05-01T14:42:14.998Z</time></trkpt><trkpt lat="43.2167817" lon="2.3162483"><ele>122.33333333333333</ele><time>2026-05-01T14:42:15.998Z</time></trkpt><trkpt lat="43.2168083" lon="2.316005"><ele>122.66666666666666</ele><time>2026-05-01T14:42:16.997Z</time></trkpt><trkpt lat="43.2168383" lon="2.3157633"><ele>123.0</ele><time>2026-05-01T14:42:17.998Z</time></trkpt><trkpt lat="43.2168683" lon="2.315525"><ele>123.33333333333334</ele><time>2026-05-01T14:42:18.998Z</time></trkpt><trkpt lat="43.2169" lon="2.3152867"><ele>123.66666666666667</ele><time>2026-05-01T14:42:19.997Z</time></trkpt><trkpt lat="43.21693" lon="2.3150483"><ele>124.0</ele><time>2026-05-01T14:42:20.998Z</time></trkpt><trkpt lat="43.21696" lon="2.3148133"><ele>125.0</ele><time>2026-05-01T14:42:21.997Z</time></trkpt><trkpt lat="43.21699" lon="2.3145767"><ele>126.0</ele><time>2026-05-01T14:42:22.998Z</time></trkpt><trkpt lat="43.2170183" lon="2.31434"><ele>127.0</ele><time>2026-05-01T14:42:24Z</time></trkpt><trkpt lat="43.217045" lon="2.3141017"><ele>127.0</ele><time>2026-05-01T14:42:24.997Z</time></trkpt><trkpt lat="43.217075" lon="2.313865"><ele>127.0</ele><time>2026-05-01T14:42:25.997Z</time></trkpt><trkpt lat="43.2171017" lon="2.3136267"><ele>127.0</ele><time>2026-05-01T14:42:26.997Z</time></trkpt><trkpt lat="43.2171283" lon="2.31339"><ele>127.0</ele><time>2026-05-01T14:42:27.997Z</time></trkpt><trkpt lat="43.217155" lon="2.3131483"><ele>127.0</ele><time>2026-05-01T14:42:28.997Z</time></trkpt><trkpt lat="43.21718" lon="2.312905"><ele>127.0</ele><time>2026-05-01T14:42:29.997Z</time></trkpt><trkpt lat="43.2172133" lon="2.312665"><ele>126.0</ele><time>2026-05-01T14:42:31.002Z</time></trkpt><trkpt lat="43.217245" lon="2.3124233"><ele>125.0</ele><time>2026-05-01T14:42:31.997Z</time></trkpt><trkpt lat="43.2172783" lon="2.3121817"><ele>124.0</ele><time>2026-05-01T14:42:32.999Z</time></trkpt><trkpt lat="43.21731" lon="2.3119333"><ele>124.0</ele><time>2026-05-01T14:42:34Z</time></trkpt><trkpt lat="43.21734" lon="2.3116917"><ele>124.0</ele><time>2026-05-01T14:42:34.996Z</time></trkpt><trkpt lat="43.2173717" lon="2.31145"><ele>124.0</ele><time>2026-05-01T14:42:36Z</time></trkpt><trkpt lat="43.21741" lon="2.3112067"><ele>124.0</ele><time>2026-05-01T14:42:36.998Z</time></trkpt><trkpt lat="43.21745" lon="2.3109617"><ele>124.0</ele><time>2026-05-01T14:42:37.997Z</time></trkpt><trkpt lat="43.21749" lon="2.3107167"><ele>124.0</ele><time>2026-05-01T14:42:38.998Z</time></trkpt><trkpt lat="43.21753" lon="2.31047"><ele>124.33333333333334</ele><time>2026-05-01T14:42:39.999Z</time></trkpt><trkpt lat="43.21757" lon="2.310225"><ele>124.66666666666666</ele><time>2026-05-01T14:42:40.996Z</time></trkpt><trkpt lat="43.2176083" lon="2.30998"><ele>125.0</ele><time>2026-05-01T14:42:41.997Z</time></trkpt><trkpt lat="43.21765" lon="2.309735"><ele>126.0</ele><time>2026-05-01T14:42:42.997Z</time></trkpt><trkpt lat="43.217695" lon="2.3094917"><ele>127.0</ele><time>2026-05-01T14:42:43.996Z</time></trkpt><trkpt lat="43.2177467" lon="2.3092467"><ele>128.0</ele><time>2026-05-01T14:42:45.003Z</time></trkpt><trkpt lat="43.2178083" lon="2.3090067"><ele>128.0</ele><time>2026-05-01T14:42:45.997Z</time></trkpt><trkpt lat="43.2178767" lon="2.30877"><ele>128.0</ele><time>2026-05-01T14:42:46.997Z</time></trkpt><trkpt lat="43.2179483" lon="2.3085383"><ele>128.0</ele><time>2026-05-01T14:42:47.997Z</time></trkpt><trkpt lat="43.21802" lon="2.3083067"><ele>128.0</ele><time>2026-05-01T14:42:48.997Z</time></trkpt><trkpt lat="43.21809" lon="2.30808"><ele>128.0</ele><time>2026-05-01T14:42:50.086Z</time></trkpt><trkpt lat="43.2181633" lon="2.3078533"><ele>128.0</ele><time>2026-05-01T14:42:50.998Z</time></trkpt><trkpt lat="43.2182367" lon="2.3076233"><ele>127.33333333333333</ele><time>2026-05-01T14:42:51.998Z</time></trkpt><trkpt lat="43.21831" lon="2.3073917"><ele>126.66666666666666</ele><time>2026-05-01T14:42:52.996Z</time></trkpt><trkpt lat="43.2183817" lon="2.30716"><ele>126.0</ele><time>2026-05-01T14:42:53.997Z</time></trkpt><trkpt lat="43.2184533" lon="2.306925"><ele>125.66666666666666</ele><time>2026-05-01T14:42:54.997Z</time></trkpt><trkpt lat="43.2185283" lon="2.3066933"><ele>125.33333333333333</ele><time>2026-05-01T14:42:55.997Z</time></trkpt><trkpt lat="43.2186017" lon="2.3064633"><ele>125.0</ele><time>2026-05-01T14:42:56.997Z</time></trkpt><trkpt lat="43.2186733" lon="2.3062333"><ele>124.66666666666666</ele><time>2026-05-01T14:42:57.998Z</time></trkpt><trkpt lat="43.218745" lon="2.3060017"><ele>124.33333333333334</ele><time>2026-05-01T14:42:58.996Z</time></trkpt><trkpt lat="43.218815" lon="2.3057733"><ele>124.0</ele><time>2026-05-01T14:42:59.998Z</time></trkpt><trkpt lat="43.218885" lon="2.305545"><ele>123.66666666666667</ele><time>2026-05-01T14:43:00.997Z</time></trkpt><trkpt lat="43.218955" lon="2.3053217"><ele>123.33333333333334</ele><time>2026-05-01T14:43:02.001Z</time></trkpt><trkpt lat="43.219025" lon="2.3051"><ele>123.0</ele><time>2026-05-01T14:43:02.997Z</time></trkpt><trkpt lat="43.219095" lon="2.3048783"><ele>123.66666666666666</ele><time>2026-05-01T14:43:03.997Z</time></trkpt><trkpt lat="43.2191633" lon="2.3046533"><ele>124.33333333333333</ele><time>2026-05-01T14:43:04.996Z</time></trkpt><trkpt lat="43.2192317" lon="2.30443"><ele>125.0</ele><time>2026-05-01T14:43:05.996Z</time></trkpt><trkpt lat="43.2193033" lon="2.3042083"><ele>125.0</ele><time>2026-05-01T14:43:06.996Z</time></trkpt><trkpt lat="43.219375" lon="2.3039867"><ele>125.0</ele><time>2026-05-01T14:43:07.997Z</time></trkpt><trkpt lat="43.219445" lon="2.3037633"><ele>125.0</ele><time>2026-05-01T14:43:08.997Z</time></trkpt><trkpt lat="43.2195117" lon="2.303545"><ele>125.0</ele><time>2026-05-01T14:43:09.998Z</time></trkpt><trkpt lat="43.2195767" lon="2.3033267"><ele>125.0</ele><time>2026-05-01T14:43:10.998Z</time></trkpt><trkpt lat="43.2196467" lon="2.30311"><ele>125.0</ele><time>2026-05-01T14:43:11.998Z</time></trkpt><trkpt lat="43.21972" lon="2.3028917"><ele>125.0</ele><time>2026-05-01T14:43:13.079Z</time></trkpt><trkpt lat="43.2197917" lon="2.3026767"><ele>125.0</ele><time>2026-05-01T14:43:13.999Z</time></trkpt><trkpt lat="43.219865" lon="2.3024583"><ele>125.0</ele><time>2026-05-01T14:43:14.998Z</time></trkpt><trkpt lat="43.2199383" lon="2.30224"><ele>125.33333333333333</ele><time>2026-05-01T14:43:15.998Z</time></trkpt><trkpt lat="43.2200117" lon="2.3020233"><ele>125.66666666666666</ele><time>2026-05-01T14:43:16.996Z</time></trkpt><trkpt lat="43.2200883" lon="2.3018083"><ele>126.0</ele><time>2026-05-01T14:43:17.999Z</time></trkpt><trkpt lat="43.2201717" lon="2.3015967"><ele>125.66666666666666</ele><time>2026-05-01T14:43:18.998Z</time></trkpt><trkpt lat="43.22027" lon="2.30139"><ele>125.33333333333333</ele><time>2026-05-01T14:43:19.998Z</time></trkpt><trkpt lat="43.2203733" lon="2.301185"><ele>125.0</ele><time>2026-05-01T14:43:20.997Z</time></trkpt><trkpt lat="43.22048" lon="2.30098"><ele>125.0</ele><time>2026-05-01T14:43:21.997Z</time></trkpt><trkpt lat="43.2205833" lon="2.30078"><ele>125.0</ele><time>2026-05-01T14:43:22.999Z</time></trkpt><trkpt lat="43.2206833" lon="2.300585"><ele>125.0</ele><time>2026-05-01T14:43:23.999Z</time></trkpt><trkpt lat="43.2207817" lon="2.300395"><ele>123.0</ele><time>2026-05-01T14:43:24.998Z</time></trkpt><trkpt lat="43.220875" lon="2.30021"><ele>121.0</ele><time>2026-05-01T14:43:25.998Z</time></trkpt><trkpt lat="43.2209667" lon="2.3000267"><ele>119.0</ele><time>2026-05-01T14:43:26.999Z</time></trkpt><trkpt lat="43.2210567" lon="2.29985"><ele>118.25</ele><time>2026-05-01T14:43:27.997Z</time></trkpt><trkpt lat="43.2211417" lon="2.2996817"><ele>117.5</ele><time>2026-05-01T14:43:28.998Z</time></trkpt><trkpt lat="43.221225" lon="2.2995233"><ele>116.75</ele><time>2026-05-01T14:43:30Z</time></trkpt><trkpt lat="43.2213" lon="2.2993817"><ele>116.0</ele><time>2026-05-01T14:43:30.997Z</time></trkpt><trkpt lat="43.221365" lon="2.2992617"><ele>115.99999999999999</ele><time>2026-05-01T14:43:31.997Z</time></trkpt><trkpt lat="43.2214167" lon="2.2991633"><ele>116.0</ele><time>2026-05-01T14:43:32.998Z</time></trkpt><trkpt lat="43.2214533" lon="2.2990733"><ele>116.0</ele><time>2026-05-01T14:43:33.998Z</time></trkpt><trkpt lat="43.2214117" lon="2.298935"><ele>116.0</ele><time>2026-05-01T14:43:35.997Z</time></trkpt><trkpt lat="43.2213733" lon="2.2988533"><ele>115.99999999999999</ele><time>2026-05-01T14:43:36.998Z</time></trkpt><trkpt lat="43.2213183" lon="2.29875"><ele>116.0</ele><time>2026-05-01T14:43:37.997Z</time></trkpt><trkpt lat="43.22126" lon="2.29866"><ele>115.6</ele><time>2026-05-01T14:43:38.998Z</time></trkpt><trkpt lat="43.2211867" lon="2.2985683"><ele>115.19999999999999</ele><time>2026-05-01T14:43:40Z</time></trkpt><trkpt lat="43.2211217" lon="2.2984733"><ele>114.80000000000001</ele><time>2026-05-01T14:43:40.998Z</time></trkpt><trkpt lat="43.221065" lon="2.2983733"><ele>114.4</ele><time>2026-05-01T14:43:41.997Z</time></trkpt><trkpt lat="43.2210117" lon="2.298265"><ele>114.0</ele><time>2026-05-01T14:43:42.998Z</time></trkpt><trkpt lat="43.2209583" lon="2.2981433"><ele>114.0</ele><time>2026-05-01T14:43:43.998Z</time></trkpt><trkpt lat="43.2209117" lon="2.29801"><ele>114.0</ele><time>2026-05-01T14:43:44.999Z</time></trkpt><trkpt lat="43.220865" lon="2.2978667"><ele>114.0</ele><time>2026-05-01T14:43:45.998Z</time></trkpt><trkpt lat="43.220815" lon="2.29772"><ele>114.0</ele><time>2026-05-01T14:43:46.997Z</time></trkpt><trkpt lat="43.2207683" lon="2.2975783"><ele>114.0</ele><time>2026-05-01T14:43:48Z</time></trkpt><trkpt lat="43.2207217" lon="2.29743"><ele>114.0</ele><time>2026-05-01T14:43:49Z</time></trkpt><trkpt lat="43.220665" lon="2.2972817"><ele>114.0</ele><time>2026-05-01T14:43:49.996Z</time></trkpt><trkpt lat="43.220615" lon="2.2971217"><ele>114.0</ele><time>2026-05-01T14:43:50.997Z</time></trkpt><trkpt lat="43.2205833" lon="2.2969467"><ele>114.75</ele><time>2026-05-01T14:43:51.998Z</time></trkpt><trkpt lat="43.220555" lon="2.2967517"><ele>115.5</ele><time>2026-05-01T14:43:52.999Z</time></trkpt><trkpt lat="43.22053" lon="2.296555"><ele>116.25</ele><time>2026-05-01T14:43:53.998Z</time></trkpt><trkpt lat="43.2205083" lon="2.2963617"><ele>117.0</ele><time>2026-05-01T14:43:54.999Z</time></trkpt><trkpt lat="43.2204783" lon="2.2961717"><ele>117.0</ele><time>2026-05-01T14:43:55.997Z</time></trkpt><trkpt lat="43.22045" lon="2.2959833"><ele>117.0</ele><time>2026-05-01T14:43:56.997Z</time></trkpt><trkpt lat="43.2204267" lon="2.295795"><ele>117.0</ele><time>2026-05-01T14:43:57.997Z</time></trkpt><trkpt lat="43.22041" lon="2.2956"><ele>117.0</ele><time>2026-05-01T14:43:58.998Z</time></trkpt><trkpt lat="43.2204" lon="2.2954117"><ele>116.5</ele><time>2026-05-01T14:43:59.998Z</time></trkpt><trkpt lat="43.2203933" lon="2.2952317"><ele>116.0</ele><time>2026-05-01T14:44:01Z</time></trkpt><trkpt lat="43.2203833" lon="2.295065"><ele>115.5</ele><time>2026-05-01T14:44:01.998Z</time></trkpt><trkpt lat="43.220365" lon="2.2949167"><ele>115.0</ele><time>2026-05-01T14:44:03.003Z</time></trkpt><trkpt lat="43.2203283" lon="2.29479"><ele>114.8</ele><time>2026-05-01T14:44:03.999Z</time></trkpt><trkpt lat="43.22027" lon="2.2946767"><ele>114.6</ele><time>2026-05-01T14:44:04.998Z</time></trkpt><trkpt lat="43.220205" lon="2.294575"><ele>114.4</ele><time>2026-05-01T14:44:05.997Z</time></trkpt><trkpt lat="43.2201433" lon="2.2944767"><ele>114.2</ele><time>2026-05-01T14:44:06.997Z</time></trkpt><trkpt lat="43.2201033" lon="2.29437"><ele>114.0</ele><time>2026-05-01T14:44:07.997Z</time></trkpt><trkpt lat="43.22008" lon="2.29426"><ele>114.0</ele><time>2026-05-01T14:44:08.997Z</time></trkpt><trkpt lat="43.2200733" lon="2.2941367"><ele>114.0</ele><time>2026-05-01T14:44:09.999Z</time></trkpt><trkpt lat="43.2201083" lon="2.293995"><ele>114.0</ele><time>2026-05-01T14:44:10.997Z</time></trkpt><trkpt lat="43.2201433" lon="2.2938433"><ele>114.0</ele><time>2026-05-01T14:44:11.999Z</time></trkpt><trkpt lat="43.22018" lon="2.2936833"><ele>114.0</ele><time>2026-05-01T14:44:12.999Z</time></trkpt><trkpt lat="43.2202083" lon="2.2935283"><ele>114.2</ele><time>2026-05-01T14:44:13.997Z</time></trkpt><trkpt lat="43.2202317" lon="2.2933683"><ele>114.4</ele><time>2026-05-01T14:44:14.997Z</time></trkpt><trkpt lat="43.2202517" lon="2.29322"><ele>114.6</ele><time>2026-05-01T14:44:15.997Z</time></trkpt><trkpt lat="43.22027" lon="2.2930817"><ele>114.8</ele><time>2026-05-01T14:44:16.996Z</time></trkpt><trkpt lat="43.2202867" lon="2.2929533"><ele>115.0</ele><time>2026-05-01T14:44:17.997Z</time></trkpt><trkpt lat="43.2202933" lon="2.29283"><ele>115.00000000000001</ele><time>2026-05-01T14:44:18.999Z</time></trkpt><trkpt lat="43.220285" lon="2.2927167"><ele>115.0</ele><time>2026-05-01T14:44:19.997Z</time></trkpt><trkpt lat="43.2202033" lon="2.29262"><ele>115.0</ele><time>2026-05-01T14:44:21.996Z</time></trkpt><trkpt lat="43.2201383" lon="2.2926083"><ele>115.0</ele><time>2026-05-01T14:44:22.999Z</time></trkpt><trkpt lat="43.2200633" lon="2.2926067"><ele>115.00000000000001</ele><time>2026-05-01T14:44:23.997Z</time></trkpt><trkpt lat="43.21997" lon="2.2925983"><ele>115.0</ele><time>2026-05-01T14:44:24.997Z</time></trkpt><trkpt lat="43.2198733" lon="2.292585"><ele>115.0</ele><time>2026-05-01T14:44:25.997Z</time></trkpt><trkpt lat="43.2197717" lon="2.2925783"><ele>115.0</ele><time>2026-05-01T14:44:26.999Z</time></trkpt><trkpt lat="43.21966" lon="2.2925717"><ele>115.0</ele><time>2026-05-01T14:44:27.999Z</time></trkpt><trkpt lat="43.2195367" lon="2.29256"><ele>115.0</ele><time>2026-05-01T14:44:28.999Z</time></trkpt><trkpt lat="43.2194083" lon="2.2925433"><ele>115.0</ele><time>2026-05-01T14:44:29.998Z</time></trkpt><trkpt lat="43.2192783" lon="2.2925283"><ele>115.0</ele><time>2026-05-01T14:44:30.997Z</time></trkpt><trkpt lat="43.219145" lon="2.292515"><ele>115.0</ele><time>2026-05-01T14:44:31.996Z</time></trkpt><trkpt lat="43.21901" lon="2.2924983"><ele>115.0</ele><time>2026-05-01T14:44:32.997Z</time></trkpt><trkpt lat="43.2188733" lon="2.29248"><ele>116.0</ele><time>2026-05-01T14:44:33.999Z</time></trkpt><trkpt lat="43.2187333" lon="2.2924633"><ele>117.0</ele><time>2026-05-01T14:44:34.999Z</time></trkpt><trkpt lat="43.21859" lon="2.2924483"><ele>118.0</ele><time>2026-05-01T14:44:35.998Z</time></trkpt><trkpt lat="43.2184467" lon="2.2924333"><ele>119.0</ele><time>2026-05-01T14:44:36.997Z</time></trkpt><trkpt lat="43.21831" lon="2.29242"><ele>119.0</ele><time>2026-05-01T14:44:38Z</time></trkpt><trkpt lat="43.21818" lon="2.292405"><ele>119.0</ele><time>2026-05-01T14:44:38.998Z</time></trkpt><trkpt lat="43.2180733" lon="2.2923883"><ele>119.0</ele><time>2026-05-01T14:44:39.997Z</time></trkpt><trkpt lat="43.2179733" lon="2.29238"><ele>119.0</ele><time>2026-05-01T14:44:40.997Z</time></trkpt><trkpt lat="43.2178833" lon="2.2923617"><ele>119.0</ele><time>2026-05-01T14:44:41.997Z</time></trkpt><trkpt lat="43.2178017" lon="2.2923283"><ele>119.0</ele><time>2026-05-01T14:44:42.996Z</time></trkpt><trkpt lat="43.217735" lon="2.2922467"><ele>119.0</ele><time>2026-05-01T14:44:43.997Z</time></trkpt><trkpt lat="43.2176933" lon="2.2921183"><ele>119.0</ele><time>2026-05-01T14:44:44.999Z</time></trkpt><trkpt lat="43.2176617" lon="2.29196"><ele>119.0</ele><time>2026-05-01T14:44:45.997Z</time></trkpt><trkpt lat="43.2176217" lon="2.29179"><ele>119.0</ele><time>2026-05-01T14:44:46.998Z</time></trkpt><trkpt lat="43.2175717" lon="2.2916183"><ele>119.0</ele><time>2026-05-01T14:44:47.997Z</time></trkpt><trkpt lat="43.2175233" lon="2.2914483"><ele>119.0</ele><time>2026-05-01T14:44:48.997Z</time></trkpt><trkpt lat="43.2174717" lon="2.2912717"><ele>119.0</ele><time>2026-05-01T14:44:50.002Z</time></trkpt><trkpt lat="43.2174233" lon="2.29108"><ele>119.0</ele><time>2026-05-01T14:44:50.997Z</time></trkpt><trkpt lat="43.2173733" lon="2.2908817"><ele>119.0</ele><time>2026-05-01T14:44:51.998Z</time></trkpt><trkpt lat="43.2173217" lon="2.2906867"><ele>119.0</ele><time>2026-05-01T14:44:52.997Z</time></trkpt><trkpt lat="43.21727" lon="2.2904917"><ele>119.0</ele><time>2026-05-01T14:44:53.998Z</time></trkpt><trkpt lat="43.2172183" lon="2.2903"><ele>119.0</ele><time>2026-05-01T14:44:54.998Z</time></trkpt><trkpt lat="43.2171683" lon="2.2901017"><ele>119.0</ele><time>2026-05-01T14:44:55.998Z</time></trkpt><trkpt lat="43.2171167" lon="2.2899033"><ele>119.0</ele><time>2026-05-01T14:44:56.998Z</time></trkpt><trkpt lat="43.2170617" lon="2.2897033"><ele>118.66666666666666</ele><time>2026-05-01T14:44:57.998Z</time></trkpt><trkpt lat="43.2170067" lon="2.2895033"><ele>118.33333333333334</ele><time>2026-05-01T14:44:58.997Z</time></trkpt><trkpt lat="43.2169483" lon="2.2893067"><ele>118.0</ele><time>2026-05-01T14:44:59.997Z</time></trkpt><trkpt lat="43.2169" lon="2.2891067"><ele>118.5</ele><time>2026-05-01T14:45:01.001Z</time></trkpt><trkpt lat="43.2168517" lon="2.2889117"><ele>119.0</ele><time>2026-05-01T14:45:02.001Z</time></trkpt><trkpt lat="43.2168" lon="2.2887283"><ele>119.5</ele><time>2026-05-01T14:45:02.997Z</time></trkpt><trkpt lat="43.2167533" lon="2.28856"><ele>120.0</ele><time>2026-05-01T14:45:04Z</time></trkpt><trkpt lat="43.2167167" lon="2.2884017"><ele>120.0</ele><time>2026-05-01T14:45:04.997Z</time></trkpt><trkpt lat="43.216685" lon="2.2882583"><ele>120.0</ele><time>2026-05-01T14:45:05.998Z</time></trkpt><trkpt lat="43.2166483" lon="2.288125"><ele>120.0</ele><time>2026-05-01T14:45:06.997Z</time></trkpt><trkpt lat="43.2166117" lon="2.288"><ele>120.0</ele><time>2026-05-01T14:45:07.999Z</time></trkpt><trkpt lat="43.2165817" lon="2.287885"><ele>120.0</ele><time>2026-05-01T14:45:08.998Z</time></trkpt><trkpt lat="43.2165417" lon="2.2877783"><ele>120.5</ele><time>2026-05-01T14:45:09.997Z</time></trkpt><trkpt lat="43.216505" lon="2.2876833"><ele>121.0</ele><time>2026-05-01T14:45:10.999Z</time></trkpt><trkpt lat="43.2164717" lon="2.2875883"><ele>121.5</ele><time>2026-05-01T14:45:11.997Z</time></trkpt><trkpt lat="43.2164517" lon="2.2874817"><ele>122.0</ele><time>2026-05-01T14:45:12.996Z</time></trkpt><trkpt lat="43.2164367" lon="2.28737"><ele>122.5</ele><time>2026-05-01T14:45:13.998Z</time></trkpt><trkpt lat="43.216415" lon="2.28726"><ele>123.0</ele><time>2026-05-01T14:45:14.997Z</time></trkpt><trkpt lat="43.2164" lon="2.2871533"><ele>123.4</ele><time>2026-05-01T14:45:15.996Z</time></trkpt><trkpt lat="43.216405" lon="2.2870517"><ele>123.80000000000001</ele><time>2026-05-01T14:45:16.997Z</time></trkpt><trkpt lat="43.2164683" lon="2.2869133"><ele>124.2</ele><time>2026-05-01T14:45:18.998Z</time></trkpt><trkpt lat="43.2165367" lon="2.2868733"><ele>124.6</ele><time>2026-05-01T14:45:19.997Z</time></trkpt><trkpt lat="43.2166517" lon="2.28687"><ele>125.0</ele><time>2026-05-01T14:45:20.997Z</time></trkpt><trkpt lat="43.2167783" lon="2.2868583"><ele>125.0</ele><time>2026-05-01T14:45:21.997Z</time></trkpt><trkpt lat="43.2169117" lon="2.2868517"><ele>125.0</ele><time>2026-05-01T14:45:22.998Z</time></trkpt><trkpt lat="43.217055" lon="2.28684"><ele>125.0</ele><time>2026-05-01T14:45:23.998Z</time></trkpt><trkpt lat="43.2171967" lon="2.2868267"><ele>125.0</ele><time>2026-05-01T14:45:24.997Z</time></trkpt><trkpt lat="43.217345" lon="2.286815"><ele>123.33333333333333</ele><time>2026-05-01T14:45:25.997Z</time></trkpt><trkpt lat="43.2175067" lon="2.2868067"><ele>121.66666666666666</ele><time>2026-05-01T14:45:26.997Z</time></trkpt><trkpt lat="43.2176667" lon="2.28679"><ele>120.0</ele><time>2026-05-01T14:45:27.998Z</time></trkpt><trkpt lat="43.2178333" lon="2.2867733"><ele>120.0</ele><time>2026-05-01T14:45:28.997Z</time></trkpt><trkpt lat="43.2180067" lon="2.2867517"><ele>120.0</ele><time>2026-05-01T14:45:29.998Z</time></trkpt><trkpt lat="43.2181783" lon="2.2867333"><ele>120.0</ele><time>2026-05-01T14:45:30.997Z</time></trkpt><trkpt lat="43.2183433" lon="2.2867133"><ele>119.0</ele><time>2026-05-01T14:45:31.997Z</time></trkpt><trkpt lat="43.218505" lon="2.286695"><ele>118.0</ele><time>2026-05-01T14:45:32.997Z</time></trkpt><trkpt lat="43.218665" lon="2.2866733"><ele>117.0</ele><time>2026-05-01T14:45:33.997Z</time></trkpt><trkpt lat="43.2188233" lon="2.2866567"><ele>117.0</ele><time>2026-05-01T14:45:34.998Z</time></trkpt><trkpt lat="43.2189783" lon="2.2866367"><ele>117.0</ele><time>2026-05-01T14:45:35.996Z</time></trkpt><trkpt lat="43.2191283" lon="2.2866167"><ele>117.0</ele><time>2026-05-01T14:45:37.001Z</time></trkpt><trkpt lat="43.2192767" lon="2.2866017"><ele>116.75</ele><time>2026-05-01T14:45:37.997Z</time></trkpt><trkpt lat="43.2194133" lon="2.2865883"><ele>116.5</ele><time>2026-05-01T14:45:38.998Z</time></trkpt><trkpt lat="43.2195417" lon="2.2865683"><ele>116.25</ele><time>2026-05-01T14:45:39.997Z</time></trkpt><trkpt lat="43.2196667" lon="2.2865533"><ele>116.0</ele><time>2026-05-01T14:45:40.997Z</time></trkpt><trkpt lat="43.2197867" lon="2.286545"><ele>116.0</ele><time>2026-05-01T14:45:41.999Z</time></trkpt><trkpt lat="43.2199017" lon="2.28653"><ele>116.0</ele><time>2026-05-01T14:45:42.999Z</time></trkpt><trkpt lat="43.2200167" lon="2.2865117"><ele>116.0</ele><time>2026-05-01T14:45:43.997Z</time></trkpt><trkpt lat="43.22013" lon="2.2864917"><ele>116.0</ele><time>2026-05-01T14:45:44.998Z</time></trkpt><trkpt lat="43.2202433" lon="2.2864767"><ele>116.0</ele><time>2026-05-01T14:45:45.999Z</time></trkpt><trkpt lat="43.2203567" lon="2.2864633"><ele>116.0</ele><time>2026-05-01T14:45:46.997Z</time></trkpt><trkpt lat="43.2204633" lon="2.2864533"><ele>116.0</ele><time>2026-05-01T14:45:47.997Z</time></trkpt><trkpt lat="43.220555" lon="2.2864433"><ele>116.0</ele><time>2026-05-01T14:45:48.996Z</time></trkpt><trkpt lat="43.22064" lon="2.2864217"><ele>116.0</ele><time>2026-05-01T14:45:49.997Z</time></trkpt><trkpt lat="43.2207217" lon="2.2863867"><ele>116.0</ele><time>2026-05-01T14:45:50.999Z</time></trkpt><trkpt lat="43.22076" lon="2.2862917"><ele>116.0</ele><time>2026-05-01T14:45:51.996Z</time></trkpt><trkpt lat="43.2207867" lon="2.2861833"><ele>116.0</ele><time>2026-05-01T14:45:52.997Z</time></trkpt><trkpt lat="43.220805" lon="2.2860483"><ele>116.0</ele><time>2026-05-01T14:45:53.997Z</time></trkpt><trkpt lat="43.2208267" lon="2.2859017"><ele>116.0</ele><time>2026-05-01T14:45:54.997Z</time></trkpt><trkpt lat="43.2208533" lon="2.28575"><ele>116.5</ele><time>2026-05-01T14:45:55.998Z</time></trkpt><trkpt lat="43.2208783" lon="2.2855817"><ele>117.0</ele><time>2026-05-01T14:45:57Z</time></trkpt><trkpt lat="43.2209017" lon="2.2854083"><ele>117.5</ele><time>2026-05-01T14:45:57.997Z</time></trkpt><trkpt lat="43.2209283" lon="2.2852367"><ele>118.0</ele><time>2026-05-01T14:45:58.998Z</time></trkpt><trkpt lat="43.2209533" lon="2.2850633"><ele>118.0</ele><time>2026-05-01T14:45:59.997Z</time></trkpt><trkpt lat="43.22098" lon="2.2848867"><ele>118.0</ele><time>2026-05-01T14:46:00.997Z</time></trkpt><trkpt lat="43.2210033" lon="2.284705"><ele>118.0</ele><time>2026-05-01T14:46:01.999Z</time></trkpt><trkpt lat="43.2210267" lon="2.284525"><ele>118.0</ele><time>2026-05-01T14:46:03.006Z</time></trkpt><trkpt lat="43.2210467" lon="2.284335"><ele>118.5</ele><time>2026-05-01T14:46:03.998Z</time></trkpt><trkpt lat="43.2210683" lon="2.28414"><ele>119.0</ele><time>2026-05-01T14:46:04.997Z</time></trkpt><trkpt lat="43.2210917" lon="2.283945"><ele>119.5</ele><time>2026-05-01T14:46:06Z</time></trkpt><trkpt lat="43.2211067" lon="2.283735"><ele>120.0</ele><time>2026-05-01T14:46:07.001Z</time></trkpt><trkpt lat="43.2211183" lon="2.2835417"><ele>120.0</ele><time>2026-05-01T14:46:08Z</time></trkpt><trkpt lat="43.2211333" lon="2.2833517"><ele>120.0</ele><time>2026-05-01T14:46:08.997Z</time></trkpt><trkpt lat="43.2211517" lon="2.2831683"><ele>120.0</ele><time>2026-05-01T14:46:09.997Z</time></trkpt><trkpt lat="43.2211767" lon="2.2829817"><ele>120.0</ele><time>2026-05-01T14:46:10.998Z</time></trkpt><trkpt lat="43.2212133" lon="2.2827917"><ele>120.0</ele><time>2026-05-01T14:46:11.999Z</time></trkpt><trkpt lat="43.221265" lon="2.2826"><ele>120.0</ele><time>2026-05-01T14:46:12.998Z</time></trkpt><trkpt lat="43.2213267" lon="2.2824117"><ele>120.0</ele><time>2026-05-01T14:46:13.997Z</time></trkpt><trkpt lat="43.22139" lon="2.282225"><ele>120.0</ele><time>2026-05-01T14:46:14.997Z</time></trkpt><trkpt lat="43.221435" lon="2.28205"><ele>120.0</ele><time>2026-05-01T14:46:15.998Z</time></trkpt><trkpt lat="43.2214683" lon="2.2818817"><ele>120.0</ele><time>2026-05-01T14:46:16.999Z</time></trkpt><trkpt lat="43.2214867" lon="2.281705"><ele>120.0</ele><time>2026-05-01T14:46:17.997Z</time></trkpt><trkpt lat="43.2214833" lon="2.2815217"><ele>120.0</ele><time>2026-05-01T14:46:19Z</time></trkpt><trkpt lat="43.2214717" lon="2.2813233"><ele>120.33333333333334</ele><time>2026-05-01T14:46:19.998Z</time></trkpt><trkpt lat="43.2214617" lon="2.2811233"><ele>120.66666666666667</ele><time>2026-05-01T14:46:20.998Z</time></trkpt><trkpt lat="43.2214567" lon="2.280915"><ele>121.0</ele><time>2026-05-01T14:46:21.999Z</time></trkpt><trkpt lat="43.2214767" lon="2.2807"><ele>120.66666666666667</ele><time>2026-05-01T14:46:22.998Z</time></trkpt><trkpt lat="43.22152" lon="2.2804817"><ele>120.33333333333334</ele><time>2026-05-01T14:46:23.999Z</time></trkpt><trkpt lat="43.2215733" lon="2.2802583"><ele>120.0</ele><time>2026-05-01T14:46:24.997Z</time></trkpt><trkpt lat="43.22163" lon="2.280025"><ele>120.0</ele><time>2026-05-01T14:46:25.997Z</time></trkpt><trkpt lat="43.2216883" lon="2.2797967"><ele>120.0</ele><time>2026-05-01T14:46:26.998Z</time></trkpt><trkpt lat="43.2217467" lon="2.279565"><ele>120.0</ele><time>2026-05-01T14:46:27.999Z</time></trkpt><trkpt lat="43.2218033" lon="2.279325"><ele>120.0</ele><time>2026-05-01T14:46:29.005Z</time></trkpt><trkpt lat="43.2218617" lon="2.279085"><ele>120.0</ele><time>2026-05-01T14:46:29.998Z</time></trkpt><trkpt lat="43.22192" lon="2.278845"><ele>120.0</ele><time>2026-05-01T14:46:30.996Z</time></trkpt><trkpt lat="43.2219783" lon="2.2786033"><ele>120.33333333333334</ele><time>2026-05-01T14:46:31.998Z</time></trkpt><trkpt lat="43.2220383" lon="2.2783567"><ele>120.66666666666667</ele><time>2026-05-01T14:46:32.998Z</time></trkpt><trkpt lat="43.2220983" lon="2.2781133"><ele>121.0</ele><time>2026-05-01T14:46:33.998Z</time></trkpt><trkpt lat="43.2221583" lon="2.27787"><ele>121.66666666666667</ele><time>2026-05-01T14:46:35Z</time></trkpt><trkpt lat="43.2222183" lon="2.2776233"><ele>122.33333333333334</ele><time>2026-05-01T14:46:35.999Z</time></trkpt><trkpt lat="43.2222783" lon="2.2773733"><ele>123.0</ele><time>2026-05-01T14:46:36.999Z</time></trkpt><trkpt lat="43.2223333" lon="2.277125"><ele>123.0</ele><time>2026-05-01T14:46:37.998Z</time></trkpt><trkpt lat="43.2223833" lon="2.2768733"><ele>123.0</ele><time>2026-05-01T14:46:38.999Z</time></trkpt><trkpt lat="43.2224317" lon="2.276625"><ele>123.0</ele><time>2026-05-01T14:46:39.998Z</time></trkpt><trkpt lat="43.22248" lon="2.27638"><ele>124.0</ele><time>2026-05-01T14:46:40.998Z</time></trkpt><trkpt lat="43.2225267" lon="2.27615"><ele>125.0</ele><time>2026-05-01T14:46:41.998Z</time></trkpt><trkpt lat="43.2225733" lon="2.2759267"><ele>126.0</ele><time>2026-05-01T14:46:42.997Z</time></trkpt><trkpt lat="43.22262" lon="2.2757"><ele>126.33333333333334</ele><time>2026-05-01T14:46:43.998Z</time></trkpt><trkpt lat="43.2226667" lon="2.27547"><ele>126.66666666666667</ele><time>2026-05-01T14:46:44.997Z</time></trkpt><trkpt lat="43.2227133" lon="2.2752383"><ele>127.0</ele><time>2026-05-01T14:46:45.999Z</time></trkpt><trkpt lat="43.22276" lon="2.275005"><ele>127.66666666666667</ele><time>2026-05-01T14:46:46.999Z</time></trkpt><trkpt lat="43.2228083" lon="2.2747667"><ele>128.33333333333334</ele><time>2026-05-01T14:46:47.998Z</time></trkpt><trkpt lat="43.222855" lon="2.2745283"><ele>129.0</ele><time>2026-05-01T14:46:48.999Z</time></trkpt><trkpt lat="43.2229" lon="2.2743033"><ele>129.0</ele><time>2026-05-01T14:46:49.999Z</time></trkpt><trkpt lat="43.2229433" lon="2.2740917"><ele>129.0</ele><time>2026-05-01T14:46:51Z</time></trkpt><trkpt lat="43.222985" lon="2.27389"><ele>129.0</ele><time>2026-05-01T14:46:52Z</time></trkpt><trkpt lat="43.2230283" lon="2.2736933"><ele>130.33333333333334</ele><time>2026-05-01T14:46:52.997Z</time></trkpt><trkpt lat="43.2230667" lon="2.273495"><ele>131.66666666666669</ele><time>2026-05-01T14:46:53.998Z</time></trkpt><trkpt lat="43.223095" lon="2.2732883"><ele>133.0</ele><time>2026-05-01T14:46:54.997Z</time></trkpt><trkpt lat="43.2231133" lon="2.2730733"><ele>134.33333333333334</ele><time>2026-05-01T14:46:55.998Z</time></trkpt><trkpt lat="43.2231183" lon="2.27285"><ele>135.66666666666666</ele><time>2026-05-01T14:46:56.998Z</time></trkpt><trkpt lat="43.2231217" lon="2.2726217"><ele>137.0</ele><time>2026-05-01T14:46:57.998Z</time></trkpt><trkpt lat="43.2231267" lon="2.2723933"><ele>137.33333333333331</ele><time>2026-05-01T14:46:58.997Z</time></trkpt><trkpt lat="43.2231267" lon="2.272165"><ele>137.66666666666666</ele><time>2026-05-01T14:46:59.997Z</time></trkpt><trkpt lat="43.2231317" lon="2.2719317"><ele>138.0</ele><time>2026-05-01T14:47:00.999Z</time></trkpt><trkpt lat="43.2231317" lon="2.2717067"><ele>138.0</ele><time>2026-05-01T14:47:01.999Z</time></trkpt><trkpt lat="43.2231283" lon="2.2714917"><ele>138.0</ele><time>2026-05-01T14:47:02.999Z</time></trkpt><trkpt lat="43.22312" lon="2.27128"><ele>138.0</ele><time>2026-05-01T14:47:03.999Z</time></trkpt><trkpt lat="43.2231033" lon="2.271075"><ele>137.66666666666666</ele><time>2026-05-01T14:47:04.998Z</time></trkpt><trkpt lat="43.223075" lon="2.27087"><ele>137.33333333333331</ele><time>2026-05-01T14:47:05.998Z</time></trkpt><trkpt lat="43.2230317" lon="2.2706617"><ele>137.0</ele><time>2026-05-01T14:47:06.999Z</time></trkpt><trkpt lat="43.2229817" lon="2.2704567"><ele>137.0</ele><time>2026-05-01T14:47:08.002Z</time></trkpt><trkpt lat="43.22293" lon="2.27026"><ele>137.0</ele><time>2026-05-01T14:47:08.999Z</time></trkpt><trkpt lat="43.2228833" lon="2.270075"><ele>137.0</ele><time>2026-05-01T14:47:09.997Z</time></trkpt><trkpt lat="43.2228467" lon="2.2698983"><ele>137.0</ele><time>2026-05-01T14:47:11Z</time></trkpt><trkpt lat="43.2228317" lon="2.2697233"><ele>137.25</ele><time>2026-05-01T14:47:12.001Z</time></trkpt><trkpt lat="43.2228567" lon="2.269545"><ele>137.5</ele><time>2026-05-01T14:47:12.999Z</time></trkpt><trkpt lat="43.2229167" lon="2.26937"><ele>137.75</ele><time>2026-05-01T14:47:13.998Z</time></trkpt><trkpt lat="43.2229833" lon="2.26919"><ele>138.0</ele><time>2026-05-01T14:47:15Z</time></trkpt><trkpt lat="43.22303" lon="2.2690017"><ele>138.0</ele><time>2026-05-01T14:47:16.001Z</time></trkpt><trkpt lat="43.2230583" lon="2.2687983"><ele>138.0</ele><time>2026-05-01T14:47:16.999Z</time></trkpt><trkpt lat="43.2230833" lon="2.268585"><ele>138.0</ele><time>2026-05-01T14:47:17.997Z</time></trkpt><trkpt lat="43.2231117" lon="2.2683617"><ele>138.0</ele><time>2026-05-01T14:47:18.997Z</time></trkpt><trkpt lat="43.22314" lon="2.26813"><ele>138.0</ele><time>2026-05-01T14:47:19.998Z</time></trkpt><trkpt lat="43.2231783" lon="2.2678933"><ele>138.0</ele><time>2026-05-01T14:47:20.999Z</time></trkpt><trkpt lat="43.2232183" lon="2.2676533"><ele>136.66666666666666</ele><time>2026-05-01T14:47:21.999Z</time></trkpt><trkpt lat="43.2232633" lon="2.2674133"><ele>135.33333333333331</ele><time>2026-05-01T14:47:23.003Z</time></trkpt><trkpt lat="43.2233083" lon="2.2671717"><ele>134.0</ele><time>2026-05-01T14:47:23.998Z</time></trkpt><trkpt lat="43.2233517" lon="2.2669317"><ele>134.0</ele><time>2026-05-01T14:47:24.998Z</time></trkpt><trkpt lat="43.22339" lon="2.2666917"><ele>134.0</ele><time>2026-05-01T14:47:25.999Z</time></trkpt><trkpt lat="43.223415" lon="2.2664433"><ele>134.0</ele><time>2026-05-01T14:47:26.999Z</time></trkpt><trkpt lat="43.2234317" lon="2.2661933"><ele>134.33333333333331</ele><time>2026-05-01T14:47:28.001Z</time></trkpt><trkpt lat="43.2234583" lon="2.2659417"><ele>134.66666666666666</ele><time>2026-05-01T14:47:28.999Z</time></trkpt><trkpt lat="43.2234933" lon="2.2656917"><ele>135.0</ele><time>2026-05-01T14:47:29.999Z</time></trkpt><trkpt lat="43.22353" lon="2.2654433"><ele>135.33333333333334</ele><time>2026-05-01T14:47:30.998Z</time></trkpt><trkpt lat="43.2235617" lon="2.2652083"><ele>135.66666666666669</ele><time>2026-05-01T14:47:31.997Z</time></trkpt><trkpt lat="43.2235833" lon="2.264985"><ele>136.0</ele><time>2026-05-01T14:47:32.999Z</time></trkpt><trkpt lat="43.2235833" lon="2.2647617"><ele>137.33333333333334</ele><time>2026-05-01T14:47:33.999Z</time></trkpt><trkpt lat="43.2235683" lon="2.26453"><ele>138.66666666666666</ele><time>2026-05-01T14:47:34.998Z</time></trkpt><trkpt lat="43.223545" lon="2.2643"><ele>140.0</ele><time>2026-05-01T14:47:35.997Z</time></trkpt><trkpt lat="43.2235183" lon="2.264075"><ele>140.75</ele><time>2026-05-01T14:47:36.998Z</time></trkpt><trkpt lat="43.223495" lon="2.2638667"><ele>141.5</ele><time>2026-05-01T14:47:37.999Z</time></trkpt><trkpt lat="43.223475" lon="2.263675"><ele>142.25</ele><time>2026-05-01T14:47:39.001Z</time></trkpt><trkpt lat="43.2234567" lon="2.2635"><ele>143.0</ele><time>2026-05-01T14:47:39.999Z</time></trkpt><trkpt lat="43.2234417" lon="2.2633283"><ele>143.0</ele><time>2026-05-01T14:47:40.997Z</time></trkpt><trkpt lat="43.22343" lon="2.26316"><ele>143.0</ele><time>2026-05-01T14:47:41.998Z</time></trkpt><trkpt lat="43.2234267" lon="2.262995"><ele>143.0</ele><time>2026-05-01T14:47:43Z</time></trkpt><trkpt lat="43.223425" lon="2.2628333"><ele>143.0</ele><time>2026-05-01T14:47:43.998Z</time></trkpt><trkpt lat="43.2234183" lon="2.262665"><ele>143.75</ele><time>2026-05-01T14:47:44.999Z</time></trkpt><trkpt lat="43.2234067" lon="2.262495"><ele>144.5</ele><time>2026-05-01T14:47:45.999Z</time></trkpt><trkpt lat="43.2234" lon="2.262325"><ele>145.25</ele><time>2026-05-01T14:47:46.998Z</time></trkpt><trkpt lat="43.22339" lon="2.2621533"><ele>146.0</ele><time>2026-05-01T14:47:47.997Z</time></trkpt><trkpt lat="43.22338" lon="2.2619933"><ele>147.16666666666666</ele><time>2026-05-01T14:47:48.999Z</time></trkpt><trkpt lat="43.2233783" lon="2.2618567"><ele>148.33333333333331</ele><time>2026-05-01T14:47:49.997Z</time></trkpt><trkpt lat="43.2233833" lon="2.26173"><ele>149.5</ele><time>2026-05-01T14:47:51.004Z</time></trkpt><trkpt lat="43.22339" lon="2.2616067"><ele>150.66666666666666</ele><time>2026-05-01T14:47:51.999Z</time></trkpt><trkpt lat="43.2233967" lon="2.261495"><ele>151.83333333333334</ele><time>2026-05-01T14:47:52.997Z</time></trkpt><trkpt lat="43.223405" lon="2.2614"><ele>153.0</ele><time>2026-05-01T14:47:53.997Z</time></trkpt><trkpt lat="43.2233933" lon="2.2613083"><ele>153.16666666666666</ele><time>2026-05-01T14:47:55.997Z</time></trkpt><trkpt lat="43.2233217" lon="2.2612983"><ele>153.33333333333334</ele><time>2026-05-01T14:47:57.997Z</time></trkpt><trkpt lat="43.2232283" lon="2.2612933"><ele>153.5</ele><time>2026-05-01T14:47:59.998Z</time></trkpt><trkpt lat="43.2231633" lon="2.2613133"><ele>153.66666666666669</ele><time>2026-05-01T14:48:02.998Z</time></trkpt><trkpt lat="43.2232383" lon="2.2612483"><ele>153.83333333333334</ele><time>2026-05-01T15:23:37.999Z</time></trkpt><trkpt lat="43.2233183" lon="2.2612617"><ele>154.0</ele><time>2026-05-01T15:23:40.001Z</time></trkpt><trkpt lat="43.2233933" lon="2.2611817"><ele>154.0</ele><time>2026-05-01T15:23:42.998Z</time></trkpt><trkpt lat="43.22341" lon="2.2610233"><ele>154.0</ele><time>2026-05-01T15:23:44.998Z</time></trkpt><trkpt lat="43.2234317" lon="2.26086"><ele>154.0</ele><time>2026-05-01T15:23:46.997Z</time></trkpt><trkpt lat="43.2234567" lon="2.2607767"><ele>154.0</ele><time>2026-05-01T15:23:47.997Z</time></trkpt><trkpt lat="43.2234917" lon="2.2606817"><ele>154.0</ele><time>2026-05-01T15:23:48.998Z</time></trkpt><trkpt lat="43.2235333" lon="2.2605783"><ele>154.2</ele><time>2026-05-01T15:23:49.998Z</time></trkpt><trkpt lat="43.2235833" lon="2.2604783"><ele>154.4</ele><time>2026-05-01T15:23:51.005Z</time></trkpt><trkpt lat="43.2236367" lon="2.260375"><ele>154.6</ele><time>2026-05-01T15:23:51.998Z</time></trkpt><trkpt lat="43.22369" lon="2.2602733"><ele>154.8</ele><time>2026-05-01T15:23:52.998Z</time></trkpt><trkpt lat="43.2237383" lon="2.26015"><ele>155.0</ele><time>2026-05-01T15:23:53.999Z</time></trkpt><trkpt lat="43.2237883" lon="2.260005"><ele>155.0</ele><time>2026-05-01T15:23:55.001Z</time></trkpt><trkpt lat="43.2238383" lon="2.25985"><ele>155.0</ele><time>2026-05-01T15:23:56Z</time></trkpt><trkpt lat="43.2238817" lon="2.2597033"><ele>155.0</ele><time>2026-05-01T15:23:56.997Z</time></trkpt><trkpt lat="43.2239083" lon="2.25955"><ele>155.0</ele><time>2026-05-01T15:23:57.997Z</time></trkpt><trkpt lat="43.2239333" lon="2.25939"><ele>155.0</ele><time>2026-05-01T15:23:58.997Z</time></trkpt><trkpt lat="43.2239617" lon="2.2592217"><ele>155.0</ele><time>2026-05-01T15:23:59.997Z</time></trkpt><trkpt lat="43.2239833" lon="2.25905"><ele>155.0</ele><time>2026-05-01T15:24:00.998Z</time></trkpt><trkpt lat="43.223995" lon="2.2588883"><ele>155.0</ele><time>2026-05-01T15:24:01.997Z</time></trkpt><trkpt lat="43.2240033" lon="2.258745"><ele>155.16666666666666</ele><time>2026-05-01T15:24:02.998Z</time></trkpt><trkpt lat="43.22401" lon="2.2586167"><ele>155.33333333333331</ele><time>2026-05-01T15:24:03.999Z</time></trkpt><trkpt lat="43.2240133" lon="2.258505"><ele>155.5</ele><time>2026-05-01T15:24:04.999Z</time></trkpt><trkpt lat="43.2240167" lon="2.258405"><ele>155.66666666666666</ele><time>2026-05-01T15:24:06Z</time></trkpt><trkpt lat="43.2240217" lon="2.2583083"><ele>155.83333333333334</ele><time>2026-05-01T15:24:06.999Z</time></trkpt><trkpt lat="43.2240367" lon="2.2582133"><ele>156.0</ele><time>2026-05-01T15:24:07.998Z</time></trkpt><trkpt lat="43.2240517" lon="2.2581167"><ele>156.0</ele><time>2026-05-01T15:24:09Z</time></trkpt><trkpt lat="43.22406" lon="2.2580183"><ele>156.0</ele><time>2026-05-01T15:24:09.998Z</time></trkpt><trkpt lat="43.22407" lon="2.2579033"><ele>156.0</ele><time>2026-05-01T15:24:10.998Z</time></trkpt><trkpt lat="43.2240917" lon="2.2577817"><ele>156.0</ele><time>2026-05-01T15:24:11.999Z</time></trkpt><trkpt lat="43.2241233" lon="2.2576633"><ele>156.0</ele><time>2026-05-01T15:24:12.999Z</time></trkpt><trkpt lat="43.2241583" lon="2.2575433"><ele>156.0</ele><time>2026-05-01T15:24:13.999Z</time></trkpt><trkpt lat="43.224185" lon="2.2574083"><ele>156.0</ele><time>2026-05-01T15:24:14.997Z</time></trkpt><trkpt lat="43.224195" lon="2.25726"><ele>156.0</ele><time>2026-05-01T15:24:15.997Z</time></trkpt><trkpt lat="43.224195" lon="2.257105"><ele>156.0</ele><time>2026-05-01T15:24:16.999Z</time></trkpt><trkpt lat="43.2241917" lon="2.2569533"><ele>156.0</ele><time>2026-05-01T15:24:17.997Z</time></trkpt><trkpt lat="43.224185" lon="2.2568167"><ele>156.0</ele><time>2026-05-01T15:24:19.005Z</time></trkpt><trkpt lat="43.224175" lon="2.2567017"><ele>156.0</ele><time>2026-05-01T15:24:19.998Z</time></trkpt><trkpt lat="43.2241717" lon="2.256605"><ele>156.0</ele><time>2026-05-01T15:24:20.997Z</time></trkpt><trkpt lat="43.2241667" lon="2.2564617"><ele>156.0</ele><time>2026-05-01T15:24:22.999Z</time></trkpt><trkpt lat="43.2241767" lon="2.25635"><ele>156.0</ele><time>2026-05-01T15:24:25.997Z</time></trkpt><trkpt lat="43.2241817" lon="2.25626"><ele>156.0</ele><time>2026-05-01T15:24:28.999Z</time></trkpt><trkpt lat="43.2242183" lon="2.2561283"><ele>156.0</ele><time>2026-05-01T15:24:30.997Z</time></trkpt><trkpt lat="43.2242733" lon="2.25605"><ele>156.0</ele><time>2026-05-01T15:24:31.998Z</time></trkpt><trkpt lat="43.2243483" lon="2.25596"><ele>156.0</ele><time>2026-05-01T15:24:32.997Z</time></trkpt><trkpt lat="43.224425" lon="2.255875"><ele>156.0</ele><time>2026-05-01T15:24:33.998Z</time></trkpt><trkpt lat="43.224495" lon="2.255785"><ele>156.0</ele><time>2026-05-01T15:24:34.998Z</time></trkpt><trkpt lat="43.22456" lon="2.255695"><ele>156.0</ele><time>2026-05-01T15:24:35.998Z</time></trkpt><trkpt lat="43.22462" lon="2.2556067"><ele>155.33333333333334</ele><time>2026-05-01T15:24:37.002Z</time></trkpt><trkpt lat="43.2246667" lon="2.2555217"><ele>154.66666666666666</ele><time>2026-05-01T15:24:37.998Z</time></trkpt><trkpt lat="43.2247133" lon="2.255455"><ele>154.0</ele><time>2026-05-01T15:24:38.998Z</time></trkpt><trkpt lat="43.2248083" lon="2.2553933"><ele>153.33333333333331</ele><time>2026-05-01T15:24:40.999Z</time></trkpt><trkpt lat="43.2249117" lon="2.2554517"><ele>152.66666666666666</ele><time>2026-05-01T15:24:42.998Z</time></trkpt><trkpt lat="43.2249733" lon="2.25551"><ele>152.0</ele><time>2026-05-01T15:24:43.999Z</time></trkpt><trkpt lat="43.2250333" lon="2.2555417"><ele>152.0</ele><time>2026-05-01T15:24:44.999Z</time></trkpt><trkpt lat="43.2251083" lon="2.2555317"><ele>152.0</ele><time>2026-05-01T15:24:46.999Z</time></trkpt><trkpt lat="43.2251717" lon="2.25542"><ele>152.0</ele><time>2026-05-01T15:24:48.999Z</time></trkpt><trkpt lat="43.2252017" lon="2.2553417"><ele>152.0</ele><time>2026-05-01T15:24:49.999Z</time></trkpt><trkpt lat="43.2252133" lon="2.25525"><ele>152.0</ele><time>2026-05-01T15:24:51.001Z</time></trkpt><trkpt lat="43.22521" lon="2.25513"><ele>152.0</ele><time>2026-05-01T15:24:52.001Z</time></trkpt><trkpt lat="43.2252183" lon="2.25501"><ele>152.0</ele><time>2026-05-01T15:24:52.999Z</time></trkpt><trkpt lat="43.22523" lon="2.2548933"><ele>152.0</ele><time>2026-05-01T15:24:53.999Z</time></trkpt><trkpt lat="43.2252417" lon="2.2547783"><ele>152.0</ele><time>2026-05-01T15:24:55Z</time></trkpt><trkpt lat="43.2252483" lon="2.254675"><ele>152.0</ele><time>2026-05-01T15:24:55.998Z</time></trkpt><trkpt lat="43.2252533" lon="2.2545817"><ele>152.0</ele><time>2026-05-01T15:24:57Z</time></trkpt><trkpt lat="43.2252533" lon="2.2544933"><ele>152.0</ele><time>2026-05-01T15:24:57.999Z</time></trkpt><trkpt lat="43.22523" lon="2.254365"><ele>151.0</ele><time>2026-05-01T15:24:59.998Z</time></trkpt><trkpt lat="43.22518" lon="2.2542667"><ele>150.0</ele><time>2026-05-01T15:25:01.999Z</time></trkpt><trkpt lat="43.22509" lon="2.2542483"><ele>149.0</ele><time>2026-05-01T15:25:04Z</time></trkpt><trkpt lat="43.2250117" lon="2.2542167"><ele>148.0</ele><time>2026-05-01T15:25:05.998Z</time></trkpt><trkpt lat="43.224945" lon="2.25415"><ele>147.0</ele><time>2026-05-01T15:25:08Z</time></trkpt><trkpt lat="43.2249817" lon="2.25406"><ele>146.0</ele><time>2026-05-01T15:25:10.002Z</time></trkpt><trkpt lat="43.225045" lon="2.2539633"><ele>144.6</ele><time>2026-05-01T15:25:10.998Z</time></trkpt><trkpt lat="43.2250967" lon="2.253875"><ele>143.2</ele><time>2026-05-01T15:25:11.998Z</time></trkpt><trkpt lat="43.22515" lon="2.2537817"><ele>141.8</ele><time>2026-05-01T15:25:12.997Z</time></trkpt><trkpt lat="43.2252117" lon="2.2536683"><ele>140.4</ele><time>2026-05-01T15:25:13.998Z</time></trkpt><trkpt lat="43.225275" lon="2.2535417"><ele>139.0</ele><time>2026-05-01T15:25:14.998Z</time></trkpt><trkpt lat="43.2253467" lon="2.2534033"><ele>139.0</ele><time>2026-05-01T15:25:15.997Z</time></trkpt><trkpt lat="43.2254283" lon="2.25326"><ele>139.0</ele><time>2026-05-01T15:25:16.997Z</time></trkpt><trkpt lat="43.2255167" lon="2.2531317"><ele>139.0</ele><time>2026-05-01T15:25:17.999Z</time></trkpt><trkpt lat="43.22561" lon="2.2529833"><ele>139.0</ele><time>2026-05-01T15:25:18.997Z</time></trkpt><trkpt lat="43.22569" lon="2.25281"><ele>138.25</ele><time>2026-05-01T15:25:20Z</time></trkpt><trkpt lat="43.225755" lon="2.2526267"><ele>137.5</ele><time>2026-05-01T15:25:20.998Z</time></trkpt><trkpt lat="43.2258067" lon="2.2524417"><ele>136.75</ele><time>2026-05-01T15:25:21.998Z</time></trkpt><trkpt lat="43.2258433" lon="2.2522517"><ele>136.0</ele><time>2026-05-01T15:25:22.998Z</time></trkpt><trkpt lat="43.225875" lon="2.25205"><ele>135.25</ele><time>2026-05-01T15:25:23.997Z</time></trkpt><trkpt lat="43.225905" lon="2.2518467"><ele>134.5</ele><time>2026-05-01T15:25:24.998Z</time></trkpt><trkpt lat="43.225935" lon="2.25165"><ele>133.75</ele><time>2026-05-01T15:25:25.997Z</time></trkpt><trkpt lat="43.225965" lon="2.25147"><ele>133.0</ele><time>2026-05-01T15:25:26.997Z</time></trkpt><trkpt lat="43.2259933" lon="2.2513033"><ele>132.8</ele><time>2026-05-01T15:25:27.998Z</time></trkpt><trkpt lat="43.2260183" lon="2.25115"><ele>132.60000000000002</ele><time>2026-05-01T15:25:28.998Z</time></trkpt><trkpt lat="43.2260383" lon="2.2510117"><ele>132.39999999999998</ele><time>2026-05-01T15:25:30Z</time></trkpt><trkpt lat="43.2260433" lon="2.25089"><ele>132.2</ele><time>2026-05-01T15:25:31Z</time></trkpt><trkpt lat="43.2260333" lon="2.2507717"><ele>132.0</ele><time>2026-05-01T15:25:31.999Z</time></trkpt><trkpt lat="43.226005" lon="2.250665"><ele>132.0</ele><time>2026-05-01T15:25:32.998Z</time></trkpt><trkpt lat="43.2259583" lon="2.2505767"><ele>132.0</ele><time>2026-05-01T15:25:33.998Z</time></trkpt><trkpt lat="43.225905" lon="2.2504817"><ele>132.0</ele><time>2026-05-01T15:25:34.997Z</time></trkpt><trkpt lat="43.225855" lon="2.2503817"><ele>132.0</ele><time>2026-05-01T15:25:35.997Z</time></trkpt><trkpt lat="43.2258183" lon="2.25028"><ele>132.0</ele><time>2026-05-01T15:25:36.997Z</time></trkpt><trkpt lat="43.2257933" lon="2.2501667"><ele>132.0</ele><time>2026-05-01T15:25:37.998Z</time></trkpt><trkpt lat="43.2257817" lon="2.250045"><ele>132.0</ele><time>2026-05-01T15:25:38.999Z</time></trkpt><trkpt lat="43.2257767" lon="2.2499017"><ele>132.0</ele><time>2026-05-01T15:25:39.998Z</time></trkpt><trkpt lat="43.2257667" lon="2.2497433"><ele>132.0</ele><time>2026-05-01T15:25:40.997Z</time></trkpt><trkpt lat="43.22574" lon="2.249585"><ele>132.0</ele><time>2026-05-01T15:25:41.998Z</time></trkpt><trkpt lat="43.2256967" lon="2.2494267"><ele>131.75</ele><time>2026-05-01T15:25:42.998Z</time></trkpt><trkpt lat="43.2256433" lon="2.24927"><ele>131.5</ele><time>2026-05-01T15:25:43.999Z</time></trkpt><trkpt lat="43.2255833" lon="2.249125"><ele>131.25</ele><time>2026-05-01T15:25:45.001Z</time></trkpt><trkpt lat="43.22554" lon="2.2489683"><ele>131.0</ele><time>2026-05-01T15:25:45.999Z</time></trkpt><trkpt lat="43.2255267" lon="2.2488"><ele>130.75</ele><time>2026-05-01T15:25:46.998Z</time></trkpt><trkpt lat="43.2255467" lon="2.2486383"><ele>130.5</ele><time>2026-05-01T15:25:47.997Z</time></trkpt><trkpt lat="43.225605" lon="2.2484883"><ele>130.25</ele><time>2026-05-01T15:25:48.997Z</time></trkpt><trkpt lat="43.2256817" lon="2.2483383"><ele>130.0</ele><time>2026-05-01T15:25:49.998Z</time></trkpt><trkpt lat="43.2257633" lon="2.2481933"><ele>129.75</ele><time>2026-05-01T15:25:50.999Z</time></trkpt><trkpt lat="43.2258467" lon="2.24805"><ele>129.5</ele><time>2026-05-01T15:25:51.999Z</time></trkpt><trkpt lat="43.2259333" lon="2.2479"><ele>129.25</ele><time>2026-05-01T15:25:53.001Z</time></trkpt><trkpt lat="43.22602" lon="2.2477333"><ele>129.0</ele><time>2026-05-01T15:25:53.997Z</time></trkpt><trkpt lat="43.2260983" lon="2.2475517"><ele>129.0</ele><time>2026-05-01T15:25:55.002Z</time></trkpt><trkpt lat="43.2261633" lon="2.2473567"><ele>129.0</ele><time>2026-05-01T15:25:55.998Z</time></trkpt><trkpt lat="43.22622" lon="2.24715"><ele>129.0</ele><time>2026-05-01T15:25:56.997Z</time></trkpt><trkpt lat="43.226275" lon="2.24694"><ele>128.66666666666666</ele><time>2026-05-01T15:25:57.999Z</time></trkpt><trkpt lat="43.2263333" lon="2.2467233"><ele>128.33333333333331</ele><time>2026-05-01T15:25:58.999Z</time></trkpt><trkpt lat="43.2263933" lon="2.246505"><ele>128.0</ele><time>2026-05-01T15:26:00.002Z</time></trkpt><trkpt lat="43.2264533" lon="2.246275"><ele>127.33333333333333</ele><time>2026-05-01T15:26:01.001Z</time></trkpt><trkpt lat="43.2265117" lon="2.2460417"><ele>126.66666666666666</ele><time>2026-05-01T15:26:01.999Z</time></trkpt><trkpt lat="43.2265683" lon="2.2458033"><ele>126.0</ele><time>2026-05-01T15:26:02.999Z</time></trkpt><trkpt lat="43.2266233" lon="2.2455717"><ele>125.66666666666666</ele><time>2026-05-01T15:26:03.997Z</time></trkpt><trkpt lat="43.22667" lon="2.2453433"><ele>125.33333333333333</ele><time>2026-05-01T15:26:04.997Z</time></trkpt><trkpt lat="43.2267083" lon="2.2451083"><ele>125.0</ele><time>2026-05-01T15:26:05.998Z</time></trkpt><trkpt lat="43.226735" lon="2.2448617"><ele>124.66666666666666</ele><time>2026-05-01T15:26:07Z</time></trkpt><trkpt lat="43.226755" lon="2.2446183"><ele>124.33333333333334</ele><time>2026-05-01T15:26:07.998Z</time></trkpt><trkpt lat="43.2267733" lon="2.2443867"><ele>124.0</ele><time>2026-05-01T15:26:08.998Z</time></trkpt><trkpt lat="43.2267933" lon="2.2441667"><ele>124.0</ele><time>2026-05-01T15:26:10.001Z</time></trkpt><trkpt lat="43.2268083" lon="2.2439517"><ele>124.0</ele><time>2026-05-01T15:26:10.999Z</time></trkpt><trkpt lat="43.2268083" lon="2.2437533"><ele>124.0</ele><time>2026-05-01T15:26:12Z</time></trkpt><trkpt lat="43.2267917" lon="2.2435733"><ele>124.0</ele><time>2026-05-01T15:26:12.999Z</time></trkpt><trkpt lat="43.226745" lon="2.243415"><ele>124.0</ele><time>2026-05-01T15:26:13.997Z</time></trkpt><trkpt lat="43.2266733" lon="2.243275"><ele>124.0</ele><time>2026-05-01T15:26:14.997Z</time></trkpt><trkpt lat="43.2265967" lon="2.2431367"><ele>124.0</ele><time>2026-05-01T15:26:15.997Z</time></trkpt><trkpt lat="43.2265183" lon="2.2429967"><ele>124.0</ele><time>2026-05-01T15:26:16.997Z</time></trkpt><trkpt lat="43.2264467" lon="2.2428683"><ele>124.0</ele><time>2026-05-01T15:26:17.997Z</time></trkpt><trkpt lat="43.226395" lon="2.2427367"><ele>124.0</ele><time>2026-05-01T15:26:18.998Z</time></trkpt><trkpt lat="43.2263683" lon="2.242595"><ele>124.0</ele><time>2026-05-01T15:26:20Z</time></trkpt><trkpt lat="43.22637" lon="2.2424483"><ele>124.0</ele><time>2026-05-01T15:26:20.998Z</time></trkpt><trkpt lat="43.2264033" lon="2.2423117"><ele>124.0</ele><time>2026-05-01T15:26:21.998Z</time></trkpt><trkpt lat="43.2264467" lon="2.2421683"><ele>124.0</ele><time>2026-05-01T15:26:22.998Z</time></trkpt><trkpt lat="43.2264883" lon="2.242015"><ele>124.0</ele><time>2026-05-01T15:26:23.998Z</time></trkpt><trkpt lat="43.22653" lon="2.2418583"><ele>124.0</ele><time>2026-05-01T15:26:24.999Z</time></trkpt><trkpt lat="43.22657" lon="2.2417033"><ele>124.0</ele><time>2026-05-01T15:26:25.999Z</time></trkpt><trkpt lat="43.226605" lon="2.2415483"><ele>124.0</ele><time>2026-05-01T15:26:27Z</time></trkpt><trkpt lat="43.22664" lon="2.241385"><ele>124.0</ele><time>2026-05-01T15:26:27.999Z</time></trkpt><trkpt lat="43.226665" lon="2.2412083"><ele>124.0</ele><time>2026-05-01T15:26:28.998Z</time></trkpt><trkpt lat="43.226695" lon="2.2410217"><ele>124.0</ele><time>2026-05-01T15:26:30.002Z</time></trkpt><trkpt lat="43.2267233" lon="2.240825"><ele>123.66666666666667</ele><time>2026-05-01T15:26:30.999Z</time></trkpt><trkpt lat="43.226755" lon="2.2406183"><ele>123.33333333333334</ele><time>2026-05-01T15:26:32Z</time></trkpt><trkpt lat="43.226785" lon="2.2404117"><ele>123.0</ele><time>2026-05-01T15:26:33.002Z</time></trkpt><trkpt lat="43.2268117" lon="2.2402067"><ele>123.0</ele><time>2026-05-01T15:26:33.999Z</time></trkpt><trkpt lat="43.2268417" lon="2.239995"><ele>123.0</ele><time>2026-05-01T15:26:34.999Z</time></trkpt><trkpt lat="43.2268667" lon="2.239785"><ele>123.0</ele><time>2026-05-01T15:26:35.998Z</time></trkpt><trkpt lat="43.2268933" lon="2.2395683"><ele>123.66666666666666</ele><time>2026-05-01T15:26:37Z</time></trkpt><trkpt lat="43.2269267" lon="2.2393533"><ele>124.33333333333333</ele><time>2026-05-01T15:26:37.999Z</time></trkpt><trkpt lat="43.2269633" lon="2.239125"><ele>125.0</ele><time>2026-05-01T15:26:38.997Z</time></trkpt><trkpt lat="43.2269933" lon="2.2388967"><ele>126.0</ele><time>2026-05-01T15:26:39.997Z</time></trkpt><trkpt lat="43.2270083" lon="2.23867"><ele>127.0</ele><time>2026-05-01T15:26:40.997Z</time></trkpt><trkpt lat="43.2270083" lon="2.2384583"><ele>128.0</ele><time>2026-05-01T15:26:41.999Z</time></trkpt><trkpt lat="43.227005" lon="2.23826"><ele>129.25</ele><time>2026-05-01T15:26:42.998Z</time></trkpt><trkpt lat="43.2270033" lon="2.2380667"><ele>130.5</ele><time>2026-05-01T15:26:43.998Z</time></trkpt><trkpt lat="43.22701" lon="2.2378883"><ele>131.75</ele><time>2026-05-01T15:26:44.998Z</time></trkpt><trkpt lat="43.2270417" lon="2.23773"><ele>133.0</ele><time>2026-05-01T15:26:46Z</time></trkpt><trkpt lat="43.2270967" lon="2.2375817"><ele>133.0</ele><time>2026-05-01T15:26:46.998Z</time></trkpt><trkpt lat="43.2271767" lon="2.2374417"><ele>133.0</ele><time>2026-05-01T15:26:47.998Z</time></trkpt><trkpt lat="43.2272717" lon="2.2373067"><ele>133.0</ele><time>2026-05-01T15:26:48.997Z</time></trkpt><trkpt lat="43.2273767" lon="2.2371667"><ele>133.0</ele><time>2026-05-01T15:26:49.997Z</time></trkpt><trkpt lat="43.227475" lon="2.2370283"><ele>132.75</ele><time>2026-05-01T15:26:50.997Z</time></trkpt><trkpt lat="43.2275683" lon="2.23689"><ele>132.5</ele><time>2026-05-01T15:26:51.998Z</time></trkpt><trkpt lat="43.2276633" lon="2.2367367"><ele>132.25</ele><time>2026-05-01T15:26:52.997Z</time></trkpt><trkpt lat="43.2277533" lon="2.2365667"><ele>132.0</ele><time>2026-05-01T15:26:53.997Z</time></trkpt><trkpt lat="43.2278433" lon="2.23638"><ele>132.66666666666666</ele><time>2026-05-01T15:26:55Z</time></trkpt><trkpt lat="43.2279267" lon="2.236185"><ele>133.33333333333331</ele><time>2026-05-01T15:26:55.997Z</time></trkpt><trkpt lat="43.228005" lon="2.235995"><ele>134.0</ele><time>2026-05-01T15:26:57.006Z</time></trkpt><trkpt lat="43.2280817" lon="2.2358133"><ele>132.25</ele><time>2026-05-01T15:26:57.997Z</time></trkpt><trkpt lat="43.2281583" lon="2.23564"><ele>130.5</ele><time>2026-05-01T15:26:58.997Z</time></trkpt><trkpt lat="43.228245" lon="2.23549"><ele>128.75</ele><time>2026-05-01T15:26:59.997Z</time></trkpt><trkpt lat="43.2283433" lon="2.2353817"><ele>127.0</ele><time>2026-05-01T15:27:00.997Z</time></trkpt><trkpt lat="43.2284567" lon="2.2353133"><ele>127.0</ele><time>2026-05-01T15:27:01.998Z</time></trkpt><trkpt lat="43.22858" lon="2.235275"><ele>127.0</ele><time>2026-05-01T15:27:02.999Z</time></trkpt><trkpt lat="43.2287083" lon="2.23524"><ele>127.0</ele><time>2026-05-01T15:27:03.998Z</time></trkpt><trkpt lat="43.2288417" lon="2.2351833"><ele>127.0</ele><time>2026-05-01T15:27:04.999Z</time></trkpt><trkpt lat="43.22897" lon="2.2350783"><ele>127.0</ele><time>2026-05-01T15:27:05.998Z</time></trkpt><trkpt lat="43.229085" lon="2.234945"><ele>127.0</ele><time>2026-05-01T15:27:06.998Z</time></trkpt><trkpt lat="43.229195" lon="2.2347867"><ele>127.0</ele><time>2026-05-01T15:27:07.998Z</time></trkpt><trkpt lat="43.229295" lon="2.23463"><ele>127.0</ele><time>2026-05-01T15:27:08.998Z</time></trkpt><trkpt lat="43.229395" lon="2.2344733"><ele>127.0</ele><time>2026-05-01T15:27:10.001Z</time></trkpt><trkpt lat="43.2294883" lon="2.2343083"><ele>127.0</ele><time>2026-05-01T15:27:10.998Z</time></trkpt><trkpt lat="43.2295833" lon="2.234135"><ele>127.33333333333334</ele><time>2026-05-01T15:27:11.998Z</time></trkpt><trkpt lat="43.2296733" lon="2.23396"><ele>127.66666666666666</ele><time>2026-05-01T15:27:12.998Z</time></trkpt><trkpt lat="43.2297617" lon="2.23379"><ele>128.0</ele><time>2026-05-01T15:27:13.997Z</time></trkpt><trkpt lat="43.2298567" lon="2.2336383"><ele>128.75</ele><time>2026-05-01T15:27:14.998Z</time></trkpt><trkpt lat="43.22997" lon="2.2334983"><ele>129.5</ele><time>2026-05-01T15:27:15.998Z</time></trkpt><trkpt lat="43.2300883" lon="2.233385"><ele>130.25</ele><time>2026-05-01T15:27:16.999Z</time></trkpt><trkpt lat="43.2302" lon="2.2332817"><ele>131.0</ele><time>2026-05-01T15:27:17.998Z</time></trkpt><trkpt lat="43.2302967" lon="2.2331633"><ele>130.75</ele><time>2026-05-01T15:27:19.002Z</time></trkpt><trkpt lat="43.2303883" lon="2.2330267"><ele>130.5</ele><time>2026-05-01T15:27:20Z</time></trkpt><trkpt lat="43.2304733" lon="2.2328733"><ele>130.25</ele><time>2026-05-01T15:27:20.999Z</time></trkpt><trkpt lat="43.2305517" lon="2.2327067"><ele>130.0</ele><time>2026-05-01T15:27:21.999Z</time></trkpt><trkpt lat="43.2306267" lon="2.2325383"><ele>130.0</ele><time>2026-05-01T15:27:22.999Z</time></trkpt><trkpt lat="43.2307033" lon="2.2323717"><ele>130.0</ele><time>2026-05-01T15:27:24.001Z</time></trkpt><trkpt lat="43.2307867" lon="2.2322"><ele>130.0</ele><time>2026-05-01T15:27:25.001Z</time></trkpt><trkpt lat="43.23086" lon="2.232045"><ele>130.0</ele><time>2026-05-01T15:27:26.002Z</time></trkpt><trkpt lat="43.230935" lon="2.2318917"><ele>129.75</ele><time>2026-05-01T15:27:26.999Z</time></trkpt><trkpt lat="43.2310017" lon="2.23174"><ele>129.5</ele><time>2026-05-01T15:27:28.004Z</time></trkpt><trkpt lat="43.23107" lon="2.2315967"><ele>129.25</ele><time>2026-05-01T15:27:28.999Z</time></trkpt><trkpt lat="43.2311267" lon="2.2314733"><ele>129.0</ele><time>2026-05-01T15:27:29.999Z</time></trkpt><trkpt lat="43.2311783" lon="2.2313617"><ele>128.5</ele><time>2026-05-01T15:27:31.007Z</time></trkpt><trkpt lat="43.2312283" lon="2.2312817"><ele>128.0</ele><time>2026-05-01T15:27:31.998Z</time></trkpt><trkpt lat="43.2312867" lon="2.2312167"><ele>127.5</ele><time>2026-05-01T15:27:33Z</time></trkpt><trkpt lat="43.23135" lon="2.2311883"><ele>127.0</ele><time>2026-05-01T15:27:34Z</time></trkpt><trkpt lat="43.231455" lon="2.2311967"><ele>126.5</ele><time>2026-05-01T15:27:35.998Z</time></trkpt><trkpt lat="43.2315317" lon="2.231235"><ele>126.0</ele><time>2026-05-01T15:27:37.998Z</time></trkpt><trkpt lat="43.2316233" lon="2.231265"><ele>126.0</ele><time>2026-05-01T15:27:39.999Z</time></trkpt><trkpt lat="43.2316933" lon="2.2312867"><ele>126.0</ele><time>2026-05-01T15:27:40.998Z</time></trkpt><trkpt lat="43.23177" lon="2.231315"><ele>126.0</ele><time>2026-05-01T15:27:41.998Z</time></trkpt><trkpt lat="43.23185" lon="2.231355"><ele>126.0</ele><time>2026-05-01T15:27:42.998Z</time></trkpt><trkpt lat="43.231925" lon="2.2313967"><ele>126.0</ele><time>2026-05-01T15:27:43.999Z</time></trkpt><trkpt lat="43.232" lon="2.2314133"><ele>126.0</ele><time>2026-05-01T15:27:44.998Z</time></trkpt><trkpt lat="43.2320817" lon="2.2313667"><ele>126.0</ele><time>2026-05-01T15:27:45.997Z</time></trkpt><trkpt lat="43.2321467" lon="2.23127"><ele>126.0</ele><time>2026-05-01T15:27:46.999Z</time></trkpt><trkpt lat="43.232195" lon="2.231145"><ele>126.0</ele><time>2026-05-01T15:27:48.001Z</time></trkpt><trkpt lat="43.23224" lon="2.2310133"><ele>126.0</ele><time>2026-05-01T15:27:49Z</time></trkpt><trkpt lat="43.2322933" lon="2.2308867"><ele>126.0</ele><time>2026-05-01T15:27:49.998Z</time></trkpt><trkpt lat="43.2323583" lon="2.2307667"><ele>126.0</ele><time>2026-05-01T15:27:50.999Z</time></trkpt><trkpt lat="43.2324367" lon="2.2306683"><ele>126.0</ele><time>2026-05-01T15:27:51.997Z</time></trkpt><trkpt lat="43.2325183" lon="2.2305883"><ele>126.0</ele><time>2026-05-01T15:27:53Z</time></trkpt><trkpt lat="43.2325917" lon="2.23052"><ele>126.0</ele><time>2026-05-01T15:27:54Z</time></trkpt><trkpt lat="43.2326467" lon="2.2304467"><ele>126.0</ele><time>2026-05-01T15:27:55Z</time></trkpt><trkpt lat="43.2326917" lon="2.2303717"><ele>126.0</ele><time>2026-05-01T15:27:55.999Z</time></trkpt><trkpt lat="43.2326567" lon="2.2302833"><ele>126.0</ele><time>2026-05-01T15:27:56.999Z</time></trkpt><trkpt lat="43.2326133" lon="2.2301983"><ele>126.0</ele><time>2026-05-01T15:27:57.999Z</time></trkpt><trkpt lat="43.2325467" lon="2.230095"><ele>126.0</ele><time>2026-05-01T15:27:59.005Z</time></trkpt><trkpt lat="43.2324817" lon="2.2299817"><ele>126.0</ele><time>2026-05-01T15:28:00.001Z</time></trkpt><trkpt lat="43.2324167" lon="2.2298633"><ele>126.0</ele><time>2026-05-01T15:28:00.998Z</time></trkpt><trkpt lat="43.2323467" lon="2.2297333"><ele>125.25</ele><time>2026-05-01T15:28:01.998Z</time></trkpt><trkpt lat="43.23229" lon="2.2295967"><ele>124.5</ele><time>2026-05-01T15:28:02.999Z</time></trkpt><trkpt lat="43.2322467" lon="2.2294417"><ele>123.75</ele><time>2026-05-01T15:28:03.999Z</time></trkpt><trkpt lat="43.2322267" lon="2.2292817"><ele>123.0</ele><time>2026-05-01T15:28:04.999Z</time></trkpt><trkpt lat="43.23222" lon="2.2291133"><ele>123.0</ele><time>2026-05-01T15:28:05.999Z</time></trkpt><trkpt lat="43.232235" lon="2.2289383"><ele>123.0</ele><time>2026-05-01T15:28:07Z</time></trkpt><trkpt lat="43.2322833" lon="2.228795"><ele>123.0</ele><time>2026-05-01T15:28:08.002Z</time></trkpt><trkpt lat="43.232335" lon="2.2286517"><ele>123.0</ele><time>2026-05-01T15:28:08.999Z</time></trkpt><trkpt lat="43.232425" lon="2.2285283"><ele>123.5</ele><time>2026-05-01T15:28:09.999Z</time></trkpt><trkpt lat="43.2324967" lon="2.228375"><ele>124.0</ele><time>2026-05-01T15:28:10.999Z</time></trkpt><trkpt lat="43.2325767" lon="2.2282117"><ele>124.5</ele><time>2026-05-01T15:28:11.998Z</time></trkpt><trkpt lat="43.2326633" lon="2.2280483"><ele>125.0</ele><time>2026-05-01T15:28:12.999Z</time></trkpt><trkpt lat="43.2327617" lon="2.227885"><ele>125.0</ele><time>2026-05-01T15:28:14Z</time></trkpt><trkpt lat="43.2328633" lon="2.227725"><ele>125.0</ele><time>2026-05-01T15:28:14.999Z</time></trkpt><trkpt lat="43.2329683" lon="2.2275683"><ele>125.0</ele><time>2026-05-01T15:28:16Z</time></trkpt><trkpt lat="43.233065" lon="2.2274217"><ele>125.25</ele><time>2026-05-01T15:28:16.999Z</time></trkpt><trkpt lat="43.2331567" lon="2.227275"><ele>125.5</ele><time>2026-05-01T15:28:17.999Z</time></trkpt><trkpt lat="43.2332567" lon="2.2271133"><ele>125.75</ele><time>2026-05-01T15:28:18.999Z</time></trkpt><trkpt lat="43.233355" lon="2.2269533"><ele>126.0</ele><time>2026-05-01T15:28:20Z</time></trkpt><trkpt lat="43.2334617" lon="2.2267917"><ele>126.0</ele><time>2026-05-01T15:28:20.999Z</time></trkpt><trkpt lat="43.2335683" lon="2.2266317"><ele>126.0</ele><time>2026-05-01T15:28:21.999Z</time></trkpt><trkpt lat="43.23368" lon="2.22647"><ele>126.0</ele><time>2026-05-01T15:28:23.001Z</time></trkpt><trkpt lat="43.2337817" lon="2.2263133"><ele>125.75</ele><time>2026-05-01T15:28:23.997Z</time></trkpt><trkpt lat="43.2338783" lon="2.2261617"><ele>125.5</ele><time>2026-05-01T15:28:24.997Z</time></trkpt><trkpt lat="43.2339683" lon="2.2260267"><ele>125.25</ele><time>2026-05-01T15:28:25.996Z</time></trkpt><trkpt lat="43.2340483" lon="2.2259133"><ele>125.0</ele><time>2026-05-01T15:28:27.002Z</time></trkpt><trkpt lat="43.2341217" lon="2.2258133"><ele>124.99999999999999</ele><time>2026-05-01T15:28:27.997Z</time></trkpt><trkpt lat="43.2341783" lon="2.2257133"><ele>125.0</ele><time>2026-05-01T15:28:28.997Z</time></trkpt><trkpt lat="43.23422" lon="2.2256183"><ele>125.0</ele><time>2026-05-01T15:28:29.999Z</time></trkpt><trkpt lat="43.234185" lon="2.2255317"><ele>125.0</ele><time>2026-05-01T15:28:31.003Z</time></trkpt><trkpt lat="43.23413" lon="2.225425"><ele>124.99999999999999</ele><time>2026-05-01T15:28:31.997Z</time></trkpt><trkpt lat="43.2340683" lon="2.225325"><ele>125.0</ele><time>2026-05-01T15:28:32.997Z</time></trkpt><trkpt lat="43.2339967" lon="2.2252233"><ele>125.25</ele><time>2026-05-01T15:28:33.998Z</time></trkpt><trkpt lat="43.233915" lon="2.2251067"><ele>125.5</ele><time>2026-05-01T15:28:34.998Z</time></trkpt><trkpt lat="43.2338417" lon="2.2249867"><ele>125.75</ele><time>2026-05-01T15:28:35.998Z</time></trkpt><trkpt lat="43.2337717" lon="2.22486"><ele>126.0</ele><time>2026-05-01T15:28:36.998Z</time></trkpt><trkpt lat="43.233705" lon="2.2247183"><ele>126.25</ele><time>2026-05-01T15:28:37.998Z</time></trkpt><trkpt lat="43.233635" lon="2.224575"><ele>126.5</ele><time>2026-05-01T15:28:38.997Z</time></trkpt><trkpt lat="43.23355" lon="2.22444"><ele>126.75</ele><time>2026-05-01T15:28:39.997Z</time></trkpt><trkpt lat="43.2334667" lon="2.224305"><ele>127.0</ele><time>2026-05-01T15:28:40.998Z</time></trkpt><trkpt lat="43.23338" lon="2.2241567"><ele>127.0</ele><time>2026-05-01T15:28:41.997Z</time></trkpt><trkpt lat="43.2332917" lon="2.2240067"><ele>127.0</ele><time>2026-05-01T15:28:42.997Z</time></trkpt><trkpt lat="43.2331933" lon="2.223855"><ele>127.0</ele><time>2026-05-01T15:28:43.997Z</time></trkpt><trkpt lat="43.2330833" lon="2.2237183"><ele>127.0</ele><time>2026-05-01T15:28:44.997Z</time></trkpt><trkpt lat="43.2329567" lon="2.2236033"><ele>125.66666666666667</ele><time>2026-05-01T15:28:45.999Z</time></trkpt><trkpt lat="43.2328117" lon="2.2235083"><ele>124.33333333333334</ele><time>2026-05-01T15:28:46.998Z</time></trkpt><trkpt lat="43.232665" lon="2.2234217"><ele>123.0</ele><time>2026-05-01T15:28:47.998Z</time></trkpt><trkpt lat="43.2325217" lon="2.223325"><ele>123.0</ele><time>2026-05-01T15:28:48.997Z</time></trkpt><trkpt lat="43.2323783" lon="2.2232233"><ele>123.0</ele><time>2026-05-01T15:28:49.998Z</time></trkpt><trkpt lat="43.23224" lon="2.2231217"><ele>123.0</ele><time>2026-05-01T15:28:51.002Z</time></trkpt><trkpt lat="43.232105" lon="2.2230117"><ele>126.0</ele><time>2026-05-01T15:28:51.999Z</time></trkpt><trkpt lat="43.231975" lon="2.22289"><ele>129.0</ele><time>2026-05-01T15:28:52.998Z</time></trkpt><trkpt lat="43.2318583" lon="2.2227483"><ele>132.0</ele><time>2026-05-01T15:28:53.998Z</time></trkpt><trkpt lat="43.2317583" lon="2.2225917"><ele>132.0</ele><time>2026-05-01T15:28:54.998Z</time></trkpt><trkpt lat="43.2316683" lon="2.222435"><ele>132.0</ele><time>2026-05-01T15:28:55.998Z</time></trkpt><trkpt lat="43.2315833" lon="2.222295"><ele>132.0</ele><time>2026-05-01T15:28:57Z</time></trkpt><trkpt lat="43.2315067" lon="2.22218"><ele>132.0</ele><time>2026-05-01T15:28:57.999Z</time></trkpt><trkpt lat="43.2314317" lon="2.22209"><ele>132.2</ele><time>2026-05-01T15:28:58.998Z</time></trkpt><trkpt lat="43.2313567" lon="2.22202"><ele>132.39999999999998</ele><time>2026-05-01T15:28:59.998Z</time></trkpt><trkpt lat="43.2312833" lon="2.2219533"><ele>132.60000000000002</ele><time>2026-05-01T15:29:00.999Z</time></trkpt><trkpt lat="43.2312067" lon="2.221895"><ele>132.8</ele><time>2026-05-01T15:29:01.999Z</time></trkpt><trkpt lat="43.2311217" lon="2.22185"><ele>133.0</ele><time>2026-05-01T15:29:02.999Z</time></trkpt><trkpt lat="43.2310117" lon="2.2217883"><ele>133.0</ele><time>2026-05-01T15:29:03.997Z</time></trkpt><trkpt lat="43.2308933" lon="2.22173"><ele>133.0</ele><time>2026-05-01T15:29:04.998Z</time></trkpt><trkpt lat="43.2307633" lon="2.22168"><ele>133.0</ele><time>2026-05-01T15:29:05.997Z</time></trkpt><trkpt lat="43.2306217" lon="2.2216317"><ele>133.0</ele><time>2026-05-01T15:29:06.997Z</time></trkpt><trkpt lat="43.2304717" lon="2.221575"><ele>132.33333333333334</ele><time>2026-05-01T15:29:07.999Z</time></trkpt><trkpt lat="43.2303267" lon="2.2215183"><ele>131.66666666666666</ele><time>2026-05-01T15:29:08.998Z</time></trkpt><trkpt lat="43.2301783" lon="2.2214633"><ele>131.0</ele><time>2026-05-01T15:29:09.997Z</time></trkpt><trkpt lat="43.23003" lon="2.221415"><ele>130.75</ele><time>2026-05-01T15:29:10.997Z</time></trkpt><trkpt lat="43.229885" lon="2.2213617"><ele>130.5</ele><time>2026-05-01T15:29:11.997Z</time></trkpt><trkpt lat="43.2297433" lon="2.2213083"><ele>130.25</ele><time>2026-05-01T15:29:12.999Z</time></trkpt><trkpt lat="43.2296133" lon="2.2212583"><ele>130.0</ele><time>2026-05-01T15:29:13.997Z</time></trkpt><trkpt lat="43.2294917" lon="2.221215"><ele>130.4</ele><time>2026-05-01T15:29:14.999Z</time></trkpt><trkpt lat="43.2293817" lon="2.2211867"><ele>130.8</ele><time>2026-05-01T15:29:15.998Z</time></trkpt><trkpt lat="43.2292783" lon="2.221185"><ele>131.2</ele><time>2026-05-01T15:29:16.997Z</time></trkpt><trkpt lat="43.22919" lon="2.2212267"><ele>131.6</ele><time>2026-05-01T15:29:18.001Z</time></trkpt><trkpt lat="43.22911" lon="2.22131"><ele>132.0</ele><time>2026-05-01T15:29:18.998Z</time></trkpt><trkpt lat="43.2290367" lon="2.2214017"><ele>132.79999999999998</ele><time>2026-05-01T15:29:20.004Z</time></trkpt><trkpt lat="43.228965" lon="2.2214917"><ele>133.6</ele><time>2026-05-01T15:29:20.998Z</time></trkpt><trkpt lat="43.2289033" lon="2.221575"><ele>134.39999999999998</ele><time>2026-05-01T15:29:21.997Z</time></trkpt><trkpt lat="43.22885" lon="2.221645"><ele>135.2</ele><time>2026-05-01T15:29:22.998Z</time></trkpt><trkpt lat="43.2287533" lon="2.22169"><ele>136.0</ele><time>2026-05-01T15:29:24.997Z</time></trkpt><trkpt lat="43.2286883" lon="2.22157"><ele>136.0</ele><time>2026-05-01T15:29:26.999Z</time></trkpt><trkpt lat="43.2286683" lon="2.22146"><ele>136.0</ele><time>2026-05-01T15:29:27.997Z</time></trkpt><trkpt lat="43.2286383" lon="2.22134"><ele>136.0</ele><time>2026-05-01T15:29:28.996Z</time></trkpt><trkpt lat="43.2286067" lon="2.2212067"><ele>136.0</ele><time>2026-05-01T15:29:29.996Z</time></trkpt><trkpt lat="43.2285717" lon="2.2210583"><ele>136.0</ele><time>2026-05-01T15:29:30.996Z</time></trkpt><trkpt lat="43.228535" lon="2.2208983"><ele>136.0</ele><time>2026-05-01T15:29:31.997Z</time></trkpt><trkpt lat="43.2284917" lon="2.2207367"><ele>136.0</ele><time>2026-05-01T15:29:32.997Z</time></trkpt><trkpt lat="43.2284383" lon="2.2205817"><ele>136.0</ele><time>2026-05-01T15:29:33.997Z</time></trkpt><trkpt lat="43.2283933" lon="2.22042"><ele>136.0</ele><time>2026-05-01T15:29:34.997Z</time></trkpt><trkpt lat="43.2283667" lon="2.220245"><ele>135.75</ele><time>2026-05-01T15:29:35.997Z</time></trkpt><trkpt lat="43.2283583" lon="2.22006"><ele>135.5</ele><time>2026-05-01T15:29:36.998Z</time></trkpt><trkpt lat="43.228355" lon="2.2198683"><ele>135.25</ele><time>2026-05-01T15:29:37.998Z</time></trkpt><trkpt lat="43.2283483" lon="2.2196783"><ele>135.0</ele><time>2026-05-01T15:29:38.997Z</time></trkpt><trkpt lat="43.2283283" lon="2.21949"><ele>134.75</ele><time>2026-05-01T15:29:39.996Z</time></trkpt><trkpt lat="43.228295" lon="2.2193067"><ele>134.5</ele><time>2026-05-01T15:29:40.997Z</time></trkpt><trkpt lat="43.228255" lon="2.2191317"><ele>134.25</ele><time>2026-05-01T15:29:41.996Z</time></trkpt><trkpt lat="43.2282083" lon="2.2189617"><ele>134.0</ele><time>2026-05-01T15:29:42.997Z</time></trkpt><trkpt lat="43.2281483" lon="2.2188"><ele>133.25</ele><time>2026-05-01T15:29:43.997Z</time></trkpt><trkpt lat="43.2280733" lon="2.218635"><ele>132.5</ele><time>2026-05-01T15:29:44.998Z</time></trkpt><trkpt lat="43.2279883" lon="2.2184633"><ele>131.75</ele><time>2026-05-01T15:29:45.997Z</time></trkpt><trkpt lat="43.2279033" lon="2.2182833"><ele>131.0</ele><time>2026-05-01T15:29:47Z</time></trkpt><trkpt lat="43.2278217" lon="2.218105"><ele>130.75</ele><time>2026-05-01T15:29:47.997Z</time></trkpt><trkpt lat="43.2277417" lon="2.2179333"><ele>130.5</ele><time>2026-05-01T15:29:48.998Z</time></trkpt><trkpt lat="43.2276667" lon="2.2177717"><ele>130.25</ele><time>2026-05-01T15:29:49.997Z</time></trkpt><trkpt lat="43.2276083" lon="2.2176067"><ele>130.0</ele><time>2026-05-01T15:29:50.999Z</time></trkpt><trkpt lat="43.22757" lon="2.2174333"><ele>130.0</ele><time>2026-05-01T15:29:51.997Z</time></trkpt><trkpt lat="43.2275533" lon="2.2172483"><ele>130.0</ele><time>2026-05-01T15:29:52.998Z</time></trkpt><trkpt lat="43.2275467" lon="2.2170617"><ele>130.0</ele><time>2026-05-01T15:29:53.998Z</time></trkpt><trkpt lat="43.227545" lon="2.2168867"><ele>130.0</ele><time>2026-05-01T15:29:54.997Z</time></trkpt><trkpt lat="43.2275417" lon="2.21673"><ele>130.0</ele><time>2026-05-01T15:29:55.997Z</time></trkpt><trkpt lat="43.2275483" lon="2.2165933"><ele>130.0</ele><time>2026-05-01T15:29:56.997Z</time></trkpt><trkpt lat="43.2275717" lon="2.2164683"><ele>130.0</ele><time>2026-05-01T15:29:57.998Z</time></trkpt><trkpt lat="43.2276167" lon="2.21635"><ele>130.0</ele><time>2026-05-01T15:29:58.998Z</time></trkpt><trkpt lat="43.2276867" lon="2.21624"><ele>130.0</ele><time>2026-05-01T15:29:59.997Z</time></trkpt><trkpt lat="43.227765" lon="2.2161483"><ele>129.83333333333334</ele><time>2026-05-01T15:30:00.998Z</time></trkpt><trkpt lat="43.2278217" lon="2.2160617"><ele>129.66666666666669</ele><time>2026-05-01T15:30:01.997Z</time></trkpt><trkpt lat="43.227865" lon="2.2159733"><ele>129.5</ele><time>2026-05-01T15:30:02.998Z</time></trkpt><trkpt lat="43.22788" lon="2.2158667"><ele>129.33333333333334</ele><time>2026-05-01T15:30:04Z</time></trkpt><trkpt lat="43.2278783" lon="2.21575"><ele>129.16666666666666</ele><time>2026-05-01T15:30:04.999Z</time></trkpt><trkpt lat="43.2278567" lon="2.2156183"><ele>129.0</ele><time>2026-05-01T15:30:06.002Z</time></trkpt><trkpt lat="43.2278283" lon="2.21548"><ele>128.83333333333334</ele><time>2026-05-01T15:30:06.999Z</time></trkpt><trkpt lat="43.2277983" lon="2.21535"><ele>128.66666666666666</ele><time>2026-05-01T15:30:08.001Z</time></trkpt><trkpt lat="43.2277667" lon="2.2152367"><ele>128.5</ele><time>2026-05-01T15:30:08.999Z</time></trkpt><trkpt lat="43.22772" lon="2.2151483"><ele>128.33333333333331</ele><time>2026-05-01T15:30:10Z</time></trkpt><trkpt lat="43.2276517" lon="2.2150783"><ele>128.16666666666666</ele><time>2026-05-01T15:30:11Z</time></trkpt><trkpt lat="43.2275633" lon="2.2150417"><ele>128.0</ele><time>2026-05-01T15:30:11.997Z</time></trkpt><trkpt lat="43.2274517" lon="2.215015"><ele>128.0</ele><time>2026-05-01T15:30:12.997Z</time></trkpt><trkpt lat="43.2273317" lon="2.2149883"><ele>128.0</ele><time>2026-05-01T15:30:13.997Z</time></trkpt><trkpt lat="43.2272017" lon="2.2149517"><ele>128.0</ele><time>2026-05-01T15:30:14.999Z</time></trkpt><trkpt lat="43.227065" lon="2.2149117"><ele>128.0</ele><time>2026-05-01T15:30:15.997Z</time></trkpt><trkpt lat="43.226925" lon="2.2148733"><ele>128.66666666666666</ele><time>2026-05-01T15:30:16.998Z</time></trkpt><trkpt lat="43.2267767" lon="2.214835"><ele>129.33333333333334</ele><time>2026-05-01T15:30:17.999Z</time></trkpt><trkpt lat="43.226615" lon="2.2147933"><ele>130.0</ele><time>2026-05-01T15:30:18.997Z</time></trkpt><trkpt lat="43.2264667" lon="2.2147533"><ele>130.75</ele><time>2026-05-01T15:30:19.997Z</time></trkpt><trkpt lat="43.2263283" lon="2.2147133"><ele>131.5</ele><time>2026-05-01T15:30:20.998Z</time></trkpt><trkpt lat="43.2261983" lon="2.2146733"><ele>132.25</ele><time>2026-05-01T15:30:21.999Z</time></trkpt><trkpt lat="43.22608" lon="2.214635"><ele>133.0</ele><time>2026-05-01T15:30:22.999Z</time></trkpt><trkpt lat="43.2259717" lon="2.2146"><ele>133.0</ele><time>2026-05-01T15:30:24Z</time></trkpt><trkpt lat="43.2258717" lon="2.2145667"><ele>133.0</ele><time>2026-05-01T15:30:24.998Z</time></trkpt><trkpt lat="43.2257817" lon="2.2145333"><ele>133.0</ele><time>2026-05-01T15:30:25.998Z</time></trkpt><trkpt lat="43.2257017" lon="2.2144983"><ele>133.0</ele><time>2026-05-01T15:30:26.997Z</time></trkpt><trkpt lat="43.2256283" lon="2.2144617"><ele>133.0</ele><time>2026-05-01T15:30:27.998Z</time></trkpt><trkpt lat="43.22557" lon="2.2144283"><ele>133.0</ele><time>2026-05-01T15:30:28.999Z</time></trkpt><trkpt lat="43.22548" lon="2.2143633"><ele>133.16666666666669</ele><time>2026-05-01T15:30:30.999Z</time></trkpt><trkpt lat="43.225425" lon="2.2142683"><ele>133.33333333333334</ele><time>2026-05-01T15:30:33Z</time></trkpt><trkpt lat="43.225415" lon="2.214175"><ele>133.5</ele><time>2026-05-01T15:30:34.999Z</time></trkpt><trkpt lat="43.22543" lon="2.214035"><ele>133.66666666666666</ele><time>2026-05-01T15:30:36.999Z</time></trkpt><trkpt lat="43.22544" lon="2.213935"><ele>133.83333333333331</ele><time>2026-05-01T15:30:37.998Z</time></trkpt><trkpt lat="43.22545" lon="2.2138317"><ele>134.0</ele><time>2026-05-01T15:30:38.999Z</time></trkpt><trkpt lat="43.2254617" lon="2.2137217"><ele>134.0</ele><time>2026-05-01T15:30:39.998Z</time></trkpt><trkpt lat="43.2254817" lon="2.2135867"><ele>134.0</ele><time>2026-05-01T15:30:40.999Z</time></trkpt><trkpt lat="43.2254967" lon="2.2134517"><ele>134.0</ele><time>2026-05-01T15:30:41.999Z</time></trkpt><trkpt lat="43.225515" lon="2.2132867"><ele>134.0</ele><time>2026-05-01T15:30:42.999Z</time></trkpt><trkpt lat="43.2255267" lon="2.2131183"><ele>134.0</ele><time>2026-05-01T15:30:43.998Z</time></trkpt><trkpt lat="43.2255333" lon="2.21295"><ele>133.25</ele><time>2026-05-01T15:30:44.999Z</time></trkpt><trkpt lat="43.2255367" lon="2.2127783"><ele>132.5</ele><time>2026-05-01T15:30:46Z</time></trkpt><trkpt lat="43.2255417" lon="2.2126133"><ele>131.75</ele><time>2026-05-01T15:30:46.998Z</time></trkpt><trkpt lat="43.2255533" lon="2.2124617"><ele>131.0</ele><time>2026-05-01T15:30:47.997Z</time></trkpt><trkpt lat="43.2255717" lon="2.2123217"><ele>131.0</ele><time>2026-05-01T15:30:48.998Z</time></trkpt><trkpt lat="43.2256" lon="2.2121867"><ele>131.0</ele><time>2026-05-01T15:30:49.996Z</time></trkpt><trkpt lat="43.2256317" lon="2.212055"><ele>131.0</ele><time>2026-05-01T15:30:51.001Z</time></trkpt><trkpt lat="43.2256633" lon="2.2119233"><ele>131.0</ele><time>2026-05-01T15:30:51.998Z</time></trkpt><trkpt lat="43.2256917" lon="2.2117967"><ele>131.0</ele><time>2026-05-01T15:30:52.999Z</time></trkpt><trkpt lat="43.2257233" lon="2.2116783"><ele>130.83333333333331</ele><time>2026-05-01T15:30:53.999Z</time></trkpt><trkpt lat="43.225755" lon="2.21157"><ele>130.66666666666666</ele><time>2026-05-01T15:30:54.997Z</time></trkpt><trkpt lat="43.22578" lon="2.211475"><ele>130.5</ele><time>2026-05-01T15:30:55.997Z</time></trkpt><trkpt lat="43.2258133" lon="2.2113517"><ele>130.33333333333334</ele><time>2026-05-01T15:30:57.997Z</time></trkpt><trkpt lat="43.22586" lon="2.2112633"><ele>130.16666666666669</ele><time>2026-05-01T15:31:01.998Z</time></trkpt><trkpt lat="43.22595" lon="2.2112467"><ele>130.0</ele><time>2026-05-01T15:31:03.997Z</time></trkpt><trkpt lat="43.22607" lon="2.21128"><ele>130.0</ele><time>2026-05-01T15:31:05.997Z</time></trkpt><trkpt lat="43.2261483" lon="2.2113"><ele>130.0</ele><time>2026-05-01T15:31:06.998Z</time></trkpt><trkpt lat="43.226235" lon="2.2113233"><ele>130.0</ele><time>2026-05-01T15:31:07.997Z</time></trkpt><trkpt lat="43.22633" lon="2.21135"><ele>130.0</ele><time>2026-05-01T15:31:08.998Z</time></trkpt><trkpt lat="43.2264367" lon="2.2113817"><ele>130.0</ele><time>2026-05-01T15:31:09.997Z</time></trkpt><trkpt lat="43.2265483" lon="2.21142"><ele>129.75</ele><time>2026-05-01T15:31:10.998Z</time></trkpt><trkpt lat="43.2266583" lon="2.2114533"><ele>129.5</ele><time>2026-05-01T15:31:11.998Z</time></trkpt><trkpt lat="43.226775" lon="2.2114883"><ele>129.25</ele><time>2026-05-01T15:31:12.997Z</time></trkpt><trkpt lat="43.226905" lon="2.2115233"><ele>129.0</ele><time>2026-05-01T15:31:13.997Z</time></trkpt><trkpt lat="43.2270433" lon="2.21156"><ele>129.0</ele><time>2026-05-01T15:31:14.998Z</time></trkpt><trkpt lat="43.2271867" lon="2.2115933"><ele>129.0</ele><time>2026-05-01T15:31:16Z</time></trkpt><trkpt lat="43.2273333" lon="2.211625"><ele>129.0</ele><time>2026-05-01T15:31:16.998Z</time></trkpt><trkpt lat="43.2274867" lon="2.21166"><ele>129.0</ele><time>2026-05-01T15:31:17.999Z</time></trkpt><trkpt lat="43.22765" lon="2.211695"><ele>128.66666666666666</ele><time>2026-05-01T15:31:18.999Z</time></trkpt><trkpt lat="43.2278167" lon="2.2117283"><ele>128.33333333333331</ele><time>2026-05-01T15:31:19.999Z</time></trkpt><trkpt lat="43.2279833" lon="2.21176"><ele>128.0</ele><time>2026-05-01T15:31:20.999Z</time></trkpt><trkpt lat="43.2281483" lon="2.2117833"><ele>128.0</ele><time>2026-05-01T15:31:21.997Z</time></trkpt><trkpt lat="43.2283167" lon="2.2118067"><ele>128.0</ele><time>2026-05-01T15:31:22.997Z</time></trkpt><trkpt lat="43.2284917" lon="2.21184"><ele>128.0</ele><time>2026-05-01T15:31:23.997Z</time></trkpt><trkpt lat="43.2286667" lon="2.2118733"><ele>128.0</ele><time>2026-05-01T15:31:25.004Z</time></trkpt><trkpt lat="43.2288433" lon="2.211905"><ele>128.0</ele><time>2026-05-01T15:31:25.998Z</time></trkpt><trkpt lat="43.2290217" lon="2.2119417"><ele>128.0</ele><time>2026-05-01T15:31:26.998Z</time></trkpt><trkpt lat="43.2292" lon="2.21198"><ele>127.66666666666666</ele><time>2026-05-01T15:31:27.999Z</time></trkpt><trkpt lat="43.2293767" lon="2.2120183"><ele>127.33333333333334</ele><time>2026-05-01T15:31:28.997Z</time></trkpt><trkpt lat="43.229555" lon="2.2120467"><ele>127.0</ele><time>2026-05-01T15:31:29.997Z</time></trkpt><trkpt lat="43.2297367" lon="2.2120833"><ele>126.33333333333334</ele><time>2026-05-01T15:31:31Z</time></trkpt><trkpt lat="43.2299167" lon="2.2121233"><ele>125.66666666666666</ele><time>2026-05-01T15:31:31.997Z</time></trkpt><trkpt lat="43.23009" lon="2.2121617"><ele>125.0</ele><time>2026-05-01T15:31:32.998Z</time></trkpt><trkpt lat="43.2302583" lon="2.2121917"><ele>125.0</ele><time>2026-05-01T15:31:34.004Z</time></trkpt><trkpt lat="43.23042" lon="2.2122233"><ele>125.0</ele><time>2026-05-01T15:31:34.998Z</time></trkpt><trkpt lat="43.23058" lon="2.21225"><ele>125.0</ele><time>2026-05-01T15:31:35.999Z</time></trkpt><trkpt lat="43.230725" lon="2.2122683"><ele>125.0</ele><time>2026-05-01T15:31:36.998Z</time></trkpt><trkpt lat="43.2308633" lon="2.21229"><ele>125.0</ele><time>2026-05-01T15:31:37.999Z</time></trkpt><trkpt lat="43.2309917" lon="2.2123283"><ele>125.0</ele><time>2026-05-01T15:31:38.999Z</time></trkpt><trkpt lat="43.2311183" lon="2.2124"><ele>125.0</ele><time>2026-05-01T15:31:40Z</time></trkpt><trkpt lat="43.231245" lon="2.2124917"><ele>125.0</ele><time>2026-05-01T15:31:41Z</time></trkpt><trkpt lat="43.2313667" lon="2.2126033"><ele>125.0</ele><time>2026-05-01T15:31:41.998Z</time></trkpt><trkpt lat="43.23149" lon="2.2127383"><ele>125.0</ele><time>2026-05-01T15:31:42.998Z</time></trkpt><trkpt lat="43.2316083" lon="2.21286"><ele>124.66666666666666</ele><time>2026-05-01T15:31:43.999Z</time></trkpt><trkpt lat="43.2317267" lon="2.2129733"><ele>124.33333333333334</ele><time>2026-05-01T15:31:44.997Z</time></trkpt><trkpt lat="43.2318583" lon="2.2130733"><ele>124.0</ele><time>2026-05-01T15:31:45.998Z</time></trkpt><trkpt lat="43.2319967" lon="2.2131717"><ele>123.66666666666667</ele><time>2026-05-01T15:31:46.997Z</time></trkpt><trkpt lat="43.232145" lon="2.21326"><ele>123.33333333333334</ele><time>2026-05-01T15:31:47.997Z</time></trkpt><trkpt lat="43.2322983" lon="2.21334"><ele>123.0</ele><time>2026-05-01T15:31:48.997Z</time></trkpt><trkpt lat="43.23246" lon="2.2133967"><ele>123.0</ele><time>2026-05-01T15:31:49.999Z</time></trkpt><trkpt lat="43.2326367" lon="2.21342"><ele>123.0</ele><time>2026-05-01T15:31:50.999Z</time></trkpt><trkpt lat="43.2328133" lon="2.2134117"><ele>123.0</ele><time>2026-05-01T15:31:51.998Z</time></trkpt><trkpt lat="43.2329917" lon="2.2133867"><ele>123.0</ele><time>2026-05-01T15:31:52.997Z</time></trkpt><trkpt lat="43.2331683" lon="2.21336"><ele>123.0</ele><time>2026-05-01T15:31:53.997Z</time></trkpt><trkpt lat="43.2333417" lon="2.2133317"><ele>123.0</ele><time>2026-05-01T15:31:54.997Z</time></trkpt><trkpt lat="43.2335133" lon="2.2133067"><ele>123.0</ele><time>2026-05-01T15:31:55.998Z</time></trkpt><trkpt lat="43.2336867" lon="2.2132817"><ele>123.0</ele><time>2026-05-01T15:31:56.998Z</time></trkpt><trkpt lat="43.2338583" lon="2.2132567"><ele>123.0</ele><time>2026-05-01T15:31:57.998Z</time></trkpt><trkpt lat="43.234035" lon="2.213235"><ele>123.0</ele><time>2026-05-01T15:31:58.997Z</time></trkpt><trkpt lat="43.2342083" lon="2.213215"><ele>123.0</ele><time>2026-05-01T15:31:59.997Z</time></trkpt><trkpt lat="43.2343833" lon="2.2131917"><ele>123.0</ele><time>2026-05-01T15:32:00.998Z</time></trkpt><trkpt lat="43.23456" lon="2.2131583"><ele>123.33333333333334</ele><time>2026-05-01T15:32:01.998Z</time></trkpt><trkpt lat="43.2347283" lon="2.2131083"><ele>123.66666666666667</ele><time>2026-05-01T15:32:02.997Z</time></trkpt><trkpt lat="43.234895" lon="2.2130433"><ele>124.0</ele><time>2026-05-01T15:32:03.997Z</time></trkpt><trkpt lat="43.235055" lon="2.2129767"><ele>124.25</ele><time>2026-05-01T15:32:04.997Z</time></trkpt><trkpt lat="43.23521" lon="2.212915"><ele>124.5</ele><time>2026-05-01T15:32:05.997Z</time></trkpt><trkpt lat="43.23535" lon="2.212855"><ele>124.75</ele><time>2026-05-01T15:32:06.997Z</time></trkpt><trkpt lat="43.2354783" lon="2.2127933"><ele>125.0</ele><time>2026-05-01T15:32:07.997Z</time></trkpt><trkpt lat="43.2355983" lon="2.21273"><ele>125.6</ele><time>2026-05-01T15:32:08.998Z</time></trkpt><trkpt lat="43.23571" lon="2.21268"><ele>126.2</ele><time>2026-05-01T15:32:09.998Z</time></trkpt><trkpt lat="43.2358183" lon="2.2126467"><ele>126.80000000000001</ele><time>2026-05-01T15:32:10.997Z</time></trkpt><trkpt lat="43.2359233" lon="2.212645"><ele>127.4</ele><time>2026-05-01T15:32:11.998Z</time></trkpt><trkpt lat="43.2360167" lon="2.2126817"><ele>128.0</ele><time>2026-05-01T15:32:12.998Z</time></trkpt><trkpt lat="43.2360967" lon="2.2127433"><ele>128.0</ele><time>2026-05-01T15:32:13.998Z</time></trkpt><trkpt lat="43.236165" lon="2.2128217"><ele>128.0</ele><time>2026-05-01T15:32:14.998Z</time></trkpt><trkpt lat="43.23623" lon="2.2129117"><ele>128.0</ele><time>2026-05-01T15:32:16Z</time></trkpt><trkpt lat="43.2362867" lon="2.213015"><ele>128.0</ele><time>2026-05-01T15:32:16.997Z</time></trkpt><trkpt lat="43.2363417" lon="2.213125"><ele>128.0</ele><time>2026-05-01T15:32:17.997Z</time></trkpt><trkpt lat="43.2364067" lon="2.213235"><ele>127.25</ele><time>2026-05-01T15:32:18.997Z</time></trkpt><trkpt lat="43.2364917" lon="2.2133383"><ele>126.5</ele><time>2026-05-01T15:32:19.997Z</time></trkpt><trkpt lat="43.236595" lon="2.2134133"><ele>125.75</ele><time>2026-05-01T15:32:20.998Z</time></trkpt><trkpt lat="43.2367167" lon="2.2134467"><ele>125.0</ele><time>2026-05-01T15:32:21.998Z</time></trkpt><trkpt lat="43.236855" lon="2.2134433"><ele>125.0</ele><time>2026-05-01T15:32:23.002Z</time></trkpt><trkpt lat="43.2370017" lon="2.2134183"><ele>125.0</ele><time>2026-05-01T15:32:23.998Z</time></trkpt><trkpt lat="43.2371533" lon="2.213385"><ele>125.0</ele><time>2026-05-01T15:32:25Z</time></trkpt><trkpt lat="43.23731" lon="2.213345"><ele>123.33333333333333</ele><time>2026-05-01T15:32:25.997Z</time></trkpt><trkpt lat="43.2374633" lon="2.213315"><ele>121.66666666666666</ele><time>2026-05-01T15:32:27.003Z</time></trkpt><trkpt lat="43.2376233" lon="2.2133"><ele>120.0</ele><time>2026-05-01T15:32:27.997Z</time></trkpt><trkpt lat="43.23778" lon="2.213295"><ele>120.0</ele><time>2026-05-01T15:32:28.999Z</time></trkpt><trkpt lat="43.2379383" lon="2.2132767"><ele>120.0</ele><time>2026-05-01T15:32:29.999Z</time></trkpt><trkpt lat="43.2381" lon="2.2132517"><ele>120.0</ele><time>2026-05-01T15:32:30.999Z</time></trkpt><trkpt lat="43.238265" lon="2.2132333"><ele>119.66666666666666</ele><time>2026-05-01T15:32:31.998Z</time></trkpt><trkpt lat="43.23843" lon="2.2132183"><ele>119.33333333333333</ele><time>2026-05-01T15:32:33Z</time></trkpt><trkpt lat="43.2385933" lon="2.2132"><ele>119.0</ele><time>2026-05-01T15:32:33.998Z</time></trkpt><trkpt lat="43.238755" lon="2.2131817"><ele>119.0</ele><time>2026-05-01T15:32:35Z</time></trkpt><trkpt lat="43.23891" lon="2.213165"><ele>119.0</ele><time>2026-05-01T15:32:35.998Z</time></trkpt><trkpt lat="43.2390633" lon="2.2131483"><ele>119.0</ele><time>2026-05-01T15:32:37.001Z</time></trkpt><trkpt lat="43.23922" lon="2.2131317"><ele>119.0</ele><time>2026-05-01T15:32:38Z</time></trkpt><trkpt lat="43.23938" lon="2.2131233"><ele>119.0</ele><time>2026-05-01T15:32:39Z</time></trkpt><trkpt lat="43.2395467" lon="2.213125"><ele>119.0</ele><time>2026-05-01T15:32:39.997Z</time></trkpt><trkpt lat="43.2397133" lon="2.21314"><ele>119.33333333333333</ele><time>2026-05-01T15:32:40.998Z</time></trkpt><trkpt lat="43.2398783" lon="2.2131617"><ele>119.66666666666666</ele><time>2026-05-01T15:32:41.998Z</time></trkpt><trkpt lat="43.2400533" lon="2.2132"><ele>120.0</ele><time>2026-05-01T15:32:42.999Z</time></trkpt><trkpt lat="43.2402267" lon="2.213245"><ele>120.0</ele><time>2026-05-01T15:32:44.002Z</time></trkpt><trkpt lat="43.240405" lon="2.2133"><ele>120.0</ele><time>2026-05-01T15:32:44.999Z</time></trkpt><trkpt lat="43.2405817" lon="2.2133533"><ele>120.0</ele><time>2026-05-01T15:32:46Z</time></trkpt><trkpt lat="43.2407617" lon="2.21341"><ele>120.33333333333334</ele><time>2026-05-01T15:32:46.998Z</time></trkpt><trkpt lat="43.24093" lon="2.2134567"><ele>120.66666666666667</ele><time>2026-05-01T15:32:47.999Z</time></trkpt><trkpt lat="43.2410983" lon="2.2135033"><ele>121.0</ele><time>2026-05-01T15:32:48.998Z</time></trkpt><trkpt lat="43.2412617" lon="2.2135517"><ele>121.0</ele><time>2026-05-01T15:32:49.999Z</time></trkpt><trkpt lat="43.2414167" lon="2.2135767"><ele>121.0</ele><time>2026-05-01T15:32:51Z</time></trkpt><trkpt lat="43.24158" lon="2.213595"><ele>121.0</ele><time>2026-05-01T15:32:51.997Z</time></trkpt><trkpt lat="43.2417467" lon="2.2135833"><ele>121.33333333333334</ele><time>2026-05-01T15:32:53.002Z</time></trkpt><trkpt lat="43.24191" lon="2.213545"><ele>121.66666666666666</ele><time>2026-05-01T15:32:54Z</time></trkpt><trkpt lat="43.2420733" lon="2.2134933"><ele>122.0</ele><time>2026-05-01T15:32:54.998Z</time></trkpt><trkpt lat="43.242235" lon="2.2134367"><ele>121.0</ele><time>2026-05-01T15:32:55.998Z</time></trkpt><trkpt lat="43.2423983" lon="2.2133733"><ele>120.0</ele><time>2026-05-01T15:32:56.999Z</time></trkpt><trkpt lat="43.24255" lon="2.21331"><ele>119.0</ele><time>2026-05-01T15:32:57.999Z</time></trkpt><trkpt lat="43.2427033" lon="2.2132467"><ele>119.0</ele><time>2026-05-01T15:32:59Z</time></trkpt><trkpt lat="43.242845" lon="2.2131917"><ele>119.0</ele><time>2026-05-01T15:33:00.001Z</time></trkpt><trkpt lat="43.2429767" lon="2.2131383"><ele>119.0</ele><time>2026-05-01T15:33:01Z</time></trkpt><trkpt lat="43.2431083" lon="2.21309"><ele>119.0</ele><time>2026-05-01T15:33:02.001Z</time></trkpt><trkpt lat="43.2432333" lon="2.2130567"><ele>119.2</ele><time>2026-05-01T15:33:03Z</time></trkpt><trkpt lat="43.243345" lon="2.21305"><ele>119.4</ele><time>2026-05-01T15:33:03.999Z</time></trkpt><trkpt lat="43.2434583" lon="2.2130533"><ele>119.6</ele><time>2026-05-01T15:33:04.998Z</time></trkpt><trkpt lat="43.2435683" lon="2.213065"><ele>119.8</ele><time>2026-05-01T15:33:05.998Z</time></trkpt><trkpt lat="43.24367" lon="2.2130783"><ele>120.0</ele><time>2026-05-01T15:33:07Z</time></trkpt><trkpt lat="43.2437667" lon="2.2130883"><ele>120.0</ele><time>2026-05-01T15:33:07.998Z</time></trkpt><trkpt lat="43.2438667" lon="2.2131"><ele>120.0</ele><time>2026-05-01T15:33:08.999Z</time></trkpt><trkpt lat="43.24397" lon="2.213115"><ele>120.0</ele><time>2026-05-01T15:33:09.998Z</time></trkpt><trkpt lat="43.244075" lon="2.2131267"><ele>120.0</ele><time>2026-05-01T15:33:11.001Z</time></trkpt><trkpt lat="43.2441867" lon="2.2131467"><ele>120.0</ele><time>2026-05-01T15:33:12Z</time></trkpt><trkpt lat="43.2442983" lon="2.213165"><ele>119.25</ele><time>2026-05-01T15:33:12.999Z</time></trkpt><trkpt lat="43.2444167" lon="2.2131733"><ele>118.5</ele><time>2026-05-01T15:33:14Z</time></trkpt><trkpt lat="43.24453" lon="2.213185"><ele>117.75</ele><time>2026-05-01T15:33:14.998Z</time></trkpt><trkpt lat="43.2446483" lon="2.2132"><ele>117.0</ele><time>2026-05-01T15:33:15.998Z</time></trkpt><trkpt lat="43.2447633" lon="2.213215"><ele>117.25</ele><time>2026-05-01T15:33:16.999Z</time></trkpt><trkpt lat="43.24487" lon="2.213235"><ele>117.5</ele><time>2026-05-01T15:33:17.999Z</time></trkpt><trkpt lat="43.24499" lon="2.2132567"><ele>117.75</ele><time>2026-05-01T15:33:18.997Z</time></trkpt><trkpt lat="43.24511" lon="2.2132833"><ele>118.0</ele><time>2026-05-01T15:33:20Z</time></trkpt><trkpt lat="43.2452167" lon="2.21331"><ele>118.00000000000001</ele><time>2026-05-01T15:33:21Z</time></trkpt><trkpt lat="43.2453183" lon="2.21333"><ele>118.0</ele><time>2026-05-01T15:33:22.001Z</time></trkpt><trkpt lat="43.2454017" lon="2.2133483"><ele>118.0</ele><time>2026-05-01T15:33:22.999Z</time></trkpt><trkpt lat="43.2454833" lon="2.2133583"><ele>118.0</ele><time>2026-05-01T15:33:23.999Z</time></trkpt><trkpt lat="43.2455617" lon="2.213355"><ele>118.00000000000001</ele><time>2026-05-01T15:33:24.999Z</time></trkpt><trkpt lat="43.2456317" lon="2.2133167"><ele>118.0</ele><time>2026-05-01T15:33:26Z</time></trkpt><trkpt lat="43.2457033" lon="2.21327"><ele>118.16666666666667</ele><time>2026-05-01T15:33:26.999Z</time></trkpt><trkpt lat="43.2457783" lon="2.21322"><ele>118.33333333333334</ele><time>2026-05-01T15:33:27.998Z</time></trkpt><trkpt lat="43.245855" lon="2.21315"><ele>118.5</ele><time>2026-05-01T15:33:28.998Z</time></trkpt><trkpt lat="43.2459283" lon="2.2130733"><ele>118.66666666666666</ele><time>2026-05-01T15:33:29.999Z</time></trkpt><trkpt lat="43.2460033" lon="2.2130017"><ele>118.83333333333333</ele><time>2026-05-01T15:33:30.998Z</time></trkpt><trkpt lat="43.2460667" lon="2.2129183"><ele>119.0</ele><time>2026-05-01T15:33:31.998Z</time></trkpt><trkpt lat="43.2461233" lon="2.2128467"><ele>119.33333333333333</ele><time>2026-05-01T15:33:33Z</time></trkpt><trkpt lat="43.246175" lon="2.2127867"><ele>119.66666666666666</ele><time>2026-05-01T15:33:33.998Z</time></trkpt><trkpt lat="43.246255" lon="2.212655"><ele>120.0</ele><time>2026-05-01T15:33:35.998Z</time></trkpt><trkpt lat="43.2463" lon="2.2125867"><ele>120.33333333333334</ele><time>2026-05-01T15:33:36.997Z</time></trkpt><trkpt lat="43.2463383" lon="2.2125067"><ele>120.66666666666667</ele><time>2026-05-01T15:33:37.997Z</time></trkpt><trkpt lat="43.246375" lon="2.2124283"><ele>121.0</ele><time>2026-05-01T15:33:39.001Z</time></trkpt><trkpt lat="43.2464217" lon="2.2123467"><ele>121.50000000000001</ele><time>2026-05-01T15:33:39.998Z</time></trkpt><trkpt lat="43.24648" lon="2.2122767"><ele>122.0</ele><time>2026-05-01T15:33:40.997Z</time></trkpt><trkpt lat="43.24656" lon="2.2122233"><ele>122.5</ele><time>2026-05-01T15:33:41.999Z</time></trkpt><trkpt lat="43.246635" lon="2.212175"><ele>123.0</ele><time>2026-05-01T15:33:42.999Z</time></trkpt><trkpt lat="43.2467033" lon="2.21213"><ele>123.50000000000001</ele><time>2026-05-01T15:33:43.998Z</time></trkpt><trkpt lat="43.2467733" lon="2.2120983"><ele>124.0</ele><time>2026-05-01T15:33:44.998Z</time></trkpt><trkpt lat="43.2468383" lon="2.2120717"><ele>124.0</ele><time>2026-05-01T15:33:45.999Z</time></trkpt><trkpt lat="43.2469517" lon="2.2120167"><ele>124.0</ele><time>2026-05-01T15:33:47.998Z</time></trkpt><trkpt lat="43.24703" lon="2.2119633"><ele>124.0</ele><time>2026-05-01T15:33:49.999Z</time></trkpt><trkpt lat="43.2471167" lon="2.2119183"><ele>124.0</ele><time>2026-05-01T15:33:51.999Z</time></trkpt><trkpt lat="43.2472" lon="2.21186"><ele>124.0</ele><time>2026-05-01T15:33:54Z</time></trkpt><trkpt lat="43.24728" lon="2.2117733"><ele>123.83333333333334</ele><time>2026-05-01T15:33:56.001Z</time></trkpt><trkpt lat="43.2473617" lon="2.2116433"><ele>123.66666666666667</ele><time>2026-05-01T15:33:58Z</time></trkpt><trkpt lat="43.2474083" lon="2.211575"><ele>123.5</ele><time>2026-05-01T15:33:59.001Z</time></trkpt><trkpt lat="43.24745" lon="2.2114983"><ele>123.33333333333334</ele><time>2026-05-01T15:34:00.001Z</time></trkpt><trkpt lat="43.247475" lon="2.2114167"><ele>123.16666666666667</ele><time>2026-05-01T15:34:01.001Z</time></trkpt><trkpt lat="43.2475167" lon="2.21127"><ele>123.0</ele><time>2026-05-01T15:34:03.001Z</time></trkpt><trkpt lat="43.2475433" lon="2.2111467"><ele>123.0</ele><time>2026-05-01T15:34:05.007Z</time></trkpt><trkpt lat="43.2475317" lon="2.2110483"><ele>123.00000000000001</ele><time>2026-05-01T15:34:14Z</time></trkpt><trkpt lat="43.2474533" lon="2.2109817"><ele>123.00000000000001</ele><time>2026-05-01T15:34:16Z</time></trkpt><trkpt lat="43.2473633" lon="2.210935"><ele>123.0</ele><time>2026-05-01T15:34:17.998Z</time></trkpt><trkpt lat="43.2472733" lon="2.2108083"><ele>123.0</ele><time>2026-05-01T15:34:19.997Z</time></trkpt><trkpt lat="43.2472217" lon="2.210715"><ele>123.5</ele><time>2026-05-01T15:34:21Z</time></trkpt><trkpt lat="43.2471783" lon="2.21062"><ele>124.0</ele><time>2026-05-01T15:34:21.998Z</time></trkpt><trkpt lat="43.247135" lon="2.210535"><ele>124.5</ele><time>2026-05-01T15:34:22.999Z</time></trkpt><trkpt lat="43.2470833" lon="2.21046"><ele>125.0</ele><time>2026-05-01T15:34:23.999Z</time></trkpt><trkpt lat="43.24701" lon="2.2103883"><ele>125.5</ele><time>2026-05-01T15:34:24.999Z</time></trkpt><trkpt lat="43.246945" lon="2.2103367"><ele>126.0</ele><time>2026-05-01T15:34:25.999Z</time></trkpt><trkpt lat="43.2468883" lon="2.21029"><ele>126.0</ele><time>2026-05-01T15:34:26.998Z</time></trkpt><trkpt lat="43.2468167" lon="2.2102233"><ele>126.0</ele><time>2026-05-01T15:34:28.998Z</time></trkpt><trkpt lat="43.2467967" lon="2.2101333"><ele>126.0</ele><time>2026-05-01T15:34:30.998Z</time></trkpt><trkpt lat="43.24684" lon="2.2099983"><ele>126.0</ele><time>2026-05-01T15:34:33Z</time></trkpt><trkpt lat="43.2468667" lon="2.2099117"><ele>126.0</ele><time>2026-05-01T15:34:33.998Z</time></trkpt><trkpt lat="43.2468917" lon="2.20982"><ele>126.0</ele><time>2026-05-01T15:34:34.997Z</time></trkpt><trkpt lat="43.2469117" lon="2.209715"><ele>125.8</ele><time>2026-05-01T15:34:35.997Z</time></trkpt><trkpt lat="43.246925" lon="2.2095917"><ele>125.6</ele><time>2026-05-01T15:34:37.001Z</time></trkpt><trkpt lat="43.2469417" lon="2.2094517"><ele>125.4</ele><time>2026-05-01T15:34:37.998Z</time></trkpt><trkpt lat="43.2469583" lon="2.2093033"><ele>125.2</ele><time>2026-05-01T15:34:38.998Z</time></trkpt><trkpt lat="43.24698" lon="2.2091533"><ele>125.0</ele><time>2026-05-01T15:34:39.997Z</time></trkpt><trkpt lat="43.247005" lon="2.20898"><ele>124.5</ele><time>2026-05-01T15:34:40.998Z</time></trkpt><trkpt lat="43.2470283" lon="2.208805"><ele>124.0</ele><time>2026-05-01T15:34:41.999Z</time></trkpt><trkpt lat="43.2470567" lon="2.2086283"><ele>123.5</ele><time>2026-05-01T15:34:42.997Z</time></trkpt><trkpt lat="43.2470867" lon="2.208435"><ele>123.0</ele><time>2026-05-01T15:34:43.997Z</time></trkpt><trkpt lat="43.2471167" lon="2.2082317"><ele>122.66666666666666</ele><time>2026-05-01T15:34:45.002Z</time></trkpt><trkpt lat="43.2471483" lon="2.2080283"><ele>122.33333333333333</ele><time>2026-05-01T15:34:45.997Z</time></trkpt><trkpt lat="43.2471817" lon="2.2078083"><ele>122.0</ele><time>2026-05-01T15:34:47Z</time></trkpt><trkpt lat="43.24722" lon="2.2075883"><ele>122.0</ele><time>2026-05-01T15:34:48.002Z</time></trkpt><trkpt lat="43.247265" lon="2.2073667"><ele>122.0</ele><time>2026-05-01T15:34:49Z</time></trkpt><trkpt lat="43.24731" lon="2.2071417"><ele>122.0</ele><time>2026-05-01T15:34:50.001Z</time></trkpt><trkpt lat="43.2473533" lon="2.2069067"><ele>121.33333333333333</ele><time>2026-05-01T15:34:51.002Z</time></trkpt><trkpt lat="43.2473983" lon="2.206665"><ele>120.66666666666666</ele><time>2026-05-01T15:34:51.999Z</time></trkpt><trkpt lat="43.2474333" lon="2.2064233"><ele>120.0</ele><time>2026-05-01T15:34:53.003Z</time></trkpt><trkpt lat="43.2474767" lon="2.2061833"><ele>119.66666666666666</ele><time>2026-05-01T15:34:53.998Z</time></trkpt><trkpt lat="43.247525" lon="2.2059383"><ele>119.33333333333333</ele><time>2026-05-01T15:34:54.999Z</time></trkpt><trkpt lat="43.2475767" lon="2.2056917"><ele>119.0</ele><time>2026-05-01T15:34:55.999Z</time></trkpt><trkpt lat="43.247635" lon="2.2054483"><ele>119.0</ele><time>2026-05-01T15:34:57.002Z</time></trkpt><trkpt lat="43.2476917" lon="2.2052017"><ele>119.0</ele><time>2026-05-01T15:34:58.001Z</time></trkpt><trkpt lat="43.247745" lon="2.2049567"><ele>119.0</ele><time>2026-05-01T15:34:58.999Z</time></trkpt><trkpt lat="43.2478017" lon="2.2047183"><ele>118.66666666666666</ele><time>2026-05-01T15:34:59.999Z</time></trkpt><trkpt lat="43.2478633" lon="2.2044883"><ele>118.33333333333334</ele><time>2026-05-01T15:35:01.003Z</time></trkpt><trkpt lat="43.247925" lon="2.204255"><ele>118.0</ele><time>2026-05-01T15:35:01.999Z</time></trkpt><trkpt lat="43.247985" lon="2.204015"><ele>117.33333333333334</ele><time>2026-05-01T15:35:03Z</time></trkpt><trkpt lat="43.2480433" lon="2.2037783"><ele>116.66666666666666</ele><time>2026-05-01T15:35:04Z</time></trkpt><trkpt lat="43.2481017" lon="2.2035433"><ele>116.0</ele><time>2026-05-01T15:35:04.998Z</time></trkpt><trkpt lat="43.24815" lon="2.2033017"><ele>115.66666666666666</ele><time>2026-05-01T15:35:06Z</time></trkpt><trkpt lat="43.2481883" lon="2.203055"><ele>115.33333333333334</ele><time>2026-05-01T15:35:07.001Z</time></trkpt><trkpt lat="43.2481983" lon="2.202805"><ele>115.0</ele><time>2026-05-01T15:35:08Z</time></trkpt><trkpt lat="43.248195" lon="2.2025517"><ele>114.66666666666667</ele><time>2026-05-01T15:35:09Z</time></trkpt><trkpt lat="43.248175" lon="2.20229"><ele>114.33333333333334</ele><time>2026-05-01T15:35:10Z</time></trkpt><trkpt lat="43.2481517" lon="2.2020233"><ele>114.0</ele><time>2026-05-01T15:35:10.999Z</time></trkpt><trkpt lat="43.2481317" lon="2.2017533"><ele>115.33333333333334</ele><time>2026-05-01T15:35:11.998Z</time></trkpt><trkpt lat="43.248115" lon="2.2014917"><ele>116.66666666666667</ele><time>2026-05-01T15:35:12.998Z</time></trkpt><trkpt lat="43.24811" lon="2.2012233"><ele>118.0</ele><time>2026-05-01T15:35:14.003Z</time></trkpt><trkpt lat="43.2480983" lon="2.2009517"><ele>118.0</ele><time>2026-05-01T15:35:15.001Z</time></trkpt><trkpt lat="43.2480933" lon="2.2006983"><ele>118.0</ele><time>2026-05-01T15:35:16.001Z</time></trkpt><trkpt lat="43.2481033" lon="2.2004483"><ele>118.0</ele><time>2026-05-01T15:35:17Z</time></trkpt><trkpt lat="43.2481183" lon="2.2001917"><ele>117.0</ele><time>2026-05-01T15:35:17.998Z</time></trkpt><trkpt lat="43.248135" lon="2.1999567"><ele>116.0</ele><time>2026-05-01T15:35:19.001Z</time></trkpt><trkpt lat="43.2481717" lon="2.19971"><ele>115.0</ele><time>2026-05-01T15:35:19.998Z</time></trkpt><trkpt lat="43.2481983" lon="2.1994667"><ele>115.0</ele><time>2026-05-01T15:35:20.999Z</time></trkpt><trkpt lat="43.2482" lon="2.1992167"><ele>115.0</ele><time>2026-05-01T15:35:21.997Z</time></trkpt><trkpt lat="43.2481867" lon="2.198945"><ele>115.0</ele><time>2026-05-01T15:35:22.998Z</time></trkpt><trkpt lat="43.2481533" lon="2.1986683"><ele>115.33333333333334</ele><time>2026-05-01T15:35:23.999Z</time></trkpt><trkpt lat="43.2481217" lon="2.1983867"><ele>115.66666666666666</ele><time>2026-05-01T15:35:24.999Z</time></trkpt><trkpt lat="43.2481033" lon="2.1980967"><ele>116.0</ele><time>2026-05-01T15:35:25.999Z</time></trkpt><trkpt lat="43.2481" lon="2.1977983"><ele>115.33333333333333</ele><time>2026-05-01T15:35:26.999Z</time></trkpt><trkpt lat="43.24811" lon="2.1975017"><ele>114.66666666666666</ele><time>2026-05-01T15:35:27.999Z</time></trkpt><trkpt lat="43.2481233" lon="2.1972033"><ele>114.0</ele><time>2026-05-01T15:35:28.998Z</time></trkpt><trkpt lat="43.2481433" lon="2.1969133"><ele>114.0</ele><time>2026-05-01T15:35:30.002Z</time></trkpt><trkpt lat="43.248165" lon="2.19663"><ele>114.0</ele><time>2026-05-01T15:35:30.999Z</time></trkpt><trkpt lat="43.2481867" lon="2.1963433"><ele>114.0</ele><time>2026-05-01T15:35:31.999Z</time></trkpt><trkpt lat="43.2482" lon="2.196055"><ele>114.33333333333334</ele><time>2026-05-01T15:35:33.003Z</time></trkpt><trkpt lat="43.2482083" lon="2.1957667"><ele>114.66666666666667</ele><time>2026-05-01T15:35:33.998Z</time></trkpt><trkpt lat="43.248215" lon="2.1954833"><ele>115.0</ele><time>2026-05-01T15:35:34.998Z</time></trkpt><trkpt lat="43.2482233" lon="2.1952"><ele>115.0</ele><time>2026-05-01T15:35:35.998Z</time></trkpt><trkpt lat="43.2482333" lon="2.1949133"><ele>115.0</ele><time>2026-05-01T15:35:36.999Z</time></trkpt><trkpt lat="43.2482417" lon="2.1946267"><ele>115.0</ele><time>2026-05-01T15:35:37.998Z</time></trkpt><trkpt lat="43.24825" lon="2.1943417"><ele>115.33333333333334</ele><time>2026-05-01T15:35:38.998Z</time></trkpt><trkpt lat="43.248255" lon="2.1940633"><ele>115.66666666666666</ele><time>2026-05-01T15:35:39.998Z</time></trkpt><trkpt lat="43.24826" lon="2.19379"><ele>116.0</ele><time>2026-05-01T15:35:40.997Z</time></trkpt><trkpt lat="43.248265" lon="2.1935283"><ele>116.0</ele><time>2026-05-01T15:35:41.998Z</time></trkpt><trkpt lat="43.2482717" lon="2.1932783"><ele>116.0</ele><time>2026-05-01T15:35:42.999Z</time></trkpt><trkpt lat="43.24828" lon="2.1930317"><ele>116.0</ele><time>2026-05-01T15:35:43.998Z</time></trkpt><trkpt lat="43.2482883" lon="2.1927833"><ele>116.0</ele><time>2026-05-01T15:35:44.997Z</time></trkpt><trkpt lat="43.2483017" lon="2.1925317"><ele>116.0</ele><time>2026-05-01T15:35:45.997Z</time></trkpt><trkpt lat="43.248325" lon="2.19228"><ele>116.0</ele><time>2026-05-01T15:35:46.999Z</time></trkpt><trkpt lat="43.2483567" lon="2.1920283"><ele>116.0</ele><time>2026-05-01T15:35:47.997Z</time></trkpt><trkpt lat="43.2483933" lon="2.1917733"><ele>116.0</ele><time>2026-05-01T15:35:48.998Z</time></trkpt><trkpt lat="43.2484333" lon="2.1915183"><ele>116.0</ele><time>2026-05-01T15:35:49.999Z</time></trkpt><trkpt lat="43.2484767" lon="2.1912617"><ele>116.0</ele><time>2026-05-01T15:35:50.999Z</time></trkpt><trkpt lat="43.248515" lon="2.1910033"><ele>116.0</ele><time>2026-05-01T15:35:51.998Z</time></trkpt><trkpt lat="43.24855" lon="2.1907433"><ele>116.0</ele><time>2026-05-01T15:35:53Z</time></trkpt><trkpt lat="43.2485883" lon="2.190485"><ele>116.0</ele><time>2026-05-01T15:35:53.999Z</time></trkpt><trkpt lat="43.2486267" lon="2.1902233"><ele>116.0</ele><time>2026-05-01T15:35:54.999Z</time></trkpt><trkpt lat="43.248665" lon="2.1899617"><ele>116.0</ele><time>2026-05-01T15:35:55.999Z</time></trkpt><trkpt lat="43.248705" lon="2.1897"><ele>116.0</ele><time>2026-05-01T15:35:57Z</time></trkpt><trkpt lat="43.2487467" lon="2.1894367"><ele>116.0</ele><time>2026-05-01T15:35:58.001Z</time></trkpt><trkpt lat="43.2487883" lon="2.18917"><ele>116.0</ele><time>2026-05-01T15:35:58.999Z</time></trkpt><trkpt lat="43.2488267" lon="2.188905"><ele>116.0</ele><time>2026-05-01T15:35:59.997Z</time></trkpt><trkpt lat="43.2488667" lon="2.1886417"><ele>116.0</ele><time>2026-05-01T15:36:00.998Z</time></trkpt><trkpt lat="43.24891" lon="2.188375"><ele>116.0</ele><time>2026-05-01T15:36:01.998Z</time></trkpt><trkpt lat="43.248955" lon="2.1881117"><ele>116.0</ele><time>2026-05-01T15:36:03.004Z</time></trkpt><trkpt lat="43.2490033" lon="2.187845"><ele>116.0</ele><time>2026-05-01T15:36:04Z</time></trkpt><trkpt lat="43.2490467" lon="2.1875833"><ele>116.0</ele><time>2026-05-01T15:36:04.997Z</time></trkpt><trkpt lat="43.24909" lon="2.187315"><ele>116.33333333333333</ele><time>2026-05-01T15:36:06Z</time></trkpt><trkpt lat="43.2491317" lon="2.1870367"><ele>116.66666666666666</ele><time>2026-05-01T15:36:06.999Z</time></trkpt><trkpt lat="43.2491683" lon="2.1867617"><ele>117.0</ele><time>2026-05-01T15:36:07.999Z</time></trkpt><trkpt lat="43.2491917" lon="2.18649"><ele>117.0</ele><time>2026-05-01T15:36:08.998Z</time></trkpt><trkpt lat="43.24921" lon="2.186215"><ele>117.0</ele><time>2026-05-01T15:36:09.997Z</time></trkpt><trkpt lat="43.24923" lon="2.1859383"><ele>117.0</ele><time>2026-05-01T15:36:10.999Z</time></trkpt><trkpt lat="43.249255" lon="2.1856633"><ele>116.66666666666666</ele><time>2026-05-01T15:36:11.997Z</time></trkpt><trkpt lat="43.2492917" lon="2.1853883"><ele>116.33333333333333</ele><time>2026-05-01T15:36:12.996Z</time></trkpt><trkpt lat="43.2493333" lon="2.1851217"><ele>116.0</ele><time>2026-05-01T15:36:13.998Z</time></trkpt><trkpt lat="43.2493783" lon="2.184875"><ele>116.0</ele><time>2026-05-01T15:36:14.997Z</time></trkpt><trkpt lat="43.249425" lon="2.1846383"><ele>116.0</ele><time>2026-05-01T15:36:15.998Z</time></trkpt><trkpt lat="43.24947" lon="2.1844083"><ele>116.0</ele><time>2026-05-01T15:36:17.003Z</time></trkpt><trkpt lat="43.24951" lon="2.1841767"><ele>116.0</ele><time>2026-05-01T15:36:17.998Z</time></trkpt><trkpt lat="43.2495417" lon="2.1839483"><ele>116.0</ele><time>2026-05-01T15:36:18.999Z</time></trkpt><trkpt lat="43.2495683" lon="2.1837167"><ele>116.0</ele><time>2026-05-01T15:36:19.999Z</time></trkpt><trkpt lat="43.24959" lon="2.183475"><ele>116.0</ele><time>2026-05-01T15:36:20.999Z</time></trkpt><trkpt lat="43.249605" lon="2.1832267"><ele>116.0</ele><time>2026-05-01T15:36:21.998Z</time></trkpt><trkpt lat="43.2496183" lon="2.18299"><ele>116.0</ele><time>2026-05-01T15:36:23Z</time></trkpt><trkpt lat="43.24963" lon="2.1827633"><ele>116.33333333333333</ele><time>2026-05-01T15:36:24Z</time></trkpt><trkpt lat="43.249635" lon="2.1825383"><ele>116.66666666666666</ele><time>2026-05-01T15:36:25Z</time></trkpt><trkpt lat="43.2496217" lon="2.1823133"><ele>117.0</ele><time>2026-05-01T15:36:25.996Z</time></trkpt><trkpt lat="43.2495983" lon="2.1820833"><ele>117.0</ele><time>2026-05-01T15:36:26.998Z</time></trkpt><trkpt lat="43.2495883" lon="2.18185"><ele>117.0</ele><time>2026-05-01T15:36:27.997Z</time></trkpt><trkpt lat="43.2495867" lon="2.1816283"><ele>117.0</ele><time>2026-05-01T15:36:28.997Z</time></trkpt><trkpt lat="43.249585" lon="2.18142"><ele>117.0</ele><time>2026-05-01T15:36:29.999Z</time></trkpt><trkpt lat="43.2495683" lon="2.1812383"><ele>117.0</ele><time>2026-05-01T15:36:30.997Z</time></trkpt><trkpt lat="43.2495133" lon="2.1810883"><ele>117.0</ele><time>2026-05-01T15:36:31.997Z</time></trkpt><trkpt lat="43.2494233" lon="2.1809767"><ele>117.0</ele><time>2026-05-01T15:36:32.998Z</time></trkpt><trkpt lat="43.2493083" lon="2.1808833"><ele>117.0</ele><time>2026-05-01T15:36:33.998Z</time></trkpt><trkpt lat="43.2491917" lon="2.1807783"><ele>117.0</ele><time>2026-05-01T15:36:35Z</time></trkpt><trkpt lat="43.249095" lon="2.180645"><ele>117.0</ele><time>2026-05-01T15:36:36.002Z</time></trkpt><trkpt lat="43.2490267" lon="2.18049"><ele>117.0</ele><time>2026-05-01T15:36:37.008Z</time></trkpt><trkpt lat="43.2489967" lon="2.1803067"><ele>117.33333333333334</ele><time>2026-05-01T15:36:38Z</time></trkpt><trkpt lat="43.2490167" lon="2.1801117"><ele>117.66666666666667</ele><time>2026-05-01T15:36:38.998Z</time></trkpt><trkpt lat="43.249065" lon="2.1799033"><ele>118.0</ele><time>2026-05-01T15:36:39.996Z</time></trkpt><trkpt lat="43.2491183" lon="2.1796933"><ele>118.33333333333334</ele><time>2026-05-01T15:36:40.997Z</time></trkpt><trkpt lat="43.24917" lon="2.1794883"><ele>118.66666666666666</ele><time>2026-05-01T15:36:41.997Z</time></trkpt><trkpt lat="43.2492333" lon="2.1792917"><ele>119.0</ele><time>2026-05-01T15:36:42.999Z</time></trkpt><trkpt lat="43.249305" lon="2.1791017"><ele>119.0</ele><time>2026-05-01T15:36:43.998Z</time></trkpt><trkpt lat="43.2493733" lon="2.1789167"><ele>119.0</ele><time>2026-05-01T15:36:45Z</time></trkpt><trkpt lat="43.249425" lon="2.1787383"><ele>119.0</ele><time>2026-05-01T15:36:46.001Z</time></trkpt><trkpt lat="43.2494633" lon="2.17858"><ele>119.0</ele><time>2026-05-01T15:36:46.999Z</time></trkpt><trkpt lat="43.2494883" lon="2.178435"><ele>118.99999999999999</ele><time>2026-05-01T15:36:47.999Z</time></trkpt><trkpt lat="43.2495167" lon="2.1783117"><ele>119.0</ele><time>2026-05-01T15:36:48.997Z</time></trkpt><trkpt lat="43.2495367" lon="2.1782017"><ele>119.0</ele><time>2026-05-01T15:36:49.998Z</time></trkpt><trkpt lat="43.2495683" lon="2.1780467"><ele>119.0</ele><time>2026-05-01T15:36:52.001Z</time></trkpt><trkpt lat="43.2495867" lon="2.1779533"><ele>118.99999999999999</ele><time>2026-05-01T15:36:52.998Z</time></trkpt><trkpt lat="43.24961" lon="2.1778517"><ele>119.0</ele><time>2026-05-01T15:36:53.998Z</time></trkpt><trkpt lat="43.2496333" lon="2.1777383"><ele>119.0</ele><time>2026-05-01T15:36:54.998Z</time></trkpt><trkpt lat="43.2496633" lon="2.177615"><ele>119.0</ele><time>2026-05-01T15:36:55.999Z</time></trkpt><trkpt lat="43.2496933" lon="2.1774867"><ele>119.0</ele><time>2026-05-01T15:36:57.008Z</time></trkpt><trkpt lat="43.2497217" lon="2.1773583"><ele>119.0</ele><time>2026-05-01T15:36:57.998Z</time></trkpt><trkpt lat="43.2497417" lon="2.1772183"><ele>119.0</ele><time>2026-05-01T15:36:58.999Z</time></trkpt><trkpt lat="43.2497567" lon="2.1770817"><ele>118.99999999999999</ele><time>2026-05-01T15:36:59.999Z</time></trkpt><trkpt lat="43.2497783" lon="2.17695"><ele>119.0</ele><time>2026-05-01T15:37:00.998Z</time></trkpt><trkpt lat="43.2497883" lon="2.1768283"><ele>119.0</ele><time>2026-05-01T15:37:01.999Z</time></trkpt><trkpt lat="43.2498017" lon="2.1767183"><ele>119.0</ele><time>2026-05-01T15:37:02.998Z</time></trkpt><trkpt lat="43.2498083" lon="2.1766283"><ele>118.99999999999999</ele><time>2026-05-01T15:37:03.998Z</time></trkpt><trkpt lat="43.2498233" lon="2.17654"><ele>119.0</ele><time>2026-05-01T15:37:06.998Z</time></trkpt><trkpt lat="43.24992" lon="2.1765517"><ele>118.80000000000001</ele><time>2026-05-01T15:37:09.998Z</time></trkpt><trkpt lat="43.2500283" lon="2.1765483"><ele>118.60000000000001</ele><time>2026-05-01T15:37:11.998Z</time></trkpt><trkpt lat="43.2501" lon="2.1765467"><ele>118.4</ele><time>2026-05-01T15:37:13.004Z</time></trkpt><trkpt lat="43.25018" lon="2.17655"><ele>118.2</ele><time>2026-05-01T15:37:13.999Z</time></trkpt><trkpt lat="43.2502733" lon="2.1765583"><ele>118.0</ele><time>2026-05-01T15:37:14.999Z</time></trkpt><trkpt lat="43.2503767" lon="2.176565"><ele>118.0</ele><time>2026-05-01T15:37:15.997Z</time></trkpt><trkpt lat="43.2504833" lon="2.1765767"><ele>118.0</ele><time>2026-05-01T15:37:16.997Z</time></trkpt><trkpt lat="43.250595" lon="2.1766033"><ele>118.0</ele><time>2026-05-01T15:37:17.998Z</time></trkpt><trkpt lat="43.25072" lon="2.1766517"><ele>118.0</ele><time>2026-05-01T15:37:19.007Z</time></trkpt><trkpt lat="43.250855" lon="2.1767117"><ele>118.0</ele><time>2026-05-01T15:37:19.997Z</time></trkpt><trkpt lat="43.2509917" lon="2.1767817"><ele>118.0</ele><time>2026-05-01T15:37:20.998Z</time></trkpt><trkpt lat="43.2511283" lon="2.176855"><ele>118.0</ele><time>2026-05-01T15:37:21.997Z</time></trkpt><trkpt lat="43.251265" lon="2.17693"><ele>118.0</ele><time>2026-05-01T15:37:22.997Z</time></trkpt><trkpt lat="43.2513983" lon="2.1769983"><ele>118.75</ele><time>2026-05-01T15:37:24Z</time></trkpt><trkpt lat="43.251525" lon="2.177065"><ele>119.5</ele><time>2026-05-01T15:37:24.998Z</time></trkpt><trkpt lat="43.2516383" lon="2.1771283"><ele>120.25</ele><time>2026-05-01T15:37:25.997Z</time></trkpt><trkpt lat="43.2517467" lon="2.177185"><ele>121.0</ele><time>2026-05-01T15:37:26.998Z</time></trkpt><trkpt lat="43.2518467" lon="2.17724"><ele>121.0</ele><time>2026-05-01T15:37:27.998Z</time></trkpt><trkpt lat="43.25195" lon="2.177295"><ele>121.0</ele><time>2026-05-01T15:37:28.997Z</time></trkpt><trkpt lat="43.25205" lon="2.177345"><ele>121.0</ele><time>2026-05-01T15:37:29.997Z</time></trkpt><trkpt lat="43.2521417" lon="2.1773917"><ele>121.0</ele><time>2026-05-01T15:37:30.999Z</time></trkpt><trkpt lat="43.25222" lon="2.1774367"><ele>121.0</ele><time>2026-05-01T15:37:31.997Z</time></trkpt><trkpt lat="43.252315" lon="2.1774883"><ele>121.33333333333334</ele><time>2026-05-01T15:37:33.996Z</time></trkpt><trkpt lat="43.25239" lon="2.1774317"><ele>121.66666666666667</ele><time>2026-05-01T15:37:36.998Z</time></trkpt><trkpt lat="43.2524567" lon="2.1772917"><ele>122.0</ele><time>2026-05-01T15:37:38.999Z</time></trkpt><trkpt lat="43.2525033" lon="2.177205"><ele>122.33333333333334</ele><time>2026-05-01T15:37:39.996Z</time></trkpt><trkpt lat="43.2525533" lon="2.1771283"><ele>122.66666666666667</ele><time>2026-05-01T15:37:40.997Z</time></trkpt><trkpt lat="43.2525933" lon="2.177045"><ele>123.0</ele><time>2026-05-01T15:37:41.997Z</time></trkpt><trkpt lat="43.2526367" lon="2.1769517"><ele>123.0</ele><time>2026-05-01T15:37:43.003Z</time></trkpt><trkpt lat="43.2526883" lon="2.1768617"><ele>123.0</ele><time>2026-05-01T15:37:43.997Z</time></trkpt><trkpt lat="43.2527433" lon="2.17676"><ele>123.0</ele><time>2026-05-01T15:37:45Z</time></trkpt><trkpt lat="43.2527883" lon="2.1766567"><ele>123.0</ele><time>2026-05-01T15:37:45.997Z</time></trkpt><trkpt lat="43.2528267" lon="2.176565"><ele>123.0</ele><time>2026-05-01T15:37:46.997Z</time></trkpt><trkpt lat="43.2528583" lon="2.17649"><ele>123.0</ele><time>2026-05-01T15:37:47.997Z</time></trkpt><trkpt lat="43.25289" lon="2.17636"><ele>123.0</ele><time>2026-05-01T15:37:49.997Z</time></trkpt><trkpt lat="43.252915" lon="2.176275"><ele>123.0</ele><time>2026-05-01T15:37:51.997Z</time></trkpt><trkpt lat="43.2528917" lon="2.1763817"><ele>123.0</ele><time>2026-05-01T15:39:39.998Z</time></trkpt><trkpt lat="43.2528517" lon="2.176455"><ele>123.0</ele><time>2026-05-01T15:39:40.998Z</time></trkpt><trkpt lat="43.2528033" lon="2.1765517"><ele>123.0</ele><time>2026-05-01T15:39:41.997Z</time></trkpt><trkpt lat="43.2527467" lon="2.1766633"><ele>123.0</ele><time>2026-05-01T15:39:43.004Z</time></trkpt><trkpt lat="43.252685" lon="2.1767867"><ele>123.0</ele><time>2026-05-01T15:39:43.997Z</time></trkpt><trkpt lat="43.2526233" lon="2.1769033"><ele>123.00000000000001</ele><time>2026-05-01T15:39:44.999Z</time></trkpt><trkpt lat="43.2525617" lon="2.1770117"><ele>123.00000000000001</ele><time>2026-05-01T15:39:45.997Z</time></trkpt><trkpt lat="43.2525067" lon="2.17712"><ele>123.0</ele><time>2026-05-01T15:39:46.997Z</time></trkpt><trkpt lat="43.25246" lon="2.17722"><ele>123.0</ele><time>2026-05-01T15:39:47.999Z</time></trkpt><trkpt lat="43.25242" lon="2.177305"><ele>123.0</ele><time>2026-05-01T15:39:48.997Z</time></trkpt><trkpt lat="43.2523733" lon="2.1774133"><ele>123.00000000000001</ele><time>2026-05-01T15:39:50.997Z</time></trkpt><trkpt lat="43.2523983" lon="2.1775483"><ele>123.00000000000001</ele><time>2026-05-01T15:39:54.001Z</time></trkpt><trkpt lat="43.2525117" lon="2.177635"><ele>123.0</ele><time>2026-05-01T15:39:56Z</time></trkpt><trkpt lat="43.2525983" lon="2.17767"><ele>123.0</ele><time>2026-05-01T15:39:57.001Z</time></trkpt><trkpt lat="43.2526833" lon="2.17771"><ele>123.0</ele><time>2026-05-01T15:39:58.002Z</time></trkpt><trkpt lat="43.2527733" lon="2.1777467"><ele>123.00000000000001</ele><time>2026-05-01T15:39:58.998Z</time></trkpt><trkpt lat="43.252865" lon="2.1777867"><ele>123.00000000000001</ele><time>2026-05-01T15:39:59.998Z</time></trkpt><trkpt lat="43.25296" lon="2.1778383"><ele>123.0</ele><time>2026-05-01T15:40:00.997Z</time></trkpt><trkpt lat="43.2530483" lon="2.1778817"><ele>123.0</ele><time>2026-05-01T15:40:01.998Z</time></trkpt><trkpt lat="43.2531417" lon="2.1779217"><ele>123.33333333333333</ele><time>2026-05-01T15:40:02.997Z</time></trkpt><trkpt lat="43.253225" lon="2.177965"><ele>123.66666666666666</ele><time>2026-05-01T15:40:03.997Z</time></trkpt><trkpt lat="43.2533083" lon="2.1780017"><ele>124.0</ele><time>2026-05-01T15:40:04.998Z</time></trkpt><trkpt lat="43.253385" lon="2.1780367"><ele>124.33333333333333</ele><time>2026-05-01T15:40:05.998Z</time></trkpt><trkpt lat="43.2534533" lon="2.1780583"><ele>124.66666666666666</ele><time>2026-05-01T15:40:06.998Z</time></trkpt><trkpt lat="43.2535617" lon="2.1781167"><ele>125.0</ele><time>2026-05-01T15:40:08.997Z</time></trkpt><trkpt lat="43.2536567" lon="2.178245"><ele>125.0</ele><time>2026-05-01T15:40:10.997Z</time></trkpt><trkpt lat="43.2536983" lon="2.1783483"><ele>125.0</ele><time>2026-05-01T15:40:11.998Z</time></trkpt><trkpt lat="43.2537517" lon="2.1784567"><ele>125.0</ele><time>2026-05-01T15:40:13Z</time></trkpt><trkpt lat="43.253815" lon="2.178605"><ele>125.0</ele><time>2026-05-01T15:40:13.997Z</time></trkpt><trkpt lat="43.25388" lon="2.1787567"><ele>125.0</ele><time>2026-05-01T15:40:15.004Z</time></trkpt><trkpt lat="43.2539633" lon="2.1789033"><ele>124.5</ele><time>2026-05-01T15:40:15.999Z</time></trkpt><trkpt lat="43.25405" lon="2.179035"><ele>124.0</ele><time>2026-05-01T15:40:16.998Z</time></trkpt><trkpt lat="43.2541483" lon="2.17915"><ele>123.5</ele><time>2026-05-01T15:40:18.001Z</time></trkpt><trkpt lat="43.2542533" lon="2.1792683"><ele>123.0</ele><time>2026-05-01T15:40:18.998Z</time></trkpt><trkpt lat="43.25434" lon="2.179415"><ele>123.0</ele><time>2026-05-01T15:40:19.997Z</time></trkpt><trkpt lat="43.2544167" lon="2.179565"><ele>123.0</ele><time>2026-05-01T15:40:21.001Z</time></trkpt><trkpt lat="43.2544917" lon="2.1797217"><ele>123.0</ele><time>2026-05-01T15:40:22.001Z</time></trkpt><trkpt lat="43.25456" lon="2.1798667"><ele>123.0</ele><time>2026-05-01T15:40:22.999Z</time></trkpt><trkpt lat="43.2546183" lon="2.1800033"><ele>122.60000000000001</ele><time>2026-05-01T15:40:23.997Z</time></trkpt><trkpt lat="43.2546717" lon="2.1801333"><ele>122.20000000000002</ele><time>2026-05-01T15:40:24.999Z</time></trkpt><trkpt lat="43.2547217" lon="2.1802583"><ele>121.8</ele><time>2026-05-01T15:40:26Z</time></trkpt><trkpt lat="43.2547667" lon="2.18037"><ele>121.4</ele><time>2026-05-01T15:40:27Z</time></trkpt><trkpt lat="43.254805" lon="2.18047"><ele>121.0</ele><time>2026-05-01T15:40:27.999Z</time></trkpt><trkpt lat="43.2548417" lon="2.1805567"><ele>120.83333333333334</ele><time>2026-05-01T15:40:28.999Z</time></trkpt><trkpt lat="43.2549067" lon="2.18062"><ele>120.66666666666667</ele><time>2026-05-01T15:40:31.001Z</time></trkpt><trkpt lat="43.2549717" lon="2.180555"><ele>120.5</ele><time>2026-05-01T15:40:32.998Z</time></trkpt><trkpt lat="43.2550167" lon="2.180485"><ele>120.33333333333334</ele><time>2026-05-01T15:40:34.002Z</time></trkpt><trkpt lat="43.255065" lon="2.180415"><ele>120.16666666666667</ele><time>2026-05-01T15:40:34.998Z</time></trkpt><trkpt lat="43.25512" lon="2.1803333"><ele>120.0</ele><time>2026-05-01T15:40:35.999Z</time></trkpt><trkpt lat="43.25518" lon="2.1802583"><ele>120.0</ele><time>2026-05-01T15:40:36.999Z</time></trkpt><trkpt lat="43.2552483" lon="2.1801933"><ele>120.0</ele><time>2026-05-01T15:40:37.998Z</time></trkpt><trkpt lat="43.2553267" lon="2.1801417"><ele>120.0</ele><time>2026-05-01T15:40:38.998Z</time></trkpt><trkpt lat="43.2554183" lon="2.1801033"><ele>120.0</ele><time>2026-05-01T15:40:39.998Z</time></trkpt><trkpt lat="43.25551" lon="2.1800633"><ele>120.0</ele><time>2026-05-01T15:40:40.998Z</time></trkpt><trkpt lat="43.2556083" lon="2.1800383"><ele>120.75</ele><time>2026-05-01T15:40:41.999Z</time></trkpt><trkpt lat="43.255715" lon="2.180015"><ele>121.5</ele><time>2026-05-01T15:40:42.998Z</time></trkpt><trkpt lat="43.2558367" lon="2.1799983"><ele>122.25</ele><time>2026-05-01T15:40:43.999Z</time></trkpt><trkpt lat="43.2559567" lon="2.1799867"><ele>123.0</ele><time>2026-05-01T15:40:44.999Z</time></trkpt><trkpt lat="43.2560867" lon="2.1799717"><ele>123.0</ele><time>2026-05-01T15:40:46Z</time></trkpt><trkpt lat="43.2562267" lon="2.1799617"><ele>123.0</ele><time>2026-05-01T15:40:46.998Z</time></trkpt><trkpt lat="43.2563717" lon="2.1799567"><ele>123.0</ele><time>2026-05-01T15:40:47.999Z</time></trkpt><trkpt lat="43.2565133" lon="2.179945"><ele>123.0</ele><time>2026-05-01T15:40:49.005Z</time></trkpt><trkpt lat="43.2566617" lon="2.1799417"><ele>122.66666666666666</ele><time>2026-05-01T15:40:50.002Z</time></trkpt><trkpt lat="43.2568133" lon="2.1799367"><ele>122.33333333333333</ele><time>2026-05-01T15:40:50.998Z</time></trkpt><trkpt lat="43.2569633" lon="2.17994"><ele>122.0</ele><time>2026-05-01T15:40:51.999Z</time></trkpt><trkpt lat="43.25713" lon="2.1799567"><ele>121.0</ele><time>2026-05-01T15:40:52.999Z</time></trkpt><trkpt lat="43.2572917" lon="2.1799733"><ele>120.0</ele><time>2026-05-01T15:40:54Z</time></trkpt><trkpt lat="43.25745" lon="2.1799817"><ele>119.0</ele><time>2026-05-01T15:40:54.999Z</time></trkpt><trkpt lat="43.2576167" lon="2.1799667"><ele>119.0</ele><time>2026-05-01T15:40:55.999Z</time></trkpt><trkpt lat="43.2577667" lon="2.179945"><ele>119.0</ele><time>2026-05-01T15:40:57Z</time></trkpt><trkpt lat="43.2579033" lon="2.1799217"><ele>119.0</ele><time>2026-05-01T15:40:57.999Z</time></trkpt><trkpt lat="43.2580483" lon="2.1799167"><ele>119.0</ele><time>2026-05-01T15:40:59.006Z</time></trkpt><trkpt lat="43.258165" lon="2.1798933"><ele>119.0</ele><time>2026-05-01T15:40:59.998Z</time></trkpt><trkpt lat="43.2582767" lon="2.179875"><ele>119.0</ele><time>2026-05-01T15:41:00.998Z</time></trkpt><trkpt lat="43.2583833" lon="2.1798767"><ele>119.0</ele><time>2026-05-01T15:41:01.997Z</time></trkpt><trkpt lat="43.2584883" lon="2.1799117"><ele>119.0</ele><time>2026-05-01T15:41:02.999Z</time></trkpt><trkpt lat="43.2586017" lon="2.17996"><ele>119.0</ele><time>2026-05-01T15:41:03.999Z</time></trkpt><trkpt lat="43.25872" lon="2.1800083"><ele>119.0</ele><time>2026-05-01T15:41:04.999Z</time></trkpt><trkpt lat="43.2588367" lon="2.1800417"><ele>119.0</ele><time>2026-05-01T15:41:05.999Z</time></trkpt><trkpt lat="43.2589467" lon="2.1800617"><ele>119.0</ele><time>2026-05-01T15:41:06.999Z</time></trkpt><trkpt lat="43.2590483" lon="2.180085"><ele>119.0</ele><time>2026-05-01T15:41:07.998Z</time></trkpt><trkpt lat="43.2591417" lon="2.1801067"><ele>119.0</ele><time>2026-05-01T15:41:09.009Z</time></trkpt><trkpt lat="43.259225" lon="2.1801167"><ele>119.2</ele><time>2026-05-01T15:41:09.998Z</time></trkpt><trkpt lat="43.2593" lon="2.1801133"><ele>119.4</ele><time>2026-05-01T15:41:10.998Z</time></trkpt><trkpt lat="43.2593667" lon="2.180035"><ele>119.6</ele><time>2026-05-01T15:41:12.998Z</time></trkpt><trkpt lat="43.2593867" lon="2.179865"><ele>119.8</ele><time>2026-05-01T15:41:14.997Z</time></trkpt><trkpt lat="43.2594017" lon="2.1797383"><ele>120.0</ele><time>2026-05-01T15:41:15.997Z</time></trkpt><trkpt lat="43.2594183" lon="2.1796067"><ele>120.0</ele><time>2026-05-01T15:41:16.997Z</time></trkpt><trkpt lat="43.259435" lon="2.179485"><ele>120.0</ele><time>2026-05-01T15:41:17.999Z</time></trkpt><trkpt lat="43.2594517" lon="2.1793767"><ele>120.0</ele><time>2026-05-01T15:41:19.001Z</time></trkpt><trkpt lat="43.25947" lon="2.17928"><ele>120.0</ele><time>2026-05-01T15:41:20Z</time></trkpt><trkpt lat="43.2594833" lon="2.1791933"><ele>120.0</ele><time>2026-05-01T15:41:21.001Z</time></trkpt><trkpt lat="43.2595083" lon="2.1790433"><ele>120.0</ele><time>2026-05-01T15:41:22.998Z</time></trkpt><trkpt lat="43.259535" lon="2.1788867"><ele>120.0</ele><time>2026-05-01T15:41:24.999Z</time></trkpt><trkpt lat="43.2595617" lon="2.1787783"><ele>120.0</ele><time>2026-05-01T15:41:27.001Z</time></trkpt><trkpt lat="43.2596367" lon="2.178665"><ele>120.0</ele><time>2026-05-01T15:41:29Z</time></trkpt><trkpt lat="43.2596983" lon="2.1786133"><ele>120.0</ele><time>2026-05-01T15:41:29.997Z</time></trkpt><trkpt lat="43.259765" lon="2.1785733"><ele>120.0</ele><time>2026-05-01T15:41:30.998Z</time></trkpt><trkpt lat="43.2598567" lon="2.1785617"><ele>120.0</ele><time>2026-05-01T15:41:31.999Z</time></trkpt><trkpt lat="43.259975" lon="2.17856"><ele>120.0</ele><time>2026-05-01T15:41:33.001Z</time></trkpt><trkpt lat="43.2601117" lon="2.1785583"><ele>120.0</ele><time>2026-05-01T15:41:33.998Z</time></trkpt><trkpt lat="43.2602367" lon="2.1785417"><ele>120.0</ele><time>2026-05-01T15:41:34.997Z</time></trkpt><trkpt lat="43.2603733" lon="2.1785267"><ele>120.0</ele><time>2026-05-01T15:41:36.001Z</time></trkpt><trkpt lat="43.26052" lon="2.178505"><ele>119.66666666666666</ele><time>2026-05-01T15:41:37.006Z</time></trkpt><trkpt lat="43.26067" lon="2.1784817"><ele>119.33333333333333</ele><time>2026-05-01T15:41:37.998Z</time></trkpt><trkpt lat="43.26082" lon="2.178455"><ele>119.0</ele><time>2026-05-01T15:41:39Z</time></trkpt><trkpt lat="43.2609817" lon="2.17842"><ele>119.0</ele><time>2026-05-01T15:41:39.999Z</time></trkpt><trkpt lat="43.2611567" lon="2.178385"><ele>119.0</ele><time>2026-05-01T15:41:40.998Z</time></trkpt><trkpt lat="43.2613233" lon="2.17834"><ele>119.0</ele><time>2026-05-01T15:41:42.002Z</time></trkpt><trkpt lat="43.2614933" lon="2.1782867"><ele>119.33333333333333</ele><time>2026-05-01T15:41:43.001Z</time></trkpt><trkpt lat="43.2616667" lon="2.1782333"><ele>119.66666666666666</ele><time>2026-05-01T15:41:43.999Z</time></trkpt><trkpt lat="43.2618433" lon="2.178195"><ele>120.0</ele><time>2026-05-01T15:41:45.005Z</time></trkpt><trkpt lat="43.2620267" lon="2.1781633"><ele>120.0</ele><time>2026-05-01T15:41:46Z</time></trkpt><trkpt lat="43.2622117" lon="2.178145"><ele>120.0</ele><time>2026-05-01T15:41:47Z</time></trkpt><trkpt lat="43.2624" lon="2.178145"><ele>120.0</ele><time>2026-05-01T15:41:48.001Z</time></trkpt><trkpt lat="43.2625883" lon="2.1781617"><ele>120.0</ele><time>2026-05-01T15:41:48.998Z</time></trkpt><trkpt lat="43.2627817" lon="2.1781883"><ele>120.0</ele><time>2026-05-01T15:41:49.997Z</time></trkpt><trkpt lat="43.2629767" lon="2.1782217"><ele>120.0</ele><time>2026-05-01T15:41:51.001Z</time></trkpt><trkpt lat="43.2631783" lon="2.1782583"><ele>120.33333333333334</ele><time>2026-05-01T15:41:51.997Z</time></trkpt><trkpt lat="43.2633817" lon="2.1782933"><ele>120.66666666666667</ele><time>2026-05-01T15:41:53Z</time></trkpt><trkpt lat="43.2635917" lon="2.178325"><ele>121.0</ele><time>2026-05-01T15:41:53.998Z</time></trkpt><trkpt lat="43.2637967" lon="2.1783567"><ele>121.0</ele><time>2026-05-01T15:41:54.999Z</time></trkpt><trkpt lat="43.2640067" lon="2.1783883"><ele>121.0</ele><time>2026-05-01T15:41:55.998Z</time></trkpt><trkpt lat="43.2642117" lon="2.178425"><ele>121.0</ele><time>2026-05-01T15:41:56.997Z</time></trkpt><trkpt lat="43.2644167" lon="2.17847"><ele>121.0</ele><time>2026-05-01T15:41:57.998Z</time></trkpt><trkpt lat="43.264615" lon="2.17852"><ele>121.0</ele><time>2026-05-01T15:41:58.999Z</time></trkpt><trkpt lat="43.2648083" lon="2.1785733"><ele>121.0</ele><time>2026-05-01T15:42:00.002Z</time></trkpt><trkpt lat="43.264995" lon="2.1786317"><ele>121.33333333333334</ele><time>2026-05-01T15:42:00.998Z</time></trkpt><trkpt lat="43.265175" lon="2.1787117"><ele>121.66666666666666</ele><time>2026-05-01T15:42:01.998Z</time></trkpt><trkpt lat="43.2653483" lon="2.1788117"><ele>122.0</ele><time>2026-05-01T15:42:03Z</time></trkpt><trkpt lat="43.2655217" lon="2.17892"><ele>122.66666666666666</ele><time>2026-05-01T15:42:03.997Z</time></trkpt><trkpt lat="43.26569" lon="2.1790367"><ele>123.33333333333334</ele><time>2026-05-01T15:42:04.997Z</time></trkpt><trkpt lat="43.2658517" lon="2.1791533"><ele>124.0</ele><time>2026-05-01T15:42:05.998Z</time></trkpt><trkpt lat="43.2660067" lon="2.17927"><ele>124.0</ele><time>2026-05-01T15:42:07Z</time></trkpt><trkpt lat="43.266165" lon="2.1793683"><ele>124.0</ele><time>2026-05-01T15:42:07.999Z</time></trkpt><trkpt lat="43.2663333" lon="2.1794483"><ele>124.0</ele><time>2026-05-01T15:42:09.005Z</time></trkpt><trkpt lat="43.2665083" lon="2.1795133"><ele>125.0</ele><time>2026-05-01T15:42:10Z</time></trkpt><trkpt lat="43.2666817" lon="2.1795667"><ele>126.0</ele><time>2026-05-01T15:42:10.999Z</time></trkpt><trkpt lat="43.2668533" lon="2.17962"><ele>127.0</ele><time>2026-05-01T15:42:12Z</time></trkpt><trkpt lat="43.2670183" lon="2.1796883"><ele>127.0</ele><time>2026-05-01T15:42:12.998Z</time></trkpt><trkpt lat="43.2671783" lon="2.179785"><ele>127.0</ele><time>2026-05-01T15:42:13.998Z</time></trkpt><trkpt lat="43.2673333" lon="2.1799"><ele>127.0</ele><time>2026-05-01T15:42:14.999Z</time></trkpt><trkpt lat="43.2674817" lon="2.18002"><ele>127.0</ele><time>2026-05-01T15:42:15.998Z</time></trkpt><trkpt lat="43.2676283" lon="2.1801233"><ele>127.0</ele><time>2026-05-01T15:42:16.997Z</time></trkpt><trkpt lat="43.2677683" lon="2.1802083"><ele>127.0</ele><time>2026-05-01T15:42:18Z</time></trkpt><trkpt lat="43.2678983" lon="2.18029"><ele>127.0</ele><time>2026-05-01T15:42:18.997Z</time></trkpt><trkpt lat="43.2680133" lon="2.1803583"><ele>126.99999999999999</ele><time>2026-05-01T15:42:19.998Z</time></trkpt><trkpt lat="43.2681133" lon="2.1804033"><ele>126.99999999999999</ele><time>2026-05-01T15:42:20.999Z</time></trkpt><trkpt lat="43.2681983" lon="2.1804367"><ele>127.0</ele><time>2026-05-01T15:42:21.998Z</time></trkpt><trkpt lat="43.2682633" lon="2.1804667"><ele>127.0</ele><time>2026-05-01T15:42:22.998Z</time></trkpt><trkpt lat="43.268345" lon="2.1805817"><ele>126.8</ele><time>2026-05-01T15:42:24.997Z</time></trkpt><trkpt lat="43.2683533" lon="2.1806733"><ele>126.6</ele><time>2026-05-01T15:42:26Z</time></trkpt><trkpt lat="43.2683183" lon="2.180795"><ele>126.39999999999999</ele><time>2026-05-01T15:42:26.997Z</time></trkpt><trkpt lat="43.2682533" lon="2.1809333"><ele>126.19999999999999</ele><time>2026-05-01T15:42:27.998Z</time></trkpt><trkpt lat="43.2681767" lon="2.1810767"><ele>126.0</ele><time>2026-05-01T15:42:28.997Z</time></trkpt><trkpt lat="43.26809" lon="2.1812083"><ele>126.0</ele><time>2026-05-01T15:42:30.001Z</time></trkpt><trkpt lat="43.2679917" lon="2.181345"><ele>126.0</ele><time>2026-05-01T15:42:30.999Z</time></trkpt><trkpt lat="43.26789" lon="2.1814867"><ele>126.0</ele><time>2026-05-01T15:42:31.998Z</time></trkpt><trkpt lat="43.267785" lon="2.1816317"><ele>126.0</ele><time>2026-05-01T15:42:32.998Z</time></trkpt><trkpt lat="43.2676783" lon="2.1817783"><ele>125.75</ele><time>2026-05-01T15:42:33.997Z</time></trkpt><trkpt lat="43.267585" lon="2.181915"><ele>125.5</ele><time>2026-05-01T15:42:34.998Z</time></trkpt><trkpt lat="43.2674967" lon="2.18204"><ele>125.25</ele><time>2026-05-01T15:42:35.998Z</time></trkpt><trkpt lat="43.2674183" lon="2.1821617"><ele>125.0</ele><time>2026-05-01T15:42:36.999Z</time></trkpt><trkpt lat="43.2673517" lon="2.1822833"><ele>124.99999999999999</ele><time>2026-05-01T15:42:38.001Z</time></trkpt><trkpt lat="43.2673067" lon="2.1824"><ele>125.0</ele><time>2026-05-01T15:42:39Z</time></trkpt><trkpt lat="43.267285" lon="2.1825083"><ele>125.0</ele><time>2026-05-01T15:42:39.998Z</time></trkpt><trkpt lat="43.2672733" lon="2.1826067"><ele>125.0</ele><time>2026-05-01T15:42:41.006Z</time></trkpt><trkpt lat="43.2672833" lon="2.1826967"><ele>124.99999999999999</ele><time>2026-05-01T15:42:41.997Z</time></trkpt><trkpt lat="43.2673883" lon="2.182755"><ele>125.0</ele><time>2026-05-01T15:42:43.998Z</time></trkpt><trkpt lat="43.26747" lon="2.1827833"><ele>125.25</ele><time>2026-05-01T15:42:45Z</time></trkpt><trkpt lat="43.26756" lon="2.182835"><ele>125.5</ele><time>2026-05-01T15:42:45.999Z</time></trkpt><trkpt lat="43.2676583" lon="2.1829233"><ele>125.75</ele><time>2026-05-01T15:42:46.997Z</time></trkpt><trkpt lat="43.2677517" lon="2.183035"><ele>126.0</ele><time>2026-05-01T15:42:47.999Z</time></trkpt><trkpt lat="43.2678417" lon="2.1831433"><ele>125.75</ele><time>2026-05-01T15:42:48.997Z</time></trkpt><trkpt lat="43.267935" lon="2.1832433"><ele>125.5</ele><time>2026-05-01T15:42:49.998Z</time></trkpt><trkpt lat="43.268035" lon="2.1833067"><ele>125.25</ele><time>2026-05-01T15:42:50.998Z</time></trkpt><trkpt lat="43.268145" lon="2.1833367"><ele>125.0</ele><time>2026-05-01T15:42:51.998Z</time></trkpt><trkpt lat="43.2682617" lon="2.1833283"><ele>125.0</ele><time>2026-05-01T15:42:52.997Z</time></trkpt><trkpt lat="43.2683933" lon="2.183305"><ele>125.0</ele><time>2026-05-01T15:42:53.998Z</time></trkpt><trkpt lat="43.2685317" lon="2.1832767"><ele>125.0</ele><time>2026-05-01T15:42:54.997Z</time></trkpt><trkpt lat="43.2686767" lon="2.1832633"><ele>125.0</ele><time>2026-05-01T15:42:55.999Z</time></trkpt><trkpt lat="43.2688283" lon="2.1832767"><ele>125.66666666666666</ele><time>2026-05-01T15:42:56.998Z</time></trkpt><trkpt lat="43.2689933" lon="2.183315"><ele>126.33333333333334</ele><time>2026-05-01T15:42:57.997Z</time></trkpt><trkpt lat="43.2691633" lon="2.1833533"><ele>127.0</ele><time>2026-05-01T15:42:58.997Z</time></trkpt><trkpt lat="43.2693233" lon="2.183385"><ele>127.0</ele><time>2026-05-01T15:42:59.998Z</time></trkpt><trkpt lat="43.2694867" lon="2.1834083"><ele>127.0</ele><time>2026-05-01T15:43:00.998Z</time></trkpt><trkpt lat="43.2696583" lon="2.1834133"><ele>127.0</ele><time>2026-05-01T15:43:01.998Z</time></trkpt><trkpt lat="43.269835" lon="2.183405"><ele>127.0</ele><time>2026-05-01T15:43:02.998Z</time></trkpt><trkpt lat="43.2700117" lon="2.18339"><ele>127.0</ele><time>2026-05-01T15:43:03.997Z</time></trkpt><trkpt lat="43.2701917" lon="2.1833717"><ele>127.0</ele><time>2026-05-01T15:43:04.999Z</time></trkpt><trkpt lat="43.27038" lon="2.1833517"><ele>127.0</ele><time>2026-05-01T15:43:06Z</time></trkpt><trkpt lat="43.270565" lon="2.1833383"><ele>127.0</ele><time>2026-05-01T15:43:07Z</time></trkpt><trkpt lat="43.27075" lon="2.1833267"><ele>127.0</ele><time>2026-05-01T15:43:08.003Z</time></trkpt><trkpt lat="43.2709283" lon="2.1833233"><ele>127.33333333333334</ele><time>2026-05-01T15:43:09Z</time></trkpt><trkpt lat="43.27111" lon="2.18333"><ele>127.66666666666666</ele><time>2026-05-01T15:43:10Z</time></trkpt><trkpt lat="43.27129" lon="2.183345"><ele>128.0</ele><time>2026-05-01T15:43:11Z</time></trkpt><trkpt lat="43.2714667" lon="2.1833567"><ele>128.66666666666666</ele><time>2026-05-01T15:43:12Z</time></trkpt><trkpt lat="43.2716433" lon="2.18335"><ele>129.33333333333334</ele><time>2026-05-01T15:43:13Z</time></trkpt><trkpt lat="43.2718183" lon="2.18333"><ele>130.0</ele><time>2026-05-01T15:43:14Z</time></trkpt><trkpt lat="43.2719917" lon="2.1833083"><ele>130.0</ele><time>2026-05-01T15:43:15Z</time></trkpt><trkpt lat="43.272165" lon="2.18328"><ele>130.0</ele><time>2026-05-01T15:43:15.997Z</time></trkpt><trkpt lat="43.272335" lon="2.1832383"><ele>130.0</ele><time>2026-05-01T15:43:16.998Z</time></trkpt><trkpt lat="43.2725033" lon="2.1831767"><ele>130.33333333333334</ele><time>2026-05-01T15:43:17.998Z</time></trkpt><trkpt lat="43.2726717" lon="2.183105"><ele>130.66666666666666</ele><time>2026-05-01T15:43:18.998Z</time></trkpt><trkpt lat="43.2728367" lon="2.1830367"><ele>131.0</ele><time>2026-05-01T15:43:19.999Z</time></trkpt><trkpt lat="43.27301" lon="2.1829867"><ele>131.33333333333331</ele><time>2026-05-01T15:43:20.999Z</time></trkpt><trkpt lat="43.2731867" lon="2.1829533"><ele>131.66666666666666</ele><time>2026-05-01T15:43:21.998Z</time></trkpt><trkpt lat="43.2733667" lon="2.18293"><ele>132.0</ele><time>2026-05-01T15:43:22.998Z</time></trkpt><trkpt lat="43.2735483" lon="2.1829183"><ele>132.0</ele><time>2026-05-01T15:43:24.001Z</time></trkpt><trkpt lat="43.2737283" lon="2.1829017"><ele>132.0</ele><time>2026-05-01T15:43:24.999Z</time></trkpt><trkpt lat="43.2739017" lon="2.1828717"><ele>132.0</ele><time>2026-05-01T15:43:25.998Z</time></trkpt><trkpt lat="43.2740717" lon="2.1828383"><ele>131.66666666666666</ele><time>2026-05-01T15:43:26.998Z</time></trkpt><trkpt lat="43.2742417" lon="2.1828283"><ele>131.33333333333331</ele><time>2026-05-01T15:43:27.999Z</time></trkpt><trkpt lat="43.274405" lon="2.182845"><ele>131.0</ele><time>2026-05-01T15:43:29Z</time></trkpt><trkpt lat="43.2745567" lon="2.1828833"><ele>131.0</ele><time>2026-05-01T15:43:30Z</time></trkpt><trkpt lat="43.274695" lon="2.1829333"><ele>131.0</ele><time>2026-05-01T15:43:31Z</time></trkpt><trkpt lat="43.2748183" lon="2.1829817"><ele>131.0</ele><time>2026-05-01T15:43:32Z</time></trkpt><trkpt lat="43.2749317" lon="2.183025"><ele>131.0</ele><time>2026-05-01T15:43:33.001Z</time></trkpt><trkpt lat="43.2750367" lon="2.183055"><ele>131.25</ele><time>2026-05-01T15:43:34.001Z</time></trkpt><trkpt lat="43.27514" lon="2.18306"><ele>131.5</ele><time>2026-05-01T15:43:34.997Z</time></trkpt><trkpt lat="43.2752467" lon="2.18304"><ele>131.75</ele><time>2026-05-01T15:43:35.999Z</time></trkpt><trkpt lat="43.2753433" lon="2.1829683"><ele>132.0</ele><time>2026-05-01T15:43:37Z</time></trkpt><trkpt lat="43.2754233" lon="2.1828283"><ele>132.0</ele><time>2026-05-01T15:43:37.999Z</time></trkpt><trkpt lat="43.2755033" lon="2.1826967"><ele>132.0</ele><time>2026-05-01T15:43:39Z</time></trkpt><trkpt lat="43.2755883" lon="2.1825667"><ele>132.0</ele><time>2026-05-01T15:43:39.999Z</time></trkpt><trkpt lat="43.2756983" lon="2.1824633"><ele>132.0</ele><time>2026-05-01T15:43:40.998Z</time></trkpt><trkpt lat="43.2758167" lon="2.18238"><ele>133.0</ele><time>2026-05-01T15:43:41.997Z</time></trkpt><trkpt lat="43.2759483" lon="2.182325"><ele>134.0</ele><time>2026-05-01T15:43:43Z</time></trkpt><trkpt lat="43.2760883" lon="2.182285"><ele>135.0</ele><time>2026-05-01T15:43:44Z</time></trkpt><trkpt lat="43.2762367" lon="2.18224"><ele>136.0</ele><time>2026-05-01T15:43:44.998Z</time></trkpt><trkpt lat="43.276395" lon="2.182205"><ele>135.33333333333334</ele><time>2026-05-01T15:43:45.998Z</time></trkpt><trkpt lat="43.2765483" lon="2.1821717"><ele>134.66666666666666</ele><time>2026-05-01T15:43:46.999Z</time></trkpt><trkpt lat="43.276695" lon="2.1821267"><ele>134.0</ele><time>2026-05-01T15:43:48Z</time></trkpt><trkpt lat="43.2768433" lon="2.1820783"><ele>134.0</ele><time>2026-05-01T15:43:48.999Z</time></trkpt><trkpt lat="43.2769883" lon="2.1820367"><ele>134.0</ele><time>2026-05-01T15:43:50.002Z</time></trkpt><trkpt lat="43.2771233" lon="2.1820033"><ele>134.0</ele><time>2026-05-01T15:43:51Z</time></trkpt><trkpt lat="43.2772467" lon="2.1819683"><ele>134.0</ele><time>2026-05-01T15:43:51.998Z</time></trkpt><trkpt lat="43.2773617" lon="2.1819367"><ele>134.8</ele><time>2026-05-01T15:43:52.999Z</time></trkpt><trkpt lat="43.27747" lon="2.1819117"><ele>135.60000000000002</ele><time>2026-05-01T15:43:53.999Z</time></trkpt><trkpt lat="43.2775767" lon="2.18191"><ele>136.4</ele><time>2026-05-01T15:43:54.998Z</time></trkpt><trkpt lat="43.277685" lon="2.1819333"><ele>137.20000000000002</ele><time>2026-05-01T15:43:55.998Z</time></trkpt><trkpt lat="43.2777933" lon="2.18195"><ele>138.0</ele><time>2026-05-01T15:43:56.998Z</time></trkpt><trkpt lat="43.2779067" lon="2.1819583"><ele>138.0</ele><time>2026-05-01T15:43:57.998Z</time></trkpt><trkpt lat="43.278025" lon="2.1819317"><ele>138.0</ele><time>2026-05-01T15:43:58.998Z</time></trkpt><trkpt lat="43.27814" lon="2.1818833"><ele>138.0</ele><time>2026-05-01T15:43:59.998Z</time></trkpt><trkpt lat="43.27825" lon="2.1818217"><ele>138.0</ele><time>2026-05-01T15:44:00.998Z</time></trkpt><trkpt lat="43.27836" lon="2.1817583"><ele>139.25</ele><time>2026-05-01T15:44:01.998Z</time></trkpt><trkpt lat="43.2784733" lon="2.1817017"><ele>140.5</ele><time>2026-05-01T15:44:02.999Z</time></trkpt><trkpt lat="43.2785933" lon="2.1816833"><ele>141.75</ele><time>2026-05-01T15:44:03.999Z</time></trkpt><trkpt lat="43.27871" lon="2.1817033"><ele>143.0</ele><time>2026-05-01T15:44:04.999Z</time></trkpt><trkpt lat="43.2788233" lon="2.1817683"><ele>143.0</ele><time>2026-05-01T15:44:05.999Z</time></trkpt><trkpt lat="43.2789183" lon="2.181845"><ele>143.0</ele><time>2026-05-01T15:44:07.001Z</time></trkpt><trkpt lat="43.2790183" lon="2.1819283"><ele>143.0</ele><time>2026-05-01T15:44:07.999Z</time></trkpt><trkpt lat="43.27912" lon="2.1820083"><ele>143.0</ele><time>2026-05-01T15:44:09Z</time></trkpt><trkpt lat="43.2792283" lon="2.1820667"><ele>143.0</ele><time>2026-05-01T15:44:09.999Z</time></trkpt><trkpt lat="43.2793367" lon="2.1820967"><ele>143.0</ele><time>2026-05-01T15:44:11.001Z</time></trkpt><trkpt lat="43.2794667" lon="2.1820883"><ele>143.0</ele><time>2026-05-01T15:44:12Z</time></trkpt><trkpt lat="43.279625" lon="2.182005"><ele>143.0</ele><time>2026-05-01T15:44:13Z</time></trkpt><trkpt lat="43.279785" lon="2.1819183"><ele>143.25</ele><time>2026-05-01T15:44:14Z</time></trkpt><trkpt lat="43.2799217" lon="2.1817933"><ele>143.5</ele><time>2026-05-01T15:44:15Z</time></trkpt><trkpt lat="43.280035" lon="2.1816667"><ele>143.75</ele><time>2026-05-01T15:44:16.001Z</time></trkpt><trkpt lat="43.28014" lon="2.1815417"><ele>144.0</ele><time>2026-05-01T15:44:16.998Z</time></trkpt><trkpt lat="43.28022" lon="2.1813717"><ele>143.5</ele><time>2026-05-01T15:44:18Z</time></trkpt><trkpt lat="43.280275" lon="2.181195"><ele>143.0</ele><time>2026-05-01T15:44:19.001Z</time></trkpt><trkpt lat="43.2803217" lon="2.1810133"><ele>142.5</ele><time>2026-05-01T15:44:20.001Z</time></trkpt><trkpt lat="43.2803517" lon="2.180855"><ele>142.0</ele><time>2026-05-01T15:44:21.001Z</time></trkpt><trkpt lat="43.2803883" lon="2.1806983"><ele>142.0</ele><time>2026-05-01T15:44:22.003Z</time></trkpt><trkpt lat="43.2804417" lon="2.1805617"><ele>142.0</ele><time>2026-05-01T15:44:22.999Z</time></trkpt><trkpt lat="43.2805133" lon="2.1804317"><ele>142.0</ele><time>2026-05-01T15:44:23.999Z</time></trkpt><trkpt lat="43.2806017" lon="2.1803333"><ele>142.0</ele><time>2026-05-01T15:44:25.001Z</time></trkpt><trkpt lat="43.2807" lon="2.1802567"><ele>142.0</ele><time>2026-05-01T15:44:26.003Z</time></trkpt><trkpt lat="43.28082" lon="2.18021"><ele>142.0</ele><time>2026-05-01T15:44:26.999Z</time></trkpt><trkpt lat="43.2809533" lon="2.1801683"><ele>142.0</ele><time>2026-05-01T15:44:28Z</time></trkpt><trkpt lat="43.2810983" lon="2.18014"><ele>142.0</ele><time>2026-05-01T15:44:29Z</time></trkpt><trkpt lat="43.2812417" lon="2.180105"><ele>142.0</ele><time>2026-05-01T15:44:29.999Z</time></trkpt><trkpt lat="43.2813867" lon="2.1800767"><ele>142.0</ele><time>2026-05-01T15:44:31Z</time></trkpt><trkpt lat="43.2815333" lon="2.1800583"><ele>142.0</ele><time>2026-05-01T15:44:32.002Z</time></trkpt><trkpt lat="43.2816767" lon="2.18004"><ele>142.0</ele><time>2026-05-01T15:44:33Z</time></trkpt><trkpt lat="43.2818233" lon="2.1800267"><ele>142.5</ele><time>2026-05-01T15:44:34Z</time></trkpt><trkpt lat="43.2819717" lon="2.1800283"><ele>143.0</ele><time>2026-05-01T15:44:34.998Z</time></trkpt><trkpt lat="43.2821167" lon="2.1800367"><ele>143.5</ele><time>2026-05-01T15:44:35.999Z</time></trkpt><trkpt lat="43.28227" lon="2.180065"><ele>144.0</ele><time>2026-05-01T15:44:37.001Z</time></trkpt><trkpt lat="43.2824217" lon="2.1800967"><ele>144.5</ele><time>2026-05-01T15:44:38.001Z</time></trkpt><trkpt lat="43.2825683" lon="2.1801267"><ele>145.0</ele><time>2026-05-01T15:44:39Z</time></trkpt><trkpt lat="43.2827167" lon="2.1801433"><ele>145.5</ele><time>2026-05-01T15:44:40.002Z</time></trkpt><trkpt lat="43.282865" lon="2.1801683"><ele>146.0</ele><time>2026-05-01T15:44:41.001Z</time></trkpt><trkpt lat="43.2830117" lon="2.180175"><ele>146.25</ele><time>2026-05-01T15:44:42Z</time></trkpt><trkpt lat="43.28315" lon="2.1801717"><ele>146.5</ele><time>2026-05-01T15:44:42.999Z</time></trkpt><trkpt lat="43.2832917" lon="2.1801333"><ele>146.75</ele><time>2026-05-01T15:44:44Z</time></trkpt><trkpt lat="43.2834317" lon="2.1800583"><ele>147.0</ele><time>2026-05-01T15:44:45.001Z</time></trkpt><trkpt lat="43.283565" lon="2.1799533"><ele>145.33333333333334</ele><time>2026-05-01T15:44:46.002Z</time></trkpt><trkpt lat="43.2836933" lon="2.1798383"><ele>143.66666666666669</ele><time>2026-05-01T15:44:46.998Z</time></trkpt><trkpt lat="43.2838017" lon="2.1797"><ele>142.0</ele><time>2026-05-01T15:44:47.999Z</time></trkpt><trkpt lat="43.2839133" lon="2.1795533"><ele>142.33333333333334</ele><time>2026-05-01T15:44:48.998Z</time></trkpt><trkpt lat="43.284015" lon="2.1793783"><ele>142.66666666666666</ele><time>2026-05-01T15:44:50Z</time></trkpt><trkpt lat="43.2840917" lon="2.1791683"><ele>143.0</ele><time>2026-05-01T15:44:50.999Z</time></trkpt><trkpt lat="43.2841617" lon="2.1789583"><ele>143.0</ele><time>2026-05-01T15:44:51.998Z</time></trkpt><trkpt lat="43.2842267" lon="2.1787567"><ele>143.0</ele><time>2026-05-01T15:44:52.999Z</time></trkpt><trkpt lat="43.2842883" lon="2.178555"><ele>143.0</ele><time>2026-05-01T15:44:53.999Z</time></trkpt><trkpt lat="43.2843533" lon="2.17837"><ele>143.0</ele><time>2026-05-01T15:44:54.999Z</time></trkpt><trkpt lat="43.2844167" lon="2.1782017"><ele>143.0</ele><time>2026-05-01T15:44:55.998Z</time></trkpt><trkpt lat="43.28449" lon="2.17805"><ele>143.0</ele><time>2026-05-01T15:44:57Z</time></trkpt><trkpt lat="43.2845733" lon="2.1779217"><ele>143.0</ele><time>2026-05-01T15:44:57.999Z</time></trkpt><trkpt lat="43.2846583" lon="2.177845"><ele>143.4</ele><time>2026-05-01T15:44:59Z</time></trkpt><trkpt lat="43.2847483" lon="2.177805"><ele>143.8</ele><time>2026-05-01T15:44:59.998Z</time></trkpt><trkpt lat="43.284835" lon="2.1778167"><ele>144.2</ele><time>2026-05-01T15:45:01Z</time></trkpt><trkpt lat="43.2849233" lon="2.1778633"><ele>144.6</ele><time>2026-05-01T15:45:02.001Z</time></trkpt><trkpt lat="43.2850167" lon="2.1779583"><ele>145.0</ele><time>2026-05-01T15:45:02.999Z</time></trkpt><trkpt lat="43.2851183" lon="2.17807"><ele>145.75</ele><time>2026-05-01T15:45:03.998Z</time></trkpt><trkpt lat="43.2852217" lon="2.17819"><ele>146.5</ele><time>2026-05-01T15:45:04.998Z</time></trkpt><trkpt lat="43.2853383" lon="2.17829"><ele>147.25</ele><time>2026-05-01T15:45:05.999Z</time></trkpt><trkpt lat="43.2854633" lon="2.1783617"><ele>148.0</ele><time>2026-05-01T15:45:06.998Z</time></trkpt><trkpt lat="43.2856117" lon="2.1784083"><ele>148.0</ele><time>2026-05-01T15:45:07.998Z</time></trkpt><trkpt lat="43.285775" lon="2.1784183"><ele>148.0</ele><time>2026-05-01T15:45:08.999Z</time></trkpt><trkpt lat="43.28594" lon="2.1784033"><ele>148.0</ele><time>2026-05-01T15:45:09.998Z</time></trkpt><trkpt lat="43.2861017" lon="2.1783583"><ele>148.0</ele><time>2026-05-01T15:45:10.998Z</time></trkpt><trkpt lat="43.2862733" lon="2.17831"><ele>148.0</ele><time>2026-05-01T15:45:11.998Z</time></trkpt><trkpt lat="43.2864467" lon="2.1782517"><ele>148.0</ele><time>2026-05-01T15:45:12.999Z</time></trkpt><trkpt lat="43.2866217" lon="2.1781767"><ele>147.66666666666669</ele><time>2026-05-01T15:45:14.001Z</time></trkpt><trkpt lat="43.2867933" lon="2.1780783"><ele>147.33333333333334</ele><time>2026-05-01T15:45:15.001Z</time></trkpt><trkpt lat="43.28696" lon="2.1779517"><ele>147.0</ele><time>2026-05-01T15:45:15.999Z</time></trkpt><trkpt lat="43.2871167" lon="2.177805"><ele>149.33333333333334</ele><time>2026-05-01T15:45:17.007Z</time></trkpt><trkpt lat="43.287275" lon="2.1776567"><ele>151.66666666666669</ele><time>2026-05-01T15:45:18Z</time></trkpt><trkpt lat="43.2874333" lon="2.177525"><ele>154.0</ele><time>2026-05-01T15:45:18.999Z</time></trkpt><trkpt lat="43.2875983" lon="2.1773933"><ele>152.33333333333334</ele><time>2026-05-01T15:45:19.999Z</time></trkpt><trkpt lat="43.2877683" lon="2.177275"><ele>150.66666666666666</ele><time>2026-05-01T15:45:20.999Z</time></trkpt><trkpt lat="43.28794" lon="2.1771533"><ele>149.0</ele><time>2026-05-01T15:45:22Z</time></trkpt><trkpt lat="43.2881167" lon="2.1770267"><ele>149.0</ele><time>2026-05-01T15:45:23Z</time></trkpt><trkpt lat="43.2882967" lon="2.1769167"><ele>149.0</ele><time>2026-05-01T15:45:23.998Z</time></trkpt><trkpt lat="43.2884683" lon="2.176805"><ele>149.0</ele><time>2026-05-01T15:45:24.998Z</time></trkpt><trkpt lat="43.28863" lon="2.1766983"><ele>149.0</ele><time>2026-05-01T15:45:25.999Z</time></trkpt><trkpt lat="43.288785" lon="2.1765983"><ele>149.0</ele><time>2026-05-01T15:45:26.999Z</time></trkpt><trkpt lat="43.2889417" lon="2.1765067"><ele>149.0</ele><time>2026-05-01T15:45:27.998Z</time></trkpt><trkpt lat="43.2891183" lon="2.17646"><ele>149.33333333333331</ele><time>2026-05-01T15:45:29.004Z</time></trkpt><trkpt lat="43.289295" lon="2.1764083"><ele>149.66666666666666</ele><time>2026-05-01T15:45:30Z</time></trkpt><trkpt lat="43.2894767" lon="2.17635"><ele>150.0</ele><time>2026-05-01T15:45:31Z</time></trkpt><trkpt lat="43.2896633" lon="2.176295"><ele>149.33333333333334</ele><time>2026-05-01T15:45:31.998Z</time></trkpt><trkpt lat="43.2898533" lon="2.17624"><ele>148.66666666666669</ele><time>2026-05-01T15:45:33Z</time></trkpt><trkpt lat="43.2900333" lon="2.1761883"><ele>148.0</ele><time>2026-05-01T15:45:33.998Z</time></trkpt><trkpt lat="43.2902" lon="2.1761367"><ele>148.0</ele><time>2026-05-01T15:45:34.998Z</time></trkpt><trkpt lat="43.290355" lon="2.1760933"><ele>148.0</ele><time>2026-05-01T15:45:36.003Z</time></trkpt><trkpt lat="43.2905017" lon="2.1760483"><ele>148.0</ele><time>2026-05-01T15:45:36.998Z</time></trkpt><trkpt lat="43.2906383" lon="2.1759917"><ele>148.0</ele><time>2026-05-01T15:45:37.997Z</time></trkpt><trkpt lat="43.2907733" lon="2.1759083"><ele>148.0</ele><time>2026-05-01T15:45:38.998Z</time></trkpt><trkpt lat="43.29089" lon="2.175795"><ele>148.0</ele><time>2026-05-01T15:45:39.998Z</time></trkpt><trkpt lat="43.2910067" lon="2.1756683"><ele>148.0</ele><time>2026-05-01T15:45:40.998Z</time></trkpt><trkpt lat="43.2911183" lon="2.1755333"><ele>148.0</ele><time>2026-05-01T15:45:41.998Z</time></trkpt><trkpt lat="43.2912283" lon="2.1753783"><ele>148.0</ele><time>2026-05-01T15:45:42.998Z</time></trkpt><trkpt lat="43.291355" lon="2.175245"><ele>148.0</ele><time>2026-05-01T15:45:43.998Z</time></trkpt><trkpt lat="43.291475" lon="2.1751183"><ele>148.5</ele><time>2026-05-01T15:45:44.998Z</time></trkpt><trkpt lat="43.291605" lon="2.1750133"><ele>149.0</ele><time>2026-05-01T15:45:45.998Z</time></trkpt><trkpt lat="43.2917183" lon="2.17492"><ele>149.5</ele><time>2026-05-01T15:45:47Z</time></trkpt><trkpt lat="43.291825" lon="2.17481"><ele>150.0</ele><time>2026-05-01T15:45:47.997Z</time></trkpt><trkpt lat="43.2919233" lon="2.1746917"><ele>150.0</ele><time>2026-05-01T15:45:49Z</time></trkpt><trkpt lat="43.292015" lon="2.1745633"><ele>150.0</ele><time>2026-05-01T15:45:49.998Z</time></trkpt><trkpt lat="43.2920967" lon="2.1744433"><ele>150.0</ele><time>2026-05-01T15:45:50.998Z</time></trkpt><trkpt lat="43.2921767" lon="2.1743317"><ele>150.0</ele><time>2026-05-01T15:45:52Z</time></trkpt><trkpt lat="43.2922367" lon="2.174225"><ele>151.0</ele><time>2026-05-01T15:45:52.999Z</time></trkpt><trkpt lat="43.2922883" lon="2.174135"><ele>152.0</ele><time>2026-05-01T15:45:54Z</time></trkpt><trkpt lat="43.2923283" lon="2.17405"><ele>153.0</ele><time>2026-05-01T15:45:54.997Z</time></trkpt><trkpt lat="43.2923583" lon="2.1739733"><ele>154.0</ele><time>2026-05-01T15:45:55.997Z</time></trkpt><trkpt lat="43.292395" lon="2.1738683"><ele>155.0</ele><time>2026-05-01T15:45:57.997Z</time></trkpt><trkpt lat="43.292425" lon="2.1737583"><ele>156.0</ele><time>2026-05-01T15:45:59.997Z</time></trkpt><trkpt lat="43.292455" lon="2.1736217"><ele>156.0</ele><time>2026-05-01T15:46:01.997Z</time></trkpt><trkpt lat="43.2924883" lon="2.1734767"><ele>156.0</ele><time>2026-05-01T15:46:03.997Z</time></trkpt><trkpt lat="43.2925317" lon="2.1733383"><ele>156.0</ele><time>2026-05-01T15:46:05.999Z</time></trkpt><trkpt lat="43.292595" lon="2.1732083"><ele>156.0</ele><time>2026-05-01T15:46:08Z</time></trkpt><trkpt lat="43.292675" lon="2.1731017"><ele>156.0</ele><time>2026-05-01T15:46:09.998Z</time></trkpt><trkpt lat="43.292755" lon="2.173"><ele>155.83333333333334</ele><time>2026-05-01T15:46:11.998Z</time></trkpt><trkpt lat="43.29283" lon="2.1729167"><ele>155.66666666666666</ele><time>2026-05-01T15:46:13.996Z</time></trkpt><trkpt lat="43.2928933" lon="2.1728517"><ele>155.5</ele><time>2026-05-01T15:46:15.999Z</time></trkpt><trkpt lat="43.29296" lon="2.1728217"><ele>155.33333333333331</ele><time>2026-05-01T15:46:17.997Z</time></trkpt><trkpt lat="43.2930283" lon="2.1728167"><ele>155.16666666666666</ele><time>2026-05-01T15:46:19.998Z</time></trkpt><trkpt lat="43.293075" lon="2.1729217"><ele>155.0</ele><time>2026-05-01T15:46:21.998Z</time></trkpt><trkpt lat="43.29311" lon="2.1730467"><ele>155.8</ele><time>2026-05-01T15:46:23.998Z</time></trkpt><trkpt lat="43.2931683" lon="2.1731967"><ele>156.6</ele><time>2026-05-01T15:46:25.997Z</time></trkpt><trkpt lat="43.2932183" lon="2.1732883"><ele>157.4</ele><time>2026-05-01T15:46:26.997Z</time></trkpt><trkpt lat="43.293285" lon="2.1733733"><ele>158.2</ele><time>2026-05-01T15:46:27.998Z</time></trkpt><trkpt lat="43.2933767" lon="2.1734383"><ele>159.0</ele><time>2026-05-01T15:46:28.998Z</time></trkpt><trkpt lat="43.29348" lon="2.1734817"><ele>159.0</ele><time>2026-05-01T15:46:29.997Z</time></trkpt><trkpt lat="43.29359" lon="2.17351"><ele>159.0</ele><time>2026-05-01T15:46:31Z</time></trkpt><trkpt lat="43.2937167" lon="2.1735317"><ele>159.0</ele><time>2026-05-01T15:46:31.997Z</time></trkpt><trkpt lat="43.2938483" lon="2.1735667"><ele>159.0</ele><time>2026-05-01T15:46:32.997Z</time></trkpt><trkpt lat="43.2939717" lon="2.17362"><ele>157.75</ele><time>2026-05-01T15:46:33.998Z</time></trkpt><trkpt lat="43.2940933" lon="2.1737"><ele>156.5</ele><time>2026-05-01T15:46:34.997Z</time></trkpt><trkpt lat="43.2942167" lon="2.173805"><ele>155.25</ele><time>2026-05-01T15:46:35.997Z</time></trkpt><trkpt lat="43.2943367" lon="2.1739333"><ele>154.0</ele><time>2026-05-01T15:46:36.997Z</time></trkpt><trkpt lat="43.2944517" lon="2.1740633"><ele>154.5</ele><time>2026-05-01T15:46:37.999Z</time></trkpt><trkpt lat="43.2945633" lon="2.1741867"><ele>155.0</ele><time>2026-05-01T15:46:39Z</time></trkpt><trkpt lat="43.294675" lon="2.1743083"><ele>155.5</ele><time>2026-05-01T15:46:39.997Z</time></trkpt><trkpt lat="43.2947817" lon="2.1744267"><ele>156.0</ele><time>2026-05-01T15:46:40.999Z</time></trkpt><trkpt lat="43.2948933" lon="2.1745367"><ele>156.0</ele><time>2026-05-01T15:46:41.997Z</time></trkpt><trkpt lat="43.2950083" lon="2.17464"><ele>156.0</ele><time>2026-05-01T15:46:42.996Z</time></trkpt><trkpt lat="43.2951233" lon="2.1747167"><ele>156.0</ele><time>2026-05-01T15:46:43.998Z</time></trkpt><trkpt lat="43.2952333" lon="2.1747767"><ele>156.0</ele><time>2026-05-01T15:46:44.997Z</time></trkpt><trkpt lat="43.29534" lon="2.1748283"><ele>156.0</ele><time>2026-05-01T15:46:45.997Z</time></trkpt><trkpt lat="43.295445" lon="2.1748733"><ele>156.0</ele><time>2026-05-01T15:46:46.997Z</time></trkpt><trkpt lat="43.2955483" lon="2.1749033"><ele>156.0</ele><time>2026-05-01T15:46:47.997Z</time></trkpt><trkpt lat="43.2956483" lon="2.17491"><ele>156.0</ele><time>2026-05-01T15:46:48.997Z</time></trkpt><trkpt lat="43.2957467" lon="2.1748917"><ele>156.0</ele><time>2026-05-01T15:46:49.997Z</time></trkpt><trkpt lat="43.2958517" lon="2.1748467"><ele>156.0</ele><time>2026-05-01T15:46:51.009Z</time></trkpt><trkpt lat="43.2959617" lon="2.17478"><ele>156.0</ele><time>2026-05-01T15:46:51.997Z</time></trkpt><trkpt lat="43.2960767" lon="2.1747033"><ele>156.0</ele><time>2026-05-01T15:46:52.998Z</time></trkpt><trkpt lat="43.2961967" lon="2.1746217"><ele>156.0</ele><time>2026-05-01T15:46:53.997Z</time></trkpt><trkpt lat="43.2963183" lon="2.1745283"><ele>156.5</ele><time>2026-05-01T15:46:54.997Z</time></trkpt><trkpt lat="43.296435" lon="2.1744167"><ele>157.0</ele><time>2026-05-01T15:46:55.997Z</time></trkpt><trkpt lat="43.2965417" lon="2.1742917"><ele>157.5</ele><time>2026-05-01T15:46:56.998Z</time></trkpt><trkpt lat="43.296645" lon="2.1741567"><ele>158.0</ele><time>2026-05-01T15:46:57.998Z</time></trkpt><trkpt lat="43.29675" lon="2.1740267"><ele>158.0</ele><time>2026-05-01T15:46:58.998Z</time></trkpt><trkpt lat="43.2968667" lon="2.1739117"><ele>158.0</ele><time>2026-05-01T15:46:59.997Z</time></trkpt><trkpt lat="43.2969933" lon="2.1738067"><ele>158.0</ele><time>2026-05-01T15:47:01.003Z</time></trkpt><trkpt lat="43.2971233" lon="2.1737183"><ele>158.0</ele><time>2026-05-01T15:47:01.997Z</time></trkpt><trkpt lat="43.297255" lon="2.1736433"><ele>158.75</ele><time>2026-05-01T15:47:02.998Z</time></trkpt><trkpt lat="43.2973917" lon="2.1735733"><ele>159.5</ele><time>2026-05-01T15:47:03.998Z</time></trkpt><trkpt lat="43.2975317" lon="2.17352"><ele>160.25</ele><time>2026-05-01T15:47:04.996Z</time></trkpt><trkpt lat="43.2976817" lon="2.1735017"><ele>161.0</ele><time>2026-05-01T15:47:05.997Z</time></trkpt><trkpt lat="43.2978367" lon="2.1735233"><ele>161.0</ele><time>2026-05-01T15:47:06.997Z</time></trkpt><trkpt lat="43.2980033" lon="2.1735667"><ele>161.0</ele><time>2026-05-01T15:47:08Z</time></trkpt><trkpt lat="43.2981717" lon="2.173615"><ele>161.0</ele><time>2026-05-01T15:47:08.997Z</time></trkpt><trkpt lat="43.2983417" lon="2.173665"><ele>160.33333333333331</ele><time>2026-05-01T15:47:09.997Z</time></trkpt><trkpt lat="43.2985083" lon="2.17372"><ele>159.66666666666666</ele><time>2026-05-01T15:47:10.997Z</time></trkpt><trkpt lat="43.2986733" lon="2.1737667"><ele>159.0</ele><time>2026-05-01T15:47:11.997Z</time></trkpt><trkpt lat="43.29884" lon="2.1738017"><ele>158.33333333333334</ele><time>2026-05-01T15:47:12.998Z</time></trkpt><trkpt lat="43.299005" lon="2.1738283"><ele>157.66666666666669</ele><time>2026-05-01T15:47:13.998Z</time></trkpt><trkpt lat="43.2991767" lon="2.1738417"><ele>157.0</ele><time>2026-05-01T15:47:14.997Z</time></trkpt><trkpt lat="43.2993567" lon="2.1738417"><ele>157.0</ele><time>2026-05-01T15:47:16.002Z</time></trkpt><trkpt lat="43.2995417" lon="2.1738233"><ele>157.0</ele><time>2026-05-01T15:47:16.998Z</time></trkpt><trkpt lat="43.2997283" lon="2.17379"><ele>157.0</ele><time>2026-05-01T15:47:17.996Z</time></trkpt><trkpt lat="43.299905" lon="2.1737533"><ele>157.0</ele><time>2026-05-01T15:47:19Z</time></trkpt><trkpt lat="43.3000717" lon="2.17371"><ele>157.0</ele><time>2026-05-01T15:47:19.998Z</time></trkpt><trkpt lat="43.3002217" lon="2.1736567"><ele>157.0</ele><time>2026-05-01T15:47:21.004Z</time></trkpt><trkpt lat="43.3003633" lon="2.1735933"><ele>157.0</ele><time>2026-05-01T15:47:21.998Z</time></trkpt><trkpt lat="43.3005" lon="2.17351"><ele>157.0</ele><time>2026-05-01T15:47:22.997Z</time></trkpt><trkpt lat="43.3006333" lon="2.1734167"><ele>157.0</ele><time>2026-05-01T15:47:23.997Z</time></trkpt><trkpt lat="43.300755" lon="2.17331"><ele>157.0</ele><time>2026-05-01T15:47:24.997Z</time></trkpt><trkpt lat="43.3008683" lon="2.1732133"><ele>157.5</ele><time>2026-05-01T15:47:25.998Z</time></trkpt><trkpt lat="43.3009767" lon="2.1731233"><ele>158.0</ele><time>2026-05-01T15:47:26.998Z</time></trkpt><trkpt lat="43.301085" lon="2.17305"><ele>158.5</ele><time>2026-05-01T15:47:27.996Z</time></trkpt><trkpt lat="43.30119" lon="2.1729833"><ele>159.0</ele><time>2026-05-01T15:47:28.999Z</time></trkpt><trkpt lat="43.3012933" lon="2.172935"><ele>159.0</ele><time>2026-05-01T15:47:29.999Z</time></trkpt><trkpt lat="43.3014" lon="2.1728967"><ele>159.0</ele><time>2026-05-01T15:47:31.004Z</time></trkpt><trkpt lat="43.3015067" lon="2.1728583"><ele>159.0</ele><time>2026-05-01T15:47:32Z</time></trkpt><trkpt lat="43.301615" lon="2.1728283"><ele>159.0</ele><time>2026-05-01T15:47:32.999Z</time></trkpt><trkpt lat="43.30172" lon="2.1727933"><ele>159.0</ele><time>2026-05-01T15:47:33.998Z</time></trkpt><trkpt lat="43.3018417" lon="2.1727633"><ele>159.75</ele><time>2026-05-01T15:47:34.998Z</time></trkpt><trkpt lat="43.3019717" lon="2.1727383"><ele>160.5</ele><time>2026-05-01T15:47:35.999Z</time></trkpt><trkpt lat="43.3021083" lon="2.17271"><ele>161.25</ele><time>2026-05-01T15:47:37.001Z</time></trkpt><trkpt lat="43.3022533" lon="2.1726717"><ele>162.0</ele><time>2026-05-01T15:47:37.999Z</time></trkpt><trkpt lat="43.3023967" lon="2.1726317"><ele>163.33333333333334</ele><time>2026-05-01T15:47:38.998Z</time></trkpt><trkpt lat="43.3025383" lon="2.1726"><ele>164.66666666666669</ele><time>2026-05-01T15:47:39.999Z</time></trkpt><trkpt lat="43.3026933" lon="2.1725583"><ele>166.0</ele><time>2026-05-01T15:47:40.998Z</time></trkpt><trkpt lat="43.302835" lon="2.1724933"><ele>166.0</ele><time>2026-05-01T15:47:41.998Z</time></trkpt><trkpt lat="43.3029733" lon="2.1724067"><ele>166.0</ele><time>2026-05-01T15:47:42.997Z</time></trkpt><trkpt lat="43.3031067" lon="2.1722933"><ele>166.0</ele><time>2026-05-01T15:47:43.997Z</time></trkpt><trkpt lat="43.3032317" lon="2.1721683"><ele>165.5</ele><time>2026-05-01T15:47:44.998Z</time></trkpt><trkpt lat="43.3033383" lon="2.172035"><ele>165.0</ele><time>2026-05-01T15:47:45.998Z</time></trkpt><trkpt lat="43.30343" lon="2.1719017"><ele>164.5</ele><time>2026-05-01T15:47:46.997Z</time></trkpt><trkpt lat="43.3035167" lon="2.1717567"><ele>164.0</ele><time>2026-05-01T15:47:47.997Z</time></trkpt><trkpt lat="43.3035933" lon="2.171625"><ele>163.5</ele><time>2026-05-01T15:47:48.998Z</time></trkpt><trkpt lat="43.3036533" lon="2.17148"><ele>163.0</ele><time>2026-05-01T15:47:49.997Z</time></trkpt><trkpt lat="43.3037083" lon="2.17132"><ele>162.5</ele><time>2026-05-01T15:47:50.997Z</time></trkpt><trkpt lat="43.3037417" lon="2.1711767"><ele>162.0</ele><time>2026-05-01T15:47:51.998Z</time></trkpt><trkpt lat="43.303785" lon="2.17103"><ele>162.0</ele><time>2026-05-01T15:47:52.998Z</time></trkpt><trkpt lat="43.30383" lon="2.1708917"><ele>162.0</ele><time>2026-05-01T15:47:54.001Z</time></trkpt><trkpt lat="43.30388" lon="2.1707683"><ele>162.0</ele><time>2026-05-01T15:47:54.998Z</time></trkpt><trkpt lat="43.3039467" lon="2.170655"><ele>162.0</ele><time>2026-05-01T15:47:56Z</time></trkpt><trkpt lat="43.3040283" lon="2.17055"><ele>162.0</ele><time>2026-05-01T15:47:56.997Z</time></trkpt><trkpt lat="43.3041183" lon="2.17045"><ele>162.75</ele><time>2026-05-01T15:47:57.997Z</time></trkpt><trkpt lat="43.3042133" lon="2.1703483"><ele>163.5</ele><time>2026-05-01T15:47:58.997Z</time></trkpt><trkpt lat="43.3043133" lon="2.17025"><ele>164.25</ele><time>2026-05-01T15:47:59.998Z</time></trkpt><trkpt lat="43.30441" lon="2.1701617"><ele>165.0</ele><time>2026-05-01T15:48:00.997Z</time></trkpt><trkpt lat="43.3045133" lon="2.170075"><ele>165.0</ele><time>2026-05-01T15:48:01.998Z</time></trkpt><trkpt lat="43.3046117" lon="2.1699917"><ele>165.0</ele><time>2026-05-01T15:48:02.998Z</time></trkpt><trkpt lat="43.30471" lon="2.16991"><ele>165.0</ele><time>2026-05-01T15:48:03.998Z</time></trkpt><trkpt lat="43.3047983" lon="2.1698433"><ele>165.0</ele><time>2026-05-01T15:48:04.998Z</time></trkpt><trkpt lat="43.30488" lon="2.1697883"><ele>165.0</ele><time>2026-05-01T15:48:05.997Z</time></trkpt><trkpt lat="43.3049583" lon="2.16974"><ele>165.5</ele><time>2026-05-01T15:48:06.997Z</time></trkpt><trkpt lat="43.305025" lon="2.169695"><ele>166.0</ele><time>2026-05-01T15:48:07.996Z</time></trkpt><trkpt lat="43.3050783" lon="2.1696483"><ele>166.5</ele><time>2026-05-01T15:48:08.997Z</time></trkpt><trkpt lat="43.3051483" lon="2.1695583"><ele>167.0</ele><time>2026-05-01T15:48:11.005Z</time></trkpt><trkpt lat="43.3051883" lon="2.16946"><ele>167.5</ele><time>2026-05-01T15:48:12.997Z</time></trkpt><trkpt lat="43.30523" lon="2.1693733"><ele>168.0</ele><time>2026-05-01T15:48:14.998Z</time></trkpt><trkpt lat="43.3052617" lon="2.16923"><ele>168.0</ele><time>2026-05-01T15:48:16.997Z</time></trkpt><trkpt lat="43.305265" lon="2.1691333"><ele>168.0</ele><time>2026-05-01T15:48:17.998Z</time></trkpt><trkpt lat="43.305265" lon="2.1690283"><ele>168.0</ele><time>2026-05-01T15:48:18.997Z</time></trkpt><trkpt lat="43.3052617" lon="2.16892"><ele>168.0</ele><time>2026-05-01T15:48:19.998Z</time></trkpt><trkpt lat="43.30525" lon="2.168805"><ele>168.0</ele><time>2026-05-01T15:48:21.001Z</time></trkpt><trkpt lat="43.30523" lon="2.16868"><ele>168.0</ele><time>2026-05-01T15:48:21.997Z</time></trkpt><trkpt lat="43.305205" lon="2.16856"><ele>168.2</ele><time>2026-05-01T15:48:22.997Z</time></trkpt><trkpt lat="43.30518" lon="2.16843"><ele>168.4</ele><time>2026-05-01T15:48:23.998Z</time></trkpt><trkpt lat="43.3051633" lon="2.1682883"><ele>168.6</ele><time>2026-05-01T15:48:24.997Z</time></trkpt><trkpt lat="43.3051433" lon="2.1681583"><ele>168.79999999999998</ele><time>2026-05-01T15:48:25.997Z</time></trkpt><trkpt lat="43.3051217" lon="2.1680367"><ele>169.0</ele><time>2026-05-01T15:48:27.001Z</time></trkpt><trkpt lat="43.3050967" lon="2.1679167"><ele>169.0</ele><time>2026-05-01T15:48:27.997Z</time></trkpt><trkpt lat="43.3050767" lon="2.16779"><ele>169.0</ele><time>2026-05-01T15:48:28.997Z</time></trkpt><trkpt lat="43.305065" lon="2.16766"><ele>169.0</ele><time>2026-05-01T15:48:29.999Z</time></trkpt><trkpt lat="43.3050567" lon="2.16753"><ele>169.0</ele><time>2026-05-01T15:48:30.997Z</time></trkpt><trkpt lat="43.30506" lon="2.1674183"><ele>169.0</ele><time>2026-05-01T15:48:31.999Z</time></trkpt><trkpt lat="43.30505" lon="2.1673033"><ele>169.0</ele><time>2026-05-01T15:48:33Z</time></trkpt><trkpt lat="43.30503" lon="2.1671817"><ele>169.0</ele><time>2026-05-01T15:48:33.997Z</time></trkpt><trkpt lat="43.3050133" lon="2.1670567"><ele>169.0</ele><time>2026-05-01T15:48:34.998Z</time></trkpt><trkpt lat="43.304995" lon="2.1669383"><ele>169.0</ele><time>2026-05-01T15:48:35.998Z</time></trkpt><trkpt lat="43.304975" lon="2.1668167"><ele>169.0</ele><time>2026-05-01T15:48:36.997Z</time></trkpt><trkpt lat="43.3049517" lon="2.166695"><ele>169.0</ele><time>2026-05-01T15:48:37.999Z</time></trkpt><trkpt lat="43.3049233" lon="2.166565"><ele>169.0</ele><time>2026-05-01T15:48:38.998Z</time></trkpt><trkpt lat="43.304895" lon="2.166435"><ele>169.0</ele><time>2026-05-01T15:48:39.997Z</time></trkpt><trkpt lat="43.3048683" lon="2.166305"><ele>169.0</ele><time>2026-05-01T15:48:40.997Z</time></trkpt><trkpt lat="43.304845" lon="2.1661717"><ele>169.0</ele><time>2026-05-01T15:48:41.997Z</time></trkpt><trkpt lat="43.3048183" lon="2.166045"><ele>169.39999999999998</ele><time>2026-05-01T15:48:42.998Z</time></trkpt><trkpt lat="43.3047917" lon="2.1659217"><ele>169.8</ele><time>2026-05-01T15:48:43.997Z</time></trkpt><trkpt lat="43.3047617" lon="2.1657917"><ele>170.2</ele><time>2026-05-01T15:48:44.998Z</time></trkpt><trkpt lat="43.3047367" lon="2.1656617"><ele>170.60000000000002</ele><time>2026-05-01T15:48:45.997Z</time></trkpt><trkpt lat="43.3047067" lon="2.1655217"><ele>171.0</ele><time>2026-05-01T15:48:46.998Z</time></trkpt><trkpt lat="43.3046933" lon="2.16539"><ele>171.60000000000002</ele><time>2026-05-01T15:48:47.999Z</time></trkpt><trkpt lat="43.3047" lon="2.1652617"><ele>172.2</ele><time>2026-05-01T15:48:48.997Z</time></trkpt><trkpt lat="43.30473" lon="2.1651483"><ele>172.8</ele><time>2026-05-01T15:48:49.997Z</time></trkpt><trkpt lat="43.3047733" lon="2.165045"><ele>173.39999999999998</ele><time>2026-05-01T15:48:51.001Z</time></trkpt><trkpt lat="43.3048367" lon="2.164945"><ele>174.0</ele><time>2026-05-01T15:48:51.998Z</time></trkpt><trkpt lat="43.3049183" lon="2.1648567"><ele>178.5</ele><time>2026-05-01T15:48:52.997Z</time></trkpt><trkpt lat="43.3050083" lon="2.1647817"><ele>183.0</ele><time>2026-05-01T15:48:53.997Z</time></trkpt><trkpt lat="43.3051033" lon="2.1647017"><ele>187.5</ele><time>2026-05-01T15:48:54.999Z</time></trkpt><trkpt lat="43.305205" lon="2.16462"><ele>192.0</ele><time>2026-05-01T15:48:55.999Z</time></trkpt><trkpt lat="43.3053067" lon="2.1645433"><ele>192.0</ele><time>2026-05-01T15:48:56.999Z</time></trkpt><trkpt lat="43.3054017" lon="2.1644633"><ele>192.0</ele><time>2026-05-01T15:48:57.999Z</time></trkpt><trkpt lat="43.3055033" lon="2.16438"><ele>192.0</ele><time>2026-05-01T15:48:58.997Z</time></trkpt><trkpt lat="43.3056083" lon="2.1643033"><ele>192.0</ele><time>2026-05-01T15:48:59.997Z</time></trkpt><trkpt lat="43.3057217" lon="2.1642167"><ele>193.0</ele><time>2026-05-01T15:49:00.998Z</time></trkpt><trkpt lat="43.305845" lon="2.1641167"><ele>194.0</ele><time>2026-05-01T15:49:01.997Z</time></trkpt><trkpt lat="43.3059667" lon="2.1640233"><ele>195.0</ele><time>2026-05-01T15:49:02.999Z</time></trkpt><trkpt lat="43.30609" lon="2.1639317"><ele>196.0</ele><time>2026-05-01T15:49:03.998Z</time></trkpt><trkpt lat="43.306215" lon="2.1638367"><ele>196.0</ele><time>2026-05-01T15:49:04.998Z</time></trkpt><trkpt lat="43.3063417" lon="2.1637383"><ele>196.0</ele><time>2026-05-01T15:49:05.998Z</time></trkpt><trkpt lat="43.306475" lon="2.1636333"><ele>196.0</ele><time>2026-05-01T15:49:06.998Z</time></trkpt><trkpt lat="43.3066267" lon="2.16353"><ele>196.66666666666666</ele><time>2026-05-01T15:49:07.999Z</time></trkpt><trkpt lat="43.3067633" lon="2.1634183"><ele>197.33333333333331</ele><time>2026-05-01T15:49:08.999Z</time></trkpt><trkpt lat="43.3069017" lon="2.1633067"><ele>198.0</ele><time>2026-05-01T15:49:09.998Z</time></trkpt><trkpt lat="43.307035" lon="2.1631817"><ele>198.0</ele><time>2026-05-01T15:49:10.998Z</time></trkpt><trkpt lat="43.3071617" lon="2.163045"><ele>198.0</ele><time>2026-05-01T15:49:11.998Z</time></trkpt><trkpt lat="43.3072933" lon="2.1629017"><ele>198.0</ele><time>2026-05-01T15:49:12.997Z</time></trkpt><trkpt lat="43.30742" lon="2.1627617"><ele>198.66666666666669</ele><time>2026-05-01T15:49:13.997Z</time></trkpt><trkpt lat="43.3075617" lon="2.162625"><ele>199.33333333333334</ele><time>2026-05-01T15:49:15.005Z</time></trkpt><trkpt lat="43.307705" lon="2.1624867"><ele>200.0</ele><time>2026-05-01T15:49:15.998Z</time></trkpt><trkpt lat="43.3078483" lon="2.1623517"><ele>200.0</ele><time>2026-05-01T15:49:16.997Z</time></trkpt><trkpt lat="43.3079883" lon="2.1622117"><ele>200.0</ele><time>2026-05-01T15:49:17.996Z</time></trkpt><trkpt lat="43.308125" lon="2.16207"><ele>200.0</ele><time>2026-05-01T15:49:18.997Z</time></trkpt><trkpt lat="43.308265" lon="2.1619233"><ele>202.33333333333334</ele><time>2026-05-01T15:49:19.998Z</time></trkpt><trkpt lat="43.308405" lon="2.1617833"><ele>204.66666666666669</ele><time>2026-05-01T15:49:20.999Z</time></trkpt><trkpt lat="43.3085467" lon="2.16164"><ele>207.0</ele><time>2026-05-01T15:49:21.999Z</time></trkpt><trkpt lat="43.308685" lon="2.1615133"><ele>207.0</ele><time>2026-05-01T15:49:22.997Z</time></trkpt><trkpt lat="43.3088333" lon="2.1614167"><ele>207.0</ele><time>2026-05-01T15:49:23.997Z</time></trkpt><trkpt lat="43.3089767" lon="2.1613467"><ele>207.0</ele><time>2026-05-01T15:49:24.996Z</time></trkpt><trkpt lat="43.3091067" lon="2.1612967"><ele>204.25</ele><time>2026-05-01T15:49:25.997Z</time></trkpt><trkpt lat="43.30923" lon="2.1612267"><ele>201.5</ele><time>2026-05-01T15:49:26.997Z</time></trkpt><trkpt lat="43.309335" lon="2.1611183"><ele>198.75</ele><time>2026-05-01T15:49:27.997Z</time></trkpt><trkpt lat="43.3094267" lon="2.1609817"><ele>196.0</ele><time>2026-05-01T15:49:28.997Z</time></trkpt><trkpt lat="43.309495" lon="2.1608217"><ele>198.25</ele><time>2026-05-01T15:49:29.997Z</time></trkpt><trkpt lat="43.3095617" lon="2.1606633"><ele>200.5</ele><time>2026-05-01T15:49:30.998Z</time></trkpt><trkpt lat="43.3096183" lon="2.1604983"><ele>202.75</ele><time>2026-05-01T15:49:31.997Z</time></trkpt><trkpt lat="43.3096617" lon="2.160315"><ele>205.0</ele><time>2026-05-01T15:49:32.999Z</time></trkpt><trkpt lat="43.3097017" lon="2.16012"><ele>205.0</ele><time>2026-05-01T15:49:33.998Z</time></trkpt><trkpt lat="43.3097367" lon="2.1599217"><ele>205.0</ele><time>2026-05-01T15:49:34.999Z</time></trkpt><trkpt lat="43.30977" lon="2.15972"><ele>205.0</ele><time>2026-05-01T15:49:35.997Z</time></trkpt><trkpt lat="43.3098017" lon="2.1595283"><ele>205.0</ele><time>2026-05-01T15:49:36.997Z</time></trkpt><trkpt lat="43.30985" lon="2.1593367"><ele>203.75</ele><time>2026-05-01T15:49:37.997Z</time></trkpt><trkpt lat="43.3099133" lon="2.15915"><ele>202.5</ele><time>2026-05-01T15:49:38.998Z</time></trkpt><trkpt lat="43.30999" lon="2.158975"><ele>201.25</ele><time>2026-05-01T15:49:39.998Z</time></trkpt><trkpt lat="43.3100683" lon="2.1588133"><ele>200.0</ele><time>2026-05-01T15:49:41.005Z</time></trkpt><trkpt lat="43.3101567" lon="2.1586767"><ele>202.75</ele><time>2026-05-01T15:49:41.998Z</time></trkpt><trkpt lat="43.3102683" lon="2.15856"><ele>205.5</ele><time>2026-05-01T15:49:42.999Z</time></trkpt><trkpt lat="43.310385" lon="2.1584533"><ele>208.25</ele><time>2026-05-01T15:49:43.997Z</time></trkpt><trkpt lat="43.3105" lon="2.158345"><ele>211.0</ele><time>2026-05-01T15:49:44.999Z</time></trkpt><trkpt lat="43.310585" lon="2.15819"><ele>211.0</ele><time>2026-05-01T15:49:45.998Z</time></trkpt><trkpt lat="43.3106617" lon="2.1580017"><ele>211.0</ele><time>2026-05-01T15:49:46.997Z</time></trkpt><trkpt lat="43.3107483" lon="2.1578283"><ele>211.0</ele><time>2026-05-01T15:49:47.997Z</time></trkpt><trkpt lat="43.3108383" lon="2.1576567"><ele>211.0</ele><time>2026-05-01T15:49:49.001Z</time></trkpt><trkpt lat="43.310935" lon="2.157515"><ele>211.0</ele><time>2026-05-01T15:49:49.997Z</time></trkpt><trkpt lat="43.3110317" lon="2.1573783"><ele>211.0</ele><time>2026-05-01T15:49:50.999Z</time></trkpt><trkpt lat="43.3111217" lon="2.157255"><ele>211.0</ele><time>2026-05-01T15:49:51.997Z</time></trkpt><trkpt lat="43.3112017" lon="2.15715"><ele>213.4</ele><time>2026-05-01T15:49:52.997Z</time></trkpt><trkpt lat="43.31127" lon="2.1570433"><ele>215.8</ele><time>2026-05-01T15:49:53.997Z</time></trkpt><trkpt lat="43.3113117" lon="2.1569183"><ele>218.20000000000002</ele><time>2026-05-01T15:49:54.997Z</time></trkpt><trkpt lat="43.3113133" lon="2.156785"><ele>220.60000000000002</ele><time>2026-05-01T15:49:55.997Z</time></trkpt><trkpt lat="43.31129" lon="2.1566717"><ele>223.0</ele><time>2026-05-01T15:49:57.006Z</time></trkpt><trkpt lat="43.3112117" lon="2.1566"><ele>223.0</ele><time>2026-05-01T15:49:57.999Z</time></trkpt><trkpt lat="43.311105" lon="2.1566067"><ele>223.0</ele><time>2026-05-01T15:49:58.998Z</time></trkpt><trkpt lat="43.3109867" lon="2.1566717"><ele>223.0</ele><time>2026-05-01T15:49:59.997Z</time></trkpt><trkpt lat="43.31086" lon="2.1567717"><ele>223.0</ele><time>2026-05-01T15:50:00.998Z</time></trkpt><trkpt lat="43.310725" lon="2.156855"><ele>223.0</ele><time>2026-05-01T15:50:01.999Z</time></trkpt><trkpt lat="43.31058" lon="2.1569333"><ele>223.0</ele><time>2026-05-01T15:50:03Z</time></trkpt><trkpt lat="43.3104267" lon="2.1570083"><ele>223.0</ele><time>2026-05-01T15:50:04.001Z</time></trkpt><trkpt lat="43.310265" lon="2.1570933"><ele>223.66666666666666</ele><time>2026-05-01T15:50:04.999Z</time></trkpt><trkpt lat="43.3101067" lon="2.157185"><ele>224.33333333333331</ele><time>2026-05-01T15:50:05.998Z</time></trkpt><trkpt lat="43.3099517" lon="2.1572833"><ele>225.0</ele><time>2026-05-01T15:50:06.998Z</time></trkpt><trkpt lat="43.3098033" lon="2.1573867"><ele>229.0</ele><time>2026-05-01T15:50:07.997Z</time></trkpt><trkpt lat="43.3096533" lon="2.1574933"><ele>233.0</ele><time>2026-05-01T15:50:09.001Z</time></trkpt><trkpt lat="43.3095" lon="2.1576083"><ele>237.0</ele><time>2026-05-01T15:50:10Z</time></trkpt><trkpt lat="43.30934" lon="2.15774"><ele>237.0</ele><time>2026-05-01T15:50:11.005Z</time></trkpt><trkpt lat="43.3091817" lon="2.1578683"><ele>237.0</ele><time>2026-05-01T15:50:11.999Z</time></trkpt><trkpt lat="43.309015" lon="2.1579967"><ele>237.0</ele><time>2026-05-01T15:50:12.997Z</time></trkpt><trkpt lat="43.3088467" lon="2.1581267"><ele>238.0</ele><time>2026-05-01T15:50:13.999Z</time></trkpt><trkpt lat="43.3086767" lon="2.158255"><ele>239.0</ele><time>2026-05-01T15:50:14.997Z</time></trkpt><trkpt lat="43.30851" lon="2.1583833"><ele>240.0</ele><time>2026-05-01T15:50:15.999Z</time></trkpt><trkpt lat="43.3083517" lon="2.1585067"><ele>240.0</ele><time>2026-05-01T15:50:16.999Z</time></trkpt><trkpt lat="43.3081933" lon="2.15863"><ele>240.0</ele><time>2026-05-01T15:50:17.997Z</time></trkpt><trkpt lat="43.3080367" lon="2.158745"><ele>240.0</ele><time>2026-05-01T15:50:18.998Z</time></trkpt><trkpt lat="43.30787" lon="2.1588483"><ele>242.33333333333331</ele><time>2026-05-01T15:50:19.998Z</time></trkpt><trkpt lat="43.307695" lon="2.1589267"><ele>244.66666666666666</ele><time>2026-05-01T15:50:21Z</time></trkpt><trkpt lat="43.3075117" lon="2.158975"><ele>247.0</ele><time>2026-05-01T15:50:21.998Z</time></trkpt><trkpt lat="43.3073367" lon="2.159025"><ele>246.75</ele><time>2026-05-01T15:50:22.999Z</time></trkpt><trkpt lat="43.3071867" lon="2.159105"><ele>246.5</ele><time>2026-05-01T15:50:23.997Z</time></trkpt><trkpt lat="43.3070633" lon="2.1591933"><ele>246.25</ele><time>2026-05-01T15:50:24.997Z</time></trkpt><trkpt lat="43.3069483" lon="2.159285"><ele>246.0</ele><time>2026-05-01T15:50:25.998Z</time></trkpt><trkpt lat="43.3068433" lon="2.1593683"><ele>246.0</ele><time>2026-05-01T15:50:26.997Z</time></trkpt><trkpt lat="43.3067367" lon="2.1594233"><ele>246.00000000000003</ele><time>2026-05-01T15:50:27.999Z</time></trkpt><trkpt lat="43.3066417" lon="2.1594233"><ele>246.00000000000003</ele><time>2026-05-01T15:50:28.999Z</time></trkpt><trkpt lat="43.306555" lon="2.159365"><ele>246.0</ele><time>2026-05-01T15:50:29.998Z</time></trkpt><trkpt lat="43.3064967" lon="2.15926"><ele>246.0</ele><time>2026-05-01T15:50:30.998Z</time></trkpt><trkpt lat="43.3065017" lon="2.1591017"><ele>246.25</ele><time>2026-05-01T15:50:31.997Z</time></trkpt><trkpt lat="43.3065283" lon="2.1589417"><ele>246.5</ele><time>2026-05-01T15:50:32.998Z</time></trkpt><trkpt lat="43.3065667" lon="2.15876"><ele>246.75</ele><time>2026-05-01T15:50:33.998Z</time></trkpt><trkpt lat="43.3066233" lon="2.1585533"><ele>247.0</ele><time>2026-05-01T15:50:35Z</time></trkpt><trkpt lat="43.3066383" lon="2.1583467"><ele>245.66666666666666</ele><time>2026-05-01T15:50:35.998Z</time></trkpt><trkpt lat="43.3066067" lon="2.158135"><ele>244.33333333333331</ele><time>2026-05-01T15:50:36.998Z</time></trkpt><trkpt lat="43.30654" lon="2.157935"><ele>243.0</ele><time>2026-05-01T15:50:37.997Z</time></trkpt><trkpt lat="43.30644" lon="2.15775"><ele>242.33333333333331</ele><time>2026-05-01T15:50:39.001Z</time></trkpt><trkpt lat="43.3063133" lon="2.157595"><ele>241.66666666666666</ele><time>2026-05-01T15:50:39.996Z</time></trkpt><trkpt lat="43.3061683" lon="2.15746"><ele>241.0</ele><time>2026-05-01T15:50:40.997Z</time></trkpt><trkpt lat="43.30601" lon="2.1573433"><ele>239.33333333333331</ele><time>2026-05-01T15:50:41.997Z</time></trkpt><trkpt lat="43.3058367" lon="2.157215"><ele>237.66666666666669</ele><time>2026-05-01T15:50:42.998Z</time></trkpt><trkpt lat="43.305665" lon="2.1570933"><ele>236.0</ele><time>2026-05-01T15:50:43.997Z</time></trkpt><trkpt lat="43.3054867" lon="2.15697"><ele>235.33333333333334</ele><time>2026-05-01T15:50:44.998Z</time></trkpt><trkpt lat="43.3053117" lon="2.1568483"><ele>234.66666666666669</ele><time>2026-05-01T15:50:45.997Z</time></trkpt><trkpt lat="43.305135" lon="2.1567267"><ele>234.0</ele><time>2026-05-01T15:50:46.997Z</time></trkpt><trkpt lat="43.3049533" lon="2.15659"><ele>232.66666666666669</ele><time>2026-05-01T15:50:47.997Z</time></trkpt><trkpt lat="43.3047833" lon="2.15644"><ele>231.33333333333334</ele><time>2026-05-01T15:50:48.997Z</time></trkpt><trkpt lat="43.30462" lon="2.1562867"><ele>230.0</ele><time>2026-05-01T15:50:49.997Z</time></trkpt><trkpt lat="43.30447" lon="2.1561317"><ele>230.0</ele><time>2026-05-01T15:50:50.998Z</time></trkpt><trkpt lat="43.3043283" lon="2.1559783"><ele>230.0</ele><time>2026-05-01T15:50:51.999Z</time></trkpt><trkpt lat="43.3041983" lon="2.1558267"><ele>230.0</ele><time>2026-05-01T15:50:52.997Z</time></trkpt><trkpt lat="43.3040733" lon="2.1556867"><ele>228.66666666666669</ele><time>2026-05-01T15:50:53.997Z</time></trkpt><trkpt lat="43.3039483" lon="2.1555483"><ele>227.33333333333331</ele><time>2026-05-01T15:50:54.997Z</time></trkpt><trkpt lat="43.303825" lon="2.1554117"><ele>226.0</ele><time>2026-05-01T15:50:55.997Z</time></trkpt><trkpt lat="43.3037" lon="2.1552733"><ele>226.0</ele><time>2026-05-01T15:50:56.997Z</time></trkpt><trkpt lat="43.3035817" lon="2.15513"><ele>226.0</ele><time>2026-05-01T15:50:57.997Z</time></trkpt><trkpt lat="43.3034717" lon="2.1549933"><ele>226.0</ele><time>2026-05-01T15:50:59Z</time></trkpt><trkpt lat="43.30338" lon="2.1548533"><ele>226.0</ele><time>2026-05-01T15:50:59.999Z</time></trkpt><trkpt lat="43.3033233" lon="2.1546867"><ele>225.5</ele><time>2026-05-01T15:51:00.997Z</time></trkpt><trkpt lat="43.3032983" lon="2.15452"><ele>225.0</ele><time>2026-05-01T15:51:01.999Z</time></trkpt><trkpt lat="43.3033167" lon="2.154355"><ele>224.5</ele><time>2026-05-01T15:51:02.999Z</time></trkpt><trkpt lat="43.3033583" lon="2.1541767"><ele>224.0</ele><time>2026-05-01T15:51:03.997Z</time></trkpt><trkpt lat="43.3034" lon="2.1540033"><ele>223.5</ele><time>2026-05-01T15:51:05.001Z</time></trkpt><trkpt lat="43.3034117" lon="2.153815"><ele>223.0</ele><time>2026-05-01T15:51:05.997Z</time></trkpt><trkpt lat="43.3033817" lon="2.1536233"><ele>222.5</ele><time>2026-05-01T15:51:06.999Z</time></trkpt><trkpt lat="43.3033467" lon="2.1534433"><ele>222.0</ele><time>2026-05-01T15:51:07.997Z</time></trkpt><trkpt lat="43.3033167" lon="2.1532667"><ele>220.66666666666669</ele><time>2026-05-01T15:51:08.998Z</time></trkpt><trkpt lat="43.3033167" lon="2.15308"><ele>219.33333333333334</ele><time>2026-05-01T15:51:09.997Z</time></trkpt><trkpt lat="43.30334" lon="2.1528733"><ele>218.0</ele><time>2026-05-01T15:51:10.999Z</time></trkpt><trkpt lat="43.3033717" lon="2.1526483"><ele>218.0</ele><time>2026-05-01T15:51:12Z</time></trkpt><trkpt lat="43.3034067" lon="2.15242"><ele>218.0</ele><time>2026-05-01T15:51:12.999Z</time></trkpt><trkpt lat="43.30345" lon="2.1521817"><ele>218.0</ele><time>2026-05-01T15:51:13.999Z</time></trkpt><trkpt lat="43.3034983" lon="2.151935"><ele>215.66666666666669</ele><time>2026-05-01T15:51:14.999Z</time></trkpt><trkpt lat="43.3035567" lon="2.1517017"><ele>213.33333333333331</ele><time>2026-05-01T15:51:15.997Z</time></trkpt><trkpt lat="43.303615" lon="2.151475"><ele>211.0</ele><time>2026-05-01T15:51:16.998Z</time></trkpt><trkpt lat="43.30366" lon="2.1512567"><ele>208.0</ele><time>2026-05-01T15:51:17.998Z</time></trkpt><trkpt lat="43.3036883" lon="2.15104"><ele>205.0</ele><time>2026-05-01T15:51:18.997Z</time></trkpt><trkpt lat="43.3037167" lon="2.1508317"><ele>202.0</ele><time>2026-05-01T15:51:19.997Z</time></trkpt><trkpt lat="43.30376" lon="2.1506283"><ele>202.33333333333331</ele><time>2026-05-01T15:51:20.998Z</time></trkpt><trkpt lat="43.3038217" lon="2.1504233"><ele>202.66666666666669</ele><time>2026-05-01T15:51:21.998Z</time></trkpt><trkpt lat="43.3039083" lon="2.1502317"><ele>203.0</ele><time>2026-05-01T15:51:22.997Z</time></trkpt><trkpt lat="43.30401" lon="2.15006"><ele>203.0</ele><time>2026-05-01T15:51:23.998Z</time></trkpt><trkpt lat="43.3041167" lon="2.1498983"><ele>203.0</ele><time>2026-05-01T15:51:24.999Z</time></trkpt><trkpt lat="43.3042217" lon="2.1497483"><ele>203.0</ele><time>2026-05-01T15:51:25.999Z</time></trkpt><trkpt lat="43.3043267" lon="2.1496033"><ele>201.75</ele><time>2026-05-01T15:51:26.997Z</time></trkpt><trkpt lat="43.3044383" lon="2.1494733"><ele>200.5</ele><time>2026-05-01T15:51:27.997Z</time></trkpt><trkpt lat="43.3045633" lon="2.1493783"><ele>199.25</ele><time>2026-05-01T15:51:28.999Z</time></trkpt><trkpt lat="43.3046867" lon="2.149315"><ele>198.0</ele><time>2026-05-01T15:51:29.997Z</time></trkpt><trkpt lat="43.3048117" lon="2.1492633"><ele>198.0</ele><time>2026-05-01T15:51:30.997Z</time></trkpt><trkpt lat="43.3049333" lon="2.1492"><ele>198.0</ele><time>2026-05-01T15:51:31.997Z</time></trkpt><trkpt lat="43.3050417" lon="2.14912"><ele>198.0</ele><time>2026-05-01T15:51:32.998Z</time></trkpt><trkpt lat="43.3051233" lon="2.1489917"><ele>198.0</ele><time>2026-05-01T15:51:34.001Z</time></trkpt><trkpt lat="43.3051667" lon="2.14885"><ele>197.0</ele><time>2026-05-01T15:51:34.997Z</time></trkpt><trkpt lat="43.3051567" lon="2.1487283"><ele>196.0</ele><time>2026-05-01T15:51:35.999Z</time></trkpt><trkpt lat="43.3051" lon="2.1485967"><ele>195.0</ele><time>2026-05-01T15:51:36.999Z</time></trkpt><trkpt lat="43.3049967" lon="2.14848"><ele>194.0</ele><time>2026-05-01T15:51:37.998Z</time></trkpt><trkpt lat="43.3048683" lon="2.1483583"><ele>194.0</ele><time>2026-05-01T15:51:38.999Z</time></trkpt><trkpt lat="43.3047483" lon="2.1482417"><ele>194.0</ele><time>2026-05-01T15:51:39.998Z</time></trkpt><trkpt lat="43.304645" lon="2.148115"><ele>194.0</ele><time>2026-05-01T15:51:41Z</time></trkpt><trkpt lat="43.3045717" lon="2.1479567"><ele>194.0</ele><time>2026-05-01T15:51:41.997Z</time></trkpt><trkpt lat="43.3045317" lon="2.1477683"><ele>189.66666666666669</ele><time>2026-05-01T15:51:42.997Z</time></trkpt><trkpt lat="43.3045183" lon="2.1475583"><ele>185.33333333333334</ele><time>2026-05-01T15:51:44Z</time></trkpt><trkpt lat="43.3045333" lon="2.1473167"><ele>181.0</ele><time>2026-05-01T15:51:44.998Z</time></trkpt><trkpt lat="43.3045567" lon="2.1470717"><ele>180.0</ele><time>2026-05-01T15:51:45.997Z</time></trkpt><trkpt lat="43.3045567" lon="2.146835"><ele>179.0</ele><time>2026-05-01T15:51:46.998Z</time></trkpt><trkpt lat="43.3045467" lon="2.146585"><ele>178.0</ele><time>2026-05-01T15:51:47.998Z</time></trkpt><trkpt lat="43.304535" lon="2.1463333"><ele>177.66666666666669</ele><time>2026-05-01T15:51:48.999Z</time></trkpt><trkpt lat="43.3045183" lon="2.1460767"><ele>177.33333333333334</ele><time>2026-05-01T15:51:49.998Z</time></trkpt><trkpt lat="43.3045" lon="2.145815"><ele>177.0</ele><time>2026-05-01T15:51:50.999Z</time></trkpt><trkpt lat="43.3044667" lon="2.1455583"><ele>176.66666666666666</ele><time>2026-05-01T15:51:51.997Z</time></trkpt><trkpt lat="43.3044217" lon="2.1452933"><ele>176.33333333333331</ele><time>2026-05-01T15:51:53.002Z</time></trkpt><trkpt lat="43.30436" lon="2.1450317"><ele>176.0</ele><time>2026-05-01T15:51:53.998Z</time></trkpt><trkpt lat="43.3042933" lon="2.1447733"><ele>177.66666666666666</ele><time>2026-05-01T15:51:54.997Z</time></trkpt><trkpt lat="43.3042233" lon="2.1445117"><ele>179.33333333333334</ele><time>2026-05-01T15:51:55.998Z</time></trkpt><trkpt lat="43.30414" lon="2.1442683"><ele>181.0</ele><time>2026-05-01T15:51:56.998Z</time></trkpt><trkpt lat="43.3040517" lon="2.1440317"><ele>183.66666666666669</ele><time>2026-05-01T15:51:57.997Z</time></trkpt><trkpt lat="43.3039467" lon="2.1437967"><ele>186.33333333333334</ele><time>2026-05-01T15:51:58.997Z</time></trkpt><trkpt lat="43.303835" lon="2.1435733"><ele>189.0</ele><time>2026-05-01T15:51:59.997Z</time></trkpt><trkpt lat="43.3037083" lon="2.1433533"><ele>184.0</ele><time>2026-05-01T15:52:01.003Z</time></trkpt><trkpt lat="43.3035867" lon="2.14313"><ele>179.0</ele><time>2026-05-01T15:52:01.997Z</time></trkpt><trkpt lat="43.3034917" lon="2.1429017"><ele>174.0</ele><time>2026-05-01T15:52:02.997Z</time></trkpt><trkpt lat="43.3034133" lon="2.142675"><ele>174.0</ele><time>2026-05-01T15:52:03.998Z</time></trkpt><trkpt lat="43.3033367" lon="2.142475"><ele>174.0</ele><time>2026-05-01T15:52:05Z</time></trkpt><trkpt lat="43.3032533" lon="2.1422833"><ele>174.0</ele><time>2026-05-01T15:52:06.001Z</time></trkpt><trkpt lat="43.3031683" lon="2.142105"><ele>173.25</ele><time>2026-05-01T15:52:06.999Z</time></trkpt><trkpt lat="43.3030767" lon="2.1419417"><ele>172.5</ele><time>2026-05-01T15:52:07.997Z</time></trkpt><trkpt lat="43.302985" lon="2.14179"><ele>171.75</ele><time>2026-05-01T15:52:09.001Z</time></trkpt><trkpt lat="43.302885" lon="2.141655"><ele>171.0</ele><time>2026-05-01T15:52:09.998Z</time></trkpt><trkpt lat="43.302775" lon="2.1415367"><ele>171.0</ele><time>2026-05-01T15:52:10.999Z</time></trkpt><trkpt lat="43.30266" lon="2.141435"><ele>171.0</ele><time>2026-05-01T15:52:11.997Z</time></trkpt><trkpt lat="43.3025367" lon="2.1413517"><ele>171.0</ele><time>2026-05-01T15:52:13Z</time></trkpt><trkpt lat="43.30242" lon="2.1412633"><ele>171.0</ele><time>2026-05-01T15:52:13.997Z</time></trkpt><trkpt lat="43.30231" lon="2.1411817"><ele>167.75</ele><time>2026-05-01T15:52:14.997Z</time></trkpt><trkpt lat="43.3022017" lon="2.141105"><ele>164.5</ele><time>2026-05-01T15:52:15.997Z</time></trkpt><trkpt lat="43.3021017" lon="2.1410267"><ele>161.25</ele><time>2026-05-01T15:52:16.999Z</time></trkpt><trkpt lat="43.3020017" lon="2.14095"><ele>158.0</ele><time>2026-05-01T15:52:17.997Z</time></trkpt><trkpt lat="43.3019083" lon="2.1408667"><ele>158.0</ele><time>2026-05-01T15:52:18.997Z</time></trkpt><trkpt lat="43.3018167" lon="2.1407867"><ele>158.0</ele><time>2026-05-01T15:52:20.001Z</time></trkpt><trkpt lat="43.3017333" lon="2.140705"><ele>158.0</ele><time>2026-05-01T15:52:20.998Z</time></trkpt><trkpt lat="43.30166" lon="2.14064"><ele>158.0</ele><time>2026-05-01T15:52:21.998Z</time></trkpt><trkpt lat="43.301595" lon="2.1405917"><ele>158.0</ele><time>2026-05-01T15:52:22.998Z</time></trkpt><trkpt lat="43.3015217" lon="2.1404833"><ele>157.6</ele><time>2026-05-01T15:52:24.998Z</time></trkpt><trkpt lat="43.3015383" lon="2.1403733"><ele>157.20000000000002</ele><time>2026-05-01T15:52:25.997Z</time></trkpt><trkpt lat="43.3015733" lon="2.1402617"><ele>156.8</ele><time>2026-05-01T15:52:26.999Z</time></trkpt><trkpt lat="43.30163" lon="2.1401317"><ele>156.4</ele><time>2026-05-01T15:52:27.997Z</time></trkpt><trkpt lat="43.3017117" lon="2.1400033"><ele>156.0</ele><time>2026-05-01T15:52:28.998Z</time></trkpt><trkpt lat="43.3018033" lon="2.1398683"><ele>155.0</ele><time>2026-05-01T15:52:29.997Z</time></trkpt><trkpt lat="43.3019117" lon="2.1397433"><ele>154.0</ele><time>2026-05-01T15:52:30.997Z</time></trkpt><trkpt lat="43.3020333" lon="2.1396283"><ele>153.0</ele><time>2026-05-01T15:52:31.998Z</time></trkpt><trkpt lat="43.3021667" lon="2.1395167"><ele>152.0</ele><time>2026-05-01T15:52:33Z</time></trkpt><trkpt lat="43.3023033" lon="2.1393983"><ele>155.33333333333331</ele><time>2026-05-01T15:52:33.998Z</time></trkpt><trkpt lat="43.30244" lon="2.139285"><ele>158.66666666666666</ele><time>2026-05-01T15:52:34.997Z</time></trkpt><trkpt lat="43.30258" lon="2.13917"><ele>162.0</ele><time>2026-05-01T15:52:35.998Z</time></trkpt><trkpt lat="43.302725" lon="2.1390583"><ele>158.0</ele><time>2026-05-01T15:52:36.998Z</time></trkpt><trkpt lat="43.3028783" lon="2.1389633"><ele>154.0</ele><time>2026-05-01T15:52:37.997Z</time></trkpt><trkpt lat="43.3030467" lon="2.13891"><ele>150.0</ele><time>2026-05-01T15:52:38.999Z</time></trkpt><trkpt lat="43.3032283" lon="2.138885"><ele>150.0</ele><time>2026-05-01T15:52:39.997Z</time></trkpt><trkpt lat="43.3034083" lon="2.138875"><ele>150.0</ele><time>2026-05-01T15:52:40.997Z</time></trkpt><trkpt lat="43.303585" lon="2.1388767"><ele>150.0</ele><time>2026-05-01T15:52:41.997Z</time></trkpt><trkpt lat="43.3037633" lon="2.1388667"><ele>152.66666666666666</ele><time>2026-05-01T15:52:42.998Z</time></trkpt><trkpt lat="43.3039383" lon="2.1388233"><ele>155.33333333333331</ele><time>2026-05-01T15:52:43.998Z</time></trkpt><trkpt lat="43.304105" lon="2.1387317"><ele>158.0</ele><time>2026-05-01T15:52:45.006Z</time></trkpt><trkpt lat="43.3042533" lon="2.1385917"><ele>158.0</ele><time>2026-05-01T15:52:45.998Z</time></trkpt><trkpt lat="43.30439" lon="2.1384233"><ele>158.0</ele><time>2026-05-01T15:52:46.998Z</time></trkpt><trkpt lat="43.3045" lon="2.1382183"><ele>158.0</ele><time>2026-05-01T15:52:47.997Z</time></trkpt><trkpt lat="43.3046017" lon="2.1380067"><ele>157.66666666666666</ele><time>2026-05-01T15:52:48.998Z</time></trkpt><trkpt lat="43.3047083" lon="2.1378083"><ele>157.33333333333334</ele><time>2026-05-01T15:52:49.998Z</time></trkpt><trkpt lat="43.30483" lon="2.1376333"><ele>157.0</ele><time>2026-05-01T15:52:51.002Z</time></trkpt><trkpt lat="43.3049667" lon="2.1374817"><ele>156.33333333333334</ele><time>2026-05-01T15:52:51.998Z</time></trkpt><trkpt lat="43.30512" lon="2.1373583"><ele>155.66666666666666</ele><time>2026-05-01T15:52:52.998Z</time></trkpt><trkpt lat="43.3052833" lon="2.13726"><ele>155.0</ele><time>2026-05-01T15:52:53.998Z</time></trkpt><trkpt lat="43.30546" lon="2.1371867"><ele>154.33333333333331</ele><time>2026-05-01T15:52:54.999Z</time></trkpt><trkpt lat="43.30564" lon="2.1371333"><ele>153.66666666666666</ele><time>2026-05-01T15:52:55.999Z</time></trkpt><trkpt lat="43.3058267" lon="2.1370967"><ele>153.0</ele><time>2026-05-01T15:52:56.998Z</time></trkpt><trkpt lat="43.3060167" lon="2.1370667"><ele>153.0</ele><time>2026-05-01T15:52:57.999Z</time></trkpt><trkpt lat="43.3062067" lon="2.1370467"><ele>153.0</ele><time>2026-05-01T15:52:58.998Z</time></trkpt><trkpt lat="43.3063933" lon="2.1370017"><ele>153.0</ele><time>2026-05-01T15:52:59.998Z</time></trkpt><trkpt lat="43.3065767" lon="2.1369167"><ele>153.66666666666666</ele><time>2026-05-01T15:53:00.997Z</time></trkpt><trkpt lat="43.3067433" lon="2.13679"><ele>154.33333333333331</ele><time>2026-05-01T15:53:01.998Z</time></trkpt><trkpt lat="43.3069" lon="2.1366417"><ele>155.0</ele><time>2026-05-01T15:53:02.999Z</time></trkpt><trkpt lat="43.307045" lon="2.1364917"><ele>155.0</ele><time>2026-05-01T15:53:03.997Z</time></trkpt><trkpt lat="43.3071817" lon="2.1363567"><ele>155.0</ele><time>2026-05-01T15:53:04.999Z</time></trkpt><trkpt lat="43.3073167" lon="2.1362383"><ele>155.0</ele><time>2026-05-01T15:53:05.998Z</time></trkpt><trkpt lat="43.3074483" lon="2.13615"><ele>155.0</ele><time>2026-05-01T15:53:06.997Z</time></trkpt><trkpt lat="43.3075933" lon="2.1361117"><ele>155.0</ele><time>2026-05-01T15:53:07.997Z</time></trkpt><trkpt lat="43.3077467" lon="2.1361217"><ele>155.0</ele><time>2026-05-01T15:53:08.998Z</time></trkpt><trkpt lat="43.3078967" lon="2.1361733"><ele>155.0</ele><time>2026-05-01T15:53:09.999Z</time></trkpt><trkpt lat="43.30804" lon="2.1362483"><ele>155.0</ele><time>2026-05-01T15:53:10.997Z</time></trkpt><trkpt lat="43.3081767" lon="2.13635"><ele>155.0</ele><time>2026-05-01T15:53:11.999Z</time></trkpt><trkpt lat="43.3083117" lon="2.1364533"><ele>157.66666666666666</ele><time>2026-05-01T15:53:12.997Z</time></trkpt><trkpt lat="43.308455" lon="2.1365583"><ele>160.33333333333334</ele><time>2026-05-01T15:53:13.997Z</time></trkpt><trkpt lat="43.3086033" lon="2.1366333"><ele>163.0</ele><time>2026-05-01T15:53:14.997Z</time></trkpt><trkpt lat="43.3087583" lon="2.1366617"><ele>161.66666666666669</ele><time>2026-05-01T15:53:15.997Z</time></trkpt><trkpt lat="43.3089117" lon="2.1366167"><ele>160.33333333333334</ele><time>2026-05-01T15:53:16.997Z</time></trkpt><trkpt lat="43.30907" lon="2.1365233"><ele>159.0</ele><time>2026-05-01T15:53:17.998Z</time></trkpt><trkpt lat="43.3092333" lon="2.1364133"><ele>157.33333333333334</ele><time>2026-05-01T15:53:18.998Z</time></trkpt><trkpt lat="43.3093933" lon="2.1363033"><ele>155.66666666666669</ele><time>2026-05-01T15:53:19.999Z</time></trkpt><trkpt lat="43.3095533" lon="2.136185"><ele>154.0</ele><time>2026-05-01T15:53:20.998Z</time></trkpt><trkpt lat="43.3097117" lon="2.1360483"><ele>153.66666666666669</ele><time>2026-05-01T15:53:21.997Z</time></trkpt><trkpt lat="43.3098617" lon="2.135895"><ele>153.33333333333334</ele><time>2026-05-01T15:53:23Z</time></trkpt><trkpt lat="43.3100033" lon="2.13573"><ele>153.0</ele><time>2026-05-01T15:53:23.998Z</time></trkpt><trkpt lat="43.31014" lon="2.1355583"><ele>153.0</ele><time>2026-05-01T15:53:24.997Z</time></trkpt><trkpt lat="43.310275" lon="2.135385"><ele>153.0</ele><time>2026-05-01T15:53:25.998Z</time></trkpt><trkpt lat="43.31041" lon="2.1352133"><ele>153.0</ele><time>2026-05-01T15:53:26.997Z</time></trkpt><trkpt lat="43.3105467" lon="2.1350433"><ele>153.33333333333334</ele><time>2026-05-01T15:53:27.997Z</time></trkpt><trkpt lat="43.3106883" lon="2.13488"><ele>153.66666666666669</ele><time>2026-05-01T15:53:28.998Z</time></trkpt><trkpt lat="43.3108383" lon="2.13473"><ele>154.0</ele><time>2026-05-01T15:53:29.998Z</time></trkpt><trkpt lat="43.3110017" lon="2.1346083"><ele>154.0</ele><time>2026-05-01T15:53:30.997Z</time></trkpt><trkpt lat="43.3111733" lon="2.1344967"><ele>154.0</ele><time>2026-05-01T15:53:31.997Z</time></trkpt><trkpt lat="43.3113517" lon="2.1343967"><ele>154.0</ele><time>2026-05-01T15:53:32.998Z</time></trkpt><trkpt lat="43.311535" lon="2.1343017"><ele>154.0</ele><time>2026-05-01T15:53:33.998Z</time></trkpt><trkpt lat="43.3117217" lon="2.1342067"><ele>154.0</ele><time>2026-05-01T15:53:34.997Z</time></trkpt><trkpt lat="43.31191" lon="2.1341133"><ele>154.0</ele><time>2026-05-01T15:53:35.998Z</time></trkpt><trkpt lat="43.3121" lon="2.1340183"><ele>155.33333333333334</ele><time>2026-05-01T15:53:36.999Z</time></trkpt><trkpt lat="43.312285" lon="2.1339283"><ele>156.66666666666666</ele><time>2026-05-01T15:53:37.999Z</time></trkpt><trkpt lat="43.3124633" lon="2.1338467"><ele>158.0</ele><time>2026-05-01T15:53:38.997Z</time></trkpt><trkpt lat="43.3126283" lon="2.13377"><ele>158.0</ele><time>2026-05-01T15:53:39.997Z</time></trkpt><trkpt lat="43.3127817" lon="2.1336883"><ele>158.0</ele><time>2026-05-01T15:53:40.997Z</time></trkpt><trkpt lat="43.31292" lon="2.13357"><ele>158.0</ele><time>2026-05-01T15:53:42Z</time></trkpt><trkpt lat="43.313045" lon="2.1334283"><ele>158.66666666666666</ele><time>2026-05-01T15:53:42.997Z</time></trkpt><trkpt lat="43.3131583" lon="2.1332617"><ele>159.33333333333334</ele><time>2026-05-01T15:53:43.997Z</time></trkpt><trkpt lat="43.3132667" lon="2.1330817"><ele>160.0</ele><time>2026-05-01T15:53:44.997Z</time></trkpt><trkpt lat="43.313375" lon="2.1328917"><ele>160.0</ele><time>2026-05-01T15:53:45.997Z</time></trkpt><trkpt lat="43.3134817" lon="2.1327"><ele>160.0</ele><time>2026-05-01T15:53:46.998Z</time></trkpt><trkpt lat="43.31359" lon="2.1325017"><ele>160.0</ele><time>2026-05-01T15:53:47.997Z</time></trkpt><trkpt lat="43.3137033" lon="2.1323117"><ele>160.66666666666669</ele><time>2026-05-01T15:53:49.001Z</time></trkpt><trkpt lat="43.3138183" lon="2.132115"><ele>161.33333333333334</ele><time>2026-05-01T15:53:50.005Z</time></trkpt><trkpt lat="43.3139133" lon="2.1319117"><ele>162.0</ele><time>2026-05-01T15:53:50.998Z</time></trkpt><trkpt lat="43.314005" lon="2.1317283"><ele>162.0</ele><time>2026-05-01T15:53:51.998Z</time></trkpt><trkpt lat="43.31411" lon="2.1315633"><ele>162.0</ele><time>2026-05-01T15:53:52.998Z</time></trkpt><trkpt lat="43.3142183" lon="2.1313883"><ele>162.0</ele><time>2026-05-01T15:53:53.997Z</time></trkpt><trkpt lat="43.31432" lon="2.13122"><ele>161.0</ele><time>2026-05-01T15:53:54.998Z</time></trkpt><trkpt lat="43.31442" lon="2.13105"><ele>160.0</ele><time>2026-05-01T15:53:55.999Z</time></trkpt><trkpt lat="43.3145383" lon="2.130905"><ele>159.0</ele><time>2026-05-01T15:53:57Z</time></trkpt><trkpt lat="43.3146817" lon="2.13081"><ele>159.0</ele><time>2026-05-01T15:53:57.999Z</time></trkpt><trkpt lat="43.31483" lon="2.130735"><ele>159.0</ele><time>2026-05-01T15:53:58.997Z</time></trkpt><trkpt lat="43.314985" lon="2.1306583"><ele>159.0</ele><time>2026-05-01T15:53:59.997Z</time></trkpt><trkpt lat="43.3151417" lon="2.1305717"><ele>159.0</ele><time>2026-05-01T15:54:00.998Z</time></trkpt><trkpt lat="43.315285" lon="2.130455"><ele>159.0</ele><time>2026-05-01T15:54:01.998Z</time></trkpt><trkpt lat="43.3154333" lon="2.1303283"><ele>159.0</ele><time>2026-05-01T15:54:02.998Z</time></trkpt><trkpt lat="43.315575" lon="2.130195"><ele>159.66666666666666</ele><time>2026-05-01T15:54:04Z</time></trkpt><trkpt lat="43.3157067" lon="2.1300533"><ele>160.33333333333331</ele><time>2026-05-01T15:54:05Z</time></trkpt><trkpt lat="43.3158417" lon="2.1299133"><ele>161.0</ele><time>2026-05-01T15:54:06.002Z</time></trkpt><trkpt lat="43.31597" lon="2.1297783"><ele>161.0</ele><time>2026-05-01T15:54:07Z</time></trkpt><trkpt lat="43.3161017" lon="2.1296367"><ele>161.0</ele><time>2026-05-01T15:54:07.997Z</time></trkpt><trkpt lat="43.3162367" lon="2.1295017"><ele>161.0</ele><time>2026-05-01T15:54:09.001Z</time></trkpt><trkpt lat="43.3163767" lon="2.1293817"><ele>162.33333333333331</ele><time>2026-05-01T15:54:09.998Z</time></trkpt><trkpt lat="43.3165233" lon="2.1292867"><ele>163.66666666666666</ele><time>2026-05-01T15:54:10.999Z</time></trkpt><trkpt lat="43.316685" lon="2.1292283"><ele>165.0</ele><time>2026-05-01T15:54:11.998Z</time></trkpt><trkpt lat="43.31685" lon="2.12919"><ele>165.0</ele><time>2026-05-01T15:54:13.004Z</time></trkpt><trkpt lat="43.3170133" lon="2.12914"><ele>165.0</ele><time>2026-05-01T15:54:13.998Z</time></trkpt><trkpt lat="43.31718" lon="2.1290683"><ele>165.0</ele><time>2026-05-01T15:54:15Z</time></trkpt><trkpt lat="43.3173483" lon="2.12898"><ele>163.66666666666666</ele><time>2026-05-01T15:54:15.999Z</time></trkpt><trkpt lat="43.3175267" lon="2.1289"><ele>162.33333333333331</ele><time>2026-05-01T15:54:16.998Z</time></trkpt><trkpt lat="43.3177067" lon="2.1288383"><ele>161.0</ele><time>2026-05-01T15:54:17.997Z</time></trkpt><trkpt lat="43.3178883" lon="2.1288117"><ele>161.66666666666666</ele><time>2026-05-01T15:54:18.998Z</time></trkpt><trkpt lat="43.3180683" lon="2.1288"><ele>162.33333333333334</ele><time>2026-05-01T15:54:20.001Z</time></trkpt><trkpt lat="43.3182467" lon="2.1287933"><ele>163.0</ele><time>2026-05-01T15:54:20.998Z</time></trkpt><trkpt lat="43.3184167" lon="2.1287967"><ele>163.0</ele><time>2026-05-01T15:54:21.998Z</time></trkpt><trkpt lat="43.3185783" lon="2.1288033"><ele>163.0</ele><time>2026-05-01T15:54:22.998Z</time></trkpt><trkpt lat="43.318735" lon="2.1288033"><ele>163.0</ele><time>2026-05-01T15:54:23.998Z</time></trkpt><trkpt lat="43.318885" lon="2.1287717"><ele>164.66666666666669</ele><time>2026-05-01T15:54:24.999Z</time></trkpt><trkpt lat="43.3190333" lon="2.1287233"><ele>166.33333333333334</ele><time>2026-05-01T15:54:25.999Z</time></trkpt><trkpt lat="43.31918" lon="2.128655"><ele>168.0</ele><time>2026-05-01T15:54:26.998Z</time></trkpt><trkpt lat="43.31933" lon="2.1285683"><ele>168.0</ele><time>2026-05-01T15:54:27.998Z</time></trkpt><trkpt lat="43.3194817" lon="2.1284917"><ele>168.0</ele><time>2026-05-01T15:54:28.997Z</time></trkpt><trkpt lat="43.31964" lon="2.128435"><ele>168.0</ele><time>2026-05-01T15:54:29.998Z</time></trkpt><trkpt lat="43.3197967" lon="2.1283733"><ele>167.0</ele><time>2026-05-01T15:54:30.999Z</time></trkpt><trkpt lat="43.31995" lon="2.12829"><ele>166.0</ele><time>2026-05-01T15:54:31.997Z</time></trkpt><trkpt lat="43.32008" lon="2.12816"><ele>165.0</ele><time>2026-05-01T15:54:32.999Z</time></trkpt><trkpt lat="43.32019" lon="2.12802"><ele>165.0</ele><time>2026-05-01T15:54:33.998Z</time></trkpt><trkpt lat="43.3202883" lon="2.127865"><ele>165.0</ele><time>2026-05-01T15:54:34.997Z</time></trkpt><trkpt lat="43.3203783" lon="2.1277233"><ele>165.0</ele><time>2026-05-01T15:54:35.997Z</time></trkpt><trkpt lat="43.3204783" lon="2.1276033"><ele>165.0</ele><time>2026-05-01T15:54:36.997Z</time></trkpt><trkpt lat="43.3205867" lon="2.1274983"><ele>165.25</ele><time>2026-05-01T15:54:37.997Z</time></trkpt><trkpt lat="43.3206983" lon="2.1274283"><ele>165.5</ele><time>2026-05-01T15:54:38.997Z</time></trkpt><trkpt lat="43.3208083" lon="2.1273733"><ele>165.75</ele><time>2026-05-01T15:54:39.997Z</time></trkpt><trkpt lat="43.3209217" lon="2.1273417"><ele>166.0</ele><time>2026-05-01T15:54:40.998Z</time></trkpt><trkpt lat="43.3210367" lon="2.1273167"><ele>166.0</ele><time>2026-05-01T15:54:41.998Z</time></trkpt><trkpt lat="43.3211567" lon="2.1273033"><ele>166.0</ele><time>2026-05-01T15:54:42.998Z</time></trkpt><trkpt lat="43.3212867" lon="2.1273067"><ele>166.0</ele><time>2026-05-01T15:54:43.999Z</time></trkpt><trkpt lat="43.32142" lon="2.1273167"><ele>166.0</ele><time>2026-05-01T15:54:44.997Z</time></trkpt><trkpt lat="43.32156" lon="2.1273383"><ele>167.0</ele><time>2026-05-01T15:54:45.998Z</time></trkpt><trkpt lat="43.3217083" lon="2.1273683"><ele>168.0</ele><time>2026-05-01T15:54:46.997Z</time></trkpt><trkpt lat="43.32186" lon="2.1273783"><ele>169.0</ele><time>2026-05-01T15:54:47.998Z</time></trkpt><trkpt lat="43.3220183" lon="2.1273567"><ele>169.0</ele><time>2026-05-01T15:54:48.998Z</time></trkpt><trkpt lat="43.32217" lon="2.1273083"><ele>169.0</ele><time>2026-05-01T15:54:49.997Z</time></trkpt><trkpt lat="43.32232" lon="2.1272317"><ele>169.0</ele><time>2026-05-01T15:54:50.998Z</time></trkpt><trkpt lat="43.3224717" lon="2.1271383"><ele>169.66666666666669</ele><time>2026-05-01T15:54:51.999Z</time></trkpt><trkpt lat="43.3226233" lon="2.1270383"><ele>170.33333333333334</ele><time>2026-05-01T15:54:52.999Z</time></trkpt><trkpt lat="43.322775" lon="2.12694"><ele>171.0</ele><time>2026-05-01T15:54:53.997Z</time></trkpt><trkpt lat="43.3229267" lon="2.1268417"><ele>171.0</ele><time>2026-05-01T15:54:54.997Z</time></trkpt><trkpt lat="43.3230733" lon="2.126735"><ele>171.0</ele><time>2026-05-01T15:54:55.997Z</time></trkpt><trkpt lat="43.323215" lon="2.1266333"><ele>171.0</ele><time>2026-05-01T15:54:56.999Z</time></trkpt><trkpt lat="43.3233567" lon="2.1265233"><ele>171.0</ele><time>2026-05-01T15:54:57.999Z</time></trkpt><trkpt lat="43.3234967" lon="2.1264083"><ele>171.0</ele><time>2026-05-01T15:54:58.997Z</time></trkpt><trkpt lat="43.3236317" lon="2.126285"><ele>171.0</ele><time>2026-05-01T15:54:59.998Z</time></trkpt><trkpt lat="43.3237683" lon="2.126175"><ele>173.33333333333334</ele><time>2026-05-01T15:55:00.997Z</time></trkpt><trkpt lat="43.3239017" lon="2.1260683"><ele>175.66666666666669</ele><time>2026-05-01T15:55:01.998Z</time></trkpt><trkpt lat="43.3240433" lon="2.1259617"><ele>178.0</ele><time>2026-05-01T15:55:02.998Z</time></trkpt><trkpt lat="43.3241867" lon="2.1258483"><ele>175.33333333333334</ele><time>2026-05-01T15:55:03.998Z</time></trkpt><trkpt lat="43.32433" lon="2.1257267"><ele>172.66666666666666</ele><time>2026-05-01T15:55:04.997Z</time></trkpt><trkpt lat="43.3244733" lon="2.125595"><ele>170.0</ele><time>2026-05-01T15:55:05.999Z</time></trkpt><trkpt lat="43.3246117" lon="2.1254733"><ele>171.5</ele><time>2026-05-01T15:55:06.999Z</time></trkpt><trkpt lat="43.3247467" lon="2.1253667"><ele>173.0</ele><time>2026-05-01T15:55:07.999Z</time></trkpt><trkpt lat="43.3248667" lon="2.125275"><ele>174.5</ele><time>2026-05-01T15:55:08.999Z</time></trkpt><trkpt lat="43.32498" lon="2.1251917"><ele>176.0</ele><time>2026-05-01T15:55:09.998Z</time></trkpt><trkpt lat="43.3250817" lon="2.12513"><ele>176.0</ele><time>2026-05-01T15:55:10.997Z</time></trkpt><trkpt lat="43.3251717" lon="2.12509"><ele>176.0</ele><time>2026-05-01T15:55:11.998Z</time></trkpt><trkpt lat="43.3252517" lon="2.1250483"><ele>176.0</ele><time>2026-05-01T15:55:12.998Z</time></trkpt><trkpt lat="43.3253267" lon="2.1249983"><ele>176.0</ele><time>2026-05-01T15:55:13.998Z</time></trkpt><trkpt lat="43.325405" lon="2.1249517"><ele>176.0</ele><time>2026-05-01T15:55:15Z</time></trkpt><trkpt lat="43.32549" lon="2.12492"><ele>176.0</ele><time>2026-05-01T15:55:15.997Z</time></trkpt><trkpt lat="43.3255867" lon="2.1249017"><ele>175.4</ele><time>2026-05-01T15:55:16.999Z</time></trkpt><trkpt lat="43.3256967" lon="2.1248983"><ele>174.8</ele><time>2026-05-01T15:55:17.999Z</time></trkpt><trkpt lat="43.3258067" lon="2.1249017"><ele>174.20000000000002</ele><time>2026-05-01T15:55:18.999Z</time></trkpt><trkpt lat="43.32592" lon="2.1249"><ele>173.60000000000002</ele><time>2026-05-01T15:55:19.999Z</time></trkpt><trkpt lat="43.326035" lon="2.1248983"><ele>173.0</ele><time>2026-05-01T15:55:21Z</time></trkpt><trkpt lat="43.3261433" lon="2.124875"><ele>173.0</ele><time>2026-05-01T15:55:21.999Z</time></trkpt><trkpt lat="43.3262467" lon="2.124835"><ele>173.0</ele><time>2026-05-01T15:55:22.998Z</time></trkpt><trkpt lat="43.3263333" lon="2.1247683"><ele>173.0</ele><time>2026-05-01T15:55:23.997Z</time></trkpt><trkpt lat="43.3264117" lon="2.1246817"><ele>173.0</ele><time>2026-05-01T15:55:25.001Z</time></trkpt><trkpt lat="43.32649" lon="2.1245717"><ele>173.0</ele><time>2026-05-01T15:55:25.998Z</time></trkpt><trkpt lat="43.326555" lon="2.1244183"><ele>173.5</ele><time>2026-05-01T15:55:26.999Z</time></trkpt><trkpt lat="43.3266167" lon="2.1242617"><ele>174.0</ele><time>2026-05-01T15:55:27.999Z</time></trkpt><trkpt lat="43.3266783" lon="2.1241017"><ele>174.5</ele><time>2026-05-01T15:55:29.004Z</time></trkpt><trkpt lat="43.3267383" lon="2.1239217"><ele>175.0</ele><time>2026-05-01T15:55:30Z</time></trkpt><trkpt lat="43.3268033" lon="2.1237517"><ele>175.0</ele><time>2026-05-01T15:55:31Z</time></trkpt><trkpt lat="43.3268633" lon="2.1235867"><ele>175.0</ele><time>2026-05-01T15:55:32Z</time></trkpt><trkpt lat="43.3269183" lon="2.1234283"><ele>175.0</ele><time>2026-05-01T15:55:32.998Z</time></trkpt><trkpt lat="43.3269717" lon="2.1232717"><ele>175.0</ele><time>2026-05-01T15:55:34.001Z</time></trkpt><trkpt lat="43.32703" lon="2.1231183"><ele>174.75</ele><time>2026-05-01T15:55:34.998Z</time></trkpt><trkpt lat="43.327095" lon="2.1229517"><ele>174.5</ele><time>2026-05-01T15:55:35.997Z</time></trkpt><trkpt lat="43.3271617" lon="2.1227817"><ele>174.25</ele><time>2026-05-01T15:55:36.997Z</time></trkpt><trkpt lat="43.3272317" lon="2.1226133"><ele>174.0</ele><time>2026-05-01T15:55:37.997Z</time></trkpt><trkpt lat="43.3273017" lon="2.122435"><ele>174.75</ele><time>2026-05-01T15:55:38.998Z</time></trkpt><trkpt lat="43.3273667" lon="2.122265"><ele>175.5</ele><time>2026-05-01T15:55:39.999Z</time></trkpt><trkpt lat="43.327435" lon="2.122085"><ele>176.25</ele><time>2026-05-01T15:55:40.998Z</time></trkpt><trkpt lat="43.3275" lon="2.1219067"><ele>177.0</ele><time>2026-05-01T15:55:41.999Z</time></trkpt><trkpt lat="43.327565" lon="2.1217317"><ele>176.5</ele><time>2026-05-01T15:55:42.997Z</time></trkpt><trkpt lat="43.3276333" lon="2.121555"><ele>176.0</ele><time>2026-05-01T15:55:43.997Z</time></trkpt><trkpt lat="43.327695" lon="2.1213883"><ele>175.5</ele><time>2026-05-01T15:55:44.999Z</time></trkpt><trkpt lat="43.32776" lon="2.121225"><ele>175.0</ele><time>2026-05-01T15:55:45.997Z</time></trkpt><trkpt lat="43.327825" lon="2.1210717"><ele>175.0</ele><time>2026-05-01T15:55:46.997Z</time></trkpt><trkpt lat="43.3278867" lon="2.1209183"><ele>175.0</ele><time>2026-05-01T15:55:47.997Z</time></trkpt><trkpt lat="43.32794" lon="2.120765"><ele>175.0</ele><time>2026-05-01T15:55:48.997Z</time></trkpt><trkpt lat="43.327985" lon="2.1206133"><ele>175.0</ele><time>2026-05-01T15:55:49.999Z</time></trkpt><trkpt lat="43.3280383" lon="2.1204717"><ele>175.6</ele><time>2026-05-01T15:55:50.999Z</time></trkpt><trkpt lat="43.3280883" lon="2.1203533"><ele>176.2</ele><time>2026-05-01T15:55:51.998Z</time></trkpt><trkpt lat="43.3281467" lon="2.1202283"><ele>176.8</ele><time>2026-05-01T15:55:52.998Z</time></trkpt><trkpt lat="43.3282133" lon="2.120115"><ele>177.4</ele><time>2026-05-01T15:55:53.999Z</time></trkpt><trkpt lat="43.3282883" lon="2.1200117"><ele>178.0</ele><time>2026-05-01T15:55:55Z</time></trkpt><trkpt lat="43.328365" lon="2.1199217"><ele>177.60000000000002</ele><time>2026-05-01T15:55:55.999Z</time></trkpt><trkpt lat="43.328435" lon="2.1198617"><ele>177.20000000000002</ele><time>2026-05-01T15:55:56.999Z</time></trkpt><trkpt lat="43.3285067" lon="2.1197967"><ele>176.8</ele><time>2026-05-01T15:55:58Z</time></trkpt><trkpt lat="43.3285833" lon="2.1197417"><ele>176.4</ele><time>2026-05-01T15:55:59.006Z</time></trkpt><trkpt lat="43.32867" lon="2.119695"><ele>176.0</ele><time>2026-05-01T15:55:59.999Z</time></trkpt><trkpt lat="43.328765" lon="2.1196233"><ele>176.0</ele><time>2026-05-01T15:56:00.997Z</time></trkpt><trkpt lat="43.32886" lon="2.11957"><ele>176.0</ele><time>2026-05-01T15:56:02Z</time></trkpt><trkpt lat="43.32897" lon="2.119525"><ele>176.0</ele><time>2026-05-01T15:56:02.999Z</time></trkpt><trkpt lat="43.3290733" lon="2.1194733"><ele>176.0</ele><time>2026-05-01T15:56:03.997Z</time></trkpt><trkpt lat="43.3291633" lon="2.1194083"><ele>176.0</ele><time>2026-05-01T15:56:04.999Z</time></trkpt><trkpt lat="43.3292583" lon="2.1193483"><ele>176.4</ele><time>2026-05-01T15:56:05.999Z</time></trkpt><trkpt lat="43.329355" lon="2.1192933"><ele>176.8</ele><time>2026-05-01T15:56:06.999Z</time></trkpt><trkpt lat="43.3294567" lon="2.1192433"><ele>177.20000000000002</ele><time>2026-05-01T15:56:07.998Z</time></trkpt><trkpt lat="43.3295483" lon="2.1191833"><ele>177.60000000000002</ele><time>2026-05-01T15:56:08.999Z</time></trkpt><trkpt lat="43.3296333" lon="2.1191067"><ele>178.0</ele><time>2026-05-01T15:56:09.997Z</time></trkpt><trkpt lat="43.3297133" lon="2.1190217"><ele>178.4</ele><time>2026-05-01T15:56:10.999Z</time></trkpt><trkpt lat="43.3297867" lon="2.11892"><ele>178.8</ele><time>2026-05-01T15:56:12.001Z</time></trkpt><trkpt lat="43.3298567" lon="2.118815"><ele>179.2</ele><time>2026-05-01T15:56:12.997Z</time></trkpt><trkpt lat="43.32992" lon="2.1187033"><ele>179.6</ele><time>2026-05-01T15:56:13.998Z</time></trkpt><trkpt lat="43.329985" lon="2.1186033"><ele>180.0</ele><time>2026-05-01T15:56:14.997Z</time></trkpt><trkpt lat="43.330045" lon="2.1185167"><ele>180.0</ele><time>2026-05-01T15:56:15.998Z</time></trkpt><trkpt lat="43.3300933" lon="2.11844"><ele>180.0</ele><time>2026-05-01T15:56:17Z</time></trkpt><trkpt lat="43.3301433" lon="2.1183683"><ele>180.0</ele><time>2026-05-01T15:56:17.998Z</time></trkpt><trkpt lat="43.3301933" lon="2.1182967"><ele>180.0</ele><time>2026-05-01T15:56:19Z</time></trkpt><trkpt lat="43.33025" lon="2.1182233"><ele>180.0</ele><time>2026-05-01T15:56:19.997Z</time></trkpt><trkpt lat="43.3303217" lon="2.118165"><ele>180.0</ele><time>2026-05-01T15:56:20.998Z</time></trkpt><trkpt lat="43.3303933" lon="2.1181167"><ele>179.85714285714286</ele><time>2026-05-01T15:56:21.997Z</time></trkpt><trkpt lat="43.3304617" lon="2.118065"><ele>179.71428571428572</ele><time>2026-05-01T15:56:22.999Z</time></trkpt><trkpt lat="43.3305217" lon="2.1180067"><ele>179.57142857142858</ele><time>2026-05-01T15:56:23.998Z</time></trkpt><trkpt lat="43.33058" lon="2.1179467"><ele>179.42857142857144</ele><time>2026-05-01T15:56:24.997Z</time></trkpt><trkpt lat="43.33064" lon="2.1178983"><ele>179.28571428571428</ele><time>2026-05-01T15:56:25.997Z</time></trkpt><trkpt lat="43.3307083" lon="2.117865"><ele>179.14285714285717</ele><time>2026-05-01T15:56:26.998Z</time></trkpt><trkpt lat="43.3307767" lon="2.1178283"><ele>179.0</ele><time>2026-05-01T15:56:27.999Z</time></trkpt><trkpt lat="43.3308417" lon="2.1177817"><ele>179.57142857142858</ele><time>2026-05-01T15:56:28.997Z</time></trkpt><trkpt lat="43.330905" lon="2.117735"><ele>180.14285714285714</ele><time>2026-05-01T15:56:29.997Z</time></trkpt><trkpt lat="43.3309683" lon="2.1177017"><ele>180.71428571428572</ele><time>2026-05-01T15:56:30.997Z</time></trkpt><trkpt lat="43.331035" lon="2.117665"><ele>181.28571428571428</ele><time>2026-05-01T15:56:31.999Z</time></trkpt><trkpt lat="43.3310983" lon="2.11763"><ele>181.85714285714286</ele><time>2026-05-01T15:56:32.999Z</time></trkpt><trkpt lat="43.3311617" lon="2.1175983"><ele>182.42857142857144</ele><time>2026-05-01T15:56:33.997Z</time></trkpt><trkpt lat="43.3312333" lon="2.11757"><ele>183.0</ele><time>2026-05-01T15:56:34.999Z</time></trkpt><trkpt lat="43.3313083" lon="2.1175383"><ele>183.0</ele><time>2026-05-01T15:56:35.998Z</time></trkpt><trkpt lat="43.3313817" lon="2.11751"><ele>183.0</ele><time>2026-05-01T15:56:36.999Z</time></trkpt><trkpt lat="43.3314533" lon="2.1174833"><ele>183.0</ele><time>2026-05-01T15:56:38Z</time></trkpt><trkpt lat="43.331525" lon="2.1174483"><ele>183.0</ele><time>2026-05-01T15:56:38.999Z</time></trkpt><trkpt lat="43.3316083" lon="2.1174117"><ele>183.0</ele><time>2026-05-01T15:56:39.999Z</time></trkpt><trkpt lat="43.3316883" lon="2.1173783"><ele>183.0</ele><time>2026-05-01T15:56:40.999Z</time></trkpt><trkpt lat="43.3317633" lon="2.1173483"><ele>184.0</ele><time>2026-05-01T15:56:41.999Z</time></trkpt><trkpt lat="43.3318317" lon="2.1173083"><ele>185.0</ele><time>2026-05-01T15:56:42.997Z</time></trkpt><trkpt lat="43.3319333" lon="2.1172633"><ele>186.0</ele><time>2026-05-01T15:56:44.998Z</time></trkpt><trkpt lat="43.332" lon="2.1172167"><ele>187.0</ele><time>2026-05-01T15:56:46.998Z</time></trkpt><trkpt lat="43.3319333" lon="2.1172433"><ele>188.0</ele><time>2026-05-01T15:57:25.997Z</time></trkpt><trkpt lat="43.3318533" lon="2.1172817"><ele>189.0</ele><time>2026-05-01T15:57:27.997Z</time></trkpt><trkpt lat="43.3317667" lon="2.1173267"><ele>189.0</ele><time>2026-05-01T15:57:29.997Z</time></trkpt><trkpt lat="43.3316833" lon="2.1173667"><ele>189.0</ele><time>2026-05-01T15:57:31.997Z</time></trkpt><trkpt lat="43.3316183" lon="2.1173733"><ele>189.0</ele><time>2026-05-01T15:57:33.998Z</time></trkpt><trkpt lat="43.3315733" lon="2.11729"><ele>189.0</ele><time>2026-05-01T15:57:35.997Z</time></trkpt><trkpt lat="43.33154" lon="2.11714"><ele>189.0</ele><time>2026-05-01T15:57:37.997Z</time></trkpt><trkpt lat="43.3315267" lon="2.1170517"><ele>189.0</ele><time>2026-05-01T15:57:38.998Z</time></trkpt><trkpt lat="43.33151" lon="2.1169617"><ele>189.0</ele><time>2026-05-01T15:57:39.997Z</time></trkpt><trkpt lat="43.331495" lon="2.1168717"><ele>189.0</ele><time>2026-05-01T15:57:40.999Z</time></trkpt><trkpt lat="43.331475" lon="2.1167833"><ele>189.0</ele><time>2026-05-01T15:57:41.998Z</time></trkpt><trkpt lat="43.331455" lon="2.116675"><ele>189.0</ele><time>2026-05-01T15:57:42.999Z</time></trkpt><trkpt lat="43.3314283" lon="2.1165633"><ele>189.0</ele><time>2026-05-01T15:57:43.997Z</time></trkpt><trkpt lat="43.3313967" lon="2.11644"><ele>189.0</ele><time>2026-05-01T15:57:45.003Z</time></trkpt><trkpt lat="43.3313683" lon="2.1163167"><ele>188.2</ele><time>2026-05-01T15:57:45.997Z</time></trkpt><trkpt lat="43.3313417" lon="2.116185"><ele>187.39999999999998</ele><time>2026-05-01T15:57:46.999Z</time></trkpt><trkpt lat="43.33131" lon="2.11606"><ele>186.6</ele><time>2026-05-01T15:57:47.997Z</time></trkpt><trkpt lat="43.33127" lon="2.11592"><ele>185.8</ele><time>2026-05-01T15:57:48.999Z</time></trkpt><trkpt lat="43.3312283" lon="2.1157633"><ele>185.0</ele><time>2026-05-01T15:57:49.999Z</time></trkpt><trkpt lat="43.3311967" lon="2.1155917"><ele>185.0</ele><time>2026-05-01T15:57:51Z</time></trkpt><trkpt lat="43.33117" lon="2.115425"><ele>185.0</ele><time>2026-05-01T15:57:51.997Z</time></trkpt><trkpt lat="43.3311267" lon="2.1152483"><ele>185.0</ele><time>2026-05-01T15:57:52.998Z</time></trkpt><trkpt lat="43.3310867" lon="2.1150683"><ele>185.0</ele><time>2026-05-01T15:57:53.999Z</time></trkpt><trkpt lat="43.3310483" lon="2.1148917"><ele>186.75</ele><time>2026-05-01T15:57:54.999Z</time></trkpt><trkpt lat="43.3310133" lon="2.1147167"><ele>188.5</ele><time>2026-05-01T15:57:55.997Z</time></trkpt><trkpt lat="43.3309683" lon="2.1145733"><ele>190.25</ele><time>2026-05-01T15:57:57Z</time></trkpt><trkpt lat="43.3309" lon="2.11445"><ele>192.0</ele><time>2026-05-01T15:57:57.998Z</time></trkpt><trkpt lat="43.3308067" lon="2.1143733"><ele>192.0</ele><time>2026-05-01T15:57:58.999Z</time></trkpt><trkpt lat="43.3307017" lon="2.1143533"><ele>192.0</ele><time>2026-05-01T15:57:59.998Z</time></trkpt><trkpt lat="43.3305967" lon="2.1143917"><ele>192.0</ele><time>2026-05-01T15:58:00.998Z</time></trkpt><trkpt lat="43.3305083" lon="2.11449"><ele>192.0</ele><time>2026-05-01T15:58:01.997Z</time></trkpt><trkpt lat="43.330425" lon="2.1146433"><ele>194.25</ele><time>2026-05-01T15:58:02.999Z</time></trkpt><trkpt lat="43.3303567" lon="2.114815"><ele>196.5</ele><time>2026-05-01T15:58:03.999Z</time></trkpt><trkpt lat="43.3302967" lon="2.1150067"><ele>198.75</ele><time>2026-05-01T15:58:05Z</time></trkpt><trkpt lat="43.330245" lon="2.1151917"><ele>201.0</ele><time>2026-05-01T15:58:06Z</time></trkpt><trkpt lat="43.3301867" lon="2.1153733"><ele>201.0</ele><time>2026-05-01T15:58:07.001Z</time></trkpt><trkpt lat="43.3301117" lon="2.11553"><ele>201.0</ele><time>2026-05-01T15:58:08Z</time></trkpt><trkpt lat="43.33001" lon="2.1156567"><ele>201.0</ele><time>2026-05-01T15:58:09Z</time></trkpt><trkpt lat="43.3298967" lon="2.1157533"><ele>201.0</ele><time>2026-05-01T15:58:09.999Z</time></trkpt><trkpt lat="43.329775" lon="2.115835"><ele>198.75</ele><time>2026-05-01T15:58:11Z</time></trkpt><trkpt lat="43.32965" lon="2.1158883"><ele>196.5</ele><time>2026-05-01T15:58:12.001Z</time></trkpt><trkpt lat="43.3295367" lon="2.115895"><ele>194.25</ele><time>2026-05-01T15:58:13Z</time></trkpt><trkpt lat="43.3294333" lon="2.115855"><ele>192.0</ele><time>2026-05-01T15:58:13.999Z</time></trkpt><trkpt lat="43.3293583" lon="2.1157633"><ele>193.25</ele><time>2026-05-01T15:58:14.998Z</time></trkpt><trkpt lat="43.3293433" lon="2.1156267"><ele>194.5</ele><time>2026-05-01T15:58:15.998Z</time></trkpt><trkpt lat="43.329355" lon="2.1154817"><ele>195.75</ele><time>2026-05-01T15:58:16.997Z</time></trkpt><trkpt lat="43.32936" lon="2.11532"><ele>197.0</ele><time>2026-05-01T15:58:17.997Z</time></trkpt><trkpt lat="43.329365" lon="2.1151283"><ele>197.0</ele><time>2026-05-01T15:58:18.998Z</time></trkpt><trkpt lat="43.329335" lon="2.1149283"><ele>197.0</ele><time>2026-05-01T15:58:19.998Z</time></trkpt><trkpt lat="43.32929" lon="2.11473"><ele>197.0</ele><time>2026-05-01T15:58:21Z</time></trkpt><trkpt lat="43.3292367" lon="2.114525"><ele>198.75</ele><time>2026-05-01T15:58:21.999Z</time></trkpt><trkpt lat="43.3291883" lon="2.1143317"><ele>200.5</ele><time>2026-05-01T15:58:22.998Z</time></trkpt><trkpt lat="43.32917" lon="2.114155"><ele>202.25</ele><time>2026-05-01T15:58:23.999Z</time></trkpt><trkpt lat="43.3291667" lon="2.1139717"><ele>204.0</ele><time>2026-05-01T15:58:24.998Z</time></trkpt><trkpt lat="43.3291783" lon="2.1137817"><ele>205.5</ele><time>2026-05-01T15:58:25.998Z</time></trkpt><trkpt lat="43.3292117" lon="2.113595"><ele>207.0</ele><time>2026-05-01T15:58:26.998Z</time></trkpt><trkpt lat="43.32925" lon="2.1133967"><ele>208.5</ele><time>2026-05-01T15:58:27.997Z</time></trkpt><trkpt lat="43.32929" lon="2.1131983"><ele>210.0</ele><time>2026-05-01T15:58:28.997Z</time></trkpt><trkpt lat="43.3293367" lon="2.1129917"><ele>211.0</ele><time>2026-05-01T15:58:29.998Z</time></trkpt><trkpt lat="43.3294033" lon="2.1127667"><ele>212.0</ele><time>2026-05-01T15:58:30.998Z</time></trkpt><trkpt lat="43.3294867" lon="2.11255"><ele>213.0</ele><time>2026-05-01T15:58:31.998Z</time></trkpt><trkpt lat="43.329585" lon="2.1123467"><ele>213.66666666666669</ele><time>2026-05-01T15:58:32.998Z</time></trkpt><trkpt lat="43.3296817" lon="2.112145"><ele>214.33333333333334</ele><time>2026-05-01T15:58:33.997Z</time></trkpt><trkpt lat="43.3297833" lon="2.1119533"><ele>215.0</ele><time>2026-05-01T15:58:34.998Z</time></trkpt><trkpt lat="43.3298883" lon="2.1117567"><ele>216.0</ele><time>2026-05-01T15:58:35.997Z</time></trkpt><trkpt lat="43.329995" lon="2.1115567"><ele>217.0</ele><time>2026-05-01T15:58:36.998Z</time></trkpt><trkpt lat="43.3301" lon="2.1113417"><ele>218.0</ele><time>2026-05-01T15:58:37.999Z</time></trkpt><trkpt lat="43.33021" lon="2.1111317"><ele>218.0</ele><time>2026-05-01T15:58:38.997Z</time></trkpt><trkpt lat="43.3303217" lon="2.1109217"><ele>218.0</ele><time>2026-05-01T15:58:39.997Z</time></trkpt><trkpt lat="43.3304283" lon="2.1107233"><ele>218.0</ele><time>2026-05-01T15:58:40.997Z</time></trkpt><trkpt lat="43.3305233" lon="2.11052"><ele>219.33333333333334</ele><time>2026-05-01T15:58:41.998Z</time></trkpt><trkpt lat="43.3306217" lon="2.1103317"><ele>220.66666666666669</ele><time>2026-05-01T15:58:42.999Z</time></trkpt><trkpt lat="43.3307167" lon="2.1101483"><ele>222.0</ele><time>2026-05-01T15:58:43.997Z</time></trkpt><trkpt lat="43.330795" lon="2.1099583"><ele>223.0</ele><time>2026-05-01T15:58:44.998Z</time></trkpt><trkpt lat="43.3308467" lon="2.1097483"><ele>224.0</ele><time>2026-05-01T15:58:45.997Z</time></trkpt><trkpt lat="43.3308717" lon="2.109535"><ele>225.0</ele><time>2026-05-01T15:58:46.999Z</time></trkpt><trkpt lat="43.3308567" lon="2.1093267"><ele>225.0</ele><time>2026-05-01T15:58:48.001Z</time></trkpt><trkpt lat="43.33081" lon="2.1091367"><ele>225.0</ele><time>2026-05-01T15:58:48.998Z</time></trkpt><trkpt lat="43.3307167" lon="2.1089617"><ele>225.0</ele><time>2026-05-01T15:58:49.998Z</time></trkpt><trkpt lat="43.3305967" lon="2.1088217"><ele>229.33333333333331</ele><time>2026-05-01T15:58:50.997Z</time></trkpt><trkpt lat="43.3304583" lon="2.10873"><ele>233.66666666666666</ele><time>2026-05-01T15:58:51.997Z</time></trkpt><trkpt lat="43.330305" lon="2.108705"><ele>238.0</ele><time>2026-05-01T15:58:52.997Z</time></trkpt><trkpt lat="43.3301483" lon="2.1087367"><ele>238.0</ele><time>2026-05-01T15:58:53.997Z</time></trkpt><trkpt lat="43.3299967" lon="2.1088033"><ele>238.0</ele><time>2026-05-01T15:58:55Z</time></trkpt><trkpt lat="43.3298467" lon="2.1089"><ele>238.0</ele><time>2026-05-01T15:58:55.999Z</time></trkpt><trkpt lat="43.329695" lon="2.108995"><ele>237.33333333333331</ele><time>2026-05-01T15:58:57Z</time></trkpt><trkpt lat="43.3295417" lon="2.1090883"><ele>236.66666666666669</ele><time>2026-05-01T15:58:57.997Z</time></trkpt><trkpt lat="43.3293867" lon="2.1091783"><ele>236.0</ele><time>2026-05-01T15:58:58.998Z</time></trkpt><trkpt lat="43.32923" lon="2.1092667"><ele>236.0</ele><time>2026-05-01T15:58:59.999Z</time></trkpt><trkpt lat="43.3290783" lon="2.1093583"><ele>236.0</ele><time>2026-05-01T15:59:00.998Z</time></trkpt><trkpt lat="43.3289383" lon="2.1094467"><ele>236.0</ele><time>2026-05-01T15:59:01.998Z</time></trkpt><trkpt lat="43.3288067" lon="2.1095267"><ele>236.75</ele><time>2026-05-01T15:59:02.999Z</time></trkpt><trkpt lat="43.328685" lon="2.1096"><ele>237.5</ele><time>2026-05-01T15:59:03.999Z</time></trkpt><trkpt lat="43.32857" lon="2.10966"><ele>238.25</ele><time>2026-05-01T15:59:04.998Z</time></trkpt><trkpt lat="43.3284567" lon="2.1097017"><ele>239.0</ele><time>2026-05-01T15:59:05.999Z</time></trkpt><trkpt lat="43.3283433" lon="2.1097033"><ele>239.0</ele><time>2026-05-01T15:59:06.997Z</time></trkpt><trkpt lat="43.328235" lon="2.10967"><ele>239.0</ele><time>2026-05-01T15:59:07.999Z</time></trkpt><trkpt lat="43.3281283" lon="2.1096067"><ele>239.0</ele><time>2026-05-01T15:59:08.999Z</time></trkpt><trkpt lat="43.3280267" lon="2.109505"><ele>239.0</ele><time>2026-05-01T15:59:09.998Z</time></trkpt><trkpt lat="43.32792" lon="2.1093817"><ele>238.33333333333334</ele><time>2026-05-01T15:59:10.999Z</time></trkpt><trkpt lat="43.327805" lon="2.1092517"><ele>237.66666666666669</ele><time>2026-05-01T15:59:11.997Z</time></trkpt><trkpt lat="43.3276917" lon="2.109125"><ele>237.0</ele><time>2026-05-01T15:59:12.998Z</time></trkpt><trkpt lat="43.32757" lon="2.10899"><ele>236.0</ele><time>2026-05-01T15:59:13.997Z</time></trkpt><trkpt lat="43.3274417" lon="2.1088533"><ele>235.0</ele><time>2026-05-01T15:59:14.998Z</time></trkpt><trkpt lat="43.327315" lon="2.1087117"><ele>234.0</ele><time>2026-05-01T15:59:15.998Z</time></trkpt><trkpt lat="43.3271867" lon="2.1085683"><ele>232.66666666666669</ele><time>2026-05-01T15:59:16.998Z</time></trkpt><trkpt lat="43.3270517" lon="2.1084167"><ele>231.33333333333334</ele><time>2026-05-01T15:59:17.998Z</time></trkpt><trkpt lat="43.3269117" lon="2.1082583"><ele>230.0</ele><time>2026-05-01T15:59:18.999Z</time></trkpt><trkpt lat="43.3267683" lon="2.108095"><ele>229.33333333333334</ele><time>2026-05-01T15:59:19.999Z</time></trkpt><trkpt lat="43.3266217" lon="2.1079333"><ele>228.66666666666669</ele><time>2026-05-01T15:59:20.998Z</time></trkpt><trkpt lat="43.326475" lon="2.1077683"><ele>228.0</ele><time>2026-05-01T15:59:21.998Z</time></trkpt><trkpt lat="43.326325" lon="2.1076"><ele>226.33333333333331</ele><time>2026-05-01T15:59:23Z</time></trkpt><trkpt lat="43.3261767" lon="2.107435"><ele>224.66666666666666</ele><time>2026-05-01T15:59:23.999Z</time></trkpt><trkpt lat="43.3260333" lon="2.1072683"><ele>223.0</ele><time>2026-05-01T15:59:24.997Z</time></trkpt><trkpt lat="43.325885" lon="2.1071067"><ele>223.0</ele><time>2026-05-01T15:59:25.997Z</time></trkpt><trkpt lat="43.3257367" lon="2.1069483"><ele>223.0</ele><time>2026-05-01T15:59:26.998Z</time></trkpt><trkpt lat="43.3255883" lon="2.1067883"><ele>223.0</ele><time>2026-05-01T15:59:27.997Z</time></trkpt><trkpt lat="43.325445" lon="2.1066267"><ele>223.33333333333331</ele><time>2026-05-01T15:59:28.998Z</time></trkpt><trkpt lat="43.3253" lon="2.106465"><ele>223.66666666666669</ele><time>2026-05-01T15:59:29.997Z</time></trkpt><trkpt lat="43.3251567" lon="2.1063033"><ele>224.0</ele><time>2026-05-01T15:59:30.998Z</time></trkpt><trkpt lat="43.325015" lon="2.1061433"><ele>224.0</ele><time>2026-05-01T15:59:31.999Z</time></trkpt><trkpt lat="43.3248783" lon="2.1059767"><ele>224.0</ele><time>2026-05-01T15:59:32.998Z</time></trkpt><trkpt lat="43.324745" lon="2.1058117"><ele>224.0</ele><time>2026-05-01T15:59:33.998Z</time></trkpt><trkpt lat="43.3246083" lon="2.105645"><ele>223.0</ele><time>2026-05-01T15:59:34.999Z</time></trkpt><trkpt lat="43.3244717" lon="2.105475"><ele>222.0</ele><time>2026-05-01T15:59:35.998Z</time></trkpt><trkpt lat="43.3243267" lon="2.1053083"><ele>221.0</ele><time>2026-05-01T15:59:37Z</time></trkpt><trkpt lat="43.3241867" lon="2.1051333"><ele>221.0</ele><time>2026-05-01T15:59:37.998Z</time></trkpt><trkpt lat="43.3240467" lon="2.1049633"><ele>221.0</ele><time>2026-05-01T15:59:38.997Z</time></trkpt><trkpt lat="43.3239033" lon="2.1047867"><ele>221.0</ele><time>2026-05-01T15:59:39.998Z</time></trkpt><trkpt lat="43.323765" lon="2.1046033"><ele>217.66666666666669</ele><time>2026-05-01T15:59:41.001Z</time></trkpt><trkpt lat="43.3236317" lon="2.10442"><ele>214.33333333333331</ele><time>2026-05-01T15:59:41.999Z</time></trkpt><trkpt lat="43.3234967" lon="2.1042483"><ele>211.0</ele><time>2026-05-01T15:59:42.997Z</time></trkpt><trkpt lat="43.3233483" lon="2.1040983"><ele>210.33333333333331</ele><time>2026-05-01T15:59:43.997Z</time></trkpt><trkpt lat="43.3231867" lon="2.103965"><ele>209.66666666666669</ele><time>2026-05-01T15:59:44.998Z</time></trkpt><trkpt lat="43.3230083" lon="2.1038617"><ele>209.0</ele><time>2026-05-01T15:59:45.997Z</time></trkpt><trkpt lat="43.322825" lon="2.1037817"><ele>209.0</ele><time>2026-05-01T15:59:46.997Z</time></trkpt><trkpt lat="43.32264" lon="2.1037067"><ele>209.0</ele><time>2026-05-01T15:59:48.001Z</time></trkpt><trkpt lat="43.3224533" lon="2.10364"><ele>209.0</ele><time>2026-05-01T15:59:48.999Z</time></trkpt><trkpt lat="43.322265" lon="2.1035833"><ele>208.66666666666669</ele><time>2026-05-01T15:59:50Z</time></trkpt><trkpt lat="43.3220767" lon="2.10353"><ele>208.33333333333331</ele><time>2026-05-01T15:59:50.999Z</time></trkpt><trkpt lat="43.32189" lon="2.1034783"><ele>208.0</ele><time>2026-05-01T15:59:51.999Z</time></trkpt><trkpt lat="43.3217033" lon="2.1034267"><ele>208.0</ele><time>2026-05-01T15:59:52.998Z</time></trkpt><trkpt lat="43.3215183" lon="2.1033817"><ele>208.0</ele><time>2026-05-01T15:59:53.998Z</time></trkpt><trkpt lat="43.3213383" lon="2.1033367"><ele>208.0</ele><time>2026-05-01T15:59:54.998Z</time></trkpt><trkpt lat="43.32117" lon="2.1032933"><ele>205.66666666666666</ele><time>2026-05-01T15:59:55.998Z</time></trkpt><trkpt lat="43.321005" lon="2.10325"><ele>203.33333333333331</ele><time>2026-05-01T15:59:56.999Z</time></trkpt><trkpt lat="43.3208467" lon="2.10321"><ele>201.0</ele><time>2026-05-01T15:59:57.998Z</time></trkpt><trkpt lat="43.320685" lon="2.10319"><ele>199.0</ele><time>2026-05-01T15:59:58.999Z</time></trkpt><trkpt lat="43.320525" lon="2.103205"><ele>197.0</ele><time>2026-05-01T15:59:59.998Z</time></trkpt><trkpt lat="43.3203633" lon="2.1032433"><ele>195.0</ele><time>2026-05-01T16:00:00.998Z</time></trkpt><trkpt lat="43.3202133" lon="2.1033017"><ele>195.0</ele><time>2026-05-01T16:00:01.998Z</time></trkpt><trkpt lat="43.320075" lon="2.1033683"><ele>195.0</ele><time>2026-05-01T16:00:02.998Z</time></trkpt><trkpt lat="43.3199467" lon="2.10344"><ele>195.0</ele><time>2026-05-01T16:00:03.998Z</time></trkpt><trkpt lat="43.31983" lon="2.103525"><ele>195.0</ele><time>2026-05-01T16:00:04.999Z</time></trkpt><trkpt lat="43.319745" lon="2.1036433"><ele>194.5</ele><time>2026-05-01T16:00:05.998Z</time></trkpt><trkpt lat="43.31969" lon="2.10379"><ele>194.0</ele><time>2026-05-01T16:00:06.997Z</time></trkpt><trkpt lat="43.3196617" lon="2.103955"><ele>193.5</ele><time>2026-05-01T16:00:07.998Z</time></trkpt><trkpt lat="43.31963" lon="2.104115"><ele>193.0</ele><time>2026-05-01T16:00:08.998Z</time></trkpt><trkpt lat="43.3195817" lon="2.10426"><ele>193.0</ele><time>2026-05-01T16:00:09.997Z</time></trkpt><trkpt lat="43.3195083" lon="2.1043783"><ele>193.0</ele><time>2026-05-01T16:00:10.997Z</time></trkpt><trkpt lat="43.31942" lon="2.1044717"><ele>193.0</ele><time>2026-05-01T16:00:12Z</time></trkpt><trkpt lat="43.3192967" lon="2.1044933"><ele>193.0</ele><time>2026-05-01T16:00:13.002Z</time></trkpt><trkpt lat="43.3191683" lon="2.104485"><ele>193.0</ele><time>2026-05-01T16:00:13.997Z</time></trkpt><trkpt lat="43.3190433" lon="2.10444"><ele>193.0</ele><time>2026-05-01T16:00:15.005Z</time></trkpt><trkpt lat="43.318945" lon="2.1043433"><ele>193.0</ele><time>2026-05-01T16:00:15.998Z</time></trkpt><trkpt lat="43.31887" lon="2.1042017"><ele>193.0</ele><time>2026-05-01T16:00:16.998Z</time></trkpt><trkpt lat="43.3188283" lon="2.1040283"><ele>191.25</ele><time>2026-05-01T16:00:17.998Z</time></trkpt><trkpt lat="43.3188233" lon="2.1038367"><ele>189.5</ele><time>2026-05-01T16:00:18.999Z</time></trkpt><trkpt lat="43.3188417" lon="2.103645"><ele>187.75</ele><time>2026-05-01T16:00:19.998Z</time></trkpt><trkpt lat="43.3188467" lon="2.1034683"><ele>186.0</ele><time>2026-05-01T16:00:20.999Z</time></trkpt><trkpt lat="43.31881" lon="2.1033"><ele>185.0</ele><time>2026-05-01T16:00:21.998Z</time></trkpt><trkpt lat="43.318735" lon="2.1031483"><ele>184.0</ele><time>2026-05-01T16:00:22.998Z</time></trkpt><trkpt lat="43.3186417" lon="2.1030033"><ele>183.0</ele><time>2026-05-01T16:00:23.998Z</time></trkpt><trkpt lat="43.31853" lon="2.1028633"><ele>182.0</ele><time>2026-05-01T16:00:25.001Z</time></trkpt><trkpt lat="43.3184233" lon="2.1027283"><ele>182.0</ele><time>2026-05-01T16:00:26.002Z</time></trkpt><trkpt lat="43.3183133" lon="2.1025883"><ele>182.0</ele><time>2026-05-01T16:00:27.002Z</time></trkpt><trkpt lat="43.3182067" lon="2.1024483"><ele>182.0</ele><time>2026-05-01T16:00:27.998Z</time></trkpt><trkpt lat="43.3181017" lon="2.10232"><ele>182.0</ele><time>2026-05-01T16:00:29.003Z</time></trkpt><trkpt lat="43.3179867" lon="2.1022067"><ele>180.5</ele><time>2026-05-01T16:00:29.999Z</time></trkpt><trkpt lat="43.31786" lon="2.1021483"><ele>179.0</ele><time>2026-05-01T16:00:30.998Z</time></trkpt><trkpt lat="43.3177233" lon="2.10213"><ele>177.5</ele><time>2026-05-01T16:00:31.998Z</time></trkpt><trkpt lat="43.31759" lon="2.1021167"><ele>176.0</ele><time>2026-05-01T16:00:33Z</time></trkpt><trkpt lat="43.3174667" lon="2.102095"><ele>176.0</ele><time>2026-05-01T16:00:33.998Z</time></trkpt><trkpt lat="43.3173533" lon="2.1020517"><ele>176.0</ele><time>2026-05-01T16:00:34.998Z</time></trkpt><trkpt lat="43.317255" lon="2.1019883"><ele>176.0</ele><time>2026-05-01T16:00:35.999Z</time></trkpt><trkpt lat="43.3171667" lon="2.1019233"><ele>176.0</ele><time>2026-05-01T16:00:36.998Z</time></trkpt><trkpt lat="43.3171" lon="2.1018617"><ele>176.0</ele><time>2026-05-01T16:00:37.998Z</time></trkpt><trkpt lat="43.3170483" lon="2.1018033"><ele>175.66666666666666</ele><time>2026-05-01T16:00:39.001Z</time></trkpt><trkpt lat="43.3169917" lon="2.101725"><ele>175.33333333333331</ele><time>2026-05-01T16:00:40.998Z</time></trkpt><trkpt lat="43.316925" lon="2.1016517"><ele>175.0</ele><time>2026-05-01T16:00:45Z</time></trkpt><trkpt lat="43.3168633" lon="2.101565"><ele>174.66666666666666</ele><time>2026-05-01T16:00:46.998Z</time></trkpt><trkpt lat="43.3167867" lon="2.101435"><ele>174.33333333333334</ele><time>2026-05-01T16:00:49.004Z</time></trkpt><trkpt lat="43.3167417" lon="2.1013667"><ele>174.0</ele><time>2026-05-01T16:00:49.999Z</time></trkpt><trkpt lat="43.3166933" lon="2.101295"><ele>173.16666666666666</ele><time>2026-05-01T16:00:51Z</time></trkpt><trkpt lat="43.3166433" lon="2.101225"><ele>172.33333333333334</ele><time>2026-05-01T16:00:51.999Z</time></trkpt><trkpt lat="43.3165817" lon="2.101155"><ele>171.5</ele><time>2026-05-01T16:00:52.997Z</time></trkpt><trkpt lat="43.3165083" lon="2.10109"><ele>170.66666666666669</ele><time>2026-05-01T16:00:54.001Z</time></trkpt><trkpt lat="43.316425" lon="2.10105"><ele>169.83333333333334</ele><time>2026-05-01T16:00:54.998Z</time></trkpt><trkpt lat="43.3163333" lon="2.1010233"><ele>169.0</ele><time>2026-05-01T16:00:55.998Z</time></trkpt><trkpt lat="43.31623" lon="2.1009983"><ele>169.0</ele><time>2026-05-01T16:00:56.998Z</time></trkpt><trkpt lat="43.316115" lon="2.10098"><ele>169.0</ele><time>2026-05-01T16:00:57.998Z</time></trkpt><trkpt lat="43.316" lon="2.1009617"><ele>169.0</ele><time>2026-05-01T16:00:58.998Z</time></trkpt><trkpt lat="43.3158867" lon="2.100945"><ele>169.0</ele><time>2026-05-01T16:00:59.998Z</time></trkpt><trkpt lat="43.315765" lon="2.100925"><ele>169.0</ele><time>2026-05-01T16:01:01Z</time></trkpt><trkpt lat="43.3156383" lon="2.1008933"><ele>169.0</ele><time>2026-05-01T16:01:01.999Z</time></trkpt><trkpt lat="43.31551" lon="2.1008417"><ele>169.0</ele><time>2026-05-01T16:01:02.999Z</time></trkpt><trkpt lat="43.31538" lon="2.10078"><ele>169.0</ele><time>2026-05-01T16:01:03.998Z</time></trkpt><trkpt lat="43.3152467" lon="2.1007167"><ele>167.5</ele><time>2026-05-01T16:01:04.999Z</time></trkpt><trkpt lat="43.3151117" lon="2.1006467"><ele>166.0</ele><time>2026-05-01T16:01:05.998Z</time></trkpt><trkpt lat="43.314975" lon="2.10057"><ele>164.5</ele><time>2026-05-01T16:01:06.999Z</time></trkpt><trkpt lat="43.314835" lon="2.1004967"><ele>163.0</ele><time>2026-05-01T16:01:07.998Z</time></trkpt><trkpt lat="43.3146983" lon="2.100425"><ele>162.33333333333334</ele><time>2026-05-01T16:01:08.999Z</time></trkpt><trkpt lat="43.3145617" lon="2.10035"><ele>161.66666666666666</ele><time>2026-05-01T16:01:09.998Z</time></trkpt><trkpt lat="43.3144217" lon="2.1002633"><ele>161.0</ele><time>2026-05-01T16:01:10.999Z</time></trkpt><trkpt lat="43.3142817" lon="2.1001733"><ele>161.0</ele><time>2026-05-01T16:01:11.997Z</time></trkpt><trkpt lat="43.3141433" lon="2.1000817"><ele>161.0</ele><time>2026-05-01T16:01:12.997Z</time></trkpt><trkpt lat="43.3140017" lon="2.0999867"><ele>161.0</ele><time>2026-05-01T16:01:13.997Z</time></trkpt><trkpt lat="43.31386" lon="2.099895"><ele>160.5</ele><time>2026-05-01T16:01:15Z</time></trkpt><trkpt lat="43.3137217" lon="2.09981"><ele>160.0</ele><time>2026-05-01T16:01:16Z</time></trkpt><trkpt lat="43.313585" lon="2.099725"><ele>159.5</ele><time>2026-05-01T16:01:17Z</time></trkpt><trkpt lat="43.31345" lon="2.0996433"><ele>159.0</ele><time>2026-05-01T16:01:18Z</time></trkpt><trkpt lat="43.3133183" lon="2.09959"><ele>159.0</ele><time>2026-05-01T16:01:19Z</time></trkpt><trkpt lat="43.3131933" lon="2.099585"><ele>159.0</ele><time>2026-05-01T16:01:20Z</time></trkpt><trkpt lat="43.313075" lon="2.0996367"><ele>159.0</ele><time>2026-05-01T16:01:20.999Z</time></trkpt><trkpt lat="43.31297" lon="2.0997333"><ele>159.0</ele><time>2026-05-01T16:01:22Z</time></trkpt><trkpt lat="43.3128617" lon="2.09983"><ele>159.0</ele><time>2026-05-01T16:01:22.999Z</time></trkpt><trkpt lat="43.3127467" lon="2.0999067"><ele>159.0</ele><time>2026-05-01T16:01:23.999Z</time></trkpt><trkpt lat="43.3126183" lon="2.0999483"><ele>159.0</ele><time>2026-05-01T16:01:24.999Z</time></trkpt><trkpt lat="43.3124833" lon="2.0999317"><ele>159.0</ele><time>2026-05-01T16:01:25.997Z</time></trkpt><trkpt lat="43.3123483" lon="2.0998933"><ele>158.33333333333334</ele><time>2026-05-01T16:01:26.999Z</time></trkpt><trkpt lat="43.3122017" lon="2.0998417"><ele>157.66666666666669</ele><time>2026-05-01T16:01:27.998Z</time></trkpt><trkpt lat="43.31205" lon="2.0997867"><ele>157.0</ele><time>2026-05-01T16:01:28.998Z</time></trkpt><trkpt lat="43.311905" lon="2.0997267"><ele>157.0</ele><time>2026-05-01T16:01:29.998Z</time></trkpt><trkpt lat="43.31176" lon="2.099665"><ele>157.0</ele><time>2026-05-01T16:01:30.998Z</time></trkpt><trkpt lat="43.3116133" lon="2.0996033"><ele>157.0</ele><time>2026-05-01T16:01:31.999Z</time></trkpt><trkpt lat="43.3114633" lon="2.0995317"><ele>157.0</ele><time>2026-05-01T16:01:33Z</time></trkpt><trkpt lat="43.3113117" lon="2.0994583"><ele>157.0</ele><time>2026-05-01T16:01:34Z</time></trkpt><trkpt lat="43.311155" lon="2.0993833"><ele>157.0</ele><time>2026-05-01T16:01:34.998Z</time></trkpt><trkpt lat="43.3109883" lon="2.0992983"><ele>157.0</ele><time>2026-05-01T16:01:35.999Z</time></trkpt><trkpt lat="43.3108367" lon="2.099215"><ele>157.0</ele><time>2026-05-01T16:01:36.999Z</time></trkpt><trkpt lat="43.3106833" lon="2.0991417"><ele>157.0</ele><time>2026-05-01T16:01:37.998Z</time></trkpt><trkpt lat="43.3105217" lon="2.0990983"><ele>156.33333333333334</ele><time>2026-05-01T16:01:38.999Z</time></trkpt><trkpt lat="43.3103583" lon="2.0990867"><ele>155.66666666666666</ele><time>2026-05-01T16:01:40Z</time></trkpt><trkpt lat="43.3101933" lon="2.0991167"><ele>155.0</ele><time>2026-05-01T16:01:40.998Z</time></trkpt><trkpt lat="43.3100333" lon="2.099175"><ele>155.0</ele><time>2026-05-01T16:01:41.999Z</time></trkpt><trkpt lat="43.3098867" lon="2.0992483"><ele>155.0</ele><time>2026-05-01T16:01:42.998Z</time></trkpt><trkpt lat="43.30975" lon="2.0993183"><ele>155.0</ele><time>2026-05-01T16:01:43.997Z</time></trkpt><trkpt lat="43.3096267" lon="2.0993783"><ele>155.0</ele><time>2026-05-01T16:01:44.998Z</time></trkpt><trkpt lat="43.30951" lon="2.0994217"><ele>155.0</ele><time>2026-05-01T16:01:45.997Z</time></trkpt><trkpt lat="43.3094017" lon="2.0994283"><ele>155.0</ele><time>2026-05-01T16:01:46.998Z</time></trkpt><trkpt lat="43.3093133" lon="2.0993917"><ele>155.0</ele><time>2026-05-01T16:01:47.998Z</time></trkpt><trkpt lat="43.3092533" lon="2.09932"><ele>155.0</ele><time>2026-05-01T16:01:48.997Z</time></trkpt><trkpt lat="43.3092117" lon="2.0992433"><ele>155.0</ele><time>2026-05-01T16:01:49.998Z</time></trkpt><trkpt lat="43.3092" lon="2.0991333"><ele>155.0</ele><time>2026-05-01T16:01:50.998Z</time></trkpt><trkpt lat="43.30918" lon="2.09902"><ele>155.0</ele><time>2026-05-01T16:01:52.002Z</time></trkpt><trkpt lat="43.3091567" lon="2.0988933"><ele>155.0</ele><time>2026-05-01T16:01:52.997Z</time></trkpt><trkpt lat="43.3090817" lon="2.09875"><ele>155.0</ele><time>2026-05-01T16:01:53.998Z</time></trkpt><trkpt lat="43.309" lon="2.0986117"><ele>155.0</ele><time>2026-05-01T16:01:54.998Z</time></trkpt><trkpt lat="43.3089133" lon="2.098465"><ele>155.0</ele><time>2026-05-01T16:01:55.998Z</time></trkpt><trkpt lat="43.3088183" lon="2.098305"><ele>155.0</ele><time>2026-05-01T16:01:56.998Z</time></trkpt><trkpt lat="43.30872" lon="2.098135"><ele>155.0</ele><time>2026-05-01T16:01:57.998Z</time></trkpt><trkpt lat="43.3086167" lon="2.097965"><ele>155.33333333333331</ele><time>2026-05-01T16:01:58.999Z</time></trkpt><trkpt lat="43.3085167" lon="2.097795"><ele>155.66666666666666</ele><time>2026-05-01T16:01:59.998Z</time></trkpt><trkpt lat="43.3084133" lon="2.0976217"><ele>156.0</ele><time>2026-05-01T16:02:01Z</time></trkpt><trkpt lat="43.308305" lon="2.0974517"><ele>157.33333333333334</ele><time>2026-05-01T16:02:01.999Z</time></trkpt><trkpt lat="43.30819" lon="2.0972783"><ele>158.66666666666669</ele><time>2026-05-01T16:02:03.001Z</time></trkpt><trkpt lat="43.30808" lon="2.0970917"><ele>160.0</ele><time>2026-05-01T16:02:03.999Z</time></trkpt><trkpt lat="43.307965" lon="2.0969083"><ele>160.66666666666669</ele><time>2026-05-01T16:02:04.999Z</time></trkpt><trkpt lat="43.3078417" lon="2.0967333"><ele>161.33333333333334</ele><time>2026-05-01T16:02:05.997Z</time></trkpt><trkpt lat="43.3077067" lon="2.0965767"><ele>162.0</ele><time>2026-05-01T16:02:06.997Z</time></trkpt><trkpt lat="43.3075517" lon="2.0964433"><ele>162.33333333333334</ele><time>2026-05-01T16:02:07.998Z</time></trkpt><trkpt lat="43.3073867" lon="2.0963283"><ele>162.66666666666669</ele><time>2026-05-01T16:02:09Z</time></trkpt><trkpt lat="43.3072233" lon="2.0962217"><ele>163.0</ele><time>2026-05-01T16:02:09.997Z</time></trkpt><trkpt lat="43.3070633" lon="2.0961167"><ele>163.0</ele><time>2026-05-01T16:02:10.998Z</time></trkpt><trkpt lat="43.30691" lon="2.0960083"><ele>163.0</ele><time>2026-05-01T16:02:11.998Z</time></trkpt><trkpt lat="43.3067517" lon="2.0959033"><ele>163.0</ele><time>2026-05-01T16:02:12.999Z</time></trkpt><trkpt lat="43.3065933" lon="2.0958233"><ele>163.0</ele><time>2026-05-01T16:02:13.997Z</time></trkpt><trkpt lat="43.306425" lon="2.0957833"><ele>163.0</ele><time>2026-05-01T16:02:14.999Z</time></trkpt><trkpt lat="43.30626" lon="2.09577"><ele>163.0</ele><time>2026-05-01T16:02:15.997Z</time></trkpt><trkpt lat="43.3060967" lon="2.0957333"><ele>163.66666666666669</ele><time>2026-05-01T16:02:17Z</time></trkpt><trkpt lat="43.3059367" lon="2.0956583"><ele>164.33333333333334</ele><time>2026-05-01T16:02:17.998Z</time></trkpt><trkpt lat="43.3057867" lon="2.0955383"><ele>165.0</ele><time>2026-05-01T16:02:18.999Z</time></trkpt><trkpt lat="43.3056417" lon="2.0953967"><ele>166.66666666666666</ele><time>2026-05-01T16:02:19.997Z</time></trkpt><trkpt lat="43.3054967" lon="2.0952467"><ele>168.33333333333331</ele><time>2026-05-01T16:02:20.999Z</time></trkpt><trkpt lat="43.3053517" lon="2.0951017"><ele>170.0</ele><time>2026-05-01T16:02:22.001Z</time></trkpt><trkpt lat="43.305215" lon="2.0949583"><ele>171.0</ele><time>2026-05-01T16:02:22.998Z</time></trkpt><trkpt lat="43.3050783" lon="2.0948217"><ele>172.0</ele><time>2026-05-01T16:02:23.998Z</time></trkpt><trkpt lat="43.3049433" lon="2.094695"><ele>173.0</ele><time>2026-05-01T16:02:24.998Z</time></trkpt><trkpt lat="43.3048017" lon="2.0945967"><ele>173.0</ele><time>2026-05-01T16:02:25.997Z</time></trkpt><trkpt lat="43.30465" lon="2.09453"><ele>173.0</ele><time>2026-05-01T16:02:27Z</time></trkpt><trkpt lat="43.3044867" lon="2.0945017"><ele>173.0</ele><time>2026-05-01T16:02:27.999Z</time></trkpt><trkpt lat="43.30432" lon="2.09449"><ele>173.0</ele><time>2026-05-01T16:02:29.002Z</time></trkpt><trkpt lat="43.3041433" lon="2.094485"><ele>173.0</ele><time>2026-05-01T16:02:29.998Z</time></trkpt><trkpt lat="43.3039583" lon="2.0944767"><ele>173.0</ele><time>2026-05-01T16:02:30.998Z</time></trkpt><trkpt lat="43.3037667" lon="2.0944633"><ele>172.0</ele><time>2026-05-01T16:02:31.998Z</time></trkpt><trkpt lat="43.303575" lon="2.0944417"><ele>171.0</ele><time>2026-05-01T16:02:33.002Z</time></trkpt><trkpt lat="43.3033833" lon="2.0944067"><ele>170.0</ele><time>2026-05-01T16:02:33.999Z</time></trkpt><trkpt lat="43.3031933" lon="2.0943633"><ele>169.0</ele><time>2026-05-01T16:02:34.999Z</time></trkpt><trkpt lat="43.3030033" lon="2.094295"><ele>168.0</ele><time>2026-05-01T16:02:35.997Z</time></trkpt><trkpt lat="43.30282" lon="2.0942167"><ele>167.0</ele><time>2026-05-01T16:02:37.004Z</time></trkpt><trkpt lat="43.302635" lon="2.0941283"><ele>166.66666666666666</ele><time>2026-05-01T16:02:37.999Z</time></trkpt><trkpt lat="43.302455" lon="2.094035"><ele>166.33333333333334</ele><time>2026-05-01T16:02:38.998Z</time></trkpt><trkpt lat="43.302275" lon="2.0939383"><ele>166.0</ele><time>2026-05-01T16:02:40Z</time></trkpt><trkpt lat="43.3021017" lon="2.0938367"><ele>165.0</ele><time>2026-05-01T16:02:40.998Z</time></trkpt><trkpt lat="43.3019283" lon="2.0937383"><ele>164.0</ele><time>2026-05-01T16:02:41.999Z</time></trkpt><trkpt lat="43.3017483" lon="2.0936767"><ele>163.0</ele><time>2026-05-01T16:02:42.997Z</time></trkpt><trkpt lat="43.30156" lon="2.09364"><ele>161.66666666666669</ele><time>2026-05-01T16:02:43.998Z</time></trkpt><trkpt lat="43.3013633" lon="2.09362"><ele>160.33333333333334</ele><time>2026-05-01T16:02:44.999Z</time></trkpt><trkpt lat="43.30117" lon="2.0936017"><ele>159.0</ele><time>2026-05-01T16:02:45.998Z</time></trkpt><trkpt lat="43.3009733" lon="2.09358"><ele>159.0</ele><time>2026-05-01T16:02:46.997Z</time></trkpt><trkpt lat="43.3007767" lon="2.09356"><ele>159.0</ele><time>2026-05-01T16:02:47.998Z</time></trkpt><trkpt lat="43.3005817" lon="2.0935383"><ele>159.0</ele><time>2026-05-01T16:02:48.997Z</time></trkpt><trkpt lat="43.3003883" lon="2.0935183"><ele>159.66666666666666</ele><time>2026-05-01T16:02:49.997Z</time></trkpt><trkpt lat="43.300195" lon="2.0934967"><ele>160.33333333333331</ele><time>2026-05-01T16:02:50.997Z</time></trkpt><trkpt lat="43.3000083" lon="2.0934767"><ele>161.0</ele><time>2026-05-01T16:02:51.999Z</time></trkpt><trkpt lat="43.2998217" lon="2.0934617"><ele>162.0</ele><time>2026-05-01T16:02:52.997Z</time></trkpt><trkpt lat="43.2996433" lon="2.093435"><ele>163.0</ele><time>2026-05-01T16:02:53.997Z</time></trkpt><trkpt lat="43.299475" lon="2.093395"><ele>164.0</ele><time>2026-05-01T16:02:54.997Z</time></trkpt><trkpt lat="43.299315" lon="2.0933333"><ele>163.66666666666666</ele><time>2026-05-01T16:02:55.998Z</time></trkpt><trkpt lat="43.2991633" lon="2.093255"><ele>163.33333333333334</ele><time>2026-05-01T16:02:56.998Z</time></trkpt><trkpt lat="43.2990083" lon="2.093165"><ele>163.0</ele><time>2026-05-01T16:02:57.997Z</time></trkpt><trkpt lat="43.2988533" lon="2.093065"><ele>162.66666666666669</ele><time>2026-05-01T16:02:58.996Z</time></trkpt><trkpt lat="43.298695" lon="2.0929517"><ele>162.33333333333334</ele><time>2026-05-01T16:02:59.997Z</time></trkpt><trkpt lat="43.29854" lon="2.0928267"><ele>162.0</ele><time>2026-05-01T16:03:00.996Z</time></trkpt><trkpt lat="43.2983833" lon="2.0926967"><ele>162.0</ele><time>2026-05-01T16:03:01.997Z</time></trkpt><trkpt lat="43.2982267" lon="2.09257"><ele>162.0</ele><time>2026-05-01T16:03:02.998Z</time></trkpt><trkpt lat="43.29807" lon="2.0924433"><ele>162.0</ele><time>2026-05-01T16:03:03.997Z</time></trkpt><trkpt lat="43.2979117" lon="2.0923167"><ele>161.0</ele><time>2026-05-01T16:03:04.997Z</time></trkpt><trkpt lat="43.2977567" lon="2.0921933"><ele>160.0</ele><time>2026-05-01T16:03:05.997Z</time></trkpt><trkpt lat="43.2976017" lon="2.09207"><ele>159.0</ele><time>2026-05-01T16:03:06.997Z</time></trkpt><trkpt lat="43.297445" lon="2.0919467"><ele>159.0</ele><time>2026-05-01T16:03:07.996Z</time></trkpt><trkpt lat="43.2972883" lon="2.09182"><ele>159.0</ele><time>2026-05-01T16:03:08.997Z</time></trkpt><trkpt lat="43.2971267" lon="2.0916917"><ele>159.0</ele><time>2026-05-01T16:03:09.996Z</time></trkpt><trkpt lat="43.2969667" lon="2.0915633"><ele>159.0</ele><time>2026-05-01T16:03:10.997Z</time></trkpt><trkpt lat="43.2968033" lon="2.091435"><ele>159.0</ele><time>2026-05-01T16:03:11.996Z</time></trkpt><trkpt lat="43.2966417" lon="2.0913067"><ele>159.0</ele><time>2026-05-01T16:03:12.997Z</time></trkpt><trkpt lat="43.2964783" lon="2.0911783"><ele>160.66666666666666</ele><time>2026-05-01T16:03:13.997Z</time></trkpt><trkpt lat="43.2963167" lon="2.09105"><ele>162.33333333333331</ele><time>2026-05-01T16:03:15Z</time></trkpt><trkpt lat="43.296155" lon="2.09092"><ele>164.0</ele><time>2026-05-01T16:03:15.997Z</time></trkpt><trkpt lat="43.2959917" lon="2.0907933"><ele>164.33333333333331</ele><time>2026-05-01T16:03:16.997Z</time></trkpt><trkpt lat="43.295835" lon="2.0906683"><ele>164.66666666666666</ele><time>2026-05-01T16:03:17.998Z</time></trkpt><trkpt lat="43.2956783" lon="2.0905483"><ele>165.0</ele><time>2026-05-01T16:03:18.998Z</time></trkpt><trkpt lat="43.2955183" lon="2.09045"><ele>166.33333333333334</ele><time>2026-05-01T16:03:19.999Z</time></trkpt><trkpt lat="43.29535" lon="2.0903783"><ele>167.66666666666669</ele><time>2026-05-01T16:03:20.998Z</time></trkpt><trkpt lat="43.29517" lon="2.090335"><ele>169.0</ele><time>2026-05-01T16:03:21.997Z</time></trkpt><trkpt lat="43.2949917" lon="2.09031"><ele>169.0</ele><time>2026-05-01T16:03:22.999Z</time></trkpt><trkpt lat="43.29482" lon="2.0902867"><ele>169.0</ele><time>2026-05-01T16:03:23.998Z</time></trkpt><trkpt lat="43.294645" lon="2.0902517"><ele>169.0</ele><time>2026-05-01T16:03:24.997Z</time></trkpt><trkpt lat="43.2944683" lon="2.0902083"><ele>170.0</ele><time>2026-05-01T16:03:26Z</time></trkpt><trkpt lat="43.29429" lon="2.0901633"><ele>171.0</ele><time>2026-05-01T16:03:27.002Z</time></trkpt><trkpt lat="43.294115" lon="2.0901017"><ele>172.0</ele><time>2026-05-01T16:03:27.997Z</time></trkpt><trkpt lat="43.2939383" lon="2.09003"><ele>173.33333333333334</ele><time>2026-05-01T16:03:28.997Z</time></trkpt><trkpt lat="43.2937617" lon="2.08994"><ele>174.66666666666666</ele><time>2026-05-01T16:03:29.997Z</time></trkpt><trkpt lat="43.2935917" lon="2.0898317"><ele>176.0</ele><time>2026-05-01T16:03:30.998Z</time></trkpt><trkpt lat="43.2934283" lon="2.0897133"><ele>176.0</ele><time>2026-05-01T16:03:31.996Z</time></trkpt><trkpt lat="43.2932683" lon="2.0895867"><ele>176.0</ele><time>2026-05-01T16:03:32.998Z</time></trkpt><trkpt lat="43.2931133" lon="2.0894433"><ele>176.0</ele><time>2026-05-01T16:03:33.997Z</time></trkpt><trkpt lat="43.2929633" lon="2.0892933"><ele>177.66666666666666</ele><time>2026-05-01T16:03:34.996Z</time></trkpt><trkpt lat="43.292805" lon="2.089145"><ele>179.33333333333334</ele><time>2026-05-01T16:03:35.996Z</time></trkpt><trkpt lat="43.29266" lon="2.0890083"><ele>181.0</ele><time>2026-05-01T16:03:36.997Z</time></trkpt><trkpt lat="43.292525" lon="2.0888783"><ele>181.0</ele><time>2026-05-01T16:03:37.998Z</time></trkpt><trkpt lat="43.29241" lon="2.0887617"><ele>181.0</ele><time>2026-05-01T16:03:38.998Z</time></trkpt><trkpt lat="43.2922983" lon="2.0886633"><ele>181.0</ele><time>2026-05-01T16:03:39.998Z</time></trkpt><trkpt lat="43.2921833" lon="2.08861"><ele>181.0</ele><time>2026-05-01T16:03:40.997Z</time></trkpt><trkpt lat="43.29206" lon="2.088605"><ele>181.0</ele><time>2026-05-01T16:03:42.002Z</time></trkpt><trkpt lat="43.2919383" lon="2.088645"><ele>181.0</ele><time>2026-05-01T16:03:42.997Z</time></trkpt><trkpt lat="43.2918167" lon="2.0887183"><ele>181.0</ele><time>2026-05-01T16:03:43.997Z</time></trkpt><trkpt lat="43.2917033" lon="2.08882"><ele>181.0</ele><time>2026-05-01T16:03:44.997Z</time></trkpt><trkpt lat="43.2915917" lon="2.0889133"><ele>181.0</ele><time>2026-05-01T16:03:45.996Z</time></trkpt><trkpt lat="43.29146" lon="2.0889733"><ele>181.0</ele><time>2026-05-01T16:03:46.997Z</time></trkpt><trkpt lat="43.2913133" lon="2.089"><ele>181.0</ele><time>2026-05-01T16:03:47.997Z</time></trkpt><trkpt lat="43.291165" lon="2.0889717"><ele>181.0</ele><time>2026-05-01T16:03:48.998Z</time></trkpt><trkpt lat="43.29102" lon="2.088885"><ele>181.0</ele><time>2026-05-01T16:03:49.997Z</time></trkpt><trkpt lat="43.2908767" lon="2.088775"><ele>181.0</ele><time>2026-05-01T16:03:51.005Z</time></trkpt><trkpt lat="43.2907367" lon="2.088665"><ele>181.0</ele><time>2026-05-01T16:03:52.003Z</time></trkpt><trkpt lat="43.2905967" lon="2.0885533"><ele>181.33333333333334</ele><time>2026-05-01T16:03:52.997Z</time></trkpt><trkpt lat="43.290455" lon="2.0884367"><ele>181.66666666666666</ele><time>2026-05-01T16:03:53.999Z</time></trkpt><trkpt lat="43.290315" lon="2.088315"><ele>182.0</ele><time>2026-05-01T16:03:54.998Z</time></trkpt><trkpt lat="43.29017" lon="2.0881967"><ele>182.0</ele><time>2026-05-01T16:03:55.998Z</time></trkpt><trkpt lat="43.2900183" lon="2.088085"><ele>182.0</ele><time>2026-05-01T16:03:56.998Z</time></trkpt><trkpt lat="43.289855" lon="2.0879783"><ele>182.0</ele><time>2026-05-01T16:03:57.998Z</time></trkpt><trkpt lat="43.2896833" lon="2.0878833"><ele>179.0</ele><time>2026-05-01T16:03:58.997Z</time></trkpt><trkpt lat="43.2895083" lon="2.0878017"><ele>176.0</ele><time>2026-05-01T16:03:59.997Z</time></trkpt><trkpt lat="43.289335" lon="2.0877317"><ele>173.0</ele><time>2026-05-01T16:04:00.999Z</time></trkpt><trkpt lat="43.289165" lon="2.0876633"><ele>173.0</ele><time>2026-05-01T16:04:01.997Z</time></trkpt><trkpt lat="43.2890017" lon="2.0875917"><ele>173.0</ele><time>2026-05-01T16:04:02.999Z</time></trkpt><trkpt lat="43.28885" lon="2.087525"><ele>173.0</ele><time>2026-05-01T16:04:03.998Z</time></trkpt><trkpt lat="43.28869" lon="2.0874683"><ele>171.0</ele><time>2026-05-01T16:04:04.998Z</time></trkpt><trkpt lat="43.288535" lon="2.0874117"><ele>169.0</ele><time>2026-05-01T16:04:05.997Z</time></trkpt><trkpt lat="43.288385" lon="2.0873367"><ele>167.0</ele><time>2026-05-01T16:04:07.002Z</time></trkpt><trkpt lat="43.2882383" lon="2.0872733"><ele>167.0</ele><time>2026-05-01T16:04:07.997Z</time></trkpt><trkpt lat="43.2880933" lon="2.0872283"><ele>167.0</ele><time>2026-05-01T16:04:08.997Z</time></trkpt><trkpt lat="43.287955" lon="2.087165"><ele>167.0</ele><time>2026-05-01T16:04:09.997Z</time></trkpt><trkpt lat="43.2878217" lon="2.0871017"><ele>167.0</ele><time>2026-05-01T16:04:10.997Z</time></trkpt><trkpt lat="43.287695" lon="2.0870483"><ele>166.0</ele><time>2026-05-01T16:04:11.997Z</time></trkpt><trkpt lat="43.2875633" lon="2.087"><ele>165.0</ele><time>2026-05-01T16:04:12.997Z</time></trkpt><trkpt lat="43.2874317" lon="2.0869667"><ele>164.0</ele><time>2026-05-01T16:04:13.997Z</time></trkpt><trkpt lat="43.2873033" lon="2.0869483"><ele>163.0</ele><time>2026-05-01T16:04:14.998Z</time></trkpt><trkpt lat="43.2871733" lon="2.0869283"><ele>162.0</ele><time>2026-05-01T16:04:15.997Z</time></trkpt><trkpt lat="43.2870417" lon="2.086905"><ele>161.0</ele><time>2026-05-01T16:04:16.997Z</time></trkpt><trkpt lat="43.2869117" lon="2.086885"><ele>160.0</ele><time>2026-05-01T16:04:17.998Z</time></trkpt><trkpt lat="43.2867767" lon="2.086875"><ele>159.0</ele><time>2026-05-01T16:04:18.997Z</time></trkpt><trkpt lat="43.28664" lon="2.0868683"><ele>159.0</ele><time>2026-05-01T16:04:19.999Z</time></trkpt><trkpt lat="43.2865" lon="2.08685"><ele>159.0</ele><time>2026-05-01T16:04:20.998Z</time></trkpt><trkpt lat="43.28636" lon="2.0868267"><ele>159.0</ele><time>2026-05-01T16:04:21.997Z</time></trkpt><trkpt lat="43.28623" lon="2.0868117"><ele>159.0</ele><time>2026-05-01T16:04:22.998Z</time></trkpt><trkpt lat="43.2861067" lon="2.0867917"><ele>158.25</ele><time>2026-05-01T16:04:23.997Z</time></trkpt><trkpt lat="43.2859817" lon="2.0867767"><ele>157.5</ele><time>2026-05-01T16:04:25.006Z</time></trkpt><trkpt lat="43.2858567" lon="2.0867667"><ele>156.75</ele><time>2026-05-01T16:04:25.997Z</time></trkpt><trkpt lat="43.2857317" lon="2.0867683"><ele>156.0</ele><time>2026-05-01T16:04:26.999Z</time></trkpt><trkpt lat="43.2856117" lon="2.08677"><ele>155.25</ele><time>2026-05-01T16:04:28Z</time></trkpt><trkpt lat="43.2854917" lon="2.0867733"><ele>154.5</ele><time>2026-05-01T16:04:28.997Z</time></trkpt><trkpt lat="43.2853717" lon="2.0867733"><ele>153.75</ele><time>2026-05-01T16:04:29.997Z</time></trkpt><trkpt lat="43.2852517" lon="2.08677"><ele>153.0</ele><time>2026-05-01T16:04:31Z</time></trkpt><trkpt lat="43.285135" lon="2.0867733"><ele>153.0</ele><time>2026-05-01T16:04:31.997Z</time></trkpt><trkpt lat="43.2850083" lon="2.0867717"><ele>153.0</ele><time>2026-05-01T16:04:32.997Z</time></trkpt><trkpt lat="43.2848783" lon="2.0867633"><ele>153.0</ele><time>2026-05-01T16:04:33.996Z</time></trkpt><trkpt lat="43.2847467" lon="2.0867633"><ele>153.0</ele><time>2026-05-01T16:04:34.998Z</time></trkpt><trkpt lat="43.28462" lon="2.08677"><ele>152.0</ele><time>2026-05-01T16:04:35.996Z</time></trkpt><trkpt lat="43.2844917" lon="2.0867717"><ele>151.0</ele><time>2026-05-01T16:04:37.001Z</time></trkpt><trkpt lat="43.2843633" lon="2.0867667"><ele>150.0</ele><time>2026-05-01T16:04:37.997Z</time></trkpt><trkpt lat="43.28424" lon="2.0867617"><ele>149.0</ele><time>2026-05-01T16:04:38.997Z</time></trkpt><trkpt lat="43.2841167" lon="2.0867567"><ele>149.0</ele><time>2026-05-01T16:04:39.997Z</time></trkpt><trkpt lat="43.284" lon="2.08675"><ele>149.0</ele><time>2026-05-01T16:04:40.999Z</time></trkpt><trkpt lat="43.2838917" lon="2.0867483"><ele>149.0</ele><time>2026-05-01T16:04:41.997Z</time></trkpt><trkpt lat="43.2837867" lon="2.08675"><ele>149.0</ele><time>2026-05-01T16:04:42.998Z</time></trkpt><trkpt lat="43.2836867" lon="2.0867467"><ele>149.0</ele><time>2026-05-01T16:04:43.998Z</time></trkpt><trkpt lat="43.2835917" lon="2.0867383"><ele>148.5</ele><time>2026-05-01T16:04:44.997Z</time></trkpt><trkpt lat="43.2835" lon="2.0867233"><ele>148.0</ele><time>2026-05-01T16:04:45.997Z</time></trkpt><trkpt lat="43.2834067" lon="2.0867117"><ele>147.5</ele><time>2026-05-01T16:04:46.997Z</time></trkpt><trkpt lat="43.2833183" lon="2.08671"><ele>147.0</ele><time>2026-05-01T16:04:47.997Z</time></trkpt><trkpt lat="43.28323" lon="2.0867"><ele>146.5</ele><time>2026-05-01T16:04:48.997Z</time></trkpt><trkpt lat="43.2831467" lon="2.0866767"><ele>146.0</ele><time>2026-05-01T16:04:49.997Z</time></trkpt><trkpt lat="43.2830683" lon="2.0866417"><ele>145.5</ele><time>2026-05-01T16:04:50.999Z</time></trkpt><trkpt lat="43.2829983" lon="2.086595"><ele>145.0</ele><time>2026-05-01T16:04:51.998Z</time></trkpt><trkpt lat="43.2829333" lon="2.0865433"><ele>144.5</ele><time>2026-05-01T16:04:52.998Z</time></trkpt><trkpt lat="43.2828767" lon="2.086475"><ele>144.0</ele><time>2026-05-01T16:04:53.998Z</time></trkpt><trkpt lat="43.2828267" lon="2.086405"><ele>143.5</ele><time>2026-05-01T16:04:54.997Z</time></trkpt><trkpt lat="43.2827833" lon="2.086335"><ele>143.0</ele><time>2026-05-01T16:04:55.997Z</time></trkpt><trkpt lat="43.282715" lon="2.086215"><ele>143.0</ele><time>2026-05-01T16:04:57.997Z</time></trkpt><trkpt lat="43.282625" lon="2.0861133"><ele>143.0</ele><time>2026-05-01T16:04:59.997Z</time></trkpt><trkpt lat="43.282565" lon="2.0860683"><ele>143.0</ele><time>2026-05-01T16:05:00.998Z</time></trkpt><trkpt lat="43.2825033" lon="2.0860217"><ele>143.0</ele><time>2026-05-01T16:05:02.001Z</time></trkpt><trkpt lat="43.282435" lon="2.085985"><ele>143.0</ele><time>2026-05-01T16:05:03.001Z</time></trkpt><trkpt lat="43.2823583" lon="2.085955"><ele>143.0</ele><time>2026-05-01T16:05:03.999Z</time></trkpt><trkpt lat="43.282285" lon="2.0859233"><ele>141.99999999999997</ele><time>2026-05-01T16:05:05.001Z</time></trkpt><trkpt lat="43.282215" lon="2.0858967"><ele>141.0</ele><time>2026-05-01T16:05:06Z</time></trkpt><trkpt lat="43.2821467" lon="2.0858583"><ele>140.0</ele><time>2026-05-01T16:05:06.997Z</time></trkpt><trkpt lat="43.2820767" lon="2.0858217"><ele>139.0</ele><time>2026-05-01T16:05:07.998Z</time></trkpt><trkpt lat="43.2820033" lon="2.0858017"><ele>138.0</ele><time>2026-05-01T16:05:09Z</time></trkpt><trkpt lat="43.2819283" lon="2.0857867"><ele>136.99999999999997</ele><time>2026-05-01T16:05:09.997Z</time></trkpt><trkpt lat="43.2818567" lon="2.0857633"><ele>136.0</ele><time>2026-05-01T16:05:10.997Z</time></trkpt><trkpt lat="43.2817933" lon="2.0857417"><ele>135.83333333333334</ele><time>2026-05-01T16:05:11.997Z</time></trkpt><trkpt lat="43.28169" lon="2.0856867"><ele>135.66666666666669</ele><time>2026-05-01T16:05:13.998Z</time></trkpt><trkpt lat="43.2816333" lon="2.0856167"><ele>135.5</ele><time>2026-05-01T16:05:16.999Z</time></trkpt><trkpt lat="43.2815617" lon="2.085545"><ele>135.33333333333334</ele><time>2026-05-01T16:05:19.998Z</time></trkpt><trkpt lat="43.281485" lon="2.0854933"><ele>135.16666666666666</ele><time>2026-05-01T16:05:22.998Z</time></trkpt><trkpt lat="43.2814133" lon="2.085425"><ele>135.0</ele><time>2026-05-01T16:05:26.998Z</time></trkpt><trkpt lat="43.2813317" lon="2.08538"><ele>134.2</ele><time>2026-05-01T16:05:29.002Z</time></trkpt><trkpt lat="43.2812583" lon="2.085315"><ele>133.4</ele><time>2026-05-01T16:05:30.997Z</time></trkpt><trkpt lat="43.281175" lon="2.085245"><ele>132.6</ele><time>2026-05-01T16:05:32.997Z</time></trkpt><trkpt lat="43.2810667" lon="2.08513"><ele>131.8</ele><time>2026-05-01T16:05:34.997Z</time></trkpt><trkpt lat="43.2810067" lon="2.0850583"><ele>131.0</ele><time>2026-05-01T16:05:35.999Z</time></trkpt><trkpt lat="43.28094" lon="2.0849867"><ele>131.2</ele><time>2026-05-01T16:05:36.997Z</time></trkpt><trkpt lat="43.2808633" lon="2.08491"><ele>131.39999999999998</ele><time>2026-05-01T16:05:37.998Z</time></trkpt><trkpt lat="43.2807833" lon="2.0848317"><ele>131.6</ele><time>2026-05-01T16:05:38.997Z</time></trkpt><trkpt lat="43.2806983" lon="2.08475"><ele>131.79999999999998</ele><time>2026-05-01T16:05:39.997Z</time></trkpt><trkpt lat="43.280605" lon="2.0846683"><ele>132.0</ele><time>2026-05-01T16:05:40.996Z</time></trkpt><trkpt lat="43.2805083" lon="2.0845767"><ele>132.0</ele><time>2026-05-01T16:05:41.998Z</time></trkpt><trkpt lat="43.280405" lon="2.0844833"><ele>132.0</ele><time>2026-05-01T16:05:42.996Z</time></trkpt><trkpt lat="43.280295" lon="2.0843883"><ele>132.0</ele><time>2026-05-01T16:05:43.996Z</time></trkpt><trkpt lat="43.2801867" lon="2.0842883"><ele>132.0</ele><time>2026-05-01T16:05:45.002Z</time></trkpt><trkpt lat="43.2800783" lon="2.08418"><ele>132.0</ele><time>2026-05-01T16:05:45.997Z</time></trkpt><trkpt lat="43.2799733" lon="2.0840633"><ele>132.0</ele><time>2026-05-01T16:05:46.997Z</time></trkpt><trkpt lat="43.27988" lon="2.0839417"><ele>132.0</ele><time>2026-05-01T16:05:47.998Z</time></trkpt><trkpt lat="43.2797983" lon="2.0838067"><ele>132.0</ele><time>2026-05-01T16:05:48.997Z</time></trkpt><trkpt lat="43.2797383" lon="2.0836533"><ele>131.75</ele><time>2026-05-01T16:05:49.998Z</time></trkpt><trkpt lat="43.2796817" lon="2.083485"><ele>131.5</ele><time>2026-05-01T16:05:50.997Z</time></trkpt><trkpt lat="43.2796233" lon="2.083305"><ele>131.25</ele><time>2026-05-01T16:05:51.997Z</time></trkpt><trkpt lat="43.27956" lon="2.0831217"><ele>131.0</ele><time>2026-05-01T16:05:52.998Z</time></trkpt><trkpt lat="43.2794983" lon="2.08293"><ele>131.0</ele><time>2026-05-01T16:05:53.999Z</time></trkpt><trkpt lat="43.27943" lon="2.0827367"><ele>131.0</ele><time>2026-05-01T16:05:54.999Z</time></trkpt><trkpt lat="43.2793567" lon="2.0825533"><ele>131.0</ele><time>2026-05-01T16:05:55.997Z</time></trkpt><trkpt lat="43.2792883" lon="2.0823733"><ele>130.66666666666666</ele><time>2026-05-01T16:05:56.999Z</time></trkpt><trkpt lat="43.2792033" lon="2.0821867"><ele>130.33333333333334</ele><time>2026-05-01T16:05:57.998Z</time></trkpt><trkpt lat="43.2791083" lon="2.082025"><ele>130.0</ele><time>2026-05-01T16:05:58.999Z</time></trkpt><trkpt lat="43.2789867" lon="2.0818867"><ele>130.0</ele><time>2026-05-01T16:05:59.998Z</time></trkpt><trkpt lat="43.27886" lon="2.0817533"><ele>130.0</ele><time>2026-05-01T16:06:00.999Z</time></trkpt><trkpt lat="43.2787283" lon="2.0816167"><ele>130.0</ele><time>2026-05-01T16:06:01.998Z</time></trkpt><trkpt lat="43.2786017" lon="2.0814817"><ele>129.33333333333334</ele><time>2026-05-01T16:06:02.998Z</time></trkpt><trkpt lat="43.278465" lon="2.0813517"><ele>128.66666666666666</ele><time>2026-05-01T16:06:03.997Z</time></trkpt><trkpt lat="43.278325" lon="2.0812167"><ele>128.0</ele><time>2026-05-01T16:06:05Z</time></trkpt><trkpt lat="43.27819" lon="2.0810783"><ele>128.33333333333331</ele><time>2026-05-01T16:06:05.999Z</time></trkpt><trkpt lat="43.278055" lon="2.0809433"><ele>128.66666666666666</ele><time>2026-05-01T16:06:06.997Z</time></trkpt><trkpt lat="43.2779167" lon="2.080805"><ele>129.0</ele><time>2026-05-01T16:06:07.997Z</time></trkpt><trkpt lat="43.2777817" lon="2.08067"><ele>129.0</ele><time>2026-05-01T16:06:09Z</time></trkpt><trkpt lat="43.2776433" lon="2.0805317"><ele>129.0</ele><time>2026-05-01T16:06:09.997Z</time></trkpt><trkpt lat="43.2775017" lon="2.0803933"><ele>129.0</ele><time>2026-05-01T16:06:10.997Z</time></trkpt><trkpt lat="43.2773583" lon="2.0802517"><ele>129.0</ele><time>2026-05-01T16:06:11.997Z</time></trkpt><trkpt lat="43.277215" lon="2.0801"><ele>129.0</ele><time>2026-05-01T16:06:13.006Z</time></trkpt><trkpt lat="43.2770717" lon="2.07996"><ele>129.0</ele><time>2026-05-01T16:06:13.997Z</time></trkpt><trkpt lat="43.2769383" lon="2.079825"><ele>129.33333333333334</ele><time>2026-05-01T16:06:15Z</time></trkpt><trkpt lat="43.2768" lon="2.07969"><ele>129.66666666666669</ele><time>2026-05-01T16:06:15.997Z</time></trkpt><trkpt lat="43.276665" lon="2.0795517"><ele>130.0</ele><time>2026-05-01T16:06:16.999Z</time></trkpt><trkpt lat="43.27653" lon="2.079415"><ele>131.0</ele><time>2026-05-01T16:06:17.999Z</time></trkpt><trkpt lat="43.2764" lon="2.0792867"><ele>132.0</ele><time>2026-05-01T16:06:19Z</time></trkpt><trkpt lat="43.2762833" lon="2.0791617"><ele>133.0</ele><time>2026-05-01T16:06:19.998Z</time></trkpt><trkpt lat="43.2761767" lon="2.0790483"><ele>134.0</ele><time>2026-05-01T16:06:20.999Z</time></trkpt><trkpt lat="43.2760733" lon="2.0789667"><ele>134.0</ele><time>2026-05-01T16:06:21.997Z</time></trkpt><trkpt lat="43.27598" lon="2.0789267"><ele>134.0</ele><time>2026-05-01T16:06:22.997Z</time></trkpt><trkpt lat="43.2758867" lon="2.0789067"><ele>134.0</ele><time>2026-05-01T16:06:24.001Z</time></trkpt><trkpt lat="43.275795" lon="2.0788933"><ele>134.0</ele><time>2026-05-01T16:06:24.998Z</time></trkpt><trkpt lat="43.2757033" lon="2.0788817"><ele>134.0</ele><time>2026-05-01T16:06:25.999Z</time></trkpt><trkpt lat="43.2756067" lon="2.078865"><ele>134.0</ele><time>2026-05-01T16:06:26.997Z</time></trkpt><trkpt lat="43.275505" lon="2.0788417"><ele>134.0</ele><time>2026-05-01T16:06:27.998Z</time></trkpt><trkpt lat="43.2754" lon="2.078795"><ele>134.0</ele><time>2026-05-01T16:06:28.997Z</time></trkpt><trkpt lat="43.2752933" lon="2.0787117"><ele>134.0</ele><time>2026-05-01T16:06:29.997Z</time></trkpt><trkpt lat="43.2751917" lon="2.078595"><ele>134.0</ele><time>2026-05-01T16:06:30.999Z</time></trkpt><trkpt lat="43.275095" lon="2.07847"><ele>134.0</ele><time>2026-05-01T16:06:31.998Z</time></trkpt><trkpt lat="43.2749933" lon="2.07834"><ele>134.0</ele><time>2026-05-01T16:06:32.998Z</time></trkpt><trkpt lat="43.2748833" lon="2.078205"><ele>134.0</ele><time>2026-05-01T16:06:33.998Z</time></trkpt><trkpt lat="43.2747617" lon="2.07807"><ele>134.66666666666666</ele><time>2026-05-01T16:06:34.998Z</time></trkpt><trkpt lat="43.2746283" lon="2.07793"><ele>135.33333333333334</ele><time>2026-05-01T16:06:35.998Z</time></trkpt><trkpt lat="43.27449" lon="2.0777917"><ele>136.0</ele><time>2026-05-01T16:06:36.998Z</time></trkpt><trkpt lat="43.2743533" lon="2.077655"><ele>136.0</ele><time>2026-05-01T16:06:37.997Z</time></trkpt><trkpt lat="43.274215" lon="2.0775267"><ele>136.0</ele><time>2026-05-01T16:06:38.998Z</time></trkpt><trkpt lat="43.2740717" lon="2.0774067"><ele>136.0</ele><time>2026-05-01T16:06:39.997Z</time></trkpt><trkpt lat="43.2739167" lon="2.0772867"><ele>137.0</ele><time>2026-05-01T16:06:40.997Z</time></trkpt><trkpt lat="43.27376" lon="2.077165"><ele>138.0</ele><time>2026-05-01T16:06:41.997Z</time></trkpt><trkpt lat="43.2736067" lon="2.0770467"><ele>139.0</ele><time>2026-05-01T16:06:42.998Z</time></trkpt><trkpt lat="43.2734567" lon="2.0769333"><ele>139.0</ele><time>2026-05-01T16:06:43.997Z</time></trkpt><trkpt lat="43.27331" lon="2.0768217"><ele>139.0</ele><time>2026-05-01T16:06:44.998Z</time></trkpt><trkpt lat="43.2731683" lon="2.076705"><ele>139.0</ele><time>2026-05-01T16:06:45.997Z</time></trkpt><trkpt lat="43.27304" lon="2.0765667"><ele>139.33333333333334</ele><time>2026-05-01T16:06:46.997Z</time></trkpt><trkpt lat="43.2729167" lon="2.0764083"><ele>139.66666666666666</ele><time>2026-05-01T16:06:47.998Z</time></trkpt><trkpt lat="43.2728017" lon="2.0762367"><ele>140.0</ele><time>2026-05-01T16:06:48.998Z</time></trkpt><trkpt lat="43.27269" lon="2.0760567"><ele>140.0</ele><time>2026-05-01T16:06:49.997Z</time></trkpt><trkpt lat="43.2725783" lon="2.0758717"><ele>140.0</ele><time>2026-05-01T16:06:51Z</time></trkpt><trkpt lat="43.27247" lon="2.075685"><ele>140.0</ele><time>2026-05-01T16:06:51.998Z</time></trkpt><trkpt lat="43.2723683" lon="2.075495"><ele>141.66666666666666</ele><time>2026-05-01T16:06:52.998Z</time></trkpt><trkpt lat="43.272265" lon="2.0753017"><ele>143.33333333333334</ele><time>2026-05-01T16:06:53.997Z</time></trkpt><trkpt lat="43.2721667" lon="2.0751083"><ele>145.0</ele><time>2026-05-01T16:06:54.997Z</time></trkpt><trkpt lat="43.27206" lon="2.074935"><ele>145.0</ele><time>2026-05-01T16:06:55.997Z</time></trkpt><trkpt lat="43.2719483" lon="2.0747683"><ele>145.0</ele><time>2026-05-01T16:06:56.997Z</time></trkpt><trkpt lat="43.2718317" lon="2.0746083"><ele>145.0</ele><time>2026-05-01T16:06:57.997Z</time></trkpt><trkpt lat="43.27171" lon="2.0744483"><ele>145.0</ele><time>2026-05-01T16:06:58.998Z</time></trkpt><trkpt lat="43.2715917" lon="2.0742833"><ele>145.0</ele><time>2026-05-01T16:06:59.999Z</time></trkpt><trkpt lat="43.271475" lon="2.07411"><ele>145.0</ele><time>2026-05-01T16:07:01Z</time></trkpt><trkpt lat="43.2713533" lon="2.0739417"><ele>148.0</ele><time>2026-05-01T16:07:01.997Z</time></trkpt><trkpt lat="43.2712267" lon="2.0737667"><ele>151.0</ele><time>2026-05-01T16:07:03Z</time></trkpt><trkpt lat="43.2711017" lon="2.0736"><ele>154.0</ele><time>2026-05-01T16:07:03.998Z</time></trkpt><trkpt lat="43.2709733" lon="2.0734317"><ele>154.66666666666669</ele><time>2026-05-01T16:07:04.997Z</time></trkpt><trkpt lat="43.270845" lon="2.0732683"><ele>155.33333333333334</ele><time>2026-05-01T16:07:05.997Z</time></trkpt><trkpt lat="43.2707183" lon="2.0731183"><ele>156.0</ele><time>2026-05-01T16:07:06.997Z</time></trkpt><trkpt lat="43.27059" lon="2.0729767"><ele>156.66666666666666</ele><time>2026-05-01T16:07:07.997Z</time></trkpt><trkpt lat="43.27046" lon="2.0728467"><ele>157.33333333333331</ele><time>2026-05-01T16:07:08.998Z</time></trkpt><trkpt lat="43.2703233" lon="2.07273"><ele>158.0</ele><time>2026-05-01T16:07:09.997Z</time></trkpt><trkpt lat="43.2701783" lon="2.0726117"><ele>158.0</ele><time>2026-05-01T16:07:11.003Z</time></trkpt><trkpt lat="43.2700233" lon="2.072485"><ele>158.0</ele><time>2026-05-01T16:07:11.997Z</time></trkpt><trkpt lat="43.269865" lon="2.0723517"><ele>158.0</ele><time>2026-05-01T16:07:12.997Z</time></trkpt><trkpt lat="43.269705" lon="2.0722117"><ele>158.0</ele><time>2026-05-01T16:07:13.997Z</time></trkpt><trkpt lat="43.269545" lon="2.0720717"><ele>158.0</ele><time>2026-05-01T16:07:14.997Z</time></trkpt><trkpt lat="43.2693883" lon="2.0719333"><ele>158.0</ele><time>2026-05-01T16:07:16.001Z</time></trkpt><trkpt lat="43.269235" lon="2.0718"><ele>158.0</ele><time>2026-05-01T16:07:16.997Z</time></trkpt><trkpt lat="43.2690883" lon="2.0716683"><ele>158.0</ele><time>2026-05-01T16:07:17.998Z</time></trkpt><trkpt lat="43.2689533" lon="2.071545"><ele>158.0</ele><time>2026-05-01T16:07:18.998Z</time></trkpt><trkpt lat="43.268825" lon="2.0714317"><ele>158.25</ele><time>2026-05-01T16:07:19.997Z</time></trkpt><trkpt lat="43.2687017" lon="2.071325"><ele>158.5</ele><time>2026-05-01T16:07:20.998Z</time></trkpt><trkpt lat="43.2685833" lon="2.07125"><ele>158.75</ele><time>2026-05-01T16:07:21.998Z</time></trkpt><trkpt lat="43.2684517" lon="2.07121"><ele>159.0</ele><time>2026-05-01T16:07:22.998Z</time></trkpt><trkpt lat="43.268305" lon="2.0712083"><ele>159.0</ele><time>2026-05-01T16:07:23.997Z</time></trkpt><trkpt lat="43.2681467" lon="2.0712217"><ele>159.0</ele><time>2026-05-01T16:07:24.997Z</time></trkpt><trkpt lat="43.2679833" lon="2.07125"><ele>159.0</ele><time>2026-05-01T16:07:25.998Z</time></trkpt><trkpt lat="43.2678167" lon="2.0712767"><ele>158.0</ele><time>2026-05-01T16:07:26.998Z</time></trkpt><trkpt lat="43.2676517" lon="2.071305"><ele>157.0</ele><time>2026-05-01T16:07:27.996Z</time></trkpt><trkpt lat="43.2674867" lon="2.0713267"><ele>156.0</ele><time>2026-05-01T16:07:29.004Z</time></trkpt><trkpt lat="43.2673183" lon="2.0713283"><ele>154.66666666666666</ele><time>2026-05-01T16:07:30Z</time></trkpt><trkpt lat="43.267145" lon="2.07131"><ele>153.33333333333331</ele><time>2026-05-01T16:07:30.999Z</time></trkpt><trkpt lat="43.26697" lon="2.07128"><ele>152.0</ele><time>2026-05-01T16:07:32Z</time></trkpt><trkpt lat="43.2667917" lon="2.071245"><ele>152.0</ele><time>2026-05-01T16:07:32.998Z</time></trkpt><trkpt lat="43.26661" lon="2.0712067"><ele>152.0</ele><time>2026-05-01T16:07:33.997Z</time></trkpt><trkpt lat="43.2664267" lon="2.0711633"><ele>152.0</ele><time>2026-05-01T16:07:35.004Z</time></trkpt><trkpt lat="43.2662467" lon="2.0711183"><ele>151.66666666666666</ele><time>2026-05-01T16:07:35.998Z</time></trkpt><trkpt lat="43.2660633" lon="2.07107"><ele>151.33333333333334</ele><time>2026-05-01T16:07:36.999Z</time></trkpt><trkpt lat="43.26588" lon="2.0710217"><ele>151.0</ele><time>2026-05-01T16:07:37.997Z</time></trkpt><trkpt lat="43.265695" lon="2.0709733"><ele>149.66666666666669</ele><time>2026-05-01T16:07:38.998Z</time></trkpt><trkpt lat="43.2655083" lon="2.0709283"><ele>148.33333333333334</ele><time>2026-05-01T16:07:39.996Z</time></trkpt><trkpt lat="43.26532" lon="2.0708917"><ele>147.0</ele><time>2026-05-01T16:07:40.997Z</time></trkpt><trkpt lat="43.26513" lon="2.0708633"><ele>147.0</ele><time>2026-05-01T16:07:41.998Z</time></trkpt><trkpt lat="43.2649383" lon="2.070845"><ele>147.0</ele><time>2026-05-01T16:07:42.999Z</time></trkpt><trkpt lat="43.2647483" lon="2.0708333"><ele>147.0</ele><time>2026-05-01T16:07:43.997Z</time></trkpt><trkpt lat="43.2645567" lon="2.0708267"><ele>147.0</ele><time>2026-05-01T16:07:44.998Z</time></trkpt><trkpt lat="43.2643733" lon="2.0708317"><ele>147.0</ele><time>2026-05-01T16:07:45.997Z</time></trkpt><trkpt lat="43.2641917" lon="2.070855"><ele>147.0</ele><time>2026-05-01T16:07:46.997Z</time></trkpt><trkpt lat="43.26401" lon="2.0708867"><ele>147.0</ele><time>2026-05-01T16:07:47.999Z</time></trkpt><trkpt lat="43.2638333" lon="2.0709167"><ele>147.0</ele><time>2026-05-01T16:07:48.998Z</time></trkpt><trkpt lat="43.2636617" lon="2.0709417"><ele>147.0</ele><time>2026-05-01T16:07:49.997Z</time></trkpt><trkpt lat="43.2634933" lon="2.070965"><ele>147.0</ele><time>2026-05-01T16:07:50.999Z</time></trkpt><trkpt lat="43.2633267" lon="2.0709933"><ele>147.0</ele><time>2026-05-01T16:07:51.998Z</time></trkpt><trkpt lat="43.263165" lon="2.0710183"><ele>147.0</ele><time>2026-05-01T16:07:52.997Z</time></trkpt><trkpt lat="43.2630033" lon="2.071035"><ele>148.0</ele><time>2026-05-01T16:07:53.998Z</time></trkpt><trkpt lat="43.2628467" lon="2.07105"><ele>149.0</ele><time>2026-05-01T16:07:54.998Z</time></trkpt><trkpt lat="43.26269" lon="2.07107"><ele>150.0</ele><time>2026-05-01T16:07:56Z</time></trkpt><trkpt lat="43.2625333" lon="2.0710883"><ele>150.0</ele><time>2026-05-01T16:07:56.999Z</time></trkpt><trkpt lat="43.2623717" lon="2.071095"><ele>150.0</ele><time>2026-05-01T16:07:57.997Z</time></trkpt><trkpt lat="43.2622067" lon="2.0710817"><ele>150.0</ele><time>2026-05-01T16:07:58.998Z</time></trkpt><trkpt lat="43.2620433" lon="2.071045"><ele>150.66666666666666</ele><time>2026-05-01T16:07:59.998Z</time></trkpt><trkpt lat="43.26188" lon="2.07098"><ele>151.33333333333331</ele><time>2026-05-01T16:08:00.996Z</time></trkpt><trkpt lat="43.2617183" lon="2.0708883"><ele>152.0</ele><time>2026-05-01T16:08:01.997Z</time></trkpt><trkpt lat="43.2615533" lon="2.0707833"><ele>151.66666666666666</ele><time>2026-05-01T16:08:02.998Z</time></trkpt><trkpt lat="43.26139" lon="2.070675"><ele>151.33333333333334</ele><time>2026-05-01T16:08:03.997Z</time></trkpt><trkpt lat="43.26123" lon="2.0705667"><ele>151.0</ele><time>2026-05-01T16:08:04.998Z</time></trkpt><trkpt lat="43.2610767" lon="2.070455"><ele>151.0</ele><time>2026-05-01T16:08:05.997Z</time></trkpt><trkpt lat="43.2609283" lon="2.07034"><ele>151.0</ele><time>2026-05-01T16:08:06.997Z</time></trkpt><trkpt lat="43.260775" lon="2.0702233"><ele>151.0</ele><time>2026-05-01T16:08:07.996Z</time></trkpt><trkpt lat="43.2606183" lon="2.070115"><ele>150.33333333333334</ele><time>2026-05-01T16:08:08.999Z</time></trkpt><trkpt lat="43.2604567" lon="2.0700283"><ele>149.66666666666666</ele><time>2026-05-01T16:08:09.997Z</time></trkpt><trkpt lat="43.2602867" lon="2.0699533"><ele>149.0</ele><time>2026-05-01T16:08:10.996Z</time></trkpt><trkpt lat="43.2601117" lon="2.06989"><ele>149.0</ele><time>2026-05-01T16:08:11.996Z</time></trkpt><trkpt lat="43.2599367" lon="2.0698317"><ele>149.0</ele><time>2026-05-01T16:08:12.997Z</time></trkpt><trkpt lat="43.2597583" lon="2.0697633"><ele>149.0</ele><time>2026-05-01T16:08:13.997Z</time></trkpt><trkpt lat="43.2595817" lon="2.069675"><ele>147.33333333333331</ele><time>2026-05-01T16:08:14.997Z</time></trkpt><trkpt lat="43.2594133" lon="2.0695733"><ele>145.66666666666666</ele><time>2026-05-01T16:08:15.996Z</time></trkpt><trkpt lat="43.2592533" lon="2.06947"><ele>144.0</ele><time>2026-05-01T16:08:16.997Z</time></trkpt><trkpt lat="43.2590983" lon="2.0693617"><ele>144.0</ele><time>2026-05-01T16:08:18Z</time></trkpt><trkpt lat="43.2589533" lon="2.06926"><ele>144.0</ele><time>2026-05-01T16:08:18.997Z</time></trkpt><trkpt lat="43.258815" lon="2.0691717"><ele>144.0</ele><time>2026-05-01T16:08:19.998Z</time></trkpt><trkpt lat="43.2586833" lon="2.0690933"><ele>143.75</ele><time>2026-05-01T16:08:21.005Z</time></trkpt><trkpt lat="43.2585533" lon="2.0690217"><ele>143.5</ele><time>2026-05-01T16:08:21.997Z</time></trkpt><trkpt lat="43.2584233" lon="2.0689617"><ele>143.25</ele><time>2026-05-01T16:08:23Z</time></trkpt><trkpt lat="43.2582917" lon="2.0689083"><ele>143.0</ele><time>2026-05-01T16:08:23.996Z</time></trkpt><trkpt lat="43.258165" lon="2.0688583"><ele>143.0</ele><time>2026-05-01T16:08:24.997Z</time></trkpt><trkpt lat="43.2580433" lon="2.0688133"><ele>143.0</ele><time>2026-05-01T16:08:25.996Z</time></trkpt><trkpt lat="43.257935" lon="2.0687767"><ele>143.0</ele><time>2026-05-01T16:08:27.001Z</time></trkpt><trkpt lat="43.2578283" lon="2.0687417"><ele>143.0</ele><time>2026-05-01T16:08:27.998Z</time></trkpt><trkpt lat="43.2577283" lon="2.068705"><ele>143.0</ele><time>2026-05-01T16:08:28.997Z</time></trkpt><trkpt lat="43.2576367" lon="2.06867"><ele>143.0</ele><time>2026-05-01T16:08:29.998Z</time></trkpt><trkpt lat="43.2575533" lon="2.0686433"><ele>143.0</ele><time>2026-05-01T16:08:30.998Z</time></trkpt><trkpt lat="43.2574817" lon="2.0686217"><ele>143.0</ele><time>2026-05-01T16:08:32Z</time></trkpt><trkpt lat="43.2573717" lon="2.068585"><ele>143.0</ele><time>2026-05-01T16:08:33.997Z</time></trkpt><trkpt lat="43.2572833" lon="2.0685533"><ele>143.0</ele><time>2026-05-01T16:08:35.998Z</time></trkpt><trkpt lat="43.2571467" lon="2.0685017"><ele>143.0</ele><time>2026-05-01T16:08:37.997Z</time></trkpt><trkpt lat="43.2570633" lon="2.0684783"><ele>143.0</ele><time>2026-05-01T16:08:38.998Z</time></trkpt><trkpt lat="43.2569717" lon="2.0684517"><ele>143.0</ele><time>2026-05-01T16:08:39.998Z</time></trkpt><trkpt lat="43.2568733" lon="2.0684133"><ele>143.0</ele><time>2026-05-01T16:08:40.998Z</time></trkpt><trkpt lat="43.25676" lon="2.06837"><ele>143.0</ele><time>2026-05-01T16:08:41.998Z</time></trkpt><trkpt lat="43.2566467" lon="2.0683217"><ele>143.0</ele><time>2026-05-01T16:08:42.999Z</time></trkpt><trkpt lat="43.2565317" lon="2.0682783"><ele>143.0</ele><time>2026-05-01T16:08:43.996Z</time></trkpt><trkpt lat="43.2564017" lon="2.0682283"><ele>143.0</ele><time>2026-05-01T16:08:45.005Z</time></trkpt><trkpt lat="43.25626" lon="2.06818"><ele>143.66666666666666</ele><time>2026-05-01T16:08:45.998Z</time></trkpt><trkpt lat="43.2561133" lon="2.06814"><ele>144.33333333333334</ele><time>2026-05-01T16:08:46.999Z</time></trkpt><trkpt lat="43.255965" lon="2.068105"><ele>145.0</ele><time>2026-05-01T16:08:47.997Z</time></trkpt><trkpt lat="43.2558083" lon="2.0680667"><ele>145.0</ele><time>2026-05-01T16:08:49.001Z</time></trkpt><trkpt lat="43.2556533" lon="2.0680367"><ele>145.0</ele><time>2026-05-01T16:08:49.998Z</time></trkpt><trkpt lat="43.25549" lon="2.0679833"><ele>145.0</ele><time>2026-05-01T16:08:50.998Z</time></trkpt><trkpt lat="43.25533" lon="2.0679233"><ele>144.33333333333334</ele><time>2026-05-01T16:08:51.997Z</time></trkpt><trkpt lat="43.2551783" lon="2.0678617"><ele>143.66666666666666</ele><time>2026-05-01T16:08:52.998Z</time></trkpt><trkpt lat="43.255025" lon="2.0677833"><ele>143.0</ele><time>2026-05-01T16:08:53.997Z</time></trkpt><trkpt lat="43.2548667" lon="2.0677033"><ele>142.66666666666666</ele><time>2026-05-01T16:08:55.003Z</time></trkpt><trkpt lat="43.2547067" lon="2.067635"><ele>142.33333333333334</ele><time>2026-05-01T16:08:55.998Z</time></trkpt><trkpt lat="43.2545417" lon="2.067575"><ele>142.0</ele><time>2026-05-01T16:08:56.999Z</time></trkpt><trkpt lat="43.25438" lon="2.0675217"><ele>142.0</ele><time>2026-05-01T16:08:57.998Z</time></trkpt><trkpt lat="43.25422" lon="2.067465"><ele>142.0</ele><time>2026-05-01T16:08:58.996Z</time></trkpt><trkpt lat="43.2540733" lon="2.0674133"><ele>142.0</ele><time>2026-05-01T16:08:59.997Z</time></trkpt><trkpt lat="43.2539383" lon="2.0673717"><ele>142.5</ele><time>2026-05-01T16:09:00.998Z</time></trkpt><trkpt lat="43.2538067" lon="2.0673267"><ele>143.0</ele><time>2026-05-01T16:09:01.998Z</time></trkpt><trkpt lat="43.25367" lon="2.0672817"><ele>143.5</ele><time>2026-05-01T16:09:02.998Z</time></trkpt><trkpt lat="43.2535183" lon="2.0672317"><ele>144.0</ele><time>2026-05-01T16:09:03.998Z</time></trkpt><trkpt lat="43.2533567" lon="2.0671783"><ele>144.0</ele><time>2026-05-01T16:09:04.997Z</time></trkpt><trkpt lat="43.2532033" lon="2.06713"><ele>144.0</ele><time>2026-05-01T16:09:05.998Z</time></trkpt><trkpt lat="43.2530383" lon="2.06708"><ele>144.0</ele><time>2026-05-01T16:09:06.999Z</time></trkpt><trkpt lat="43.252865" lon="2.067035"><ele>144.33333333333334</ele><time>2026-05-01T16:09:07.997Z</time></trkpt><trkpt lat="43.2526867" lon="2.067005"><ele>144.66666666666669</ele><time>2026-05-01T16:09:08.998Z</time></trkpt><trkpt lat="43.252505" lon="2.0669783"><ele>145.0</ele><time>2026-05-01T16:09:09.999Z</time></trkpt><trkpt lat="43.2523233" lon="2.06695"><ele>144.66666666666669</ele><time>2026-05-01T16:09:10.997Z</time></trkpt><trkpt lat="43.252145" lon="2.0669183"><ele>144.33333333333334</ele><time>2026-05-01T16:09:11.999Z</time></trkpt><trkpt lat="43.25197" lon="2.0668683"><ele>144.0</ele><time>2026-05-01T16:09:12.997Z</time></trkpt><trkpt lat="43.2517967" lon="2.0667983"><ele>144.0</ele><time>2026-05-01T16:09:13.998Z</time></trkpt><trkpt lat="43.2516233" lon="2.0667233"><ele>144.0</ele><time>2026-05-01T16:09:14.997Z</time></trkpt><trkpt lat="43.2514483" lon="2.0666517"><ele>144.0</ele><time>2026-05-01T16:09:15.998Z</time></trkpt><trkpt lat="43.25127" lon="2.0665883"><ele>144.33333333333334</ele><time>2026-05-01T16:09:16.997Z</time></trkpt><trkpt lat="43.2510867" lon="2.066535"><ele>144.66666666666669</ele><time>2026-05-01T16:09:17.997Z</time></trkpt><trkpt lat="43.2508983" lon="2.066495"><ele>145.0</ele><time>2026-05-01T16:09:18.997Z</time></trkpt><trkpt lat="43.2507133" lon="2.0664683"><ele>145.33333333333334</ele><time>2026-05-01T16:09:19.997Z</time></trkpt><trkpt lat="43.250525" lon="2.06645"><ele>145.66666666666666</ele><time>2026-05-01T16:09:20.997Z</time></trkpt><trkpt lat="43.2503417" lon="2.0664283"><ele>146.0</ele><time>2026-05-01T16:09:21.998Z</time></trkpt><trkpt lat="43.2501617" lon="2.0664083"><ele>146.0</ele><time>2026-05-01T16:09:22.997Z</time></trkpt><trkpt lat="43.2499783" lon="2.06639"><ele>146.0</ele><time>2026-05-01T16:09:23.997Z</time></trkpt><trkpt lat="43.2497983" lon="2.0663733"><ele>146.0</ele><time>2026-05-01T16:09:24.997Z</time></trkpt><trkpt lat="43.2496183" lon="2.0663533"><ele>146.0</ele><time>2026-05-01T16:09:25.997Z</time></trkpt><trkpt lat="43.2494367" lon="2.0663267"><ele>146.0</ele><time>2026-05-01T16:09:26.999Z</time></trkpt><trkpt lat="43.249255" lon="2.0663033"><ele>146.0</ele><time>2026-05-01T16:09:27.999Z</time></trkpt><trkpt lat="43.2490717" lon="2.06627"><ele>146.33333333333331</ele><time>2026-05-01T16:09:28.997Z</time></trkpt><trkpt lat="43.248895" lon="2.066225"><ele>146.66666666666666</ele><time>2026-05-01T16:09:29.997Z</time></trkpt><trkpt lat="43.2487233" lon="2.06616"><ele>147.0</ele><time>2026-05-01T16:09:30.998Z</time></trkpt><trkpt lat="43.248555" lon="2.066075"><ele>147.0</ele><time>2026-05-01T16:09:31.997Z</time></trkpt><trkpt lat="43.2483883" lon="2.0659733"><ele>147.0</ele><time>2026-05-01T16:09:32.997Z</time></trkpt><trkpt lat="43.2482217" lon="2.0658617"><ele>147.0</ele><time>2026-05-01T16:09:34Z</time></trkpt><trkpt lat="43.2480483" lon="2.065755"><ele>147.0</ele><time>2026-05-01T16:09:35.003Z</time></trkpt><trkpt lat="43.24788" lon="2.06565"><ele>147.0</ele><time>2026-05-01T16:09:35.998Z</time></trkpt><trkpt lat="43.247715" lon="2.0655433"><ele>147.0</ele><time>2026-05-01T16:09:36.999Z</time></trkpt><trkpt lat="43.2475433" lon="2.0654417"><ele>147.0</ele><time>2026-05-01T16:09:37.997Z</time></trkpt><trkpt lat="43.2473667" lon="2.0653483"><ele>147.0</ele><time>2026-05-01T16:09:38.998Z</time></trkpt><trkpt lat="43.2471833" lon="2.065255"><ele>147.0</ele><time>2026-05-01T16:09:39.999Z</time></trkpt><trkpt lat="43.2469883" lon="2.065175"><ele>146.66666666666666</ele><time>2026-05-01T16:09:40.998Z</time></trkpt><trkpt lat="43.246785" lon="2.0651217"><ele>146.33333333333331</ele><time>2026-05-01T16:09:41.997Z</time></trkpt><trkpt lat="43.2465883" lon="2.0650917"><ele>146.0</ele><time>2026-05-01T16:09:42.998Z</time></trkpt><trkpt lat="43.2463933" lon="2.065095"><ele>145.0</ele><time>2026-05-01T16:09:43.997Z</time></trkpt><trkpt lat="43.2462033" lon="2.0651083"><ele>144.0</ele><time>2026-05-01T16:09:45Z</time></trkpt><trkpt lat="43.2460183" lon="2.0651267"><ele>143.0</ele><time>2026-05-01T16:09:45.999Z</time></trkpt><trkpt lat="43.2458333" lon="2.0651467"><ele>143.0</ele><time>2026-05-01T16:09:46.997Z</time></trkpt><trkpt lat="43.2456533" lon="2.0651717"><ele>143.0</ele><time>2026-05-01T16:09:47.998Z</time></trkpt><trkpt lat="43.2454733" lon="2.06519"><ele>143.0</ele><time>2026-05-01T16:09:48.999Z</time></trkpt><trkpt lat="43.245295" lon="2.06519"><ele>143.33333333333331</ele><time>2026-05-01T16:09:49.997Z</time></trkpt><trkpt lat="43.2451133" lon="2.0651783"><ele>143.66666666666666</ele><time>2026-05-01T16:09:50.998Z</time></trkpt><trkpt lat="43.244935" lon="2.0651533"><ele>144.0</ele><time>2026-05-01T16:09:51.999Z</time></trkpt><trkpt lat="43.2447583" lon="2.0651083"><ele>144.0</ele><time>2026-05-01T16:09:52.997Z</time></trkpt><trkpt lat="43.2445867" lon="2.0650433"><ele>144.0</ele><time>2026-05-01T16:09:53.999Z</time></trkpt><trkpt lat="43.24442" lon="2.0649517"><ele>144.0</ele><time>2026-05-01T16:09:54.997Z</time></trkpt><trkpt lat="43.2442567" lon="2.0648533"><ele>144.0</ele><time>2026-05-01T16:09:55.998Z</time></trkpt><trkpt lat="43.244095" lon="2.0647533"><ele>144.0</ele><time>2026-05-01T16:09:56.998Z</time></trkpt><trkpt lat="43.243935" lon="2.0646533"><ele>144.0</ele><time>2026-05-01T16:09:57.999Z</time></trkpt><trkpt lat="43.2437767" lon="2.06455"><ele>144.66666666666666</ele><time>2026-05-01T16:09:58.997Z</time></trkpt><trkpt lat="43.24362" lon="2.0644483"><ele>145.33333333333331</ele><time>2026-05-01T16:09:59.997Z</time></trkpt><trkpt lat="43.2434617" lon="2.0643567"><ele>146.0</ele><time>2026-05-01T16:10:00.997Z</time></trkpt><trkpt lat="43.243295" lon="2.064285"><ele>146.0</ele><time>2026-05-01T16:10:01.998Z</time></trkpt><trkpt lat="43.2431217" lon="2.0642333"><ele>146.0</ele><time>2026-05-01T16:10:02.997Z</time></trkpt><trkpt lat="43.242945" lon="2.06419"><ele>146.0</ele><time>2026-05-01T16:10:03.998Z</time></trkpt><trkpt lat="43.2427683" lon="2.064145"><ele>146.0</ele><time>2026-05-01T16:10:04.997Z</time></trkpt><trkpt lat="43.242595" lon="2.0640983"><ele>146.0</ele><time>2026-05-01T16:10:05.997Z</time></trkpt><trkpt lat="43.24242" lon="2.064055"><ele>146.0</ele><time>2026-05-01T16:10:06.999Z</time></trkpt><trkpt lat="43.2422467" lon="2.0640183"><ele>146.66666666666666</ele><time>2026-05-01T16:10:07.997Z</time></trkpt><trkpt lat="43.2420783" lon="2.063985"><ele>147.33333333333334</ele><time>2026-05-01T16:10:08.997Z</time></trkpt><trkpt lat="43.241915" lon="2.063955"><ele>148.0</ele><time>2026-05-01T16:10:09.999Z</time></trkpt><trkpt lat="43.241755" lon="2.0639233"><ele>148.0</ele><time>2026-05-01T16:10:10.997Z</time></trkpt><trkpt lat="43.2415967" lon="2.06389"><ele>148.0</ele><time>2026-05-01T16:10:11.997Z</time></trkpt><trkpt lat="43.2414383" lon="2.063855"><ele>148.0</ele><time>2026-05-01T16:10:12.997Z</time></trkpt><trkpt lat="43.24129" lon="2.0638167"><ele>147.75</ele><time>2026-05-01T16:10:13.997Z</time></trkpt><trkpt lat="43.24115" lon="2.0637833"><ele>147.5</ele><time>2026-05-01T16:10:14.997Z</time></trkpt><trkpt lat="43.24102" lon="2.0637467"><ele>147.25</ele><time>2026-05-01T16:10:15.998Z</time></trkpt><trkpt lat="43.240905" lon="2.0636817"><ele>147.0</ele><time>2026-05-01T16:10:16.997Z</time></trkpt><trkpt lat="43.2408083" lon="2.06357"><ele>147.0</ele><time>2026-05-01T16:10:17.998Z</time></trkpt><trkpt lat="43.2407333" lon="2.0634267"><ele>147.0</ele><time>2026-05-01T16:10:18.997Z</time></trkpt><trkpt lat="43.2406917" lon="2.0632667"><ele>147.0</ele><time>2026-05-01T16:10:19.998Z</time></trkpt><trkpt lat="43.240665" lon="2.0631017"><ele>147.0</ele><time>2026-05-01T16:10:20.998Z</time></trkpt><trkpt lat="43.2406283" lon="2.062935"><ele>147.0</ele><time>2026-05-01T16:10:21.998Z</time></trkpt><trkpt lat="43.2405933" lon="2.0627617"><ele>147.0</ele><time>2026-05-01T16:10:22.997Z</time></trkpt><trkpt lat="43.2405533" lon="2.0625867"><ele>147.0</ele><time>2026-05-01T16:10:23.997Z</time></trkpt><trkpt lat="43.2405117" lon="2.0623967"><ele>147.0</ele><time>2026-05-01T16:10:24.998Z</time></trkpt><trkpt lat="43.2404717" lon="2.0621967"><ele>147.33333333333334</ele><time>2026-05-01T16:10:25.999Z</time></trkpt><trkpt lat="43.2404433" lon="2.0619933"><ele>147.66666666666669</ele><time>2026-05-01T16:10:26.998Z</time></trkpt><trkpt lat="43.2404167" lon="2.0617883"><ele>148.0</ele><time>2026-05-01T16:10:27.998Z</time></trkpt><trkpt lat="43.2403967" lon="2.0615783"><ele>148.0</ele><time>2026-05-01T16:10:28.998Z</time></trkpt><trkpt lat="43.24037" lon="2.0613667"><ele>148.0</ele><time>2026-05-01T16:10:29.997Z</time></trkpt><trkpt lat="43.240345" lon="2.061155"><ele>148.0</ele><time>2026-05-01T16:10:31.003Z</time></trkpt><trkpt lat="43.240305" lon="2.0609433"><ele>148.0</ele><time>2026-05-01T16:10:31.997Z</time></trkpt><trkpt lat="43.2402317" lon="2.0607383"><ele>148.0</ele><time>2026-05-01T16:10:32.997Z</time></trkpt><trkpt lat="43.2401217" lon="2.0605467"><ele>148.0</ele><time>2026-05-01T16:10:33.998Z</time></trkpt><trkpt lat="43.24" lon="2.06036"><ele>148.0</ele><time>2026-05-01T16:10:35.003Z</time></trkpt><trkpt lat="43.23987" lon="2.0601633"><ele>148.0</ele><time>2026-05-01T16:10:35.998Z</time></trkpt><trkpt lat="43.2397417" lon="2.0599633"><ele>148.0</ele><time>2026-05-01T16:10:36.997Z</time></trkpt><trkpt lat="43.2396117" lon="2.0597617"><ele>148.0</ele><time>2026-05-01T16:10:37.997Z</time></trkpt><trkpt lat="43.2394817" lon="2.0595683"><ele>148.0</ele><time>2026-05-01T16:10:38.998Z</time></trkpt><trkpt lat="43.239355" lon="2.0593767"><ele>148.0</ele><time>2026-05-01T16:10:39.997Z</time></trkpt><trkpt lat="43.2392267" lon="2.0591883"><ele>148.0</ele><time>2026-05-01T16:10:40.997Z</time></trkpt><trkpt lat="43.2390983" lon="2.0590083"><ele>148.0</ele><time>2026-05-01T16:10:41.997Z</time></trkpt><trkpt lat="43.2389733" lon="2.05883"><ele>148.0</ele><time>2026-05-01T16:10:42.997Z</time></trkpt><trkpt lat="43.2388517" lon="2.058655"><ele>148.0</ele><time>2026-05-01T16:10:43.996Z</time></trkpt><trkpt lat="43.2387367" lon="2.05848"><ele>148.0</ele><time>2026-05-01T16:10:44.997Z</time></trkpt><trkpt lat="43.2386333" lon="2.0582933"><ele>148.0</ele><time>2026-05-01T16:10:45.997Z</time></trkpt><trkpt lat="43.238545" lon="2.0580883"><ele>148.0</ele><time>2026-05-01T16:10:46.996Z</time></trkpt><trkpt lat="43.238465" lon="2.0578683"><ele>148.0</ele><time>2026-05-01T16:10:47.997Z</time></trkpt><trkpt lat="43.2383867" lon="2.0576467"><ele>148.0</ele><time>2026-05-01T16:10:48.998Z</time></trkpt><trkpt lat="43.2383033" lon="2.0574267"><ele>148.0</ele><time>2026-05-01T16:10:49.997Z</time></trkpt><trkpt lat="43.2382033" lon="2.0572117"><ele>148.0</ele><time>2026-05-01T16:10:50.998Z</time></trkpt><trkpt lat="43.2380883" lon="2.0570167"><ele>148.0</ele><time>2026-05-01T16:10:51.997Z</time></trkpt><trkpt lat="43.2379617" lon="2.0568367"><ele>148.0</ele><time>2026-05-01T16:10:53.003Z</time></trkpt><trkpt lat="43.237835" lon="2.0566717"><ele>148.0</ele><time>2026-05-01T16:10:53.997Z</time></trkpt><trkpt lat="43.23771" lon="2.0565117"><ele>148.0</ele><time>2026-05-01T16:10:54.997Z</time></trkpt><trkpt lat="43.2375733" lon="2.056365"><ele>148.66666666666669</ele><time>2026-05-01T16:10:55.996Z</time></trkpt><trkpt lat="43.2374217" lon="2.056255"><ele>149.33333333333334</ele><time>2026-05-01T16:10:57.001Z</time></trkpt><trkpt lat="43.2372667" lon="2.05616"><ele>150.0</ele><time>2026-05-01T16:10:57.998Z</time></trkpt><trkpt lat="43.2371183" lon="2.0560533"><ele>150.66666666666666</ele><time>2026-05-01T16:10:58.997Z</time></trkpt><trkpt lat="43.23699" lon="2.0559083"><ele>151.33333333333331</ele><time>2026-05-01T16:10:59.997Z</time></trkpt><trkpt lat="43.2368817" lon="2.0557183"><ele>152.0</ele><time>2026-05-01T16:11:00.997Z</time></trkpt><trkpt lat="43.236775" lon="2.0555133"><ele>152.0</ele><time>2026-05-01T16:11:01.997Z</time></trkpt><trkpt lat="43.23667" lon="2.05532"><ele>152.0</ele><time>2026-05-01T16:11:02.999Z</time></trkpt><trkpt lat="43.2365617" lon="2.0551417"><ele>152.0</ele><time>2026-05-01T16:11:03.999Z</time></trkpt><trkpt lat="43.236445" lon="2.05498"><ele>151.66666666666666</ele><time>2026-05-01T16:11:04.997Z</time></trkpt><trkpt lat="43.23631" lon="2.0548383"><ele>151.33333333333334</ele><time>2026-05-01T16:11:05.998Z</time></trkpt><trkpt lat="43.2361617" lon="2.0547283"><ele>151.0</ele><time>2026-05-01T16:11:06.998Z</time></trkpt><trkpt lat="43.236005" lon="2.0546433"><ele>151.0</ele><time>2026-05-01T16:11:07.998Z</time></trkpt><trkpt lat="43.235845" lon="2.0545667"><ele>151.0</ele><time>2026-05-01T16:11:08.998Z</time></trkpt><trkpt lat="43.2356917" lon="2.05449"><ele>151.0</ele><time>2026-05-01T16:11:09.997Z</time></trkpt><trkpt lat="43.23555" lon="2.054415"><ele>151.0</ele><time>2026-05-01T16:11:10.999Z</time></trkpt><trkpt lat="43.2354167" lon="2.05435"><ele>151.0</ele><time>2026-05-01T16:11:11.999Z</time></trkpt><trkpt lat="43.2352917" lon="2.05429"><ele>151.0</ele><time>2026-05-01T16:11:12.999Z</time></trkpt><trkpt lat="43.235175" lon="2.05423"><ele>151.0</ele><time>2026-05-01T16:11:13.997Z</time></trkpt><trkpt lat="43.23507" lon="2.0541733"><ele>151.0</ele><time>2026-05-01T16:11:14.998Z</time></trkpt><trkpt lat="43.2349767" lon="2.0541233"><ele>151.0</ele><time>2026-05-01T16:11:15.997Z</time></trkpt><trkpt lat="43.234895" lon="2.05408"><ele>151.0</ele><time>2026-05-01T16:11:16.997Z</time></trkpt><trkpt lat="43.2348283" lon="2.0540433"><ele>151.0</ele><time>2026-05-01T16:11:17.998Z</time></trkpt><trkpt lat="43.2347267" lon="2.0539967"><ele>151.0</ele><time>2026-05-01T16:11:19.999Z</time></trkpt><trkpt lat="43.2346583" lon="2.0539667"><ele>151.0</ele><time>2026-05-01T16:11:22Z</time></trkpt><trkpt lat="43.2345717" lon="2.0539233"><ele>151.2</ele><time>2026-05-01T16:11:24Z</time></trkpt><trkpt lat="43.2345067" lon="2.05389"><ele>151.39999999999998</ele><time>2026-05-01T16:11:24.999Z</time></trkpt><trkpt lat="43.2344317" lon="2.05385"><ele>151.6</ele><time>2026-05-01T16:11:25.999Z</time></trkpt><trkpt lat="43.2343467" lon="2.0538017"><ele>151.79999999999998</ele><time>2026-05-01T16:11:26.999Z</time></trkpt><trkpt lat="43.23425" lon="2.0537517"><ele>152.0</ele><time>2026-05-01T16:11:27.998Z</time></trkpt><trkpt lat="43.234145" lon="2.0536967"><ele>152.0</ele><time>2026-05-01T16:11:28.998Z</time></trkpt><trkpt lat="43.2340267" lon="2.0536383"><ele>152.0</ele><time>2026-05-01T16:11:29.997Z</time></trkpt><trkpt lat="43.2339017" lon="2.0535733"><ele>152.0</ele><time>2026-05-01T16:11:30.997Z</time></trkpt><trkpt lat="43.2337733" lon="2.0535033"><ele>152.0</ele><time>2026-05-01T16:11:31.997Z</time></trkpt><trkpt lat="43.2336433" lon="2.0534333"><ele>152.75</ele><time>2026-05-01T16:11:33.007Z</time></trkpt><trkpt lat="43.2335117" lon="2.05336"><ele>153.5</ele><time>2026-05-01T16:11:33.998Z</time></trkpt><trkpt lat="43.2333783" lon="2.053285"><ele>154.25</ele><time>2026-05-01T16:11:34.997Z</time></trkpt><trkpt lat="43.2332433" lon="2.0532183"><ele>155.0</ele><time>2026-05-01T16:11:35.998Z</time></trkpt><trkpt lat="43.2331067" lon="2.053155"><ele>156.66666666666666</ele><time>2026-05-01T16:11:36.998Z</time></trkpt><trkpt lat="43.232965" lon="2.0530917"><ele>158.33333333333334</ele><time>2026-05-01T16:11:38Z</time></trkpt><trkpt lat="43.2328217" lon="2.0530283"><ele>160.0</ele><time>2026-05-01T16:11:38.999Z</time></trkpt><trkpt lat="43.2326783" lon="2.05296"><ele>160.0</ele><time>2026-05-01T16:11:39.998Z</time></trkpt><trkpt lat="43.2325333" lon="2.05289"><ele>160.0</ele><time>2026-05-01T16:11:41.004Z</time></trkpt><trkpt lat="43.232385" lon="2.0528233"><ele>160.0</ele><time>2026-05-01T16:11:41.997Z</time></trkpt><trkpt lat="43.2322367" lon="2.05275"><ele>158.33333333333334</ele><time>2026-05-01T16:11:42.998Z</time></trkpt><trkpt lat="43.232085" lon="2.0526767"><ele>156.66666666666666</ele><time>2026-05-01T16:11:43.997Z</time></trkpt><trkpt lat="43.2319283" lon="2.0526067"><ele>155.0</ele><time>2026-05-01T16:11:44.998Z</time></trkpt><trkpt lat="43.2317717" lon="2.05253"><ele>155.0</ele><time>2026-05-01T16:11:45.999Z</time></trkpt><trkpt lat="43.231615" lon="2.052445"><ele>155.0</ele><time>2026-05-01T16:11:46.997Z</time></trkpt><trkpt lat="43.2314533" lon="2.0523417"><ele>155.0</ele><time>2026-05-01T16:11:47.997Z</time></trkpt><trkpt lat="43.23129" lon="2.052235"><ele>154.66666666666666</ele><time>2026-05-01T16:11:49Z</time></trkpt><trkpt lat="43.2311233" lon="2.0521167"><ele>154.33333333333334</ele><time>2026-05-01T16:11:49.998Z</time></trkpt><trkpt lat="43.2309583" lon="2.051995"><ele>154.0</ele><time>2026-05-01T16:11:50.998Z</time></trkpt><trkpt lat="43.23079" lon="2.05187"><ele>154.0</ele><time>2026-05-01T16:11:51.998Z</time></trkpt><trkpt lat="43.2306217" lon="2.051745"><ele>154.0</ele><time>2026-05-01T16:11:52.997Z</time></trkpt><trkpt lat="43.2304533" lon="2.05162"><ele>154.0</ele><time>2026-05-01T16:11:53.997Z</time></trkpt><trkpt lat="43.2302867" lon="2.0514917"><ele>154.0</ele><time>2026-05-01T16:11:54.997Z</time></trkpt><trkpt lat="43.2301183" lon="2.0513617"><ele>154.0</ele><time>2026-05-01T16:11:55.997Z</time></trkpt><trkpt lat="43.2299533" lon="2.0512367"><ele>154.0</ele><time>2026-05-01T16:11:56.997Z</time></trkpt><trkpt lat="43.2297833" lon="2.0511167"><ele>154.0</ele><time>2026-05-01T16:11:57.997Z</time></trkpt><trkpt lat="43.2296167" lon="2.0509967"><ele>154.0</ele><time>2026-05-01T16:11:59Z</time></trkpt><trkpt lat="43.2294517" lon="2.0508617"><ele>154.0</ele><time>2026-05-01T16:11:59.997Z</time></trkpt><trkpt lat="43.2292917" lon="2.050735"><ele>154.66666666666669</ele><time>2026-05-01T16:12:00.996Z</time></trkpt><trkpt lat="43.2291317" lon="2.0506167"><ele>155.33333333333334</ele><time>2026-05-01T16:12:02.002Z</time></trkpt><trkpt lat="43.2289717" lon="2.0504983"><ele>156.0</ele><time>2026-05-01T16:12:02.998Z</time></trkpt><trkpt lat="43.2288117" lon="2.0503783"><ele>156.0</ele><time>2026-05-01T16:12:03.998Z</time></trkpt><trkpt lat="43.2286533" lon="2.0502567"><ele>156.0</ele><time>2026-05-01T16:12:04.997Z</time></trkpt><trkpt lat="43.2284967" lon="2.0501383"><ele>156.0</ele><time>2026-05-01T16:12:05.998Z</time></trkpt><trkpt lat="43.2283417" lon="2.0500217"><ele>156.0</ele><time>2026-05-01T16:12:06.997Z</time></trkpt><trkpt lat="43.2281867" lon="2.0499017"><ele>156.0</ele><time>2026-05-01T16:12:07.998Z</time></trkpt><trkpt lat="43.2280333" lon="2.0497767"><ele>156.0</ele><time>2026-05-01T16:12:08.998Z</time></trkpt><trkpt lat="43.2278833" lon="2.0496433"><ele>156.0</ele><time>2026-05-01T16:12:09.996Z</time></trkpt><trkpt lat="43.227735" lon="2.0495017"><ele>156.0</ele><time>2026-05-01T16:12:10.999Z</time></trkpt><trkpt lat="43.2275883" lon="2.0493533"><ele>156.0</ele><time>2026-05-01T16:12:11.997Z</time></trkpt><trkpt lat="43.2274483" lon="2.0491967"><ele>155.66666666666666</ele><time>2026-05-01T16:12:12.998Z</time></trkpt><trkpt lat="43.2273117" lon="2.0490317"><ele>155.33333333333331</ele><time>2026-05-01T16:12:13.999Z</time></trkpt><trkpt lat="43.227175" lon="2.0488667"><ele>155.0</ele><time>2026-05-01T16:12:15Z</time></trkpt><trkpt lat="43.22704" lon="2.0487017"><ele>155.66666666666666</ele><time>2026-05-01T16:12:15.998Z</time></trkpt><trkpt lat="43.226905" lon="2.0485367"><ele>156.33333333333334</ele><time>2026-05-01T16:12:16.997Z</time></trkpt><trkpt lat="43.22677" lon="2.0483717"><ele>157.0</ele><time>2026-05-01T16:12:17.998Z</time></trkpt><trkpt lat="43.22664" lon="2.0482083"><ele>157.33333333333334</ele><time>2026-05-01T16:12:18.999Z</time></trkpt><trkpt lat="43.2265083" lon="2.048045"><ele>157.66666666666666</ele><time>2026-05-01T16:12:19.998Z</time></trkpt><trkpt lat="43.2263767" lon="2.0478867"><ele>158.0</ele><time>2026-05-01T16:12:20.999Z</time></trkpt><trkpt lat="43.226245" lon="2.0477283"><ele>158.33333333333331</ele><time>2026-05-01T16:12:22Z</time></trkpt><trkpt lat="43.226115" lon="2.0475717"><ele>158.66666666666666</ele><time>2026-05-01T16:12:23Z</time></trkpt><trkpt lat="43.2259817" lon="2.04742"><ele>159.0</ele><time>2026-05-01T16:12:24Z</time></trkpt><trkpt lat="43.2258483" lon="2.047265"><ele>159.33333333333334</ele><time>2026-05-01T16:12:24.998Z</time></trkpt><trkpt lat="43.2257133" lon="2.0471167"><ele>159.66666666666669</ele><time>2026-05-01T16:12:25.998Z</time></trkpt><trkpt lat="43.2255767" lon="2.0469767"><ele>160.0</ele><time>2026-05-01T16:12:26.998Z</time></trkpt><trkpt lat="43.2254367" lon="2.04685"><ele>160.66666666666669</ele><time>2026-05-01T16:12:27.999Z</time></trkpt><trkpt lat="43.2252917" lon="2.0467333"><ele>161.33333333333334</ele><time>2026-05-01T16:12:28.998Z</time></trkpt><trkpt lat="43.225145" lon="2.0466233"><ele>162.0</ele><time>2026-05-01T16:12:29.999Z</time></trkpt><trkpt lat="43.2249983" lon="2.0465183"><ele>162.66666666666666</ele><time>2026-05-01T16:12:30.998Z</time></trkpt><trkpt lat="43.2248533" lon="2.0464117"><ele>163.33333333333331</ele><time>2026-05-01T16:12:32Z</time></trkpt><trkpt lat="43.22471" lon="2.0463067"><ele>164.0</ele><time>2026-05-01T16:12:32.998Z</time></trkpt><trkpt lat="43.2245683" lon="2.0461967"><ele>164.66666666666666</ele><time>2026-05-01T16:12:33.997Z</time></trkpt><trkpt lat="43.2244283" lon="2.0460817"><ele>165.33333333333334</ele><time>2026-05-01T16:12:34.998Z</time></trkpt><trkpt lat="43.2242883" lon="2.0459633"><ele>166.0</ele><time>2026-05-01T16:12:35.999Z</time></trkpt><trkpt lat="43.2241483" lon="2.0458417"><ele>166.0</ele><time>2026-05-01T16:12:36.998Z</time></trkpt><trkpt lat="43.2240067" lon="2.04572"><ele>166.0</ele><time>2026-05-01T16:12:37.999Z</time></trkpt><trkpt lat="43.223865" lon="2.0455983"><ele>166.0</ele><time>2026-05-01T16:12:38.998Z</time></trkpt><trkpt lat="43.2237217" lon="2.0454767"><ele>168.0</ele><time>2026-05-01T16:12:39.999Z</time></trkpt><trkpt lat="43.22358" lon="2.045355"><ele>170.0</ele><time>2026-05-01T16:12:40.997Z</time></trkpt><trkpt lat="43.2234383" lon="2.045235"><ele>172.0</ele><time>2026-05-01T16:12:41.999Z</time></trkpt><trkpt lat="43.2233" lon="2.04512"><ele>172.0</ele><time>2026-05-01T16:12:42.997Z</time></trkpt><trkpt lat="43.223165" lon="2.0450067"><ele>172.0</ele><time>2026-05-01T16:12:43.998Z</time></trkpt><trkpt lat="43.223035" lon="2.044895"><ele>172.0</ele><time>2026-05-01T16:12:44.998Z</time></trkpt><trkpt lat="43.2229117" lon="2.044795"><ele>173.25</ele><time>2026-05-01T16:12:45.997Z</time></trkpt><trkpt lat="43.222795" lon="2.0447017"><ele>174.5</ele><time>2026-05-01T16:12:46.997Z</time></trkpt><trkpt lat="43.22269" lon="2.0446"><ele>175.75</ele><time>2026-05-01T16:12:47.998Z</time></trkpt><trkpt lat="43.2226117" lon="2.0444683"><ele>177.0</ele><time>2026-05-01T16:12:48.997Z</time></trkpt><trkpt lat="43.2225633" lon="2.0443033"><ele>178.0</ele><time>2026-05-01T16:12:49.999Z</time></trkpt><trkpt lat="43.2225517" lon="2.0441267"><ele>179.0</ele><time>2026-05-01T16:12:50.998Z</time></trkpt><trkpt lat="43.2225583" lon="2.04395"><ele>180.0</ele><time>2026-05-01T16:12:51.998Z</time></trkpt><trkpt lat="43.222565" lon="2.0437717"><ele>181.0</ele><time>2026-05-01T16:12:52.997Z</time></trkpt><trkpt lat="43.2225717" lon="2.0435917"><ele>181.0</ele><time>2026-05-01T16:12:53.998Z</time></trkpt><trkpt lat="43.222585" lon="2.0434033"><ele>181.0</ele><time>2026-05-01T16:12:54.998Z</time></trkpt><trkpt lat="43.2226" lon="2.04321"><ele>181.0</ele><time>2026-05-01T16:12:55.997Z</time></trkpt><trkpt lat="43.2226067" lon="2.043015"><ele>181.0</ele><time>2026-05-01T16:12:57Z</time></trkpt><trkpt lat="43.2226067" lon="2.0428167"><ele>182.33333333333334</ele><time>2026-05-01T16:12:57.998Z</time></trkpt><trkpt lat="43.2226017" lon="2.0426117"><ele>183.66666666666666</ele><time>2026-05-01T16:12:58.997Z</time></trkpt><trkpt lat="43.22259" lon="2.0424033"><ele>185.0</ele><time>2026-05-01T16:12:59.998Z</time></trkpt><trkpt lat="43.2225767" lon="2.0421933"><ele>185.33333333333331</ele><time>2026-05-01T16:13:00.998Z</time></trkpt><trkpt lat="43.2225617" lon="2.0419817"><ele>185.66666666666666</ele><time>2026-05-01T16:13:01.997Z</time></trkpt><trkpt lat="43.2225467" lon="2.0417683"><ele>186.0</ele><time>2026-05-01T16:13:02.998Z</time></trkpt><trkpt lat="43.22253" lon="2.041555"><ele>187.33333333333334</ele><time>2026-05-01T16:13:03.998Z</time></trkpt><trkpt lat="43.2225133" lon="2.0413433"><ele>188.66666666666669</ele><time>2026-05-01T16:13:04.997Z</time></trkpt><trkpt lat="43.2224983" lon="2.0411333"><ele>190.0</ele><time>2026-05-01T16:13:05.998Z</time></trkpt><trkpt lat="43.2224817" lon="2.040925"><ele>190.75</ele><time>2026-05-01T16:13:06.998Z</time></trkpt><trkpt lat="43.2224667" lon="2.0407167"><ele>191.5</ele><time>2026-05-01T16:13:08Z</time></trkpt><trkpt lat="43.2224533" lon="2.0405267"><ele>192.25</ele><time>2026-05-01T16:13:08.999Z</time></trkpt><trkpt lat="43.2224417" lon="2.04035"><ele>193.0</ele><time>2026-05-01T16:13:09.999Z</time></trkpt><trkpt lat="43.222435" lon="2.04019"><ele>192.99999999999997</ele><time>2026-05-01T16:13:10.997Z</time></trkpt><trkpt lat="43.22243" lon="2.040055"><ele>193.0</ele><time>2026-05-01T16:13:11.997Z</time></trkpt><trkpt lat="43.2224267" lon="2.0399483"><ele>193.0</ele><time>2026-05-01T16:13:12.997Z</time></trkpt><trkpt lat="43.2224217" lon="2.0398583"><ele>193.0</ele><time>2026-05-01T16:13:13.997Z</time></trkpt><trkpt lat="43.2223867" lon="2.039745"><ele>192.99999999999997</ele><time>2026-05-01T16:13:15.997Z</time></trkpt><trkpt lat="43.2223217" lon="2.039755"><ele>193.0</ele><time>2026-05-01T16:13:17.999Z</time></trkpt><trkpt lat="43.22229" lon="2.039905"><ele>195.2857142857143</ele><time>2026-05-01T16:13:19.999Z</time></trkpt><trkpt lat="43.2222667" lon="2.0399867"><ele>197.57142857142858</ele><time>2026-05-01T16:13:21.002Z</time></trkpt><trkpt lat="43.222235" lon="2.0400683"><ele>199.85714285714286</ele><time>2026-05-01T16:13:21.998Z</time></trkpt><trkpt lat="43.2222067" lon="2.040155"><ele>202.14285714285717</ele><time>2026-05-01T16:13:22.997Z</time></trkpt><trkpt lat="43.222185" lon="2.0402467"><ele>204.42857142857142</ele><time>2026-05-01T16:13:23.997Z</time></trkpt><trkpt lat="43.222155" lon="2.0403417"><ele>206.71428571428572</ele><time>2026-05-01T16:13:25Z</time></trkpt><trkpt lat="43.2221133" lon="2.04043"><ele>209.0</ele><time>2026-05-01T16:13:25.997Z</time></trkpt><trkpt lat="43.2220733" lon="2.0405217"><ele>209.00000000000003</ele><time>2026-05-01T16:13:26.997Z</time></trkpt><trkpt lat="43.2220383" lon="2.04062"><ele>209.0</ele><time>2026-05-01T16:13:27.998Z</time></trkpt><trkpt lat="43.2219967" lon="2.0407167"><ele>209.0</ele><time>2026-05-01T16:13:29Z</time></trkpt><trkpt lat="43.221955" lon="2.04082"><ele>209.0</ele><time>2026-05-01T16:13:29.998Z</time></trkpt><trkpt lat="43.2219183" lon="2.0409133"><ele>209.00000000000003</ele><time>2026-05-01T16:13:30.997Z</time></trkpt><trkpt lat="43.2218867" lon="2.0409933"><ele>209.0</ele><time>2026-05-01T16:13:31.998Z</time></trkpt><trkpt lat="43.2218433" lon="2.0411217"><ele>208.50000000000003</ele><time>2026-05-01T16:13:33.997Z</time></trkpt><trkpt lat="43.2218083" lon="2.0411967"><ele>208.0</ele><time>2026-05-01T16:13:35.997Z</time></trkpt><trkpt lat="43.221765" lon="2.04127"><ele>207.5</ele><time>2026-05-01T16:13:37.997Z</time></trkpt><trkpt lat="43.2217167" lon="2.0414017"><ele>207.0</ele><time>2026-05-01T16:13:39.996Z</time></trkpt><trkpt lat="43.22169" lon="2.0414867"><ele>206.50000000000003</ele><time>2026-05-01T16:13:41Z</time></trkpt><trkpt lat="43.2216483" lon="2.0415683"><ele>206.0</ele><time>2026-05-01T16:13:42.001Z</time></trkpt><trkpt lat="43.2215967" lon="2.0416517"><ele>207.16666666666669</ele><time>2026-05-01T16:13:43Z</time></trkpt><trkpt lat="43.2215483" lon="2.04174"><ele>208.33333333333334</ele><time>2026-05-01T16:13:43.997Z</time></trkpt><trkpt lat="43.221495" lon="2.041835"><ele>209.5</ele><time>2026-05-01T16:13:44.997Z</time></trkpt><trkpt lat="43.2214433" lon="2.041925"><ele>210.66666666666669</ele><time>2026-05-01T16:13:46.001Z</time></trkpt><trkpt lat="43.22138" lon="2.0420017"><ele>211.83333333333334</ele><time>2026-05-01T16:13:46.998Z</time></trkpt><trkpt lat="43.2213217" lon="2.04208"><ele>213.0</ele><time>2026-05-01T16:13:47.999Z</time></trkpt><trkpt lat="43.22126" lon="2.0421517"><ele>213.0</ele><time>2026-05-01T16:13:48.998Z</time></trkpt><trkpt lat="43.2212017" lon="2.0422217"><ele>213.0</ele><time>2026-05-01T16:13:49.997Z</time></trkpt><trkpt lat="43.22114" lon="2.0422917"><ele>213.0</ele><time>2026-05-01T16:13:51.001Z</time></trkpt><trkpt lat="43.221075" lon="2.0423567"><ele>213.0</ele><time>2026-05-01T16:13:51.998Z</time></trkpt><trkpt lat="43.2210067" lon="2.04243"><ele>213.0</ele><time>2026-05-01T16:13:52.998Z</time></trkpt><trkpt lat="43.22093" lon="2.0425067"><ele>213.0</ele><time>2026-05-01T16:13:53.997Z</time></trkpt><trkpt lat="43.220855" lon="2.0425817"><ele>213.4</ele><time>2026-05-01T16:13:54.998Z</time></trkpt><trkpt lat="43.2207833" lon="2.0426483"><ele>213.8</ele><time>2026-05-01T16:13:55.997Z</time></trkpt><trkpt lat="43.2207033" lon="2.0427117"><ele>214.2</ele><time>2026-05-01T16:13:56.999Z</time></trkpt><trkpt lat="43.2206183" lon="2.0427767"><ele>214.6</ele><time>2026-05-01T16:13:57.997Z</time></trkpt><trkpt lat="43.22053" lon="2.0428433"><ele>215.0</ele><time>2026-05-01T16:13:58.998Z</time></trkpt><trkpt lat="43.220445" lon="2.042905"><ele>215.0</ele><time>2026-05-01T16:13:59.998Z</time></trkpt><trkpt lat="43.2203683" lon="2.0429583"><ele>215.0</ele><time>2026-05-01T16:14:00.998Z</time></trkpt><trkpt lat="43.2203" lon="2.0429967"><ele>215.0</ele><time>2026-05-01T16:14:01.999Z</time></trkpt><trkpt lat="43.2202333" lon="2.0430267"><ele>215.0</ele><time>2026-05-01T16:14:02.998Z</time></trkpt><trkpt lat="43.2201633" lon="2.04304"><ele>215.0</ele><time>2026-05-01T16:14:03.999Z</time></trkpt><trkpt lat="43.2200917" lon="2.04304"><ele>215.0</ele><time>2026-05-01T16:14:04.998Z</time></trkpt><trkpt lat="43.22002" lon="2.043025"><ele>215.0</ele><time>2026-05-01T16:14:05.999Z</time></trkpt><trkpt lat="43.21995" lon="2.0430033"><ele>215.00000000000003</ele><time>2026-05-01T16:14:06.998Z</time></trkpt><trkpt lat="43.2198817" lon="2.0429783"><ele>215.0</ele><time>2026-05-01T16:14:07.999Z</time></trkpt><trkpt lat="43.2198067" lon="2.0429383"><ele>215.0</ele><time>2026-05-01T16:14:08.998Z</time></trkpt><trkpt lat="43.21973" lon="2.0428917"><ele>215.0</ele><time>2026-05-01T16:14:09.999Z</time></trkpt><trkpt lat="43.2196583" lon="2.04284"><ele>215.00000000000003</ele><time>2026-05-01T16:14:10.997Z</time></trkpt><trkpt lat="43.2195883" lon="2.0427933"><ele>215.0</ele><time>2026-05-01T16:14:11.997Z</time></trkpt><trkpt lat="43.2194983" lon="2.0427183"><ele>215.50000000000003</ele><time>2026-05-01T16:14:13.997Z</time></trkpt><trkpt lat="43.2194217" lon="2.04264"><ele>216.0</ele><time>2026-05-01T16:14:15.997Z</time></trkpt><trkpt lat="43.21939" lon="2.042565"><ele>216.5</ele><time>2026-05-01T16:14:17.997Z</time></trkpt><trkpt lat="43.21943" lon="2.0424767"><ele>217.0</ele><time>2026-05-01T16:14:19.999Z</time></trkpt><trkpt lat="43.2195183" lon="2.0423833"><ele>217.50000000000003</ele><time>2026-05-01T16:14:21.999Z</time></trkpt><trkpt lat="43.2195667" lon="2.04232"><ele>218.0</ele><time>2026-05-01T16:14:22.997Z</time></trkpt><trkpt lat="43.2196433" lon="2.0422083"><ele>218.00000000000003</ele><time>2026-05-01T16:14:24.998Z</time></trkpt><trkpt lat="43.2197383" lon="2.0421383"><ele>218.0</ele><time>2026-05-01T16:14:27.005Z</time></trkpt><trkpt lat="43.2198267" lon="2.04205"><ele>218.0</ele><time>2026-05-01T16:14:28.999Z</time></trkpt><trkpt lat="43.2198767" lon="2.0419967"><ele>218.0</ele><time>2026-05-01T16:14:29.997Z</time></trkpt><trkpt lat="43.219925" lon="2.0419333"><ele>218.00000000000003</ele><time>2026-05-01T16:14:30.997Z</time></trkpt><trkpt lat="43.2199767" lon="2.0418517"><ele>218.0</ele><time>2026-05-01T16:14:31.999Z</time></trkpt><trkpt lat="43.2200283" lon="2.0417717"><ele>218.83333333333334</ele><time>2026-05-01T16:14:33Z</time></trkpt><trkpt lat="43.2200783" lon="2.0416917"><ele>219.66666666666669</ele><time>2026-05-01T16:14:33.999Z</time></trkpt><trkpt lat="43.22013" lon="2.0416033"><ele>220.5</ele><time>2026-05-01T16:14:34.999Z</time></trkpt><trkpt lat="43.2201783" lon="2.0415"><ele>221.33333333333331</ele><time>2026-05-01T16:14:35.999Z</time></trkpt><trkpt lat="43.2202167" lon="2.041405"><ele>222.16666666666666</ele><time>2026-05-01T16:14:36.998Z</time></trkpt><trkpt lat="43.2202633" lon="2.0413283"><ele>223.0</ele><time>2026-05-01T16:14:37.997Z</time></trkpt><trkpt lat="43.22033" lon="2.041195"><ele>223.0</ele><time>2026-05-01T16:14:39.999Z</time></trkpt><trkpt lat="43.2204017" lon="2.04104"><ele>223.0</ele><time>2026-05-01T16:14:41.997Z</time></trkpt><trkpt lat="43.2204383" lon="2.0409683"><ele>223.0</ele><time>2026-05-01T16:14:42.997Z</time></trkpt><trkpt lat="43.2205" lon="2.04085"><ele>223.0</ele><time>2026-05-01T16:14:44.998Z</time></trkpt><trkpt lat="43.2205467" lon="2.040745"><ele>223.0</ele><time>2026-05-01T16:14:46.997Z</time></trkpt><trkpt lat="43.2205983" lon="2.040645"><ele>223.33333333333331</ele><time>2026-05-01T16:14:48.998Z</time></trkpt><trkpt lat="43.2206583" lon="2.040545"><ele>223.66666666666666</ele><time>2026-05-01T16:14:50.998Z</time></trkpt><trkpt lat="43.220705" lon="2.0404433"><ele>224.0</ele><time>2026-05-01T16:14:52.998Z</time></trkpt><trkpt lat="43.22075" lon="2.040355"><ele>224.33333333333331</ele><time>2026-05-01T16:14:54.998Z</time></trkpt><trkpt lat="43.2208033" lon="2.0402633"><ele>224.66666666666666</ele><time>2026-05-01T16:14:56.998Z</time></trkpt><trkpt lat="43.2208617" lon="2.0401633"><ele>225.0</ele><time>2026-05-01T16:14:58.997Z</time></trkpt><trkpt lat="43.22091" lon="2.0400283"><ele>223.5</ele><time>2026-05-01T16:15:00.997Z</time></trkpt><trkpt lat="43.2208967" lon="2.0399167"><ele>222.0</ele><time>2026-05-01T16:15:02.997Z</time></trkpt><trkpt lat="43.220835" lon="2.0398733"><ele>220.5</ele><time>2026-05-01T16:15:04.997Z</time></trkpt><trkpt lat="43.2208467" lon="2.0397867"><ele>219.0</ele><time>2026-05-01T16:15:06.998Z</time></trkpt><trkpt lat="43.2209033" lon="2.039695"><ele>217.5</ele><time>2026-05-01T16:15:08.997Z</time></trkpt><trkpt lat="43.22096" lon="2.0396033"><ele>216.0</ele><time>2026-05-01T16:15:10.998Z</time></trkpt><trkpt lat="43.2210133" lon="2.03954"><ele>216.0</ele><time>2026-05-01T16:15:12.997Z</time></trkpt><trkpt lat="43.221095" lon="2.0395433"><ele>216.0</ele><time>2026-05-01T16:15:18.001Z</time></trkpt><trkpt lat="43.2211633" lon="2.0395917"><ele>216.0</ele><time>2026-05-01T16:15:21.997Z</time></trkpt><trkpt lat="43.2212417" lon="2.0396367"><ele>216.0</ele><time>2026-05-01T16:15:28.998Z</time></trkpt><trkpt lat="43.22128" lon="2.0397283"><ele>216.0</ele><time>2026-05-01T16:15:40.999Z</time></trkpt><trkpt lat="43.221255" lon="2.03982"><ele>216.0</ele><time>2026-05-01T16:15:43Z</time></trkpt><trkpt lat="43.2212167" lon="2.0399317"><ele>217.8</ele><time>2026-05-01T16:15:45.997Z</time></trkpt><trkpt lat="43.2211483" lon="2.04005"><ele>219.60000000000002</ele><time>2026-05-01T16:15:48.997Z</time></trkpt><trkpt lat="43.2210717" lon="2.0401667"><ele>221.4</ele><time>2026-05-01T16:15:50.998Z</time></trkpt><trkpt lat="43.2210017" lon="2.0402467"><ele>223.2</ele><time>2026-05-01T16:15:52.997Z</time></trkpt><trkpt lat="43.2209267" lon="2.0403033"><ele>225.0</ele><time>2026-05-01T16:15:54.997Z</time></trkpt><trkpt lat="43.2208467" lon="2.0403067"><ele>225.0</ele><time>2026-05-01T16:15:57.003Z</time></trkpt><trkpt lat="43.2207767" lon="2.040345"><ele>225.0</ele><time>2026-05-01T16:15:58.999Z</time></trkpt><trkpt lat="43.2207" lon="2.0403933"><ele>225.0</ele><time>2026-05-01T16:16:01Z</time></trkpt><trkpt lat="43.22063" lon="2.0403717"><ele>225.0</ele><time>2026-05-01T16:16:02.998Z</time></trkpt><trkpt lat="43.220545" lon="2.0403117"><ele>225.0</ele><time>2026-05-01T16:16:04.998Z</time></trkpt><trkpt lat="43.2204633" lon="2.040255"><ele>225.0</ele><time>2026-05-01T16:16:06.999Z</time></trkpt><trkpt lat="43.2204017" lon="2.0402017"><ele>224.0</ele><time>2026-05-01T16:16:09.006Z</time></trkpt><trkpt lat="43.2203467" lon="2.040155"><ele>223.0</ele><time>2026-05-01T16:16:11.999Z</time></trkpt><trkpt lat="43.220265" lon="2.0400983"><ele>222.0</ele><time>2026-05-01T16:16:14.998Z</time></trkpt><trkpt lat="43.2201767" lon="2.040025"><ele>221.0</ele><time>2026-05-01T16:16:16.998Z</time></trkpt><trkpt lat="43.2200733" lon="2.0399317"><ele>220.0</ele><time>2026-05-01T16:16:19Z</time></trkpt><trkpt lat="43.2199933" lon="2.0398533"><ele>218.8</ele><time>2026-05-01T16:16:20.998Z</time></trkpt><trkpt lat="43.2199333" lon="2.0397933"><ele>217.6</ele><time>2026-05-01T16:16:23.998Z</time></trkpt><trkpt lat="43.2198717" lon="2.0398983"><ele>216.39999999999998</ele><time>2026-05-01T16:16:31.997Z</time></trkpt><trkpt lat="43.2198083" lon="2.040035"><ele>215.2</ele><time>2026-05-01T16:16:33.998Z</time></trkpt><trkpt lat="43.219745" lon="2.0401883"><ele>214.0</ele><time>2026-05-01T16:16:35.999Z</time></trkpt><trkpt lat="43.21971" lon="2.0402817"><ele>213.79999999999998</ele><time>2026-05-01T16:16:36.998Z</time></trkpt><trkpt lat="43.2196717" lon="2.040385"><ele>213.59999999999997</ele><time>2026-05-01T16:16:37.997Z</time></trkpt><trkpt lat="43.21963" lon="2.0404917"><ele>213.4</ele><time>2026-05-01T16:16:38.997Z</time></trkpt><trkpt lat="43.2195867" lon="2.0405983"><ele>213.2</ele><time>2026-05-01T16:16:39.997Z</time></trkpt><trkpt lat="43.2195383" lon="2.04071"><ele>213.0</ele><time>2026-05-01T16:16:40.997Z</time></trkpt><trkpt lat="43.2194917" lon="2.040825"><ele>213.0</ele><time>2026-05-01T16:16:41.997Z</time></trkpt><trkpt lat="43.2194383" lon="2.040935"><ele>213.0</ele><time>2026-05-01T16:16:42.999Z</time></trkpt><trkpt lat="43.2193767" lon="2.041045"><ele>213.0</ele><time>2026-05-01T16:16:43.998Z</time></trkpt><trkpt lat="43.2193083" lon="2.0411483"><ele>213.0</ele><time>2026-05-01T16:16:44.999Z</time></trkpt><trkpt lat="43.21923" lon="2.0412383"><ele>213.0</ele><time>2026-05-01T16:16:45.998Z</time></trkpt><trkpt lat="43.2191433" lon="2.04132"><ele>213.0</ele><time>2026-05-01T16:16:46.998Z</time></trkpt><trkpt lat="43.21905" lon="2.0414"><ele>213.0</ele><time>2026-05-01T16:16:47.998Z</time></trkpt><trkpt lat="43.2189567" lon="2.04148"><ele>213.0</ele><time>2026-05-01T16:16:48.997Z</time></trkpt><trkpt lat="43.2188617" lon="2.0415567"><ele>213.0</ele><time>2026-05-01T16:16:49.998Z</time></trkpt><trkpt lat="43.2187633" lon="2.0416167"><ele>213.0</ele><time>2026-05-01T16:16:50.998Z</time></trkpt><trkpt lat="43.2186567" lon="2.0416833"><ele>211.75</ele><time>2026-05-01T16:16:51.998Z</time></trkpt><trkpt lat="43.218545" lon="2.04176"><ele>210.5</ele><time>2026-05-01T16:16:52.998Z</time></trkpt><trkpt lat="43.2184283" lon="2.0418417"><ele>209.25</ele><time>2026-05-01T16:16:53.997Z</time></trkpt><trkpt lat="43.2182983" lon="2.0419183"><ele>208.0</ele><time>2026-05-01T16:16:54.998Z</time></trkpt><trkpt lat="43.2181583" lon="2.042"><ele>205.75</ele><time>2026-05-01T16:16:55.998Z</time></trkpt><trkpt lat="43.2180233" lon="2.0420833"><ele>203.5</ele><time>2026-05-01T16:16:56.998Z</time></trkpt><trkpt lat="43.2178883" lon="2.0421617"><ele>201.25</ele><time>2026-05-01T16:16:57.998Z</time></trkpt><trkpt lat="43.217755" lon="2.0422417"><ele>199.0</ele><time>2026-05-01T16:16:58.997Z</time></trkpt><trkpt lat="43.2176083" lon="2.0423233"><ele>199.0</ele><time>2026-05-01T16:16:59.997Z</time></trkpt><trkpt lat="43.2174633" lon="2.0424067"><ele>199.0</ele><time>2026-05-01T16:17:00.998Z</time></trkpt><trkpt lat="43.2173083" lon="2.0424967"><ele>199.0</ele><time>2026-05-01T16:17:01.999Z</time></trkpt><trkpt lat="43.2171567" lon="2.04258"><ele>198.0</ele><time>2026-05-01T16:17:03.003Z</time></trkpt><trkpt lat="43.2170033" lon="2.0426783"><ele>197.0</ele><time>2026-05-01T16:17:03.997Z</time></trkpt><trkpt lat="43.2168533" lon="2.04277"><ele>196.0</ele><time>2026-05-01T16:17:04.998Z</time></trkpt><trkpt lat="43.2167017" lon="2.0428633"><ele>196.0</ele><time>2026-05-01T16:17:05.997Z</time></trkpt><trkpt lat="43.2165567" lon="2.04295"><ele>196.0</ele><time>2026-05-01T16:17:07Z</time></trkpt><trkpt lat="43.216415" lon="2.043035"><ele>196.0</ele><time>2026-05-01T16:17:07.998Z</time></trkpt><trkpt lat="43.2162733" lon="2.0431183"><ele>196.33333333333331</ele><time>2026-05-01T16:17:08.998Z</time></trkpt><trkpt lat="43.2161317" lon="2.043205"><ele>196.66666666666669</ele><time>2026-05-01T16:17:09.998Z</time></trkpt><trkpt lat="43.2159883" lon="2.0432917"><ele>197.0</ele><time>2026-05-01T16:17:10.998Z</time></trkpt><trkpt lat="43.2158433" lon="2.0433817"><ele>197.0</ele><time>2026-05-01T16:17:11.997Z</time></trkpt><trkpt lat="43.215695" lon="2.04347"><ele>197.0</ele><time>2026-05-01T16:17:12.998Z</time></trkpt><trkpt lat="43.215545" lon="2.0435633"><ele>197.0</ele><time>2026-05-01T16:17:13.998Z</time></trkpt><trkpt lat="43.215395" lon="2.0436567"><ele>196.33333333333334</ele><time>2026-05-01T16:17:15.005Z</time></trkpt><trkpt lat="43.2152433" lon="2.0437517"><ele>195.66666666666669</ele><time>2026-05-01T16:17:15.998Z</time></trkpt><trkpt lat="43.2150883" lon="2.0438483"><ele>195.0</ele><time>2026-05-01T16:17:16.998Z</time></trkpt><trkpt lat="43.2149333" lon="2.0439417"><ele>195.0</ele><time>2026-05-01T16:17:17.998Z</time></trkpt><trkpt lat="43.2147683" lon="2.044015"><ele>195.0</ele><time>2026-05-01T16:17:19Z</time></trkpt><trkpt lat="43.2146033" lon="2.0440683"><ele>195.0</ele><time>2026-05-01T16:17:19.999Z</time></trkpt><trkpt lat="43.2144367" lon="2.0441167"><ele>194.66666666666669</ele><time>2026-05-01T16:17:20.999Z</time></trkpt><trkpt lat="43.2142683" lon="2.044155"><ele>194.33333333333334</ele><time>2026-05-01T16:17:21.997Z</time></trkpt><trkpt lat="43.2141017" lon="2.0441783"><ele>194.0</ele><time>2026-05-01T16:17:22.997Z</time></trkpt><trkpt lat="43.21393" lon="2.04421"><ele>194.0</ele><time>2026-05-01T16:17:23.999Z</time></trkpt><trkpt lat="43.2137567" lon="2.0442383"><ele>194.0</ele><time>2026-05-01T16:17:24.998Z</time></trkpt><trkpt lat="43.2135783" lon="2.0442767"><ele>194.0</ele><time>2026-05-01T16:17:25.998Z</time></trkpt><trkpt lat="43.2134" lon="2.044315"><ele>194.0</ele><time>2026-05-01T16:17:26.998Z</time></trkpt><trkpt lat="43.2132233" lon="2.04435"><ele>194.0</ele><time>2026-05-01T16:17:27.997Z</time></trkpt><trkpt lat="43.2130417" lon="2.0443833"><ele>194.0</ele><time>2026-05-01T16:17:29Z</time></trkpt><trkpt lat="43.2128683" lon="2.044415"><ele>193.33333333333334</ele><time>2026-05-01T16:17:29.997Z</time></trkpt><trkpt lat="43.2127" lon="2.0444517"><ele>192.66666666666669</ele><time>2026-05-01T16:17:30.998Z</time></trkpt><trkpt lat="43.212535" lon="2.0444833"><ele>192.0</ele><time>2026-05-01T16:17:31.999Z</time></trkpt><trkpt lat="43.2123617" lon="2.044515"><ele>191.66666666666666</ele><time>2026-05-01T16:17:32.999Z</time></trkpt><trkpt lat="43.2121967" lon="2.044545"><ele>191.33333333333331</ele><time>2026-05-01T16:17:33.998Z</time></trkpt><trkpt lat="43.2120283" lon="2.0445833"><ele>191.0</ele><time>2026-05-01T16:17:34.999Z</time></trkpt><trkpt lat="43.2118533" lon="2.044625"><ele>191.0</ele><time>2026-05-01T16:17:36.001Z</time></trkpt><trkpt lat="43.2116767" lon="2.0446633"><ele>191.0</ele><time>2026-05-01T16:17:36.998Z</time></trkpt><trkpt lat="43.2114983" lon="2.0447017"><ele>191.0</ele><time>2026-05-01T16:17:37.998Z</time></trkpt><trkpt lat="43.2113167" lon="2.04474"><ele>191.0</ele><time>2026-05-01T16:17:38.998Z</time></trkpt><trkpt lat="43.2111333" lon="2.0447767"><ele>191.0</ele><time>2026-05-01T16:17:40.001Z</time></trkpt><trkpt lat="43.210945" lon="2.044815"><ele>191.0</ele><time>2026-05-01T16:17:40.998Z</time></trkpt><trkpt lat="43.2107617" lon="2.0448517"><ele>190.66666666666666</ele><time>2026-05-01T16:17:41.999Z</time></trkpt><trkpt lat="43.21058" lon="2.044885"><ele>190.33333333333334</ele><time>2026-05-01T16:17:42.997Z</time></trkpt><trkpt lat="43.210405" lon="2.04492"><ele>190.0</ele><time>2026-05-01T16:17:43.998Z</time></trkpt><trkpt lat="43.2102283" lon="2.0449583"><ele>190.33333333333334</ele><time>2026-05-01T16:17:44.998Z</time></trkpt><trkpt lat="43.2100517" lon="2.044995"><ele>190.66666666666666</ele><time>2026-05-01T16:17:45.997Z</time></trkpt><trkpt lat="43.209875" lon="2.04503"><ele>191.0</ele><time>2026-05-01T16:17:46.997Z</time></trkpt><trkpt lat="43.2097083" lon="2.0450633"><ele>192.0</ele><time>2026-05-01T16:17:47.998Z</time></trkpt><trkpt lat="43.20955" lon="2.045095"><ele>193.0</ele><time>2026-05-01T16:17:48.998Z</time></trkpt><trkpt lat="43.2093933" lon="2.045125"><ele>194.0</ele><time>2026-05-01T16:17:50Z</time></trkpt><trkpt lat="43.2092383" lon="2.0451567"><ele>194.0</ele><time>2026-05-01T16:17:50.999Z</time></trkpt><trkpt lat="43.2090833" lon="2.045185"><ele>194.0</ele><time>2026-05-01T16:17:51.998Z</time></trkpt><trkpt lat="43.2089267" lon="2.04522"><ele>194.0</ele><time>2026-05-01T16:17:52.997Z</time></trkpt><trkpt lat="43.2087667" lon="2.045255"><ele>194.33333333333334</ele><time>2026-05-01T16:17:53.998Z</time></trkpt><trkpt lat="43.208605" lon="2.045285"><ele>194.66666666666669</ele><time>2026-05-01T16:17:54.998Z</time></trkpt><trkpt lat="43.2084417" lon="2.045315"><ele>195.0</ele><time>2026-05-01T16:17:55.999Z</time></trkpt><trkpt lat="43.2082783" lon="2.0453483"><ele>195.66666666666669</ele><time>2026-05-01T16:17:56.998Z</time></trkpt><trkpt lat="43.2081117" lon="2.0453833"><ele>196.33333333333334</ele><time>2026-05-01T16:17:57.998Z</time></trkpt><trkpt lat="43.2079383" lon="2.04542"><ele>197.0</ele><time>2026-05-01T16:17:58.998Z</time></trkpt><trkpt lat="43.207765" lon="2.0454617"><ele>197.0</ele><time>2026-05-01T16:17:59.998Z</time></trkpt><trkpt lat="43.2075867" lon="2.045495"><ele>197.0</ele><time>2026-05-01T16:18:00.999Z</time></trkpt><trkpt lat="43.2074083" lon="2.0455317"><ele>197.0</ele><time>2026-05-01T16:18:01.998Z</time></trkpt><trkpt lat="43.2072283" lon="2.0455717"><ele>197.66666666666669</ele><time>2026-05-01T16:18:02.997Z</time></trkpt><trkpt lat="43.2070517" lon="2.0456083"><ele>198.33333333333331</ele><time>2026-05-01T16:18:03.999Z</time></trkpt><trkpt lat="43.2068733" lon="2.0456417"><ele>199.0</ele><time>2026-05-01T16:18:04.998Z</time></trkpt><trkpt lat="43.2067" lon="2.0456717"><ele>199.0</ele><time>2026-05-01T16:18:05.998Z</time></trkpt><trkpt lat="43.20653" lon="2.045715"><ele>199.0</ele><time>2026-05-01T16:18:06.998Z</time></trkpt><trkpt lat="43.2063683" lon="2.04578"><ele>199.0</ele><time>2026-05-01T16:18:07.998Z</time></trkpt><trkpt lat="43.206215" lon="2.0458767"><ele>199.33333333333331</ele><time>2026-05-01T16:18:08.998Z</time></trkpt><trkpt lat="43.20607" lon="2.0459983"><ele>199.66666666666669</ele><time>2026-05-01T16:18:09.998Z</time></trkpt><trkpt lat="43.2059333" lon="2.04614"><ele>200.0</ele><time>2026-05-01T16:18:11Z</time></trkpt><trkpt lat="43.2057933" lon="2.04629"><ele>199.66666666666669</ele><time>2026-05-01T16:18:11.998Z</time></trkpt><trkpt lat="43.2056567" lon="2.0464383"><ele>199.33333333333331</ele><time>2026-05-01T16:18:12.999Z</time></trkpt><trkpt lat="43.2055283" lon="2.0465783"><ele>199.0</ele><time>2026-05-01T16:18:13.998Z</time></trkpt><trkpt lat="43.2054067" lon="2.0467183"><ele>199.0</ele><time>2026-05-01T16:18:14.997Z</time></trkpt><trkpt lat="43.205295" lon="2.046845"><ele>199.0</ele><time>2026-05-01T16:18:15.998Z</time></trkpt><trkpt lat="43.20519" lon="2.0469667"><ele>199.0</ele><time>2026-05-01T16:18:16.997Z</time></trkpt><trkpt lat="43.2050917" lon="2.0470783"><ele>199.0</ele><time>2026-05-01T16:18:17.998Z</time></trkpt><trkpt lat="43.2049933" lon="2.0471883"><ele>199.0</ele><time>2026-05-01T16:18:18.999Z</time></trkpt><trkpt lat="43.204895" lon="2.0473"><ele>199.0</ele><time>2026-05-01T16:18:19.999Z</time></trkpt><trkpt lat="43.20479" lon="2.0474217"><ele>199.0</ele><time>2026-05-01T16:18:20.998Z</time></trkpt><trkpt lat="43.2046833" lon="2.04754"><ele>199.0</ele><time>2026-05-01T16:18:21.998Z</time></trkpt><trkpt lat="43.20457" lon="2.047665"><ele>198.66666666666666</ele><time>2026-05-01T16:18:23Z</time></trkpt><trkpt lat="43.2044533" lon="2.0477933"><ele>198.33333333333331</ele><time>2026-05-01T16:18:23.997Z</time></trkpt><trkpt lat="43.20433" lon="2.04793"><ele>198.0</ele><time>2026-05-01T16:18:24.999Z</time></trkpt><trkpt lat="43.2042067" lon="2.0480667"><ele>198.0</ele><time>2026-05-01T16:18:26Z</time></trkpt><trkpt lat="43.20408" lon="2.0482133"><ele>198.0</ele><time>2026-05-01T16:18:27Z</time></trkpt><trkpt lat="43.20395" lon="2.0483633"><ele>198.0</ele><time>2026-05-01T16:18:28.001Z</time></trkpt><trkpt lat="43.2038183" lon="2.04851"><ele>197.66666666666669</ele><time>2026-05-01T16:18:28.997Z</time></trkpt><trkpt lat="43.203685" lon="2.0486517"><ele>197.33333333333334</ele><time>2026-05-01T16:18:29.999Z</time></trkpt><trkpt lat="43.2035517" lon="2.0487917"><ele>197.0</ele><time>2026-05-01T16:18:31Z</time></trkpt><trkpt lat="43.2034183" lon="2.04893"><ele>197.0</ele><time>2026-05-01T16:18:32.003Z</time></trkpt><trkpt lat="43.2032817" lon="2.0490683"><ele>197.0</ele><time>2026-05-01T16:18:33.002Z</time></trkpt><trkpt lat="43.2031367" lon="2.0491917"><ele>197.0</ele><time>2026-05-01T16:18:33.998Z</time></trkpt><trkpt lat="43.202985" lon="2.0493"><ele>195.0</ele><time>2026-05-01T16:18:34.998Z</time></trkpt><trkpt lat="43.2028217" lon="2.0493967"><ele>193.0</ele><time>2026-05-01T16:18:36.001Z</time></trkpt><trkpt lat="43.2026533" lon="2.049485"><ele>191.0</ele><time>2026-05-01T16:18:36.998Z</time></trkpt><trkpt lat="43.202485" lon="2.0495783"><ele>189.0</ele><time>2026-05-01T16:18:37.999Z</time></trkpt><trkpt lat="43.2023133" lon="2.0496717"><ele>187.0</ele><time>2026-05-01T16:18:38.998Z</time></trkpt><trkpt lat="43.2021383" lon="2.049765"><ele>185.0</ele><time>2026-05-01T16:18:39.997Z</time></trkpt><trkpt lat="43.2019667" lon="2.0498633"><ele>185.0</ele><time>2026-05-01T16:18:40.998Z</time></trkpt><trkpt lat="43.2017933" lon="2.0499617"><ele>185.0</ele><time>2026-05-01T16:18:42Z</time></trkpt><trkpt lat="43.2016217" lon="2.05006"><ele>185.0</ele><time>2026-05-01T16:18:42.999Z</time></trkpt><trkpt lat="43.201445" lon="2.05016"><ele>185.0</ele><time>2026-05-01T16:18:44.083Z</time></trkpt><trkpt lat="43.20127" lon="2.0502583"><ele>185.0</ele><time>2026-05-01T16:18:44.998Z</time></trkpt><trkpt lat="43.2010917" lon="2.0503567"><ele>185.0</ele><time>2026-05-01T16:18:46.001Z</time></trkpt><trkpt lat="43.2009083" lon="2.0504533"><ele>185.0</ele><time>2026-05-01T16:18:46.999Z</time></trkpt><trkpt lat="43.2007267" lon="2.05055"><ele>185.0</ele><time>2026-05-01T16:18:47.998Z</time></trkpt><trkpt lat="43.2005483" lon="2.05065"><ele>185.0</ele><time>2026-05-01T16:18:48.999Z</time></trkpt><trkpt lat="43.2003717" lon="2.0507483"><ele>186.66666666666666</ele><time>2026-05-01T16:18:49.999Z</time></trkpt><trkpt lat="43.200195" lon="2.0508483"><ele>188.33333333333334</ele><time>2026-05-01T16:18:50.999Z</time></trkpt><trkpt lat="43.2000167" lon="2.0509467"><ele>190.0</ele><time>2026-05-01T16:18:51.997Z</time></trkpt><trkpt lat="43.1998383" lon="2.0510467"><ele>191.66666666666669</ele><time>2026-05-01T16:18:52.998Z</time></trkpt><trkpt lat="43.19966" lon="2.0511433"><ele>193.33333333333334</ele><time>2026-05-01T16:18:53.997Z</time></trkpt><trkpt lat="43.1994867" lon="2.05124"><ele>195.0</ele><time>2026-05-01T16:18:55Z</time></trkpt><trkpt lat="43.1993117" lon="2.051335"><ele>195.0</ele><time>2026-05-01T16:18:55.999Z</time></trkpt><trkpt lat="43.1991433" lon="2.0514317"><ele>195.0</ele><time>2026-05-01T16:18:56.999Z</time></trkpt><trkpt lat="43.19896" lon="2.0515283"><ele>195.0</ele><time>2026-05-01T16:18:58Z</time></trkpt><trkpt lat="43.19879" lon="2.05162"><ele>195.66666666666669</ele><time>2026-05-01T16:18:58.998Z</time></trkpt><trkpt lat="43.198605" lon="2.05172"><ele>196.33333333333334</ele><time>2026-05-01T16:18:59.998Z</time></trkpt><trkpt lat="43.1984217" lon="2.0518233"><ele>197.0</ele><time>2026-05-01T16:19:00.999Z</time></trkpt><trkpt lat="43.1982367" lon="2.0519283"><ele>197.0</ele><time>2026-05-01T16:19:01.997Z</time></trkpt><trkpt lat="43.19805" lon="2.052035"><ele>197.0</ele><time>2026-05-01T16:19:02.998Z</time></trkpt><trkpt lat="43.19786" lon="2.0521417"><ele>197.0</ele><time>2026-05-01T16:19:04Z</time></trkpt><trkpt lat="43.1976717" lon="2.0522483"><ele>197.0</ele><time>2026-05-01T16:19:04.999Z</time></trkpt><trkpt lat="43.19749" lon="2.05235"><ele>197.0</ele><time>2026-05-01T16:19:05.999Z</time></trkpt><trkpt lat="43.1973133" lon="2.05245"><ele>197.0</ele><time>2026-05-01T16:19:06.999Z</time></trkpt><trkpt lat="43.1971417" lon="2.0525467"><ele>197.66666666666669</ele><time>2026-05-01T16:19:07.999Z</time></trkpt><trkpt lat="43.1969717" lon="2.0526433"><ele>198.33333333333331</ele><time>2026-05-01T16:19:08.999Z</time></trkpt><trkpt lat="43.1968017" lon="2.0527367"><ele>199.0</ele><time>2026-05-01T16:19:09.998Z</time></trkpt><trkpt lat="43.19664" lon="2.0528267"><ele>199.66666666666666</ele><time>2026-05-01T16:19:10.998Z</time></trkpt><trkpt lat="43.196475" lon="2.0529217"><ele>200.33333333333331</ele><time>2026-05-01T16:19:11.998Z</time></trkpt><trkpt lat="43.19631" lon="2.053025"><ele>201.0</ele><time>2026-05-01T16:19:12.998Z</time></trkpt><trkpt lat="43.1961417" lon="2.0531233"><ele>201.0</ele><time>2026-05-01T16:19:13.998Z</time></trkpt><trkpt lat="43.1959867" lon="2.0532083"><ele>201.0</ele><time>2026-05-01T16:19:14.998Z</time></trkpt><trkpt lat="43.195825" lon="2.0532967"><ele>201.0</ele><time>2026-05-01T16:19:15.998Z</time></trkpt><trkpt lat="43.1956667" lon="2.05338"><ele>202.0</ele><time>2026-05-01T16:19:16.998Z</time></trkpt><trkpt lat="43.1955033" lon="2.0534733"><ele>203.0</ele><time>2026-05-01T16:19:17.999Z</time></trkpt><trkpt lat="43.19534" lon="2.0535667"><ele>204.0</ele><time>2026-05-01T16:19:18.999Z</time></trkpt><trkpt lat="43.1951783" lon="2.05366"><ele>204.0</ele><time>2026-05-01T16:19:20Z</time></trkpt><trkpt lat="43.19502" lon="2.0537467"><ele>204.0</ele><time>2026-05-01T16:19:21Z</time></trkpt><trkpt lat="43.19486" lon="2.053835"><ele>204.0</ele><time>2026-05-01T16:19:22Z</time></trkpt><trkpt lat="43.1946983" lon="2.0539217"><ele>205.33333333333331</ele><time>2026-05-01T16:19:22.997Z</time></trkpt><trkpt lat="43.1945433" lon="2.0540133"><ele>206.66666666666666</ele><time>2026-05-01T16:19:23.998Z</time></trkpt><trkpt lat="43.1943917" lon="2.0541"><ele>208.0</ele><time>2026-05-01T16:19:24.998Z</time></trkpt><trkpt lat="43.194255" lon="2.0541867"><ele>208.0</ele><time>2026-05-01T16:19:25.999Z</time></trkpt><trkpt lat="43.194135" lon="2.0542717"><ele>208.0</ele><time>2026-05-01T16:19:26.998Z</time></trkpt><trkpt lat="43.1940317" lon="2.0543533"><ele>208.0</ele><time>2026-05-01T16:19:27.999Z</time></trkpt><trkpt lat="43.193945" lon="2.054425"><ele>208.0</ele><time>2026-05-01T16:19:28.998Z</time></trkpt><trkpt lat="43.193865" lon="2.0544833"><ele>208.0</ele><time>2026-05-01T16:19:29.998Z</time></trkpt><trkpt lat="43.193785" lon="2.0545183"><ele>208.60000000000002</ele><time>2026-05-01T16:19:30.998Z</time></trkpt><trkpt lat="43.193705" lon="2.0545183"><ele>209.20000000000002</ele><time>2026-05-01T16:19:31.998Z</time></trkpt><trkpt lat="43.1936117" lon="2.0545"><ele>209.8</ele><time>2026-05-01T16:19:32.999Z</time></trkpt><trkpt lat="43.19351" lon="2.054495"><ele>210.4</ele><time>2026-05-01T16:19:33.999Z</time></trkpt><trkpt lat="43.1933983" lon="2.0545267"><ele>211.0</ele><time>2026-05-01T16:19:34.998Z</time></trkpt><trkpt lat="43.193285" lon="2.0545733"><ele>212.25</ele><time>2026-05-01T16:19:35.998Z</time></trkpt><trkpt lat="43.1931667" lon="2.0546"><ele>213.5</ele><time>2026-05-01T16:19:36.998Z</time></trkpt><trkpt lat="43.1930417" lon="2.05459"><ele>214.75</ele><time>2026-05-01T16:19:37.998Z</time></trkpt><trkpt lat="43.19291" lon="2.054535"><ele>216.0</ele><time>2026-05-01T16:19:39Z</time></trkpt><trkpt lat="43.192775" lon="2.0544567"><ele>216.0</ele><time>2026-05-01T16:19:40Z</time></trkpt><trkpt lat="43.1926317" lon="2.05437"><ele>216.0</ele><time>2026-05-01T16:19:40.998Z</time></trkpt><trkpt lat="43.1924817" lon="2.0542817"><ele>216.0</ele><time>2026-05-01T16:19:41.998Z</time></trkpt><trkpt lat="43.1923267" lon="2.0541833"><ele>216.66666666666669</ele><time>2026-05-01T16:19:42.999Z</time></trkpt><trkpt lat="43.1921867" lon="2.05406"><ele>217.33333333333334</ele><time>2026-05-01T16:19:43.999Z</time></trkpt><trkpt lat="43.1920617" lon="2.053915"><ele>218.0</ele><time>2026-05-01T16:19:44.998Z</time></trkpt><trkpt lat="43.1919483" lon="2.0537433"><ele>218.0</ele><time>2026-05-01T16:19:45.999Z</time></trkpt><trkpt lat="43.1918383" lon="2.05356"><ele>218.0</ele><time>2026-05-01T16:19:46.998Z</time></trkpt><trkpt lat="43.1917283" lon="2.0533783"><ele>218.0</ele><time>2026-05-01T16:19:47.997Z</time></trkpt><trkpt lat="43.1916233" lon="2.0532017"><ele>219.0</ele><time>2026-05-01T16:19:48.998Z</time></trkpt><trkpt lat="43.1915283" lon="2.05303"><ele>220.0</ele><time>2026-05-01T16:19:49.997Z</time></trkpt><trkpt lat="43.1914367" lon="2.0528717"><ele>221.0</ele><time>2026-05-01T16:19:50.999Z</time></trkpt><trkpt lat="43.1913483" lon="2.052715"><ele>222.0</ele><time>2026-05-01T16:19:51.998Z</time></trkpt><trkpt lat="43.1912633" lon="2.052555"><ele>220.66666666666669</ele><time>2026-05-01T16:19:52.998Z</time></trkpt><trkpt lat="43.1911733" lon="2.052385"><ele>219.33333333333334</ele><time>2026-05-01T16:19:53.998Z</time></trkpt><trkpt lat="43.1910783" lon="2.05222"><ele>218.0</ele><time>2026-05-01T16:19:54.999Z</time></trkpt><trkpt lat="43.190975" lon="2.052045"><ele>218.0</ele><time>2026-05-01T16:19:56.001Z</time></trkpt><trkpt lat="43.1908667" lon="2.0518583"><ele>218.0</ele><time>2026-05-01T16:19:57Z</time></trkpt><trkpt lat="43.1907567" lon="2.051665"><ele>218.0</ele><time>2026-05-01T16:19:57.999Z</time></trkpt><trkpt lat="43.1906433" lon="2.0514683"><ele>218.33333333333334</ele><time>2026-05-01T16:19:58.999Z</time></trkpt><trkpt lat="43.1905283" lon="2.0512717"><ele>218.66666666666669</ele><time>2026-05-01T16:19:59.999Z</time></trkpt><trkpt lat="43.19041" lon="2.0510767"><ele>219.0</ele><time>2026-05-01T16:20:00.999Z</time></trkpt><trkpt lat="43.19029" lon="2.0508817"><ele>221.33333333333331</ele><time>2026-05-01T16:20:01.998Z</time></trkpt><trkpt lat="43.1901733" lon="2.0506767"><ele>223.66666666666666</ele><time>2026-05-01T16:20:03Z</time></trkpt><trkpt lat="43.1900567" lon="2.050465"><ele>226.0</ele><time>2026-05-01T16:20:04Z</time></trkpt><trkpt lat="43.1899383" lon="2.05026"><ele>225.0</ele><time>2026-05-01T16:20:04.998Z</time></trkpt><trkpt lat="43.1898183" lon="2.0500533"><ele>224.0</ele><time>2026-05-01T16:20:05.999Z</time></trkpt><trkpt lat="43.1896983" lon="2.0498417"><ele>223.0</ele><time>2026-05-01T16:20:06.998Z</time></trkpt><trkpt lat="43.18958" lon="2.0496317"><ele>223.0</ele><time>2026-05-01T16:20:07.998Z</time></trkpt><trkpt lat="43.18946" lon="2.04943"><ele>223.0</ele><time>2026-05-01T16:20:08.999Z</time></trkpt><trkpt lat="43.1893333" lon="2.04925"><ele>223.0</ele><time>2026-05-01T16:20:10.002Z</time></trkpt><trkpt lat="43.189185" lon="2.0491017"><ele>224.66666666666666</ele><time>2026-05-01T16:20:10.998Z</time></trkpt><trkpt lat="43.1890167" lon="2.0489867"><ele>226.33333333333331</ele><time>2026-05-01T16:20:11.998Z</time></trkpt><trkpt lat="43.1888433" lon="2.048895"><ele>228.0</ele><time>2026-05-01T16:20:12.999Z</time></trkpt><trkpt lat="43.1886617" lon="2.0488217"><ele>228.0</ele><time>2026-05-01T16:20:13.998Z</time></trkpt><trkpt lat="43.1884817" lon="2.0487567"><ele>228.0</ele><time>2026-05-01T16:20:14.998Z</time></trkpt><trkpt lat="43.1883017" lon="2.0486867"><ele>228.0</ele><time>2026-05-01T16:20:15.997Z</time></trkpt><trkpt lat="43.18812" lon="2.0486183"><ele>228.0</ele><time>2026-05-01T16:20:16.997Z</time></trkpt><trkpt lat="43.18794" lon="2.0485483"><ele>228.0</ele><time>2026-05-01T16:20:17.998Z</time></trkpt><trkpt lat="43.18776" lon="2.0484767"><ele>228.0</ele><time>2026-05-01T16:20:18.999Z</time></trkpt><trkpt lat="43.1875833" lon="2.048405"><ele>228.0</ele><time>2026-05-01T16:20:20.001Z</time></trkpt><trkpt lat="43.1874133" lon="2.0483133"><ele>228.0</ele><time>2026-05-01T16:20:20.998Z</time></trkpt><trkpt lat="43.18725" lon="2.0481983"><ele>228.0</ele><time>2026-05-01T16:20:21.998Z</time></trkpt><trkpt lat="43.1870933" lon="2.0480717"><ele>229.66666666666669</ele><time>2026-05-01T16:20:23.002Z</time></trkpt><trkpt lat="43.18694" lon="2.0479367"><ele>231.33333333333334</ele><time>2026-05-01T16:20:23.999Z</time></trkpt><trkpt lat="43.18679" lon="2.0478033"><ele>233.0</ele><time>2026-05-01T16:20:24.999Z</time></trkpt><trkpt lat="43.1866367" lon="2.047695"><ele>234.0</ele><time>2026-05-01T16:20:25.998Z</time></trkpt><trkpt lat="43.1864683" lon="2.0476117"><ele>235.0</ele><time>2026-05-01T16:20:26.998Z</time></trkpt><trkpt lat="43.18629" lon="2.047555"><ele>236.0</ele><time>2026-05-01T16:20:27.998Z</time></trkpt><trkpt lat="43.1861067" lon="2.0475333"><ele>236.0</ele><time>2026-05-01T16:20:28.997Z</time></trkpt><trkpt lat="43.185925" lon="2.0475517"><ele>236.0</ele><time>2026-05-01T16:20:30Z</time></trkpt><trkpt lat="43.1857483" lon="2.0475967"><ele>236.0</ele><time>2026-05-01T16:20:30.998Z</time></trkpt><trkpt lat="43.185575" lon="2.047655"><ele>236.66666666666669</ele><time>2026-05-01T16:20:31.999Z</time></trkpt><trkpt lat="43.185395" lon="2.047695"><ele>237.33333333333331</ele><time>2026-05-01T16:20:32.999Z</time></trkpt><trkpt lat="43.1852217" lon="2.0476917"><ele>238.0</ele><time>2026-05-01T16:20:33.999Z</time></trkpt><trkpt lat="43.1850567" lon="2.0476317"><ele>238.0</ele><time>2026-05-01T16:20:34.998Z</time></trkpt><trkpt lat="43.1849033" lon="2.047525"><ele>238.0</ele><time>2026-05-01T16:20:35.998Z</time></trkpt><trkpt lat="43.184765" lon="2.0473917"><ele>238.0</ele><time>2026-05-01T16:20:36.998Z</time></trkpt><trkpt lat="43.18463" lon="2.0472367"><ele>239.66666666666666</ele><time>2026-05-01T16:20:38Z</time></trkpt><trkpt lat="43.1844917" lon="2.0470733"><ele>241.33333333333331</ele><time>2026-05-01T16:20:38.998Z</time></trkpt><trkpt lat="43.1843567" lon="2.0469067"><ele>243.0</ele><time>2026-05-01T16:20:39.997Z</time></trkpt><trkpt lat="43.18423" lon="2.0467433"><ele>243.33333333333331</ele><time>2026-05-01T16:20:41.003Z</time></trkpt><trkpt lat="43.1840983" lon="2.0465683"><ele>243.66666666666666</ele><time>2026-05-01T16:20:41.999Z</time></trkpt><trkpt lat="43.1839883" lon="2.0463783"><ele>244.0</ele><time>2026-05-01T16:20:43.001Z</time></trkpt><trkpt lat="43.1839067" lon="2.046165"><ele>244.0</ele><time>2026-05-01T16:20:43.997Z</time></trkpt><trkpt lat="43.1838583" lon="2.0459317"><ele>244.0</ele><time>2026-05-01T16:20:44.998Z</time></trkpt><trkpt lat="43.1838317" lon="2.0456933"><ele>244.0</ele><time>2026-05-01T16:20:45.998Z</time></trkpt><trkpt lat="43.183825" lon="2.045445"><ele>244.66666666666666</ele><time>2026-05-01T16:20:46.999Z</time></trkpt><trkpt lat="43.1838367" lon="2.045195"><ele>245.33333333333331</ele><time>2026-05-01T16:20:47.997Z</time></trkpt><trkpt lat="43.183855" lon="2.04495"><ele>246.0</ele><time>2026-05-01T16:20:49Z</time></trkpt><trkpt lat="43.1838883" lon="2.0447117"><ele>246.66666666666669</ele><time>2026-05-01T16:20:50Z</time></trkpt><trkpt lat="43.1839283" lon="2.044475"><ele>247.33333333333334</ele><time>2026-05-01T16:20:50.999Z</time></trkpt><trkpt lat="43.1839783" lon="2.0442467"><ele>248.0</ele><time>2026-05-01T16:20:51.997Z</time></trkpt><trkpt lat="43.1840433" lon="2.0440367"><ele>251.0</ele><time>2026-05-01T16:20:52.998Z</time></trkpt><trkpt lat="43.1841017" lon="2.043825"><ele>254.0</ele><time>2026-05-01T16:20:53.997Z</time></trkpt><trkpt lat="43.1841283" lon="2.0436017"><ele>257.0</ele><time>2026-05-01T16:20:55Z</time></trkpt><trkpt lat="43.1841217" lon="2.0433683"><ele>257.6666666666667</ele><time>2026-05-01T16:20:55.997Z</time></trkpt><trkpt lat="43.18407" lon="2.0431467"><ele>258.3333333333333</ele><time>2026-05-01T16:20:56.999Z</time></trkpt><trkpt lat="43.1839883" lon="2.0429433"><ele>259.0</ele><time>2026-05-01T16:20:58Z</time></trkpt><trkpt lat="43.1838817" lon="2.0427633"><ele>261.0</ele><time>2026-05-01T16:20:58.998Z</time></trkpt><trkpt lat="43.183755" lon="2.04263"><ele>263.0</ele><time>2026-05-01T16:20:59.997Z</time></trkpt><trkpt lat="43.18361" lon="2.042565"><ele>265.0</ele><time>2026-05-01T16:21:00.997Z</time></trkpt><trkpt lat="43.1834417" lon="2.042555"><ele>265.0</ele><time>2026-05-01T16:21:02.084Z</time></trkpt><trkpt lat="43.183285" lon="2.042515"><ele>265.0</ele><time>2026-05-01T16:21:02.997Z</time></trkpt><trkpt lat="43.183145" lon="2.0424433"><ele>265.0</ele><time>2026-05-01T16:21:03.997Z</time></trkpt><trkpt lat="43.183025" lon="2.0423233"><ele>267.0</ele><time>2026-05-01T16:21:04.996Z</time></trkpt><trkpt lat="43.182935" lon="2.0421467"><ele>269.0</ele><time>2026-05-01T16:21:05.997Z</time></trkpt><trkpt lat="43.1828817" lon="2.0419317"><ele>271.0</ele><time>2026-05-01T16:21:06.997Z</time></trkpt><trkpt lat="43.1828217" lon="2.041725"><ele>273.0</ele><time>2026-05-01T16:21:07.996Z</time></trkpt><trkpt lat="43.1827383" lon="2.0415483"><ele>275.0</ele><time>2026-05-01T16:21:08.997Z</time></trkpt><trkpt lat="43.1826283" lon="2.041405"><ele>277.0</ele><time>2026-05-01T16:21:09.997Z</time></trkpt><trkpt lat="43.1824983" lon="2.0413267"><ele>279.0</ele><time>2026-05-01T16:21:10.999Z</time></trkpt><trkpt lat="43.1823433" lon="2.041325"><ele>279.6666666666667</ele><time>2026-05-01T16:21:11.997Z</time></trkpt><trkpt lat="43.1821867" lon="2.0413767"><ele>280.33333333333337</ele><time>2026-05-01T16:21:12.997Z</time></trkpt><trkpt lat="43.1820367" lon="2.0414383"><ele>281.0</ele><time>2026-05-01T16:21:14.003Z</time></trkpt><trkpt lat="43.18187" lon="2.0414767"><ele>281.0</ele><time>2026-05-01T16:21:14.997Z</time></trkpt><trkpt lat="43.1816917" lon="2.0414817"><ele>281.0</ele><time>2026-05-01T16:21:15.997Z</time></trkpt><trkpt lat="43.181515" lon="2.0414433"><ele>281.0</ele><time>2026-05-01T16:21:16.997Z</time></trkpt><trkpt lat="43.1813367" lon="2.0413833"><ele>281.0</ele><time>2026-05-01T16:21:17.998Z</time></trkpt><trkpt lat="43.181155" lon="2.0413133"><ele>281.0</ele><time>2026-05-01T16:21:19.002Z</time></trkpt><trkpt lat="43.18098" lon="2.0412383"><ele>281.0</ele><time>2026-05-01T16:21:19.999Z</time></trkpt><trkpt lat="43.1808083" lon="2.04117"><ele>281.0</ele><time>2026-05-01T16:21:20.997Z</time></trkpt><trkpt lat="43.1806383" lon="2.04111"><ele>281.0</ele><time>2026-05-01T16:21:21.997Z</time></trkpt><trkpt lat="43.1804767" lon="2.0410417"><ele>281.0</ele><time>2026-05-01T16:21:22.998Z</time></trkpt><trkpt lat="43.1803233" lon="2.04096"><ele>281.0</ele><time>2026-05-01T16:21:23.997Z</time></trkpt><trkpt lat="43.180185" lon="2.0408533"><ele>281.0</ele><time>2026-05-01T16:21:24.998Z</time></trkpt><trkpt lat="43.1800733" lon="2.04071"><ele>281.0</ele><time>2026-05-01T16:21:25.997Z</time></trkpt><trkpt lat="43.1800183" lon="2.0405017"><ele>283.75</ele><time>2026-05-01T16:21:26.998Z</time></trkpt><trkpt lat="43.1800083" lon="2.04029"><ele>286.5</ele><time>2026-05-01T16:21:27.997Z</time></trkpt><trkpt lat="43.180035" lon="2.04009"><ele>289.25</ele><time>2026-05-01T16:21:28.997Z</time></trkpt><trkpt lat="43.1801033" lon="2.0399133"><ele>292.0</ele><time>2026-05-01T16:21:29.997Z</time></trkpt><trkpt lat="43.1802267" lon="2.0397717"><ele>294.3333333333333</ele><time>2026-05-01T16:21:31.006Z</time></trkpt><trkpt lat="43.1803667" lon="2.03967"><ele>296.6666666666667</ele><time>2026-05-01T16:21:31.996Z</time></trkpt><trkpt lat="43.1805333" lon="2.0395967"><ele>299.0</ele><time>2026-05-01T16:21:32.997Z</time></trkpt><trkpt lat="43.1807017" lon="2.0395167"><ele>299.0</ele><time>2026-05-01T16:21:33.996Z</time></trkpt><trkpt lat="43.1808683" lon="2.03942"><ele>299.0</ele><time>2026-05-01T16:21:34.997Z</time></trkpt><trkpt lat="43.181035" lon="2.0393267"><ele>299.0</ele><time>2026-05-01T16:21:35.999Z</time></trkpt><trkpt lat="43.1812067" lon="2.039245"><ele>299.0</ele><time>2026-05-01T16:21:37Z</time></trkpt><trkpt lat="43.1813783" lon="2.0391683"><ele>299.0</ele><time>2026-05-01T16:21:38Z</time></trkpt><trkpt lat="43.1815567" lon="2.0390883"><ele>299.0</ele><time>2026-05-01T16:21:38.997Z</time></trkpt><trkpt lat="43.181735" lon="2.0390217"><ele>302.6666666666667</ele><time>2026-05-01T16:21:39.997Z</time></trkpt><trkpt lat="43.181915" lon="2.038945"><ele>306.3333333333333</ele><time>2026-05-01T16:21:40.997Z</time></trkpt><trkpt lat="43.1821017" lon="2.0388633"><ele>310.0</ele><time>2026-05-01T16:21:41.998Z</time></trkpt><trkpt lat="43.1822833" lon="2.03878"><ele>309.0</ele><time>2026-05-01T16:21:42.997Z</time></trkpt><trkpt lat="43.182465" lon="2.0387033"><ele>308.0</ele><time>2026-05-01T16:21:43.998Z</time></trkpt><trkpt lat="43.182645" lon="2.03863"><ele>307.0</ele><time>2026-05-01T16:21:44.997Z</time></trkpt><trkpt lat="43.1828233" lon="2.0385633"><ele>307.0</ele><time>2026-05-01T16:21:45.997Z</time></trkpt><trkpt lat="43.1830017" lon="2.0385"><ele>307.0</ele><time>2026-05-01T16:21:46.997Z</time></trkpt><trkpt lat="43.1831717" lon="2.0384333"><ele>307.0</ele><time>2026-05-01T16:21:47.998Z</time></trkpt><trkpt lat="43.18334" lon="2.0383467"><ele>311.66666666666663</ele><time>2026-05-01T16:21:48.997Z</time></trkpt><trkpt lat="43.1834983" lon="2.0382183"><ele>316.3333333333333</ele><time>2026-05-01T16:21:49.997Z</time></trkpt><trkpt lat="43.1836417" lon="2.0380567"><ele>321.0</ele><time>2026-05-01T16:21:51Z</time></trkpt><trkpt lat="43.1837733" lon="2.0378683"><ele>321.0</ele><time>2026-05-01T16:21:51.997Z</time></trkpt><trkpt lat="43.1838983" lon="2.0376767"><ele>321.0</ele><time>2026-05-01T16:21:52.997Z</time></trkpt><trkpt lat="43.1840267" lon="2.0374783"><ele>321.0</ele><time>2026-05-01T16:21:53.996Z</time></trkpt><trkpt lat="43.1841533" lon="2.0372867"><ele>323.0</ele><time>2026-05-01T16:21:54.997Z</time></trkpt><trkpt lat="43.1842817" lon="2.0371"><ele>325.0</ele><time>2026-05-01T16:21:55.997Z</time></trkpt><trkpt lat="43.184405" lon="2.0369117"><ele>327.0</ele><time>2026-05-01T16:21:56.999Z</time></trkpt><trkpt lat="43.1845317" lon="2.0367383"><ele>327.6666666666667</ele><time>2026-05-01T16:21:57.998Z</time></trkpt><trkpt lat="43.184665" lon="2.0366017"><ele>328.33333333333337</ele><time>2026-05-01T16:21:58.997Z</time></trkpt><trkpt lat="43.1848033" lon="2.0365"><ele>329.0</ele><time>2026-05-01T16:21:59.998Z</time></trkpt><trkpt lat="43.1849483" lon="2.0364383"><ele>329.0</ele><time>2026-05-01T16:22:00.998Z</time></trkpt><trkpt lat="43.18509" lon="2.0363733"><ele>329.0</ele><time>2026-05-01T16:22:01.997Z</time></trkpt><trkpt lat="43.1852083" lon="2.036265"><ele>329.0</ele><time>2026-05-01T16:22:02.997Z</time></trkpt><trkpt lat="43.1852967" lon="2.0361217"><ele>329.0</ele><time>2026-05-01T16:22:03.997Z</time></trkpt><trkpt lat="43.1853333" lon="2.0359517"><ele>330.0</ele><time>2026-05-01T16:22:04.997Z</time></trkpt><trkpt lat="43.1853167" lon="2.0357683"><ele>331.0</ele><time>2026-05-01T16:22:05.996Z</time></trkpt><trkpt lat="43.1852833" lon="2.0356"><ele>332.0</ele><time>2026-05-01T16:22:06.997Z</time></trkpt><trkpt lat="43.1852567" lon="2.03544"><ele>333.0</ele><time>2026-05-01T16:22:07.998Z</time></trkpt><trkpt lat="43.1852383" lon="2.0352817"><ele>333.0</ele><time>2026-05-01T16:22:08.999Z</time></trkpt><trkpt lat="43.18522" lon="2.0351233"><ele>333.0</ele><time>2026-05-01T16:22:09.997Z</time></trkpt><trkpt lat="43.1852033" lon="2.0349667"><ele>333.0</ele><time>2026-05-01T16:22:10.998Z</time></trkpt><trkpt lat="43.1851867" lon="2.03482"><ele>333.0</ele><time>2026-05-01T16:22:11.998Z</time></trkpt><trkpt lat="43.185165" lon="2.0346867"><ele>333.0</ele><time>2026-05-01T16:22:12.997Z</time></trkpt><trkpt lat="43.1851283" lon="2.03457"><ele>332.79999999999995</ele><time>2026-05-01T16:22:13.997Z</time></trkpt><trkpt lat="43.1850767" lon="2.0344683"><ele>332.6</ele><time>2026-05-01T16:22:14.997Z</time></trkpt><trkpt lat="43.1850133" lon="2.034395"><ele>332.4</ele><time>2026-05-01T16:22:15.997Z</time></trkpt><trkpt lat="43.18493" lon="2.0343517"><ele>332.20000000000005</ele><time>2026-05-01T16:22:16.997Z</time></trkpt><trkpt lat="43.18484" lon="2.0343133"><ele>332.0</ele><time>2026-05-01T16:22:17.998Z</time></trkpt><trkpt lat="43.1847433" lon="2.034285"><ele>332.0</ele><time>2026-05-01T16:22:18.998Z</time></trkpt><trkpt lat="43.1846467" lon="2.03426"><ele>332.0</ele><time>2026-05-01T16:22:19.997Z</time></trkpt><trkpt lat="43.1845417" lon="2.034235"><ele>332.0</ele><time>2026-05-01T16:22:20.999Z</time></trkpt><trkpt lat="43.1844367" lon="2.0342117"><ele>332.0</ele><time>2026-05-01T16:22:21.999Z</time></trkpt><trkpt lat="43.1843283" lon="2.0341967"><ele>332.0</ele><time>2026-05-01T16:22:22.997Z</time></trkpt><trkpt lat="43.1842217" lon="2.0341783"><ele>332.0</ele><time>2026-05-01T16:22:23.997Z</time></trkpt><trkpt lat="43.18411" lon="2.0341717"><ele>332.0</ele><time>2026-05-01T16:22:25.001Z</time></trkpt><trkpt lat="43.1839967" lon="2.03418"><ele>332.0</ele><time>2026-05-01T16:22:26Z</time></trkpt><trkpt lat="43.1838867" lon="2.0341783"><ele>332.0</ele><time>2026-05-01T16:22:26.997Z</time></trkpt><trkpt lat="43.1837767" lon="2.0341817"><ele>332.0</ele><time>2026-05-01T16:22:27.998Z</time></trkpt><trkpt lat="43.1836683" lon="2.034185"><ele>333.40000000000003</ele><time>2026-05-01T16:22:28.997Z</time></trkpt><trkpt lat="43.1835617" lon="2.0341817"><ele>334.8</ele><time>2026-05-01T16:22:29.999Z</time></trkpt><trkpt lat="43.1834517" lon="2.0341683"><ele>336.2</ele><time>2026-05-01T16:22:30.997Z</time></trkpt><trkpt lat="43.183345" lon="2.0341417"><ele>337.6</ele><time>2026-05-01T16:22:31.998Z</time></trkpt><trkpt lat="43.1832417" lon="2.0340933"><ele>339.0</ele><time>2026-05-01T16:22:32.999Z</time></trkpt><trkpt lat="43.1831533" lon="2.03402"><ele>341.2</ele><time>2026-05-01T16:22:33.999Z</time></trkpt><trkpt lat="43.1830733" lon="2.03392"><ele>343.4</ele><time>2026-05-01T16:22:35Z</time></trkpt><trkpt lat="43.1830333" lon="2.0338"><ele>345.6</ele><time>2026-05-01T16:22:35.997Z</time></trkpt><trkpt lat="43.183" lon="2.0336583"><ele>347.8</ele><time>2026-05-01T16:22:36.997Z</time></trkpt><trkpt lat="43.1829733" lon="2.033495"><ele>350.0</ele><time>2026-05-01T16:22:37.998Z</time></trkpt><trkpt lat="43.1829517" lon="2.0333183"><ele>349.5</ele><time>2026-05-01T16:22:38.998Z</time></trkpt><trkpt lat="43.1829367" lon="2.0331433"><ele>349.0</ele><time>2026-05-01T16:22:39.999Z</time></trkpt><trkpt lat="43.1829283" lon="2.0329767"><ele>348.5</ele><time>2026-05-01T16:22:40.997Z</time></trkpt><trkpt lat="43.1829083" lon="2.0328067"><ele>348.0</ele><time>2026-05-01T16:22:41.997Z</time></trkpt><trkpt lat="43.182875" lon="2.0326367"><ele>348.0</ele><time>2026-05-01T16:22:42.997Z</time></trkpt><trkpt lat="43.182835" lon="2.0324683"><ele>348.0</ele><time>2026-05-01T16:22:43.997Z</time></trkpt><trkpt lat="43.18279" lon="2.0323083"><ele>348.0</ele><time>2026-05-01T16:22:44.997Z</time></trkpt><trkpt lat="43.1827367" lon="2.03217"><ele>348.0</ele><time>2026-05-01T16:22:45.997Z</time></trkpt><trkpt lat="43.182685" lon="2.032045"><ele>348.0</ele><time>2026-05-01T16:22:46.997Z</time></trkpt><trkpt lat="43.1826383" lon="2.0319333"><ele>348.0</ele><time>2026-05-01T16:22:47.998Z</time></trkpt><trkpt lat="43.1825983" lon="2.0318267"><ele>348.0</ele><time>2026-05-01T16:22:48.998Z</time></trkpt><trkpt lat="43.1825633" lon="2.0317383"><ele>348.0</ele><time>2026-05-01T16:22:49.998Z</time></trkpt><trkpt lat="43.18252" lon="2.0316633"><ele>348.0</ele><time>2026-05-01T16:22:50.997Z</time></trkpt><trkpt lat="43.1824083" lon="2.031625"><ele>348.0</ele><time>2026-05-01T16:22:52.998Z</time></trkpt><trkpt lat="43.18235" lon="2.0316717"><ele>348.0</ele><time>2026-05-01T16:22:53.997Z</time></trkpt><trkpt lat="43.1823333" lon="2.031795"><ele>348.0</ele><time>2026-05-01T16:22:54.997Z</time></trkpt><trkpt lat="43.18233" lon="2.0319033"><ele>348.0</ele><time>2026-05-01T16:22:55.997Z</time></trkpt><trkpt lat="43.1823767" lon="2.0320417"><ele>348.0</ele><time>2026-05-01T16:22:56.997Z</time></trkpt><trkpt lat="43.18244" lon="2.032165"><ele>348.0</ele><time>2026-05-01T16:22:57.997Z</time></trkpt><trkpt lat="43.1824933" lon="2.0322883"><ele>348.0</ele><time>2026-05-01T16:22:58.996Z</time></trkpt><trkpt lat="43.1825283" lon="2.0324383"><ele>348.0</ele><time>2026-05-01T16:22:59.998Z</time></trkpt><trkpt lat="43.1825467" lon="2.03261"><ele>348.0</ele><time>2026-05-01T16:23:00.997Z</time></trkpt><trkpt lat="43.1825417" lon="2.0327917"><ele>348.0</ele><time>2026-05-01T16:23:01.997Z</time></trkpt><trkpt lat="43.182515" lon="2.0329717"><ele>348.0</ele><time>2026-05-01T16:23:03Z</time></trkpt><trkpt lat="43.18248" lon="2.0331517"><ele>348.0</ele><time>2026-05-01T16:23:03.998Z</time></trkpt><trkpt lat="43.1824333" lon="2.0333333"><ele>348.0</ele><time>2026-05-01T16:23:04.997Z</time></trkpt><trkpt lat="43.1823833" lon="2.033525"><ele>348.0</ele><time>2026-05-01T16:23:06.001Z</time></trkpt><trkpt lat="43.1823283" lon="2.0337083"><ele>349.0</ele><time>2026-05-01T16:23:06.998Z</time></trkpt><trkpt lat="43.18226" lon="2.0338883"><ele>350.0</ele><time>2026-05-01T16:23:07.998Z</time></trkpt><trkpt lat="43.1821833" lon="2.0340717"><ele>351.0</ele><time>2026-05-01T16:23:08.998Z</time></trkpt><trkpt lat="43.1821017" lon="2.0342483"><ele>352.0</ele><time>2026-05-01T16:23:09.998Z</time></trkpt><trkpt lat="43.1820117" lon="2.0344267"><ele>353.0</ele><time>2026-05-01T16:23:10.998Z</time></trkpt><trkpt lat="43.18191" lon="2.0346083"><ele>354.0</ele><time>2026-05-01T16:23:11.998Z</time></trkpt><trkpt lat="43.1818033" lon="2.0347917"><ele>354.0</ele><time>2026-05-01T16:23:12.998Z</time></trkpt><trkpt lat="43.1816933" lon="2.03497"><ele>354.0</ele><time>2026-05-01T16:23:13.998Z</time></trkpt><trkpt lat="43.181585" lon="2.03514"><ele>354.0</ele><time>2026-05-01T16:23:14.999Z</time></trkpt><trkpt lat="43.181475" lon="2.0353067"><ele>354.3333333333333</ele><time>2026-05-01T16:23:15.998Z</time></trkpt><trkpt lat="43.1813617" lon="2.035475"><ele>354.66666666666663</ele><time>2026-05-01T16:23:16.998Z</time></trkpt><trkpt lat="43.1812533" lon="2.0356383"><ele>355.0</ele><time>2026-05-01T16:23:17.997Z</time></trkpt><trkpt lat="43.18115" lon="2.0358083"><ele>355.66666666666663</ele><time>2026-05-01T16:23:18.996Z</time></trkpt><trkpt lat="43.181045" lon="2.0359783"><ele>356.3333333333333</ele><time>2026-05-01T16:23:19.998Z</time></trkpt><trkpt lat="43.18094" lon="2.03615"><ele>357.0</ele><time>2026-05-01T16:23:20.998Z</time></trkpt><trkpt lat="43.1808367" lon="2.0363133"><ele>357.0</ele><time>2026-05-01T16:23:21.999Z</time></trkpt><trkpt lat="43.180735" lon="2.03647"><ele>357.0</ele><time>2026-05-01T16:23:22.998Z</time></trkpt><trkpt lat="43.1806283" lon="2.0366067"><ele>357.0</ele><time>2026-05-01T16:23:23.998Z</time></trkpt><trkpt lat="43.1805217" lon="2.0367217"><ele>357.0</ele><time>2026-05-01T16:23:25.003Z</time></trkpt><trkpt lat="43.1804017" lon="2.0368167"><ele>357.5</ele><time>2026-05-01T16:23:25.997Z</time></trkpt><trkpt lat="43.1802717" lon="2.0368917"><ele>358.0</ele><time>2026-05-01T16:23:26.998Z</time></trkpt><trkpt lat="43.1801267" lon="2.0369417"><ele>358.5</ele><time>2026-05-01T16:23:28.001Z</time></trkpt><trkpt lat="43.179975" lon="2.0369817"><ele>359.0</ele><time>2026-05-01T16:23:28.998Z</time></trkpt><trkpt lat="43.17982" lon="2.0370017"><ele>360.33333333333337</ele><time>2026-05-01T16:23:29.998Z</time></trkpt><trkpt lat="43.1796633" lon="2.0369917"><ele>361.6666666666667</ele><time>2026-05-01T16:23:30.998Z</time></trkpt><trkpt lat="43.1795083" lon="2.036975"><ele>363.0</ele><time>2026-05-01T16:23:32Z</time></trkpt><trkpt lat="43.17935" lon="2.03696"><ele>363.0</ele><time>2026-05-01T16:23:32.999Z</time></trkpt><trkpt lat="43.1791917" lon="2.0369483"><ele>363.0</ele><time>2026-05-01T16:23:34Z</time></trkpt><trkpt lat="43.1790333" lon="2.03693"><ele>363.0</ele><time>2026-05-01T16:23:34.997Z</time></trkpt><trkpt lat="43.178875" lon="2.0369"><ele>362.6666666666667</ele><time>2026-05-01T16:23:35.999Z</time></trkpt><trkpt lat="43.178715" lon="2.0368633"><ele>362.33333333333337</ele><time>2026-05-01T16:23:36.998Z</time></trkpt><trkpt lat="43.1785517" lon="2.0368083"><ele>362.0</ele><time>2026-05-01T16:23:37.998Z</time></trkpt><trkpt lat="43.1783967" lon="2.0367167"><ele>363.33333333333337</ele><time>2026-05-01T16:23:38.998Z</time></trkpt><trkpt lat="43.178245" lon="2.0366133"><ele>364.6666666666667</ele><time>2026-05-01T16:23:39.997Z</time></trkpt><trkpt lat="43.1780933" lon="2.0365167"><ele>366.0</ele><time>2026-05-01T16:23:40.998Z</time></trkpt><trkpt lat="43.1779317" lon="2.0364567"><ele>366.3333333333333</ele><time>2026-05-01T16:23:42Z</time></trkpt><trkpt lat="43.1777617" lon="2.03644"><ele>366.66666666666663</ele><time>2026-05-01T16:23:42.997Z</time></trkpt><trkpt lat="43.1775933" lon="2.0364517"><ele>367.0</ele><time>2026-05-01T16:23:43.998Z</time></trkpt><trkpt lat="43.1774283" lon="2.0364583"><ele>366.0</ele><time>2026-05-01T16:23:44.998Z</time></trkpt><trkpt lat="43.1772567" lon="2.03647"><ele>365.0</ele><time>2026-05-01T16:23:45.997Z</time></trkpt><trkpt lat="43.1770983" lon="2.0365133"><ele>364.0</ele><time>2026-05-01T16:23:46.997Z</time></trkpt><trkpt lat="43.1769433" lon="2.036595"><ele>363.66666666666663</ele><time>2026-05-01T16:23:47.997Z</time></trkpt><trkpt lat="43.176795" lon="2.03671"><ele>363.3333333333333</ele><time>2026-05-01T16:23:48.997Z</time></trkpt><trkpt lat="43.17665" lon="2.0368367"><ele>363.0</ele><time>2026-05-01T16:23:49.998Z</time></trkpt><trkpt lat="43.1765167" lon="2.0369667"><ele>363.0</ele><time>2026-05-01T16:23:50.999Z</time></trkpt><trkpt lat="43.1763667" lon="2.0370783"><ele>363.0</ele><time>2026-05-01T16:23:52Z</time></trkpt><trkpt lat="43.1762117" lon="2.037155"><ele>363.0</ele><time>2026-05-01T16:23:52.997Z</time></trkpt><trkpt lat="43.1760467" lon="2.0372167"><ele>363.0</ele><time>2026-05-01T16:23:53.998Z</time></trkpt><trkpt lat="43.1758683" lon="2.0372583"><ele>363.0</ele><time>2026-05-01T16:23:54.997Z</time></trkpt><trkpt lat="43.17569" lon="2.0372933"><ele>363.0</ele><time>2026-05-01T16:23:55.997Z</time></trkpt><trkpt lat="43.1755233" lon="2.037345"><ele>362.75</ele><time>2026-05-01T16:23:56.997Z</time></trkpt><trkpt lat="43.1753683" lon="2.0374067"><ele>362.5</ele><time>2026-05-01T16:23:57.998Z</time></trkpt><trkpt lat="43.1752233" lon="2.03746"><ele>362.25</ele><time>2026-05-01T16:23:58.997Z</time></trkpt><trkpt lat="43.1750883" lon="2.03748"><ele>362.0</ele><time>2026-05-01T16:23:59.997Z</time></trkpt><trkpt lat="43.174955" lon="2.037455"><ele>361.75</ele><time>2026-05-01T16:24:00.997Z</time></trkpt><trkpt lat="43.1748333" lon="2.03739"><ele>361.5</ele><time>2026-05-01T16:24:01.999Z</time></trkpt><trkpt lat="43.1747167" lon="2.0372817"><ele>361.25</ele><time>2026-05-01T16:24:02.998Z</time></trkpt><trkpt lat="43.1746033" lon="2.0371383"><ele>361.0</ele><time>2026-05-01T16:24:03.997Z</time></trkpt><trkpt lat="43.1744833" lon="2.0370033"><ele>361.0</ele><time>2026-05-01T16:24:04.997Z</time></trkpt><trkpt lat="43.17435" lon="2.0369033"><ele>361.0</ele><time>2026-05-01T16:24:05.998Z</time></trkpt><trkpt lat="43.1742033" lon="2.03682"><ele>361.0</ele><time>2026-05-01T16:24:06.999Z</time></trkpt><trkpt lat="43.1740433" lon="2.03676"><ele>361.0</ele><time>2026-05-01T16:24:07.998Z</time></trkpt><trkpt lat="43.1738733" lon="2.0367367"><ele>361.0</ele><time>2026-05-01T16:24:08.998Z</time></trkpt><trkpt lat="43.1736983" lon="2.0367467"><ele>361.0</ele><time>2026-05-01T16:24:09.997Z</time></trkpt><trkpt lat="43.17353" lon="2.036775"><ele>361.0</ele><time>2026-05-01T16:24:10.998Z</time></trkpt><trkpt lat="43.1733667" lon="2.0368117"><ele>361.0</ele><time>2026-05-01T16:24:11.998Z</time></trkpt><trkpt lat="43.1732067" lon="2.0368517"><ele>361.0</ele><time>2026-05-01T16:24:12.997Z</time></trkpt><trkpt lat="43.1730467" lon="2.036895"><ele>362.66666666666663</ele><time>2026-05-01T16:24:13.997Z</time></trkpt><trkpt lat="43.1728867" lon="2.036935"><ele>364.3333333333333</ele><time>2026-05-01T16:24:14.999Z</time></trkpt><trkpt lat="43.17273" lon="2.036975"><ele>366.0</ele><time>2026-05-01T16:24:16.002Z</time></trkpt><trkpt lat="43.1725733" lon="2.0370167"><ele>366.0</ele><time>2026-05-01T16:24:16.997Z</time></trkpt><trkpt lat="43.1724133" lon="2.0370517"><ele>366.0</ele><time>2026-05-01T16:24:17.998Z</time></trkpt><trkpt lat="43.1722567" lon="2.0370883"><ele>366.0</ele><time>2026-05-01T16:24:18.997Z</time></trkpt><trkpt lat="43.17211" lon="2.037125"><ele>367.0</ele><time>2026-05-01T16:24:20Z</time></trkpt><trkpt lat="43.1719783" lon="2.0371667"><ele>368.0</ele><time>2026-05-01T16:24:20.997Z</time></trkpt><trkpt lat="43.1718617" lon="2.0372233"><ele>369.0</ele><time>2026-05-01T16:24:21.997Z</time></trkpt><trkpt lat="43.171755" lon="2.0373"><ele>370.0</ele><time>2026-05-01T16:24:22.997Z</time></trkpt><trkpt lat="43.1716567" lon="2.0374033"><ele>369.75</ele><time>2026-05-01T16:24:23.997Z</time></trkpt><trkpt lat="43.1715617" lon="2.03753"><ele>369.5</ele><time>2026-05-01T16:24:24.998Z</time></trkpt><trkpt lat="43.1714667" lon="2.0376733"><ele>369.25</ele><time>2026-05-01T16:24:25.997Z</time></trkpt><trkpt lat="43.1713667" lon="2.0378283"><ele>369.0</ele><time>2026-05-01T16:24:27Z</time></trkpt><trkpt lat="43.17126" lon="2.03799"><ele>367.0</ele><time>2026-05-01T16:24:27.997Z</time></trkpt><trkpt lat="43.1711517" lon="2.0381533"><ele>365.0</ele><time>2026-05-01T16:24:28.997Z</time></trkpt><trkpt lat="43.1710417" lon="2.0383167"><ele>363.0</ele><time>2026-05-01T16:24:29.997Z</time></trkpt><trkpt lat="43.1709333" lon="2.0384867"><ele>363.0</ele><time>2026-05-01T16:24:30.999Z</time></trkpt><trkpt lat="43.1708217" lon="2.038655"><ele>363.0</ele><time>2026-05-01T16:24:31.997Z</time></trkpt><trkpt lat="43.17071" lon="2.0388317"><ele>363.0</ele><time>2026-05-01T16:24:32.997Z</time></trkpt><trkpt lat="43.1705967" lon="2.03901"><ele>361.0</ele><time>2026-05-01T16:24:33.997Z</time></trkpt><trkpt lat="43.1704783" lon="2.0391917"><ele>359.0</ele><time>2026-05-01T16:24:35.003Z</time></trkpt><trkpt lat="43.17036" lon="2.03938"><ele>357.0</ele><time>2026-05-01T16:24:35.997Z</time></trkpt><trkpt lat="43.17024" lon="2.0395717"><ele>357.0</ele><time>2026-05-01T16:24:36.997Z</time></trkpt><trkpt lat="43.17012" lon="2.0397617"><ele>357.0</ele><time>2026-05-01T16:24:37.997Z</time></trkpt><trkpt lat="43.169995" lon="2.0399533"><ele>357.0</ele><time>2026-05-01T16:24:38.998Z</time></trkpt><trkpt lat="43.16987" lon="2.0401417"><ele>354.0</ele><time>2026-05-01T16:24:39.997Z</time></trkpt><trkpt lat="43.1697467" lon="2.0403317"><ele>351.0</ele><time>2026-05-01T16:24:41.001Z</time></trkpt><trkpt lat="43.169625" lon="2.0405217"><ele>348.0</ele><time>2026-05-01T16:24:42Z</time></trkpt><trkpt lat="43.1695017" lon="2.0407117"><ele>348.3333333333333</ele><time>2026-05-01T16:24:43.006Z</time></trkpt><trkpt lat="43.1693767" lon="2.0409"><ele>348.66666666666663</ele><time>2026-05-01T16:24:43.999Z</time></trkpt><trkpt lat="43.1692533" lon="2.0410933"><ele>349.0</ele><time>2026-05-01T16:24:44.999Z</time></trkpt><trkpt lat="43.1691317" lon="2.0412867"><ele>347.66666666666663</ele><time>2026-05-01T16:24:45.999Z</time></trkpt><trkpt lat="43.1690017" lon="2.0414767"><ele>346.3333333333333</ele><time>2026-05-01T16:24:46.998Z</time></trkpt><trkpt lat="43.1688633" lon="2.04165"><ele>345.0</ele><time>2026-05-01T16:24:47.997Z</time></trkpt><trkpt lat="43.1687117" lon="2.0418067"><ele>345.0</ele><time>2026-05-01T16:24:48.998Z</time></trkpt><trkpt lat="43.1685533" lon="2.041955"><ele>345.0</ele><time>2026-05-01T16:24:49.998Z</time></trkpt><trkpt lat="43.1683917" lon="2.042105"><ele>345.0</ele><time>2026-05-01T16:24:51.001Z</time></trkpt><trkpt lat="43.16823" lon="2.0422583"><ele>344.3333333333333</ele><time>2026-05-01T16:24:51.997Z</time></trkpt><trkpt lat="43.16807" lon="2.0424083"><ele>343.66666666666663</ele><time>2026-05-01T16:24:52.997Z</time></trkpt><trkpt lat="43.1679033" lon="2.04256"><ele>343.0</ele><time>2026-05-01T16:24:53.997Z</time></trkpt><trkpt lat="43.1677433" lon="2.0427117"><ele>343.0</ele><time>2026-05-01T16:24:55Z</time></trkpt><trkpt lat="43.167585" lon="2.0428617"><ele>343.0</ele><time>2026-05-01T16:24:55.998Z</time></trkpt><trkpt lat="43.1674267" lon="2.0430117"><ele>343.0</ele><time>2026-05-01T16:24:56.999Z</time></trkpt><trkpt lat="43.1672683" lon="2.04316"><ele>342.66666666666663</ele><time>2026-05-01T16:24:57.998Z</time></trkpt><trkpt lat="43.1671133" lon="2.04331"><ele>342.3333333333333</ele><time>2026-05-01T16:24:58.999Z</time></trkpt><trkpt lat="43.1669617" lon="2.04346"><ele>342.0</ele><time>2026-05-01T16:24:59.997Z</time></trkpt><trkpt lat="43.1668067" lon="2.0436083"><ele>342.0</ele><time>2026-05-01T16:25:00.998Z</time></trkpt><trkpt lat="43.166655" lon="2.04376"><ele>342.0</ele><time>2026-05-01T16:25:01.998Z</time></trkpt><trkpt lat="43.1665033" lon="2.0439133"><ele>342.0</ele><time>2026-05-01T16:25:02.998Z</time></trkpt><trkpt lat="43.1663517" lon="2.044065"><ele>341.6666666666667</ele><time>2026-05-01T16:25:03.997Z</time></trkpt><trkpt lat="43.1662017" lon="2.04422"><ele>341.33333333333337</ele><time>2026-05-01T16:25:04.998Z</time></trkpt><trkpt lat="43.16605" lon="2.0443733"><ele>341.0</ele><time>2026-05-01T16:25:05.997Z</time></trkpt><trkpt lat="43.1659" lon="2.0445217"><ele>341.0</ele><time>2026-05-01T16:25:06.998Z</time></trkpt><trkpt lat="43.1657467" lon="2.0446667"><ele>341.0</ele><time>2026-05-01T16:25:07.998Z</time></trkpt><trkpt lat="43.16559" lon="2.044805"><ele>341.0</ele><time>2026-05-01T16:25:08.998Z</time></trkpt><trkpt lat="43.16543" lon="2.0449333"><ele>341.33333333333337</ele><time>2026-05-01T16:25:09.997Z</time></trkpt><trkpt lat="43.1652733" lon="2.0450533"><ele>341.6666666666667</ele><time>2026-05-01T16:25:10.997Z</time></trkpt><trkpt lat="43.1651167" lon="2.0451767"><ele>342.0</ele><time>2026-05-01T16:25:11.998Z</time></trkpt><trkpt lat="43.16496" lon="2.0452967"><ele>343.3333333333333</ele><time>2026-05-01T16:25:12.998Z</time></trkpt><trkpt lat="43.1648083" lon="2.045415"><ele>344.66666666666663</ele><time>2026-05-01T16:25:13.998Z</time></trkpt><trkpt lat="43.1646583" lon="2.0455317"><ele>346.0</ele><time>2026-05-01T16:25:14.997Z</time></trkpt><trkpt lat="43.1645083" lon="2.0456483"><ele>346.0</ele><time>2026-05-01T16:25:15.997Z</time></trkpt><trkpt lat="43.164365" lon="2.0457583"><ele>346.0</ele><time>2026-05-01T16:25:16.997Z</time></trkpt><trkpt lat="43.1642283" lon="2.0458633"><ele>346.0</ele><time>2026-05-01T16:25:17.997Z</time></trkpt><trkpt lat="43.164105" lon="2.045955"><ele>344.0</ele><time>2026-05-01T16:25:18.998Z</time></trkpt><trkpt lat="43.16399" lon="2.0460283"><ele>342.0</ele><time>2026-05-01T16:25:19.998Z</time></trkpt><trkpt lat="43.163875" lon="2.0460867"><ele>340.0</ele><time>2026-05-01T16:25:20.997Z</time></trkpt><trkpt lat="43.16375" lon="2.0461333"><ele>338.0</ele><time>2026-05-01T16:25:21.999Z</time></trkpt><trkpt lat="43.1636217" lon="2.0461767"><ele>338.0</ele><time>2026-05-01T16:25:22.997Z</time></trkpt><trkpt lat="43.1634783" lon="2.04622"><ele>338.0</ele><time>2026-05-01T16:25:23.997Z</time></trkpt><trkpt lat="43.1633383" lon="2.0462667"><ele>338.0</ele><time>2026-05-01T16:25:24.998Z</time></trkpt><trkpt lat="43.1632017" lon="2.0463233"><ele>338.0</ele><time>2026-05-01T16:25:25.998Z</time></trkpt><trkpt lat="43.1630733" lon="2.0464017"><ele>337.0</ele><time>2026-05-01T16:25:26.998Z</time></trkpt><trkpt lat="43.1629567" lon="2.0465067"><ele>336.0</ele><time>2026-05-01T16:25:27.999Z</time></trkpt><trkpt lat="43.16285" lon="2.046615"><ele>335.0</ele><time>2026-05-01T16:25:28.997Z</time></trkpt><trkpt lat="43.1627517" lon="2.0467267"><ele>334.0</ele><time>2026-05-01T16:25:29.997Z</time></trkpt><trkpt lat="43.1626567" lon="2.0468517"><ele>334.0</ele><time>2026-05-01T16:25:30.997Z</time></trkpt><trkpt lat="43.1625683" lon="2.0469933"><ele>334.0</ele><time>2026-05-01T16:25:31.997Z</time></trkpt><trkpt lat="43.1624783" lon="2.0471417"><ele>334.0</ele><time>2026-05-01T16:25:32.998Z</time></trkpt><trkpt lat="43.162375" lon="2.0472833"><ele>334.0</ele><time>2026-05-01T16:25:33.997Z</time></trkpt><trkpt lat="43.1622483" lon="2.04741"><ele>333.0</ele><time>2026-05-01T16:25:34.996Z</time></trkpt><trkpt lat="43.1621083" lon="2.0475183"><ele>332.0</ele><time>2026-05-01T16:25:35.998Z</time></trkpt><trkpt lat="43.1619667" lon="2.0476167"><ele>331.0</ele><time>2026-05-01T16:25:36.996Z</time></trkpt><trkpt lat="43.1618317" lon="2.0477017"><ele>331.0</ele><time>2026-05-01T16:25:37.997Z</time></trkpt><trkpt lat="43.1616967" lon="2.0477717"><ele>331.0</ele><time>2026-05-01T16:25:38.997Z</time></trkpt><trkpt lat="43.161565" lon="2.047815"><ele>331.0</ele><time>2026-05-01T16:25:39.996Z</time></trkpt><trkpt lat="43.1614367" lon="2.04781"><ele>331.0</ele><time>2026-05-01T16:25:40.997Z</time></trkpt><trkpt lat="43.1613217" lon="2.0477467"><ele>331.25</ele><time>2026-05-01T16:25:41.998Z</time></trkpt><trkpt lat="43.161235" lon="2.0476317"><ele>331.5</ele><time>2026-05-01T16:25:42.997Z</time></trkpt><trkpt lat="43.1611733" lon="2.0474783"><ele>331.75</ele><time>2026-05-01T16:25:43.998Z</time></trkpt><trkpt lat="43.16113" lon="2.0472917"><ele>332.0</ele><time>2026-05-01T16:25:45.001Z</time></trkpt><trkpt lat="43.161095" lon="2.0470883"><ele>332.0</ele><time>2026-05-01T16:25:45.996Z</time></trkpt><trkpt lat="43.161075" lon="2.04687"><ele>332.0</ele><time>2026-05-01T16:25:46.996Z</time></trkpt><trkpt lat="43.1610633" lon="2.0466533"><ele>332.0</ele><time>2026-05-01T16:25:47.998Z</time></trkpt><trkpt lat="43.1610617" lon="2.046435"><ele>330.6666666666667</ele><time>2026-05-01T16:25:48.997Z</time></trkpt><trkpt lat="43.1610517" lon="2.0462217"><ele>329.3333333333333</ele><time>2026-05-01T16:25:49.996Z</time></trkpt><trkpt lat="43.1610233" lon="2.0460067"><ele>328.0</ele><time>2026-05-01T16:25:50.999Z</time></trkpt><trkpt lat="43.1609833" lon="2.0457967"><ele>326.66666666666663</ele><time>2026-05-01T16:25:51.999Z</time></trkpt><trkpt lat="43.160935" lon="2.045595"><ele>325.3333333333333</ele><time>2026-05-01T16:25:53.007Z</time></trkpt><trkpt lat="43.1609067" lon="2.0453783"><ele>324.0</ele><time>2026-05-01T16:25:53.999Z</time></trkpt><trkpt lat="43.1609017" lon="2.04515"><ele>322.6666666666667</ele><time>2026-05-01T16:25:54.999Z</time></trkpt><trkpt lat="43.1609183" lon="2.0449183"><ele>321.33333333333337</ele><time>2026-05-01T16:25:55.998Z</time></trkpt><trkpt lat="43.1609483" lon="2.0446917"><ele>320.0</ele><time>2026-05-01T16:25:56.997Z</time></trkpt><trkpt lat="43.16098" lon="2.0444767"><ele>320.0</ele><time>2026-05-01T16:25:57.997Z</time></trkpt><trkpt lat="43.160985" lon="2.0442567"><ele>320.0</ele><time>2026-05-01T16:25:58.998Z</time></trkpt><trkpt lat="43.16096" lon="2.044035"><ele>320.0</ele><time>2026-05-01T16:25:59.997Z</time></trkpt><trkpt lat="43.1609117" lon="2.0438217"><ele>318.5</ele><time>2026-05-01T16:26:00.997Z</time></trkpt><trkpt lat="43.160865" lon="2.04362"><ele>317.0</ele><time>2026-05-01T16:26:01.997Z</time></trkpt><trkpt lat="43.1608283" lon="2.043425"><ele>315.5</ele><time>2026-05-01T16:26:02.997Z</time></trkpt><trkpt lat="43.16078" lon="2.04325"><ele>314.0</ele><time>2026-05-01T16:26:03.997Z</time></trkpt><trkpt lat="43.1607133" lon="2.04312"><ele>309.75</ele><time>2026-05-01T16:26:04.998Z</time></trkpt><trkpt lat="43.1606217" lon="2.043045"><ele>305.5</ele><time>2026-05-01T16:26:06.001Z</time></trkpt><trkpt lat="43.1605017" lon="2.0430317"><ele>301.25</ele><time>2026-05-01T16:26:06.999Z</time></trkpt><trkpt lat="43.160375" lon="2.043065"><ele>297.0</ele><time>2026-05-01T16:26:08Z</time></trkpt><trkpt lat="43.1602367" lon="2.04312"><ele>297.0</ele><time>2026-05-01T16:26:08.998Z</time></trkpt><trkpt lat="43.1601" lon="2.04317"><ele>297.0</ele><time>2026-05-01T16:26:09.998Z</time></trkpt><trkpt lat="43.1599667" lon="2.04323"><ele>297.0</ele><time>2026-05-01T16:26:10.997Z</time></trkpt><trkpt lat="43.1598333" lon="2.0433067"><ele>297.0</ele><time>2026-05-01T16:26:12Z</time></trkpt><trkpt lat="43.159705" lon="2.043405"><ele>297.3333333333333</ele><time>2026-05-01T16:26:12.997Z</time></trkpt><trkpt lat="43.1595767" lon="2.043525"><ele>297.66666666666663</ele><time>2026-05-01T16:26:13.997Z</time></trkpt><trkpt lat="43.1594517" lon="2.0436717"><ele>298.0</ele><time>2026-05-01T16:26:14.999Z</time></trkpt><trkpt lat="43.1593283" lon="2.0438283"><ele>298.0</ele><time>2026-05-01T16:26:15.998Z</time></trkpt><trkpt lat="43.15921" lon="2.0439933"><ele>298.0</ele><time>2026-05-01T16:26:16.997Z</time></trkpt><trkpt lat="43.1591083" lon="2.0441583"><ele>298.0</ele><time>2026-05-01T16:26:17.998Z</time></trkpt><trkpt lat="43.1590217" lon="2.0443267"><ele>296.5</ele><time>2026-05-01T16:26:18.998Z</time></trkpt><trkpt lat="43.158945" lon="2.04449"><ele>295.0</ele><time>2026-05-01T16:26:19.997Z</time></trkpt><trkpt lat="43.1588683" lon="2.0446483"><ele>293.5</ele><time>2026-05-01T16:26:21.001Z</time></trkpt><trkpt lat="43.158795" lon="2.0447917"><ele>292.0</ele><time>2026-05-01T16:26:21.998Z</time></trkpt><trkpt lat="43.158705" lon="2.04491"><ele>293.0</ele><time>2026-05-01T16:26:22.998Z</time></trkpt><trkpt lat="43.1585967" lon="2.04499"><ele>294.0</ele><time>2026-05-01T16:26:23.996Z</time></trkpt><trkpt lat="43.158475" lon="2.0450333"><ele>295.0</ele><time>2026-05-01T16:26:24.997Z</time></trkpt><trkpt lat="43.1583533" lon="2.04507"><ele>296.0</ele><time>2026-05-01T16:26:25.999Z</time></trkpt><trkpt lat="43.1582433" lon="2.04512"><ele>294.0</ele><time>2026-05-01T16:26:26.997Z</time></trkpt><trkpt lat="43.1581417" lon="2.04521"><ele>292.0</ele><time>2026-05-01T16:26:27.997Z</time></trkpt><trkpt lat="43.1580583" lon="2.04534"><ele>290.0</ele><time>2026-05-01T16:26:28.997Z</time></trkpt><trkpt lat="43.1579933" lon="2.0454967"><ele>288.0</ele><time>2026-05-01T16:26:29.997Z</time></trkpt><trkpt lat="43.1579367" lon="2.045645"><ele>288.0</ele><time>2026-05-01T16:26:30.997Z</time></trkpt><trkpt lat="43.15788" lon="2.0457717"><ele>288.0</ele><time>2026-05-01T16:26:31.997Z</time></trkpt><trkpt lat="43.1578017" lon="2.0458617"><ele>288.0</ele><time>2026-05-01T16:26:32.997Z</time></trkpt><trkpt lat="43.1577117" lon="2.045895"><ele>288.0</ele><time>2026-05-01T16:26:33.998Z</time></trkpt><trkpt lat="43.1576167" lon="2.0458633"><ele>288.0</ele><time>2026-05-01T16:26:34.997Z</time></trkpt><trkpt lat="43.157535" lon="2.0457767"><ele>288.0</ele><time>2026-05-01T16:26:35.997Z</time></trkpt><trkpt lat="43.157455" lon="2.0456583"><ele>288.0</ele><time>2026-05-01T16:26:36.997Z</time></trkpt><trkpt lat="43.157375" lon="2.0455383"><ele>288.0</ele><time>2026-05-01T16:26:37.997Z</time></trkpt><trkpt lat="43.1572933" lon="2.0454233"><ele>288.0</ele><time>2026-05-01T16:26:38.997Z</time></trkpt><trkpt lat="43.15721" lon="2.0453167"><ele>286.8</ele><time>2026-05-01T16:26:39.997Z</time></trkpt><trkpt lat="43.1571233" lon="2.0452567"><ele>285.6</ele><time>2026-05-01T16:26:40.997Z</time></trkpt><trkpt lat="43.1570317" lon="2.045255"><ele>284.4</ele><time>2026-05-01T16:26:41.998Z</time></trkpt><trkpt lat="43.156945" lon="2.0453183"><ele>283.2</ele><time>2026-05-01T16:26:42.998Z</time></trkpt><trkpt lat="43.15686" lon="2.0454117"><ele>282.0</ele><time>2026-05-01T16:26:43.996Z</time></trkpt><trkpt lat="43.15678" lon="2.0455217"><ele>282.0</ele><time>2026-05-01T16:26:44.997Z</time></trkpt><trkpt lat="43.1567083" lon="2.0456433"><ele>282.0</ele><time>2026-05-01T16:26:45.996Z</time></trkpt><trkpt lat="43.1566433" lon="2.0457767"><ele>282.0</ele><time>2026-05-01T16:26:46.996Z</time></trkpt><trkpt lat="43.1565833" lon="2.0459233"><ele>282.0</ele><time>2026-05-01T16:26:47.997Z</time></trkpt><trkpt lat="43.1565317" lon="2.0460933"><ele>281.75</ele><time>2026-05-01T16:26:48.998Z</time></trkpt><trkpt lat="43.1564883" lon="2.046265"><ele>281.5</ele><time>2026-05-01T16:26:49.997Z</time></trkpt><trkpt lat="43.156435" lon="2.0464433"><ele>281.25</ele><time>2026-05-01T16:26:50.998Z</time></trkpt><trkpt lat="43.156365" lon="2.0466183"><ele>281.0</ele><time>2026-05-01T16:26:51.998Z</time></trkpt><trkpt lat="43.1562783" lon="2.0467767"><ele>281.0</ele><time>2026-05-01T16:26:52.997Z</time></trkpt><trkpt lat="43.156165" lon="2.046905"><ele>281.0</ele><time>2026-05-01T16:26:53.997Z</time></trkpt><trkpt lat="43.15604" lon="2.0469867"><ele>281.0</ele><time>2026-05-01T16:26:54.997Z</time></trkpt><trkpt lat="43.155905" lon="2.0470283"><ele>281.0</ele><time>2026-05-01T16:26:55.997Z</time></trkpt><trkpt lat="43.1557667" lon="2.0470567"><ele>279.5</ele><time>2026-05-01T16:26:56.997Z</time></trkpt><trkpt lat="43.1556233" lon="2.0470883"><ele>278.0</ele><time>2026-05-01T16:26:57.998Z</time></trkpt><trkpt lat="43.1554767" lon="2.04713"><ele>276.5</ele><time>2026-05-01T16:26:58.997Z</time></trkpt><trkpt lat="43.1553367" lon="2.0471683"><ele>275.0</ele><time>2026-05-01T16:26:59.997Z</time></trkpt><trkpt lat="43.1552017" lon="2.0472017"><ele>275.0</ele><time>2026-05-01T16:27:00.999Z</time></trkpt><trkpt lat="43.15507" lon="2.0472317"><ele>275.0</ele><time>2026-05-01T16:27:01.998Z</time></trkpt><trkpt lat="43.1549367" lon="2.047265"><ele>275.0</ele><time>2026-05-01T16:27:02.998Z</time></trkpt><trkpt lat="43.1548067" lon="2.0473033"><ele>275.0</ele><time>2026-05-01T16:27:03.997Z</time></trkpt><trkpt lat="43.1546817" lon="2.047355"><ele>274.25</ele><time>2026-05-01T16:27:04.997Z</time></trkpt><trkpt lat="43.1545667" lon="2.047425"><ele>273.5</ele><time>2026-05-01T16:27:05.998Z</time></trkpt><trkpt lat="43.1544583" lon="2.047505"><ele>272.75</ele><time>2026-05-01T16:27:06.998Z</time></trkpt><trkpt lat="43.154355" lon="2.0475833"><ele>272.0</ele><time>2026-05-01T16:27:08Z</time></trkpt><trkpt lat="43.15426" lon="2.0476583"><ele>272.0</ele><time>2026-05-01T16:27:08.997Z</time></trkpt><trkpt lat="43.1541783" lon="2.0477233"><ele>272.0</ele><time>2026-05-01T16:27:09.999Z</time></trkpt><trkpt lat="43.1541133" lon="2.0477867"><ele>272.0</ele><time>2026-05-01T16:27:10.998Z</time></trkpt><trkpt lat="43.1540567" lon="2.04786"><ele>272.0</ele><time>2026-05-01T16:27:11.997Z</time></trkpt><trkpt lat="43.1540617" lon="2.0480317"><ele>272.0</ele><time>2026-05-01T16:27:13.998Z</time></trkpt><trkpt lat="43.1540933" lon="2.04812"><ele>272.0</ele><time>2026-05-01T16:27:14.998Z</time></trkpt><trkpt lat="43.1541417" lon="2.0482283"><ele>272.2</ele><time>2026-05-01T16:27:15.998Z</time></trkpt><trkpt lat="43.154185" lon="2.0483583"><ele>272.4</ele><time>2026-05-01T16:27:16.997Z</time></trkpt><trkpt lat="43.1542233" lon="2.0484917"><ele>272.6</ele><time>2026-05-01T16:27:17.997Z</time></trkpt><trkpt lat="43.1542483" lon="2.0486417"><ele>272.8</ele><time>2026-05-01T16:27:18.998Z</time></trkpt><trkpt lat="43.1542683" lon="2.0488"><ele>273.0</ele><time>2026-05-01T16:27:19.997Z</time></trkpt><trkpt lat="43.1542917" lon="2.048965"><ele>273.0</ele><time>2026-05-01T16:27:20.998Z</time></trkpt><trkpt lat="43.1543217" lon="2.0491317"><ele>273.0</ele><time>2026-05-01T16:27:21.997Z</time></trkpt><trkpt lat="43.1543367" lon="2.0492983"><ele>273.0</ele><time>2026-05-01T16:27:23Z</time></trkpt><trkpt lat="43.15435" lon="2.0494783"><ele>273.0</ele><time>2026-05-01T16:27:23.999Z</time></trkpt><trkpt lat="43.1543583" lon="2.04967"><ele>273.0</ele><time>2026-05-01T16:27:24.999Z</time></trkpt><trkpt lat="43.1543583" lon="2.049875"><ele>273.0</ele><time>2026-05-01T16:27:25.997Z</time></trkpt><trkpt lat="43.1543517" lon="2.05009"><ele>273.0</ele><time>2026-05-01T16:27:26.999Z</time></trkpt><trkpt lat="43.1543433" lon="2.0503067"><ele>273.0</ele><time>2026-05-01T16:27:27.998Z</time></trkpt><trkpt lat="43.1543367" lon="2.050515"><ele>273.0</ele><time>2026-05-01T16:27:28.999Z</time></trkpt><trkpt lat="43.1543283" lon="2.0507267"><ele>273.0</ele><time>2026-05-01T16:27:29.999Z</time></trkpt><trkpt lat="43.15432" lon="2.0509433"><ele>272.6666666666667</ele><time>2026-05-01T16:27:30.998Z</time></trkpt><trkpt lat="43.15431" lon="2.0511667"><ele>272.33333333333337</ele><time>2026-05-01T16:27:31.998Z</time></trkpt><trkpt lat="43.1543" lon="2.0513933"><ele>272.0</ele><time>2026-05-01T16:27:32.998Z</time></trkpt><trkpt lat="43.154295" lon="2.051625"><ele>272.0</ele><time>2026-05-01T16:27:33.998Z</time></trkpt><trkpt lat="43.154285" lon="2.0518617"><ele>272.0</ele><time>2026-05-01T16:27:34.997Z</time></trkpt><trkpt lat="43.1542733" lon="2.0521033"><ele>272.0</ele><time>2026-05-01T16:27:35.999Z</time></trkpt><trkpt lat="43.1542633" lon="2.0523467"><ele>271.6666666666667</ele><time>2026-05-01T16:27:36.997Z</time></trkpt><trkpt lat="43.1542517" lon="2.0525917"><ele>271.3333333333333</ele><time>2026-05-01T16:27:37.998Z</time></trkpt><trkpt lat="43.1542467" lon="2.05284"><ele>271.0</ele><time>2026-05-01T16:27:38.998Z</time></trkpt><trkpt lat="43.15425" lon="2.0530833"><ele>272.66666666666663</ele><time>2026-05-01T16:27:39.997Z</time></trkpt><trkpt lat="43.154275" lon="2.053325"><ele>274.3333333333333</ele><time>2026-05-01T16:27:40.997Z</time></trkpt><trkpt lat="43.1543117" lon="2.0535517"><ele>276.0</ele><time>2026-05-01T16:27:41.998Z</time></trkpt><trkpt lat="43.1543717" lon="2.0537733"><ele>276.0</ele><time>2026-05-01T16:27:42.997Z</time></trkpt><trkpt lat="43.154455" lon="2.05398"><ele>276.0</ele><time>2026-05-01T16:27:43.997Z</time></trkpt><trkpt lat="43.154555" lon="2.05417"><ele>276.0</ele><time>2026-05-01T16:27:44.998Z</time></trkpt><trkpt lat="43.1540617" lon="2.0480317"><ele>275.40000000000003</ele><time>2026-05-01T16:27:13.998Z</time></trkpt><trkpt lat="43.1540933" lon="2.04812"><ele>274.8</ele><time>2026-05-01T16:27:14.998Z</time></trkpt><trkpt lat="43.1541417" lon="2.0482283"><ele>274.20000000000005</ele><time>2026-05-01T16:27:15.998Z</time></trkpt><trkpt lat="43.154185" lon="2.0483583"><ele>273.6</ele><time>2026-05-01T16:27:16.997Z</time></trkpt><trkpt lat="43.1542233" lon="2.0484917"><ele>273.0</ele><time>2026-05-01T16:27:17.997Z</time></trkpt><trkpt lat="43.1542483" lon="2.0486417"><ele>273.0</ele><time>2026-05-01T16:27:18.998Z</time></trkpt><trkpt lat="43.1542683" lon="2.0488"><ele>273.0</ele><time>2026-05-01T16:27:19.997Z</time></trkpt><trkpt lat="43.1542917" lon="2.048965"><ele>273.0</ele><time>2026-05-01T16:27:20.998Z</time></trkpt><trkpt lat="43.1543217" lon="2.0491317"><ele>273.0</ele><time>2026-05-01T16:27:21.997Z</time></trkpt><trkpt lat="43.1543367" lon="2.0492983"><ele>273.0</ele><time>2026-05-01T16:27:23Z</time></trkpt><trkpt lat="43.15435" lon="2.0494783"><ele>273.0</ele><time>2026-05-01T16:27:23.999Z</time></trkpt><trkpt lat="43.1543583" lon="2.04967"><ele>273.0</ele><time>2026-05-01T16:27:24.999Z</time></trkpt><trkpt lat="43.1543583" lon="2.049875"><ele>273.0</ele><time>2026-05-01T16:27:25.997Z</time></trkpt><trkpt lat="43.1543517" lon="2.05009"><ele>273.0</ele><time>2026-05-01T16:27:26.999Z</time></trkpt><trkpt lat="43.1543433" lon="2.0503067"><ele>273.0</ele><time>2026-05-01T16:27:27.998Z</time></trkpt><trkpt lat="43.1543367" lon="2.050515"><ele>273.0</ele><time>2026-05-01T16:27:28.999Z</time></trkpt><trkpt lat="43.1543283" lon="2.0507267"><ele>272.6666666666667</ele><time>2026-05-01T16:27:29.999Z</time></trkpt><trkpt lat="43.15432" lon="2.0509433"><ele>272.33333333333337</ele><time>2026-05-01T16:27:30.998Z</time></trkpt><trkpt lat="43.15431" lon="2.0511667"><ele>272.0</ele><time>2026-05-01T16:27:31.998Z</time></trkpt><trkpt lat="43.1543" lon="2.0513933"><ele>272.0</ele><time>2026-05-01T16:27:32.998Z</time></trkpt><trkpt lat="43.154295" lon="2.051625"><ele>272.0</ele><time>2026-05-01T16:27:33.998Z</time></trkpt><trkpt lat="43.154285" lon="2.0518617"><ele>272.0</ele><time>2026-05-01T16:27:34.997Z</time></trkpt><trkpt lat="43.1542733" lon="2.0521033"><ele>272.0</ele><time>2026-05-01T16:27:35.999Z</time></trkpt><trkpt lat="43.1542633" lon="2.0523467"><ele>272.0</ele><time>2026-05-01T16:27:36.997Z</time></trkpt><trkpt lat="43.1542517" lon="2.0525917"><ele>272.0</ele><time>2026-05-01T16:27:37.998Z</time></trkpt><trkpt lat="43.1542467" lon="2.05284"><ele>271.6666666666667</ele><time>2026-05-01T16:27:38.998Z</time></trkpt><trkpt lat="43.15425" lon="2.0530833"><ele>271.3333333333333</ele><time>2026-05-01T16:27:39.997Z</time></trkpt><trkpt lat="43.154275" lon="2.053325"><ele>271.0</ele><time>2026-05-01T16:27:40.997Z</time></trkpt><trkpt lat="43.1543117" lon="2.0535517"><ele>272.66666666666663</ele><time>2026-05-01T16:27:41.998Z</time></trkpt><trkpt lat="43.1543717" lon="2.0537733"><ele>274.3333333333333</ele><time>2026-05-01T16:27:42.997Z</time></trkpt><trkpt lat="43.154455" lon="2.05398"><ele>276.0</ele><time>2026-05-01T16:27:43.997Z</time></trkpt><trkpt lat="43.154555" lon="2.05417"><ele>276.0</ele><time>2026-05-01T16:27:44.998Z</time></trkpt><trkpt lat="43.1546683" lon="2.0543467"><ele>276.0</ele><time>2026-05-01T16:27:45.997Z</time></trkpt><trkpt lat="43.1547917" lon="2.0545133"><ele>276.0</ele><time>2026-05-01T16:27:46.997Z</time></trkpt><trkpt lat="43.1549167" lon="2.054675"><ele>276.0</ele><time>2026-05-01T16:27:47.997Z</time></trkpt><trkpt lat="43.1550467" lon="2.0548317"><ele>276.0</ele><time>2026-05-01T16:27:48.998Z</time></trkpt><trkpt lat="43.1551867" lon="2.05498"><ele>276.0</ele><time>2026-05-01T16:27:49.999Z</time></trkpt><trkpt lat="43.155335" lon="2.0551067"><ele>275.6666666666667</ele><time>2026-05-01T16:27:50.998Z</time></trkpt><trkpt lat="43.15549" lon="2.05521"><ele>275.33333333333337</ele><time>2026-05-01T16:27:51.998Z</time></trkpt><trkpt lat="43.1556483" lon="2.0553083"><ele>275.0</ele><time>2026-05-01T16:27:52.999Z</time></trkpt><trkpt lat="43.155805" lon="2.0554033"><ele>276.33333333333337</ele><time>2026-05-01T16:27:53.998Z</time></trkpt><trkpt lat="43.1559617" lon="2.0554933"><ele>277.6666666666667</ele><time>2026-05-01T16:27:54.998Z</time></trkpt><trkpt lat="43.1561133" lon="2.0555833"><ele>279.0</ele><time>2026-05-01T16:27:55.997Z</time></trkpt><trkpt lat="43.1562633" lon="2.055675"><ele>279.0</ele><time>2026-05-01T16:27:57Z</time></trkpt><trkpt lat="43.156405" lon="2.055775"><ele>279.0</ele><time>2026-05-01T16:27:57.999Z</time></trkpt><trkpt lat="43.1565367" lon="2.0558983"><ele>279.0</ele><time>2026-05-01T16:27:58.998Z</time></trkpt><trkpt lat="43.156645" lon="2.0560583"><ele>279.6666666666667</ele><time>2026-05-01T16:27:59.998Z</time></trkpt><trkpt lat="43.1567217" lon="2.05625"><ele>280.33333333333337</ele><time>2026-05-01T16:28:00.998Z</time></trkpt><trkpt lat="43.156775" lon="2.0564567"><ele>281.0</ele><time>2026-05-01T16:28:01.998Z</time></trkpt><trkpt lat="43.1568217" lon="2.056665"><ele>281.0</ele><time>2026-05-01T16:28:03.004Z</time></trkpt><trkpt lat="43.156865" lon="2.0568667"><ele>281.0</ele><time>2026-05-01T16:28:03.998Z</time></trkpt><trkpt lat="43.1569067" lon="2.0570567"><ele>281.0</ele><time>2026-05-01T16:28:04.997Z</time></trkpt><trkpt lat="43.1569617" lon="2.057225"><ele>281.0</ele><time>2026-05-01T16:28:05.998Z</time></trkpt><trkpt lat="43.157035" lon="2.0573733"><ele>281.0</ele><time>2026-05-01T16:28:06.998Z</time></trkpt><trkpt lat="43.15714" lon="2.05749"><ele>281.0</ele><time>2026-05-01T16:28:07.998Z</time></trkpt><trkpt lat="43.1572667" lon="2.0575833"><ele>281.0</ele><time>2026-05-01T16:28:08.999Z</time></trkpt><trkpt lat="43.157405" lon="2.05767"><ele>281.0</ele><time>2026-05-01T16:28:09.998Z</time></trkpt><trkpt lat="43.15755" lon="2.05776"><ele>282.33333333333337</ele><time>2026-05-01T16:28:10.998Z</time></trkpt><trkpt lat="43.1577" lon="2.0578483"><ele>283.6666666666667</ele><time>2026-05-01T16:28:11.998Z</time></trkpt><trkpt lat="43.157845" lon="2.0579383"><ele>285.0</ele><time>2026-05-01T16:28:12.998Z</time></trkpt><trkpt lat="43.15799" lon="2.0580367"><ele>285.0</ele><time>2026-05-01T16:28:13.998Z</time></trkpt><trkpt lat="43.1581383" lon="2.058135"><ele>285.0</ele><time>2026-05-01T16:28:14.999Z</time></trkpt><trkpt lat="43.1582867" lon="2.0582317"><ele>285.0</ele><time>2026-05-01T16:28:15.999Z</time></trkpt><trkpt lat="43.158435" lon="2.058335"><ele>286.3333333333333</ele><time>2026-05-01T16:28:16.999Z</time></trkpt><trkpt lat="43.1585883" lon="2.0584267"><ele>287.66666666666663</ele><time>2026-05-01T16:28:17.996Z</time></trkpt><trkpt lat="43.158735" lon="2.05852"><ele>289.0</ele><time>2026-05-01T16:28:19Z</time></trkpt><trkpt lat="43.1588817" lon="2.0586033"><ele>289.0</ele><time>2026-05-01T16:28:19.997Z</time></trkpt><trkpt lat="43.159025" lon="2.0586833"><ele>289.0</ele><time>2026-05-01T16:28:20.997Z</time></trkpt><trkpt lat="43.1591717" lon="2.0587367"><ele>289.0</ele><time>2026-05-01T16:28:21.998Z</time></trkpt><trkpt lat="43.1593267" lon="2.0587417"><ele>289.0</ele><time>2026-05-01T16:28:23.005Z</time></trkpt><trkpt lat="43.159485" lon="2.0587067"><ele>289.0</ele><time>2026-05-01T16:28:23.997Z</time></trkpt><trkpt lat="43.1596383" lon="2.0586383"><ele>289.0</ele><time>2026-05-01T16:28:24.997Z</time></trkpt><trkpt lat="43.1597933" lon="2.05854"><ele>288.66666666666663</ele><time>2026-05-01T16:28:25.998Z</time></trkpt><trkpt lat="43.1599433" lon="2.058425"><ele>288.3333333333333</ele><time>2026-05-01T16:28:26.997Z</time></trkpt><trkpt lat="43.1600833" lon="2.0583083"><ele>288.0</ele><time>2026-05-01T16:28:27.998Z</time></trkpt><trkpt lat="43.1602233" lon="2.0582017"><ele>291.6666666666667</ele><time>2026-05-01T16:28:28.998Z</time></trkpt><trkpt lat="43.1603733" lon="2.05812"><ele>295.33333333333337</ele><time>2026-05-01T16:28:29.997Z</time></trkpt><trkpt lat="43.160525" lon="2.058085"><ele>299.0</ele><time>2026-05-01T16:28:30.997Z</time></trkpt><trkpt lat="43.16068" lon="2.058105"><ele>299.33333333333337</ele><time>2026-05-01T16:28:31.997Z</time></trkpt><trkpt lat="43.1608317" lon="2.0581767"><ele>299.6666666666667</ele><time>2026-05-01T16:28:32.998Z</time></trkpt><trkpt lat="43.1609717" lon="2.0582833"><ele>300.0</ele><time>2026-05-01T16:28:33.998Z</time></trkpt><trkpt lat="43.16109" lon="2.05843"><ele>297.75</ele><time>2026-05-01T16:28:34.998Z</time></trkpt><trkpt lat="43.16117" lon="2.0586"><ele>295.5</ele><time>2026-05-01T16:28:35.997Z</time></trkpt><trkpt lat="43.16122" lon="2.0587717"><ele>293.25</ele><time>2026-05-01T16:28:36.998Z</time></trkpt><trkpt lat="43.1612583" lon="2.05894"><ele>291.0</ele><time>2026-05-01T16:28:37.996Z</time></trkpt><trkpt lat="43.1613133" lon="2.05909"><ele>291.0</ele><time>2026-05-01T16:28:38.998Z</time></trkpt><trkpt lat="43.1613983" lon="2.059215"><ele>291.0</ele><time>2026-05-01T16:28:39.998Z</time></trkpt><trkpt lat="43.1615117" lon="2.0593067"><ele>291.0</ele><time>2026-05-01T16:28:40.997Z</time></trkpt><trkpt lat="43.161635" lon="2.059375"><ele>291.0</ele><time>2026-05-01T16:28:41.997Z</time></trkpt><trkpt lat="43.16176" lon="2.0594383"><ele>291.0</ele><time>2026-05-01T16:28:42.998Z</time></trkpt><trkpt lat="43.1618817" lon="2.0595133"><ele>291.0</ele><time>2026-05-01T16:28:44Z</time></trkpt><trkpt lat="43.1619917" lon="2.0596233"><ele>291.0</ele><time>2026-05-01T16:28:44.999Z</time></trkpt><trkpt lat="43.1620817" lon="2.0597717"><ele>291.0</ele><time>2026-05-01T16:28:45.999Z</time></trkpt><trkpt lat="43.162145" lon="2.05996"><ele>290.0</ele><time>2026-05-01T16:28:47.001Z</time></trkpt><trkpt lat="43.162195" lon="2.0601617"><ele>289.0</ele><time>2026-05-01T16:28:47.997Z</time></trkpt><trkpt lat="43.16224" lon="2.06037"><ele>288.0</ele><time>2026-05-01T16:28:48.998Z</time></trkpt><trkpt lat="43.1622867" lon="2.060575"><ele>286.75</ele><time>2026-05-01T16:28:50Z</time></trkpt><trkpt lat="43.1623117" lon="2.0607833"><ele>285.5</ele><time>2026-05-01T16:28:51.003Z</time></trkpt><trkpt lat="43.1623117" lon="2.060985"><ele>284.25</ele><time>2026-05-01T16:28:51.999Z</time></trkpt><trkpt lat="43.1623" lon="2.0611717"><ele>283.0</ele><time>2026-05-01T16:28:53Z</time></trkpt><trkpt lat="43.1622817" lon="2.0613467"><ele>283.0</ele><time>2026-05-01T16:28:53.999Z</time></trkpt><trkpt lat="43.1622783" lon="2.0615117"><ele>283.0</ele><time>2026-05-01T16:28:54.998Z</time></trkpt><trkpt lat="43.1623033" lon="2.0616717"><ele>283.0</ele><time>2026-05-01T16:28:56Z</time></trkpt><trkpt lat="43.1623483" lon="2.0618167"><ele>283.0</ele><time>2026-05-01T16:28:56.998Z</time></trkpt><trkpt lat="43.1624433" lon="2.0619167"><ele>283.5</ele><time>2026-05-01T16:28:57.998Z</time></trkpt><trkpt lat="43.1625783" lon="2.0619733"><ele>284.0</ele><time>2026-05-01T16:28:58.998Z</time></trkpt><trkpt lat="43.16272" lon="2.0620233"><ele>284.5</ele><time>2026-05-01T16:29:00.005Z</time></trkpt><trkpt lat="43.16287" lon="2.0620767"><ele>285.0</ele><time>2026-05-01T16:29:00.998Z</time></trkpt><trkpt lat="43.163015" lon="2.06216"><ele>285.0</ele><time>2026-05-01T16:29:01.997Z</time></trkpt><trkpt lat="43.1631467" lon="2.06229"><ele>285.0</ele><time>2026-05-01T16:29:02.997Z</time></trkpt><trkpt lat="43.163275" lon="2.0624417"><ele>285.0</ele><time>2026-05-01T16:29:03.998Z</time></trkpt><trkpt lat="43.163385" lon="2.0626233"><ele>283.6666666666667</ele><time>2026-05-01T16:29:04.997Z</time></trkpt><trkpt lat="43.1634933" lon="2.0628217"><ele>282.33333333333337</ele><time>2026-05-01T16:29:05.998Z</time></trkpt><trkpt lat="43.1636067" lon="2.063035"><ele>281.0</ele><time>2026-05-01T16:29:06.998Z</time></trkpt><trkpt lat="43.16373" lon="2.06324"><ele>279.6666666666667</ele><time>2026-05-01T16:29:07.997Z</time></trkpt><trkpt lat="43.1638583" lon="2.0634433"><ele>278.3333333333333</ele><time>2026-05-01T16:29:09Z</time></trkpt><trkpt lat="43.1639767" lon="2.063645"><ele>277.0</ele><time>2026-05-01T16:29:09.997Z</time></trkpt><trkpt lat="43.1640917" lon="2.0638333"><ele>277.0</ele><time>2026-05-01T16:29:10.997Z</time></trkpt><trkpt lat="43.164195" lon="2.0639983"><ele>277.0</ele><time>2026-05-01T16:29:11.997Z</time></trkpt><trkpt lat="43.16429" lon="2.064155"><ele>277.0</ele><time>2026-05-01T16:29:12.998Z</time></trkpt><trkpt lat="43.1643817" lon="2.06431"><ele>276.75</ele><time>2026-05-01T16:29:13.997Z</time></trkpt><trkpt lat="43.1644683" lon="2.06446"><ele>276.5</ele><time>2026-05-01T16:29:14.998Z</time></trkpt><trkpt lat="43.1645533" lon="2.0645933"><ele>276.25</ele><time>2026-05-01T16:29:15.997Z</time></trkpt><trkpt lat="43.164635" lon="2.0647233"><ele>276.0</ele><time>2026-05-01T16:29:16.997Z</time></trkpt><trkpt lat="43.1647167" lon="2.0648567"><ele>275.75</ele><time>2026-05-01T16:29:17.999Z</time></trkpt><trkpt lat="43.1647933" lon="2.0649867"><ele>275.5</ele><time>2026-05-01T16:29:18.996Z</time></trkpt><trkpt lat="43.164855" lon="2.0651217"><ele>275.25</ele><time>2026-05-01T16:29:19.996Z</time></trkpt><trkpt lat="43.1649017" lon="2.065265"><ele>275.0</ele><time>2026-05-01T16:29:20.999Z</time></trkpt><trkpt lat="43.1649333" lon="2.0654233"><ele>274.75</ele><time>2026-05-01T16:29:21.997Z</time></trkpt><trkpt lat="43.1649383" lon="2.0655917"><ele>274.5</ele><time>2026-05-01T16:29:22.996Z</time></trkpt><trkpt lat="43.1649333" lon="2.06577"><ele>274.25</ele><time>2026-05-01T16:29:23.998Z</time></trkpt><trkpt lat="43.164925" lon="2.0659467"><ele>274.0</ele><time>2026-05-01T16:29:24.998Z</time></trkpt><trkpt lat="43.1649183" lon="2.0661167"><ele>273.25</ele><time>2026-05-01T16:29:25.997Z</time></trkpt><trkpt lat="43.1649267" lon="2.0662817"><ele>272.5</ele><time>2026-05-01T16:29:26.997Z</time></trkpt><trkpt lat="43.1649583" lon="2.0664283"><ele>271.75</ele><time>2026-05-01T16:29:27.996Z</time></trkpt><trkpt lat="43.1650183" lon="2.066565"><ele>271.0</ele><time>2026-05-01T16:29:29Z</time></trkpt><trkpt lat="43.1651167" lon="2.0666483"><ele>270.75</ele><time>2026-05-01T16:29:29.997Z</time></trkpt><trkpt lat="43.1652333" lon="2.0666917"><ele>270.5</ele><time>2026-05-01T16:29:30.996Z</time></trkpt><trkpt lat="43.1653483" lon="2.0667083"><ele>270.25</ele><time>2026-05-01T16:29:32.001Z</time></trkpt><trkpt lat="43.165465" lon="2.0667267"><ele>270.0</ele><time>2026-05-01T16:29:32.998Z</time></trkpt><trkpt lat="43.1655717" lon="2.0667717"><ele>270.0</ele><time>2026-05-01T16:29:33.999Z</time></trkpt><trkpt lat="43.16566" lon="2.06686"><ele>270.0</ele><time>2026-05-01T16:29:34.997Z</time></trkpt><trkpt lat="43.1657217" lon="2.06698"><ele>270.0</ele><time>2026-05-01T16:29:35.999Z</time></trkpt><trkpt lat="43.165755" lon="2.06712"><ele>270.0</ele><time>2026-05-01T16:29:36.996Z</time></trkpt><trkpt lat="43.1657617" lon="2.0672733"><ele>270.0</ele><time>2026-05-01T16:29:37.998Z</time></trkpt><trkpt lat="43.16575" lon="2.067425"><ele>269.5</ele><time>2026-05-01T16:29:39.004Z</time></trkpt><trkpt lat="43.16573" lon="2.06757"><ele>269.0</ele><time>2026-05-01T16:29:39.997Z</time></trkpt><trkpt lat="43.1656933" lon="2.0677367"><ele>268.5</ele><time>2026-05-01T16:29:40.997Z</time></trkpt><trkpt lat="43.1656667" lon="2.0679083"><ele>268.0</ele><time>2026-05-01T16:29:41.997Z</time></trkpt><trkpt lat="43.16567" lon="2.06808"><ele>266.25</ele><time>2026-05-01T16:29:42.997Z</time></trkpt><trkpt lat="43.1657033" lon="2.0682333"><ele>264.5</ele><time>2026-05-01T16:29:43.997Z</time></trkpt><trkpt lat="43.165755" lon="2.0683783"><ele>262.75</ele><time>2026-05-01T16:29:44.998Z</time></trkpt><trkpt lat="43.1658133" lon="2.06852"><ele>261.0</ele><time>2026-05-01T16:29:45.998Z</time></trkpt><trkpt lat="43.165875" lon="2.0686667"><ele>260.40000000000003</ele><time>2026-05-01T16:29:46.998Z</time></trkpt><trkpt lat="43.165945" lon="2.0688"><ele>259.8</ele><time>2026-05-01T16:29:47.998Z</time></trkpt><trkpt lat="43.1660283" lon="2.068905"><ele>259.20000000000005</ele><time>2026-05-01T16:29:48.999Z</time></trkpt><trkpt lat="43.1661283" lon="2.06896"><ele>258.6</ele><time>2026-05-01T16:29:49.999Z</time></trkpt><trkpt lat="43.1662317" lon="2.0689667"><ele>258.0</ele><time>2026-05-01T16:29:50.998Z</time></trkpt><trkpt lat="43.1663383" lon="2.0689383"><ele>258.0</ele><time>2026-05-01T16:29:51.996Z</time></trkpt><trkpt lat="43.1664467" lon="2.06888"><ele>258.0</ele><time>2026-05-01T16:29:52.999Z</time></trkpt><trkpt lat="43.1665583" lon="2.06882"><ele>258.0</ele><time>2026-05-01T16:29:53.997Z</time></trkpt><trkpt lat="43.16667" lon="2.0687583"><ele>258.0</ele><time>2026-05-01T16:29:54.998Z</time></trkpt><trkpt lat="43.1667817" lon="2.0687117"><ele>257.4</ele><time>2026-05-01T16:29:55.999Z</time></trkpt><trkpt lat="43.1668933" lon="2.0686917"><ele>256.8</ele><time>2026-05-01T16:29:56.998Z</time></trkpt><trkpt lat="43.1669967" lon="2.0687117"><ele>256.2</ele><time>2026-05-01T16:29:57.997Z</time></trkpt><trkpt lat="43.167085" lon="2.0687833"><ele>255.6</ele><time>2026-05-01T16:29:58.998Z</time></trkpt><trkpt lat="43.167155" lon="2.0689067"><ele>255.0</ele><time>2026-05-01T16:29:59.997Z</time></trkpt><trkpt lat="43.1672067" lon="2.069065"><ele>255.25</ele><time>2026-05-01T16:30:00.999Z</time></trkpt><trkpt lat="43.1672483" lon="2.0692367"><ele>255.5</ele><time>2026-05-01T16:30:01.999Z</time></trkpt><trkpt lat="43.1672933" lon="2.0694017"><ele>255.75</ele><time>2026-05-01T16:30:02.997Z</time></trkpt><trkpt lat="43.16735" lon="2.06956"><ele>256.0</ele><time>2026-05-01T16:30:03.997Z</time></trkpt><trkpt lat="43.1674217" lon="2.0697117"><ele>256.0</ele><time>2026-05-01T16:30:05.001Z</time></trkpt><trkpt lat="43.1675067" lon="2.0698683"><ele>256.0</ele><time>2026-05-01T16:30:05.997Z</time></trkpt><trkpt lat="43.1675983" lon="2.0700283"><ele>256.0</ele><time>2026-05-01T16:30:06.997Z</time></trkpt><trkpt lat="43.167695" lon="2.0701967"><ele>256.0</ele><time>2026-05-01T16:30:07.997Z</time></trkpt><trkpt lat="43.1677933" lon="2.0703683"><ele>256.66666666666663</ele><time>2026-05-01T16:30:08.999Z</time></trkpt><trkpt lat="43.1678883" lon="2.07054"><ele>257.3333333333333</ele><time>2026-05-01T16:30:09.998Z</time></trkpt><trkpt lat="43.1679883" lon="2.070715"><ele>258.0</ele><time>2026-05-01T16:30:10.997Z</time></trkpt><trkpt lat="43.1680883" lon="2.070895"><ele>258.0</ele><time>2026-05-01T16:30:11.997Z</time></trkpt><trkpt lat="43.1681883" lon="2.0710767"><ele>258.0</ele><time>2026-05-01T16:30:12.997Z</time></trkpt><trkpt lat="43.168295" lon="2.0712633"><ele>258.0</ele><time>2026-05-01T16:30:13.998Z</time></trkpt><trkpt lat="43.1684017" lon="2.071445"><ele>255.33333333333331</ele><time>2026-05-01T16:30:14.998Z</time></trkpt><trkpt lat="43.1685117" lon="2.0716267"><ele>252.66666666666666</ele><time>2026-05-01T16:30:15.997Z</time></trkpt><trkpt lat="43.16862" lon="2.0718117"><ele>250.0</ele><time>2026-05-01T16:30:16.997Z</time></trkpt><trkpt lat="43.1687217" lon="2.0719967"><ele>250.0</ele><time>2026-05-01T16:30:17.997Z</time></trkpt><trkpt lat="43.16881" lon="2.0721933"><ele>250.0</ele><time>2026-05-01T16:30:18.998Z</time></trkpt><trkpt lat="43.16887" lon="2.072415"><ele>250.0</ele><time>2026-05-01T16:30:19.997Z</time></trkpt><trkpt lat="43.1689017" lon="2.0726467"><ele>249.66666666666666</ele><time>2026-05-01T16:30:20.997Z</time></trkpt><trkpt lat="43.168905" lon="2.0728867"><ele>249.33333333333331</ele><time>2026-05-01T16:30:21.998Z</time></trkpt><trkpt lat="43.1688933" lon="2.0731267"><ele>249.0</ele><time>2026-05-01T16:30:22.996Z</time></trkpt><trkpt lat="43.1688783" lon="2.073365"><ele>248.33333333333331</ele><time>2026-05-01T16:30:23.998Z</time></trkpt><trkpt lat="43.168865" lon="2.0735967"><ele>247.66666666666666</ele><time>2026-05-01T16:30:24.998Z</time></trkpt><trkpt lat="43.1688533" lon="2.07381"><ele>247.0</ele><time>2026-05-01T16:30:25.996Z</time></trkpt><trkpt lat="43.16884" lon="2.0740117"><ele>246.25</ele><time>2026-05-01T16:30:26.999Z</time></trkpt><trkpt lat="43.1688283" lon="2.0741967"><ele>245.5</ele><time>2026-05-01T16:30:27.996Z</time></trkpt><trkpt lat="43.1688183" lon="2.0743683"><ele>244.75</ele><time>2026-05-01T16:30:28.997Z</time></trkpt><trkpt lat="43.16881" lon="2.0745317"><ele>244.0</ele><time>2026-05-01T16:30:29.996Z</time></trkpt><trkpt lat="43.1688" lon="2.0746867"><ele>243.99999999999997</ele><time>2026-05-01T16:30:30.997Z</time></trkpt><trkpt lat="43.168795" lon="2.0748267"><ele>244.0</ele><time>2026-05-01T16:30:31.996Z</time></trkpt><trkpt lat="43.1687917" lon="2.0749567"><ele>244.0</ele><time>2026-05-01T16:30:32.998Z</time></trkpt><trkpt lat="43.1687917" lon="2.0750733"><ele>244.0</ele><time>2026-05-01T16:30:33.998Z</time></trkpt><trkpt lat="43.1687917" lon="2.0751717"><ele>243.99999999999997</ele><time>2026-05-01T16:30:34.998Z</time></trkpt><trkpt lat="43.16876" lon="2.075285"><ele>244.0</ele><time>2026-05-01T16:30:36.999Z</time></trkpt><trkpt lat="43.1686717" lon="2.0752933"><ele>243.99999999999997</ele><time>2026-05-01T16:30:38.998Z</time></trkpt><trkpt lat="43.16855" lon="2.075285"><ele>244.0</ele><time>2026-05-01T16:30:40.997Z</time></trkpt><trkpt lat="43.16848" lon="2.0753"><ele>244.0</ele><time>2026-05-01T16:30:41.998Z</time></trkpt><trkpt lat="43.16841" lon="2.0753117"><ele>244.0</ele><time>2026-05-01T16:30:42.997Z</time></trkpt><trkpt lat="43.1683467" lon="2.0753283"><ele>243.99999999999997</ele><time>2026-05-01T16:30:43.998Z</time></trkpt><trkpt lat="43.16827" lon="2.0753517"><ele>244.0</ele><time>2026-05-01T16:30:44.999Z</time></trkpt><trkpt lat="43.1681883" lon="2.07539"><ele>243.0</ele><time>2026-05-01T16:30:45.997Z</time></trkpt><trkpt lat="43.168105" lon="2.0754383"><ele>241.99999999999997</ele><time>2026-05-01T16:30:46.997Z</time></trkpt><trkpt lat="43.16802" lon="2.075495"><ele>240.99999999999997</ele><time>2026-05-01T16:30:47.997Z</time></trkpt><trkpt lat="43.167935" lon="2.0755533"><ele>240.0</ele><time>2026-05-01T16:30:48.999Z</time></trkpt><trkpt lat="43.1678517" lon="2.0756133"><ele>239.0</ele><time>2026-05-01T16:30:49.997Z</time></trkpt><trkpt lat="43.1677717" lon="2.075675"><ele>239.0</ele><time>2026-05-01T16:30:50.998Z</time></trkpt><trkpt lat="43.167695" lon="2.0757383"><ele>238.99999999999997</ele><time>2026-05-01T16:30:51.997Z</time></trkpt><trkpt lat="43.167615" lon="2.0758067"><ele>238.99999999999997</ele><time>2026-05-01T16:30:52.997Z</time></trkpt><trkpt lat="43.167535" lon="2.075885"><ele>239.0</ele><time>2026-05-01T16:30:53.997Z</time></trkpt><trkpt lat="43.1674583" lon="2.075965"><ele>239.0</ele><time>2026-05-01T16:30:55Z</time></trkpt><trkpt lat="43.167375" lon="2.0760367"><ele>239.39999999999998</ele><time>2026-05-01T16:30:55.997Z</time></trkpt><trkpt lat="43.1672783" lon="2.0761083"><ele>239.79999999999998</ele><time>2026-05-01T16:30:56.999Z</time></trkpt><trkpt lat="43.167175" lon="2.0761767"><ele>240.20000000000002</ele><time>2026-05-01T16:30:57.998Z</time></trkpt><trkpt lat="43.1670717" lon="2.0762517"><ele>240.60000000000002</ele><time>2026-05-01T16:30:58.998Z</time></trkpt><trkpt lat="43.1669783" lon="2.07632"><ele>241.0</ele><time>2026-05-01T16:31:00Z</time></trkpt><trkpt lat="43.1668917" lon="2.0763833"><ele>240.99999999999997</ele><time>2026-05-01T16:31:00.998Z</time></trkpt><trkpt lat="43.1668133" lon="2.0764533"><ele>241.0</ele><time>2026-05-01T16:31:01.998Z</time></trkpt><trkpt lat="43.166745" lon="2.0765217"><ele>241.0</ele><time>2026-05-01T16:31:02.999Z</time></trkpt><trkpt lat="43.1666933" lon="2.0766017"><ele>241.0</ele><time>2026-05-01T16:31:03.999Z</time></trkpt><trkpt lat="43.1666517" lon="2.0766867"><ele>240.99999999999997</ele><time>2026-05-01T16:31:04.998Z</time></trkpt><trkpt lat="43.1666117" lon="2.0767717"><ele>241.0</ele><time>2026-05-01T16:31:05.997Z</time></trkpt><trkpt lat="43.1665833" lon="2.076855"><ele>241.20000000000002</ele><time>2026-05-01T16:31:06.998Z</time></trkpt><trkpt lat="43.1665383" lon="2.0769967"><ele>241.40000000000003</ele><time>2026-05-01T16:31:09Z</time></trkpt><trkpt lat="43.166455" lon="2.0771167"><ele>241.6</ele><time>2026-05-01T16:31:10.996Z</time></trkpt><trkpt lat="43.166395" lon="2.0771667"><ele>241.8</ele><time>2026-05-01T16:31:11.998Z</time></trkpt><trkpt lat="43.1663233" lon="2.0772083"><ele>242.0</ele><time>2026-05-01T16:31:12.997Z</time></trkpt><trkpt lat="43.1662433" lon="2.0772383"><ele>242.0</ele><time>2026-05-01T16:31:14Z</time></trkpt><trkpt lat="43.16615" lon="2.0772533"><ele>242.0</ele><time>2026-05-01T16:31:14.997Z</time></trkpt><trkpt lat="43.1660533" lon="2.0772583"><ele>242.0</ele><time>2026-05-01T16:31:15.997Z</time></trkpt><trkpt lat="43.1659517" lon="2.0772583"><ele>242.0</ele><time>2026-05-01T16:31:16.997Z</time></trkpt><trkpt lat="43.16584" lon="2.0772583"><ele>242.0</ele><time>2026-05-01T16:31:17.999Z</time></trkpt><trkpt lat="43.165725" lon="2.0772767"><ele>242.5</ele><time>2026-05-01T16:31:18.997Z</time></trkpt><trkpt lat="43.1656117" lon="2.0773083"><ele>243.0</ele><time>2026-05-01T16:31:19.997Z</time></trkpt><trkpt lat="43.1655133" lon="2.0773733"><ele>243.5</ele><time>2026-05-01T16:31:20.997Z</time></trkpt><trkpt lat="43.165415" lon="2.07746"><ele>244.0</ele><time>2026-05-01T16:31:21.997Z</time></trkpt><trkpt lat="43.1653217" lon="2.0775633"><ele>244.0</ele><time>2026-05-01T16:31:22.997Z</time></trkpt><trkpt lat="43.16523" lon="2.0776683"><ele>244.0</ele><time>2026-05-01T16:31:23.996Z</time></trkpt><trkpt lat="43.165135" lon="2.0777733"><ele>244.0</ele><time>2026-05-01T16:31:24.997Z</time></trkpt><trkpt lat="43.1650383" lon="2.0778767"><ele>244.0</ele><time>2026-05-01T16:31:25.997Z</time></trkpt><trkpt lat="43.1649433" lon="2.07799"><ele>245.75</ele><time>2026-05-01T16:31:26.997Z</time></trkpt><trkpt lat="43.1648467" lon="2.0781033"><ele>247.5</ele><time>2026-05-01T16:31:27.997Z</time></trkpt><trkpt lat="43.16475" lon="2.0782167"><ele>249.25</ele><time>2026-05-01T16:31:29.004Z</time></trkpt><trkpt lat="43.1646533" lon="2.0783317"><ele>251.0</ele><time>2026-05-01T16:31:29.998Z</time></trkpt><trkpt lat="43.164555" lon="2.0784567"><ele>251.0</ele><time>2026-05-01T16:31:30.999Z</time></trkpt><trkpt lat="43.164465" lon="2.07859"><ele>251.0</ele><time>2026-05-01T16:31:31.998Z</time></trkpt><trkpt lat="43.1643883" lon="2.0787233"><ele>251.0</ele><time>2026-05-01T16:31:32.997Z</time></trkpt><trkpt lat="43.1643183" lon="2.0788467"><ele>251.0</ele><time>2026-05-01T16:31:33.997Z</time></trkpt><trkpt lat="43.16425" lon="2.0789517"><ele>251.0</ele><time>2026-05-01T16:31:34.999Z</time></trkpt><trkpt lat="43.16417" lon="2.0790433"><ele>251.0</ele><time>2026-05-01T16:31:35.998Z</time></trkpt><trkpt lat="43.1640817" lon="2.079125"><ele>251.0</ele><time>2026-05-01T16:31:37.003Z</time></trkpt><trkpt lat="43.16398" lon="2.0792"><ele>251.0</ele><time>2026-05-01T16:31:37.997Z</time></trkpt><trkpt lat="43.1638667" lon="2.0792833"><ele>252.0</ele><time>2026-05-01T16:31:38.997Z</time></trkpt><trkpt lat="43.163755" lon="2.0793717"><ele>253.0</ele><time>2026-05-01T16:31:39.997Z</time></trkpt><trkpt lat="43.1636517" lon="2.0794717"><ele>254.0</ele><time>2026-05-01T16:31:40.996Z</time></trkpt><trkpt lat="43.163555" lon="2.0795967"><ele>255.0</ele><time>2026-05-01T16:31:41.998Z</time></trkpt><trkpt lat="43.1634583" lon="2.0797267"><ele>255.0</ele><time>2026-05-01T16:31:42.997Z</time></trkpt><trkpt lat="43.163355" lon="2.0798483"><ele>255.0</ele><time>2026-05-01T16:31:43.996Z</time></trkpt><trkpt lat="43.163255" lon="2.079965"><ele>255.0</ele><time>2026-05-01T16:31:44.997Z</time></trkpt><trkpt lat="43.163155" lon="2.080095"><ele>255.0</ele><time>2026-05-01T16:31:45.996Z</time></trkpt><trkpt lat="43.16307" lon="2.0802433"><ele>254.66666666666669</ele><time>2026-05-01T16:31:47.004Z</time></trkpt><trkpt lat="43.162995" lon="2.080405"><ele>254.33333333333334</ele><time>2026-05-01T16:31:47.997Z</time></trkpt><trkpt lat="43.1629233" lon="2.0805917"><ele>254.0</ele><time>2026-05-01T16:31:48.997Z</time></trkpt><trkpt lat="43.1628517" lon="2.0807917"><ele>255.0</ele><time>2026-05-01T16:31:49.997Z</time></trkpt><trkpt lat="43.162775" lon="2.081"><ele>256.0</ele><time>2026-05-01T16:31:50.998Z</time></trkpt><trkpt lat="43.1627017" lon="2.0812017"><ele>257.0</ele><time>2026-05-01T16:31:51.997Z</time></trkpt><trkpt lat="43.16263" lon="2.0814"><ele>257.0</ele><time>2026-05-01T16:31:53.002Z</time></trkpt><trkpt lat="43.1625583" lon="2.081595"><ele>257.0</ele><time>2026-05-01T16:31:53.998Z</time></trkpt><trkpt lat="43.1624833" lon="2.081785"><ele>257.0</ele><time>2026-05-01T16:31:54.999Z</time></trkpt><trkpt lat="43.1624117" lon="2.0819817"><ele>256.5</ele><time>2026-05-01T16:31:55.998Z</time></trkpt><trkpt lat="43.162345" lon="2.0821633"><ele>256.0</ele><time>2026-05-01T16:31:56.997Z</time></trkpt><trkpt lat="43.1622817" lon="2.082335"><ele>255.5</ele><time>2026-05-01T16:31:57.997Z</time></trkpt><trkpt lat="43.1622117" lon="2.0824967"><ele>255.0</ele><time>2026-05-01T16:31:58.997Z</time></trkpt><trkpt lat="43.1621433" lon="2.0826667"><ele>256.3333333333333</ele><time>2026-05-01T16:31:59.996Z</time></trkpt><trkpt lat="43.1620667" lon="2.082855"><ele>257.66666666666663</ele><time>2026-05-01T16:32:00.997Z</time></trkpt><trkpt lat="43.16199" lon="2.083065"><ele>259.0</ele><time>2026-05-01T16:32:02Z</time></trkpt><trkpt lat="43.1619083" lon="2.0832783"><ele>259.66666666666663</ele><time>2026-05-01T16:32:02.998Z</time></trkpt><trkpt lat="43.1618233" lon="2.0834917"><ele>260.3333333333333</ele><time>2026-05-01T16:32:03.997Z</time></trkpt><trkpt lat="43.16174" lon="2.0837033"><ele>261.0</ele><time>2026-05-01T16:32:04.996Z</time></trkpt><trkpt lat="43.1616567" lon="2.0839217"><ele>261.3333333333333</ele><time>2026-05-01T16:32:05.998Z</time></trkpt><trkpt lat="43.161575" lon="2.0841417"><ele>261.66666666666663</ele><time>2026-05-01T16:32:06.997Z</time></trkpt><trkpt lat="43.16149" lon="2.0843567"><ele>262.0</ele><time>2026-05-01T16:32:07.997Z</time></trkpt><trkpt lat="43.1613983" lon="2.0845617"><ele>261.3333333333333</ele><time>2026-05-01T16:32:08.998Z</time></trkpt><trkpt lat="43.1613083" lon="2.084755"><ele>260.6666666666667</ele><time>2026-05-01T16:32:09.997Z</time></trkpt><trkpt lat="43.1612217" lon="2.0849417"><ele>260.0</ele><time>2026-05-01T16:32:10.997Z</time></trkpt><trkpt lat="43.1611333" lon="2.0851233"><ele>260.0</ele><time>2026-05-01T16:32:11.997Z</time></trkpt><trkpt lat="43.1610533" lon="2.0852967"><ele>260.0</ele><time>2026-05-01T16:32:12.999Z</time></trkpt><trkpt lat="43.1609783" lon="2.0854567"><ele>260.0</ele><time>2026-05-01T16:32:13.998Z</time></trkpt><trkpt lat="43.1609083" lon="2.0855917"><ele>260.0</ele><time>2026-05-01T16:32:14.997Z</time></trkpt><trkpt lat="43.160825" lon="2.0857033"><ele>259.5</ele><time>2026-05-01T16:32:15.999Z</time></trkpt><trkpt lat="43.160725" lon="2.0857883"><ele>259.0</ele><time>2026-05-01T16:32:16.997Z</time></trkpt><trkpt lat="43.1606017" lon="2.085815"><ele>258.5</ele><time>2026-05-01T16:32:17.997Z</time></trkpt><trkpt lat="43.1604683" lon="2.0858267"><ele>258.0</ele><time>2026-05-01T16:32:18.997Z</time></trkpt><trkpt lat="43.1603383" lon="2.0858467"><ele>258.0</ele><time>2026-05-01T16:32:19.997Z</time></trkpt><trkpt lat="43.1602033" lon="2.0859067"><ele>258.0</ele><time>2026-05-01T16:32:20.997Z</time></trkpt><trkpt lat="43.1600633" lon="2.0859917"><ele>258.0</ele><time>2026-05-01T16:32:21.997Z</time></trkpt><trkpt lat="43.1599267" lon="2.0860917"><ele>256.6666666666667</ele><time>2026-05-01T16:32:22.998Z</time></trkpt><trkpt lat="43.1597967" lon="2.086205"><ele>255.33333333333334</ele><time>2026-05-01T16:32:23.998Z</time></trkpt><trkpt lat="43.159665" lon="2.0863317"><ele>254.0</ele><time>2026-05-01T16:32:24.996Z</time></trkpt><trkpt lat="43.1595333" lon="2.086465"><ele>254.0</ele><time>2026-05-01T16:32:25.999Z</time></trkpt><trkpt lat="43.1593917" lon="2.08658"><ele>254.0</ele><time>2026-05-01T16:32:26.997Z</time></trkpt><trkpt lat="43.15924" lon="2.0866733"><ele>254.0</ele><time>2026-05-01T16:32:27.997Z</time></trkpt><trkpt lat="43.1590867" lon="2.08674"><ele>255.75</ele><time>2026-05-01T16:32:28.997Z</time></trkpt><trkpt lat="43.1589517" lon="2.086785"><ele>257.5</ele><time>2026-05-01T16:32:29.997Z</time></trkpt><trkpt lat="43.158835" lon="2.0868217"><ele>259.25</ele><time>2026-05-01T16:32:30.998Z</time></trkpt><trkpt lat="43.15873" lon="2.08686"><ele>261.0</ele><time>2026-05-01T16:32:31.997Z</time></trkpt><trkpt lat="43.1586317" lon="2.0869083"><ele>261.0</ele><time>2026-05-01T16:32:32.998Z</time></trkpt><trkpt lat="43.158535" lon="2.086985"><ele>261.0</ele><time>2026-05-01T16:32:33.997Z</time></trkpt><trkpt lat="43.1584333" lon="2.08707"><ele>261.0</ele><time>2026-05-01T16:32:34.997Z</time></trkpt><trkpt lat="43.15833" lon="2.08716"><ele>261.0</ele><time>2026-05-01T16:32:35.998Z</time></trkpt><trkpt lat="43.1582233" lon="2.0872467"><ele>260.25</ele><time>2026-05-01T16:32:36.998Z</time></trkpt><trkpt lat="43.1581033" lon="2.0873417"><ele>259.5</ele><time>2026-05-01T16:32:37.998Z</time></trkpt><trkpt lat="43.157975" lon="2.0874383"><ele>258.75</ele><time>2026-05-01T16:32:39.003Z</time></trkpt><trkpt lat="43.1578417" lon="2.087535"><ele>258.0</ele><time>2026-05-01T16:32:39.998Z</time></trkpt><trkpt lat="43.15771" lon="2.08762"><ele>258.0</ele><time>2026-05-01T16:32:40.997Z</time></trkpt><trkpt lat="43.157585" lon="2.0877067"><ele>258.0</ele><time>2026-05-01T16:32:41.997Z</time></trkpt><trkpt lat="43.15747" lon="2.0878017"><ele>258.0</ele><time>2026-05-01T16:32:42.996Z</time></trkpt><trkpt lat="43.1573683" lon="2.0879083"><ele>258.0</ele><time>2026-05-01T16:32:43.998Z</time></trkpt><trkpt lat="43.15727" lon="2.088035"><ele>257.0</ele><time>2026-05-01T16:32:44.997Z</time></trkpt><trkpt lat="43.1571833" lon="2.08819"><ele>256.0</ele><time>2026-05-01T16:32:45.997Z</time></trkpt><trkpt lat="43.157095" lon="2.0883617"><ele>255.0</ele><time>2026-05-01T16:32:46.997Z</time></trkpt><trkpt lat="43.1569967" lon="2.0885383"><ele>255.0</ele><time>2026-05-01T16:32:47.999Z</time></trkpt><trkpt lat="43.1568967" lon="2.08871"><ele>255.0</ele><time>2026-05-01T16:32:48.998Z</time></trkpt><trkpt lat="43.15679" lon="2.08888"><ele>255.0</ele><time>2026-05-01T16:32:49.997Z</time></trkpt><trkpt lat="43.1566767" lon="2.0890483"><ele>254.66666666666669</ele><time>2026-05-01T16:32:50.997Z</time></trkpt><trkpt lat="43.1565617" lon="2.0892233"><ele>254.33333333333334</ele><time>2026-05-01T16:32:51.997Z</time></trkpt><trkpt lat="43.1564533" lon="2.08939"><ele>254.0</ele><time>2026-05-01T16:32:52.996Z</time></trkpt><trkpt lat="43.1563517" lon="2.08955"><ele>254.0</ele><time>2026-05-01T16:32:53.997Z</time></trkpt><trkpt lat="43.1562533" lon="2.0897033"><ele>254.0</ele><time>2026-05-01T16:32:54.996Z</time></trkpt><trkpt lat="43.15616" lon="2.0898467"><ele>254.0</ele><time>2026-05-01T16:32:55.998Z</time></trkpt><trkpt lat="43.156065" lon="2.0899833"><ele>254.0</ele><time>2026-05-01T16:32:56.997Z</time></trkpt><trkpt lat="43.1559633" lon="2.0901117"><ele>254.0</ele><time>2026-05-01T16:32:57.998Z</time></trkpt><trkpt lat="43.155855" lon="2.0902383"><ele>254.0</ele><time>2026-05-01T16:32:58.998Z</time></trkpt><trkpt lat="43.15574" lon="2.0903633"><ele>254.0</ele><time>2026-05-01T16:32:59.998Z</time></trkpt><trkpt lat="43.155625" lon="2.09048"><ele>254.0</ele><time>2026-05-01T16:33:00.998Z</time></trkpt><trkpt lat="43.1555183" lon="2.09059"><ele>254.0</ele><time>2026-05-01T16:33:01.998Z</time></trkpt><trkpt lat="43.1554133" lon="2.0906917"><ele>253.99999999999997</ele><time>2026-05-01T16:33:03.003Z</time></trkpt><trkpt lat="43.1553083" lon="2.0907617"><ele>253.99999999999997</ele><time>2026-05-01T16:33:03.997Z</time></trkpt><trkpt lat="43.1552083" lon="2.0908083"><ele>254.0</ele><time>2026-05-01T16:33:04.998Z</time></trkpt><trkpt lat="43.15512" lon="2.0908417"><ele>254.0</ele><time>2026-05-01T16:33:05.996Z</time></trkpt><trkpt lat="43.1550383" lon="2.0909117"><ele>254.39999999999998</ele><time>2026-05-01T16:33:06.999Z</time></trkpt><trkpt lat="43.1549683" lon="2.091005"><ele>254.79999999999998</ele><time>2026-05-01T16:33:07.997Z</time></trkpt><trkpt lat="43.1549217" lon="2.0911283"><ele>255.20000000000002</ele><time>2026-05-01T16:33:09Z</time></trkpt><trkpt lat="43.1548783" lon="2.09124"><ele>255.60000000000002</ele><time>2026-05-01T16:33:09.997Z</time></trkpt><trkpt lat="43.1548267" lon="2.0913417"><ele>256.0</ele><time>2026-05-01T16:33:10.997Z</time></trkpt><trkpt lat="43.1547583" lon="2.0914233"><ele>256.25</ele><time>2026-05-01T16:33:11.997Z</time></trkpt><trkpt lat="43.1546533" lon="2.0914583"><ele>256.5</ele><time>2026-05-01T16:33:12.998Z</time></trkpt><trkpt lat="43.1545283" lon="2.0914583"><ele>256.75</ele><time>2026-05-01T16:33:14Z</time></trkpt><trkpt lat="43.15439" lon="2.0914517"><ele>257.0</ele><time>2026-05-01T16:33:14.997Z</time></trkpt><trkpt lat="43.154255" lon="2.0914483"><ele>257.0</ele><time>2026-05-01T16:33:15.996Z</time></trkpt><trkpt lat="43.15412" lon="2.091445"><ele>257.0</ele><time>2026-05-01T16:33:16.996Z</time></trkpt><trkpt lat="43.1539817" lon="2.0914417"><ele>257.0</ele><time>2026-05-01T16:33:17.997Z</time></trkpt><trkpt lat="43.153845" lon="2.091435"><ele>257.0</ele><time>2026-05-01T16:33:19Z</time></trkpt><trkpt lat="43.153715" lon="2.0914167"><ele>258.8</ele><time>2026-05-01T16:33:20Z</time></trkpt><trkpt lat="43.15359" lon="2.09138"><ele>260.6</ele><time>2026-05-01T16:33:20.998Z</time></trkpt><trkpt lat="43.15348" lon="2.09133"><ele>262.40000000000003</ele><time>2026-05-01T16:33:21.997Z</time></trkpt><trkpt lat="43.1533833" lon="2.0912817"><ele>264.2</ele><time>2026-05-01T16:33:22.998Z</time></trkpt><trkpt lat="43.1533033" lon="2.0912317"><ele>266.0</ele><time>2026-05-01T16:33:23.998Z</time></trkpt><trkpt lat="43.1532283" lon="2.0911933"><ele>266.1666666666667</ele><time>2026-05-01T16:33:24.997Z</time></trkpt><trkpt lat="43.153165" lon="2.0911517"><ele>266.33333333333337</ele><time>2026-05-01T16:33:25.996Z</time></trkpt><trkpt lat="43.1531067" lon="2.0911017"><ele>266.5</ele><time>2026-05-01T16:33:26.998Z</time></trkpt><trkpt lat="43.1530417" lon="2.0910417"><ele>266.6666666666667</ele><time>2026-05-01T16:33:27.998Z</time></trkpt><trkpt lat="43.1529733" lon="2.0909817"><ele>266.8333333333333</ele><time>2026-05-01T16:33:28.997Z</time></trkpt><trkpt lat="43.1529" lon="2.0909133"><ele>267.0</ele><time>2026-05-01T16:33:29.999Z</time></trkpt><trkpt lat="43.152825" lon="2.090845"><ele>267.0</ele><time>2026-05-01T16:33:30.998Z</time></trkpt><trkpt lat="43.152755" lon="2.0907633"><ele>267.0</ele><time>2026-05-01T16:33:31.998Z</time></trkpt><trkpt lat="43.1526767" lon="2.0906733"><ele>267.0</ele><time>2026-05-01T16:33:32.998Z</time></trkpt><trkpt lat="43.1525967" lon="2.0905883"><ele>267.0</ele><time>2026-05-01T16:33:33.997Z</time></trkpt><trkpt lat="43.1525217" lon="2.090515"><ele>267.0</ele><time>2026-05-01T16:33:35.002Z</time></trkpt><trkpt lat="43.152455" lon="2.0904567"><ele>267.0</ele><time>2026-05-01T16:33:35.997Z</time></trkpt><trkpt lat="43.1524" lon="2.0904083"><ele>267.0</ele><time>2026-05-01T16:33:36.998Z</time></trkpt><trkpt lat="43.15231" lon="2.0903083"><ele>267.0</ele><time>2026-05-01T16:33:38.998Z</time></trkpt><trkpt lat="43.15223" lon="2.0902167"><ele>267.0</ele><time>2026-05-01T16:33:40.997Z</time></trkpt><trkpt lat="43.1521483" lon="2.090155"><ele>267.0</ele><time>2026-05-01T16:33:42.997Z</time></trkpt><trkpt lat="43.152055" lon="2.090075"><ele>266.0</ele><time>2026-05-01T16:33:44.997Z</time></trkpt><trkpt lat="43.1519867" lon="2.09001"><ele>265.0</ele><time>2026-05-01T16:33:46.997Z</time></trkpt><trkpt lat="43.1519167" lon="2.0899367"><ele>264.0</ele><time>2026-05-01T16:33:52.998Z</time></trkpt><trkpt lat="43.1518567" lon="2.0899717"><ele>263.0</ele><time>2026-05-01T16:33:54.997Z</time></trkpt><trkpt lat="43.151815" lon="2.0900933"><ele>262.0</ele><time>2026-05-01T16:33:56.997Z</time></trkpt><trkpt lat="43.1517883" lon="2.09018"><ele>261.0</ele><time>2026-05-01T16:33:57.997Z</time></trkpt><trkpt lat="43.15176" lon="2.0902717"><ele>261.0</ele><time>2026-05-01T16:33:58.998Z</time></trkpt><trkpt lat="43.1517283" lon="2.09037"><ele>261.0</ele><time>2026-05-01T16:34:00.002Z</time></trkpt><trkpt lat="43.15171" lon="2.0904833"><ele>261.0</ele><time>2026-05-01T16:34:00.997Z</time></trkpt><trkpt lat="43.1516817" lon="2.090615"><ele>261.0</ele><time>2026-05-01T16:34:01.997Z</time></trkpt><trkpt lat="43.1516667" lon="2.09075"><ele>261.0</ele><time>2026-05-01T16:34:02.998Z</time></trkpt><trkpt lat="43.15167" lon="2.0908817"><ele>260.5</ele><time>2026-05-01T16:34:03.998Z</time></trkpt><trkpt lat="43.151685" lon="2.0910333"><ele>260.0</ele><time>2026-05-01T16:34:04.998Z</time></trkpt><trkpt lat="43.1517067" lon="2.0911933"><ele>259.5</ele><time>2026-05-01T16:34:05.997Z</time></trkpt><trkpt lat="43.1517333" lon="2.0913633"><ele>259.0</ele><time>2026-05-01T16:34:06.999Z</time></trkpt><trkpt lat="43.1517667" lon="2.0915433"><ele>258.25</ele><time>2026-05-01T16:34:07.999Z</time></trkpt><trkpt lat="43.1518" lon="2.0917333"><ele>257.5</ele><time>2026-05-01T16:34:09.007Z</time></trkpt><trkpt lat="43.1518483" lon="2.0919333"><ele>256.75</ele><time>2026-05-01T16:34:09.997Z</time></trkpt><trkpt lat="43.1518833" lon="2.092135"><ele>256.0</ele><time>2026-05-01T16:34:10.997Z</time></trkpt><trkpt lat="43.151925" lon="2.0923317"><ele>255.0</ele><time>2026-05-01T16:34:11.997Z</time></trkpt><trkpt lat="43.1519583" lon="2.0925367"><ele>254.0</ele><time>2026-05-01T16:34:12.997Z</time></trkpt><trkpt lat="43.1519833" lon="2.09275"><ele>253.0</ele><time>2026-05-01T16:34:13.997Z</time></trkpt><trkpt lat="43.1520067" lon="2.092975"><ele>253.0</ele><time>2026-05-01T16:34:14.998Z</time></trkpt><trkpt lat="43.1520333" lon="2.0932117"><ele>253.0</ele><time>2026-05-01T16:34:15.996Z</time></trkpt><trkpt lat="43.1520533" lon="2.0934617"><ele>253.0</ele><time>2026-05-01T16:34:16.997Z</time></trkpt><trkpt lat="43.1520667" lon="2.093715"><ele>251.33333333333331</ele><time>2026-05-01T16:34:17.996Z</time></trkpt><trkpt lat="43.15208" lon="2.09397"><ele>249.66666666666669</ele><time>2026-05-01T16:34:19.002Z</time></trkpt><trkpt lat="43.1520883" lon="2.094225"><ele>248.0</ele><time>2026-05-01T16:34:19.997Z</time></trkpt><trkpt lat="43.1520983" lon="2.0944817"><ele>248.0</ele><time>2026-05-01T16:34:20.998Z</time></trkpt><trkpt lat="43.1521067" lon="2.094735"><ele>248.0</ele><time>2026-05-01T16:34:21.996Z</time></trkpt><trkpt lat="43.1521133" lon="2.0949867"><ele>248.0</ele><time>2026-05-01T16:34:22.997Z</time></trkpt><trkpt lat="43.1521133" lon="2.0952267"><ele>247.66666666666669</ele><time>2026-05-01T16:34:23.996Z</time></trkpt><trkpt lat="43.1520983" lon="2.0954483"><ele>247.33333333333331</ele><time>2026-05-01T16:34:25.001Z</time></trkpt><trkpt lat="43.152075" lon="2.0956733"><ele>247.0</ele><time>2026-05-01T16:34:25.998Z</time></trkpt><trkpt lat="43.1520417" lon="2.095895"><ele>248.0</ele><time>2026-05-01T16:34:26.999Z</time></trkpt><trkpt lat="43.15201" lon="2.0961167"><ele>249.0</ele><time>2026-05-01T16:34:27.997Z</time></trkpt><trkpt lat="43.1519833" lon="2.096335"><ele>250.0</ele><time>2026-05-01T16:34:28.998Z</time></trkpt><trkpt lat="43.1519667" lon="2.096555"><ele>250.66666666666666</ele><time>2026-05-01T16:34:29.999Z</time></trkpt><trkpt lat="43.15196" lon="2.0967833"><ele>251.33333333333331</ele><time>2026-05-01T16:34:30.999Z</time></trkpt><trkpt lat="43.1519583" lon="2.0970133"><ele>252.0</ele><time>2026-05-01T16:34:31.998Z</time></trkpt><trkpt lat="43.151955" lon="2.0972467"><ele>251.66666666666669</ele><time>2026-05-01T16:34:33Z</time></trkpt><trkpt lat="43.15195" lon="2.0974767"><ele>251.33333333333334</ele><time>2026-05-01T16:34:33.998Z</time></trkpt><trkpt lat="43.1519467" lon="2.0977"><ele>251.0</ele><time>2026-05-01T16:34:35.002Z</time></trkpt><trkpt lat="43.1519433" lon="2.0979167"><ele>251.0</ele><time>2026-05-01T16:34:35.998Z</time></trkpt><trkpt lat="43.151945" lon="2.0981233"><ele>251.0</ele><time>2026-05-01T16:34:36.998Z</time></trkpt><trkpt lat="43.15195" lon="2.0983267"><ele>251.0</ele><time>2026-05-01T16:34:37.999Z</time></trkpt><trkpt lat="43.15197" lon="2.0985283"><ele>251.0</ele><time>2026-05-01T16:34:38.999Z</time></trkpt><trkpt lat="43.152005" lon="2.0987217"><ele>251.0</ele><time>2026-05-01T16:34:40.002Z</time></trkpt><trkpt lat="43.1520483" lon="2.0989183"><ele>251.0</ele><time>2026-05-01T16:34:40.999Z</time></trkpt><trkpt lat="43.152105" lon="2.0991067"><ele>251.0</ele><time>2026-05-01T16:34:41.998Z</time></trkpt><trkpt lat="43.15217" lon="2.0993017"><ele>251.0</ele><time>2026-05-01T16:34:43Z</time></trkpt><trkpt lat="43.1522367" lon="2.0995033"><ele>251.0</ele><time>2026-05-01T16:34:43.999Z</time></trkpt><trkpt lat="43.1522883" lon="2.09972"><ele>251.0</ele><time>2026-05-01T16:34:44.998Z</time></trkpt><trkpt lat="43.152325" lon="2.0999517"><ele>250.0</ele><time>2026-05-01T16:34:45.998Z</time></trkpt><trkpt lat="43.1523633" lon="2.1001883"><ele>249.0</ele><time>2026-05-01T16:34:46.998Z</time></trkpt><trkpt lat="43.1524" lon="2.100425"><ele>248.0</ele><time>2026-05-01T16:34:47.998Z</time></trkpt><trkpt lat="43.1524467" lon="2.1006517"><ele>251.66666666666669</ele><time>2026-05-01T16:34:48.997Z</time></trkpt><trkpt lat="43.1524967" lon="2.1008767"><ele>255.33333333333331</ele><time>2026-05-01T16:34:49.999Z</time></trkpt><trkpt lat="43.152545" lon="2.1010933"><ele>259.0</ele><time>2026-05-01T16:34:50.999Z</time></trkpt><trkpt lat="43.15259" lon="2.1013083"><ele>259.0</ele><time>2026-05-01T16:34:51.998Z</time></trkpt><trkpt lat="43.152635" lon="2.1015133"><ele>259.0</ele><time>2026-05-01T16:34:52.997Z</time></trkpt><trkpt lat="43.152675" lon="2.1016983"><ele>259.0</ele><time>2026-05-01T16:34:53.998Z</time></trkpt><trkpt lat="43.152715" lon="2.1018733"><ele>259.0</ele><time>2026-05-01T16:34:54.997Z</time></trkpt><trkpt lat="43.1527517" lon="2.1020233"><ele>259.0</ele><time>2026-05-01T16:34:55.997Z</time></trkpt><trkpt lat="43.1527717" lon="2.1021633"><ele>259.0</ele><time>2026-05-01T16:34:56.997Z</time></trkpt><trkpt lat="43.15276" lon="2.1022867"><ele>259.0</ele><time>2026-05-01T16:34:57.997Z</time></trkpt><trkpt lat="43.1527283" lon="2.1023983"><ele>259.0</ele><time>2026-05-01T16:34:58.997Z</time></trkpt><trkpt lat="43.1526517" lon="2.102485"><ele>259.0</ele><time>2026-05-01T16:34:59.996Z</time></trkpt><trkpt lat="43.152555" lon="2.10257"><ele>259.0</ele><time>2026-05-01T16:35:00.998Z</time></trkpt><trkpt lat="43.15245" lon="2.102665"><ele>259.0</ele><time>2026-05-01T16:35:01.998Z</time></trkpt><trkpt lat="43.1523433" lon="2.10277"><ele>259.0</ele><time>2026-05-01T16:35:02.999Z</time></trkpt><trkpt lat="43.15224" lon="2.102895"><ele>259.0</ele><time>2026-05-01T16:35:03.999Z</time></trkpt><trkpt lat="43.152145" lon="2.10304"><ele>256.5</ele><time>2026-05-01T16:35:04.996Z</time></trkpt><trkpt lat="43.15206" lon="2.103195"><ele>254.0</ele><time>2026-05-01T16:35:05.997Z</time></trkpt><trkpt lat="43.15198" lon="2.1033633"><ele>251.5</ele><time>2026-05-01T16:35:06.997Z</time></trkpt><trkpt lat="43.1519017" lon="2.1035383"><ele>249.0</ele><time>2026-05-01T16:35:07.997Z</time></trkpt><trkpt lat="43.151825" lon="2.10372"><ele>249.0</ele><time>2026-05-01T16:35:08.998Z</time></trkpt><trkpt lat="43.1517533" lon="2.103905"><ele>249.0</ele><time>2026-05-01T16:35:09.997Z</time></trkpt><trkpt lat="43.1516883" lon="2.1040983"><ele>249.0</ele><time>2026-05-01T16:35:10.998Z</time></trkpt><trkpt lat="43.151635" lon="2.1042967"><ele>249.33333333333331</ele><time>2026-05-01T16:35:11.997Z</time></trkpt><trkpt lat="43.1515833" lon="2.1045"><ele>249.66666666666666</ele><time>2026-05-01T16:35:12.997Z</time></trkpt><trkpt lat="43.1515433" lon="2.1047067"><ele>250.0</ele><time>2026-05-01T16:35:13.998Z</time></trkpt><trkpt lat="43.151505" lon="2.1049183"><ele>248.0</ele><time>2026-05-01T16:35:14.997Z</time></trkpt><trkpt lat="43.1514683" lon="2.1051283"><ele>246.0</ele><time>2026-05-01T16:35:15.996Z</time></trkpt><trkpt lat="43.15143" lon="2.1053367"><ele>244.0</ele><time>2026-05-01T16:35:16.996Z</time></trkpt><trkpt lat="43.1513917" lon="2.1055417"><ele>245.25</ele><time>2026-05-01T16:35:17.998Z</time></trkpt><trkpt lat="43.1513517" lon="2.1057467"><ele>246.5</ele><time>2026-05-01T16:35:18.996Z</time></trkpt><trkpt lat="43.1513167" lon="2.105935"><ele>247.75</ele><time>2026-05-01T16:35:19.998Z</time></trkpt><trkpt lat="43.1512833" lon="2.1061133"><ele>249.0</ele><time>2026-05-01T16:35:20.997Z</time></trkpt><trkpt lat="43.1512567" lon="2.1062717"><ele>249.0</ele><time>2026-05-01T16:35:21.997Z</time></trkpt><trkpt lat="43.15124" lon="2.1064283"><ele>249.0</ele><time>2026-05-01T16:35:22.998Z</time></trkpt><trkpt lat="43.151245" lon="2.1065867"><ele>249.0</ele><time>2026-05-01T16:35:23.998Z</time></trkpt><trkpt lat="43.1512767" lon="2.106755"><ele>249.0</ele><time>2026-05-01T16:35:24.997Z</time></trkpt><trkpt lat="43.15133" lon="2.1069167"><ele>248.75</ele><time>2026-05-01T16:35:25.998Z</time></trkpt><trkpt lat="43.1514067" lon="2.1070683"><ele>248.5</ele><time>2026-05-01T16:35:26.997Z</time></trkpt><trkpt lat="43.151495" lon="2.1072133"><ele>248.25</ele><time>2026-05-01T16:35:27.997Z</time></trkpt><trkpt lat="43.151585" lon="2.1073583"><ele>248.0</ele><time>2026-05-01T16:35:28.997Z</time></trkpt><trkpt lat="43.1516733" lon="2.1075083"><ele>248.0</ele><time>2026-05-01T16:35:29.996Z</time></trkpt><trkpt lat="43.151765" lon="2.107655"><ele>248.0</ele><time>2026-05-01T16:35:30.997Z</time></trkpt><trkpt lat="43.1518583" lon="2.1078"><ele>248.0</ele><time>2026-05-01T16:35:31.997Z</time></trkpt><trkpt lat="43.1519533" lon="2.1079433"><ele>248.0</ele><time>2026-05-01T16:35:32.998Z</time></trkpt><trkpt lat="43.1520467" lon="2.108085"><ele>248.0</ele><time>2026-05-01T16:35:33.997Z</time></trkpt><trkpt lat="43.1521383" lon="2.1082233"><ele>248.0</ele><time>2026-05-01T16:35:35.004Z</time></trkpt><trkpt lat="43.1522283" lon="2.10836"><ele>248.0</ele><time>2026-05-01T16:35:35.997Z</time></trkpt><trkpt lat="43.1523217" lon="2.1084917"><ele>248.0</ele><time>2026-05-01T16:35:36.999Z</time></trkpt><trkpt lat="43.15242" lon="2.1086117"><ele>246.25</ele><time>2026-05-01T16:35:37.996Z</time></trkpt><trkpt lat="43.15252" lon="2.10872"><ele>244.5</ele><time>2026-05-01T16:35:38.997Z</time></trkpt><trkpt lat="43.1526233" lon="2.1088233"><ele>242.75</ele><time>2026-05-01T16:35:39.998Z</time></trkpt><trkpt lat="43.1527267" lon="2.1089267"><ele>241.0</ele><time>2026-05-01T16:35:40.998Z</time></trkpt><trkpt lat="43.1528267" lon="2.1090283"><ele>240.75</ele><time>2026-05-01T16:35:41.996Z</time></trkpt><trkpt lat="43.15293" lon="2.1091217"><ele>240.5</ele><time>2026-05-01T16:35:42.997Z</time></trkpt><trkpt lat="43.153035" lon="2.10921"><ele>240.25</ele><time>2026-05-01T16:35:43.997Z</time></trkpt><trkpt lat="43.153145" lon="2.1092933"><ele>240.0</ele><time>2026-05-01T16:35:44.997Z</time></trkpt><trkpt lat="43.1532567" lon="2.1093817"><ele>239.5</ele><time>2026-05-01T16:35:46Z</time></trkpt><trkpt lat="43.1533667" lon="2.1094817"><ele>239.0</ele><time>2026-05-01T16:35:46.996Z</time></trkpt><trkpt lat="43.1534767" lon="2.1095933"><ele>238.5</ele><time>2026-05-01T16:35:47.999Z</time></trkpt><trkpt lat="43.1535883" lon="2.1097133"><ele>238.0</ele><time>2026-05-01T16:35:49.004Z</time></trkpt><trkpt lat="43.1537033" lon="2.10984"><ele>238.33333333333331</ele><time>2026-05-01T16:35:50Z</time></trkpt><trkpt lat="43.1538217" lon="2.1099733"><ele>238.66666666666669</ele><time>2026-05-01T16:35:51Z</time></trkpt><trkpt lat="43.1539367" lon="2.1101117"><ele>239.0</ele><time>2026-05-01T16:35:51.997Z</time></trkpt><trkpt lat="43.154055" lon="2.1102533"><ele>237.33333333333334</ele><time>2026-05-01T16:35:52.997Z</time></trkpt><trkpt lat="43.1541733" lon="2.110395"><ele>235.66666666666669</ele><time>2026-05-01T16:35:53.999Z</time></trkpt><trkpt lat="43.1542933" lon="2.11054"><ele>234.0</ele><time>2026-05-01T16:35:55.001Z</time></trkpt><trkpt lat="43.154415" lon="2.110685"><ele>234.0</ele><time>2026-05-01T16:35:55.998Z</time></trkpt><trkpt lat="43.15454" lon="2.11083"><ele>234.0</ele><time>2026-05-01T16:35:56.997Z</time></trkpt><trkpt lat="43.1546633" lon="2.11098"><ele>234.0</ele><time>2026-05-01T16:35:57.996Z</time></trkpt><trkpt lat="43.1547883" lon="2.111125"><ele>232.33333333333331</ele><time>2026-05-01T16:35:58.997Z</time></trkpt><trkpt lat="43.1549117" lon="2.1112667"><ele>230.66666666666666</ele><time>2026-05-01T16:35:59.998Z</time></trkpt><trkpt lat="43.1550367" lon="2.1113983"><ele>229.0</ele><time>2026-05-01T16:36:00.998Z</time></trkpt><trkpt lat="43.1551567" lon="2.1115133"><ele>229.5</ele><time>2026-05-01T16:36:01.998Z</time></trkpt><trkpt lat="43.15527" lon="2.1116083"><ele>230.0</ele><time>2026-05-01T16:36:02.998Z</time></trkpt><trkpt lat="43.15538" lon="2.1116967"><ele>230.5</ele><time>2026-05-01T16:36:03.997Z</time></trkpt><trkpt lat="43.1554817" lon="2.1117783"><ele>231.0</ele><time>2026-05-01T16:36:04.998Z</time></trkpt><trkpt lat="43.1555733" lon="2.1118567"><ele>231.0</ele><time>2026-05-01T16:36:05.997Z</time></trkpt><trkpt lat="43.1556583" lon="2.1119283"><ele>231.0</ele><time>2026-05-01T16:36:06.998Z</time></trkpt><trkpt lat="43.15574" lon="2.1119967"><ele>231.0</ele><time>2026-05-01T16:36:07.997Z</time></trkpt><trkpt lat="43.15581" lon="2.1120533"><ele>231.0</ele><time>2026-05-01T16:36:09Z</time></trkpt><trkpt lat="43.155875" lon="2.1121033"><ele>231.0</ele><time>2026-05-01T16:36:09.998Z</time></trkpt><trkpt lat="43.155935" lon="2.1121483"><ele>231.0</ele><time>2026-05-01T16:36:10.997Z</time></trkpt><trkpt lat="43.1560233" lon="2.1122433"><ele>230.8</ele><time>2026-05-01T16:36:12.997Z</time></trkpt><trkpt lat="43.1560717" lon="2.1123317"><ele>230.60000000000002</ele><time>2026-05-01T16:36:14.997Z</time></trkpt><trkpt lat="43.1561283" lon="2.112415"><ele>230.4</ele><time>2026-05-01T16:36:16.998Z</time></trkpt><trkpt lat="43.156235" lon="2.1125167"><ele>230.2</ele><time>2026-05-01T16:36:18.997Z</time></trkpt><trkpt lat="43.1563083" lon="2.1125583"><ele>230.0</ele><time>2026-05-01T16:36:19.998Z</time></trkpt><trkpt lat="43.1563933" lon="2.1125917"><ele>230.0</ele><time>2026-05-01T16:36:20.997Z</time></trkpt><trkpt lat="43.1564867" lon="2.1126267"><ele>230.0</ele><time>2026-05-01T16:36:21.998Z</time></trkpt><trkpt lat="43.1565817" lon="2.112665"><ele>230.0</ele><time>2026-05-01T16:36:22.997Z</time></trkpt><trkpt lat="43.1566733" lon="2.112705"><ele>230.0</ele><time>2026-05-01T16:36:23.997Z</time></trkpt><trkpt lat="43.1567617" lon="2.112745"><ele>230.0</ele><time>2026-05-01T16:36:24.997Z</time></trkpt><trkpt lat="43.1568533" lon="2.1127817"><ele>229.16666666666669</ele><time>2026-05-01T16:36:25.998Z</time></trkpt><trkpt lat="43.1569483" lon="2.112815"><ele>228.33333333333334</ele><time>2026-05-01T16:36:27Z</time></trkpt><trkpt lat="43.1570417" lon="2.1128483"><ele>227.5</ele><time>2026-05-01T16:36:27.997Z</time></trkpt><trkpt lat="43.157135" lon="2.1128817"><ele>226.66666666666669</ele><time>2026-05-01T16:36:28.997Z</time></trkpt><trkpt lat="43.1572133" lon="2.112915"><ele>225.83333333333334</ele><time>2026-05-01T16:36:29.997Z</time></trkpt><trkpt lat="43.1572833" lon="2.1129433"><ele>225.0</ele><time>2026-05-01T16:36:30.997Z</time></trkpt><trkpt lat="43.1573733" lon="2.1130133"><ele>225.0</ele><time>2026-05-01T16:36:32.997Z</time></trkpt><trkpt lat="43.1573467" lon="2.11314"><ele>225.0</ele><time>2026-05-01T16:36:35.004Z</time></trkpt><trkpt lat="43.157305" lon="2.1132083"><ele>225.0</ele><time>2026-05-01T16:36:35.996Z</time></trkpt><trkpt lat="43.1572467" lon="2.113275"><ele>225.0</ele><time>2026-05-01T16:36:36.998Z</time></trkpt><trkpt lat="43.15718" lon="2.1133317"><ele>225.0</ele><time>2026-05-01T16:36:37.997Z</time></trkpt><trkpt lat="43.1571017" lon="2.1133833"><ele>225.0</ele><time>2026-05-01T16:36:38.997Z</time></trkpt><trkpt lat="43.157015" lon="2.11343"><ele>225.6</ele><time>2026-05-01T16:36:39.997Z</time></trkpt><trkpt lat="43.156925" lon="2.1134817"><ele>226.2</ele><time>2026-05-01T16:36:40.997Z</time></trkpt><trkpt lat="43.15683" lon="2.113545"><ele>226.8</ele><time>2026-05-01T16:36:41.997Z</time></trkpt><trkpt lat="43.1567383" lon="2.1136117"><ele>227.4</ele><time>2026-05-01T16:36:43Z</time></trkpt><trkpt lat="43.1566417" lon="2.1136833"><ele>228.0</ele><time>2026-05-01T16:36:43.998Z</time></trkpt><trkpt lat="43.156535" lon="2.1137667"><ele>228.0</ele><time>2026-05-01T16:36:44.998Z</time></trkpt><trkpt lat="43.156425" lon="2.1138517"><ele>228.0</ele><time>2026-05-01T16:36:45.997Z</time></trkpt><trkpt lat="43.15631" lon="2.113945"><ele>228.0</ele><time>2026-05-01T16:36:46.996Z</time></trkpt><trkpt lat="43.1561983" lon="2.114045"><ele>228.0</ele><time>2026-05-01T16:36:47.998Z</time></trkpt><trkpt lat="43.156095" lon="2.1141567"><ele>227.75</ele><time>2026-05-01T16:36:48.998Z</time></trkpt><trkpt lat="43.1559917" lon="2.1142817"><ele>227.5</ele><time>2026-05-01T16:36:49.997Z</time></trkpt><trkpt lat="43.155885" lon="2.1144217"><ele>227.25</ele><time>2026-05-01T16:36:51Z</time></trkpt><trkpt lat="43.1557733" lon="2.1145717"><ele>227.0</ele><time>2026-05-01T16:36:51.997Z</time></trkpt><trkpt lat="43.1556567" lon="2.1147383"><ele>226.66666666666669</ele><time>2026-05-01T16:36:52.998Z</time></trkpt><trkpt lat="43.15554" lon="2.1149017"><ele>226.33333333333331</ele><time>2026-05-01T16:36:53.998Z</time></trkpt><trkpt lat="43.1554267" lon="2.1150583"><ele>226.0</ele><time>2026-05-01T16:36:54.998Z</time></trkpt><trkpt lat="43.155315" lon="2.11522"><ele>225.33333333333331</ele><time>2026-05-01T16:36:55.997Z</time></trkpt><trkpt lat="43.1552017" lon="2.1153767"><ele>224.66666666666669</ele><time>2026-05-01T16:36:56.997Z</time></trkpt><trkpt lat="43.1550917" lon="2.115535"><ele>224.0</ele><time>2026-05-01T16:36:57.996Z</time></trkpt><trkpt lat="43.1549883" lon="2.1157067"><ele>224.0</ele><time>2026-05-01T16:36:58.998Z</time></trkpt><trkpt lat="43.1548967" lon="2.1158933"><ele>224.0</ele><time>2026-05-01T16:37:00.001Z</time></trkpt><trkpt lat="43.1548183" lon="2.1161033"><ele>224.0</ele><time>2026-05-01T16:37:01.002Z</time></trkpt><trkpt lat="43.1547467" lon="2.1163317"><ele>224.0</ele><time>2026-05-01T16:37:01.997Z</time></trkpt><trkpt lat="43.1546767" lon="2.1165667"><ele>224.0</ele><time>2026-05-01T16:37:02.998Z</time></trkpt><trkpt lat="43.1546133" lon="2.116805"><ele>224.0</ele><time>2026-05-01T16:37:03.999Z</time></trkpt><trkpt lat="43.1545517" lon="2.1170467"><ele>224.0</ele><time>2026-05-01T16:37:04.999Z</time></trkpt><trkpt lat="43.15449" lon="2.1172883"><ele>224.0</ele><time>2026-05-01T16:37:05.999Z</time></trkpt><trkpt lat="43.1544267" lon="2.1175317"><ele>224.0</ele><time>2026-05-01T16:37:06.997Z</time></trkpt><trkpt lat="43.1543583" lon="2.1177717"><ele>224.0</ele><time>2026-05-01T16:37:07.997Z</time></trkpt><trkpt lat="43.15428" lon="2.11801"><ele>224.0</ele><time>2026-05-01T16:37:08.998Z</time></trkpt><trkpt lat="43.1541967" lon="2.1182433"><ele>224.0</ele><time>2026-05-01T16:37:09.997Z</time></trkpt><trkpt lat="43.15411" lon="2.118475"><ele>223.33333333333334</ele><time>2026-05-01T16:37:10.996Z</time></trkpt><trkpt lat="43.1540267" lon="2.118705"><ele>222.66666666666669</ele><time>2026-05-01T16:37:11.997Z</time></trkpt><trkpt lat="43.153945" lon="2.1189383"><ele>222.0</ele><time>2026-05-01T16:37:12.997Z</time></trkpt><trkpt lat="43.15387" lon="2.1191683"><ele>221.66666666666669</ele><time>2026-05-01T16:37:13.997Z</time></trkpt><trkpt lat="43.1538" lon="2.1193867"><ele>221.33333333333334</ele><time>2026-05-01T16:37:14.999Z</time></trkpt><trkpt lat="43.1537283" lon="2.119595"><ele>221.0</ele><time>2026-05-01T16:37:15.998Z</time></trkpt><trkpt lat="43.1536533" lon="2.1197867"><ele>220.75</ele><time>2026-05-01T16:37:17.002Z</time></trkpt><trkpt lat="43.153575" lon="2.1199617"><ele>220.5</ele><time>2026-05-01T16:37:17.998Z</time></trkpt><trkpt lat="43.15348" lon="2.12011"><ele>220.25</ele><time>2026-05-01T16:37:18.997Z</time></trkpt><trkpt lat="43.1533583" lon="2.12023"><ele>220.0</ele><time>2026-05-01T16:37:19.997Z</time></trkpt><trkpt lat="43.1532183" lon="2.1203167"><ele>219.66666666666666</ele><time>2026-05-01T16:37:21.002Z</time></trkpt><trkpt lat="43.15306" lon="2.1203983"><ele>219.33333333333331</ele><time>2026-05-01T16:37:21.997Z</time></trkpt><trkpt lat="43.1529" lon="2.120475"><ele>219.0</ele><time>2026-05-01T16:37:23.005Z</time></trkpt><trkpt lat="43.1527433" lon="2.1205483"><ele>219.0</ele><time>2026-05-01T16:37:23.998Z</time></trkpt><trkpt lat="43.15259" lon="2.120625"><ele>219.0</ele><time>2026-05-01T16:37:25Z</time></trkpt><trkpt lat="43.1524317" lon="2.1206983"><ele>219.0</ele><time>2026-05-01T16:37:25.997Z</time></trkpt><trkpt lat="43.1522717" lon="2.1207717"><ele>219.0</ele><time>2026-05-01T16:37:26.999Z</time></trkpt><trkpt lat="43.1521067" lon="2.1208483"><ele>219.0</ele><time>2026-05-01T16:37:27.998Z</time></trkpt><trkpt lat="43.15194" lon="2.1209283"><ele>219.0</ele><time>2026-05-01T16:37:28.997Z</time></trkpt><trkpt lat="43.15177" lon="2.1210083"><ele>219.0</ele><time>2026-05-01T16:37:29.997Z</time></trkpt><trkpt lat="43.1516" lon="2.12109"><ele>219.0</ele><time>2026-05-01T16:37:30.997Z</time></trkpt><trkpt lat="43.15143" lon="2.12118"><ele>219.0</ele><time>2026-05-01T16:37:32Z</time></trkpt><trkpt lat="43.151265" lon="2.12126"><ele>219.0</ele><time>2026-05-01T16:37:32.997Z</time></trkpt><trkpt lat="43.1511117" lon="2.1213333"><ele>219.0</ele><time>2026-05-01T16:37:33.997Z</time></trkpt><trkpt lat="43.1509717" lon="2.1214083"><ele>219.0</ele><time>2026-05-01T16:37:34.998Z</time></trkpt><trkpt lat="43.1508383" lon="2.1214667"><ele>219.0</ele><time>2026-05-01T16:37:35.997Z</time></trkpt><trkpt lat="43.150715" lon="2.1215333"><ele>219.0</ele><time>2026-05-01T16:37:36.997Z</time></trkpt><trkpt lat="43.1506" lon="2.121605"><ele>219.0</ele><time>2026-05-01T16:37:37.997Z</time></trkpt><trkpt lat="43.1504817" lon="2.12168"><ele>219.0</ele><time>2026-05-01T16:37:38.998Z</time></trkpt><trkpt lat="43.1503717" lon="2.12177"><ele>219.25</ele><time>2026-05-01T16:37:39.998Z</time></trkpt><trkpt lat="43.150265" lon="2.1218717"><ele>219.5</ele><time>2026-05-01T16:37:40.996Z</time></trkpt><trkpt lat="43.150155" lon="2.1219833"><ele>219.75</ele><time>2026-05-01T16:37:41.996Z</time></trkpt><trkpt lat="43.150045" lon="2.1220917"><ele>220.0</ele><time>2026-05-01T16:37:42.997Z</time></trkpt><trkpt lat="43.149945" lon="2.1221883"><ele>220.25</ele><time>2026-05-01T16:37:43.997Z</time></trkpt><trkpt lat="43.149845" lon="2.1222867"><ele>220.5</ele><time>2026-05-01T16:37:45.004Z</time></trkpt><trkpt lat="43.1497383" lon="2.1223717"><ele>220.75</ele><time>2026-05-01T16:37:45.998Z</time></trkpt><trkpt lat="43.14963" lon="2.1224283"><ele>221.0</ele><time>2026-05-01T16:37:46.997Z</time></trkpt><trkpt lat="43.149525" lon="2.122465"><ele>220.66666666666669</ele><time>2026-05-01T16:37:47.996Z</time></trkpt><trkpt lat="43.14943" lon="2.122495"><ele>220.33333333333334</ele><time>2026-05-01T16:37:48.997Z</time></trkpt><trkpt lat="43.14934" lon="2.1225217"><ele>220.0</ele><time>2026-05-01T16:37:49.997Z</time></trkpt><trkpt lat="43.1492667" lon="2.1225667"><ele>219.66666666666669</ele><time>2026-05-01T16:37:50.997Z</time></trkpt><trkpt lat="43.1492067" lon="2.122625"><ele>219.33333333333334</ele><time>2026-05-01T16:37:51.996Z</time></trkpt><trkpt lat="43.14917" lon="2.1227"><ele>219.0</ele><time>2026-05-01T16:37:52.996Z</time></trkpt><trkpt lat="43.1491733" lon="2.1227867"><ele>219.0</ele><time>2026-05-01T16:37:53.997Z</time></trkpt><trkpt lat="43.1491867" lon="2.122885"><ele>219.0</ele><time>2026-05-01T16:37:54.998Z</time></trkpt><trkpt lat="43.1492233" lon="2.12299"><ele>219.0</ele><time>2026-05-01T16:37:55.998Z</time></trkpt><trkpt lat="43.14925" lon="2.1231017"><ele>219.0</ele><time>2026-05-01T16:37:56.997Z</time></trkpt><trkpt lat="43.1492783" lon="2.1232233"><ele>219.0</ele><time>2026-05-01T16:37:57.998Z</time></trkpt><trkpt lat="43.14929" lon="2.1233567"><ele>219.0</ele><time>2026-05-01T16:37:58.997Z</time></trkpt><trkpt lat="43.149285" lon="2.1235083"><ele>218.6</ele><time>2026-05-01T16:37:59.997Z</time></trkpt><trkpt lat="43.1492717" lon="2.1236683"><ele>218.2</ele><time>2026-05-01T16:38:00.997Z</time></trkpt><trkpt lat="43.14926" lon="2.123825"><ele>217.79999999999998</ele><time>2026-05-01T16:38:01.996Z</time></trkpt><trkpt lat="43.149255" lon="2.123975"><ele>217.39999999999998</ele><time>2026-05-01T16:38:02.997Z</time></trkpt><trkpt lat="43.1492433" lon="2.12412"><ele>217.0</ele><time>2026-05-01T16:38:03.997Z</time></trkpt><trkpt lat="43.14923" lon="2.1242683"><ele>217.0</ele><time>2026-05-01T16:38:05.004Z</time></trkpt><trkpt lat="43.1492183" lon="2.1244217"><ele>217.0</ele><time>2026-05-01T16:38:05.997Z</time></trkpt><trkpt lat="43.1492033" lon="2.1245767"><ele>217.0</ele><time>2026-05-01T16:38:06.996Z</time></trkpt><trkpt lat="43.1491933" lon="2.1247233"><ele>217.0</ele><time>2026-05-01T16:38:07.997Z</time></trkpt><trkpt lat="43.149175" lon="2.1248567"><ele>217.0</ele><time>2026-05-01T16:38:08.999Z</time></trkpt><trkpt lat="43.1491333" lon="2.124965"><ele>217.0</ele><time>2026-05-01T16:38:09.997Z</time></trkpt><trkpt lat="43.14907" lon="2.125055"><ele>217.0</ele><time>2026-05-01T16:38:10.997Z</time></trkpt><trkpt lat="43.1489617" lon="2.1250833"><ele>217.0</ele><time>2026-05-01T16:38:11.997Z</time></trkpt><trkpt lat="43.148845" lon="2.12507"><ele>217.0</ele><time>2026-05-01T16:38:12.998Z</time></trkpt><trkpt lat="43.1487117" lon="2.1250417"><ele>216.5</ele><time>2026-05-01T16:38:13.997Z</time></trkpt><trkpt lat="43.1485717" lon="2.1250133"><ele>216.0</ele><time>2026-05-01T16:38:14.997Z</time></trkpt><trkpt lat="43.14843" lon="2.1249917"><ele>215.5</ele><time>2026-05-01T16:38:15.997Z</time></trkpt><trkpt lat="43.1482783" lon="2.1249667"><ele>215.0</ele><time>2026-05-01T16:38:16.997Z</time></trkpt><trkpt lat="43.148125" lon="2.1249517"><ele>215.0</ele><time>2026-05-01T16:38:17.999Z</time></trkpt><trkpt lat="43.1479783" lon="2.1249467"><ele>215.0</ele><time>2026-05-01T16:38:18.997Z</time></trkpt><trkpt lat="43.1478317" lon="2.1249317"><ele>215.0</ele><time>2026-05-01T16:38:19.997Z</time></trkpt><trkpt lat="43.1476817" lon="2.1249167"><ele>215.0</ele><time>2026-05-01T16:38:20.997Z</time></trkpt><trkpt lat="43.1475333" lon="2.124905"><ele>215.33333333333334</ele><time>2026-05-01T16:38:22Z</time></trkpt><trkpt lat="43.1473817" lon="2.12489"><ele>215.66666666666669</ele><time>2026-05-01T16:38:22.998Z</time></trkpt><trkpt lat="43.1472283" lon="2.1248733"><ele>216.0</ele><time>2026-05-01T16:38:23.999Z</time></trkpt><trkpt lat="43.1470733" lon="2.12487"><ele>216.0</ele><time>2026-05-01T16:38:24.998Z</time></trkpt><trkpt lat="43.1469133" lon="2.12488"><ele>216.0</ele><time>2026-05-01T16:38:25.997Z</time></trkpt><trkpt lat="43.14675" lon="2.1249183"><ele>216.0</ele><time>2026-05-01T16:38:26.998Z</time></trkpt><trkpt lat="43.1465933" lon="2.124975"><ele>215.0</ele><time>2026-05-01T16:38:27.997Z</time></trkpt><trkpt lat="43.1464467" lon="2.1250467"><ele>214.0</ele><time>2026-05-01T16:38:28.998Z</time></trkpt><trkpt lat="43.1463117" lon="2.1251383"><ele>213.0</ele><time>2026-05-01T16:38:29.997Z</time></trkpt><trkpt lat="43.1461917" lon="2.1252467"><ele>213.0</ele><time>2026-05-01T16:38:30.997Z</time></trkpt><trkpt lat="43.1460933" lon="2.12537"><ele>213.0</ele><time>2026-05-01T16:38:31.997Z</time></trkpt><trkpt lat="43.1460067" lon="2.1254983"><ele>213.0</ele><time>2026-05-01T16:38:32.997Z</time></trkpt><trkpt lat="43.1459217" lon="2.1256117"><ele>213.0</ele><time>2026-05-01T16:38:33.996Z</time></trkpt><trkpt lat="43.1458317" lon="2.1257067"><ele>213.0</ele><time>2026-05-01T16:38:34.998Z</time></trkpt><trkpt lat="43.1457283" lon="2.1257833"><ele>213.0</ele><time>2026-05-01T16:38:36Z</time></trkpt><trkpt lat="43.1456117" lon="2.12584"><ele>213.0</ele><time>2026-05-01T16:38:36.997Z</time></trkpt><trkpt lat="43.1454867" lon="2.1258933"><ele>213.0</ele><time>2026-05-01T16:38:37.998Z</time></trkpt><trkpt lat="43.14535" lon="2.1259533"><ele>213.0</ele><time>2026-05-01T16:38:38.997Z</time></trkpt><trkpt lat="43.14522" lon="2.126"><ele>213.0</ele><time>2026-05-01T16:38:39.996Z</time></trkpt><trkpt lat="43.145095" lon="2.1260333"><ele>213.0</ele><time>2026-05-01T16:38:40.997Z</time></trkpt><trkpt lat="43.14498" lon="2.1260533"><ele>213.0</ele><time>2026-05-01T16:38:41.998Z</time></trkpt><trkpt lat="43.1448717" lon="2.126065"><ele>213.2</ele><time>2026-05-01T16:38:42.997Z</time></trkpt><trkpt lat="43.1447633" lon="2.1260733"><ele>213.4</ele><time>2026-05-01T16:38:43.997Z</time></trkpt><trkpt lat="43.144665" lon="2.1260783"><ele>213.59999999999997</ele><time>2026-05-01T16:38:44.998Z</time></trkpt><trkpt lat="43.1445733" lon="2.1260917"><ele>213.79999999999998</ele><time>2026-05-01T16:38:45.998Z</time></trkpt><trkpt lat="43.1444933" lon="2.126115"><ele>214.0</ele><time>2026-05-01T16:38:46.998Z</time></trkpt><trkpt lat="43.144425" lon="2.1261433"><ele>213.99999999999997</ele><time>2026-05-01T16:38:47.997Z</time></trkpt><trkpt lat="43.1443317" lon="2.1261733"><ele>214.0</ele><time>2026-05-01T16:38:49.999Z</time></trkpt><trkpt lat="43.1442617" lon="2.1262167"><ele>214.0</ele><time>2026-05-01T16:38:53.998Z</time></trkpt><trkpt lat="43.144255" lon="2.12631"><ele>214.0</ele><time>2026-05-01T16:38:55.996Z</time></trkpt><trkpt lat="43.1443017" lon="2.1264217"><ele>213.99999999999997</ele><time>2026-05-01T16:38:57.997Z</time></trkpt><trkpt lat="43.144355" lon="2.1265533"><ele>214.0</ele><time>2026-05-01T16:38:59.997Z</time></trkpt><trkpt lat="43.1443933" lon="2.1266383"><ele>214.0</ele><time>2026-05-01T16:39:00.997Z</time></trkpt><trkpt lat="43.1444383" lon="2.1267517"><ele>214.0</ele><time>2026-05-01T16:39:01.997Z</time></trkpt><trkpt lat="43.1445033" lon="2.126895"><ele>214.0</ele><time>2026-05-01T16:39:02.999Z</time></trkpt><trkpt lat="43.1445633" lon="2.1270367"><ele>214.0</ele><time>2026-05-01T16:39:03.997Z</time></trkpt><trkpt lat="43.1446217" lon="2.1271867"><ele>214.0</ele><time>2026-05-01T16:39:04.997Z</time></trkpt><trkpt lat="43.1446883" lon="2.1273683"><ele>214.0</ele><time>2026-05-01T16:39:05.998Z</time></trkpt><trkpt lat="43.1447467" lon="2.1275733"><ele>214.0</ele><time>2026-05-01T16:39:06.998Z</time></trkpt><trkpt lat="43.1447867" lon="2.1277767"><ele>214.0</ele><time>2026-05-01T16:39:07.996Z</time></trkpt><trkpt lat="43.14482" lon="2.12798"><ele>214.0</ele><time>2026-05-01T16:39:08.997Z</time></trkpt><trkpt lat="43.144845" lon="2.1281867"><ele>214.0</ele><time>2026-05-01T16:39:09.997Z</time></trkpt><trkpt lat="43.1448667" lon="2.128405"><ele>215.66666666666666</ele><time>2026-05-01T16:39:10.997Z</time></trkpt><trkpt lat="43.1448817" lon="2.1286233"><ele>217.33333333333331</ele><time>2026-05-01T16:39:11.996Z</time></trkpt><trkpt lat="43.1449" lon="2.12884"><ele>219.0</ele><time>2026-05-01T16:39:12.997Z</time></trkpt><trkpt lat="43.1449183" lon="2.1290733"><ele>220.0</ele><time>2026-05-01T16:39:13.997Z</time></trkpt><trkpt lat="43.1449383" lon="2.1293083"><ele>221.0</ele><time>2026-05-01T16:39:14.998Z</time></trkpt><trkpt lat="43.1449567" lon="2.1295433"><ele>222.0</ele><time>2026-05-01T16:39:15.998Z</time></trkpt><trkpt lat="43.14497" lon="2.1297767"><ele>223.0</ele><time>2026-05-01T16:39:16.997Z</time></trkpt><trkpt lat="43.144985" lon="2.1300183"><ele>224.0</ele><time>2026-05-01T16:39:17.997Z</time></trkpt><trkpt lat="43.1449983" lon="2.1302667"><ele>225.0</ele><time>2026-05-01T16:39:18.998Z</time></trkpt><trkpt lat="43.1450133" lon="2.1305117"><ele>226.33333333333331</ele><time>2026-05-01T16:39:19.997Z</time></trkpt><trkpt lat="43.1450317" lon="2.1307617"><ele>227.66666666666666</ele><time>2026-05-01T16:39:21Z</time></trkpt><trkpt lat="43.1450483" lon="2.13101"><ele>229.0</ele><time>2026-05-01T16:39:22.001Z</time></trkpt><trkpt lat="43.1450633" lon="2.131255"><ele>229.0</ele><time>2026-05-01T16:39:23.002Z</time></trkpt><trkpt lat="43.1450783" lon="2.1314983"><ele>229.0</ele><time>2026-05-01T16:39:23.999Z</time></trkpt><trkpt lat="43.145095" lon="2.1317383"><ele>229.0</ele><time>2026-05-01T16:39:24.997Z</time></trkpt><trkpt lat="43.1451133" lon="2.131975"><ele>230.33333333333331</ele><time>2026-05-01T16:39:25.997Z</time></trkpt><trkpt lat="43.1451317" lon="2.13221"><ele>231.66666666666669</ele><time>2026-05-01T16:39:26.998Z</time></trkpt><trkpt lat="43.1451517" lon="2.1324467"><ele>233.0</ele><time>2026-05-01T16:39:27.998Z</time></trkpt><trkpt lat="43.145175" lon="2.13268"><ele>233.0</ele><time>2026-05-01T16:39:29Z</time></trkpt><trkpt lat="43.1452067" lon="2.1329067"><ele>233.0</ele><time>2026-05-01T16:39:29.998Z</time></trkpt><trkpt lat="43.14525" lon="2.1331183"><ele>233.0</ele><time>2026-05-01T16:39:31.006Z</time></trkpt><trkpt lat="43.1453083" lon="2.1333167"><ele>233.25</ele><time>2026-05-01T16:39:32Z</time></trkpt><trkpt lat="43.14538" lon="2.1335017"><ele>233.5</ele><time>2026-05-01T16:39:32.998Z</time></trkpt><trkpt lat="43.145455" lon="2.133675"><ele>233.75</ele><time>2026-05-01T16:39:33.998Z</time></trkpt><trkpt lat="43.1455267" lon="2.133845"><ele>234.0</ele><time>2026-05-01T16:39:34.998Z</time></trkpt><trkpt lat="43.1455983" lon="2.13402"><ele>235.66666666666669</ele><time>2026-05-01T16:39:35.999Z</time></trkpt><trkpt lat="43.1456733" lon="2.1342017"><ele>237.33333333333334</ele><time>2026-05-01T16:39:36.999Z</time></trkpt><trkpt lat="43.14575" lon="2.13438"><ele>239.0</ele><time>2026-05-01T16:39:37.999Z</time></trkpt><trkpt lat="43.145825" lon="2.134555"><ele>239.5</ele><time>2026-05-01T16:39:38.998Z</time></trkpt><trkpt lat="43.1459" lon="2.1347267"><ele>240.0</ele><time>2026-05-01T16:39:40Z</time></trkpt><trkpt lat="43.145975" lon="2.1348933"><ele>240.5</ele><time>2026-05-01T16:39:40.998Z</time></trkpt><trkpt lat="43.1460517" lon="2.1350717"><ele>241.0</ele><time>2026-05-01T16:39:41.998Z</time></trkpt><trkpt lat="43.146115" lon="2.1352483"><ele>241.75</ele><time>2026-05-01T16:39:42.998Z</time></trkpt><trkpt lat="43.1461767" lon="2.135415"><ele>242.5</ele><time>2026-05-01T16:39:43.999Z</time></trkpt><trkpt lat="43.1462383" lon="2.1355733"><ele>243.25</ele><time>2026-05-01T16:39:44.998Z</time></trkpt><trkpt lat="43.1463017" lon="2.1357233"><ele>244.0</ele><time>2026-05-01T16:39:45.999Z</time></trkpt><trkpt lat="43.1463617" lon="2.1358733"><ele>244.0</ele><time>2026-05-01T16:39:46.998Z</time></trkpt><trkpt lat="43.1464117" lon="2.1360183"><ele>243.99999999999997</ele><time>2026-05-01T16:39:47.997Z</time></trkpt><trkpt lat="43.146445" lon="2.1361533"><ele>243.99999999999997</ele><time>2026-05-01T16:39:48.999Z</time></trkpt><trkpt lat="43.1464767" lon="2.13628"><ele>244.0</ele><time>2026-05-01T16:39:49.999Z</time></trkpt><trkpt lat="43.1465083" lon="2.1364"><ele>244.0</ele><time>2026-05-01T16:39:50.998Z</time></trkpt><trkpt lat="43.1465417" lon="2.1365217"><ele>246.39999999999998</ele><time>2026-05-01T16:39:51.998Z</time></trkpt><trkpt lat="43.146575" lon="2.136645"><ele>248.79999999999998</ele><time>2026-05-01T16:39:52.997Z</time></trkpt><trkpt lat="43.1465983" lon="2.1367633"><ele>251.20000000000002</ele><time>2026-05-01T16:39:53.998Z</time></trkpt><trkpt lat="43.1466133" lon="2.1368883"><ele>253.60000000000002</ele><time>2026-05-01T16:39:54.999Z</time></trkpt><trkpt lat="43.1466317" lon="2.13701"><ele>256.0</ele><time>2026-05-01T16:39:55.998Z</time></trkpt><trkpt lat="43.1466467" lon="2.1371233"><ele>255.99999999999997</ele><time>2026-05-01T16:39:57.004Z</time></trkpt><trkpt lat="43.1466633" lon="2.1372283"><ele>256.0</ele><time>2026-05-01T16:39:57.997Z</time></trkpt><trkpt lat="43.14668" lon="2.1373317"><ele>256.0</ele><time>2026-05-01T16:39:58.997Z</time></trkpt><trkpt lat="43.1466967" lon="2.1374333"><ele>256.0</ele><time>2026-05-01T16:39:59.997Z</time></trkpt><trkpt lat="43.14671" lon="2.13754"><ele>255.99999999999997</ele><time>2026-05-01T16:40:00.997Z</time></trkpt><trkpt lat="43.1467333" lon="2.13763"><ele>256.0</ele><time>2026-05-01T16:40:01.997Z</time></trkpt><trkpt lat="43.1467617" lon="2.13772"><ele>256.1428571428571</ele><time>2026-05-01T16:40:02.997Z</time></trkpt><trkpt lat="43.1467967" lon="2.1378017"><ele>256.2857142857143</ele><time>2026-05-01T16:40:03.998Z</time></trkpt><trkpt lat="43.1468417" lon="2.1378783"><ele>256.42857142857144</ele><time>2026-05-01T16:40:04.997Z</time></trkpt><trkpt lat="43.146875" lon="2.1379683"><ele>256.57142857142856</ele><time>2026-05-01T16:40:05.997Z</time></trkpt><trkpt lat="43.146905" lon="2.1380567"><ele>256.7142857142857</ele><time>2026-05-01T16:40:06.997Z</time></trkpt><trkpt lat="43.1469267" lon="2.1381517"><ele>256.85714285714283</ele><time>2026-05-01T16:40:07.997Z</time></trkpt><trkpt lat="43.146935" lon="2.13825"><ele>257.0</ele><time>2026-05-01T16:40:08.997Z</time></trkpt><trkpt lat="43.1469267" lon="2.1383567"><ele>256.6666666666667</ele><time>2026-05-01T16:40:09.999Z</time></trkpt><trkpt lat="43.1469117" lon="2.1384617"><ele>256.33333333333337</ele><time>2026-05-01T16:40:10.998Z</time></trkpt><trkpt lat="43.1468817" lon="2.1385617"><ele>256.0</ele><time>2026-05-01T16:40:11.997Z</time></trkpt><trkpt lat="43.1468467" lon="2.1386633"><ele>255.66666666666669</ele><time>2026-05-01T16:40:12.997Z</time></trkpt><trkpt lat="43.14681" lon="2.1387667"><ele>255.33333333333334</ele><time>2026-05-01T16:40:13.998Z</time></trkpt><trkpt lat="43.14677" lon="2.1388633"><ele>255.0</ele><time>2026-05-01T16:40:14.997Z</time></trkpt><trkpt lat="43.14673" lon="2.1389533"><ele>255.0</ele><time>2026-05-01T16:40:15.997Z</time></trkpt><trkpt lat="43.1466917" lon="2.1390483"><ele>255.0</ele><time>2026-05-01T16:40:16.996Z</time></trkpt><trkpt lat="43.1466533" lon="2.1391483"><ele>255.0</ele><time>2026-05-01T16:40:17.999Z</time></trkpt><trkpt lat="43.1466083" lon="2.139245"><ele>255.0</ele><time>2026-05-01T16:40:18.997Z</time></trkpt><trkpt lat="43.1465683" lon="2.1393383"><ele>255.0</ele><time>2026-05-01T16:40:19.998Z</time></trkpt><trkpt lat="43.1465333" lon="2.1394267"><ele>255.0</ele><time>2026-05-01T16:40:20.997Z</time></trkpt><trkpt lat="43.1465017" lon="2.1395067"><ele>249.0</ele><time>2026-05-01T16:40:21.997Z</time></trkpt><trkpt lat="43.1464567" lon="2.1396067"><ele>249.0</ele><time>2026-05-01T16:40:23.997Z</time></trkpt></trkseg><trkseg><trkpt lat="43.14628" lon="2.13975"><ele>249.0</ele><time>2026-05-01T17:19:52.665Z</time></trkpt><trkpt lat="43.1463883" lon="2.1396617"><ele>248.99999999999997</ele><time>2026-05-01T17:20:15.999Z</time></trkpt><trkpt lat="43.14638" lon="2.139795"><ele>248.99999999999997</ele><time>2026-05-01T17:22:03.998Z</time></trkpt><trkpt lat="43.146355" lon="2.1399"><ele>249.0</ele><time>2026-05-01T17:22:05.999Z</time></trkpt><trkpt lat="43.14634" lon="2.1400383"><ele>249.0</ele><time>2026-05-01T17:22:07.999Z</time></trkpt><trkpt lat="43.1463367" lon="2.1402083"><ele>249.6</ele><time>2026-05-01T17:22:09.998Z</time></trkpt><trkpt lat="43.1463517" lon="2.1403867"><ele>250.2</ele><time>2026-05-01T17:22:11.999Z</time></trkpt><trkpt lat="43.146385" lon="2.1405083"><ele>250.79999999999998</ele><time>2026-05-01T17:22:12.998Z</time></trkpt><trkpt lat="43.1464167" lon="2.14064"><ele>251.39999999999998</ele><time>2026-05-01T17:22:14Z</time></trkpt><trkpt lat="43.1464567" lon="2.1407717"><ele>252.0</ele><time>2026-05-01T17:22:15Z</time></trkpt><trkpt lat="43.1465083" lon="2.140925"><ele>255.0</ele><time>2026-05-01T17:22:15.997Z</time></trkpt><trkpt lat="43.1465617" lon="2.1410733"><ele>258.0</ele><time>2026-05-01T17:22:16.998Z</time></trkpt><trkpt lat="43.14663" lon="2.1412383"><ele>261.0</ele><time>2026-05-01T17:22:17.999Z</time></trkpt><trkpt lat="43.1466733" lon="2.141375"><ele>264.0</ele><time>2026-05-01T17:22:19Z</time></trkpt><trkpt lat="43.1467" lon="2.141525"><ele>263.25</ele><time>2026-05-01T17:22:20Z</time></trkpt><trkpt lat="43.14673" lon="2.1416733"><ele>262.5</ele><time>2026-05-01T17:22:20.998Z</time></trkpt><trkpt lat="43.14675" lon="2.1418383"><ele>261.75</ele><time>2026-05-01T17:22:22Z</time></trkpt><trkpt lat="43.1467683" lon="2.1420067"><ele>261.0</ele><time>2026-05-01T17:22:22.998Z</time></trkpt><trkpt lat="43.1467867" lon="2.1421783"><ele>261.0</ele><time>2026-05-01T17:22:23.998Z</time></trkpt><trkpt lat="43.1467983" lon="2.1423567"><ele>261.0</ele><time>2026-05-01T17:22:24.998Z</time></trkpt><trkpt lat="43.1468033" lon="2.1425383"><ele>261.0</ele><time>2026-05-01T17:22:25.998Z</time></trkpt><trkpt lat="43.1468117" lon="2.1427233"><ele>261.0</ele><time>2026-05-01T17:22:26.999Z</time></trkpt><trkpt lat="43.1468167" lon="2.1429117"><ele>261.0</ele><time>2026-05-01T17:22:27.998Z</time></trkpt><trkpt lat="43.1468267" lon="2.1431067"><ele>261.0</ele><time>2026-05-01T17:22:28.999Z</time></trkpt><trkpt lat="43.1468283" lon="2.1433017"><ele>261.0</ele><time>2026-05-01T17:22:29.999Z</time></trkpt><trkpt lat="43.146825" lon="2.1434983"><ele>261.0</ele><time>2026-05-01T17:22:31Z</time></trkpt><trkpt lat="43.146825" lon="2.1436983"><ele>261.25</ele><time>2026-05-01T17:22:31.997Z</time></trkpt><trkpt lat="43.146825" lon="2.1439033"><ele>261.5</ele><time>2026-05-01T17:22:32.999Z</time></trkpt><trkpt lat="43.1468267" lon="2.144105"><ele>261.75</ele><time>2026-05-01T17:22:33.998Z</time></trkpt><trkpt lat="43.1468283" lon="2.1442983"><ele>262.0</ele><time>2026-05-01T17:22:34.998Z</time></trkpt><trkpt lat="43.1468283" lon="2.1444867"><ele>263.0</ele><time>2026-05-01T17:22:35.998Z</time></trkpt><trkpt lat="43.1468317" lon="2.1446783"><ele>264.0</ele><time>2026-05-01T17:22:36.998Z</time></trkpt><trkpt lat="43.1468383" lon="2.144875"><ele>265.0</ele><time>2026-05-01T17:22:37.997Z</time></trkpt><trkpt lat="43.1468433" lon="2.14507"><ele>266.0</ele><time>2026-05-01T17:22:38.998Z</time></trkpt><trkpt lat="43.14685" lon="2.1452583"><ele>267.0</ele><time>2026-05-01T17:22:40.001Z</time></trkpt><trkpt lat="43.1468583" lon="2.1454417"><ele>268.0</ele><time>2026-05-01T17:22:40.998Z</time></trkpt><trkpt lat="43.1468717" lon="2.145605"><ele>269.0</ele><time>2026-05-01T17:22:41.998Z</time></trkpt><trkpt lat="43.1468883" lon="2.145755"><ele>270.0</ele><time>2026-05-01T17:22:42.999Z</time></trkpt><trkpt lat="43.146905" lon="2.1458983"><ele>270.6</ele><time>2026-05-01T17:22:43.998Z</time></trkpt><trkpt lat="43.1469317" lon="2.1460333"><ele>271.2</ele><time>2026-05-01T17:22:44.998Z</time></trkpt><trkpt lat="43.1469767" lon="2.1461517"><ele>271.8</ele><time>2026-05-01T17:22:45.999Z</time></trkpt><trkpt lat="43.147055" lon="2.146225"><ele>272.4</ele><time>2026-05-01T17:22:46.998Z</time></trkpt><trkpt lat="43.1471567" lon="2.1462417"><ele>273.0</ele><time>2026-05-01T17:22:47.999Z</time></trkpt><trkpt lat="43.1472883" lon="2.146215"><ele>273.5</ele><time>2026-05-01T17:22:48.998Z</time></trkpt><trkpt lat="43.14743" lon="2.1462033"><ele>274.0</ele><time>2026-05-01T17:22:49.997Z</time></trkpt><trkpt lat="43.147585" lon="2.14623"><ele>274.5</ele><time>2026-05-01T17:22:51.001Z</time></trkpt><trkpt lat="43.147725" lon="2.1462883"><ele>275.0</ele><time>2026-05-01T17:22:51.998Z</time></trkpt><trkpt lat="43.1478567" lon="2.146355"><ele>275.0</ele><time>2026-05-01T17:22:52.997Z</time></trkpt><trkpt lat="43.1479883" lon="2.1463883"><ele>275.0</ele><time>2026-05-01T17:22:53.998Z</time></trkpt><trkpt lat="43.148125" lon="2.1463883"><ele>275.0</ele><time>2026-05-01T17:22:54.998Z</time></trkpt><trkpt lat="43.148265" lon="2.1463617"><ele>275.0</ele><time>2026-05-01T17:22:56.001Z</time></trkpt><trkpt lat="43.1484017" lon="2.1463233"><ele>276.0</ele><time>2026-05-01T17:22:56.998Z</time></trkpt><trkpt lat="43.14853" lon="2.1463017"><ele>277.0</ele><time>2026-05-01T17:22:57.998Z</time></trkpt><trkpt lat="43.1486583" lon="2.14632"><ele>278.0</ele><time>2026-05-01T17:22:58.999Z</time></trkpt><trkpt lat="43.1487683" lon="2.1463967"><ele>279.0</ele><time>2026-05-01T17:22:59.997Z</time></trkpt><trkpt lat="43.1488483" lon="2.146515"><ele>278.25</ele><time>2026-05-01T17:23:00.998Z</time></trkpt><trkpt lat="43.148895" lon="2.1466733"><ele>277.5</ele><time>2026-05-01T17:23:01.997Z</time></trkpt><trkpt lat="43.1489233" lon="2.14685"><ele>276.75</ele><time>2026-05-01T17:23:02.998Z</time></trkpt><trkpt lat="43.14895" lon="2.14703"><ele>276.0</ele><time>2026-05-01T17:23:03.999Z</time></trkpt><trkpt lat="43.148975" lon="2.1472083"><ele>275.5</ele><time>2026-05-01T17:23:05Z</time></trkpt><trkpt lat="43.1490017" lon="2.1473867"><ele>275.0</ele><time>2026-05-01T17:23:05.997Z</time></trkpt><trkpt lat="43.1490517" lon="2.1475617"><ele>274.5</ele><time>2026-05-01T17:23:06.998Z</time></trkpt><trkpt lat="43.1491367" lon="2.14771"><ele>274.0</ele><time>2026-05-01T17:23:07.997Z</time></trkpt><trkpt lat="43.149245" lon="2.1478417"><ele>277.0</ele><time>2026-05-01T17:23:08.998Z</time></trkpt><trkpt lat="43.1493583" lon="2.1479717"><ele>280.0</ele><time>2026-05-01T17:23:09.997Z</time></trkpt><trkpt lat="43.1494617" lon="2.1481217"><ele>283.0</ele><time>2026-05-01T17:23:10.998Z</time></trkpt><trkpt lat="43.1495467" lon="2.1483"><ele>283.0</ele><time>2026-05-01T17:23:11.998Z</time></trkpt><trkpt lat="43.1496117" lon="2.1484933"><ele>283.0</ele><time>2026-05-01T17:23:12.998Z</time></trkpt><trkpt lat="43.1496683" lon="2.1486867"><ele>283.0</ele><time>2026-05-01T17:23:13.997Z</time></trkpt><trkpt lat="43.1497333" lon="2.1488767"><ele>283.0</ele><time>2026-05-01T17:23:14.997Z</time></trkpt><trkpt lat="43.1498217" lon="2.1490417"><ele>283.0</ele><time>2026-05-01T17:23:16.001Z</time></trkpt><trkpt lat="43.1499233" lon="2.1492033"><ele>283.0</ele><time>2026-05-01T17:23:16.997Z</time></trkpt><trkpt lat="43.1500433" lon="2.1493483"><ele>285.0</ele><time>2026-05-01T17:23:17.999Z</time></trkpt><trkpt lat="43.1501717" lon="2.1494867"><ele>287.0</ele><time>2026-05-01T17:23:19Z</time></trkpt><trkpt lat="43.150305" lon="2.1496283"><ele>289.0</ele><time>2026-05-01T17:23:19.999Z</time></trkpt><trkpt lat="43.1504433" lon="2.1497733"><ele>289.3333333333333</ele><time>2026-05-01T17:23:21.001Z</time></trkpt><trkpt lat="43.150575" lon="2.14992"><ele>289.6666666666667</ele><time>2026-05-01T17:23:22.005Z</time></trkpt><trkpt lat="43.150705" lon="2.1500667"><ele>290.0</ele><time>2026-05-01T17:23:22.998Z</time></trkpt><trkpt lat="43.1508367" lon="2.15021"><ele>290.0</ele><time>2026-05-01T17:23:23.998Z</time></trkpt><trkpt lat="43.1509717" lon="2.1503483"><ele>290.0</ele><time>2026-05-01T17:23:25Z</time></trkpt><trkpt lat="43.1511067" lon="2.1504883"><ele>290.0</ele><time>2026-05-01T17:23:25.998Z</time></trkpt><trkpt lat="43.15124" lon="2.1506317"><ele>289.0</ele><time>2026-05-01T17:23:26.999Z</time></trkpt><trkpt lat="43.1513583" lon="2.1507917"><ele>288.0</ele><time>2026-05-01T17:23:27.997Z</time></trkpt><trkpt lat="43.15145" lon="2.150975"><ele>287.0</ele><time>2026-05-01T17:23:28.999Z</time></trkpt><trkpt lat="43.1515083" lon="2.1511783"><ele>287.0</ele><time>2026-05-01T17:23:29.999Z</time></trkpt><trkpt lat="43.1515333" lon="2.1513967"><ele>287.0</ele><time>2026-05-01T17:23:30.999Z</time></trkpt><trkpt lat="43.151525" lon="2.15162"><ele>287.0</ele><time>2026-05-01T17:23:31.998Z</time></trkpt><trkpt lat="43.1514833" lon="2.151835"><ele>286.6666666666667</ele><time>2026-05-01T17:23:32.999Z</time></trkpt><trkpt lat="43.1514267" lon="2.152045"><ele>286.3333333333333</ele><time>2026-05-01T17:23:33.997Z</time></trkpt><trkpt lat="43.1513717" lon="2.15224"><ele>286.0</ele><time>2026-05-01T17:23:34.999Z</time></trkpt><trkpt lat="43.1513267" lon="2.1524283"><ele>285.75</ele><time>2026-05-01T17:23:35.997Z</time></trkpt><trkpt lat="43.1513067" lon="2.1526183"><ele>285.5</ele><time>2026-05-01T17:23:36.999Z</time></trkpt><trkpt lat="43.1513183" lon="2.1528033"><ele>285.25</ele><time>2026-05-01T17:23:37.998Z</time></trkpt><trkpt lat="43.1513717" lon="2.1529833"><ele>285.0</ele><time>2026-05-01T17:23:39.002Z</time></trkpt><trkpt lat="43.1514517" lon="2.1531517"><ele>285.25</ele><time>2026-05-01T17:23:39.999Z</time></trkpt><trkpt lat="43.1515367" lon="2.1533117"><ele>285.5</ele><time>2026-05-01T17:23:40.998Z</time></trkpt><trkpt lat="43.1516217" lon="2.1534733"><ele>285.75</ele><time>2026-05-01T17:23:41.997Z</time></trkpt><trkpt lat="43.1517083" lon="2.153635"><ele>286.0</ele><time>2026-05-01T17:23:42.998Z</time></trkpt><trkpt lat="43.1518067" lon="2.153775"><ele>288.75</ele><time>2026-05-01T17:23:43.998Z</time></trkpt><trkpt lat="43.151925" lon="2.1538517"><ele>291.5</ele><time>2026-05-01T17:23:45Z</time></trkpt><trkpt lat="43.1520533" lon="2.1538867"><ele>294.25</ele><time>2026-05-01T17:23:45.998Z</time></trkpt><trkpt lat="43.152185" lon="2.153905"><ele>297.0</ele><time>2026-05-01T17:23:46.998Z</time></trkpt><trkpt lat="43.1523083" lon="2.1539233"><ele>298.0</ele><time>2026-05-01T17:23:48.001Z</time></trkpt><trkpt lat="43.1524383" lon="2.15396"><ele>299.0</ele><time>2026-05-01T17:23:48.998Z</time></trkpt><trkpt lat="43.15254" lon="2.15404"><ele>300.0</ele><time>2026-05-01T17:23:50.004Z</time></trkpt><trkpt lat="43.1526083" lon="2.1541733"><ele>301.0</ele><time>2026-05-01T17:23:51Z</time></trkpt><trkpt lat="43.1526583" lon="2.154335"><ele>301.0</ele><time>2026-05-01T17:23:51.998Z</time></trkpt><trkpt lat="43.1526817" lon="2.1545"><ele>301.0</ele><time>2026-05-01T17:23:52.998Z</time></trkpt><trkpt lat="43.1526983" lon="2.1546683"><ele>301.0</ele><time>2026-05-01T17:23:53.998Z</time></trkpt><trkpt lat="43.15269" lon="2.1548317"><ele>301.0</ele><time>2026-05-01T17:23:55Z</time></trkpt><trkpt lat="43.1526717" lon="2.1549883"><ele>301.40000000000003</ele><time>2026-05-01T17:23:55.998Z</time></trkpt><trkpt lat="43.1526283" lon="2.155125"><ele>301.8</ele><time>2026-05-01T17:23:57Z</time></trkpt><trkpt lat="43.152555" lon="2.1552217"><ele>302.20000000000005</ele><time>2026-05-01T17:23:57.998Z</time></trkpt><trkpt lat="43.15247" lon="2.1552783"><ele>302.6</ele><time>2026-05-01T17:23:58.998Z</time></trkpt><trkpt lat="43.1523717" lon="2.1553083"><ele>303.0</ele><time>2026-05-01T17:24:00Z</time></trkpt><trkpt lat="43.152265" lon="2.1553433"><ele>302.5</ele><time>2026-05-01T17:24:01Z</time></trkpt><trkpt lat="43.1521567" lon="2.1554117"><ele>302.0</ele><time>2026-05-01T17:24:01.998Z</time></trkpt><trkpt lat="43.15206" lon="2.1555083"><ele>301.5</ele><time>2026-05-01T17:24:02.999Z</time></trkpt><trkpt lat="43.1519683" lon="2.1556267"><ele>301.0</ele><time>2026-05-01T17:24:04Z</time></trkpt><trkpt lat="43.151875" lon="2.1557667"><ele>301.0</ele><time>2026-05-01T17:24:04.999Z</time></trkpt><trkpt lat="43.151775" lon="2.1559067"><ele>301.0</ele><time>2026-05-01T17:24:05.998Z</time></trkpt><trkpt lat="43.1516667" lon="2.1560667"><ele>301.0</ele><time>2026-05-01T17:24:06.998Z</time></trkpt><trkpt lat="43.1515533" lon="2.1562117"><ele>299.0</ele><time>2026-05-01T17:24:07.997Z</time></trkpt><trkpt lat="43.1514367" lon="2.1563633"><ele>297.0</ele><time>2026-05-01T17:24:08.998Z</time></trkpt><trkpt lat="43.1513333" lon="2.156535"><ele>295.0</ele><time>2026-05-01T17:24:09.997Z</time></trkpt><trkpt lat="43.1512483" lon="2.15672"><ele>295.0</ele><time>2026-05-01T17:24:10.998Z</time></trkpt><trkpt lat="43.1511833" lon="2.1569267"><ele>295.0</ele><time>2026-05-01T17:24:11.999Z</time></trkpt><trkpt lat="43.15114" lon="2.1571383"><ele>295.0</ele><time>2026-05-01T17:24:12.997Z</time></trkpt><trkpt lat="43.151125" lon="2.1573567"><ele>296.3333333333333</ele><time>2026-05-01T17:24:13.997Z</time></trkpt><trkpt lat="43.1511433" lon="2.1575733"><ele>297.6666666666667</ele><time>2026-05-01T17:24:14.997Z</time></trkpt><trkpt lat="43.1511833" lon="2.15779"><ele>299.0</ele><time>2026-05-01T17:24:15.998Z</time></trkpt><trkpt lat="43.15122" lon="2.1580083"><ele>298.6666666666667</ele><time>2026-05-01T17:24:16.997Z</time></trkpt><trkpt lat="43.1512233" lon="2.1582333"><ele>298.3333333333333</ele><time>2026-05-01T17:24:18.002Z</time></trkpt><trkpt lat="43.1512017" lon="2.1584567"><ele>298.0</ele><time>2026-05-01T17:24:18.998Z</time></trkpt><trkpt lat="43.151155" lon="2.1586783"><ele>298.0</ele><time>2026-05-01T17:24:19.998Z</time></trkpt><trkpt lat="43.1510967" lon="2.1589017"><ele>298.0</ele><time>2026-05-01T17:24:20.998Z</time></trkpt><trkpt lat="43.151035" lon="2.159125"><ele>298.0</ele><time>2026-05-01T17:24:21.998Z</time></trkpt><trkpt lat="43.150975" lon="2.15935"><ele>299.0</ele><time>2026-05-01T17:24:22.997Z</time></trkpt><trkpt lat="43.1509217" lon="2.1595767"><ele>300.0</ele><time>2026-05-01T17:24:24.002Z</time></trkpt><trkpt lat="43.1508783" lon="2.1598067"><ele>301.0</ele><time>2026-05-01T17:24:24.997Z</time></trkpt><trkpt lat="43.1508567" lon="2.1600467"><ele>303.0</ele><time>2026-05-01T17:24:25.997Z</time></trkpt><trkpt lat="43.1508517" lon="2.1602883"><ele>305.0</ele><time>2026-05-01T17:24:27Z</time></trkpt><trkpt lat="43.1508683" lon="2.1605317"><ele>307.0</ele><time>2026-05-01T17:24:27.997Z</time></trkpt><trkpt lat="43.1508967" lon="2.1607783"><ele>307.66666666666663</ele><time>2026-05-01T17:24:28.997Z</time></trkpt><trkpt lat="43.150925" lon="2.161025"><ele>308.3333333333333</ele><time>2026-05-01T17:24:29.998Z</time></trkpt><trkpt lat="43.1509567" lon="2.16127"><ele>309.0</ele><time>2026-05-01T17:24:30.998Z</time></trkpt><trkpt lat="43.1509983" lon="2.1615133"><ele>310.0</ele><time>2026-05-01T17:24:32.002Z</time></trkpt><trkpt lat="43.1510583" lon="2.1617517"><ele>311.0</ele><time>2026-05-01T17:24:32.998Z</time></trkpt><trkpt lat="43.1511333" lon="2.1619817"><ele>312.0</ele><time>2026-05-01T17:24:34Z</time></trkpt><trkpt lat="43.151225" lon="2.162195"><ele>313.6666666666667</ele><time>2026-05-01T17:24:35.002Z</time></trkpt><trkpt lat="43.151335" lon="2.1623933"><ele>315.33333333333337</ele><time>2026-05-01T17:24:35.998Z</time></trkpt><trkpt lat="43.15146" lon="2.1625783"><ele>317.0</ele><time>2026-05-01T17:24:36.998Z</time></trkpt><trkpt lat="43.151595" lon="2.1627467"><ele>317.0</ele><time>2026-05-01T17:24:37.998Z</time></trkpt><trkpt lat="43.1517367" lon="2.1629"><ele>317.0</ele><time>2026-05-01T17:24:38.998Z</time></trkpt><trkpt lat="43.1518817" lon="2.1630367"><ele>317.0</ele><time>2026-05-01T17:24:39.998Z</time></trkpt><trkpt lat="43.15203" lon="2.1631417"><ele>317.0</ele><time>2026-05-01T17:24:40.997Z</time></trkpt><trkpt lat="43.152185" lon="2.1631967"><ele>317.0</ele><time>2026-05-01T17:24:41.998Z</time></trkpt><trkpt lat="43.1523483" lon="2.1631917"><ele>317.0</ele><time>2026-05-01T17:24:42.998Z</time></trkpt><trkpt lat="43.1525067" lon="2.1631433"><ele>320.33333333333337</ele><time>2026-05-01T17:24:44Z</time></trkpt><trkpt lat="43.152665" lon="2.1630767"><ele>323.6666666666667</ele><time>2026-05-01T17:24:44.999Z</time></trkpt><trkpt lat="43.15282" lon="2.163025"><ele>327.0</ele><time>2026-05-01T17:24:45.998Z</time></trkpt><trkpt lat="43.1529733" lon="2.1630033"><ele>327.0</ele><time>2026-05-01T17:24:46.997Z</time></trkpt><trkpt lat="43.1531183" lon="2.1630367"><ele>327.0</ele><time>2026-05-01T17:24:48.002Z</time></trkpt><trkpt lat="43.15324" lon="2.163125"><ele>327.0</ele><time>2026-05-01T17:24:48.998Z</time></trkpt><trkpt lat="43.1533333" lon="2.163265"><ele>327.0</ele><time>2026-05-01T17:24:49.999Z</time></trkpt><trkpt lat="43.153395" lon="2.1634533"><ele>325.0</ele><time>2026-05-01T17:24:51Z</time></trkpt><trkpt lat="43.1534117" lon="2.1636567"><ele>323.0</ele><time>2026-05-01T17:24:51.999Z</time></trkpt><trkpt lat="43.15339" lon="2.16386"><ele>321.0</ele><time>2026-05-01T17:24:53.002Z</time></trkpt><trkpt lat="43.15335" lon="2.1640617"><ele>319.75</ele><time>2026-05-01T17:24:53.998Z</time></trkpt><trkpt lat="43.15333" lon="2.1642533"><ele>318.5</ele><time>2026-05-01T17:24:55Z</time></trkpt><trkpt lat="43.1533433" lon="2.164435"><ele>317.25</ele><time>2026-05-01T17:24:55.999Z</time></trkpt><trkpt lat="43.1533967" lon="2.1646117"><ele>316.0</ele><time>2026-05-01T17:24:56.998Z</time></trkpt><trkpt lat="43.15348" lon="2.164775"><ele>313.66666666666663</ele><time>2026-05-01T17:24:57.998Z</time></trkpt><trkpt lat="43.1535683" lon="2.16495"><ele>311.3333333333333</ele><time>2026-05-01T17:24:58.998Z</time></trkpt><trkpt lat="43.1536567" lon="2.1651267"><ele>309.0</ele><time>2026-05-01T17:24:59.999Z</time></trkpt><trkpt lat="43.153735" lon="2.1653183"><ele>309.0</ele><time>2026-05-01T17:25:00.998Z</time></trkpt><trkpt lat="43.15381" lon="2.1655133"><ele>309.0</ele><time>2026-05-01T17:25:02.003Z</time></trkpt><trkpt lat="43.15388" lon="2.1657083"><ele>309.0</ele><time>2026-05-01T17:25:02.998Z</time></trkpt><trkpt lat="43.153935" lon="2.1659083"><ele>308.3333333333333</ele><time>2026-05-01T17:25:03.997Z</time></trkpt><trkpt lat="43.1539717" lon="2.16611"><ele>307.66666666666663</ele><time>2026-05-01T17:25:04.997Z</time></trkpt><trkpt lat="43.1539733" lon="2.166315"><ele>307.0</ele><time>2026-05-01T17:25:05.997Z</time></trkpt><trkpt lat="43.153935" lon="2.1665183"><ele>309.5</ele><time>2026-05-01T17:25:06.999Z</time></trkpt><trkpt lat="43.1538583" lon="2.1666967"><ele>312.0</ele><time>2026-05-01T17:25:07.998Z</time></trkpt><trkpt lat="43.1537517" lon="2.16683"><ele>314.5</ele><time>2026-05-01T17:25:08.998Z</time></trkpt><trkpt lat="43.1536167" lon="2.1669233"><ele>317.0</ele><time>2026-05-01T17:25:09.998Z</time></trkpt><trkpt lat="43.15347" lon="2.1669983"><ele>317.0</ele><time>2026-05-01T17:25:10.998Z</time></trkpt><trkpt lat="43.1533283" lon="2.16709"><ele>317.0</ele><time>2026-05-01T17:25:11.997Z</time></trkpt><trkpt lat="43.1532033" lon="2.16723"><ele>317.0</ele><time>2026-05-01T17:25:13.001Z</time></trkpt><trkpt lat="43.1531133" lon="2.16743"><ele>315.6666666666667</ele><time>2026-05-01T17:25:13.997Z</time></trkpt><trkpt lat="43.1530433" lon="2.1676483"><ele>314.3333333333333</ele><time>2026-05-01T17:25:14.998Z</time></trkpt><trkpt lat="43.152985" lon="2.167885"><ele>313.0</ele><time>2026-05-01T17:25:15.997Z</time></trkpt><trkpt lat="43.1529417" lon="2.1681267"><ele>314.0</ele><time>2026-05-01T17:25:16.998Z</time></trkpt><trkpt lat="43.1528983" lon="2.168365"><ele>315.0</ele><time>2026-05-01T17:25:17.998Z</time></trkpt><trkpt lat="43.152865" lon="2.1686083"><ele>316.0</ele><time>2026-05-01T17:25:18.999Z</time></trkpt><trkpt lat="43.1528333" lon="2.16885"><ele>316.66666666666663</ele><time>2026-05-01T17:25:19.998Z</time></trkpt><trkpt lat="43.1528017" lon="2.169095"><ele>317.3333333333333</ele><time>2026-05-01T17:25:20.998Z</time></trkpt><trkpt lat="43.1527667" lon="2.16934"><ele>318.0</ele><time>2026-05-01T17:25:21.998Z</time></trkpt><trkpt lat="43.15273" lon="2.1695833"><ele>318.0</ele><time>2026-05-01T17:25:22.999Z</time></trkpt><trkpt lat="43.152695" lon="2.16983"><ele>318.0</ele><time>2026-05-01T17:25:23.998Z</time></trkpt><trkpt lat="43.15266" lon="2.170075"><ele>318.0</ele><time>2026-05-01T17:25:24.998Z</time></trkpt><trkpt lat="43.152625" lon="2.17032"><ele>319.3333333333333</ele><time>2026-05-01T17:25:25.997Z</time></trkpt><trkpt lat="43.1525867" lon="2.1705633"><ele>320.66666666666663</ele><time>2026-05-01T17:25:27Z</time></trkpt><trkpt lat="43.1525483" lon="2.1708017"><ele>322.0</ele><time>2026-05-01T17:25:27.999Z</time></trkpt><trkpt lat="43.15252" lon="2.17104"><ele>322.3333333333333</ele><time>2026-05-01T17:25:28.997Z</time></trkpt><trkpt lat="43.15252" lon="2.1712767"><ele>322.6666666666667</ele><time>2026-05-01T17:25:29.999Z</time></trkpt><trkpt lat="43.1525583" lon="2.171505"><ele>323.0</ele><time>2026-05-01T17:25:30.999Z</time></trkpt><trkpt lat="43.1526267" lon="2.1717217"><ele>324.0</ele><time>2026-05-01T17:25:31.997Z</time></trkpt><trkpt lat="43.1527017" lon="2.1719367"><ele>325.0</ele><time>2026-05-01T17:25:32.997Z</time></trkpt><trkpt lat="43.1527733" lon="2.1721517"><ele>326.0</ele><time>2026-05-01T17:25:33.996Z</time></trkpt><trkpt lat="43.15283" lon="2.1723633"><ele>327.6666666666667</ele><time>2026-05-01T17:25:34.996Z</time></trkpt><trkpt lat="43.1528683" lon="2.1725833"><ele>329.3333333333333</ele><time>2026-05-01T17:25:35.998Z</time></trkpt><trkpt lat="43.1528767" lon="2.172805"><ele>331.0</ele><time>2026-05-01T17:25:36.997Z</time></trkpt><trkpt lat="43.15285" lon="2.1730217"><ele>333.0</ele><time>2026-05-01T17:25:37.996Z</time></trkpt><trkpt lat="43.1527983" lon="2.1732267"><ele>335.0</ele><time>2026-05-01T17:25:38.998Z</time></trkpt><trkpt lat="43.1527383" lon="2.173425"><ele>337.0</ele><time>2026-05-01T17:25:39.998Z</time></trkpt><trkpt lat="43.1526633" lon="2.173615"><ele>337.0</ele><time>2026-05-01T17:25:40.997Z</time></trkpt><trkpt lat="43.1525767" lon="2.1738083"><ele>337.0</ele><time>2026-05-01T17:25:41.996Z</time></trkpt><trkpt lat="43.152485" lon="2.1739833"><ele>337.0</ele><time>2026-05-01T17:25:42.998Z</time></trkpt><trkpt lat="43.15239" lon="2.1741517"><ele>335.75</ele><time>2026-05-01T17:25:43.998Z</time></trkpt><trkpt lat="43.1522917" lon="2.17426"><ele>334.5</ele><time>2026-05-01T17:25:44.997Z</time></trkpt><trkpt lat="43.1522167" lon="2.1743833"><ele>333.25</ele><time>2026-05-01T17:25:45.997Z</time></trkpt><trkpt lat="43.1522117" lon="2.174525"><ele>332.0</ele><time>2026-05-01T17:25:46.997Z</time></trkpt><trkpt lat="43.1522417" lon="2.1746783"><ele>332.0</ele><time>2026-05-01T17:25:47.997Z</time></trkpt><trkpt lat="43.15228" lon="2.1748533"><ele>332.0</ele><time>2026-05-01T17:25:48.997Z</time></trkpt><trkpt lat="43.1523317" lon="2.1750283"><ele>332.0</ele><time>2026-05-01T17:25:49.998Z</time></trkpt><trkpt lat="43.15237" lon="2.1752133"><ele>332.0</ele><time>2026-05-01T17:25:51.002Z</time></trkpt><trkpt lat="43.1524167" lon="2.1753883"><ele>333.5</ele><time>2026-05-01T17:25:51.998Z</time></trkpt><trkpt lat="43.1524883" lon="2.175545"><ele>335.0</ele><time>2026-05-01T17:25:52.997Z</time></trkpt><trkpt lat="43.1526033" lon="2.17565"><ele>336.5</ele><time>2026-05-01T17:25:53.997Z</time></trkpt><trkpt lat="43.1527317" lon="2.17573"><ele>338.0</ele><time>2026-05-01T17:25:54.996Z</time></trkpt><trkpt lat="43.152865" lon="2.1758233"><ele>338.0</ele><time>2026-05-01T17:25:55.997Z</time></trkpt><trkpt lat="43.15299" lon="2.1759567"><ele>338.0</ele><time>2026-05-01T17:25:56.999Z</time></trkpt><trkpt lat="43.1530933" lon="2.1761183"><ele>338.0</ele><time>2026-05-01T17:25:57.996Z</time></trkpt><trkpt lat="43.1531733" lon="2.1763017"><ele>343.6666666666667</ele><time>2026-05-01T17:25:58.996Z</time></trkpt><trkpt lat="43.1532233" lon="2.17651"><ele>349.3333333333333</ele><time>2026-05-01T17:25:59.996Z</time></trkpt><trkpt lat="43.153245" lon="2.1767217"><ele>355.0</ele><time>2026-05-01T17:26:00.999Z</time></trkpt><trkpt lat="43.1532267" lon="2.1769233"><ele>352.5</ele><time>2026-05-01T17:26:01.998Z</time></trkpt><trkpt lat="43.15318" lon="2.177115"><ele>350.0</ele><time>2026-05-01T17:26:02.998Z</time></trkpt><trkpt lat="43.1530967" lon="2.1772817"><ele>347.5</ele><time>2026-05-01T17:26:03.997Z</time></trkpt><trkpt lat="43.1529867" lon="2.17741"><ele>345.0</ele><time>2026-05-01T17:26:04.997Z</time></trkpt><trkpt lat="43.1528583" lon="2.1775133"><ele>345.0</ele><time>2026-05-01T17:26:05.997Z</time></trkpt><trkpt lat="43.1527267" lon="2.1775933"><ele>345.0</ele><time>2026-05-01T17:26:06.998Z</time></trkpt><trkpt lat="43.152595" lon="2.1776717"><ele>345.0</ele><time>2026-05-01T17:26:07.997Z</time></trkpt><trkpt lat="43.1524733" lon="2.1777533"><ele>345.0</ele><time>2026-05-01T17:26:08.997Z</time></trkpt><trkpt lat="43.152375" lon="2.17787"><ele>343.5</ele><time>2026-05-01T17:26:09.996Z</time></trkpt><trkpt lat="43.1523083" lon="2.1780167"><ele>342.0</ele><time>2026-05-01T17:26:10.997Z</time></trkpt><trkpt lat="43.1522867" lon="2.1781833"><ele>340.5</ele><time>2026-05-01T17:26:11.998Z</time></trkpt><trkpt lat="43.1522983" lon="2.17836"><ele>339.0</ele><time>2026-05-01T17:26:12.998Z</time></trkpt><trkpt lat="43.15234" lon="2.1785333"><ele>343.25</ele><time>2026-05-01T17:26:14Z</time></trkpt><trkpt lat="43.1523883" lon="2.1787067"><ele>347.5</ele><time>2026-05-01T17:26:14.997Z</time></trkpt><trkpt lat="43.152435" lon="2.1788717"><ele>351.75</ele><time>2026-05-01T17:26:15.996Z</time></trkpt><trkpt lat="43.152485" lon="2.1790267"><ele>356.0</ele><time>2026-05-01T17:26:16.999Z</time></trkpt><trkpt lat="43.1525283" lon="2.1791817"><ele>357.0</ele><time>2026-05-01T17:26:17.998Z</time></trkpt><trkpt lat="43.1525517" lon="2.1793267"><ele>358.0</ele><time>2026-05-01T17:26:18.997Z</time></trkpt><trkpt lat="43.1525333" lon="2.17946"><ele>359.0</ele><time>2026-05-01T17:26:19.998Z</time></trkpt><trkpt lat="43.1524783" lon="2.17956"><ele>360.0</ele><time>2026-05-01T17:26:20.998Z</time></trkpt><trkpt lat="43.15238" lon="2.179605"><ele>361.0</ele><time>2026-05-01T17:26:21.997Z</time></trkpt><trkpt lat="43.1522717" lon="2.1796083"><ele>360.25</ele><time>2026-05-01T17:26:22.998Z</time></trkpt><trkpt lat="43.1521533" lon="2.17961"><ele>359.5</ele><time>2026-05-01T17:26:23.997Z</time></trkpt><trkpt lat="43.15204" lon="2.1796433"><ele>358.75</ele><time>2026-05-01T17:26:24.998Z</time></trkpt><trkpt lat="43.1519417" lon="2.17972"><ele>358.0</ele><time>2026-05-01T17:26:25.996Z</time></trkpt><trkpt lat="43.1518717" lon="2.1798533"><ele>358.0</ele><time>2026-05-01T17:26:26.998Z</time></trkpt><trkpt lat="43.1518117" lon="2.1800117"><ele>358.0</ele><time>2026-05-01T17:26:27.997Z</time></trkpt><trkpt lat="43.1517383" lon="2.1801717"><ele>358.0</ele><time>2026-05-01T17:26:28.996Z</time></trkpt><trkpt lat="43.15163" lon="2.180315"><ele>358.0</ele><time>2026-05-01T17:26:29.996Z</time></trkpt><trkpt lat="43.1515" lon="2.18042"><ele>359.0</ele><time>2026-05-01T17:26:30.997Z</time></trkpt><trkpt lat="43.151365" lon="2.1805017"><ele>360.0</ele><time>2026-05-01T17:26:31.997Z</time></trkpt><trkpt lat="43.1512267" lon="2.1805867"><ele>361.0</ele><time>2026-05-01T17:26:32.997Z</time></trkpt><trkpt lat="43.1510917" lon="2.1806917"><ele>361.0</ele><time>2026-05-01T17:26:33.997Z</time></trkpt><trkpt lat="43.15096" lon="2.18083"><ele>361.0</ele><time>2026-05-01T17:26:34.997Z</time></trkpt><trkpt lat="43.150835" lon="2.18101"><ele>361.0</ele><time>2026-05-01T17:26:35.998Z</time></trkpt><trkpt lat="43.15072" lon="2.181215"><ele>361.0</ele><time>2026-05-01T17:26:36.998Z</time></trkpt><trkpt lat="43.1506233" lon="2.1814067"><ele>361.0</ele><time>2026-05-01T17:26:37.996Z</time></trkpt><trkpt lat="43.1505283" lon="2.1816033"><ele>361.0</ele><time>2026-05-01T17:26:38.997Z</time></trkpt><trkpt lat="43.1504283" lon="2.1818033"><ele>361.0</ele><time>2026-05-01T17:26:39.997Z</time></trkpt><trkpt lat="43.1503217" lon="2.1820033"><ele>361.0</ele><time>2026-05-01T17:26:40.996Z</time></trkpt><trkpt lat="43.150215" lon="2.1822033"><ele>361.0</ele><time>2026-05-01T17:26:41.996Z</time></trkpt><trkpt lat="43.1501133" lon="2.1824083"><ele>363.3333333333333</ele><time>2026-05-01T17:26:42.996Z</time></trkpt><trkpt lat="43.1500283" lon="2.182625"><ele>365.6666666666667</ele><time>2026-05-01T17:26:43.996Z</time></trkpt><trkpt lat="43.14997" lon="2.18285"><ele>368.0</ele><time>2026-05-01T17:26:44.997Z</time></trkpt><trkpt lat="43.149935" lon="2.1830717"><ele>369.33333333333337</ele><time>2026-05-01T17:26:45.997Z</time></trkpt><trkpt lat="43.14992" lon="2.183285"><ele>370.6666666666667</ele><time>2026-05-01T17:26:46.996Z</time></trkpt><trkpt lat="43.1499233" lon="2.1835067"><ele>372.0</ele><time>2026-05-01T17:26:48.002Z</time></trkpt><trkpt lat="43.1499267" lon="2.183725"><ele>372.0</ele><time>2026-05-01T17:26:48.997Z</time></trkpt><trkpt lat="43.1499267" lon="2.1839483"><ele>372.0</ele><time>2026-05-01T17:26:49.997Z</time></trkpt><trkpt lat="43.1499317" lon="2.18418"><ele>372.0</ele><time>2026-05-01T17:26:50.998Z</time></trkpt><trkpt lat="43.1499367" lon="2.1844133"><ele>371.6666666666667</ele><time>2026-05-01T17:26:51.998Z</time></trkpt><trkpt lat="43.149945" lon="2.1846517"><ele>371.33333333333337</ele><time>2026-05-01T17:26:52.997Z</time></trkpt><trkpt lat="43.1499533" lon="2.1848917"><ele>371.0</ele><time>2026-05-01T17:26:53.997Z</time></trkpt><trkpt lat="43.14997" lon="2.1851283"><ele>370.0</ele><time>2026-05-01T17:26:54.998Z</time></trkpt><trkpt lat="43.1500083" lon="2.185365"><ele>369.0</ele><time>2026-05-01T17:26:55.997Z</time></trkpt><trkpt lat="43.1500733" lon="2.1855917"><ele>368.0</ele><time>2026-05-01T17:26:56.999Z</time></trkpt><trkpt lat="43.1501583" lon="2.1858017"><ele>366.6666666666667</ele><time>2026-05-01T17:26:57.997Z</time></trkpt><trkpt lat="43.15025" lon="2.1860133"><ele>365.3333333333333</ele><time>2026-05-01T17:26:58.998Z</time></trkpt><trkpt lat="43.1503583" lon="2.18622"><ele>364.0</ele><time>2026-05-01T17:26:59.997Z</time></trkpt><trkpt lat="43.1504733" lon="2.186415"><ele>365.66666666666663</ele><time>2026-05-01T17:27:00.997Z</time></trkpt><trkpt lat="43.1506083" lon="2.1865983"><ele>367.3333333333333</ele><time>2026-05-01T17:27:01.998Z</time></trkpt><trkpt lat="43.1507583" lon="2.1867683"><ele>369.0</ele><time>2026-05-01T17:27:02.997Z</time></trkpt><trkpt lat="43.15092" lon="2.1869283"><ele>369.0</ele><time>2026-05-01T17:27:03.998Z</time></trkpt><trkpt lat="43.151085" lon="2.187085"><ele>369.0</ele><time>2026-05-01T17:27:04.997Z</time></trkpt><trkpt lat="43.1512433" lon="2.1872567"><ele>369.0</ele><time>2026-05-01T17:27:05.997Z</time></trkpt><trkpt lat="43.151395" lon="2.1874417"><ele>369.3333333333333</ele><time>2026-05-01T17:27:06.998Z</time></trkpt><trkpt lat="43.1515467" lon="2.1876283"><ele>369.66666666666663</ele><time>2026-05-01T17:27:07.998Z</time></trkpt><trkpt lat="43.151705" lon="2.1878067"><ele>370.0</ele><time>2026-05-01T17:27:08.999Z</time></trkpt><trkpt lat="43.15187" lon="2.1879717"><ele>370.0</ele><time>2026-05-01T17:27:09.998Z</time></trkpt><trkpt lat="43.1520433" lon="2.1881233"><ele>370.0</ele><time>2026-05-01T17:27:10.998Z</time></trkpt><trkpt lat="43.1522183" lon="2.1882667"><ele>370.0</ele><time>2026-05-01T17:27:11.996Z</time></trkpt><trkpt lat="43.1523933" lon="2.1884083"><ele>369.3333333333333</ele><time>2026-05-01T17:27:12.997Z</time></trkpt><trkpt lat="43.1525617" lon="2.1885583"><ele>368.6666666666667</ele><time>2026-05-01T17:27:13.997Z</time></trkpt><trkpt lat="43.15272" lon="2.1887283"><ele>368.0</ele><time>2026-05-01T17:27:14.997Z</time></trkpt><trkpt lat="43.152865" lon="2.188925"><ele>367.0</ele><time>2026-05-01T17:27:15.997Z</time></trkpt><trkpt lat="43.152995" lon="2.18914"><ele>366.0</ele><time>2026-05-01T17:27:17Z</time></trkpt><trkpt lat="43.153115" lon="2.1893683"><ele>365.0</ele><time>2026-05-01T17:27:17.998Z</time></trkpt><trkpt lat="43.153225" lon="2.189605"><ele>363.33333333333337</ele><time>2026-05-01T17:27:18.997Z</time></trkpt><trkpt lat="43.1533267" lon="2.1898483"><ele>361.6666666666667</ele><time>2026-05-01T17:27:20.005Z</time></trkpt><trkpt lat="43.1534217" lon="2.1900983"><ele>360.0</ele><time>2026-05-01T17:27:20.998Z</time></trkpt><trkpt lat="43.1535067" lon="2.1903517"><ele>360.0</ele><time>2026-05-01T17:27:21.997Z</time></trkpt><trkpt lat="43.1535867" lon="2.1906067"><ele>360.0</ele><time>2026-05-01T17:27:22.998Z</time></trkpt><trkpt lat="43.1536667" lon="2.1908583"><ele>360.0</ele><time>2026-05-01T17:27:24Z</time></trkpt><trkpt lat="43.1537417" lon="2.1911083"><ele>362.0</ele><time>2026-05-01T17:27:25.001Z</time></trkpt><trkpt lat="43.153805" lon="2.1913533"><ele>364.0</ele><time>2026-05-01T17:27:26Z</time></trkpt><trkpt lat="43.1538417" lon="2.1916"><ele>366.0</ele><time>2026-05-01T17:27:26.997Z</time></trkpt><trkpt lat="43.1538433" lon="2.191855"><ele>367.0</ele><time>2026-05-01T17:27:27.997Z</time></trkpt><trkpt lat="43.1538333" lon="2.1921083"><ele>368.0</ele><time>2026-05-01T17:27:28.998Z</time></trkpt><trkpt lat="43.1538067" lon="2.1923717"><ele>369.0</ele><time>2026-05-01T17:27:29.997Z</time></trkpt><trkpt lat="43.1537333" lon="2.1926133"><ele>369.6666666666667</ele><time>2026-05-01T17:27:30.997Z</time></trkpt><trkpt lat="43.1536583" lon="2.1928517"><ele>370.33333333333337</ele><time>2026-05-01T17:27:31.997Z</time></trkpt><trkpt lat="43.1535967" lon="2.1931"><ele>371.0</ele><time>2026-05-01T17:27:32.998Z</time></trkpt><trkpt lat="43.1535583" lon="2.193355"><ele>369.0</ele><time>2026-05-01T17:27:33.999Z</time></trkpt><trkpt lat="43.1535483" lon="2.1936183"><ele>367.0</ele><time>2026-05-01T17:27:34.997Z</time></trkpt><trkpt lat="43.1535483" lon="2.1938817"><ele>365.0</ele><time>2026-05-01T17:27:35.999Z</time></trkpt><trkpt lat="43.15355" lon="2.1941383"><ele>365.33333333333337</ele><time>2026-05-01T17:27:36.998Z</time></trkpt><trkpt lat="43.15355" lon="2.1943867"><ele>365.6666666666667</ele><time>2026-05-01T17:27:37.997Z</time></trkpt><trkpt lat="43.1535417" lon="2.194625"><ele>366.0</ele><time>2026-05-01T17:27:38.997Z</time></trkpt><trkpt lat="43.1535283" lon="2.1948533"><ele>366.0</ele><time>2026-05-01T17:27:39.997Z</time></trkpt><trkpt lat="43.1534967" lon="2.1950717"><ele>366.0</ele><time>2026-05-01T17:27:40.997Z</time></trkpt><trkpt lat="43.15345" lon="2.1952767"><ele>366.0</ele><time>2026-05-01T17:27:41.996Z</time></trkpt><trkpt lat="43.153405" lon="2.1954783"><ele>367.0</ele><time>2026-05-01T17:27:42.997Z</time></trkpt><trkpt lat="43.15338" lon="2.1956767"><ele>368.0</ele><time>2026-05-01T17:27:43.996Z</time></trkpt><trkpt lat="43.153395" lon="2.1958717"><ele>369.0</ele><time>2026-05-01T17:27:44.998Z</time></trkpt><trkpt lat="43.1534517" lon="2.196065"><ele>370.0</ele><time>2026-05-01T17:27:45.997Z</time></trkpt><trkpt lat="43.1535183" lon="2.1962567"><ele>370.0</ele><time>2026-05-01T17:27:47Z</time></trkpt><trkpt lat="43.1535683" lon="2.1964583"><ele>370.0</ele><time>2026-05-01T17:27:47.996Z</time></trkpt><trkpt lat="43.15359" lon="2.1966717"><ele>370.0</ele><time>2026-05-01T17:27:48.998Z</time></trkpt><trkpt lat="43.15357" lon="2.19689"><ele>370.0</ele><time>2026-05-01T17:27:49.997Z</time></trkpt><trkpt lat="43.153535" lon="2.19711"><ele>370.0</ele><time>2026-05-01T17:27:50.998Z</time></trkpt><trkpt lat="43.153505" lon="2.1973283"><ele>370.0</ele><time>2026-05-01T17:27:51.997Z</time></trkpt><trkpt lat="43.1534833" lon="2.19757"><ele>371.0</ele><time>2026-05-01T17:27:52.997Z</time></trkpt><trkpt lat="43.15348" lon="2.197815"><ele>372.0</ele><time>2026-05-01T17:27:53.998Z</time></trkpt><trkpt lat="43.153485" lon="2.19806"><ele>373.0</ele><time>2026-05-01T17:27:54.997Z</time></trkpt><trkpt lat="43.153495" lon="2.1983017"><ele>374.0</ele><time>2026-05-01T17:27:55.997Z</time></trkpt><trkpt lat="43.153505" lon="2.1985417"><ele>375.0</ele><time>2026-05-01T17:27:56.999Z</time></trkpt><trkpt lat="43.1535167" lon="2.1987817"><ele>376.0</ele><time>2026-05-01T17:27:57.998Z</time></trkpt><trkpt lat="43.1535267" lon="2.1990233"><ele>376.3333333333333</ele><time>2026-05-01T17:27:58.997Z</time></trkpt><trkpt lat="43.15354" lon="2.1992667"><ele>376.6666666666667</ele><time>2026-05-01T17:27:59.997Z</time></trkpt><trkpt lat="43.15355" lon="2.19951"><ele>377.0</ele><time>2026-05-01T17:28:00.996Z</time></trkpt><trkpt lat="43.1535617" lon="2.19975"><ele>377.0</ele><time>2026-05-01T17:28:01.997Z</time></trkpt><trkpt lat="43.15357" lon="2.19999"><ele>377.0</ele><time>2026-05-01T17:28:02.997Z</time></trkpt><trkpt lat="43.1535817" lon="2.2002267"><ele>377.0</ele><time>2026-05-01T17:28:03.998Z</time></trkpt><trkpt lat="43.1535933" lon="2.200455"><ele>378.6666666666667</ele><time>2026-05-01T17:28:04.996Z</time></trkpt><trkpt lat="43.1536067" lon="2.2006783"><ele>380.3333333333333</ele><time>2026-05-01T17:28:05.997Z</time></trkpt><trkpt lat="43.153615" lon="2.2008933"><ele>382.0</ele><time>2026-05-01T17:28:06.998Z</time></trkpt><trkpt lat="43.1536133" lon="2.201105"><ele>382.0</ele><time>2026-05-01T17:28:07.999Z</time></trkpt><trkpt lat="43.1535917" lon="2.2013033"><ele>382.0</ele><time>2026-05-01T17:28:08.999Z</time></trkpt><trkpt lat="43.15355" lon="2.2014867"><ele>382.0</ele><time>2026-05-01T17:28:10.001Z</time></trkpt><trkpt lat="43.1534867" lon="2.2016467"><ele>382.0</ele><time>2026-05-01T17:28:10.997Z</time></trkpt><trkpt lat="43.1534167" lon="2.2018033"><ele>383.5</ele><time>2026-05-01T17:28:11.997Z</time></trkpt><trkpt lat="43.153355" lon="2.2019667"><ele>385.0</ele><time>2026-05-01T17:28:12.997Z</time></trkpt><trkpt lat="43.1533033" lon="2.2021333"><ele>386.5</ele><time>2026-05-01T17:28:13.997Z</time></trkpt><trkpt lat="43.1532517" lon="2.20231"><ele>388.0</ele><time>2026-05-01T17:28:14.999Z</time></trkpt><trkpt lat="43.15321" lon="2.2024833"><ele>389.25</ele><time>2026-05-01T17:28:15.997Z</time></trkpt><trkpt lat="43.1531833" lon="2.20265"><ele>390.5</ele><time>2026-05-01T17:28:17Z</time></trkpt><trkpt lat="43.153185" lon="2.2028183"><ele>391.75</ele><time>2026-05-01T17:28:17.997Z</time></trkpt><trkpt lat="43.1532267" lon="2.2029667"><ele>393.0</ele><time>2026-05-01T17:28:18.999Z</time></trkpt><trkpt lat="43.1533233" lon="2.20307"><ele>393.0</ele><time>2026-05-01T17:28:19.997Z</time></trkpt><trkpt lat="43.1534517" lon="2.2031267"><ele>393.0</ele><time>2026-05-01T17:28:20.999Z</time></trkpt><trkpt lat="43.1535933" lon="2.2031617"><ele>393.0</ele><time>2026-05-01T17:28:22.005Z</time></trkpt><trkpt lat="43.15374" lon="2.2032083"><ele>393.0</ele><time>2026-05-01T17:28:22.998Z</time></trkpt><trkpt lat="43.1538817" lon="2.2032817"><ele>392.0</ele><time>2026-05-01T17:28:24Z</time></trkpt><trkpt lat="43.1540167" lon="2.2033717"><ele>391.0</ele><time>2026-05-01T17:28:24.999Z</time></trkpt><trkpt lat="43.1541317" lon="2.2034767"><ele>390.0</ele><time>2026-05-01T17:28:25.998Z</time></trkpt><trkpt lat="43.1542317" lon="2.203605"><ele>389.0</ele><time>2026-05-01T17:28:27.001Z</time></trkpt><trkpt lat="43.1542983" lon="2.203765"><ele>391.5</ele><time>2026-05-01T17:28:27.997Z</time></trkpt><trkpt lat="43.1543117" lon="2.2039433"><ele>394.0</ele><time>2026-05-01T17:28:28.996Z</time></trkpt><trkpt lat="43.154265" lon="2.2041167"><ele>396.5</ele><time>2026-05-01T17:28:29.996Z</time></trkpt><trkpt lat="43.1541867" lon="2.20428"><ele>399.0</ele><time>2026-05-01T17:28:30.996Z</time></trkpt><trkpt lat="43.1541" lon="2.2044467"><ele>395.33333333333337</ele><time>2026-05-01T17:28:31.998Z</time></trkpt><trkpt lat="43.1540233" lon="2.204625"><ele>391.6666666666667</ele><time>2026-05-01T17:28:32.996Z</time></trkpt><trkpt lat="43.1539683" lon="2.204825"><ele>388.0</ele><time>2026-05-01T17:28:34.001Z</time></trkpt><trkpt lat="43.1539417" lon="2.2050433"><ele>388.0</ele><time>2026-05-01T17:28:34.997Z</time></trkpt><trkpt lat="43.1539483" lon="2.205265"><ele>388.0</ele><time>2026-05-01T17:28:35.996Z</time></trkpt><trkpt lat="43.1539767" lon="2.2055"><ele>388.0</ele><time>2026-05-01T17:28:36.998Z</time></trkpt><trkpt lat="43.154035" lon="2.2057133"><ele>393.33333333333337</ele><time>2026-05-01T17:28:37.997Z</time></trkpt><trkpt lat="43.1541217" lon="2.2059017"><ele>398.66666666666663</ele><time>2026-05-01T17:28:38.999Z</time></trkpt><trkpt lat="43.154235" lon="2.2060717"><ele>404.0</ele><time>2026-05-01T17:28:39.997Z</time></trkpt><trkpt lat="43.15437" lon="2.2062217"><ele>404.0</ele><time>2026-05-01T17:28:41.002Z</time></trkpt><trkpt lat="43.1545317" lon="2.20633"><ele>404.0</ele><time>2026-05-01T17:28:42.002Z</time></trkpt><trkpt lat="43.1546983" lon="2.2064183"><ele>404.0</ele><time>2026-05-01T17:28:42.996Z</time></trkpt><trkpt lat="43.15486" lon="2.2065083"><ele>405.0</ele><time>2026-05-01T17:28:43.997Z</time></trkpt><trkpt lat="43.155015" lon="2.20663"><ele>406.0</ele><time>2026-05-01T17:28:44.999Z</time></trkpt><trkpt lat="43.1551517" lon="2.20679"><ele>407.0</ele><time>2026-05-01T17:28:45.997Z</time></trkpt><trkpt lat="43.155265" lon="2.206985"><ele>407.0</ele><time>2026-05-01T17:28:46.996Z</time></trkpt><trkpt lat="43.155355" lon="2.207205"><ele>407.0</ele><time>2026-05-01T17:28:47.997Z</time></trkpt><trkpt lat="43.1554367" lon="2.20743"><ele>407.0</ele><time>2026-05-01T17:28:48.999Z</time></trkpt><trkpt lat="43.155515" lon="2.2076633"><ele>405.0</ele><time>2026-05-01T17:28:49.998Z</time></trkpt><trkpt lat="43.15559" lon="2.2079"><ele>403.0</ele><time>2026-05-01T17:28:51Z</time></trkpt><trkpt lat="43.1556633" lon="2.2081333"><ele>401.0</ele><time>2026-05-01T17:28:51.997Z</time></trkpt><trkpt lat="43.15574" lon="2.2083567"><ele>405.3333333333333</ele><time>2026-05-01T17:28:52.998Z</time></trkpt><trkpt lat="43.15582" lon="2.2085667"><ele>409.66666666666663</ele><time>2026-05-01T17:28:53.998Z</time></trkpt><trkpt lat="43.1559183" lon="2.2087567"><ele>414.0</ele><time>2026-05-01T17:28:54.999Z</time></trkpt><trkpt lat="43.1560417" lon="2.208915"><ele>412.33333333333337</ele><time>2026-05-01T17:28:55.998Z</time></trkpt><trkpt lat="43.156185" lon="2.2090417"><ele>410.6666666666667</ele><time>2026-05-01T17:28:56.998Z</time></trkpt><trkpt lat="43.1563383" lon="2.2091467"><ele>409.0</ele><time>2026-05-01T17:28:57.997Z</time></trkpt><trkpt lat="43.1565033" lon="2.20924"><ele>411.6666666666667</ele><time>2026-05-01T17:28:58.998Z</time></trkpt><trkpt lat="43.156675" lon="2.2093167"><ele>414.33333333333337</ele><time>2026-05-01T17:28:59.997Z</time></trkpt><trkpt lat="43.15685" lon="2.2093633"><ele>417.0</ele><time>2026-05-01T17:29:00.998Z</time></trkpt><trkpt lat="43.1570233" lon="2.2093817"><ele>417.0</ele><time>2026-05-01T17:29:02.001Z</time></trkpt><trkpt lat="43.1571917" lon="2.2093933"><ele>417.0</ele><time>2026-05-01T17:29:02.997Z</time></trkpt><trkpt lat="43.15735" lon="2.2094283"><ele>417.0</ele><time>2026-05-01T17:29:03.996Z</time></trkpt><trkpt lat="43.1574983" lon="2.2095"><ele>417.33333333333337</ele><time>2026-05-01T17:29:04.998Z</time></trkpt><trkpt lat="43.1576333" lon="2.209615"><ele>417.6666666666667</ele><time>2026-05-01T17:29:05.996Z</time></trkpt><trkpt lat="43.1577683" lon="2.20975"><ele>418.0</ele><time>2026-05-01T17:29:06.998Z</time></trkpt><trkpt lat="43.1579017" lon="2.2098983"><ele>418.6666666666667</ele><time>2026-05-01T17:29:07.996Z</time></trkpt><trkpt lat="43.1580267" lon="2.21004"><ele>419.33333333333337</ele><time>2026-05-01T17:29:08.997Z</time></trkpt><trkpt lat="43.1581383" lon="2.21018"><ele>420.0</ele><time>2026-05-01T17:29:09.997Z</time></trkpt><trkpt lat="43.1582383" lon="2.21033"><ele>420.0</ele><time>2026-05-01T17:29:10.997Z</time></trkpt><trkpt lat="43.1583217" lon="2.210495"><ele>420.0</ele><time>2026-05-01T17:29:12.001Z</time></trkpt><trkpt lat="43.1583883" lon="2.21067"><ele>420.0</ele><time>2026-05-01T17:29:12.996Z</time></trkpt><trkpt lat="43.1584467" lon="2.2108383"><ele>420.0</ele><time>2026-05-01T17:29:13.997Z</time></trkpt><trkpt lat="43.1585133" lon="2.2109933"><ele>422.0</ele><time>2026-05-01T17:29:14.997Z</time></trkpt><trkpt lat="43.158595" lon="2.211125"><ele>424.0</ele><time>2026-05-01T17:29:15.997Z</time></trkpt><trkpt lat="43.158695" lon="2.2112083"><ele>426.0</ele><time>2026-05-01T17:29:16.996Z</time></trkpt><trkpt lat="43.1588033" lon="2.2112317"><ele>428.0</ele><time>2026-05-01T17:29:17.997Z</time></trkpt><trkpt lat="43.1589167" lon="2.2112067"><ele>428.0</ele><time>2026-05-01T17:29:18.997Z</time></trkpt><trkpt lat="43.1590317" lon="2.211155"><ele>428.0</ele><time>2026-05-01T17:29:19.996Z</time></trkpt><trkpt lat="43.1591483" lon="2.211115"><ele>428.0</ele><time>2026-05-01T17:29:20.999Z</time></trkpt><trkpt lat="43.1592733" lon="2.2110967"><ele>428.0</ele><time>2026-05-01T17:29:21.997Z</time></trkpt><trkpt lat="43.1593983" lon="2.21111"><ele>426.5</ele><time>2026-05-01T17:29:22.997Z</time></trkpt><trkpt lat="43.1595217" lon="2.2111417"><ele>425.0</ele><time>2026-05-01T17:29:23.997Z</time></trkpt><trkpt lat="43.1596467" lon="2.2111767"><ele>423.5</ele><time>2026-05-01T17:29:24.996Z</time></trkpt><trkpt lat="43.1597717" lon="2.2111883"><ele>422.0</ele><time>2026-05-01T17:29:25.996Z</time></trkpt><trkpt lat="43.159895" lon="2.2111533"><ele>422.0</ele><time>2026-05-01T17:29:26.997Z</time></trkpt><trkpt lat="43.16001" lon="2.2110583"><ele>422.0</ele><time>2026-05-01T17:29:27.998Z</time></trkpt><trkpt lat="43.1601167" lon="2.2109383"><ele>422.0</ele><time>2026-05-01T17:29:28.997Z</time></trkpt><trkpt lat="43.1602233" lon="2.2108183"><ele>422.0</ele><time>2026-05-01T17:29:29.998Z</time></trkpt><trkpt lat="43.16033" lon="2.2106933"><ele>422.0</ele><time>2026-05-01T17:29:30.999Z</time></trkpt><trkpt lat="43.1604367" lon="2.2105683"><ele>422.0</ele><time>2026-05-01T17:29:31.998Z</time></trkpt><trkpt lat="43.160545" lon="2.210445"><ele>422.0</ele><time>2026-05-01T17:29:32.999Z</time></trkpt><trkpt lat="43.1606483" lon="2.2103283"><ele>422.0</ele><time>2026-05-01T17:29:33.997Z</time></trkpt><trkpt lat="43.1607533" lon="2.2102133"><ele>419.5</ele><time>2026-05-01T17:29:35.002Z</time></trkpt><trkpt lat="43.1608617" lon="2.2101167"><ele>417.0</ele><time>2026-05-01T17:29:35.998Z</time></trkpt><trkpt lat="43.1609767" lon="2.210055"><ele>414.5</ele><time>2026-05-01T17:29:36.999Z</time></trkpt><trkpt lat="43.1610933" lon="2.2100317"><ele>412.0</ele><time>2026-05-01T17:29:38.001Z</time></trkpt><trkpt lat="43.1612117" lon="2.21006"><ele>412.0</ele><time>2026-05-01T17:29:39Z</time></trkpt><trkpt lat="43.1613167" lon="2.210145"><ele>412.0</ele><time>2026-05-01T17:29:39.998Z</time></trkpt><trkpt lat="43.1614083" lon="2.2102717"><ele>412.0</ele><time>2026-05-01T17:29:40.997Z</time></trkpt><trkpt lat="43.16148" lon="2.2104383"><ele>412.0</ele><time>2026-05-01T17:29:41.999Z</time></trkpt><trkpt lat="43.16155" lon="2.2106133"><ele>412.5</ele><time>2026-05-01T17:29:42.999Z</time></trkpt><trkpt lat="43.161625" lon="2.2107767"><ele>413.0</ele><time>2026-05-01T17:29:43.999Z</time></trkpt><trkpt lat="43.1617067" lon="2.21094"><ele>413.5</ele><time>2026-05-01T17:29:44.999Z</time></trkpt><trkpt lat="43.1617867" lon="2.211115"><ele>414.0</ele><time>2026-05-01T17:29:45.996Z</time></trkpt><trkpt lat="43.161865" lon="2.2113017"><ele>414.0</ele><time>2026-05-01T17:29:46.997Z</time></trkpt><trkpt lat="43.1619467" lon="2.21149"><ele>414.0</ele><time>2026-05-01T17:29:47.997Z</time></trkpt><trkpt lat="43.1620317" lon="2.2116683"><ele>414.0</ele><time>2026-05-01T17:29:48.999Z</time></trkpt><trkpt lat="43.1621117" lon="2.2118333"><ele>414.75</ele><time>2026-05-01T17:29:49.999Z</time></trkpt><trkpt lat="43.162195" lon="2.2119867"><ele>415.5</ele><time>2026-05-01T17:29:50.998Z</time></trkpt><trkpt lat="43.1622833" lon="2.2121217"><ele>416.25</ele><time>2026-05-01T17:29:51.998Z</time></trkpt><trkpt lat="43.1623767" lon="2.2122483"><ele>417.0</ele><time>2026-05-01T17:29:52.998Z</time></trkpt><trkpt lat="43.16245" lon="2.2123783"><ele>414.5</ele><time>2026-05-01T17:29:53.997Z</time></trkpt><trkpt lat="43.162505" lon="2.2125183"><ele>412.0</ele><time>2026-05-01T17:29:54.998Z</time></trkpt><trkpt lat="43.16253" lon="2.2126733"><ele>409.5</ele><time>2026-05-01T17:29:55.998Z</time></trkpt><trkpt lat="43.162545" lon="2.2128267"><ele>407.0</ele><time>2026-05-01T17:29:56.998Z</time></trkpt><trkpt lat="43.1625817" lon="2.21297"><ele>407.0</ele><time>2026-05-01T17:29:57.999Z</time></trkpt><trkpt lat="43.162645" lon="2.2130633"><ele>407.0</ele><time>2026-05-01T17:29:58.999Z</time></trkpt><trkpt lat="43.16274" lon="2.21312"><ele>407.0</ele><time>2026-05-01T17:30:00.002Z</time></trkpt><trkpt lat="43.1628617" lon="2.21312"><ele>407.0</ele><time>2026-05-01T17:30:00.997Z</time></trkpt><trkpt lat="43.16299" lon="2.2130583"><ele>407.0</ele><time>2026-05-01T17:30:01.998Z</time></trkpt><trkpt lat="43.163085" lon="2.2129417"><ele>407.0</ele><time>2026-05-01T17:30:02.999Z</time></trkpt><trkpt lat="43.1631683" lon="2.2127833"><ele>407.0</ele><time>2026-05-01T17:30:03.998Z</time></trkpt><trkpt lat="43.1632333" lon="2.21263"><ele>407.0</ele><time>2026-05-01T17:30:04.998Z</time></trkpt><trkpt lat="43.16331" lon="2.2124783"><ele>405.75</ele><time>2026-05-01T17:30:06.008Z</time></trkpt><trkpt lat="43.1634117" lon="2.2123417"><ele>404.5</ele><time>2026-05-01T17:30:06.998Z</time></trkpt><trkpt lat="43.1635317" lon="2.2122267"><ele>403.25</ele><time>2026-05-01T17:30:08.001Z</time></trkpt><trkpt lat="43.1636767" lon="2.212165"><ele>402.0</ele><time>2026-05-01T17:30:09Z</time></trkpt><trkpt lat="43.1638233" lon="2.2121533"><ele>404.0</ele><time>2026-05-01T17:30:09.998Z</time></trkpt><trkpt lat="43.16397" lon="2.2121683"><ele>406.0</ele><time>2026-05-01T17:30:10.998Z</time></trkpt><trkpt lat="43.1641117" lon="2.2121917"><ele>408.0</ele><time>2026-05-01T17:30:11.998Z</time></trkpt><trkpt lat="43.16425" lon="2.2122133"><ele>410.0</ele><time>2026-05-01T17:30:12.999Z</time></trkpt><trkpt lat="43.1643933" lon="2.21223"><ele>410.0</ele><time>2026-05-01T17:30:13.998Z</time></trkpt><trkpt lat="43.1645233" lon="2.212275"><ele>410.0</ele><time>2026-05-01T17:30:14.997Z</time></trkpt><trkpt lat="43.1646333" lon="2.2123717"><ele>410.0</ele><time>2026-05-01T17:30:15.999Z</time></trkpt><trkpt lat="43.16469" lon="2.2125383"><ele>410.0</ele><time>2026-05-01T17:30:16.996Z</time></trkpt><trkpt lat="43.1647133" lon="2.2127317"><ele>404.3333333333333</ele><time>2026-05-01T17:30:18.003Z</time></trkpt><trkpt lat="43.1647217" lon="2.212935"><ele>398.66666666666663</ele><time>2026-05-01T17:30:18.997Z</time></trkpt><trkpt lat="43.16473" lon="2.2131433"><ele>393.0</ele><time>2026-05-01T17:30:19.997Z</time></trkpt><trkpt lat="43.1647433" lon="2.2133667"><ele>388.6666666666667</ele><time>2026-05-01T17:30:20.999Z</time></trkpt><trkpt lat="43.1647583" lon="2.2135917"><ele>384.33333333333337</ele><time>2026-05-01T17:30:21.997Z</time></trkpt><trkpt lat="43.164775" lon="2.2138133"><ele>380.0</ele><time>2026-05-01T17:30:22.997Z</time></trkpt><trkpt lat="43.1647967" lon="2.2140417"><ele>382.33333333333337</ele><time>2026-05-01T17:30:23.997Z</time></trkpt><trkpt lat="43.1648183" lon="2.2142717"><ele>384.6666666666667</ele><time>2026-05-01T17:30:24.998Z</time></trkpt><trkpt lat="43.1648417" lon="2.2145083"><ele>387.0</ele><time>2026-05-01T17:30:25.998Z</time></trkpt><trkpt lat="43.16487" lon="2.21474"><ele>385.6666666666667</ele><time>2026-05-01T17:30:26.997Z</time></trkpt><trkpt lat="43.1648983" lon="2.2149667"><ele>384.33333333333337</ele><time>2026-05-01T17:30:28.003Z</time></trkpt><trkpt lat="43.1649383" lon="2.215175"><ele>383.0</ele><time>2026-05-01T17:30:28.997Z</time></trkpt><trkpt lat="43.1649933" lon="2.2153733"><ele>383.0</ele><time>2026-05-01T17:30:29.997Z</time></trkpt><trkpt lat="43.16505" lon="2.21557"><ele>383.0</ele><time>2026-05-01T17:30:30.999Z</time></trkpt><trkpt lat="43.16509" lon="2.2157683"><ele>383.0</ele><time>2026-05-01T17:30:31.998Z</time></trkpt><trkpt lat="43.1651083" lon="2.2159617"><ele>383.0</ele><time>2026-05-01T17:30:32.997Z</time></trkpt><trkpt lat="43.1651083" lon="2.2161583"><ele>381.75</ele><time>2026-05-01T17:30:33.998Z</time></trkpt><trkpt lat="43.1650767" lon="2.2163467"><ele>380.5</ele><time>2026-05-01T17:30:34.998Z</time></trkpt><trkpt lat="43.165" lon="2.216505"><ele>379.25</ele><time>2026-05-01T17:30:36Z</time></trkpt><trkpt lat="43.1648867" lon="2.2166333"><ele>378.0</ele><time>2026-05-01T17:30:36.997Z</time></trkpt><trkpt lat="43.16476" lon="2.2167533"><ele>373.0</ele><time>2026-05-01T17:30:37.998Z</time></trkpt><trkpt lat="43.164635" lon="2.2168867"><ele>368.0</ele><time>2026-05-01T17:30:38.997Z</time></trkpt><trkpt lat="43.164525" lon="2.2170483"><ele>363.0</ele><time>2026-05-01T17:30:39.997Z</time></trkpt><trkpt lat="43.1644317" lon="2.2172383"><ele>365.3333333333333</ele><time>2026-05-01T17:30:40.996Z</time></trkpt><trkpt lat="43.164365" lon="2.2174467"><ele>367.66666666666663</ele><time>2026-05-01T17:30:41.997Z</time></trkpt><trkpt lat="43.1643117" lon="2.2176733"><ele>370.0</ele><time>2026-05-01T17:30:42.998Z</time></trkpt><trkpt lat="43.16426" lon="2.2179"><ele>370.0</ele><time>2026-05-01T17:30:43.997Z</time></trkpt><trkpt lat="43.1642117" lon="2.2181167"><ele>370.0</ele><time>2026-05-01T17:30:44.997Z</time></trkpt><trkpt lat="43.164165" lon="2.2183333"><ele>370.0</ele><time>2026-05-01T17:30:45.996Z</time></trkpt><trkpt lat="43.16412" lon="2.2185517"><ele>371.0</ele><time>2026-05-01T17:30:46.998Z</time></trkpt><trkpt lat="43.164075" lon="2.218765"><ele>372.0</ele><time>2026-05-01T17:30:47.997Z</time></trkpt><trkpt lat="43.1640433" lon="2.2189483"><ele>373.0</ele><time>2026-05-01T17:30:48.997Z</time></trkpt><trkpt lat="43.1640133" lon="2.2191333"><ele>374.0</ele><time>2026-05-01T17:30:49.999Z</time></trkpt><trkpt lat="43.1640017" lon="2.2193183"><ele>373.5</ele><time>2026-05-01T17:30:50.997Z</time></trkpt><trkpt lat="43.1640133" lon="2.2194983"><ele>373.0</ele><time>2026-05-01T17:30:51.999Z</time></trkpt><trkpt lat="43.1640683" lon="2.2196567"><ele>372.5</ele><time>2026-05-01T17:30:52.997Z</time></trkpt><trkpt lat="43.1641383" lon="2.2198017"><ele>372.0</ele><time>2026-05-01T17:30:53.999Z</time></trkpt><trkpt lat="43.164195" lon="2.219945"><ele>370.5</ele><time>2026-05-01T17:30:54.997Z</time></trkpt><trkpt lat="43.1642167" lon="2.220105"><ele>369.0</ele><time>2026-05-01T17:30:55.996Z</time></trkpt><trkpt lat="43.1641983" lon="2.2202633"><ele>367.5</ele><time>2026-05-01T17:30:56.997Z</time></trkpt><trkpt lat="43.1641433" lon="2.2204017"><ele>366.0</ele><time>2026-05-01T17:30:57.997Z</time></trkpt><trkpt lat="43.16404" lon="2.2205133"><ele>362.25</ele><time>2026-05-01T17:30:58.997Z</time></trkpt><trkpt lat="43.1639317" lon="2.220605"><ele>358.5</ele><time>2026-05-01T17:30:59.998Z</time></trkpt><trkpt lat="43.16383" lon="2.220695"><ele>354.75</ele><time>2026-05-01T17:31:00.998Z</time></trkpt><trkpt lat="43.16374" lon="2.220795"><ele>351.0</ele><time>2026-05-01T17:31:01.997Z</time></trkpt><trkpt lat="43.1636833" lon="2.2209317"><ele>349.5</ele><time>2026-05-01T17:31:02.997Z</time></trkpt><trkpt lat="43.16367" lon="2.2210783"><ele>348.0</ele><time>2026-05-01T17:31:03.997Z</time></trkpt><trkpt lat="43.16371" lon="2.2212167"><ele>346.5</ele><time>2026-05-01T17:31:04.997Z</time></trkpt><trkpt lat="43.1638" lon="2.2213317"><ele>345.0</ele><time>2026-05-01T17:31:05.998Z</time></trkpt><trkpt lat="43.163925" lon="2.2214383"><ele>346.5</ele><time>2026-05-01T17:31:06.998Z</time></trkpt><trkpt lat="43.16405" lon="2.221535"><ele>348.0</ele><time>2026-05-01T17:31:07.998Z</time></trkpt><trkpt lat="43.1641733" lon="2.2216233"><ele>349.5</ele><time>2026-05-01T17:31:08.997Z</time></trkpt><trkpt lat="43.1642917" lon="2.2217283"><ele>351.0</ele><time>2026-05-01T17:31:09.997Z</time></trkpt><trkpt lat="43.164405" lon="2.2218583"><ele>351.0</ele><time>2026-05-01T17:31:10.997Z</time></trkpt><trkpt lat="43.1645017" lon="2.2220233"><ele>351.0</ele><time>2026-05-01T17:31:11.997Z</time></trkpt><trkpt lat="43.1645533" lon="2.2222083"><ele>351.0</ele><time>2026-05-01T17:31:12.996Z</time></trkpt><trkpt lat="43.1645483" lon="2.2224383"><ele>346.6666666666667</ele><time>2026-05-01T17:31:13.998Z</time></trkpt><trkpt lat="43.164525" lon="2.2226617"><ele>342.33333333333337</ele><time>2026-05-01T17:31:14.999Z</time></trkpt><trkpt lat="43.164505" lon="2.2228967"><ele>338.0</ele><time>2026-05-01T17:31:15.999Z</time></trkpt><trkpt lat="43.1644833" lon="2.2231217"><ele>336.6666666666667</ele><time>2026-05-01T17:31:16.998Z</time></trkpt><trkpt lat="43.164455" lon="2.2233483"><ele>335.3333333333333</ele><time>2026-05-01T17:31:18.003Z</time></trkpt><trkpt lat="43.16443" lon="2.2235583"><ele>334.0</ele><time>2026-05-01T17:31:18.999Z</time></trkpt><trkpt lat="43.1644167" lon="2.2237683"><ele>334.0</ele><time>2026-05-01T17:31:20.001Z</time></trkpt><trkpt lat="43.16442" lon="2.2239767"><ele>334.0</ele><time>2026-05-01T17:31:21Z</time></trkpt><trkpt lat="43.164455" lon="2.2241867"><ele>334.0</ele><time>2026-05-01T17:31:21.999Z</time></trkpt><trkpt lat="43.1645217" lon="2.2243833"><ele>332.3333333333333</ele><time>2026-05-01T17:31:22.997Z</time></trkpt><trkpt lat="43.1646183" lon="2.22456"><ele>330.6666666666667</ele><time>2026-05-01T17:31:23.996Z</time></trkpt><trkpt lat="43.1647433" lon="2.2247017"><ele>329.0</ele><time>2026-05-01T17:31:24.997Z</time></trkpt><trkpt lat="43.16488" lon="2.224825"><ele>328.0</ele><time>2026-05-01T17:31:25.998Z</time></trkpt><trkpt lat="43.165015" lon="2.2249467"><ele>327.0</ele><time>2026-05-01T17:31:26.998Z</time></trkpt><trkpt lat="43.1651367" lon="2.2250767"><ele>326.0</ele><time>2026-05-01T17:31:27.997Z</time></trkpt><trkpt lat="43.1652383" lon="2.2252367"><ele>326.0</ele><time>2026-05-01T17:31:28.998Z</time></trkpt><trkpt lat="43.1653117" lon="2.2254183"><ele>326.0</ele><time>2026-05-01T17:31:29.997Z</time></trkpt><trkpt lat="43.1653583" lon="2.2256233"><ele>326.0</ele><time>2026-05-01T17:31:30.997Z</time></trkpt><trkpt lat="43.1653917" lon="2.22583"><ele>323.5</ele><time>2026-05-01T17:31:31.999Z</time></trkpt><trkpt lat="43.1654217" lon="2.2260233"><ele>321.0</ele><time>2026-05-01T17:31:32.998Z</time></trkpt><trkpt lat="43.1654467" lon="2.226205"><ele>318.5</ele><time>2026-05-01T17:31:33.997Z</time></trkpt><trkpt lat="43.165455" lon="2.2263833"><ele>316.0</ele><time>2026-05-01T17:31:34.996Z</time></trkpt><trkpt lat="43.1654283" lon="2.2265567"><ele>315.5</ele><time>2026-05-01T17:31:35.997Z</time></trkpt><trkpt lat="43.1653633" lon="2.22671"><ele>315.0</ele><time>2026-05-01T17:31:36.997Z</time></trkpt><trkpt lat="43.1652683" lon="2.2268367"><ele>314.5</ele><time>2026-05-01T17:31:38.002Z</time></trkpt><trkpt lat="43.1651717" lon="2.2269667"><ele>314.0</ele><time>2026-05-01T17:31:38.997Z</time></trkpt><trkpt lat="43.1650983" lon="2.227125"><ele>314.0</ele><time>2026-05-01T17:31:39.997Z</time></trkpt><trkpt lat="43.1650617" lon="2.2273067"><ele>314.0</ele><time>2026-05-01T17:31:40.998Z</time></trkpt><trkpt lat="43.1650567" lon="2.22751"><ele>314.0</ele><time>2026-05-01T17:31:41.997Z</time></trkpt><trkpt lat="43.1650667" lon="2.2277233"><ele>314.0</ele><time>2026-05-01T17:31:42.997Z</time></trkpt><trkpt lat="43.1650733" lon="2.2279367"><ele>313.25</ele><time>2026-05-01T17:31:43.996Z</time></trkpt><trkpt lat="43.16508" lon="2.2281433"><ele>312.5</ele><time>2026-05-01T17:31:44.997Z</time></trkpt><trkpt lat="43.165095" lon="2.228345"><ele>311.75</ele><time>2026-05-01T17:31:46.002Z</time></trkpt><trkpt lat="43.1651267" lon="2.22854"><ele>311.0</ele><time>2026-05-01T17:31:46.996Z</time></trkpt><trkpt lat="43.1651967" lon="2.22872"><ele>311.0</ele><time>2026-05-01T17:31:47.998Z</time></trkpt><trkpt lat="43.1652933" lon="2.228885"><ele>311.0</ele><time>2026-05-01T17:31:48.996Z</time></trkpt><trkpt lat="43.165415" lon="2.22903"><ele>311.0</ele><time>2026-05-01T17:31:49.996Z</time></trkpt><trkpt lat="43.1655483" lon="2.22916"><ele>311.6666666666667</ele><time>2026-05-01T17:31:50.997Z</time></trkpt><trkpt lat="43.1656917" lon="2.2292817"><ele>312.3333333333333</ele><time>2026-05-01T17:31:51.997Z</time></trkpt><trkpt lat="43.1658483" lon="2.2293983"><ele>313.0</ele><time>2026-05-01T17:31:52.996Z</time></trkpt><trkpt lat="43.1660017" lon="2.2295167"><ele>313.0</ele><time>2026-05-01T17:31:53.997Z</time></trkpt><trkpt lat="43.16615" lon="2.2296333"><ele>313.0</ele><time>2026-05-01T17:31:54.997Z</time></trkpt><trkpt lat="43.1663017" lon="2.229745"><ele>313.0</ele><time>2026-05-01T17:31:55.996Z</time></trkpt><trkpt lat="43.16645" lon="2.229855"><ele>311.0</ele><time>2026-05-01T17:31:56.999Z</time></trkpt><trkpt lat="43.1665917" lon="2.229965"><ele>309.0</ele><time>2026-05-01T17:31:57.997Z</time></trkpt><trkpt lat="43.1667183" lon="2.2300767"><ele>307.0</ele><time>2026-05-01T17:31:58.997Z</time></trkpt><trkpt lat="43.16683" lon="2.2302067"><ele>307.0</ele><time>2026-05-01T17:31:59.997Z</time></trkpt><trkpt lat="43.1669167" lon="2.2303717"><ele>307.0</ele><time>2026-05-01T17:32:00.999Z</time></trkpt><trkpt lat="43.16697" lon="2.2305667"><ele>307.0</ele><time>2026-05-01T17:32:01.999Z</time></trkpt><trkpt lat="43.1669967" lon="2.2307833"><ele>307.66666666666663</ele><time>2026-05-01T17:32:02.997Z</time></trkpt><trkpt lat="43.1670117" lon="2.231005"><ele>308.3333333333333</ele><time>2026-05-01T17:32:03.997Z</time></trkpt><trkpt lat="43.16703" lon="2.23122"><ele>309.0</ele><time>2026-05-01T17:32:04.998Z</time></trkpt><trkpt lat="43.1670467" lon="2.2314217"><ele>307.5</ele><time>2026-05-01T17:32:05.998Z</time></trkpt><trkpt lat="43.1670617" lon="2.23162"><ele>306.0</ele><time>2026-05-01T17:32:06.998Z</time></trkpt><trkpt lat="43.16707" lon="2.231805"><ele>304.5</ele><time>2026-05-01T17:32:08.002Z</time></trkpt><trkpt lat="43.1670933" lon="2.2319733"><ele>303.0</ele><time>2026-05-01T17:32:08.997Z</time></trkpt><trkpt lat="43.1671517" lon="2.2321033"><ele>303.0</ele><time>2026-05-01T17:32:09.997Z</time></trkpt><trkpt lat="43.167255" lon="2.2322"><ele>303.0</ele><time>2026-05-01T17:32:10.997Z</time></trkpt><trkpt lat="43.1673533" lon="2.2323017"><ele>303.0</ele><time>2026-05-01T17:32:11.998Z</time></trkpt><trkpt lat="43.1674333" lon="2.2324333"><ele>303.0</ele><time>2026-05-01T17:32:12.998Z</time></trkpt><trkpt lat="43.1674633" lon="2.2325933"><ele>303.5</ele><time>2026-05-01T17:32:14.001Z</time></trkpt><trkpt lat="43.1674533" lon="2.232775"><ele>304.0</ele><time>2026-05-01T17:32:14.999Z</time></trkpt><trkpt lat="43.167415" lon="2.23297"><ele>304.5</ele><time>2026-05-01T17:32:15.997Z</time></trkpt><trkpt lat="43.167375" lon="2.2331567"><ele>305.0</ele><time>2026-05-01T17:32:16.998Z</time></trkpt><trkpt lat="43.167345" lon="2.2333333"><ele>303.8</ele><time>2026-05-01T17:32:17.998Z</time></trkpt><trkpt lat="43.16732" lon="2.2334983"><ele>302.6</ele><time>2026-05-01T17:32:18.998Z</time></trkpt><trkpt lat="43.1673133" lon="2.233655"><ele>301.4</ele><time>2026-05-01T17:32:19.998Z</time></trkpt><trkpt lat="43.1673467" lon="2.2337917"><ele>300.2</ele><time>2026-05-01T17:32:20.998Z</time></trkpt><trkpt lat="43.16742" lon="2.2338933"><ele>299.0</ele><time>2026-05-01T17:32:21.999Z</time></trkpt><trkpt lat="43.1675283" lon="2.2339283"><ele>299.0</ele><time>2026-05-01T17:32:22.998Z</time></trkpt><trkpt lat="43.1676417" lon="2.2338867"><ele>299.0</ele><time>2026-05-01T17:32:23.997Z</time></trkpt><trkpt lat="43.1677567" lon="2.2338017"><ele>299.0</ele><time>2026-05-01T17:32:24.997Z</time></trkpt><trkpt lat="43.1678867" lon="2.233715"><ele>299.0</ele><time>2026-05-01T17:32:25.996Z</time></trkpt><trkpt lat="43.168035" lon="2.2336583"><ele>299.0</ele><time>2026-05-01T17:32:26.997Z</time></trkpt><trkpt lat="43.1681917" lon="2.2336367"><ele>299.0</ele><time>2026-05-01T17:32:27.998Z</time></trkpt><trkpt lat="43.1683433" lon="2.2336483"><ele>299.0</ele><time>2026-05-01T17:32:28.999Z</time></trkpt><trkpt lat="43.16848" lon="2.233685"><ele>299.0</ele><time>2026-05-01T17:32:29.998Z</time></trkpt><trkpt lat="43.1686017" lon="2.233755"><ele>299.75</ele><time>2026-05-01T17:32:30.997Z</time></trkpt><trkpt lat="43.1687" lon="2.2338783"><ele>300.5</ele><time>2026-05-01T17:32:31.998Z</time></trkpt><trkpt lat="43.1687617" lon="2.23404"><ele>301.25</ele><time>2026-05-01T17:32:32.997Z</time></trkpt><trkpt lat="43.168785" lon="2.2342233"><ele>302.0</ele><time>2026-05-01T17:32:33.997Z</time></trkpt><trkpt lat="43.1687767" lon="2.2344083"><ele>299.5</ele><time>2026-05-01T17:32:34.997Z</time></trkpt><trkpt lat="43.1687633" lon="2.2346"><ele>297.0</ele><time>2026-05-01T17:32:35.996Z</time></trkpt><trkpt lat="43.1687717" lon="2.234795"><ele>294.5</ele><time>2026-05-01T17:32:36.997Z</time></trkpt><trkpt lat="43.1688167" lon="2.2349783"><ele>292.0</ele><time>2026-05-01T17:32:37.998Z</time></trkpt><trkpt lat="43.1688817" lon="2.2351417"><ele>289.75</ele><time>2026-05-01T17:32:38.999Z</time></trkpt><trkpt lat="43.1689317" lon="2.2353033"><ele>287.5</ele><time>2026-05-01T17:32:39.997Z</time></trkpt><trkpt lat="43.1689483" lon="2.2354733"><ele>285.25</ele><time>2026-05-01T17:32:40.997Z</time></trkpt><trkpt lat="43.1689183" lon="2.2356367"><ele>283.0</ele><time>2026-05-01T17:32:41.996Z</time></trkpt><trkpt lat="43.16886" lon="2.23578"><ele>282.25</ele><time>2026-05-01T17:32:43Z</time></trkpt><trkpt lat="43.1688083" lon="2.2359233"><ele>281.5</ele><time>2026-05-01T17:32:43.998Z</time></trkpt><trkpt lat="43.168785" lon="2.2360733"><ele>280.75</ele><time>2026-05-01T17:32:44.998Z</time></trkpt><trkpt lat="43.1688117" lon="2.2362133"><ele>280.0</ele><time>2026-05-01T17:32:45.998Z</time></trkpt><trkpt lat="43.1688917" lon="2.23634"><ele>280.0</ele><time>2026-05-01T17:32:46.998Z</time></trkpt><trkpt lat="43.168975" lon="2.2364567"><ele>280.0</ele><time>2026-05-01T17:32:47.998Z</time></trkpt><trkpt lat="43.1690433" lon="2.2365867"><ele>280.0</ele><time>2026-05-01T17:32:48.999Z</time></trkpt><trkpt lat="43.1690667" lon="2.2367367"><ele>280.0</ele><time>2026-05-01T17:32:49.997Z</time></trkpt><trkpt lat="43.1690483" lon="2.23689"><ele>279.0</ele><time>2026-05-01T17:32:51.003Z</time></trkpt><trkpt lat="43.168995" lon="2.23703"><ele>278.0</ele><time>2026-05-01T17:32:52Z</time></trkpt><trkpt lat="43.16892" lon="2.23716"><ele>277.0</ele><time>2026-05-01T17:32:52.997Z</time></trkpt><trkpt lat="43.16885" lon="2.2372833"><ele>276.0</ele><time>2026-05-01T17:32:53.997Z</time></trkpt><trkpt lat="43.16879" lon="2.2374083"><ele>275.2</ele><time>2026-05-01T17:32:54.996Z</time></trkpt><trkpt lat="43.16875" lon="2.2375533"><ele>274.40000000000003</ele><time>2026-05-01T17:32:55.996Z</time></trkpt><trkpt lat="43.1687617" lon="2.2377017"><ele>273.6</ele><time>2026-05-01T17:32:56.998Z</time></trkpt><trkpt lat="43.1687983" lon="2.2378367"><ele>272.8</ele><time>2026-05-01T17:32:57.996Z</time></trkpt><trkpt lat="43.1688667" lon="2.2379433"><ele>272.0</ele><time>2026-05-01T17:32:58.996Z</time></trkpt><trkpt lat="43.1689533" lon="2.2379717"><ele>274.75</ele><time>2026-05-01T17:32:59.998Z</time></trkpt><trkpt lat="43.16905" lon="2.237935"><ele>277.5</ele><time>2026-05-01T17:33:00.997Z</time></trkpt><trkpt lat="43.1691667" lon="2.237775"><ele>280.25</ele><time>2026-05-01T17:33:01.998Z</time></trkpt><trkpt lat="43.1692617" lon="2.2376183"><ele>283.0</ele><time>2026-05-01T17:33:02.997Z</time></trkpt><trkpt lat="43.1693517" lon="2.2374633"><ele>283.0</ele><time>2026-05-01T17:33:04Z</time></trkpt><trkpt lat="43.1694483" lon="2.23731"><ele>283.0</ele><time>2026-05-01T17:33:04.997Z</time></trkpt><trkpt lat="43.169555" lon="2.237175"><ele>283.0</ele><time>2026-05-01T17:33:05.998Z</time></trkpt><trkpt lat="43.16968" lon="2.2370567"><ele>283.0</ele><time>2026-05-01T17:33:06.998Z</time></trkpt><trkpt lat="43.1698283" lon="2.237"><ele>284.0</ele><time>2026-05-01T17:33:07.997Z</time></trkpt><trkpt lat="43.1699733" lon="2.236995"><ele>285.0</ele><time>2026-05-01T17:33:08.998Z</time></trkpt><trkpt lat="43.1701283" lon="2.2370033"><ele>286.0</ele><time>2026-05-01T17:33:09.997Z</time></trkpt><trkpt lat="43.1702717" lon="2.2370167"><ele>287.0</ele><time>2026-05-01T17:33:10.997Z</time></trkpt><trkpt lat="43.1704217" lon="2.23704"><ele>287.0</ele><time>2026-05-01T17:33:11.997Z</time></trkpt><trkpt lat="43.170555" lon="2.2371033"><ele>287.0</ele><time>2026-05-01T17:33:12.996Z</time></trkpt><trkpt lat="43.170665" lon="2.2372033"><ele>287.0</ele><time>2026-05-01T17:33:13.996Z</time></trkpt><trkpt lat="43.1707467" lon="2.2373533"><ele>287.0</ele><time>2026-05-01T17:33:14.999Z</time></trkpt><trkpt lat="43.1707983" lon="2.23754"><ele>284.5</ele><time>2026-05-01T17:33:15.998Z</time></trkpt><trkpt lat="43.1708433" lon="2.2377267"><ele>282.0</ele><time>2026-05-01T17:33:16.996Z</time></trkpt><trkpt lat="43.1708967" lon="2.23791"><ele>279.5</ele><time>2026-05-01T17:33:17.998Z</time></trkpt><trkpt lat="43.1709667" lon="2.238075"><ele>277.0</ele><time>2026-05-01T17:33:18.999Z</time></trkpt><trkpt lat="43.171055" lon="2.2382267"><ele>275.0</ele><time>2026-05-01T17:33:19.997Z</time></trkpt><trkpt lat="43.1711567" lon="2.238385"><ele>273.0</ele><time>2026-05-01T17:33:20.997Z</time></trkpt><trkpt lat="43.1712667" lon="2.2385383"><ele>271.0</ele><time>2026-05-01T17:33:21.996Z</time></trkpt><trkpt lat="43.1713817" lon="2.2386883"><ele>271.0</ele><time>2026-05-01T17:33:22.997Z</time></trkpt><trkpt lat="43.171495" lon="2.238845"><ele>271.0</ele><time>2026-05-01T17:33:23.998Z</time></trkpt><trkpt lat="43.1715967" lon="2.2390117"><ele>271.0</ele><time>2026-05-01T17:33:24.996Z</time></trkpt><trkpt lat="43.1716967" lon="2.2391817"><ele>270.5</ele><time>2026-05-01T17:33:25.996Z</time></trkpt><trkpt lat="43.17179" lon="2.2393533"><ele>270.0</ele><time>2026-05-01T17:33:26.998Z</time></trkpt><trkpt lat="43.171865" lon="2.2395183"><ele>269.5</ele><time>2026-05-01T17:33:27.997Z</time></trkpt><trkpt lat="43.1719333" lon="2.2396783"><ele>269.0</ele><time>2026-05-01T17:33:28.997Z</time></trkpt><trkpt lat="43.17199" lon="2.2398333"><ele>268.59999999999997</ele><time>2026-05-01T17:33:30.001Z</time></trkpt><trkpt lat="43.17205" lon="2.2399767"><ele>268.2</ele><time>2026-05-01T17:33:31Z</time></trkpt><trkpt lat="43.1721017" lon="2.2401133"><ele>267.79999999999995</ele><time>2026-05-01T17:33:31.998Z</time></trkpt><trkpt lat="43.1721467" lon="2.2402417"><ele>267.4</ele><time>2026-05-01T17:33:32.998Z</time></trkpt><trkpt lat="43.172165" lon="2.240385"><ele>267.0</ele><time>2026-05-01T17:33:33.998Z</time></trkpt><trkpt lat="43.1721833" lon="2.2405117"><ele>266.3333333333333</ele><time>2026-05-01T17:33:34.999Z</time></trkpt><trkpt lat="43.1721867" lon="2.2406333"><ele>265.6666666666667</ele><time>2026-05-01T17:33:35.997Z</time></trkpt><trkpt lat="43.172175" lon="2.24075"><ele>265.0</ele><time>2026-05-01T17:33:37Z</time></trkpt><trkpt lat="43.1721583" lon="2.2408617"><ele>264.33333333333337</ele><time>2026-05-01T17:33:38Z</time></trkpt><trkpt lat="43.17213" lon="2.240955"><ele>263.6666666666667</ele><time>2026-05-01T17:33:38.998Z</time></trkpt><trkpt lat="43.1720883" lon="2.2410433"><ele>263.0</ele><time>2026-05-01T17:33:39.998Z</time></trkpt><trkpt lat="43.1720417" lon="2.2411317"><ele>263.0</ele><time>2026-05-01T17:33:40.998Z</time></trkpt><trkpt lat="43.172" lon="2.2412233"><ele>263.0</ele><time>2026-05-01T17:33:41.998Z</time></trkpt><trkpt lat="43.1719617" lon="2.2413133"><ele>263.0</ele><time>2026-05-01T17:33:42.998Z</time></trkpt><trkpt lat="43.1719233" lon="2.241405"><ele>263.0</ele><time>2026-05-01T17:33:43.997Z</time></trkpt><trkpt lat="43.17188" lon="2.24149"><ele>263.0</ele><time>2026-05-01T17:33:45Z</time></trkpt><trkpt lat="43.1718417" lon="2.2415683"><ele>263.0</ele><time>2026-05-01T17:33:45.997Z</time></trkpt><trkpt lat="43.1718033" lon="2.2416483"><ele>263.0</ele><time>2026-05-01T17:33:46.998Z</time></trkpt><trkpt lat="43.171755" lon="2.241735"><ele>262.8</ele><time>2026-05-01T17:33:47.998Z</time></trkpt><trkpt lat="43.171705" lon="2.2418383"><ele>262.6</ele><time>2026-05-01T17:33:48.999Z</time></trkpt><trkpt lat="43.1716833" lon="2.2419467"><ele>262.4</ele><time>2026-05-01T17:33:50.001Z</time></trkpt><trkpt lat="43.1716933" lon="2.2420783"><ele>262.2</ele><time>2026-05-01T17:33:50.999Z</time></trkpt><trkpt lat="43.1717817" lon="2.24218"><ele>262.0</ele><time>2026-05-01T17:33:51.998Z</time></trkpt><trkpt lat="43.17191" lon="2.2422"><ele>262.0</ele><time>2026-05-01T17:33:53Z</time></trkpt><trkpt lat="43.1720283" lon="2.2421333"><ele>262.0</ele><time>2026-05-01T17:33:53.999Z</time></trkpt><trkpt lat="43.17214" lon="2.2420367"><ele>262.0</ele><time>2026-05-01T17:33:54.997Z</time></trkpt><trkpt lat="43.1722667" lon="2.241955"><ele>262.0</ele><time>2026-05-01T17:33:55.998Z</time></trkpt><trkpt lat="43.17241" lon="2.2419333"><ele>263.3333333333333</ele><time>2026-05-01T17:33:56.998Z</time></trkpt><trkpt lat="43.1725583" lon="2.24198"><ele>264.6666666666667</ele><time>2026-05-01T17:33:58Z</time></trkpt><trkpt lat="43.17269" lon="2.2420917"><ele>266.0</ele><time>2026-05-01T17:33:58.997Z</time></trkpt><trkpt lat="43.172815" lon="2.2422317"><ele>263.0</ele><time>2026-05-01T17:33:59.997Z</time></trkpt><trkpt lat="43.172935" lon="2.2423683"><ele>260.0</ele><time>2026-05-01T17:34:00.999Z</time></trkpt><trkpt lat="43.1730517" lon="2.2425067"><ele>257.0</ele><time>2026-05-01T17:34:01.998Z</time></trkpt><trkpt lat="43.1731783" lon="2.2426533"><ele>257.33333333333337</ele><time>2026-05-01T17:34:02.998Z</time></trkpt><trkpt lat="43.1733067" lon="2.242805"><ele>257.6666666666667</ele><time>2026-05-01T17:34:03.998Z</time></trkpt><trkpt lat="43.173435" lon="2.2429617"><ele>258.0</ele><time>2026-05-01T17:34:04.999Z</time></trkpt><trkpt lat="43.1735583" lon="2.243125"><ele>256.0</ele><time>2026-05-01T17:34:05.997Z</time></trkpt><trkpt lat="43.1736767" lon="2.2432967"><ele>254.0</ele><time>2026-05-01T17:34:06.999Z</time></trkpt><trkpt lat="43.173785" lon="2.24349"><ele>252.0</ele><time>2026-05-01T17:34:07.999Z</time></trkpt><trkpt lat="43.1738233" lon="2.24372"><ele>251.0</ele><time>2026-05-01T17:34:08.997Z</time></trkpt><trkpt lat="43.173825" lon="2.2439817"><ele>250.0</ele><time>2026-05-01T17:34:09.996Z</time></trkpt><trkpt lat="43.1738533" lon="2.244205"><ele>249.0</ele><time>2026-05-01T17:34:10.998Z</time></trkpt><trkpt lat="43.17388" lon="2.24441"><ele>249.0</ele><time>2026-05-01T17:34:11.996Z</time></trkpt><trkpt lat="43.1739133" lon="2.2446"><ele>249.0</ele><time>2026-05-01T17:34:12.999Z</time></trkpt><trkpt lat="43.1739533" lon="2.2447767"><ele>249.0</ele><time>2026-05-01T17:34:13.997Z</time></trkpt><trkpt lat="43.1740383" lon="2.2449267"><ele>249.0</ele><time>2026-05-01T17:34:14.999Z</time></trkpt><trkpt lat="43.1741417" lon="2.2450517"><ele>250.0</ele><time>2026-05-01T17:34:15.997Z</time></trkpt><trkpt lat="43.17428" lon="2.2451083"><ele>251.0</ele><time>2026-05-01T17:34:16.998Z</time></trkpt><trkpt lat="43.1744333" lon="2.2451133"><ele>252.0</ele><time>2026-05-01T17:34:18.002Z</time></trkpt><trkpt lat="43.1745933" lon="2.2451133"><ele>252.0</ele><time>2026-05-01T17:34:18.999Z</time></trkpt><trkpt lat="43.1747533" lon="2.2451217"><ele>252.0</ele><time>2026-05-01T17:34:20.004Z</time></trkpt><trkpt lat="43.1749167" lon="2.2451267"><ele>252.0</ele><time>2026-05-01T17:34:20.998Z</time></trkpt><trkpt lat="43.17509" lon="2.2451183"><ele>249.66666666666669</ele><time>2026-05-01T17:34:21.998Z</time></trkpt><trkpt lat="43.1752483" lon="2.2451133"><ele>247.33333333333334</ele><time>2026-05-01T17:34:22.997Z</time></trkpt><trkpt lat="43.1754033" lon="2.24512"><ele>245.0</ele><time>2026-05-01T17:34:23.998Z</time></trkpt><trkpt lat="43.1755567" lon="2.24512"><ele>244.0</ele><time>2026-05-01T17:34:24.998Z</time></trkpt><trkpt lat="43.17571" lon="2.2451217"><ele>243.0</ele><time>2026-05-01T17:34:25.996Z</time></trkpt><trkpt lat="43.1758617" lon="2.2451617"><ele>242.0</ele><time>2026-05-01T17:34:26.998Z</time></trkpt><trkpt lat="43.1759983" lon="2.2452567"><ele>242.0</ele><time>2026-05-01T17:34:27.997Z</time></trkpt><trkpt lat="43.1761033" lon="2.2454033"><ele>242.0</ele><time>2026-05-01T17:34:28.998Z</time></trkpt><trkpt lat="43.1761833" lon="2.2455733"><ele>242.0</ele><time>2026-05-01T17:34:30.001Z</time></trkpt><trkpt lat="43.1762233" lon="2.245775"><ele>241.0</ele><time>2026-05-01T17:34:30.997Z</time></trkpt><trkpt lat="43.1762217" lon="2.2459783"><ele>240.0</ele><time>2026-05-01T17:34:31.999Z</time></trkpt><trkpt lat="43.176185" lon="2.2461767"><ele>239.0</ele><time>2026-05-01T17:34:32.997Z</time></trkpt><trkpt lat="43.1761183" lon="2.24636"><ele>238.0</ele><time>2026-05-01T17:34:33.998Z</time></trkpt><trkpt lat="43.1760367" lon="2.246535"><ele>238.0</ele><time>2026-05-01T17:34:34.997Z</time></trkpt><trkpt lat="43.17595" lon="2.24671"><ele>238.0</ele><time>2026-05-01T17:34:35.997Z</time></trkpt><trkpt lat="43.1758667" lon="2.2468883"><ele>238.0</ele><time>2026-05-01T17:34:36.996Z</time></trkpt><trkpt lat="43.1757833" lon="2.247065"><ele>238.0</ele><time>2026-05-01T17:34:38.002Z</time></trkpt><trkpt lat="43.1757" lon="2.24724"><ele>238.0</ele><time>2026-05-01T17:34:38.997Z</time></trkpt><trkpt lat="43.175625" lon="2.2474133"><ele>238.0</ele><time>2026-05-01T17:34:39.998Z</time></trkpt><trkpt lat="43.1755733" lon="2.247595"><ele>238.0</ele><time>2026-05-01T17:34:40.998Z</time></trkpt><trkpt lat="43.175555" lon="2.2477867"><ele>236.75</ele><time>2026-05-01T17:34:41.997Z</time></trkpt><trkpt lat="43.1755633" lon="2.2479833"><ele>235.5</ele><time>2026-05-01T17:34:42.997Z</time></trkpt><trkpt lat="43.1755883" lon="2.2481833"><ele>234.25</ele><time>2026-05-01T17:34:43.997Z</time></trkpt><trkpt lat="43.1756217" lon="2.248385"><ele>233.0</ele><time>2026-05-01T17:34:44.999Z</time></trkpt><trkpt lat="43.1756583" lon="2.2485917"><ele>234.0</ele><time>2026-05-01T17:34:45.997Z</time></trkpt><trkpt lat="43.1756983" lon="2.2487917"><ele>235.0</ele><time>2026-05-01T17:34:46.996Z</time></trkpt><trkpt lat="43.175775" lon="2.2489883"><ele>236.0</ele><time>2026-05-01T17:34:47.998Z</time></trkpt><trkpt lat="43.175875" lon="2.249175"><ele>236.0</ele><time>2026-05-01T17:34:49Z</time></trkpt><trkpt lat="43.1760017" lon="2.24935"><ele>236.0</ele><time>2026-05-01T17:34:49.999Z</time></trkpt><trkpt lat="43.1761483" lon="2.2495133"><ele>236.0</ele><time>2026-05-01T17:34:51.001Z</time></trkpt><trkpt lat="43.1763033" lon="2.2496683"><ele>236.33333333333334</ele><time>2026-05-01T17:34:51.998Z</time></trkpt><trkpt lat="43.1764583" lon="2.2498167"><ele>236.66666666666669</ele><time>2026-05-01T17:34:52.998Z</time></trkpt><trkpt lat="43.1766133" lon="2.2499667"><ele>237.0</ele><time>2026-05-01T17:34:53.999Z</time></trkpt><trkpt lat="43.1767667" lon="2.25012"><ele>237.0</ele><time>2026-05-01T17:34:54.997Z</time></trkpt><trkpt lat="43.17692" lon="2.2502733"><ele>237.0</ele><time>2026-05-01T17:34:55.997Z</time></trkpt><trkpt lat="43.17707" lon="2.2504317"><ele>237.0</ele><time>2026-05-01T17:34:56.998Z</time></trkpt><trkpt lat="43.177225" lon="2.250585"><ele>234.66666666666669</ele><time>2026-05-01T17:34:57.996Z</time></trkpt><trkpt lat="43.1773817" lon="2.2507417"><ele>232.33333333333334</ele><time>2026-05-01T17:34:58.997Z</time></trkpt><trkpt lat="43.1775367" lon="2.2508933"><ele>230.0</ele><time>2026-05-01T17:34:59.998Z</time></trkpt><trkpt lat="43.1776917" lon="2.2510483"><ele>230.0</ele><time>2026-05-01T17:35:00.998Z</time></trkpt><trkpt lat="43.1778467" lon="2.2512033"><ele>230.0</ele><time>2026-05-01T17:35:01.998Z</time></trkpt><trkpt lat="43.178" lon="2.25136"><ele>230.0</ele><time>2026-05-01T17:35:02.998Z</time></trkpt><trkpt lat="43.1781433" lon="2.25153"><ele>230.33333333333334</ele><time>2026-05-01T17:35:04Z</time></trkpt><trkpt lat="43.1782733" lon="2.25172"><ele>230.66666666666669</ele><time>2026-05-01T17:35:04.999Z</time></trkpt><trkpt lat="43.17839" lon="2.251925"><ele>231.0</ele><time>2026-05-01T17:35:06Z</time></trkpt><trkpt lat="43.1785033" lon="2.252135"><ele>231.0</ele><time>2026-05-01T17:35:06.998Z</time></trkpt><trkpt lat="43.1786133" lon="2.25235"><ele>231.0</ele><time>2026-05-01T17:35:07.999Z</time></trkpt><trkpt lat="43.1787233" lon="2.252565"><ele>231.0</ele><time>2026-05-01T17:35:08.998Z</time></trkpt><trkpt lat="43.17883" lon="2.25278"><ele>231.0</ele><time>2026-05-01T17:35:09.999Z</time></trkpt><trkpt lat="43.1789383" lon="2.252995"><ele>231.0</ele><time>2026-05-01T17:35:10.998Z</time></trkpt><trkpt lat="43.179045" lon="2.2532083"><ele>231.0</ele><time>2026-05-01T17:35:11.998Z</time></trkpt><trkpt lat="43.1791517" lon="2.253425"><ele>230.0</ele><time>2026-05-01T17:35:12.996Z</time></trkpt><trkpt lat="43.1792583" lon="2.2536383"><ele>229.0</ele><time>2026-05-01T17:35:13.998Z</time></trkpt><trkpt lat="43.1793633" lon="2.2538517"><ele>228.0</ele><time>2026-05-01T17:35:14.998Z</time></trkpt><trkpt lat="43.1794667" lon="2.2540583"><ele>227.33333333333331</ele><time>2026-05-01T17:35:16.001Z</time></trkpt><trkpt lat="43.1795683" lon="2.2542633"><ele>226.66666666666666</ele><time>2026-05-01T17:35:16.998Z</time></trkpt><trkpt lat="43.17967" lon="2.2544583"><ele>226.0</ele><time>2026-05-01T17:35:17.997Z</time></trkpt><trkpt lat="43.179755" lon="2.2546633"><ele>226.0</ele><time>2026-05-01T17:35:18.997Z</time></trkpt><trkpt lat="43.17982" lon="2.254885"><ele>226.0</ele><time>2026-05-01T17:35:19.998Z</time></trkpt><trkpt lat="43.179875" lon="2.255115"><ele>226.0</ele><time>2026-05-01T17:35:20.997Z</time></trkpt><trkpt lat="43.17992" lon="2.25535"><ele>226.0</ele><time>2026-05-01T17:35:21.997Z</time></trkpt><trkpt lat="43.1799583" lon="2.2555917"><ele>226.0</ele><time>2026-05-01T17:35:22.997Z</time></trkpt><trkpt lat="43.1800033" lon="2.255835"><ele>226.0</ele><time>2026-05-01T17:35:23.998Z</time></trkpt><trkpt lat="43.1800433" lon="2.2560767"><ele>224.0</ele><time>2026-05-01T17:35:24.997Z</time></trkpt><trkpt lat="43.1800767" lon="2.2563067"><ele>222.0</ele><time>2026-05-01T17:35:25.997Z</time></trkpt><trkpt lat="43.180105" lon="2.2565283"><ele>220.0</ele><time>2026-05-01T17:35:26.998Z</time></trkpt><trkpt lat="43.18014" lon="2.25675"><ele>219.66666666666666</ele><time>2026-05-01T17:35:27.997Z</time></trkpt><trkpt lat="43.180175" lon="2.256975"><ele>219.33333333333331</ele><time>2026-05-01T17:35:28.998Z</time></trkpt><trkpt lat="43.18021" lon="2.2571983"><ele>219.0</ele><time>2026-05-01T17:35:29.997Z</time></trkpt><trkpt lat="43.18024" lon="2.2574233"><ele>218.0</ele><time>2026-05-01T17:35:30.996Z</time></trkpt><trkpt lat="43.1802717" lon="2.25764"><ele>217.0</ele><time>2026-05-01T17:35:32.001Z</time></trkpt><trkpt lat="43.1803017" lon="2.2578483"><ele>216.0</ele><time>2026-05-01T17:35:32.998Z</time></trkpt><trkpt lat="43.18033" lon="2.2580483"><ele>214.75</ele><time>2026-05-01T17:35:33.998Z</time></trkpt><trkpt lat="43.1803683" lon="2.2582417"><ele>213.5</ele><time>2026-05-01T17:35:34.996Z</time></trkpt><trkpt lat="43.1804283" lon="2.2584217"><ele>212.25</ele><time>2026-05-01T17:35:35.997Z</time></trkpt><trkpt lat="43.180515" lon="2.258585"><ele>211.0</ele><time>2026-05-01T17:35:36.997Z</time></trkpt><trkpt lat="43.1806217" lon="2.2587283"><ele>209.0</ele><time>2026-05-01T17:35:37.998Z</time></trkpt><trkpt lat="43.1807467" lon="2.2588583"><ele>207.0</ele><time>2026-05-01T17:35:38.997Z</time></trkpt><trkpt lat="43.180875" lon="2.25899"><ele>205.0</ele><time>2026-05-01T17:35:39.997Z</time></trkpt><trkpt lat="43.181015" lon="2.2591233"><ele>204.33333333333331</ele><time>2026-05-01T17:35:40.996Z</time></trkpt><trkpt lat="43.18115" lon="2.2592533"><ele>203.66666666666669</ele><time>2026-05-01T17:35:41.998Z</time></trkpt><trkpt lat="43.1812817" lon="2.2593817"><ele>203.0</ele><time>2026-05-01T17:35:42.997Z</time></trkpt><trkpt lat="43.1814117" lon="2.2595067"><ele>201.5</ele><time>2026-05-01T17:35:44.002Z</time></trkpt><trkpt lat="43.1815333" lon="2.2596283"><ele>200.0</ele><time>2026-05-01T17:35:44.997Z</time></trkpt><trkpt lat="43.18165" lon="2.2597433"><ele>198.5</ele><time>2026-05-01T17:35:45.996Z</time></trkpt><trkpt lat="43.1817617" lon="2.2598483"><ele>197.0</ele><time>2026-05-01T17:35:46.996Z</time></trkpt><trkpt lat="43.181865" lon="2.2599583"><ele>197.0</ele><time>2026-05-01T17:35:47.997Z</time></trkpt><trkpt lat="43.1819667" lon="2.2600783"><ele>197.0</ele><time>2026-05-01T17:35:48.997Z</time></trkpt><trkpt lat="43.1820483" lon="2.2602167"><ele>197.0</ele><time>2026-05-01T17:35:49.997Z</time></trkpt><trkpt lat="43.1821083" lon="2.260375"><ele>197.0</ele><time>2026-05-01T17:35:50.997Z</time></trkpt><trkpt lat="43.1821333" lon="2.260545"><ele>196.75</ele><time>2026-05-01T17:35:51.998Z</time></trkpt><trkpt lat="43.182135" lon="2.2607233"><ele>196.5</ele><time>2026-05-01T17:35:52.997Z</time></trkpt><trkpt lat="43.182125" lon="2.2609033"><ele>196.25</ele><time>2026-05-01T17:35:53.997Z</time></trkpt><trkpt lat="43.1821033" lon="2.2610833"><ele>196.0</ele><time>2026-05-01T17:35:54.999Z</time></trkpt><trkpt lat="43.1820867" lon="2.2612733"><ele>195.25</ele><time>2026-05-01T17:35:55.998Z</time></trkpt><trkpt lat="43.1820633" lon="2.2614683"><ele>194.5</ele><time>2026-05-01T17:35:57Z</time></trkpt><trkpt lat="43.1820417" lon="2.2616633"><ele>193.75</ele><time>2026-05-01T17:35:57.997Z</time></trkpt><trkpt lat="43.1820233" lon="2.2618617"><ele>193.0</ele><time>2026-05-01T17:35:58.997Z</time></trkpt><trkpt lat="43.182005" lon="2.26206"><ele>193.0</ele><time>2026-05-01T17:35:59.997Z</time></trkpt><trkpt lat="43.1819933" lon="2.2622583"><ele>193.0</ele><time>2026-05-01T17:36:00.996Z</time></trkpt><trkpt lat="43.1820033" lon="2.2624467"><ele>193.0</ele><time>2026-05-01T17:36:01.998Z</time></trkpt><trkpt lat="43.1820517" lon="2.2626117"><ele>193.0</ele><time>2026-05-01T17:36:02.998Z</time></trkpt><trkpt lat="43.1821467" lon="2.262735"><ele>192.25</ele><time>2026-05-01T17:36:03.998Z</time></trkpt><trkpt lat="43.18228" lon="2.2628083"><ele>191.5</ele><time>2026-05-01T17:36:04.997Z</time></trkpt><trkpt lat="43.1824217" lon="2.2628533"><ele>190.75</ele><time>2026-05-01T17:36:06Z</time></trkpt><trkpt lat="43.182565" lon="2.2628933"><ele>190.0</ele><time>2026-05-01T17:36:06.996Z</time></trkpt><trkpt lat="43.1827167" lon="2.26293"><ele>189.0</ele><time>2026-05-01T17:36:08Z</time></trkpt><trkpt lat="43.1828667" lon="2.2629733"><ele>188.0</ele><time>2026-05-01T17:36:08.998Z</time></trkpt><trkpt lat="43.1830167" lon="2.263015"><ele>187.0</ele><time>2026-05-01T17:36:09.998Z</time></trkpt><trkpt lat="43.1831733" lon="2.2630517"><ele>186.66666666666669</ele><time>2026-05-01T17:36:10.998Z</time></trkpt><trkpt lat="43.1833283" lon="2.2630917"><ele>186.33333333333334</ele><time>2026-05-01T17:36:11.998Z</time></trkpt><trkpt lat="43.1834767" lon="2.2631317"><ele>186.0</ele><time>2026-05-01T17:36:12.997Z</time></trkpt><trkpt lat="43.1836167" lon="2.2631717"><ele>186.0</ele><time>2026-05-01T17:36:13.996Z</time></trkpt><trkpt lat="43.1837533" lon="2.263215"><ele>186.0</ele><time>2026-05-01T17:36:14.997Z</time></trkpt><trkpt lat="43.1838833" lon="2.2632733"><ele>186.0</ele><time>2026-05-01T17:36:16Z</time></trkpt><trkpt lat="43.1839933" lon="2.2633567"><ele>186.0</ele><time>2026-05-01T17:36:16.997Z</time></trkpt><trkpt lat="43.18408" lon="2.263465"><ele>186.0</ele><time>2026-05-01T17:36:18Z</time></trkpt><trkpt lat="43.18416" lon="2.2635833"><ele>186.0</ele><time>2026-05-01T17:36:18.998Z</time></trkpt><trkpt lat="43.1842383" lon="2.2637117"><ele>186.0</ele><time>2026-05-01T17:36:19.997Z</time></trkpt><trkpt lat="43.1843167" lon="2.2638483"><ele>186.0</ele><time>2026-05-01T17:36:20.997Z</time></trkpt><trkpt lat="43.1843917" lon="2.263985"><ele>186.75</ele><time>2026-05-01T17:36:21.997Z</time></trkpt><trkpt lat="43.1844667" lon="2.2641217"><ele>187.5</ele><time>2026-05-01T17:36:22.997Z</time></trkpt><trkpt lat="43.1845433" lon="2.2642617"><ele>188.25</ele><time>2026-05-01T17:36:23.997Z</time></trkpt><trkpt lat="43.1846133" lon="2.2644"><ele>189.0</ele><time>2026-05-01T17:36:24.998Z</time></trkpt><trkpt lat="43.1846933" lon="2.2645383"><ele>189.0</ele><time>2026-05-01T17:36:26.001Z</time></trkpt><trkpt lat="43.18477" lon="2.2646783"><ele>189.0</ele><time>2026-05-01T17:36:26.998Z</time></trkpt><trkpt lat="43.1848467" lon="2.26482"><ele>189.0</ele><time>2026-05-01T17:36:27.997Z</time></trkpt><trkpt lat="43.184915" lon="2.2649617"><ele>189.0</ele><time>2026-05-01T17:36:28.997Z</time></trkpt><trkpt lat="43.1849683" lon="2.265095"><ele>188.6</ele><time>2026-05-01T17:36:29.997Z</time></trkpt><trkpt lat="43.1850183" lon="2.2652233"><ele>188.2</ele><time>2026-05-01T17:36:30.999Z</time></trkpt><trkpt lat="43.1850583" lon="2.2653467"><ele>187.79999999999998</ele><time>2026-05-01T17:36:31.997Z</time></trkpt><trkpt lat="43.18509" lon="2.2654667"><ele>187.39999999999998</ele><time>2026-05-01T17:36:32.997Z</time></trkpt><trkpt lat="43.185115" lon="2.2655867"><ele>187.0</ele><time>2026-05-01T17:36:33.997Z</time></trkpt><trkpt lat="43.1851367" lon="2.2657083"><ele>187.8</ele><time>2026-05-01T17:36:34.997Z</time></trkpt><trkpt lat="43.1851467" lon="2.265835"><ele>188.6</ele><time>2026-05-01T17:36:36.001Z</time></trkpt><trkpt lat="43.185145" lon="2.2659633"><ele>189.4</ele><time>2026-05-01T17:36:36.997Z</time></trkpt><trkpt lat="43.1851367" lon="2.2660917"><ele>190.20000000000002</ele><time>2026-05-01T17:36:37.997Z</time></trkpt><trkpt lat="43.1851217" lon="2.266235"><ele>191.0</ele><time>2026-05-01T17:36:38.998Z</time></trkpt><trkpt lat="43.1851" lon="2.2663783"><ele>191.0</ele><time>2026-05-01T17:36:39.997Z</time></trkpt><trkpt lat="43.1850683" lon="2.266515"><ele>191.0</ele><time>2026-05-01T17:36:40.996Z</time></trkpt><trkpt lat="43.1850317" lon="2.266645"><ele>191.0</ele><time>2026-05-01T17:36:41.997Z</time></trkpt><trkpt lat="43.185" lon="2.2667717"><ele>191.0</ele><time>2026-05-01T17:36:42.996Z</time></trkpt><trkpt lat="43.1849633" lon="2.2668883"><ele>191.0</ele><time>2026-05-01T17:36:43.996Z</time></trkpt><trkpt lat="43.1849317" lon="2.2669967"><ele>191.0</ele><time>2026-05-01T17:36:44.999Z</time></trkpt><trkpt lat="43.184905" lon="2.2670983"><ele>191.0</ele><time>2026-05-01T17:36:45.998Z</time></trkpt><trkpt lat="43.184875" lon="2.2671883"><ele>191.0</ele><time>2026-05-01T17:36:46.996Z</time></trkpt><trkpt lat="43.1848667" lon="2.2672767"><ele>191.0</ele><time>2026-05-01T17:36:48.001Z</time></trkpt><trkpt lat="43.1848667" lon="2.2674317"><ele>191.0</ele><time>2026-05-01T17:36:49.998Z</time></trkpt><trkpt lat="43.184945" lon="2.2675683"><ele>190.16666666666666</ele><time>2026-05-01T17:36:51.997Z</time></trkpt><trkpt lat="43.1850067" lon="2.2676467"><ele>189.33333333333331</ele><time>2026-05-01T17:36:52.996Z</time></trkpt><trkpt lat="43.18508" lon="2.2677217"><ele>188.5</ele><time>2026-05-01T17:36:54.001Z</time></trkpt><trkpt lat="43.1851517" lon="2.26779"><ele>187.66666666666666</ele><time>2026-05-01T17:36:54.996Z</time></trkpt><trkpt lat="43.1852267" lon="2.26785"><ele>186.83333333333334</ele><time>2026-05-01T17:36:55.997Z</time></trkpt><trkpt lat="43.1853033" lon="2.267895"><ele>186.0</ele><time>2026-05-01T17:36:57.002Z</time></trkpt><trkpt lat="43.1853867" lon="2.2679283"><ele>186.0</ele><time>2026-05-01T17:36:57.997Z</time></trkpt><trkpt lat="43.1854667" lon="2.267955"><ele>186.0</ele><time>2026-05-01T17:36:58.997Z</time></trkpt><trkpt lat="43.1855467" lon="2.267965"><ele>186.0</ele><time>2026-05-01T17:36:59.998Z</time></trkpt><trkpt lat="43.1856217" lon="2.26798"><ele>186.0</ele><time>2026-05-01T17:37:00.998Z</time></trkpt><trkpt lat="43.1857033" lon="2.2679833"><ele>186.0</ele><time>2026-05-01T17:37:01.997Z</time></trkpt><trkpt lat="43.1857833" lon="2.2679633"><ele>186.0</ele><time>2026-05-01T17:37:02.997Z</time></trkpt><trkpt lat="43.1858617" lon="2.267915"><ele>185.0</ele><time>2026-05-01T17:37:04.001Z</time></trkpt><trkpt lat="43.1859333" lon="2.2678483"><ele>184.0</ele><time>2026-05-01T17:37:04.998Z</time></trkpt><trkpt lat="43.1859767" lon="2.267715"><ele>183.0</ele><time>2026-05-01T17:37:06Z</time></trkpt><trkpt lat="43.18602" lon="2.2675833"><ele>182.0</ele><time>2026-05-01T17:37:06.996Z</time></trkpt><trkpt lat="43.1860617" lon="2.267445"><ele>181.0</ele><time>2026-05-01T17:37:08.003Z</time></trkpt><trkpt lat="43.1861083" lon="2.2673167"><ele>181.60000000000002</ele><time>2026-05-01T17:37:08.998Z</time></trkpt><trkpt lat="43.1861667" lon="2.267205"><ele>182.2</ele><time>2026-05-01T17:37:10.001Z</time></trkpt><trkpt lat="43.1862417" lon="2.2671"><ele>182.8</ele><time>2026-05-01T17:37:10.996Z</time></trkpt><trkpt lat="43.1863317" lon="2.266995"><ele>183.39999999999998</ele><time>2026-05-01T17:37:11.997Z</time></trkpt><trkpt lat="43.1864367" lon="2.2669117"><ele>184.0</ele><time>2026-05-01T17:37:13.001Z</time></trkpt><trkpt lat="43.186555" lon="2.2668333"><ele>181.0</ele><time>2026-05-01T17:37:13.997Z</time></trkpt><trkpt lat="43.1866717" lon="2.2667517"><ele>178.0</ele><time>2026-05-01T17:37:14.997Z</time></trkpt><trkpt lat="43.1867867" lon="2.2666717"><ele>175.0</ele><time>2026-05-01T17:37:15.997Z</time></trkpt><trkpt lat="43.186895" lon="2.2665883"><ele>172.0</ele><time>2026-05-01T17:37:16.997Z</time></trkpt><trkpt lat="43.1869983" lon="2.2664933"><ele>172.25</ele><time>2026-05-01T17:37:17.997Z</time></trkpt><trkpt lat="43.187095" lon="2.2663917"><ele>172.5</ele><time>2026-05-01T17:37:18.999Z</time></trkpt><trkpt lat="43.1871917" lon="2.26629"><ele>172.75</ele><time>2026-05-01T17:37:19.997Z</time></trkpt><trkpt lat="43.1872867" lon="2.26619"><ele>173.0</ele><time>2026-05-01T17:37:20.999Z</time></trkpt><trkpt lat="43.1873867" lon="2.2660917"><ele>171.25</ele><time>2026-05-01T17:37:21.999Z</time></trkpt><trkpt lat="43.18748" lon="2.2659967"><ele>169.5</ele><time>2026-05-01T17:37:22.998Z</time></trkpt><trkpt lat="43.1875717" lon="2.265905"><ele>167.75</ele><time>2026-05-01T17:37:23.997Z</time></trkpt><trkpt lat="43.1876733" lon="2.2658383"><ele>166.0</ele><time>2026-05-01T17:37:24.997Z</time></trkpt><trkpt lat="43.187795" lon="2.2658067"><ele>166.0</ele><time>2026-05-01T17:37:25.997Z</time></trkpt><trkpt lat="43.1879167" lon="2.2658417"><ele>166.0</ele><time>2026-05-01T17:37:26.999Z</time></trkpt><trkpt lat="43.1880367" lon="2.26592"><ele>166.0</ele><time>2026-05-01T17:37:27.998Z</time></trkpt><trkpt lat="43.188155" lon="2.2660167"><ele>166.0</ele><time>2026-05-01T17:37:28.998Z</time></trkpt><trkpt lat="43.1882867" lon="2.2661167"><ele>164.33333333333334</ele><time>2026-05-01T17:37:29.998Z</time></trkpt><trkpt lat="43.18842" lon="2.26622"><ele>162.66666666666666</ele><time>2026-05-01T17:37:31.001Z</time></trkpt><trkpt lat="43.18855" lon="2.2663333"><ele>161.0</ele><time>2026-05-01T17:37:31.997Z</time></trkpt><trkpt lat="43.1886733" lon="2.2664567"><ele>160.66666666666666</ele><time>2026-05-01T17:37:32.997Z</time></trkpt><trkpt lat="43.18879" lon="2.2665917"><ele>160.33333333333334</ele><time>2026-05-01T17:37:33.997Z</time></trkpt><trkpt lat="43.1889033" lon="2.2667367"><ele>160.0</ele><time>2026-05-01T17:37:34.997Z</time></trkpt><trkpt lat="43.18902" lon="2.266885"><ele>160.0</ele><time>2026-05-01T17:37:35.998Z</time></trkpt><trkpt lat="43.189145" lon="2.2670217"><ele>160.0</ele><time>2026-05-01T17:37:36.998Z</time></trkpt><trkpt lat="43.1892833" lon="2.2671367"><ele>160.0</ele><time>2026-05-01T17:37:38.001Z</time></trkpt><trkpt lat="43.189435" lon="2.2672133"><ele>160.0</ele><time>2026-05-01T17:37:38.998Z</time></trkpt><trkpt lat="43.1895983" lon="2.2672483"><ele>160.0</ele><time>2026-05-01T17:37:39.998Z</time></trkpt><trkpt lat="43.1897683" lon="2.2672467"><ele>160.0</ele><time>2026-05-01T17:37:40.996Z</time></trkpt><trkpt lat="43.1899433" lon="2.267225"><ele>160.0</ele><time>2026-05-01T17:37:41.996Z</time></trkpt><trkpt lat="43.1901233" lon="2.2671983"><ele>160.0</ele><time>2026-05-01T17:37:42.998Z</time></trkpt><trkpt lat="43.1903083" lon="2.26718"><ele>160.0</ele><time>2026-05-01T17:37:43.996Z</time></trkpt><trkpt lat="43.1904933" lon="2.2671683"><ele>160.33333333333334</ele><time>2026-05-01T17:37:44.998Z</time></trkpt><trkpt lat="43.190675" lon="2.2671617"><ele>160.66666666666666</ele><time>2026-05-01T17:37:45.997Z</time></trkpt><trkpt lat="43.1908517" lon="2.26716"><ele>161.0</ele><time>2026-05-01T17:37:46.997Z</time></trkpt><trkpt lat="43.1910267" lon="2.2671583"><ele>161.0</ele><time>2026-05-01T17:37:47.997Z</time></trkpt><trkpt lat="43.1911933" lon="2.267155"><ele>161.0</ele><time>2026-05-01T17:37:48.997Z</time></trkpt><trkpt lat="43.1913617" lon="2.26714"><ele>161.0</ele><time>2026-05-01T17:37:50Z</time></trkpt><trkpt lat="43.191525" lon="2.26709"><ele>161.66666666666666</ele><time>2026-05-01T17:37:50.997Z</time></trkpt><trkpt lat="43.191685" lon="2.2670083"><ele>162.33333333333334</ele><time>2026-05-01T17:37:51.998Z</time></trkpt><trkpt lat="43.1918467" lon="2.26692"><ele>163.0</ele><time>2026-05-01T17:37:52.996Z</time></trkpt><trkpt lat="43.1920133" lon="2.2668267"><ele>163.0</ele><time>2026-05-01T17:37:53.998Z</time></trkpt><trkpt lat="43.19218" lon="2.26675"><ele>163.0</ele><time>2026-05-01T17:37:54.996Z</time></trkpt><trkpt lat="43.1923533" lon="2.266705"><ele>163.0</ele><time>2026-05-01T17:37:55.996Z</time></trkpt><trkpt lat="43.1925333" lon="2.266715"><ele>161.66666666666669</ele><time>2026-05-01T17:37:56.997Z</time></trkpt><trkpt lat="43.19271" lon="2.2667733"><ele>160.33333333333334</ele><time>2026-05-01T17:37:57.997Z</time></trkpt><trkpt lat="43.1928783" lon="2.266865"><ele>159.0</ele><time>2026-05-01T17:37:58.997Z</time></trkpt><trkpt lat="43.1930467" lon="2.2669667"><ele>158.33333333333334</ele><time>2026-05-01T17:37:59.996Z</time></trkpt><trkpt lat="43.1932183" lon="2.2670617"><ele>157.66666666666669</ele><time>2026-05-01T17:38:00.997Z</time></trkpt><trkpt lat="43.1933867" lon="2.2671583"><ele>157.0</ele><time>2026-05-01T17:38:01.996Z</time></trkpt><trkpt lat="43.1935583" lon="2.2672533"><ele>156.33333333333334</ele><time>2026-05-01T17:38:02.997Z</time></trkpt><trkpt lat="43.1937317" lon="2.2673517"><ele>155.66666666666666</ele><time>2026-05-01T17:38:03.996Z</time></trkpt><trkpt lat="43.1939" lon="2.26745"><ele>155.0</ele><time>2026-05-01T17:38:04.996Z</time></trkpt><trkpt lat="43.1940583" lon="2.26755"><ele>155.0</ele><time>2026-05-01T17:38:05.997Z</time></trkpt><trkpt lat="43.1942067" lon="2.2676383"><ele>155.0</ele><time>2026-05-01T17:38:06.996Z</time></trkpt><trkpt lat="43.1943483" lon="2.267715"><ele>155.0</ele><time>2026-05-01T17:38:07.998Z</time></trkpt><trkpt lat="43.1944783" lon="2.2677817"><ele>155.0</ele><time>2026-05-01T17:38:08.997Z</time></trkpt><trkpt lat="43.1946033" lon="2.267845"><ele>155.0</ele><time>2026-05-01T17:38:09.996Z</time></trkpt><trkpt lat="43.19473" lon="2.2679067"><ele>155.0</ele><time>2026-05-01T17:38:10.997Z</time></trkpt><trkpt lat="43.1948567" lon="2.2679667"><ele>155.0</ele><time>2026-05-01T17:38:11.997Z</time></trkpt><trkpt lat="43.1949917" lon="2.2680267"><ele>154.33333333333331</ele><time>2026-05-01T17:38:12.997Z</time></trkpt><trkpt lat="43.1951367" lon="2.2680983"><ele>153.66666666666666</ele><time>2026-05-01T17:38:13.997Z</time></trkpt><trkpt lat="43.1952867" lon="2.26818"><ele>153.0</ele><time>2026-05-01T17:38:14.998Z</time></trkpt><trkpt lat="43.1954467" lon="2.2682617"><ele>153.33333333333334</ele><time>2026-05-01T17:38:15.997Z</time></trkpt><trkpt lat="43.1956017" lon="2.2683467"><ele>153.66666666666669</ele><time>2026-05-01T17:38:16.996Z</time></trkpt><trkpt lat="43.195755" lon="2.26843"><ele>154.0</ele><time>2026-05-01T17:38:17.998Z</time></trkpt><trkpt lat="43.1959083" lon="2.2685017"><ele>154.0</ele><time>2026-05-01T17:38:18.998Z</time></trkpt><trkpt lat="43.19607" lon="2.2685633"><ele>154.0</ele><time>2026-05-01T17:38:19.997Z</time></trkpt><trkpt lat="43.19624" lon="2.2686117"><ele>154.0</ele><time>2026-05-01T17:38:20.998Z</time></trkpt><trkpt lat="43.1964117" lon="2.2686433"><ele>154.0</ele><time>2026-05-01T17:38:21.999Z</time></trkpt><trkpt lat="43.1965867" lon="2.2686717"><ele>154.0</ele><time>2026-05-01T17:38:22.998Z</time></trkpt><trkpt lat="43.1967667" lon="2.268705"><ele>154.0</ele><time>2026-05-01T17:38:24.003Z</time></trkpt><trkpt lat="43.1969417" lon="2.2687367"><ele>154.0</ele><time>2026-05-01T17:38:24.996Z</time></trkpt><trkpt lat="43.1971217" lon="2.2687583"><ele>154.0</ele><time>2026-05-01T17:38:25.997Z</time></trkpt><trkpt lat="43.1973033" lon="2.2687767"><ele>154.0</ele><time>2026-05-01T17:38:26.997Z</time></trkpt><trkpt lat="43.1974883" lon="2.2688"><ele>154.66666666666669</ele><time>2026-05-01T17:38:27.998Z</time></trkpt><trkpt lat="43.1976683" lon="2.2688317"><ele>155.33333333333334</ele><time>2026-05-01T17:38:28.998Z</time></trkpt><trkpt lat="43.19785" lon="2.26886"><ele>156.0</ele><time>2026-05-01T17:38:30.001Z</time></trkpt><trkpt lat="43.1980333" lon="2.2688867"><ele>155.66666666666666</ele><time>2026-05-01T17:38:30.998Z</time></trkpt><trkpt lat="43.1982167" lon="2.2689067"><ele>155.33333333333331</ele><time>2026-05-01T17:38:32.001Z</time></trkpt><trkpt lat="43.1984017" lon="2.2689117"><ele>155.0</ele><time>2026-05-01T17:38:32.997Z</time></trkpt><trkpt lat="43.1985883" lon="2.268885"><ele>155.0</ele><time>2026-05-01T17:38:33.998Z</time></trkpt><trkpt lat="43.1987733" lon="2.2688217"><ele>155.0</ele><time>2026-05-01T17:38:34.999Z</time></trkpt><trkpt lat="43.19896" lon="2.26874"><ele>155.0</ele><time>2026-05-01T17:38:35.998Z</time></trkpt><trkpt lat="43.1991483" lon="2.2686567"><ele>154.66666666666666</ele><time>2026-05-01T17:38:36.998Z</time></trkpt><trkpt lat="43.199335" lon="2.26858"><ele>154.33333333333334</ele><time>2026-05-01T17:38:37.997Z</time></trkpt><trkpt lat="43.1995267" lon="2.2685183"><ele>154.0</ele><time>2026-05-01T17:38:38.998Z</time></trkpt><trkpt lat="43.19972" lon="2.26848"><ele>153.66666666666669</ele><time>2026-05-01T17:38:39.998Z</time></trkpt><trkpt lat="43.199915" lon="2.2684717"><ele>153.33333333333334</ele><time>2026-05-01T17:38:40.998Z</time></trkpt><trkpt lat="43.20011" lon="2.2684733"><ele>153.0</ele><time>2026-05-01T17:38:41.997Z</time></trkpt><trkpt lat="43.2003033" lon="2.268475"><ele>153.0</ele><time>2026-05-01T17:38:42.997Z</time></trkpt><trkpt lat="43.2004967" lon="2.2684767"><ele>153.0</ele><time>2026-05-01T17:38:43.997Z</time></trkpt><trkpt lat="43.2006883" lon="2.268475"><ele>153.0</ele><time>2026-05-01T17:38:44.997Z</time></trkpt><trkpt lat="43.2008783" lon="2.268465"><ele>152.66666666666666</ele><time>2026-05-01T17:38:45.997Z</time></trkpt><trkpt lat="43.2010667" lon="2.2684317"><ele>152.33333333333331</ele><time>2026-05-01T17:38:46.997Z</time></trkpt><trkpt lat="43.2012483" lon="2.2683567"><ele>152.0</ele><time>2026-05-01T17:38:47.997Z</time></trkpt><trkpt lat="43.201425" lon="2.2682367"><ele>152.66666666666666</ele><time>2026-05-01T17:38:48.997Z</time></trkpt><trkpt lat="43.2015933" lon="2.2681"><ele>153.33333333333334</ele><time>2026-05-01T17:38:49.998Z</time></trkpt><trkpt lat="43.2017567" lon="2.2679617"><ele>154.0</ele><time>2026-05-01T17:38:50.998Z</time></trkpt><trkpt lat="43.2019217" lon="2.26784"><ele>154.0</ele><time>2026-05-01T17:38:51.999Z</time></trkpt><trkpt lat="43.20209" lon="2.267735"><ele>154.0</ele><time>2026-05-01T17:38:52.997Z</time></trkpt><trkpt lat="43.20227" lon="2.26767"><ele>154.0</ele><time>2026-05-01T17:38:53.996Z</time></trkpt><trkpt lat="43.2024617" lon="2.26766"><ele>154.33333333333334</ele><time>2026-05-01T17:38:54.997Z</time></trkpt><trkpt lat="43.20265" lon="2.2676867"><ele>154.66666666666666</ele><time>2026-05-01T17:38:55.996Z</time></trkpt><trkpt lat="43.20284" lon="2.26773"><ele>155.0</ele><time>2026-05-01T17:38:56.998Z</time></trkpt><trkpt lat="43.20303" lon="2.2677783"><ele>155.33333333333331</ele><time>2026-05-01T17:38:57.997Z</time></trkpt><trkpt lat="43.2032217" lon="2.2678233"><ele>155.66666666666666</ele><time>2026-05-01T17:38:58.997Z</time></trkpt><trkpt lat="43.2034133" lon="2.2678683"><ele>156.0</ele><time>2026-05-01T17:38:59.998Z</time></trkpt><trkpt lat="43.2036083" lon="2.2679033"><ele>156.0</ele><time>2026-05-01T17:39:00.996Z</time></trkpt><trkpt lat="43.2038033" lon="2.2679167"><ele>156.0</ele><time>2026-05-01T17:39:02Z</time></trkpt><trkpt lat="43.2040033" lon="2.2679083"><ele>156.0</ele><time>2026-05-01T17:39:02.998Z</time></trkpt><trkpt lat="43.2042033" lon="2.26789"><ele>156.0</ele><time>2026-05-01T17:39:03.997Z</time></trkpt><trkpt lat="43.2044083" lon="2.2678583"><ele>156.0</ele><time>2026-05-01T17:39:04.996Z</time></trkpt><trkpt lat="43.2046133" lon="2.2678167"><ele>156.0</ele><time>2026-05-01T17:39:05.997Z</time></trkpt><trkpt lat="43.204815" lon="2.2677717"><ele>155.33333333333334</ele><time>2026-05-01T17:39:06.998Z</time></trkpt><trkpt lat="43.2050133" lon="2.267725"><ele>154.66666666666669</ele><time>2026-05-01T17:39:07.997Z</time></trkpt><trkpt lat="43.20521" lon="2.2676833"><ele>154.0</ele><time>2026-05-01T17:39:08.998Z</time></trkpt><trkpt lat="43.2054083" lon="2.2676467"><ele>154.0</ele><time>2026-05-01T17:39:09.997Z</time></trkpt><trkpt lat="43.2056067" lon="2.2676067"><ele>154.0</ele><time>2026-05-01T17:39:10.997Z</time></trkpt><trkpt lat="43.205805" lon="2.2675667"><ele>154.0</ele><time>2026-05-01T17:39:11.999Z</time></trkpt><trkpt lat="43.2060033" lon="2.2675267"><ele>154.0</ele><time>2026-05-01T17:39:12.996Z</time></trkpt><trkpt lat="43.2062017" lon="2.2674867"><ele>154.0</ele><time>2026-05-01T17:39:13.998Z</time></trkpt><trkpt lat="43.2063967" lon="2.267445"><ele>154.0</ele><time>2026-05-01T17:39:15.001Z</time></trkpt><trkpt lat="43.2065933" lon="2.2674033"><ele>154.0</ele><time>2026-05-01T17:39:15.999Z</time></trkpt><trkpt lat="43.2067917" lon="2.2673617"><ele>154.0</ele><time>2026-05-01T17:39:16.997Z</time></trkpt><trkpt lat="43.20699" lon="2.2673233"><ele>154.0</ele><time>2026-05-01T17:39:17.997Z</time></trkpt><trkpt lat="43.2071867" lon="2.2672817"><ele>154.0</ele><time>2026-05-01T17:39:18.999Z</time></trkpt><trkpt lat="43.2073817" lon="2.26723"><ele>154.0</ele><time>2026-05-01T17:39:19.998Z</time></trkpt><trkpt lat="43.2075717" lon="2.2671633"><ele>154.0</ele><time>2026-05-01T17:39:20.998Z</time></trkpt><trkpt lat="43.20776" lon="2.2670817"><ele>154.0</ele><time>2026-05-01T17:39:21.999Z</time></trkpt><trkpt lat="43.2079517" lon="2.266995"><ele>154.0</ele><time>2026-05-01T17:39:22.998Z</time></trkpt><trkpt lat="43.2081433" lon="2.2669083"><ele>154.0</ele><time>2026-05-01T17:39:23.998Z</time></trkpt><trkpt lat="43.2083383" lon="2.2668317"><ele>154.0</ele><time>2026-05-01T17:39:25Z</time></trkpt><trkpt lat="43.2085317" lon="2.266765"><ele>154.0</ele><time>2026-05-01T17:39:26.007Z</time></trkpt><trkpt lat="43.2087267" lon="2.2667083"><ele>154.0</ele><time>2026-05-01T17:39:26.998Z</time></trkpt><trkpt lat="43.2089233" lon="2.266665"><ele>153.66666666666669</ele><time>2026-05-01T17:39:28.001Z</time></trkpt><trkpt lat="43.2091183" lon="2.26663"><ele>153.33333333333334</ele><time>2026-05-01T17:39:28.999Z</time></trkpt><trkpt lat="43.2093117" lon="2.2665933"><ele>153.0</ele><time>2026-05-01T17:39:29.997Z</time></trkpt><trkpt lat="43.2095033" lon="2.2665517"><ele>153.0</ele><time>2026-05-01T17:39:30.997Z</time></trkpt><trkpt lat="43.2096933" lon="2.266505"><ele>153.0</ele><time>2026-05-01T17:39:31.999Z</time></trkpt><trkpt lat="43.2098783" lon="2.266455"><ele>153.0</ele><time>2026-05-01T17:39:32.998Z</time></trkpt><trkpt lat="43.21006" lon="2.2664017"><ele>154.0</ele><time>2026-05-01T17:39:33.998Z</time></trkpt><trkpt lat="43.210245" lon="2.266345"><ele>155.0</ele><time>2026-05-01T17:39:34.996Z</time></trkpt><trkpt lat="43.210435" lon="2.266285"><ele>156.0</ele><time>2026-05-01T17:39:35.998Z</time></trkpt><trkpt lat="43.2106283" lon="2.26622"><ele>155.33333333333334</ele><time>2026-05-01T17:39:37Z</time></trkpt><trkpt lat="43.21082" lon="2.2661483"><ele>154.66666666666669</ele><time>2026-05-01T17:39:37.997Z</time></trkpt><trkpt lat="43.211005" lon="2.266065"><ele>154.0</ele><time>2026-05-01T17:39:39Z</time></trkpt><trkpt lat="43.211175" lon="2.2659833"><ele>154.0</ele><time>2026-05-01T17:39:39.996Z</time></trkpt><trkpt lat="43.211335" lon="2.2659033"><ele>154.0</ele><time>2026-05-01T17:39:40.996Z</time></trkpt><trkpt lat="43.211485" lon="2.2658267"><ele>154.0</ele><time>2026-05-01T17:39:41.998Z</time></trkpt><trkpt lat="43.2116217" lon="2.265755"><ele>154.75</ele><time>2026-05-01T17:39:42.997Z</time></trkpt><trkpt lat="43.21175" lon="2.26568"><ele>155.5</ele><time>2026-05-01T17:39:44Z</time></trkpt><trkpt lat="43.211865" lon="2.2656167"><ele>156.25</ele><time>2026-05-01T17:39:44.997Z</time></trkpt><trkpt lat="43.2119733" lon="2.2655583"><ele>157.0</ele><time>2026-05-01T17:39:46Z</time></trkpt><trkpt lat="43.2120717" lon="2.2655017"><ele>157.0</ele><time>2026-05-01T17:39:46.999Z</time></trkpt><trkpt lat="43.21215" lon="2.2654567"><ele>157.0</ele><time>2026-05-01T17:39:47.998Z</time></trkpt><trkpt lat="43.21222" lon="2.2654183"><ele>157.0</ele><time>2026-05-01T17:39:48.997Z</time></trkpt><trkpt lat="43.2123133" lon="2.26538"><ele>157.0</ele><time>2026-05-01T17:39:50.998Z</time></trkpt><trkpt lat="43.2123817" lon="2.2653667"><ele>157.0</ele><time>2026-05-01T17:39:54.004Z</time></trkpt><trkpt lat="43.212435" lon="2.2654367"><ele>157.0</ele><time>2026-05-01T17:40:36.996Z</time></trkpt><trkpt lat="43.2124467" lon="2.2655367"><ele>157.2</ele><time>2026-05-01T17:40:37.998Z</time></trkpt><trkpt lat="43.2124517" lon="2.265665"><ele>157.39999999999998</ele><time>2026-05-01T17:40:38.998Z</time></trkpt><trkpt lat="43.212465" lon="2.265805"><ele>157.60000000000002</ele><time>2026-05-01T17:40:39.998Z</time></trkpt><trkpt lat="43.2124817" lon="2.2659483"><ele>157.8</ele><time>2026-05-01T17:40:40.997Z</time></trkpt><trkpt lat="43.212505" lon="2.2661167"><ele>158.0</ele><time>2026-05-01T17:40:42Z</time></trkpt><trkpt lat="43.2125283" lon="2.2662933"><ele>157.5</ele><time>2026-05-01T17:40:42.997Z</time></trkpt><trkpt lat="43.21255" lon="2.26648"><ele>157.0</ele><time>2026-05-01T17:40:44Z</time></trkpt><trkpt lat="43.21257" lon="2.266685"><ele>156.5</ele><time>2026-05-01T17:40:44.999Z</time></trkpt><trkpt lat="43.2125917" lon="2.266895"><ele>156.0</ele><time>2026-05-01T17:40:45.997Z</time></trkpt><trkpt lat="43.2126133" lon="2.26711"><ele>155.33333333333334</ele><time>2026-05-01T17:40:46.997Z</time></trkpt><trkpt lat="43.21264" lon="2.2673367"><ele>154.66666666666669</ele><time>2026-05-01T17:40:47.999Z</time></trkpt><trkpt lat="43.2126683" lon="2.2675767"><ele>154.0</ele><time>2026-05-01T17:40:48.999Z</time></trkpt><trkpt lat="43.2126933" lon="2.26782"><ele>154.0</ele><time>2026-05-01T17:40:49.999Z</time></trkpt><trkpt lat="43.21272" lon="2.2680683"><ele>154.0</ele><time>2026-05-01T17:40:50.999Z</time></trkpt><trkpt lat="43.2127483" lon="2.2683233"><ele>154.0</ele><time>2026-05-01T17:40:51.998Z</time></trkpt><trkpt lat="43.2127767" lon="2.268585"><ele>153.33333333333334</ele><time>2026-05-01T17:40:52.998Z</time></trkpt><trkpt lat="43.2128033" lon="2.26885"><ele>152.66666666666666</ele><time>2026-05-01T17:40:54.001Z</time></trkpt><trkpt lat="43.21283" lon="2.2691217"><ele>152.0</ele><time>2026-05-01T17:40:55Z</time></trkpt><trkpt lat="43.2128567" lon="2.2693933"><ele>151.33333333333331</ele><time>2026-05-01T17:40:55.997Z</time></trkpt><trkpt lat="43.212885" lon="2.2696683"><ele>150.66666666666666</ele><time>2026-05-01T17:40:57Z</time></trkpt><trkpt lat="43.212905" lon="2.2699417"><ele>150.0</ele><time>2026-05-01T17:40:57.998Z</time></trkpt><trkpt lat="43.2129133" lon="2.2702133"><ele>149.66666666666666</ele><time>2026-05-01T17:40:58.997Z</time></trkpt><trkpt lat="43.2129117" lon="2.2704817"><ele>149.33333333333331</ele><time>2026-05-01T17:40:59.997Z</time></trkpt><trkpt lat="43.212905" lon="2.2707517"><ele>149.0</ele><time>2026-05-01T17:41:00.999Z</time></trkpt><trkpt lat="43.2128933" lon="2.2710183"><ele>149.0</ele><time>2026-05-01T17:41:01.997Z</time></trkpt><trkpt lat="43.2128833" lon="2.271285"><ele>149.0</ele><time>2026-05-01T17:41:02.999Z</time></trkpt><trkpt lat="43.2128733" lon="2.2715517"><ele>149.0</ele><time>2026-05-01T17:41:03.997Z</time></trkpt><trkpt lat="43.212865" lon="2.2718233"><ele>149.0</ele><time>2026-05-01T17:41:05Z</time></trkpt><trkpt lat="43.2128583" lon="2.2720933"><ele>149.0</ele><time>2026-05-01T17:41:05.998Z</time></trkpt><trkpt lat="43.21286" lon="2.2723667"><ele>149.0</ele><time>2026-05-01T17:41:06.997Z</time></trkpt><trkpt lat="43.212865" lon="2.2726367"><ele>147.66666666666666</ele><time>2026-05-01T17:41:07.997Z</time></trkpt><trkpt lat="43.2128783" lon="2.2729067"><ele>146.33333333333334</ele><time>2026-05-01T17:41:09.001Z</time></trkpt><trkpt lat="43.2128967" lon="2.273175"><ele>145.0</ele><time>2026-05-01T17:41:09.997Z</time></trkpt><trkpt lat="43.2129267" lon="2.273445"><ele>144.33333333333334</ele><time>2026-05-01T17:41:10.997Z</time></trkpt><trkpt lat="43.2129633" lon="2.2737183"><ele>143.66666666666666</ele><time>2026-05-01T17:41:11.998Z</time></trkpt><trkpt lat="43.2130083" lon="2.27399"><ele>143.0</ele><time>2026-05-01T17:41:12.998Z</time></trkpt><trkpt lat="43.2130633" lon="2.2742583"><ele>143.0</ele><time>2026-05-01T17:41:13.997Z</time></trkpt><trkpt lat="43.2131267" lon="2.2745267"><ele>143.0</ele><time>2026-05-01T17:41:14.999Z</time></trkpt><trkpt lat="43.2131933" lon="2.274795"><ele>143.0</ele><time>2026-05-01T17:41:16Z</time></trkpt><trkpt lat="43.2132617" lon="2.275065"><ele>141.33333333333331</ele><time>2026-05-01T17:41:16.998Z</time></trkpt><trkpt lat="43.2133333" lon="2.2753367"><ele>139.66666666666666</ele><time>2026-05-01T17:41:17.999Z</time></trkpt><trkpt lat="43.2134017" lon="2.27561"><ele>138.0</ele><time>2026-05-01T17:41:18.999Z</time></trkpt><trkpt lat="43.2134617" lon="2.2758883"><ele>138.0</ele><time>2026-05-01T17:41:19.998Z</time></trkpt><trkpt lat="43.21351" lon="2.27617"><ele>138.0</ele><time>2026-05-01T17:41:20.999Z</time></trkpt><trkpt lat="43.2135433" lon="2.2764533"><ele>138.0</ele><time>2026-05-01T17:41:21.999Z</time></trkpt><trkpt lat="43.2135617" lon="2.2767367"><ele>138.0</ele><time>2026-05-01T17:41:22.997Z</time></trkpt><trkpt lat="43.21357" lon="2.2770167"><ele>138.0</ele><time>2026-05-01T17:41:23.999Z</time></trkpt><trkpt lat="43.21357" lon="2.2772967"><ele>138.0</ele><time>2026-05-01T17:41:24.997Z</time></trkpt><trkpt lat="43.2135683" lon="2.2775717"><ele>139.66666666666666</ele><time>2026-05-01T17:41:25.997Z</time></trkpt><trkpt lat="43.2135667" lon="2.277845"><ele>141.33333333333331</ele><time>2026-05-01T17:41:26.997Z</time></trkpt><trkpt lat="43.2135667" lon="2.2781133"><ele>143.0</ele><time>2026-05-01T17:41:27.997Z</time></trkpt><trkpt lat="43.213565" lon="2.27838"><ele>143.66666666666666</ele><time>2026-05-01T17:41:28.997Z</time></trkpt><trkpt lat="43.21356" lon="2.2786467"><ele>144.33333333333334</ele><time>2026-05-01T17:41:29.996Z</time></trkpt><trkpt lat="43.213555" lon="2.2789133"><ele>145.0</ele><time>2026-05-01T17:41:30.999Z</time></trkpt><trkpt lat="43.2135517" lon="2.2791783"><ele>145.0</ele><time>2026-05-01T17:41:31.997Z</time></trkpt><trkpt lat="43.2135483" lon="2.2794383"><ele>145.0</ele><time>2026-05-01T17:41:32.998Z</time></trkpt><trkpt lat="43.21355" lon="2.2797"><ele>145.0</ele><time>2026-05-01T17:41:33.997Z</time></trkpt><trkpt lat="43.2135517" lon="2.27996"><ele>144.66666666666669</ele><time>2026-05-01T17:41:34.998Z</time></trkpt><trkpt lat="43.2135517" lon="2.2802217"><ele>144.33333333333334</ele><time>2026-05-01T17:41:35.997Z</time></trkpt><trkpt lat="43.21355" lon="2.2804833"><ele>144.0</ele><time>2026-05-01T17:41:36.997Z</time></trkpt><trkpt lat="43.213545" lon="2.280745"><ele>144.0</ele><time>2026-05-01T17:41:37.997Z</time></trkpt><trkpt lat="43.21354" lon="2.281005"><ele>144.0</ele><time>2026-05-01T17:41:38.998Z</time></trkpt><trkpt lat="43.2135333" lon="2.2812583"><ele>144.0</ele><time>2026-05-01T17:41:39.998Z</time></trkpt><trkpt lat="43.2135267" lon="2.281515"><ele>143.66666666666666</ele><time>2026-05-01T17:41:40.997Z</time></trkpt><trkpt lat="43.2135167" lon="2.2817717"><ele>143.33333333333331</ele><time>2026-05-01T17:41:41.998Z</time></trkpt><trkpt lat="43.213505" lon="2.28203"><ele>143.0</ele><time>2026-05-01T17:41:42.998Z</time></trkpt><trkpt lat="43.2134883" lon="2.28229"><ele>142.66666666666666</ele><time>2026-05-01T17:41:43.998Z</time></trkpt><trkpt lat="43.21347" lon="2.28255"><ele>142.33333333333334</ele><time>2026-05-01T17:41:44.998Z</time></trkpt><trkpt lat="43.21345" lon="2.2828117"><ele>142.0</ele><time>2026-05-01T17:41:46Z</time></trkpt><trkpt lat="43.2134333" lon="2.2830767"><ele>141.66666666666669</ele><time>2026-05-01T17:41:47.001Z</time></trkpt><trkpt lat="43.2134133" lon="2.283345"><ele>141.33333333333334</ele><time>2026-05-01T17:41:47.997Z</time></trkpt><trkpt lat="43.213385" lon="2.28361"><ele>141.0</ele><time>2026-05-01T17:41:48.997Z</time></trkpt><trkpt lat="43.2133717" lon="2.2838617"><ele>140.33333333333334</ele><time>2026-05-01T17:41:49.997Z</time></trkpt><trkpt lat="43.213345" lon="2.2841233"><ele>139.66666666666669</ele><time>2026-05-01T17:41:50.997Z</time></trkpt><trkpt lat="43.2133267" lon="2.284385"><ele>139.0</ele><time>2026-05-01T17:41:51.997Z</time></trkpt><trkpt lat="43.2133333" lon="2.284655"><ele>139.0</ele><time>2026-05-01T17:41:52.997Z</time></trkpt><trkpt lat="43.2133483" lon="2.284925"><ele>139.0</ele><time>2026-05-01T17:41:54.004Z</time></trkpt><trkpt lat="43.213375" lon="2.2852"><ele>139.0</ele><time>2026-05-01T17:41:54.997Z</time></trkpt><trkpt lat="43.2134117" lon="2.2854767"><ele>139.33333333333334</ele><time>2026-05-01T17:41:55.998Z</time></trkpt><trkpt lat="43.2134467" lon="2.2857583"><ele>139.66666666666666</ele><time>2026-05-01T17:41:56.998Z</time></trkpt><trkpt lat="43.213485" lon="2.2860417"><ele>140.0</ele><time>2026-05-01T17:41:57.997Z</time></trkpt><trkpt lat="43.2135233" lon="2.2863283"><ele>140.0</ele><time>2026-05-01T17:41:58.997Z</time></trkpt><trkpt lat="43.21356" lon="2.2866167"><ele>140.0</ele><time>2026-05-01T17:42:00Z</time></trkpt><trkpt lat="43.2135967" lon="2.286905"><ele>140.0</ele><time>2026-05-01T17:42:00.998Z</time></trkpt><trkpt lat="43.21363" lon="2.287195"><ele>140.0</ele><time>2026-05-01T17:42:01.998Z</time></trkpt><trkpt lat="43.2136633" lon="2.2874817"><ele>140.0</ele><time>2026-05-01T17:42:02.997Z</time></trkpt><trkpt lat="43.213695" lon="2.2877683"><ele>140.0</ele><time>2026-05-01T17:42:03.999Z</time></trkpt><trkpt lat="43.2137283" lon="2.2880533"><ele>139.66666666666666</ele><time>2026-05-01T17:42:04.997Z</time></trkpt><trkpt lat="43.2137617" lon="2.288335"><ele>139.33333333333334</ele><time>2026-05-01T17:42:05.999Z</time></trkpt><trkpt lat="43.2137933" lon="2.2886167"><ele>139.0</ele><time>2026-05-01T17:42:06.999Z</time></trkpt><trkpt lat="43.2138183" lon="2.2888983"><ele>138.66666666666669</ele><time>2026-05-01T17:42:07.998Z</time></trkpt><trkpt lat="43.21383" lon="2.2891817"><ele>138.33333333333334</ele><time>2026-05-01T17:42:08.998Z</time></trkpt><trkpt lat="43.21383" lon="2.289465"><ele>138.0</ele><time>2026-05-01T17:42:09.999Z</time></trkpt><trkpt lat="43.2138183" lon="2.2897517"><ele>138.33333333333334</ele><time>2026-05-01T17:42:10.997Z</time></trkpt><trkpt lat="43.213805" lon="2.29004"><ele>138.66666666666669</ele><time>2026-05-01T17:42:11.997Z</time></trkpt><trkpt lat="43.2137917" lon="2.2903283"><ele>139.0</ele><time>2026-05-01T17:42:12.998Z</time></trkpt><trkpt lat="43.213775" lon="2.2906183"><ele>139.0</ele><time>2026-05-01T17:42:14Z</time></trkpt><trkpt lat="43.2137567" lon="2.2909083"><ele>139.0</ele><time>2026-05-01T17:42:14.997Z</time></trkpt><trkpt lat="43.2137383" lon="2.2912"><ele>139.0</ele><time>2026-05-01T17:42:15.998Z</time></trkpt><trkpt lat="43.2137167" lon="2.2914917"><ele>138.66666666666669</ele><time>2026-05-01T17:42:16.998Z</time></trkpt><trkpt lat="43.2136967" lon="2.2917817"><ele>138.33333333333334</ele><time>2026-05-01T17:42:17.997Z</time></trkpt><trkpt lat="43.21368" lon="2.2920683"><ele>138.0</ele><time>2026-05-01T17:42:18.999Z</time></trkpt><trkpt lat="43.2136683" lon="2.2923567"><ele>138.0</ele><time>2026-05-01T17:42:19.997Z</time></trkpt><trkpt lat="43.21366" lon="2.2926433"><ele>138.0</ele><time>2026-05-01T17:42:20.998Z</time></trkpt><trkpt lat="43.2136483" lon="2.2929267"><ele>138.0</ele><time>2026-05-01T17:42:21.998Z</time></trkpt><trkpt lat="43.2136433" lon="2.2932083"><ele>138.0</ele><time>2026-05-01T17:42:22.997Z</time></trkpt><trkpt lat="43.2136417" lon="2.29349"><ele>138.0</ele><time>2026-05-01T17:42:23.999Z</time></trkpt><trkpt lat="43.2136333" lon="2.2937733"><ele>138.0</ele><time>2026-05-01T17:42:24.997Z</time></trkpt><trkpt lat="43.2136233" lon="2.294055"><ele>138.0</ele><time>2026-05-01T17:42:25.998Z</time></trkpt><trkpt lat="43.2136183" lon="2.2943383"><ele>138.0</ele><time>2026-05-01T17:42:27Z</time></trkpt><trkpt lat="43.21362" lon="2.2946217"><ele>138.0</ele><time>2026-05-01T17:42:27.998Z</time></trkpt><trkpt lat="43.21362" lon="2.2949033"><ele>137.0</ele><time>2026-05-01T17:42:28.997Z</time></trkpt><trkpt lat="43.2136167" lon="2.295185"><ele>136.0</ele><time>2026-05-01T17:42:29.998Z</time></trkpt><trkpt lat="43.2136133" lon="2.2954667"><ele>135.0</ele><time>2026-05-01T17:42:30.998Z</time></trkpt><trkpt lat="43.2136117" lon="2.29575"><ele>135.0</ele><time>2026-05-01T17:42:31.998Z</time></trkpt><trkpt lat="43.2136167" lon="2.2960333"><ele>135.0</ele><time>2026-05-01T17:42:32.997Z</time></trkpt><trkpt lat="43.21362" lon="2.29632"><ele>135.0</ele><time>2026-05-01T17:42:33.998Z</time></trkpt><trkpt lat="43.2136267" lon="2.2966067"><ele>134.66666666666666</ele><time>2026-05-01T17:42:35.006Z</time></trkpt><trkpt lat="43.2136367" lon="2.2968917"><ele>134.33333333333331</ele><time>2026-05-01T17:42:35.998Z</time></trkpt><trkpt lat="43.2136467" lon="2.297175"><ele>134.0</ele><time>2026-05-01T17:42:36.997Z</time></trkpt><trkpt lat="43.2136567" lon="2.2974567"><ele>134.0</ele><time>2026-05-01T17:42:37.998Z</time></trkpt><trkpt lat="43.2136717" lon="2.297735"><ele>134.0</ele><time>2026-05-01T17:42:38.998Z</time></trkpt><trkpt lat="43.2136833" lon="2.2980117"><ele>134.0</ele><time>2026-05-01T17:42:39.998Z</time></trkpt><trkpt lat="43.2136933" lon="2.2982883"><ele>134.0</ele><time>2026-05-01T17:42:40.996Z</time></trkpt><trkpt lat="43.213695" lon="2.298565"><ele>134.0</ele><time>2026-05-01T17:42:41.998Z</time></trkpt><trkpt lat="43.2136933" lon="2.2988433"><ele>134.0</ele><time>2026-05-01T17:42:42.998Z</time></trkpt><trkpt lat="43.2136733" lon="2.2991183"><ele>133.66666666666666</ele><time>2026-05-01T17:42:43.998Z</time></trkpt><trkpt lat="43.2136683" lon="2.2993983"><ele>133.33333333333334</ele><time>2026-05-01T17:42:44.997Z</time></trkpt><trkpt lat="43.213655" lon="2.2996783"><ele>133.0</ele><time>2026-05-01T17:42:46.001Z</time></trkpt><trkpt lat="43.2136367" lon="2.2999533"><ele>132.0</ele><time>2026-05-01T17:42:46.997Z</time></trkpt><trkpt lat="43.2136167" lon="2.300225"><ele>131.0</ele><time>2026-05-01T17:42:47.999Z</time></trkpt><trkpt lat="43.2136" lon="2.3004967"><ele>130.0</ele><time>2026-05-01T17:42:48.997Z</time></trkpt><trkpt lat="43.213585" lon="2.3007683"><ele>130.0</ele><time>2026-05-01T17:42:49.997Z</time></trkpt><trkpt lat="43.21357" lon="2.3010383"><ele>130.0</ele><time>2026-05-01T17:42:50.997Z</time></trkpt><trkpt lat="43.2135517" lon="2.301305"><ele>130.0</ele><time>2026-05-01T17:42:51.997Z</time></trkpt><trkpt lat="43.21353" lon="2.30157"><ele>130.0</ele><time>2026-05-01T17:42:52.998Z</time></trkpt><trkpt lat="43.2135083" lon="2.3018267"><ele>130.0</ele><time>2026-05-01T17:42:53.997Z</time></trkpt><trkpt lat="43.2134883" lon="2.3020717"><ele>130.0</ele><time>2026-05-01T17:42:54.997Z</time></trkpt><trkpt lat="43.2134683" lon="2.3023"><ele>130.0</ele><time>2026-05-01T17:42:55.997Z</time></trkpt><trkpt lat="43.2134533" lon="2.30251"><ele>130.0</ele><time>2026-05-01T17:42:56.999Z</time></trkpt><trkpt lat="43.2134367" lon="2.3027067"><ele>130.0</ele><time>2026-05-01T17:42:57.999Z</time></trkpt><trkpt lat="43.21342" lon="2.3028917"><ele>130.0</ele><time>2026-05-01T17:42:58.997Z</time></trkpt><trkpt lat="43.2134067" lon="2.3030633"><ele>130.0</ele><time>2026-05-01T17:42:59.998Z</time></trkpt><trkpt lat="43.213395" lon="2.3032233"><ele>130.0</ele><time>2026-05-01T17:43:01.002Z</time></trkpt><trkpt lat="43.2133767" lon="2.30338"><ele>130.0</ele><time>2026-05-01T17:43:01.997Z</time></trkpt><trkpt lat="43.2133317" lon="2.3035083"><ele>130.0</ele><time>2026-05-01T17:43:02.998Z</time></trkpt><trkpt lat="43.213275" lon="2.3036183"><ele>130.0</ele><time>2026-05-01T17:43:03.997Z</time></trkpt><trkpt lat="43.2132283" lon="2.3037283"><ele>130.0</ele><time>2026-05-01T17:43:04.997Z</time></trkpt><trkpt lat="43.2132067" lon="2.3038517"><ele>130.0</ele><time>2026-05-01T17:43:05.997Z</time></trkpt><trkpt lat="43.213225" lon="2.3039917"><ele>130.0</ele><time>2026-05-01T17:43:06.997Z</time></trkpt><trkpt lat="43.2132633" lon="2.304135"><ele>130.0</ele><time>2026-05-01T17:43:07.997Z</time></trkpt><trkpt lat="43.2132983" lon="2.3042917"><ele>130.0</ele><time>2026-05-01T17:43:08.997Z</time></trkpt><trkpt lat="43.2133117" lon="2.304465"><ele>130.0</ele><time>2026-05-01T17:43:09.998Z</time></trkpt><trkpt lat="43.2133067" lon="2.3046533"><ele>130.0</ele><time>2026-05-01T17:43:10.997Z</time></trkpt><trkpt lat="43.21329" lon="2.3048517"><ele>130.0</ele><time>2026-05-01T17:43:11.998Z</time></trkpt><trkpt lat="43.2132767" lon="2.3050567"><ele>130.0</ele><time>2026-05-01T17:43:12.997Z</time></trkpt><trkpt lat="43.2132633" lon="2.3052617"><ele>130.0</ele><time>2026-05-01T17:43:14.002Z</time></trkpt><trkpt lat="43.2132483" lon="2.3054767"><ele>130.0</ele><time>2026-05-01T17:43:14.999Z</time></trkpt><trkpt lat="43.213235" lon="2.3056983"><ele>130.0</ele><time>2026-05-01T17:43:15.998Z</time></trkpt><trkpt lat="43.2132217" lon="2.3059167"><ele>130.0</ele><time>2026-05-01T17:43:16.996Z</time></trkpt><trkpt lat="43.21321" lon="2.3061383"><ele>130.0</ele><time>2026-05-01T17:43:18.001Z</time></trkpt><trkpt lat="43.2131967" lon="2.30636"><ele>130.0</ele><time>2026-05-01T17:43:18.997Z</time></trkpt><trkpt lat="43.2131833" lon="2.3065767"><ele>130.0</ele><time>2026-05-01T17:43:19.998Z</time></trkpt><trkpt lat="43.2131717" lon="2.306785"><ele>130.0</ele><time>2026-05-01T17:43:20.997Z</time></trkpt><trkpt lat="43.21316" lon="2.3069817"><ele>130.0</ele><time>2026-05-01T17:43:21.997Z</time></trkpt><trkpt lat="43.21315" lon="2.307165"><ele>130.0</ele><time>2026-05-01T17:43:22.997Z</time></trkpt><trkpt lat="43.2131433" lon="2.3073367"><ele>129.6</ele><time>2026-05-01T17:43:23.997Z</time></trkpt><trkpt lat="43.2131267" lon="2.3075"><ele>129.2</ele><time>2026-05-01T17:43:24.997Z</time></trkpt><trkpt lat="43.21309" lon="2.30765"><ele>128.8</ele><time>2026-05-01T17:43:26Z</time></trkpt><trkpt lat="43.21305" lon="2.307785"><ele>128.4</ele><time>2026-05-01T17:43:26.997Z</time></trkpt><trkpt lat="43.213025" lon="2.30792"><ele>128.0</ele><time>2026-05-01T17:43:27.999Z</time></trkpt><trkpt lat="43.2130283" lon="2.3080567"><ele>127.75</ele><time>2026-05-01T17:43:28.996Z</time></trkpt><trkpt lat="43.213065" lon="2.3081983"><ele>127.5</ele><time>2026-05-01T17:43:29.998Z</time></trkpt><trkpt lat="43.2130983" lon="2.308355"><ele>127.25</ele><time>2026-05-01T17:43:30.996Z</time></trkpt><trkpt lat="43.2131083" lon="2.3085333"><ele>127.0</ele><time>2026-05-01T17:43:31.998Z</time></trkpt><trkpt lat="43.2131083" lon="2.3087283"><ele>127.0</ele><time>2026-05-01T17:43:33Z</time></trkpt><trkpt lat="43.213105" lon="2.3089283"><ele>127.0</ele><time>2026-05-01T17:43:33.999Z</time></trkpt><trkpt lat="43.2130967" lon="2.3091317"><ele>127.0</ele><time>2026-05-01T17:43:34.997Z</time></trkpt><trkpt lat="43.2130883" lon="2.3093433"><ele>127.0</ele><time>2026-05-01T17:43:35.998Z</time></trkpt><trkpt lat="43.2130783" lon="2.30957"><ele>126.66666666666667</ele><time>2026-05-01T17:43:37.002Z</time></trkpt><trkpt lat="43.213065" lon="2.3098017"><ele>126.33333333333334</ele><time>2026-05-01T17:43:37.999Z</time></trkpt><trkpt lat="43.2130517" lon="2.3100283"><ele>126.0</ele><time>2026-05-01T17:43:38.998Z</time></trkpt><trkpt lat="43.2130333" lon="2.31026"><ele>126.0</ele><time>2026-05-01T17:43:39.999Z</time></trkpt><trkpt lat="43.2130083" lon="2.3104967"><ele>126.0</ele><time>2026-05-01T17:43:40.997Z</time></trkpt><trkpt lat="43.212975" lon="2.3107367"><ele>126.0</ele><time>2026-05-01T17:43:42.001Z</time></trkpt><trkpt lat="43.212935" lon="2.3109783"><ele>126.0</ele><time>2026-05-01T17:43:42.997Z</time></trkpt><trkpt lat="43.21289" lon="2.3112217"><ele>126.0</ele><time>2026-05-01T17:43:43.998Z</time></trkpt><trkpt lat="43.2128417" lon="2.3114717"><ele>126.0</ele><time>2026-05-01T17:43:44.998Z</time></trkpt><trkpt lat="43.2127933" lon="2.311725"><ele>126.0</ele><time>2026-05-01T17:43:45.997Z</time></trkpt><trkpt lat="43.2127417" lon="2.311975"><ele>126.0</ele><time>2026-05-01T17:43:46.998Z</time></trkpt><trkpt lat="43.2126933" lon="2.31222"><ele>126.0</ele><time>2026-05-01T17:43:47.998Z</time></trkpt><trkpt lat="43.2126483" lon="2.3124667"><ele>125.66666666666666</ele><time>2026-05-01T17:43:48.999Z</time></trkpt><trkpt lat="43.212605" lon="2.3127133"><ele>125.33333333333333</ele><time>2026-05-01T17:43:49.997Z</time></trkpt><trkpt lat="43.2125617" lon="2.31296"><ele>125.0</ele><time>2026-05-01T17:43:50.997Z</time></trkpt><trkpt lat="43.212515" lon="2.313205"><ele>124.66666666666666</ele><time>2026-05-01T17:43:51.998Z</time></trkpt><trkpt lat="43.2124683" lon="2.31345"><ele>124.33333333333334</ele><time>2026-05-01T17:43:52.998Z</time></trkpt><trkpt lat="43.212425" lon="2.3136967"><ele>124.0</ele><time>2026-05-01T17:43:53.998Z</time></trkpt><trkpt lat="43.212385" lon="2.313945"><ele>124.66666666666667</ele><time>2026-05-01T17:43:54.997Z</time></trkpt><trkpt lat="43.212345" lon="2.3141933"><ele>125.33333333333334</ele><time>2026-05-01T17:43:55.998Z</time></trkpt><trkpt lat="43.2123067" lon="2.3144433"><ele>126.0</ele><time>2026-05-01T17:43:56.998Z</time></trkpt><trkpt lat="43.21227" lon="2.31469"><ele>124.66666666666666</ele><time>2026-05-01T17:43:57.996Z</time></trkpt><trkpt lat="43.2122417" lon="2.3149383"><ele>123.33333333333333</ele><time>2026-05-01T17:43:58.997Z</time></trkpt><trkpt lat="43.2122217" lon="2.31519"><ele>122.0</ele><time>2026-05-01T17:43:59.997Z</time></trkpt><trkpt lat="43.2121967" lon="2.31544"><ele>122.0</ele><time>2026-05-01T17:44:00.998Z</time></trkpt><trkpt lat="43.2121667" lon="2.31569"><ele>122.0</ele><time>2026-05-01T17:44:02Z</time></trkpt><trkpt lat="43.212135" lon="2.31594"><ele>122.0</ele><time>2026-05-01T17:44:02.999Z</time></trkpt><trkpt lat="43.2120983" lon="2.3161867"><ele>122.33333333333333</ele><time>2026-05-01T17:44:04.001Z</time></trkpt><trkpt lat="43.2120617" lon="2.316445"><ele>122.66666666666666</ele><time>2026-05-01T17:44:04.996Z</time></trkpt><trkpt lat="43.2120217" lon="2.3167017"><ele>123.0</ele><time>2026-05-01T17:44:05.998Z</time></trkpt><trkpt lat="43.21198" lon="2.3169567"><ele>123.0</ele><time>2026-05-01T17:44:06.998Z</time></trkpt><trkpt lat="43.21194" lon="2.31721"><ele>123.0</ele><time>2026-05-01T17:44:07.997Z</time></trkpt><trkpt lat="43.2118983" lon="2.3174667"><ele>123.0</ele><time>2026-05-01T17:44:08.997Z</time></trkpt><trkpt lat="43.2118533" lon="2.3177217"><ele>122.0</ele><time>2026-05-01T17:44:09.997Z</time></trkpt><trkpt lat="43.21181" lon="2.3179717"><ele>121.0</ele><time>2026-05-01T17:44:10.997Z</time></trkpt><trkpt lat="43.2117667" lon="2.3182067"><ele>120.0</ele><time>2026-05-01T17:44:11.999Z</time></trkpt><trkpt lat="43.2117383" lon="2.318425"><ele>119.33333333333334</ele><time>2026-05-01T17:44:13Z</time></trkpt><trkpt lat="43.2117" lon="2.3186333"><ele>118.66666666666667</ele><time>2026-05-01T17:44:13.997Z</time></trkpt><trkpt lat="43.2116617" lon="2.3188367"><ele>118.0</ele><time>2026-05-01T17:44:14.999Z</time></trkpt><trkpt lat="43.2116233" lon="2.3190233"><ele>117.75</ele><time>2026-05-01T17:44:15.998Z</time></trkpt><trkpt lat="43.2115667" lon="2.3191867"><ele>117.5</ele><time>2026-05-01T17:44:16.998Z</time></trkpt><trkpt lat="43.2114967" lon="2.3193283"><ele>117.25</ele><time>2026-05-01T17:44:18Z</time></trkpt><trkpt lat="43.2114217" lon="2.3194533"><ele>117.0</ele><time>2026-05-01T17:44:18.998Z</time></trkpt><trkpt lat="43.2113667" lon="2.31959"><ele>117.25</ele><time>2026-05-01T17:44:20.001Z</time></trkpt><trkpt lat="43.2113317" lon="2.319735"><ele>117.5</ele><time>2026-05-01T17:44:20.999Z</time></trkpt><trkpt lat="43.2113583" lon="2.3198967"><ele>117.75</ele><time>2026-05-01T17:44:22.002Z</time></trkpt><trkpt lat="43.2114033" lon="2.3200683"><ele>118.0</ele><time>2026-05-01T17:44:22.996Z</time></trkpt><trkpt lat="43.2114433" lon="2.3202567"><ele>118.0</ele><time>2026-05-01T17:44:23.997Z</time></trkpt><trkpt lat="43.2114533" lon="2.320465"><ele>118.0</ele><time>2026-05-01T17:44:24.997Z</time></trkpt><trkpt lat="43.2114433" lon="2.3206783"><ele>118.0</ele><time>2026-05-01T17:44:25.998Z</time></trkpt><trkpt lat="43.211425" lon="2.3208917"><ele>117.66666666666667</ele><time>2026-05-01T17:44:26.998Z</time></trkpt><trkpt lat="43.211405" lon="2.3211083"><ele>117.33333333333334</ele><time>2026-05-01T17:44:27.997Z</time></trkpt><trkpt lat="43.2113867" lon="2.321335"><ele>117.0</ele><time>2026-05-01T17:44:28.997Z</time></trkpt><trkpt lat="43.21137" lon="2.321565"><ele>116.66666666666666</ele><time>2026-05-01T17:44:30.001Z</time></trkpt><trkpt lat="43.2113633" lon="2.3217983"><ele>116.33333333333333</ele><time>2026-05-01T17:44:30.997Z</time></trkpt><trkpt lat="43.2113533" lon="2.3220267"><ele>116.0</ele><time>2026-05-01T17:44:31.997Z</time></trkpt><trkpt lat="43.21135" lon="2.3222467"><ele>115.75</ele><time>2026-05-01T17:44:32.997Z</time></trkpt><trkpt lat="43.2113467" lon="2.322455"><ele>115.5</ele><time>2026-05-01T17:44:33.997Z</time></trkpt><trkpt lat="43.2113433" lon="2.3226517"><ele>115.25</ele><time>2026-05-01T17:44:34.997Z</time></trkpt><trkpt lat="43.2113417" lon="2.3228417"><ele>115.0</ele><time>2026-05-01T17:44:36.001Z</time></trkpt><trkpt lat="43.21134" lon="2.3230267"><ele>114.75</ele><time>2026-05-01T17:44:36.996Z</time></trkpt><trkpt lat="43.21134" lon="2.3231967"><ele>114.5</ele><time>2026-05-01T17:44:37.996Z</time></trkpt><trkpt lat="43.2113383" lon="2.323355"><ele>114.25</ele><time>2026-05-01T17:44:38.999Z</time></trkpt><trkpt lat="43.2113367" lon="2.3235033"><ele>114.0</ele><time>2026-05-01T17:44:39.998Z</time></trkpt><trkpt lat="43.2113317" lon="2.3236467"><ele>114.0</ele><time>2026-05-01T17:44:40.998Z</time></trkpt><trkpt lat="43.21132" lon="2.3237833"><ele>114.0</ele><time>2026-05-01T17:44:41.997Z</time></trkpt><trkpt lat="43.2112917" lon="2.3239083"><ele>114.0</ele><time>2026-05-01T17:44:42.997Z</time></trkpt><trkpt lat="43.2112483" lon="2.3240183"><ele>114.0</ele><time>2026-05-01T17:44:43.997Z</time></trkpt><trkpt lat="43.2112033" lon="2.324115"><ele>114.0</ele><time>2026-05-01T17:44:44.997Z</time></trkpt><trkpt lat="43.2111717" lon="2.32421"><ele>114.0</ele><time>2026-05-01T17:44:45.998Z</time></trkpt><trkpt lat="43.2111583" lon="2.32431"><ele>113.6</ele><time>2026-05-01T17:44:46.997Z</time></trkpt><trkpt lat="43.2111633" lon="2.324415"><ele>113.2</ele><time>2026-05-01T17:44:48.003Z</time></trkpt><trkpt lat="43.2112283" lon="2.3244817"><ele>112.79999999999998</ele><time>2026-05-01T17:44:48.997Z</time></trkpt><trkpt lat="43.2113233" lon="2.3244967"><ele>112.39999999999999</ele><time>2026-05-01T17:44:49.997Z</time></trkpt><trkpt lat="43.2114167" lon="2.3244633"><ele>112.0</ele><time>2026-05-01T17:44:51Z</time></trkpt><trkpt lat="43.211515" lon="2.3244233"><ele>112.0</ele><time>2026-05-01T17:44:51.998Z</time></trkpt><trkpt lat="43.2116167" lon="2.3244067"><ele>111.99999999999999</ele><time>2026-05-01T17:44:52.996Z</time></trkpt><trkpt lat="43.2117117" lon="2.3243983"><ele>111.99999999999999</ele><time>2026-05-01T17:44:53.997Z</time></trkpt><trkpt lat="43.2117933" lon="2.32435"><ele>112.0</ele><time>2026-05-01T17:44:54.997Z</time></trkpt><trkpt lat="43.211855" lon="2.3242483"><ele>112.0</ele><time>2026-05-01T17:44:56Z</time></trkpt><trkpt lat="43.211895" lon="2.3240983"><ele>112.0</ele><time>2026-05-01T17:44:57Z</time></trkpt><trkpt lat="43.2119233" lon="2.323935"><ele>112.0</ele><time>2026-05-01T17:44:57.997Z</time></trkpt><trkpt lat="43.2119517" lon="2.3237667"><ele>112.0</ele><time>2026-05-01T17:44:58.998Z</time></trkpt><trkpt lat="43.2119833" lon="2.3235983"><ele>112.0</ele><time>2026-05-01T17:45:00.002Z</time></trkpt><trkpt lat="43.21201" lon="2.32342"><ele>112.25</ele><time>2026-05-01T17:45:00.998Z</time></trkpt><trkpt lat="43.2120383" lon="2.323245"><ele>112.5</ele><time>2026-05-01T17:45:01.999Z</time></trkpt><trkpt lat="43.21207" lon="2.3230767"><ele>112.75</ele><time>2026-05-01T17:45:02.997Z</time></trkpt><trkpt lat="43.212115" lon="2.322915"><ele>113.0</ele><time>2026-05-01T17:45:03.998Z</time></trkpt><trkpt lat="43.212185" lon="2.3227717"><ele>113.25</ele><time>2026-05-01T17:45:04.999Z</time></trkpt><trkpt lat="43.2122733" lon="2.3226633"><ele>113.5</ele><time>2026-05-01T17:45:05.997Z</time></trkpt><trkpt lat="43.21238" lon="2.3225983"><ele>113.75</ele><time>2026-05-01T17:45:06.997Z</time></trkpt><trkpt lat="43.2124983" lon="2.3225867"><ele>114.0</ele><time>2026-05-01T17:45:07.998Z</time></trkpt><trkpt lat="43.21262" lon="2.3226283"><ele>114.0</ele><time>2026-05-01T17:45:08.998Z</time></trkpt><trkpt lat="43.212735" lon="2.3227083"><ele>114.0</ele><time>2026-05-01T17:45:10.001Z</time></trkpt><trkpt lat="43.2128517" lon="2.3228117"><ele>114.0</ele><time>2026-05-01T17:45:10.997Z</time></trkpt><trkpt lat="43.2129733" lon="2.32292"><ele>114.0</ele><time>2026-05-01T17:45:11.998Z</time></trkpt><trkpt lat="43.2130933" lon="2.3230217"><ele>113.5</ele><time>2026-05-01T17:45:12.998Z</time></trkpt><trkpt lat="43.213205" lon="2.3231167"><ele>113.0</ele><time>2026-05-01T17:45:13.998Z</time></trkpt><trkpt lat="43.2133083" lon="2.32321"><ele>112.5</ele><time>2026-05-01T17:45:14.999Z</time></trkpt><trkpt lat="43.2134" lon="2.3233"><ele>112.0</ele><time>2026-05-01T17:45:15.998Z</time></trkpt><trkpt lat="43.2134867" lon="2.3233817"><ele>112.00000000000001</ele><time>2026-05-01T17:45:16.996Z</time></trkpt><trkpt lat="43.2135633" lon="2.3234617"><ele>112.0</ele><time>2026-05-01T17:45:17.997Z</time></trkpt><trkpt lat="43.2136283" lon="2.32355"><ele>112.0</ele><time>2026-05-01T17:45:18.998Z</time></trkpt><trkpt lat="43.21369" lon="2.323635"><ele>112.0</ele><time>2026-05-01T17:45:19.997Z</time></trkpt><trkpt lat="43.21376" lon="2.3236933"><ele>112.00000000000001</ele><time>2026-05-01T17:45:20.998Z</time></trkpt><trkpt lat="43.2138333" lon="2.3237183"><ele>112.0</ele><time>2026-05-01T17:45:21.997Z</time></trkpt><trkpt lat="43.213915" lon="2.3236583"><ele>112.0</ele><time>2026-05-01T17:45:22.997Z</time></trkpt><trkpt lat="43.2139817" lon="2.3235717"><ele>112.0</ele><time>2026-05-01T17:45:23.997Z</time></trkpt><trkpt lat="43.2140333" lon="2.32342"><ele>112.0</ele><time>2026-05-01T17:45:24.997Z</time></trkpt><trkpt lat="43.2140917" lon="2.3232633"><ele>112.0</ele><time>2026-05-01T17:45:25.999Z</time></trkpt><trkpt lat="43.214165" lon="2.323115"><ele>112.75</ele><time>2026-05-01T17:45:26.998Z</time></trkpt><trkpt lat="43.214245" lon="2.3229733"><ele>113.5</ele><time>2026-05-01T17:45:27.997Z</time></trkpt><trkpt lat="43.21433" lon="2.3228283"><ele>114.25</ele><time>2026-05-01T17:45:28.997Z</time></trkpt><trkpt lat="43.2144133" lon="2.3226683"><ele>115.0</ele><time>2026-05-01T17:45:30Z</time></trkpt><trkpt lat="43.21448" lon="2.3225567"><ele>115.0</ele><time>2026-05-01T17:45:30.999Z</time></trkpt><trkpt lat="43.2145467" lon="2.32244"><ele>115.0</ele><time>2026-05-01T17:45:31.998Z</time></trkpt><trkpt lat="43.21463" lon="2.32235"><ele>115.0</ele><time>2026-05-01T17:45:32.998Z</time></trkpt><trkpt lat="43.2147267" lon="2.3222983"><ele>115.0</ele><time>2026-05-01T17:45:33.998Z</time></trkpt><trkpt lat="43.2148167" lon="2.32229"><ele>115.0</ele><time>2026-05-01T17:45:34.998Z</time></trkpt><trkpt lat="43.2148967" lon="2.3223117"><ele>114.2</ele><time>2026-05-01T17:45:35.997Z</time></trkpt><trkpt lat="43.2149783" lon="2.32234"><ele>113.4</ele><time>2026-05-01T17:45:36.997Z</time></trkpt><trkpt lat="43.2150683" lon="2.3223233"><ele>112.6</ele><time>2026-05-01T17:45:37.997Z</time></trkpt><trkpt lat="43.2151667" lon="2.3222917"><ele>111.8</ele><time>2026-05-01T17:45:38.997Z</time></trkpt><trkpt lat="43.2152767" lon="2.3223283"><ele>111.0</ele><time>2026-05-01T17:45:40.001Z</time></trkpt><trkpt lat="43.2153883" lon="2.3224033"><ele>111.0</ele><time>2026-05-01T17:45:40.996Z</time></trkpt><trkpt lat="43.2155017" lon="2.3225033"><ele>111.0</ele><time>2026-05-01T17:45:41.997Z</time></trkpt><trkpt lat="43.2156283" lon="2.3225833"><ele>111.0</ele><time>2026-05-01T17:45:42.997Z</time></trkpt><trkpt lat="43.21576" lon="2.3226417"><ele>111.0</ele><time>2026-05-01T17:45:43.998Z</time></trkpt><trkpt lat="43.2159" lon="2.3226883"><ele>111.33333333333334</ele><time>2026-05-01T17:45:44.997Z</time></trkpt><trkpt lat="43.21605" lon="2.3227333"><ele>111.66666666666667</ele><time>2026-05-01T17:45:46.003Z</time></trkpt><trkpt lat="43.2162033" lon="2.3227783"><ele>112.0</ele><time>2026-05-01T17:45:46.997Z</time></trkpt><trkpt lat="43.21636" lon="2.32281"><ele>112.66666666666667</ele><time>2026-05-01T17:45:47.997Z</time></trkpt><trkpt lat="43.2165183" lon="2.3228417"><ele>113.33333333333334</ele><time>2026-05-01T17:45:48.999Z</time></trkpt><trkpt lat="43.2166833" lon="2.32288"><ele>114.0</ele><time>2026-05-01T17:45:49.998Z</time></trkpt><trkpt lat="43.2168533" lon="2.3229167"><ele>114.0</ele><time>2026-05-01T17:45:50.998Z</time></trkpt><trkpt lat="43.2170267" lon="2.3229567"><ele>114.0</ele><time>2026-05-01T17:45:51.998Z</time></trkpt><trkpt lat="43.2172033" lon="2.323"><ele>114.0</ele><time>2026-05-01T17:45:52.997Z</time></trkpt><trkpt lat="43.217385" lon="2.3230433"><ele>112.0</ele><time>2026-05-01T17:45:54.002Z</time></trkpt><trkpt lat="43.217565" lon="2.3230817"><ele>110.0</ele><time>2026-05-01T17:45:54.998Z</time></trkpt><trkpt lat="43.2177517" lon="2.3231217"><ele>108.0</ele><time>2026-05-01T17:45:55.997Z</time></trkpt><trkpt lat="43.2179417" lon="2.3231667"><ele>108.0</ele><time>2026-05-01T17:45:56.997Z</time></trkpt><trkpt lat="43.2181317" lon="2.32321"><ele>108.0</ele><time>2026-05-01T17:45:57.997Z</time></trkpt><trkpt lat="43.2183217" lon="2.3232567"><ele>108.0</ele><time>2026-05-01T17:45:58.997Z</time></trkpt><trkpt lat="43.21851" lon="2.3233017"><ele>107.33333333333334</ele><time>2026-05-01T17:45:59.998Z</time></trkpt><trkpt lat="43.2187017" lon="2.3233467"><ele>106.66666666666667</ele><time>2026-05-01T17:46:00.997Z</time></trkpt><trkpt lat="43.2188933" lon="2.3233933"><ele>106.0</ele><time>2026-05-01T17:46:01.997Z</time></trkpt><trkpt lat="43.219085" lon="2.3234433"><ele>106.0</ele><time>2026-05-01T17:46:02.998Z</time></trkpt><trkpt lat="43.2192783" lon="2.3234883"><ele>106.0</ele><time>2026-05-01T17:46:03.997Z</time></trkpt><trkpt lat="43.2194667" lon="2.32353"><ele>106.0</ele><time>2026-05-01T17:46:04.997Z</time></trkpt><trkpt lat="43.2196567" lon="2.3235733"><ele>106.0</ele><time>2026-05-01T17:46:05.999Z</time></trkpt><trkpt lat="43.21985" lon="2.3236133"><ele>106.0</ele><time>2026-05-01T17:46:06.997Z</time></trkpt><trkpt lat="43.2200483" lon="2.3236483"><ele>106.0</ele><time>2026-05-01T17:46:08.004Z</time></trkpt><trkpt lat="43.220245" lon="2.3236883"><ele>106.0</ele><time>2026-05-01T17:46:08.998Z</time></trkpt><trkpt lat="43.22044" lon="2.3237333"><ele>106.0</ele><time>2026-05-01T17:46:09.998Z</time></trkpt><trkpt lat="43.2206333" lon="2.323775"><ele>106.0</ele><time>2026-05-01T17:46:10.997Z</time></trkpt><trkpt lat="43.2208267" lon="2.3238183"><ele>105.66666666666667</ele><time>2026-05-01T17:46:11.998Z</time></trkpt><trkpt lat="43.2210183" lon="2.32387"><ele>105.33333333333334</ele><time>2026-05-01T17:46:12.998Z</time></trkpt><trkpt lat="43.2212133" lon="2.3239267"><ele>105.0</ele><time>2026-05-01T17:46:13.998Z</time></trkpt><trkpt lat="43.221405" lon="2.3239867"><ele>105.0</ele><time>2026-05-01T17:46:14.998Z</time></trkpt><trkpt lat="43.2215783" lon="2.32405"><ele>105.0</ele><time>2026-05-01T17:46:15.997Z</time></trkpt><trkpt lat="43.2217367" lon="2.324115"><ele>105.0</ele><time>2026-05-01T17:46:16.996Z</time></trkpt><trkpt lat="43.2218917" lon="2.32418"><ele>105.0</ele><time>2026-05-01T17:46:18.002Z</time></trkpt><trkpt lat="43.2220383" lon="2.3242467"><ele>105.0</ele><time>2026-05-01T17:46:18.998Z</time></trkpt><trkpt lat="43.2221783" lon="2.32433"><ele>105.0</ele><time>2026-05-01T17:46:20.002Z</time></trkpt><trkpt lat="43.22231" lon="2.32443"><ele>105.0</ele><time>2026-05-01T17:46:20.999Z</time></trkpt><trkpt lat="43.2224283" lon="2.3245333"><ele>105.0</ele><time>2026-05-01T17:46:21.998Z</time></trkpt><trkpt lat="43.22254" lon="2.3246333"><ele>105.0</ele><time>2026-05-01T17:46:23Z</time></trkpt><trkpt lat="43.2226433" lon="2.3247167"><ele>105.0</ele><time>2026-05-01T17:46:23.998Z</time></trkpt><trkpt lat="43.2227433" lon="2.32479"><ele>105.5</ele><time>2026-05-01T17:46:24.999Z</time></trkpt><trkpt lat="43.2228317" lon="2.3248583"><ele>106.0</ele><time>2026-05-01T17:46:25.998Z</time></trkpt><trkpt lat="43.2229017" lon="2.3249367"><ele>106.5</ele><time>2026-05-01T17:46:26.997Z</time></trkpt><trkpt lat="43.2229317" lon="2.32504"><ele>107.0</ele><time>2026-05-01T17:46:28.004Z</time></trkpt><trkpt lat="43.2229383" lon="2.3251517"><ele>107.5</ele><time>2026-05-01T17:46:28.997Z</time></trkpt><trkpt lat="43.2229183" lon="2.325255"><ele>108.0</ele><time>2026-05-01T17:46:29.999Z</time></trkpt><trkpt lat="43.2228667" lon="2.32535"><ele>108.0</ele><time>2026-05-01T17:46:30.998Z</time></trkpt><trkpt lat="43.222785" lon="2.3254383"><ele>108.0</ele><time>2026-05-01T17:46:31.998Z</time></trkpt><trkpt lat="43.2226683" lon="2.3255283"><ele>108.0</ele><time>2026-05-01T17:46:33Z</time></trkpt><trkpt lat="43.2225533" lon="2.325635"><ele>108.0</ele><time>2026-05-01T17:46:34.002Z</time></trkpt><trkpt lat="43.2224483" lon="2.3257517"><ele>108.25</ele><time>2026-05-01T17:46:34.998Z</time></trkpt><trkpt lat="43.2223433" lon="2.3258767"><ele>108.5</ele><time>2026-05-01T17:46:35.999Z</time></trkpt><trkpt lat="43.2222433" lon="2.3260017"><ele>108.75</ele><time>2026-05-01T17:46:36.999Z</time></trkpt><trkpt lat="43.22214" lon="2.3261367"><ele>109.0</ele><time>2026-05-01T17:46:37.998Z</time></trkpt><trkpt lat="43.222035" lon="2.326285"><ele>109.0</ele><time>2026-05-01T17:46:39.007Z</time></trkpt><trkpt lat="43.2219217" lon="2.32645"><ele>109.0</ele><time>2026-05-01T17:46:40Z</time></trkpt><trkpt lat="43.2218067" lon="2.326615"><ele>109.0</ele><time>2026-05-01T17:46:40.997Z</time></trkpt><trkpt lat="43.221695" lon="2.3267733"><ele>109.0</ele><time>2026-05-01T17:46:42.001Z</time></trkpt><trkpt lat="43.2215817" lon="2.32694"><ele>109.0</ele><time>2026-05-01T17:46:42.997Z</time></trkpt><trkpt lat="43.2214633" lon="2.3271083"><ele>109.0</ele><time>2026-05-01T17:46:43.998Z</time></trkpt><trkpt lat="43.2213417" lon="2.32727"><ele>109.66666666666667</ele><time>2026-05-01T17:46:44.997Z</time></trkpt><trkpt lat="43.2212183" lon="2.3274367"><ele>110.33333333333334</ele><time>2026-05-01T17:46:45.998Z</time></trkpt><trkpt lat="43.2210933" lon="2.327615"><ele>111.0</ele><time>2026-05-01T17:46:46.997Z</time></trkpt><trkpt lat="43.2209683" lon="2.3277867"><ele>111.0</ele><time>2026-05-01T17:46:47.999Z</time></trkpt><trkpt lat="43.2208417" lon="2.327965"><ele>111.0</ele><time>2026-05-01T17:46:48.998Z</time></trkpt><trkpt lat="43.220715" lon="2.328145"><ele>111.0</ele><time>2026-05-01T17:46:49.999Z</time></trkpt><trkpt lat="43.2205833" lon="2.3283233"><ele>110.33333333333334</ele><time>2026-05-01T17:46:50.997Z</time></trkpt><trkpt lat="43.2204517" lon="2.3285"><ele>109.66666666666667</ele><time>2026-05-01T17:46:51.998Z</time></trkpt><trkpt lat="43.220315" lon="2.3286667"><ele>109.0</ele><time>2026-05-01T17:46:52.999Z</time></trkpt><trkpt lat="43.2201767" lon="2.328835"><ele>108.66666666666667</ele><time>2026-05-01T17:46:53.999Z</time></trkpt><trkpt lat="43.2200417" lon="2.329"><ele>108.33333333333334</ele><time>2026-05-01T17:46:55Z</time></trkpt><trkpt lat="43.2199" lon="2.3291617"><ele>108.0</ele><time>2026-05-01T17:46:55.999Z</time></trkpt><trkpt lat="43.219755" lon="2.32932"><ele>108.0</ele><time>2026-05-01T17:46:56.997Z</time></trkpt><trkpt lat="43.2196083" lon="2.3294683"><ele>108.0</ele><time>2026-05-01T17:46:57.997Z</time></trkpt><trkpt lat="43.2194667" lon="2.3296083"><ele>108.0</ele><time>2026-05-01T17:46:59Z</time></trkpt><trkpt lat="43.2193267" lon="2.3297383"><ele>108.0</ele><time>2026-05-01T17:46:59.997Z</time></trkpt><trkpt lat="43.21918" lon="2.32986"><ele>108.0</ele><time>2026-05-01T17:47:00.998Z</time></trkpt><trkpt lat="43.2190317" lon="2.3299717"><ele>108.0</ele><time>2026-05-01T17:47:01.997Z</time></trkpt><trkpt lat="43.2188933" lon="2.3300683"><ele>108.0</ele><time>2026-05-01T17:47:02.997Z</time></trkpt><trkpt lat="43.2187617" lon="2.3301667"><ele>108.0</ele><time>2026-05-01T17:47:03.998Z</time></trkpt><trkpt lat="43.2186383" lon="2.330275"><ele>108.0</ele><time>2026-05-01T17:47:04.998Z</time></trkpt><trkpt lat="43.2185217" lon="2.3303917"><ele>108.0</ele><time>2026-05-01T17:47:05.997Z</time></trkpt><trkpt lat="43.2184067" lon="2.330515"><ele>107.75</ele><time>2026-05-01T17:47:06.997Z</time></trkpt><trkpt lat="43.218295" lon="2.3306467"><ele>107.5</ele><time>2026-05-01T17:47:07.999Z</time></trkpt><trkpt lat="43.2181867" lon="2.3307783"><ele>107.25</ele><time>2026-05-01T17:47:08.998Z</time></trkpt><trkpt lat="43.21809" lon="2.3309017"><ele>107.0</ele><time>2026-05-01T17:47:09.997Z</time></trkpt><trkpt lat="43.218005" lon="2.3310217"><ele>107.0</ele><time>2026-05-01T17:47:10.997Z</time></trkpt><trkpt lat="43.2179267" lon="2.331155"><ele>107.0</ele><time>2026-05-01T17:47:11.997Z</time></trkpt><trkpt lat="43.217845" lon="2.3313"><ele>107.0</ele><time>2026-05-01T17:47:13.001Z</time></trkpt><trkpt lat="43.2177667" lon="2.3314617"><ele>107.0</ele><time>2026-05-01T17:47:13.998Z</time></trkpt><trkpt lat="43.2176933" lon="2.33163"><ele>107.33333333333333</ele><time>2026-05-01T17:47:14.999Z</time></trkpt><trkpt lat="43.2176267" lon="2.331795"><ele>107.66666666666666</ele><time>2026-05-01T17:47:15.997Z</time></trkpt><trkpt lat="43.217555" lon="2.331985"><ele>108.0</ele><time>2026-05-01T17:47:16.999Z</time></trkpt><trkpt lat="43.2174817" lon="2.33219"><ele>108.0</ele><time>2026-05-01T17:47:17.997Z</time></trkpt><trkpt lat="43.2174117" lon="2.3324017"><ele>108.0</ele><time>2026-05-01T17:47:18.999Z</time></trkpt><trkpt lat="43.2173383" lon="2.33262"><ele>108.0</ele><time>2026-05-01T17:47:20.002Z</time></trkpt><trkpt lat="43.2172683" lon="2.3328333"><ele>107.66666666666666</ele><time>2026-05-01T17:47:20.999Z</time></trkpt><trkpt lat="43.2171983" lon="2.3330433"><ele>107.33333333333333</ele><time>2026-05-01T17:47:21.998Z</time></trkpt><trkpt lat="43.2171283" lon="2.3332533"><ele>107.0</ele><time>2026-05-01T17:47:23Z</time></trkpt><trkpt lat="43.217055" lon="2.3334667"><ele>107.0</ele><time>2026-05-01T17:47:23.998Z</time></trkpt><trkpt lat="43.21698" lon="2.3336833"><ele>107.0</ele><time>2026-05-01T17:47:24.997Z</time></trkpt><trkpt lat="43.216905" lon="2.3339067"><ele>107.0</ele><time>2026-05-01T17:47:25.997Z</time></trkpt><trkpt lat="43.2168317" lon="2.3341367"><ele>107.66666666666666</ele><time>2026-05-01T17:47:26.999Z</time></trkpt><trkpt lat="43.2167583" lon="2.3343617"><ele>108.33333333333334</ele><time>2026-05-01T17:47:27.996Z</time></trkpt><trkpt lat="43.21668" lon="2.3345917"><ele>109.0</ele><time>2026-05-01T17:47:28.998Z</time></trkpt><trkpt lat="43.2166" lon="2.3348167"><ele>109.33333333333334</ele><time>2026-05-01T17:47:29.997Z</time></trkpt><trkpt lat="43.2165233" lon="2.3350433"><ele>109.66666666666666</ele><time>2026-05-01T17:47:30.998Z</time></trkpt><trkpt lat="43.2164467" lon="2.3352733"><ele>110.0</ele><time>2026-05-01T17:47:31.998Z</time></trkpt><trkpt lat="43.2163683" lon="2.33551"><ele>109.66666666666666</ele><time>2026-05-01T17:47:32.998Z</time></trkpt><trkpt lat="43.2162967" lon="2.3357317"><ele>109.33333333333334</ele><time>2026-05-01T17:47:34.002Z</time></trkpt><trkpt lat="43.216225" lon="2.3359417"><ele>109.0</ele><time>2026-05-01T17:47:34.998Z</time></trkpt><trkpt lat="43.2161567" lon="2.336125"><ele>109.0</ele><time>2026-05-01T17:47:35.998Z</time></trkpt><trkpt lat="43.2160967" lon="2.3363033"><ele>109.0</ele><time>2026-05-01T17:47:37.001Z</time></trkpt><trkpt lat="43.21604" lon="2.33647"><ele>109.0</ele><time>2026-05-01T17:47:37.998Z</time></trkpt><trkpt lat="43.21599" lon="2.3366233"><ele>109.0</ele><time>2026-05-01T17:47:38.997Z</time></trkpt><trkpt lat="43.2159483" lon="2.3367717"><ele>109.0</ele><time>2026-05-01T17:47:39.997Z</time></trkpt><trkpt lat="43.2159033" lon="2.3369083"><ele>109.0</ele><time>2026-05-01T17:47:40.997Z</time></trkpt><trkpt lat="43.21586" lon="2.3370383"><ele>109.0</ele><time>2026-05-01T17:47:42.001Z</time></trkpt><trkpt lat="43.21582" lon="2.3371633"><ele>109.0</ele><time>2026-05-01T17:47:42.997Z</time></trkpt><trkpt lat="43.2157767" lon="2.3372867"><ele>109.0</ele><time>2026-05-01T17:47:43.997Z</time></trkpt><trkpt lat="43.2157267" lon="2.3374167"><ele>109.25</ele><time>2026-05-01T17:47:44.997Z</time></trkpt><trkpt lat="43.2156733" lon="2.3375617"><ele>109.5</ele><time>2026-05-01T17:47:45.998Z</time></trkpt><trkpt lat="43.2156183" lon="2.3377083"><ele>109.75</ele><time>2026-05-01T17:47:46.998Z</time></trkpt><trkpt lat="43.2155583" lon="2.33787"><ele>110.0</ele><time>2026-05-01T17:47:47.997Z</time></trkpt><trkpt lat="43.2155" lon="2.3380533"><ele>110.25</ele><time>2026-05-01T17:47:48.998Z</time></trkpt><trkpt lat="43.21545" lon="2.3382267"><ele>110.5</ele><time>2026-05-01T17:47:49.998Z</time></trkpt><trkpt lat="43.215385" lon="2.3384117"><ele>110.75</ele><time>2026-05-01T17:47:51.002Z</time></trkpt><trkpt lat="43.2153133" lon="2.338595"><ele>111.0</ele><time>2026-05-01T17:47:52.001Z</time></trkpt><trkpt lat="43.2152433" lon="2.338785"><ele>111.0</ele><time>2026-05-01T17:47:52.999Z</time></trkpt><trkpt lat="43.2151783" lon="2.3389717"><ele>111.0</ele><time>2026-05-01T17:47:53.999Z</time></trkpt><trkpt lat="43.2151083" lon="2.3391667"><ele>111.0</ele><time>2026-05-01T17:47:54.998Z</time></trkpt><trkpt lat="43.215045" lon="2.339355"><ele>111.0</ele><time>2026-05-01T17:47:55.998Z</time></trkpt><trkpt lat="43.21498" lon="2.3395433"><ele>111.0</ele><time>2026-05-01T17:47:57Z</time></trkpt><trkpt lat="43.21491" lon="2.3397367"><ele>111.0</ele><time>2026-05-01T17:47:57.999Z</time></trkpt><trkpt lat="43.214845" lon="2.3399283"><ele>111.0</ele><time>2026-05-01T17:47:58.996Z</time></trkpt><trkpt lat="43.2147817" lon="2.3401083"><ele>111.0</ele><time>2026-05-01T17:47:59.998Z</time></trkpt><trkpt lat="43.214725" lon="2.3402783"><ele>111.0</ele><time>2026-05-01T17:48:00.997Z</time></trkpt><trkpt lat="43.21467" lon="2.340445"><ele>111.0</ele><time>2026-05-01T17:48:01.997Z</time></trkpt><trkpt lat="43.2146133" lon="2.340605"><ele>111.0</ele><time>2026-05-01T17:48:03.001Z</time></trkpt><trkpt lat="43.2145617" lon="2.3407517"><ele>111.0</ele><time>2026-05-01T17:48:03.997Z</time></trkpt><trkpt lat="43.2145133" lon="2.3408917"><ele>111.0</ele><time>2026-05-01T17:48:04.997Z</time></trkpt><trkpt lat="43.21447" lon="2.341025"><ele>111.0</ele><time>2026-05-01T17:48:05.999Z</time></trkpt><trkpt lat="43.214425" lon="2.34115"><ele>111.0</ele><time>2026-05-01T17:48:06.997Z</time></trkpt><trkpt lat="43.2143883" lon="2.3412633"><ele>111.0</ele><time>2026-05-01T17:48:07.998Z</time></trkpt><trkpt lat="43.21436" lon="2.3413633"><ele>111.0</ele><time>2026-05-01T17:48:09Z</time></trkpt><trkpt lat="43.2142817" lon="2.3414583"><ele>111.0</ele><time>2026-05-01T17:48:10.998Z</time></trkpt><trkpt lat="43.2141733" lon="2.341435"><ele>111.0</ele><time>2026-05-01T17:48:12.998Z</time></trkpt><trkpt lat="43.2141083" lon="2.34141"><ele>111.0</ele><time>2026-05-01T17:48:13.997Z</time></trkpt><trkpt lat="43.2140383" lon="2.3413867"><ele>111.0</ele><time>2026-05-01T17:48:15.002Z</time></trkpt><trkpt lat="43.21396" lon="2.3413683"><ele>111.0</ele><time>2026-05-01T17:48:15.998Z</time></trkpt><trkpt lat="43.2138767" lon="2.34135"><ele>111.0</ele><time>2026-05-01T17:48:16.996Z</time></trkpt><trkpt lat="43.2137967" lon="2.341335"><ele>111.0</ele><time>2026-05-01T17:48:17.999Z</time></trkpt><trkpt lat="43.21373" lon="2.341315"><ele>111.0</ele><time>2026-05-01T17:48:18.999Z</time></trkpt><trkpt lat="43.2136267" lon="2.3412767"><ele>111.0</ele><time>2026-05-01T17:48:21.002Z</time></trkpt></trkseg></trk></gpx>